<?xml version="1.0" encoding="UTF-8" standalone="no" ?>
<gpx xmlns="http://www.topografix.com/GPX/1/1" xmlns:xsi="http://www.w3.org/2001/XMLSchema-instance" xsi:schemaLocation="http://www.topografix.com/GPX/1/1 http://www.topografix.com/GPX/1/1/gpx.xsd" version="1.1" creator="VisuGPX - https://www.visugpx.com">
  <metadata>
    <name>Tour du grand Galibier</name>
    <desc><![CDATA[Tour du grand galibier en VTT depuis le Monêtier les bains.]]></desc>
  </metadata>
  <trk>
    <name><![CDATA[Tour du grand Galibier_1]]></name>
    <trkseg>
      <trkpt lat="44.97355" lon="6.50642">
        <ele>1464.3</ele>
        <time>2022-07-16T07:41:51+0200</time>
      </trkpt>
      <trkpt lat="44.9736" lon="6.50638">
        <ele>1464.1</ele>
        <time>2022-07-16T07:41:52+0200</time>
      </trkpt>
      <trkpt lat="44.97358" lon="6.50632">
        <ele>1464.4</ele>
        <time>2022-07-16T07:41:53+0200</time>
      </trkpt>
      <trkpt lat="44.9736" lon="6.50626">
        <ele>1464.5</ele>
        <time>2022-07-16T07:41:54+0200</time>
      </trkpt>
      <trkpt lat="44.97362" lon="6.50619">
        <ele>1464.7</ele>
        <time>2022-07-16T07:41:55+0200</time>
      </trkpt>
      <trkpt lat="44.97363" lon="6.50612">
        <ele>1464.9</ele>
        <time>2022-07-16T07:41:56+0200</time>
      </trkpt>
      <trkpt lat="44.97365" lon="6.50605">
        <ele>1464.9</ele>
        <time>2022-07-16T07:41:56+0200</time>
      </trkpt>
      <trkpt lat="44.97367" lon="6.50599">
        <ele>1464.8</ele>
        <time>2022-07-16T07:41:57+0200</time>
      </trkpt>
      <trkpt lat="44.97368" lon="6.50591">
        <ele>1464.8</ele>
        <time>2022-07-16T07:41:58+0200</time>
      </trkpt>
      <trkpt lat="44.97368" lon="6.50583">
        <ele>1464.8</ele>
        <time>2022-07-16T07:41:59+0200</time>
      </trkpt>
      <trkpt lat="44.9737" lon="6.50576">
        <ele>1464.9</ele>
        <time>2022-07-16T07:42:00+0200</time>
      </trkpt>
      <trkpt lat="44.97372" lon="6.50566">
        <ele>1465.2</ele>
        <time>2022-07-16T07:42:02+0200</time>
      </trkpt>
      <trkpt lat="44.97373" lon="6.50557">
        <ele>1465.5</ele>
        <time>2022-07-16T07:42:03+0200</time>
      </trkpt>
      <trkpt lat="44.97374" lon="6.5055">
        <ele>1465.6</ele>
        <time>2022-07-16T07:42:04+0200</time>
      </trkpt>
      <trkpt lat="44.97375" lon="6.50543">
        <ele>1465.7</ele>
        <time>2022-07-16T07:42:05+0200</time>
      </trkpt>
      <trkpt lat="44.97376" lon="6.50535">
        <ele>1465.8</ele>
        <time>2022-07-16T07:42:06+0200</time>
      </trkpt>
      <trkpt lat="44.97376" lon="6.50529">
        <ele>1465.9</ele>
        <time>2022-07-16T07:42:07+0200</time>
      </trkpt>
      <trkpt lat="44.97378" lon="6.50522">
        <ele>1466</ele>
        <time>2022-07-16T07:42:08+0200</time>
      </trkpt>
      <trkpt lat="44.9738" lon="6.50516">
        <ele>1466.1</ele>
        <time>2022-07-16T07:42:09+0200</time>
      </trkpt>
      <trkpt lat="44.9738" lon="6.50509">
        <ele>1466.3</ele>
        <time>2022-07-16T07:42:10+0200</time>
      </trkpt>
      <trkpt lat="44.97381" lon="6.50501">
        <ele>1466.5</ele>
        <time>2022-07-16T07:42:11+0200</time>
      </trkpt>
      <trkpt lat="44.97384" lon="6.50496">
        <ele>1466.5</ele>
        <time>2022-07-16T07:42:12+0200</time>
      </trkpt>
      <trkpt lat="44.97387" lon="6.50484">
        <ele>1466.7</ele>
        <time>2022-07-16T07:42:14+0200</time>
      </trkpt>
      <trkpt lat="44.97392" lon="6.50474">
        <ele>1466.8</ele>
        <time>2022-07-16T07:42:16+0200</time>
      </trkpt>
      <trkpt lat="44.97392" lon="6.50467">
        <ele>1467.1</ele>
        <time>2022-07-16T07:42:17+0200</time>
      </trkpt>
      <trkpt lat="44.97397" lon="6.50457">
        <ele>1467.1</ele>
        <time>2022-07-16T07:42:19+0200</time>
      </trkpt>
      <trkpt lat="44.97399" lon="6.50451">
        <ele>1467.1</ele>
        <time>2022-07-16T07:42:20+0200</time>
      </trkpt>
      <trkpt lat="44.97402" lon="6.50438">
        <ele>1467.3</ele>
        <time>2022-07-16T07:42:22+0200</time>
      </trkpt>
      <trkpt lat="44.97405" lon="6.50433">
        <ele>1467.2</ele>
        <time>2022-07-16T07:42:23+0200</time>
      </trkpt>
      <trkpt lat="44.97406" lon="6.50426">
        <ele>1467.4</ele>
        <time>2022-07-16T07:42:24+0200</time>
      </trkpt>
      <trkpt lat="44.97409" lon="6.50416">
        <ele>1467.6</ele>
        <time>2022-07-16T07:42:26+0200</time>
      </trkpt>
      <trkpt lat="44.97413" lon="6.50405">
        <ele>1468.1</ele>
        <time>2022-07-16T07:42:28+0200</time>
      </trkpt>
      <trkpt lat="44.97417" lon="6.504">
        <ele>1468.2</ele>
        <time>2022-07-16T07:42:29+0200</time>
      </trkpt>
      <trkpt lat="44.97419" lon="6.50388">
        <ele>1468.9</ele>
        <time>2022-07-16T07:42:31+0200</time>
      </trkpt>
      <trkpt lat="44.97421" lon="6.50382">
        <ele>1469</ele>
        <time>2022-07-16T07:42:32+0200</time>
      </trkpt>
      <trkpt lat="44.97425" lon="6.50374">
        <ele>1469.1</ele>
        <time>2022-07-16T07:42:34+0200</time>
      </trkpt>
      <trkpt lat="44.97428" lon="6.50361">
        <ele>1469.2</ele>
        <time>2022-07-16T07:42:36+0200</time>
      </trkpt>
      <trkpt lat="44.97429" lon="6.50352">
        <ele>1469.6</ele>
        <time>2022-07-16T07:42:37+0200</time>
      </trkpt>
      <trkpt lat="44.97431" lon="6.50345">
        <ele>1469.8</ele>
        <time>2022-07-16T07:42:38+0200</time>
      </trkpt>
      <trkpt lat="44.97433" lon="6.50339">
        <ele>1470</ele>
        <time>2022-07-16T07:42:39+0200</time>
      </trkpt>
      <trkpt lat="44.97435" lon="6.50333">
        <ele>1470</ele>
        <time>2022-07-16T07:42:40+0200</time>
      </trkpt>
      <trkpt lat="44.97438" lon="6.50326">
        <ele>1470.2</ele>
        <time>2022-07-16T07:42:42+0200</time>
      </trkpt>
      <trkpt lat="44.97441" lon="6.50315">
        <ele>1470.6</ele>
        <time>2022-07-16T07:42:44+0200</time>
      </trkpt>
      <trkpt lat="44.97443" lon="6.50305">
        <ele>1471.1</ele>
        <time>2022-07-16T07:42:46+0200</time>
      </trkpt>
      <trkpt lat="44.97448" lon="6.50294">
        <ele>1471.4</ele>
        <time>2022-07-16T07:42:48+0200</time>
      </trkpt>
      <trkpt lat="44.97448" lon="6.50287">
        <ele>1471.6</ele>
        <time>2022-07-16T07:42:49+0200</time>
      </trkpt>
      <trkpt lat="44.97451" lon="6.50278">
        <ele>1471.7</ele>
        <time>2022-07-16T07:42:51+0200</time>
      </trkpt>
      <trkpt lat="44.97453" lon="6.5027">
        <ele>1471.9</ele>
        <time>2022-07-16T07:42:53+0200</time>
      </trkpt>
      <trkpt lat="44.97453" lon="6.50258">
        <ele>1472.2</ele>
        <time>2022-07-16T07:42:55+0200</time>
      </trkpt>
      <trkpt lat="44.97454" lon="6.50249">
        <ele>1472.4</ele>
        <time>2022-07-16T07:42:57+0200</time>
      </trkpt>
      <trkpt lat="44.97456" lon="6.50239">
        <ele>1472.6</ele>
        <time>2022-07-16T07:42:59+0200</time>
      </trkpt>
      <trkpt lat="44.97459" lon="6.5023">
        <ele>1472.7</ele>
        <time>2022-07-16T07:43:01+0200</time>
      </trkpt>
      <trkpt lat="44.97462" lon="6.50217">
        <ele>1473.1</ele>
        <time>2022-07-16T07:43:03+0200</time>
      </trkpt>
      <trkpt lat="44.97463" lon="6.50211">
        <ele>1473.3</ele>
        <time>2022-07-16T07:43:04+0200</time>
      </trkpt>
      <trkpt lat="44.97465" lon="6.50199">
        <ele>1474</ele>
        <time>2022-07-16T07:43:06+0200</time>
      </trkpt>
      <trkpt lat="44.97466" lon="6.50189">
        <ele>1474.5</ele>
        <time>2022-07-16T07:43:08+0200</time>
      </trkpt>
      <trkpt lat="44.97468" lon="6.50181">
        <ele>1474.7</ele>
        <time>2022-07-16T07:43:10+0200</time>
      </trkpt>
      <trkpt lat="44.97468" lon="6.50174">
        <ele>1475</ele>
        <time>2022-07-16T07:43:11+0200</time>
      </trkpt>
      <trkpt lat="44.97469" lon="6.50167">
        <ele>1475.2</ele>
        <time>2022-07-16T07:43:12+0200</time>
      </trkpt>
      <trkpt lat="44.97472" lon="6.50156">
        <ele>1475.8</ele>
        <time>2022-07-16T07:43:14+0200</time>
      </trkpt>
      <trkpt lat="44.97474" lon="6.50147">
        <ele>1476.4</ele>
        <time>2022-07-16T07:43:16+0200</time>
      </trkpt>
      <trkpt lat="44.97476" lon="6.50137">
        <ele>1476.8</ele>
        <time>2022-07-16T07:43:18+0200</time>
      </trkpt>
      <trkpt lat="44.97481" lon="6.50128">
        <ele>1477.2</ele>
        <time>2022-07-16T07:43:20+0200</time>
      </trkpt>
      <trkpt lat="44.97482" lon="6.50121">
        <ele>1477.5</ele>
        <time>2022-07-16T07:43:21+0200</time>
      </trkpt>
      <trkpt lat="44.97484" lon="6.50112">
        <ele>1478.1</ele>
        <time>2022-07-16T07:43:23+0200</time>
      </trkpt>
      <trkpt lat="44.97487" lon="6.50101">
        <ele>1478.3</ele>
        <time>2022-07-16T07:43:25+0200</time>
      </trkpt>
      <trkpt lat="44.9749" lon="6.50094">
        <ele>1478.3</ele>
        <time>2022-07-16T07:43:26+0200</time>
      </trkpt>
      <trkpt lat="44.97492" lon="6.50089">
        <ele>1478.4</ele>
        <time>2022-07-16T07:43:27+0200</time>
      </trkpt>
      <trkpt lat="44.97495" lon="6.50083">
        <ele>1478.4</ele>
        <time>2022-07-16T07:43:28+0200</time>
      </trkpt>
      <trkpt lat="44.97498" lon="6.50072">
        <ele>1478.6</ele>
        <time>2022-07-16T07:43:30+0200</time>
      </trkpt>
      <trkpt lat="44.97501" lon="6.50062">
        <ele>1478.7</ele>
        <time>2022-07-16T07:43:32+0200</time>
      </trkpt>
      <trkpt lat="44.97505" lon="6.50054">
        <ele>1478.9</ele>
        <time>2022-07-16T07:43:34+0200</time>
      </trkpt>
      <trkpt lat="44.97507" lon="6.50047">
        <ele>1479</ele>
        <time>2022-07-16T07:43:35+0200</time>
      </trkpt>
      <trkpt lat="44.9751" lon="6.50039">
        <ele>1479</ele>
        <time>2022-07-16T07:43:36+0200</time>
      </trkpt>
      <trkpt lat="44.97513" lon="6.50032">
        <ele>1479</ele>
        <time>2022-07-16T07:43:37+0200</time>
      </trkpt>
      <trkpt lat="44.97515" lon="6.50025">
        <ele>1479</ele>
        <time>2022-07-16T07:43:38+0200</time>
      </trkpt>
      <trkpt lat="44.97513" lon="6.50014">
        <ele>1479.3</ele>
        <time>2022-07-16T07:43:39+0200</time>
      </trkpt>
      <trkpt lat="44.97516" lon="6.50007">
        <ele>1479.3</ele>
        <time>2022-07-16T07:43:40+0200</time>
      </trkpt>
      <trkpt lat="44.9752" lon="6.49995">
        <ele>1479.4</ele>
        <time>2022-07-16T07:43:41+0200</time>
      </trkpt>
      <trkpt lat="44.97523" lon="6.49989">
        <ele>1479.6</ele>
        <time>2022-07-16T07:43:42+0200</time>
      </trkpt>
      <trkpt lat="44.97529" lon="6.49977">
        <ele>1479.8</ele>
        <time>2022-07-16T07:43:44+0200</time>
      </trkpt>
      <trkpt lat="44.97532" lon="6.49972">
        <ele>1479.8</ele>
        <time>2022-07-16T07:43:45+0200</time>
      </trkpt>
      <trkpt lat="44.97535" lon="6.49966">
        <ele>1479.9</ele>
        <time>2022-07-16T07:43:46+0200</time>
      </trkpt>
      <trkpt lat="44.9754" lon="6.49958">
        <ele>1480.1</ele>
        <time>2022-07-16T07:43:48+0200</time>
      </trkpt>
      <trkpt lat="44.97543" lon="6.49951">
        <ele>1480.2</ele>
        <time>2022-07-16T07:43:50+0200</time>
      </trkpt>
      <trkpt lat="44.97548" lon="6.49946">
        <ele>1480.2</ele>
        <time>2022-07-16T07:43:52+0200</time>
      </trkpt>
      <trkpt lat="44.97554" lon="6.49942">
        <ele>1480.1</ele>
        <time>2022-07-16T07:43:54+0200</time>
      </trkpt>
      <trkpt lat="44.9756" lon="6.49932">
        <ele>1479.7</ele>
        <time>2022-07-16T07:43:56+0200</time>
      </trkpt>
      <trkpt lat="44.97565" lon="6.49925">
        <ele>1479.3</ele>
        <time>2022-07-16T07:43:57+0200</time>
      </trkpt>
      <trkpt lat="44.97571" lon="6.49919">
        <ele>1478.9</ele>
        <time>2022-07-16T07:43:58+0200</time>
      </trkpt>
      <trkpt lat="44.97576" lon="6.49915">
        <ele>1478.5</ele>
        <time>2022-07-16T07:43:59+0200</time>
      </trkpt>
      <trkpt lat="44.97581" lon="6.49909">
        <ele>1478.1</ele>
        <time>2022-07-16T07:44:00+0200</time>
      </trkpt>
      <trkpt lat="44.97588" lon="6.49902">
        <ele>1477.6</ele>
        <time>2022-07-16T07:44:01+0200</time>
      </trkpt>
      <trkpt lat="44.97592" lon="6.49896">
        <ele>1477.4</ele>
        <time>2022-07-16T07:44:02+0200</time>
      </trkpt>
      <trkpt lat="44.97595" lon="6.49889">
        <ele>1477.2</ele>
        <time>2022-07-16T07:44:03+0200</time>
      </trkpt>
      <trkpt lat="44.97596" lon="6.49882">
        <ele>1477.2</ele>
        <time>2022-07-16T07:44:04+0200</time>
      </trkpt>
      <trkpt lat="44.97601" lon="6.49877">
        <ele>1477</ele>
        <time>2022-07-16T07:44:05+0200</time>
      </trkpt>
      <trkpt lat="44.97599" lon="6.49868">
        <ele>1477.3</ele>
        <time>2022-07-16T07:44:06+0200</time>
      </trkpt>
      <trkpt lat="44.976" lon="6.49861">
        <ele>1477.4</ele>
        <time>2022-07-16T07:44:07+0200</time>
      </trkpt>
      <trkpt lat="44.97612" lon="6.4986">
        <ele>1477</ele>
        <time>2022-07-16T07:44:08+0200</time>
      </trkpt>
      <trkpt lat="44.97612" lon="6.49853">
        <ele>1477.3</ele>
        <time>2022-07-16T07:44:09+0200</time>
      </trkpt>
      <trkpt lat="44.97612" lon="6.49846">
        <ele>1477.5</ele>
        <time>2022-07-16T07:44:10+0200</time>
      </trkpt>
      <trkpt lat="44.976" lon="6.49839">
        <ele>1478.2</ele>
        <time>2022-07-16T07:44:11+0200</time>
      </trkpt>
      <trkpt lat="44.976" lon="6.49833">
        <ele>1478.4</ele>
        <time>2022-07-16T07:44:13+0200</time>
      </trkpt>
      <trkpt lat="44.97602" lon="6.49826">
        <ele>1478.6</ele>
        <time>2022-07-16T07:44:15+0200</time>
      </trkpt>
      <trkpt lat="44.97604" lon="6.49817">
        <ele>1478.8</ele>
        <time>2022-07-16T07:44:17+0200</time>
      </trkpt>
      <trkpt lat="44.97635" lon="6.49811">
        <ele>1477.9</ele>
        <time>2022-07-16T07:44:19+0200</time>
      </trkpt>
      <trkpt lat="44.97639" lon="6.49805">
        <ele>1478</ele>
        <time>2022-07-16T07:44:20+0200</time>
      </trkpt>
      <trkpt lat="44.97644" lon="6.49803">
        <ele>1478</ele>
        <time>2022-07-16T07:44:21+0200</time>
      </trkpt>
      <trkpt lat="44.97648" lon="6.498">
        <ele>1478</ele>
        <time>2022-07-16T07:44:22+0200</time>
      </trkpt>
      <trkpt lat="44.97652" lon="6.49796">
        <ele>1478</ele>
        <time>2022-07-16T07:44:23+0200</time>
      </trkpt>
      <trkpt lat="44.97656" lon="6.49789">
        <ele>1478</ele>
        <time>2022-07-16T07:44:24+0200</time>
      </trkpt>
      <trkpt lat="44.97659" lon="6.49777">
        <ele>1478</ele>
        <time>2022-07-16T07:44:26+0200</time>
      </trkpt>
      <trkpt lat="44.97663" lon="6.49767">
        <ele>1478.1</ele>
        <time>2022-07-16T07:44:28+0200</time>
      </trkpt>
      <trkpt lat="44.97667" lon="6.49758">
        <ele>1478</ele>
        <time>2022-07-16T07:44:30+0200</time>
      </trkpt>
      <trkpt lat="44.9767" lon="6.49752">
        <ele>1478</ele>
        <time>2022-07-16T07:44:31+0200</time>
      </trkpt>
      <trkpt lat="44.97673" lon="6.49745">
        <ele>1478.1</ele>
        <time>2022-07-16T07:44:32+0200</time>
      </trkpt>
      <trkpt lat="44.97678" lon="6.49734">
        <ele>1478.4</ele>
        <time>2022-07-16T07:44:34+0200</time>
      </trkpt>
      <trkpt lat="44.9768" lon="6.49725">
        <ele>1478.5</ele>
        <time>2022-07-16T07:44:35+0200</time>
      </trkpt>
      <trkpt lat="44.97682" lon="6.49716">
        <ele>1478.5</ele>
        <time>2022-07-16T07:44:37+0200</time>
      </trkpt>
      <trkpt lat="44.97689" lon="6.49713">
        <ele>1478.2</ele>
        <time>2022-07-16T07:44:39+0200</time>
      </trkpt>
      <trkpt lat="44.97697" lon="6.49707">
        <ele>1478.1</ele>
        <time>2022-07-16T07:44:41+0200</time>
      </trkpt>
      <trkpt lat="44.97705" lon="6.49701">
        <ele>1478.5</ele>
        <time>2022-07-16T07:44:43+0200</time>
      </trkpt>
      <trkpt lat="44.9771" lon="6.497">
        <ele>1478.7</ele>
        <time>2022-07-16T07:44:44+0200</time>
      </trkpt>
      <trkpt lat="44.97715" lon="6.49699">
        <ele>1478.9</ele>
        <time>2022-07-16T07:44:45+0200</time>
      </trkpt>
      <trkpt lat="44.97725" lon="6.49696">
        <ele>1479.1</ele>
        <time>2022-07-16T07:44:47+0200</time>
      </trkpt>
      <trkpt lat="44.9773" lon="6.4969">
        <ele>1479.2</ele>
        <time>2022-07-16T07:44:48+0200</time>
      </trkpt>
      <trkpt lat="44.97735" lon="6.49684">
        <ele>1479.3</ele>
        <time>2022-07-16T07:44:49+0200</time>
      </trkpt>
      <trkpt lat="44.9774" lon="6.4968">
        <ele>1479.3</ele>
        <time>2022-07-16T07:44:50+0200</time>
      </trkpt>
      <trkpt lat="44.97745" lon="6.49675">
        <ele>1479.3</ele>
        <time>2022-07-16T07:44:51+0200</time>
      </trkpt>
      <trkpt lat="44.9775" lon="6.49671">
        <ele>1479.2</ele>
        <time>2022-07-16T07:44:52+0200</time>
      </trkpt>
      <trkpt lat="44.97754" lon="6.49667">
        <ele>1479</ele>
        <time>2022-07-16T07:44:53+0200</time>
      </trkpt>
      <trkpt lat="44.97759" lon="6.49665">
        <ele>1479</ele>
        <time>2022-07-16T07:44:54+0200</time>
      </trkpt>
      <trkpt lat="44.97763" lon="6.49663">
        <ele>1479</ele>
        <time>2022-07-16T07:44:55+0200</time>
      </trkpt>
      <trkpt lat="44.97772" lon="6.49658">
        <ele>1479</ele>
        <time>2022-07-16T07:44:57+0200</time>
      </trkpt>
      <trkpt lat="44.97777" lon="6.49656">
        <ele>1479</ele>
        <time>2022-07-16T07:44:58+0200</time>
      </trkpt>
      <trkpt lat="44.97782" lon="6.49652">
        <ele>1479.2</ele>
        <time>2022-07-16T07:44:59+0200</time>
      </trkpt>
      <trkpt lat="44.97791" lon="6.49653">
        <ele>1479.5</ele>
        <time>2022-07-16T07:45:01+0200</time>
      </trkpt>
      <trkpt lat="44.97796" lon="6.49652">
        <ele>1479.7</ele>
        <time>2022-07-16T07:45:02+0200</time>
      </trkpt>
      <trkpt lat="44.97801" lon="6.49649">
        <ele>1479.8</ele>
        <time>2022-07-16T07:45:04+0200</time>
      </trkpt>
      <trkpt lat="44.97806" lon="6.49646">
        <ele>1480</ele>
        <time>2022-07-16T07:45:05+0200</time>
      </trkpt>
      <trkpt lat="44.9781" lon="6.49645">
        <ele>1480.2</ele>
        <time>2022-07-16T07:45:06+0200</time>
      </trkpt>
      <trkpt lat="44.97815" lon="6.49643">
        <ele>1480.4</ele>
        <time>2022-07-16T07:45:07+0200</time>
      </trkpt>
      <trkpt lat="44.9782" lon="6.49642">
        <ele>1480.6</ele>
        <time>2022-07-16T07:45:08+0200</time>
      </trkpt>
      <trkpt lat="44.97826" lon="6.49641">
        <ele>1480.8</ele>
        <time>2022-07-16T07:45:10+0200</time>
      </trkpt>
      <trkpt lat="44.97834" lon="6.49636">
        <ele>1481</ele>
        <time>2022-07-16T07:45:12+0200</time>
      </trkpt>
      <trkpt lat="44.97838" lon="6.49632">
        <ele>1481.2</ele>
        <time>2022-07-16T07:45:13+0200</time>
      </trkpt>
      <trkpt lat="44.97843" lon="6.49623">
        <ele>1481.4</ele>
        <time>2022-07-16T07:45:15+0200</time>
      </trkpt>
      <trkpt lat="44.97845" lon="6.49617">
        <ele>1481.4</ele>
        <time>2022-07-16T07:45:16+0200</time>
      </trkpt>
      <trkpt lat="44.97848" lon="6.49611">
        <ele>1481.5</ele>
        <time>2022-07-16T07:45:17+0200</time>
      </trkpt>
      <trkpt lat="44.9785" lon="6.49606">
        <ele>1481.7</ele>
        <time>2022-07-16T07:45:18+0200</time>
      </trkpt>
      <trkpt lat="44.97855" lon="6.49595">
        <ele>1481.9</ele>
        <time>2022-07-16T07:45:20+0200</time>
      </trkpt>
      <trkpt lat="44.97857" lon="6.49589">
        <ele>1482</ele>
        <time>2022-07-16T07:45:21+0200</time>
      </trkpt>
      <trkpt lat="44.9786" lon="6.49582">
        <ele>1482</ele>
        <time>2022-07-16T07:45:22+0200</time>
      </trkpt>
      <trkpt lat="44.97863" lon="6.49569">
        <ele>1481.5</ele>
        <time>2022-07-16T07:45:24+0200</time>
      </trkpt>
      <trkpt lat="44.97866" lon="6.49564">
        <ele>1481.4</ele>
        <time>2022-07-16T07:45:25+0200</time>
      </trkpt>
      <trkpt lat="44.9787" lon="6.49559">
        <ele>1481.4</ele>
        <time>2022-07-16T07:45:26+0200</time>
      </trkpt>
      <trkpt lat="44.97874" lon="6.49552">
        <ele>1481.5</ele>
        <time>2022-07-16T07:45:27+0200</time>
      </trkpt>
      <trkpt lat="44.97877" lon="6.49545">
        <ele>1481.6</ele>
        <time>2022-07-16T07:45:28+0200</time>
      </trkpt>
      <trkpt lat="44.9788" lon="6.4954">
        <ele>1481.7</ele>
        <time>2022-07-16T07:45:29+0200</time>
      </trkpt>
      <trkpt lat="44.97883" lon="6.49533">
        <ele>1481.8</ele>
        <time>2022-07-16T07:45:30+0200</time>
      </trkpt>
      <trkpt lat="44.97884" lon="6.49527">
        <ele>1481.8</ele>
        <time>2022-07-16T07:45:31+0200</time>
      </trkpt>
      <trkpt lat="44.97887" lon="6.49521">
        <ele>1481.9</ele>
        <time>2022-07-16T07:45:32+0200</time>
      </trkpt>
      <trkpt lat="44.97889" lon="6.49514">
        <ele>1482</ele>
        <time>2022-07-16T07:45:33+0200</time>
      </trkpt>
      <trkpt lat="44.97891" lon="6.49507">
        <ele>1482</ele>
        <time>2022-07-16T07:45:34+0200</time>
      </trkpt>
      <trkpt lat="44.97892" lon="6.49499">
        <ele>1482</ele>
        <time>2022-07-16T07:45:35+0200</time>
      </trkpt>
      <trkpt lat="44.97893" lon="6.49492">
        <ele>1482</ele>
        <time>2022-07-16T07:45:36+0200</time>
      </trkpt>
      <trkpt lat="44.97895" lon="6.49486">
        <ele>1482.1</ele>
        <time>2022-07-16T07:45:37+0200</time>
      </trkpt>
      <trkpt lat="44.97897" lon="6.4948">
        <ele>1482.2</ele>
        <time>2022-07-16T07:45:38+0200</time>
      </trkpt>
      <trkpt lat="44.979" lon="6.49469">
        <ele>1482.5</ele>
        <time>2022-07-16T07:45:40+0200</time>
      </trkpt>
      <trkpt lat="44.97902" lon="6.49462">
        <ele>1482.7</ele>
        <time>2022-07-16T07:45:41+0200</time>
      </trkpt>
      <trkpt lat="44.97905" lon="6.49454">
        <ele>1482.9</ele>
        <time>2022-07-16T07:45:42+0200</time>
      </trkpt>
      <trkpt lat="44.97909" lon="6.49442">
        <ele>1483.1</ele>
        <time>2022-07-16T07:45:44+0200</time>
      </trkpt>
      <trkpt lat="44.97911" lon="6.49435">
        <ele>1483.3</ele>
        <time>2022-07-16T07:45:45+0200</time>
      </trkpt>
      <trkpt lat="44.97915" lon="6.49425">
        <ele>1483.7</ele>
        <time>2022-07-16T07:45:47+0200</time>
      </trkpt>
      <trkpt lat="44.97917" lon="6.49419">
        <ele>1483.9</ele>
        <time>2022-07-16T07:45:48+0200</time>
      </trkpt>
      <trkpt lat="44.97919" lon="6.49413">
        <ele>1484</ele>
        <time>2022-07-16T07:45:49+0200</time>
      </trkpt>
      <trkpt lat="44.97922" lon="6.49401">
        <ele>1484</ele>
        <time>2022-07-16T07:45:51+0200</time>
      </trkpt>
      <trkpt lat="44.97925" lon="6.49394">
        <ele>1484</ele>
        <time>2022-07-16T07:45:52+0200</time>
      </trkpt>
      <trkpt lat="44.97928" lon="6.49388">
        <ele>1484</ele>
        <time>2022-07-16T07:45:53+0200</time>
      </trkpt>
      <trkpt lat="44.9793" lon="6.49382">
        <ele>1484.2</ele>
        <time>2022-07-16T07:45:54+0200</time>
      </trkpt>
      <trkpt lat="44.97933" lon="6.49375">
        <ele>1484.5</ele>
        <time>2022-07-16T07:45:55+0200</time>
      </trkpt>
      <trkpt lat="44.97936" lon="6.4937">
        <ele>1484.7</ele>
        <time>2022-07-16T07:45:56+0200</time>
      </trkpt>
      <trkpt lat="44.97939" lon="6.49364">
        <ele>1484.9</ele>
        <time>2022-07-16T07:45:57+0200</time>
      </trkpt>
      <trkpt lat="44.97942" lon="6.49359">
        <ele>1485.1</ele>
        <time>2022-07-16T07:45:58+0200</time>
      </trkpt>
      <trkpt lat="44.97945" lon="6.49354">
        <ele>1485.3</ele>
        <time>2022-07-16T07:45:59+0200</time>
      </trkpt>
      <trkpt lat="44.97949" lon="6.49346">
        <ele>1485.6</ele>
        <time>2022-07-16T07:46:01+0200</time>
      </trkpt>
      <trkpt lat="44.97954" lon="6.49336">
        <ele>1485.9</ele>
        <time>2022-07-16T07:46:03+0200</time>
      </trkpt>
      <trkpt lat="44.97958" lon="6.49327">
        <ele>1486</ele>
        <time>2022-07-16T07:46:05+0200</time>
      </trkpt>
      <trkpt lat="44.97963" lon="6.49317">
        <ele>1486</ele>
        <time>2022-07-16T07:46:07+0200</time>
      </trkpt>
      <trkpt lat="44.97966" lon="6.49311">
        <ele>1486</ele>
        <time>2022-07-16T07:46:08+0200</time>
      </trkpt>
      <trkpt lat="44.97968" lon="6.49305">
        <ele>1486</ele>
        <time>2022-07-16T07:46:09+0200</time>
      </trkpt>
      <trkpt lat="44.97973" lon="6.49297">
        <ele>1486.3</ele>
        <time>2022-07-16T07:46:11+0200</time>
      </trkpt>
      <trkpt lat="44.97976" lon="6.49285">
        <ele>1486.7</ele>
        <time>2022-07-16T07:46:13+0200</time>
      </trkpt>
      <trkpt lat="44.97977" lon="6.49279">
        <ele>1487</ele>
        <time>2022-07-16T07:46:14+0200</time>
      </trkpt>
      <trkpt lat="44.97981" lon="6.49267">
        <ele>1487.4</ele>
        <time>2022-07-16T07:46:16+0200</time>
      </trkpt>
      <trkpt lat="44.97986" lon="6.4926">
        <ele>1487.7</ele>
        <time>2022-07-16T07:46:18+0200</time>
      </trkpt>
      <trkpt lat="44.9799" lon="6.49252">
        <ele>1487.9</ele>
        <time>2022-07-16T07:46:20+0200</time>
      </trkpt>
      <trkpt lat="44.97995" lon="6.49245">
        <ele>1488.2</ele>
        <time>2022-07-16T07:46:22+0200</time>
      </trkpt>
      <trkpt lat="44.97999" lon="6.49238">
        <ele>1488.4</ele>
        <time>2022-07-16T07:46:24+0200</time>
      </trkpt>
      <trkpt lat="44.98006" lon="6.4923">
        <ele>1488.5</ele>
        <time>2022-07-16T07:46:26+0200</time>
      </trkpt>
      <trkpt lat="44.98013" lon="6.49221">
        <ele>1488.6</ele>
        <time>2022-07-16T07:46:28+0200</time>
      </trkpt>
      <trkpt lat="44.98016" lon="6.49216">
        <ele>1488.5</ele>
        <time>2022-07-16T07:46:29+0200</time>
      </trkpt>
      <trkpt lat="44.98019" lon="6.4921">
        <ele>1488.6</ele>
        <time>2022-07-16T07:46:30+0200</time>
      </trkpt>
      <trkpt lat="44.98022" lon="6.49204">
        <ele>1488.7</ele>
        <time>2022-07-16T07:46:31+0200</time>
      </trkpt>
      <trkpt lat="44.98024" lon="6.49199">
        <ele>1488.9</ele>
        <time>2022-07-16T07:46:32+0200</time>
      </trkpt>
      <trkpt lat="44.98026" lon="6.49191">
        <ele>1489</ele>
        <time>2022-07-16T07:46:33+0200</time>
      </trkpt>
      <trkpt lat="44.98028" lon="6.49185">
        <ele>1489</ele>
        <time>2022-07-16T07:46:34+0200</time>
      </trkpt>
      <trkpt lat="44.9803" lon="6.49179">
        <ele>1489</ele>
        <time>2022-07-16T07:46:35+0200</time>
      </trkpt>
      <trkpt lat="44.98032" lon="6.49172">
        <ele>1489</ele>
        <time>2022-07-16T07:46:36+0200</time>
      </trkpt>
      <trkpt lat="44.98033" lon="6.49165">
        <ele>1489.1</ele>
        <time>2022-07-16T07:46:37+0200</time>
      </trkpt>
      <trkpt lat="44.98036" lon="6.49159">
        <ele>1489.3</ele>
        <time>2022-07-16T07:46:38+0200</time>
      </trkpt>
      <trkpt lat="44.98037" lon="6.49151">
        <ele>1489.6</ele>
        <time>2022-07-16T07:46:39+0200</time>
      </trkpt>
      <trkpt lat="44.98039" lon="6.4914">
        <ele>1490</ele>
        <time>2022-07-16T07:46:41+0200</time>
      </trkpt>
      <trkpt lat="44.98039" lon="6.49127">
        <ele>1490</ele>
        <time>2022-07-16T07:46:43+0200</time>
      </trkpt>
      <trkpt lat="44.9804" lon="6.49113">
        <ele>1490</ele>
        <time>2022-07-16T07:46:45+0200</time>
      </trkpt>
      <trkpt lat="44.9804" lon="6.49106">
        <ele>1490.2</ele>
        <time>2022-07-16T07:46:46+0200</time>
      </trkpt>
      <trkpt lat="44.98039" lon="6.49099">
        <ele>1490.4</ele>
        <time>2022-07-16T07:46:47+0200</time>
      </trkpt>
      <trkpt lat="44.98039" lon="6.49091">
        <ele>1490.7</ele>
        <time>2022-07-16T07:46:48+0200</time>
      </trkpt>
      <trkpt lat="44.98039" lon="6.49083">
        <ele>1491</ele>
        <time>2022-07-16T07:46:49+0200</time>
      </trkpt>
      <trkpt lat="44.98039" lon="6.49075">
        <ele>1491.2</ele>
        <time>2022-07-16T07:46:50+0200</time>
      </trkpt>
      <trkpt lat="44.98041" lon="6.49063">
        <ele>1491.4</ele>
        <time>2022-07-16T07:46:52+0200</time>
      </trkpt>
      <trkpt lat="44.98044" lon="6.49055">
        <ele>1491.4</ele>
        <time>2022-07-16T07:46:54+0200</time>
      </trkpt>
      <trkpt lat="44.98049" lon="6.49047">
        <ele>1491.9</ele>
        <time>2022-07-16T07:46:56+0200</time>
      </trkpt>
      <trkpt lat="44.98053" lon="6.49038">
        <ele>1492.3</ele>
        <time>2022-07-16T07:46:58+0200</time>
      </trkpt>
      <trkpt lat="44.98057" lon="6.49031">
        <ele>1492.7</ele>
        <time>2022-07-16T07:47:00+0200</time>
      </trkpt>
      <trkpt lat="44.9806" lon="6.49026">
        <ele>1492.8</ele>
        <time>2022-07-16T07:47:01+0200</time>
      </trkpt>
      <trkpt lat="44.98065" lon="6.49019">
        <ele>1493</ele>
        <time>2022-07-16T07:47:03+0200</time>
      </trkpt>
      <trkpt lat="44.98072" lon="6.49013">
        <ele>1492.9</ele>
        <time>2022-07-16T07:47:05+0200</time>
      </trkpt>
      <trkpt lat="44.98076" lon="6.49008">
        <ele>1493</ele>
        <time>2022-07-16T07:47:06+0200</time>
      </trkpt>
      <trkpt lat="44.98084" lon="6.49002">
        <ele>1492.9</ele>
        <time>2022-07-16T07:47:08+0200</time>
      </trkpt>
      <trkpt lat="44.98087" lon="6.48997">
        <ele>1493.2</ele>
        <time>2022-07-16T07:47:09+0200</time>
      </trkpt>
      <trkpt lat="44.98094" lon="6.48994">
        <ele>1493.2</ele>
        <time>2022-07-16T07:47:11+0200</time>
      </trkpt>
      <trkpt lat="44.98103" lon="6.48987">
        <ele>1493.4</ele>
        <time>2022-07-16T07:47:13+0200</time>
      </trkpt>
      <trkpt lat="44.98107" lon="6.48983">
        <ele>1493.4</ele>
        <time>2022-07-16T07:47:14+0200</time>
      </trkpt>
      <trkpt lat="44.98113" lon="6.48979">
        <ele>1493.5</ele>
        <time>2022-07-16T07:47:15+0200</time>
      </trkpt>
      <trkpt lat="44.98117" lon="6.48976">
        <ele>1493.5</ele>
        <time>2022-07-16T07:47:16+0200</time>
      </trkpt>
      <trkpt lat="44.98122" lon="6.48974">
        <ele>1493.5</ele>
        <time>2022-07-16T07:47:17+0200</time>
      </trkpt>
      <trkpt lat="44.98126" lon="6.48972">
        <ele>1493.5</ele>
        <time>2022-07-16T07:47:18+0200</time>
      </trkpt>
      <trkpt lat="44.98134" lon="6.48968">
        <ele>1493.7</ele>
        <time>2022-07-16T07:47:20+0200</time>
      </trkpt>
      <trkpt lat="44.98138" lon="6.48965">
        <ele>1493.8</ele>
        <time>2022-07-16T07:47:21+0200</time>
      </trkpt>
      <trkpt lat="44.98146" lon="6.4896">
        <ele>1493.9</ele>
        <time>2022-07-16T07:47:23+0200</time>
      </trkpt>
      <trkpt lat="44.98151" lon="6.48957">
        <ele>1494</ele>
        <time>2022-07-16T07:47:24+0200</time>
      </trkpt>
      <trkpt lat="44.98156" lon="6.48953">
        <ele>1494</ele>
        <time>2022-07-16T07:47:25+0200</time>
      </trkpt>
      <trkpt lat="44.9816" lon="6.4895">
        <ele>1494</ele>
        <time>2022-07-16T07:47:26+0200</time>
      </trkpt>
      <trkpt lat="44.98167" lon="6.48941">
        <ele>1494.3</ele>
        <time>2022-07-16T07:47:28+0200</time>
      </trkpt>
      <trkpt lat="44.9817" lon="6.48935">
        <ele>1494.6</ele>
        <time>2022-07-16T07:47:29+0200</time>
      </trkpt>
      <trkpt lat="44.98173" lon="6.48929">
        <ele>1494.9</ele>
        <time>2022-07-16T07:47:30+0200</time>
      </trkpt>
      <trkpt lat="44.98175" lon="6.48924">
        <ele>1495</ele>
        <time>2022-07-16T07:47:31+0200</time>
      </trkpt>
      <trkpt lat="44.9818" lon="6.48918">
        <ele>1495</ele>
        <time>2022-07-16T07:47:33+0200</time>
      </trkpt>
      <trkpt lat="44.98182" lon="6.48909">
        <ele>1495.5</ele>
        <time>2022-07-16T07:47:35+0200</time>
      </trkpt>
      <trkpt lat="44.98187" lon="6.48903">
        <ele>1495.5</ele>
        <time>2022-07-16T07:47:37+0200</time>
      </trkpt>
      <trkpt lat="44.98191" lon="6.48893">
        <ele>1495.9</ele>
        <time>2022-07-16T07:47:39+0200</time>
      </trkpt>
      <trkpt lat="44.98194" lon="6.48886">
        <ele>1496.2</ele>
        <time>2022-07-16T07:47:40+0200</time>
      </trkpt>
      <trkpt lat="44.98196" lon="6.4888">
        <ele>1496.3</ele>
        <time>2022-07-16T07:47:41+0200</time>
      </trkpt>
      <trkpt lat="44.98197" lon="6.48873">
        <ele>1496.4</ele>
        <time>2022-07-16T07:47:42+0200</time>
      </trkpt>
      <trkpt lat="44.98199" lon="6.48862">
        <ele>1496.7</ele>
        <time>2022-07-16T07:47:44+0200</time>
      </trkpt>
      <trkpt lat="44.98199" lon="6.48855">
        <ele>1496.9</ele>
        <time>2022-07-16T07:47:46+0200</time>
      </trkpt>
      <trkpt lat="44.98201" lon="6.48848">
        <ele>1497</ele>
        <time>2022-07-16T07:47:48+0200</time>
      </trkpt>
      <trkpt lat="44.98204" lon="6.48842">
        <ele>1497</ele>
        <time>2022-07-16T07:47:50+0200</time>
      </trkpt>
      <trkpt lat="44.98206" lon="6.48834">
        <ele>1497.2</ele>
        <time>2022-07-16T07:47:52+0200</time>
      </trkpt>
      <trkpt lat="44.9821" lon="6.48823">
        <ele>1497.1</ele>
        <time>2022-07-16T07:47:54+0200</time>
      </trkpt>
      <trkpt lat="44.98213" lon="6.48815">
        <ele>1496.9</ele>
        <time>2022-07-16T07:47:55+0200</time>
      </trkpt>
      <trkpt lat="44.98215" lon="6.48807">
        <ele>1496.7</ele>
        <time>2022-07-16T07:47:56+0200</time>
      </trkpt>
      <trkpt lat="44.98219" lon="6.48801">
        <ele>1496.5</ele>
        <time>2022-07-16T07:47:57+0200</time>
      </trkpt>
      <trkpt lat="44.98223" lon="6.48796">
        <ele>1496.3</ele>
        <time>2022-07-16T07:47:58+0200</time>
      </trkpt>
      <trkpt lat="44.98227" lon="6.48789">
        <ele>1496.4</ele>
        <time>2022-07-16T07:47:59+0200</time>
      </trkpt>
      <trkpt lat="44.98231" lon="6.4878">
        <ele>1496.6</ele>
        <time>2022-07-16T07:48:00+0200</time>
      </trkpt>
      <trkpt lat="44.98234" lon="6.48769">
        <ele>1496.8</ele>
        <time>2022-07-16T07:48:01+0200</time>
      </trkpt>
      <trkpt lat="44.98237" lon="6.48759">
        <ele>1496.8</ele>
        <time>2022-07-16T07:48:02+0200</time>
      </trkpt>
      <trkpt lat="44.98241" lon="6.48752">
        <ele>1496.7</ele>
        <time>2022-07-16T07:48:03+0200</time>
      </trkpt>
      <trkpt lat="44.98244" lon="6.48744">
        <ele>1496.9</ele>
        <time>2022-07-16T07:48:04+0200</time>
      </trkpt>
      <trkpt lat="44.98247" lon="6.48736">
        <ele>1497.3</ele>
        <time>2022-07-16T07:48:05+0200</time>
      </trkpt>
      <trkpt lat="44.98249" lon="6.48728">
        <ele>1497.7</ele>
        <time>2022-07-16T07:48:06+0200</time>
      </trkpt>
      <trkpt lat="44.98251" lon="6.48721">
        <ele>1498</ele>
        <time>2022-07-16T07:48:07+0200</time>
      </trkpt>
      <trkpt lat="44.98254" lon="6.48716">
        <ele>1497.9</ele>
        <time>2022-07-16T07:48:08+0200</time>
      </trkpt>
      <trkpt lat="44.98258" lon="6.48712">
        <ele>1497.8</ele>
        <time>2022-07-16T07:48:09+0200</time>
      </trkpt>
      <trkpt lat="44.9826" lon="6.48706">
        <ele>1497.9</ele>
        <time>2022-07-16T07:48:10+0200</time>
      </trkpt>
      <trkpt lat="44.98264" lon="6.48696">
        <ele>1497.9</ele>
        <time>2022-07-16T07:48:12+0200</time>
      </trkpt>
      <trkpt lat="44.98271" lon="6.48689">
        <ele>1497.7</ele>
        <time>2022-07-16T07:48:14+0200</time>
      </trkpt>
      <trkpt lat="44.98272" lon="6.48683">
        <ele>1497.8</ele>
        <time>2022-07-16T07:48:15+0200</time>
      </trkpt>
      <trkpt lat="44.98274" lon="6.48671">
        <ele>1498.1</ele>
        <time>2022-07-16T07:48:17+0200</time>
      </trkpt>
      <trkpt lat="44.98276" lon="6.4866">
        <ele>1498.4</ele>
        <time>2022-07-16T07:48:19+0200</time>
      </trkpt>
      <trkpt lat="44.98279" lon="6.48649">
        <ele>1498.6</ele>
        <time>2022-07-16T07:48:21+0200</time>
      </trkpt>
      <trkpt lat="44.9828" lon="6.48638">
        <ele>1499</ele>
        <time>2022-07-16T07:48:23+0200</time>
      </trkpt>
      <trkpt lat="44.9828" lon="6.48632">
        <ele>1499.2</ele>
        <time>2022-07-16T07:48:24+0200</time>
      </trkpt>
      <trkpt lat="44.9828" lon="6.48621">
        <ele>1499.6</ele>
        <time>2022-07-16T07:48:26+0200</time>
      </trkpt>
      <trkpt lat="44.9828" lon="6.48615">
        <ele>1499.8</ele>
        <time>2022-07-16T07:48:28+0200</time>
      </trkpt>
      <trkpt lat="44.98279" lon="6.48604">
        <ele>1500.2</ele>
        <time>2022-07-16T07:48:31+0200</time>
      </trkpt>
      <trkpt lat="44.9828" lon="6.48596">
        <ele>1500.4</ele>
        <time>2022-07-16T07:48:33+0200</time>
      </trkpt>
      <trkpt lat="44.98281" lon="6.48586">
        <ele>1500.8</ele>
        <time>2022-07-16T07:48:35+0200</time>
      </trkpt>
      <trkpt lat="44.98286" lon="6.48576">
        <ele>1501.2</ele>
        <time>2022-07-16T07:48:37+0200</time>
      </trkpt>
      <trkpt lat="44.9829" lon="6.48571">
        <ele>1501.2</ele>
        <time>2022-07-16T07:48:38+0200</time>
      </trkpt>
      <trkpt lat="44.98293" lon="6.48566">
        <ele>1501.3</ele>
        <time>2022-07-16T07:48:39+0200</time>
      </trkpt>
      <trkpt lat="44.98297" lon="6.48559">
        <ele>1501.5</ele>
        <time>2022-07-16T07:48:40+0200</time>
      </trkpt>
      <trkpt lat="44.98305" lon="6.48557">
        <ele>1501</ele>
        <time>2022-07-16T07:48:42+0200</time>
      </trkpt>
      <trkpt lat="44.98308" lon="6.48552">
        <ele>1501</ele>
        <time>2022-07-16T07:48:43+0200</time>
      </trkpt>
      <trkpt lat="44.98315" lon="6.48544">
        <ele>1501.1</ele>
        <time>2022-07-16T07:48:45+0200</time>
      </trkpt>
      <trkpt lat="44.98318" lon="6.48538">
        <ele>1501.2</ele>
        <time>2022-07-16T07:48:46+0200</time>
      </trkpt>
      <trkpt lat="44.98321" lon="6.48532">
        <ele>1501.3</ele>
        <time>2022-07-16T07:48:47+0200</time>
      </trkpt>
      <trkpt lat="44.98322" lon="6.48526">
        <ele>1501.5</ele>
        <time>2022-07-16T07:48:48+0200</time>
      </trkpt>
      <trkpt lat="44.98325" lon="6.48518">
        <ele>1501.7</ele>
        <time>2022-07-16T07:48:50+0200</time>
      </trkpt>
      <trkpt lat="44.98329" lon="6.48514">
        <ele>1501.6</ele>
        <time>2022-07-16T07:48:52+0200</time>
      </trkpt>
      <trkpt lat="44.98332" lon="6.48507">
        <ele>1501.8</ele>
        <time>2022-07-16T07:48:54+0200</time>
      </trkpt>
      <trkpt lat="44.98334" lon="6.485">
        <ele>1502</ele>
        <time>2022-07-16T07:48:56+0200</time>
      </trkpt>
      <trkpt lat="44.98335" lon="6.48491">
        <ele>1502.3</ele>
        <time>2022-07-16T07:48:59+0200</time>
      </trkpt>
      <trkpt lat="44.98338" lon="6.48482">
        <ele>1502.5</ele>
        <time>2022-07-16T07:49:01+0200</time>
      </trkpt>
      <trkpt lat="44.98344" lon="6.48474">
        <ele>1502.6</ele>
        <time>2022-07-16T07:49:03+0200</time>
      </trkpt>
      <trkpt lat="44.98352" lon="6.4847">
        <ele>1502.4</ele>
        <time>2022-07-16T07:49:05+0200</time>
      </trkpt>
      <trkpt lat="44.98358" lon="6.48461">
        <ele>1502.5</ele>
        <time>2022-07-16T07:49:07+0200</time>
      </trkpt>
      <trkpt lat="44.98362" lon="6.48456">
        <ele>1502.6</ele>
        <time>2022-07-16T07:49:08+0200</time>
      </trkpt>
      <trkpt lat="44.98366" lon="6.48451">
        <ele>1502.6</ele>
        <time>2022-07-16T07:49:09+0200</time>
      </trkpt>
      <trkpt lat="44.98372" lon="6.48445">
        <ele>1502.6</ele>
        <time>2022-07-16T07:49:11+0200</time>
      </trkpt>
      <trkpt lat="44.98377" lon="6.48438">
        <ele>1502.9</ele>
        <time>2022-07-16T07:49:13+0200</time>
      </trkpt>
      <trkpt lat="44.9838" lon="6.48427">
        <ele>1503.6</ele>
        <time>2022-07-16T07:49:15+0200</time>
      </trkpt>
      <trkpt lat="44.98383" lon="6.48416">
        <ele>1504.2</ele>
        <time>2022-07-16T07:49:17+0200</time>
      </trkpt>
      <trkpt lat="44.98386" lon="6.48405">
        <ele>1505.4</ele>
        <time>2022-07-16T07:49:19+0200</time>
      </trkpt>
      <trkpt lat="44.98389" lon="6.48398">
        <ele>1506</ele>
        <time>2022-07-16T07:49:21+0200</time>
      </trkpt>
      <trkpt lat="44.98394" lon="6.48394">
        <ele>1506.4</ele>
        <time>2022-07-16T07:49:23+0200</time>
      </trkpt>
      <trkpt lat="44.984" lon="6.48389">
        <ele>1506.9</ele>
        <time>2022-07-16T07:49:25+0200</time>
      </trkpt>
      <trkpt lat="44.98408" lon="6.48383">
        <ele>1507.4</ele>
        <time>2022-07-16T07:49:27+0200</time>
      </trkpt>
      <trkpt lat="44.98414" lon="6.4838">
        <ele>1507.7</ele>
        <time>2022-07-16T07:49:29+0200</time>
      </trkpt>
      <trkpt lat="44.98419" lon="6.48378">
        <ele>1507.8</ele>
        <time>2022-07-16T07:49:30+0200</time>
      </trkpt>
      <trkpt lat="44.98424" lon="6.48375">
        <ele>1507.9</ele>
        <time>2022-07-16T07:49:31+0200</time>
      </trkpt>
      <trkpt lat="44.98432" lon="6.4837">
        <ele>1508.2</ele>
        <time>2022-07-16T07:49:33+0200</time>
      </trkpt>
      <trkpt lat="44.98441" lon="6.48366">
        <ele>1508.5</ele>
        <time>2022-07-16T07:49:35+0200</time>
      </trkpt>
      <trkpt lat="44.98446" lon="6.48364">
        <ele>1508.7</ele>
        <time>2022-07-16T07:49:36+0200</time>
      </trkpt>
      <trkpt lat="44.98454" lon="6.4836">
        <ele>1509</ele>
        <time>2022-07-16T07:49:38+0200</time>
      </trkpt>
      <trkpt lat="44.98461" lon="6.48355">
        <ele>1509.2</ele>
        <time>2022-07-16T07:49:40+0200</time>
      </trkpt>
      <trkpt lat="44.98465" lon="6.48352">
        <ele>1509.3</ele>
        <time>2022-07-16T07:49:41+0200</time>
      </trkpt>
      <trkpt lat="44.98469" lon="6.48349">
        <ele>1509.4</ele>
        <time>2022-07-16T07:49:42+0200</time>
      </trkpt>
      <trkpt lat="44.98475" lon="6.48349">
        <ele>1509.4</ele>
        <time>2022-07-16T07:49:44+0200</time>
      </trkpt>
      <trkpt lat="44.98482" lon="6.48346">
        <ele>1509.4</ele>
        <time>2022-07-16T07:49:46+0200</time>
      </trkpt>
      <trkpt lat="44.98489" lon="6.48341">
        <ele>1509.6</ele>
        <time>2022-07-16T07:49:48+0200</time>
      </trkpt>
      <trkpt lat="44.98495" lon="6.48336">
        <ele>1509.9</ele>
        <time>2022-07-16T07:49:50+0200</time>
      </trkpt>
      <trkpt lat="44.98501" lon="6.48331">
        <ele>1510.2</ele>
        <time>2022-07-16T07:49:52+0200</time>
      </trkpt>
      <trkpt lat="44.98505" lon="6.48327">
        <ele>1510.3</ele>
        <time>2022-07-16T07:49:54+0200</time>
      </trkpt>
      <trkpt lat="44.9851" lon="6.48323">
        <ele>1510.4</ele>
        <time>2022-07-16T07:49:57+0200</time>
      </trkpt>
      <trkpt lat="44.98508" lon="6.48317">
        <ele>1510.9</ele>
        <time>2022-07-16T07:50:10+0200</time>
      </trkpt>
      <trkpt lat="44.98512" lon="6.48312">
        <ele>1511.1</ele>
        <time>2022-07-16T07:50:23+0200</time>
      </trkpt>
      <trkpt lat="44.98512" lon="6.48305">
        <ele>1511.6</ele>
        <time>2022-07-16T07:51:43+0200</time>
      </trkpt>
      <trkpt lat="44.98511" lon="6.48312">
        <ele>1511.1</ele>
        <time>2022-07-16T07:51:54+0200</time>
      </trkpt>
      <trkpt lat="44.98517" lon="6.48316">
        <ele>1510.6</ele>
        <time>2022-07-16T07:52:05+0200</time>
      </trkpt>
      <trkpt lat="44.98522" lon="6.48312">
        <ele>1510.7</ele>
        <time>2022-07-16T07:52:07+0200</time>
      </trkpt>
      <trkpt lat="44.98528" lon="6.48309">
        <ele>1510.8</ele>
        <time>2022-07-16T07:52:09+0200</time>
      </trkpt>
      <trkpt lat="44.98536" lon="6.48306">
        <ele>1510.7</ele>
        <time>2022-07-16T07:52:11+0200</time>
      </trkpt>
      <trkpt lat="44.98541" lon="6.48304">
        <ele>1510.7</ele>
        <time>2022-07-16T07:52:12+0200</time>
      </trkpt>
      <trkpt lat="44.98547" lon="6.483">
        <ele>1510.7</ele>
        <time>2022-07-16T07:52:14+0200</time>
      </trkpt>
      <trkpt lat="44.98555" lon="6.48295">
        <ele>1510.8</ele>
        <time>2022-07-16T07:52:16+0200</time>
      </trkpt>
      <trkpt lat="44.9856" lon="6.48291">
        <ele>1510.8</ele>
        <time>2022-07-16T07:52:17+0200</time>
      </trkpt>
      <trkpt lat="44.98564" lon="6.48289">
        <ele>1510.7</ele>
        <time>2022-07-16T07:52:18+0200</time>
      </trkpt>
      <trkpt lat="44.9857" lon="6.48287">
        <ele>1510.6</ele>
        <time>2022-07-16T07:52:19+0200</time>
      </trkpt>
      <trkpt lat="44.98575" lon="6.48285">
        <ele>1510.6</ele>
        <time>2022-07-16T07:52:20+0200</time>
      </trkpt>
      <trkpt lat="44.98581" lon="6.48283">
        <ele>1510.6</ele>
        <time>2022-07-16T07:52:21+0200</time>
      </trkpt>
      <trkpt lat="44.98586" lon="6.48285">
        <ele>1510.1</ele>
        <time>2022-07-16T07:52:22+0200</time>
      </trkpt>
      <trkpt lat="44.98591" lon="6.48289">
        <ele>1509.5</ele>
        <time>2022-07-16T07:52:23+0200</time>
      </trkpt>
      <trkpt lat="44.98597" lon="6.48289">
        <ele>1509.2</ele>
        <time>2022-07-16T07:52:24+0200</time>
      </trkpt>
      <trkpt lat="44.98603" lon="6.48286">
        <ele>1509.1</ele>
        <time>2022-07-16T07:52:25+0200</time>
      </trkpt>
      <trkpt lat="44.98609" lon="6.48283">
        <ele>1508.9</ele>
        <time>2022-07-16T07:52:26+0200</time>
      </trkpt>
      <trkpt lat="44.98614" lon="6.48282">
        <ele>1508.9</ele>
        <time>2022-07-16T07:52:27+0200</time>
      </trkpt>
      <trkpt lat="44.9862" lon="6.48282">
        <ele>1508.9</ele>
        <time>2022-07-16T07:52:28+0200</time>
      </trkpt>
      <trkpt lat="44.98627" lon="6.48279">
        <ele>1509</ele>
        <time>2022-07-16T07:52:29+0200</time>
      </trkpt>
      <trkpt lat="44.98632" lon="6.48275">
        <ele>1509.1</ele>
        <time>2022-07-16T07:52:30+0200</time>
      </trkpt>
      <trkpt lat="44.98636" lon="6.4827">
        <ele>1509.3</ele>
        <time>2022-07-16T07:52:31+0200</time>
      </trkpt>
      <trkpt lat="44.98642" lon="6.48267">
        <ele>1509.5</ele>
        <time>2022-07-16T07:52:33+0200</time>
      </trkpt>
      <trkpt lat="44.98647" lon="6.4827">
        <ele>1509.6</ele>
        <time>2022-07-16T07:52:35+0200</time>
      </trkpt>
      <trkpt lat="44.98655" lon="6.48269">
        <ele>1509.9</ele>
        <time>2022-07-16T07:52:37+0200</time>
      </trkpt>
      <trkpt lat="44.9866" lon="6.48261">
        <ele>1510.4</ele>
        <time>2022-07-16T07:52:39+0200</time>
      </trkpt>
      <trkpt lat="44.98664" lon="6.48253">
        <ele>1510.8</ele>
        <time>2022-07-16T07:52:41+0200</time>
      </trkpt>
      <trkpt lat="44.98671" lon="6.48243">
        <ele>1511.4</ele>
        <time>2022-07-16T07:52:43+0200</time>
      </trkpt>
      <trkpt lat="44.98675" lon="6.48241">
        <ele>1511.5</ele>
        <time>2022-07-16T07:52:44+0200</time>
      </trkpt>
      <trkpt lat="44.98681" lon="6.48235">
        <ele>1511.8</ele>
        <time>2022-07-16T07:52:46+0200</time>
      </trkpt>
      <trkpt lat="44.98688" lon="6.48231">
        <ele>1511.9</ele>
        <time>2022-07-16T07:52:48+0200</time>
      </trkpt>
      <trkpt lat="44.98694" lon="6.48225">
        <ele>1512</ele>
        <time>2022-07-16T07:52:50+0200</time>
      </trkpt>
      <trkpt lat="44.98699" lon="6.48219">
        <ele>1512.6</ele>
        <time>2022-07-16T07:52:52+0200</time>
      </trkpt>
      <trkpt lat="44.98706" lon="6.48214">
        <ele>1513.3</ele>
        <time>2022-07-16T07:52:54+0200</time>
      </trkpt>
      <trkpt lat="44.9871" lon="6.48211">
        <ele>1513.6</ele>
        <time>2022-07-16T07:52:56+0200</time>
      </trkpt>
      <trkpt lat="44.98716" lon="6.48206">
        <ele>1514</ele>
        <time>2022-07-16T07:52:58+0200</time>
      </trkpt>
      <trkpt lat="44.98723" lon="6.48198">
        <ele>1514.2</ele>
        <time>2022-07-16T07:53:00+0200</time>
      </trkpt>
      <trkpt lat="44.98726" lon="6.48193">
        <ele>1514.5</ele>
        <time>2022-07-16T07:53:01+0200</time>
      </trkpt>
      <trkpt lat="44.98729" lon="6.48187">
        <ele>1514.9</ele>
        <time>2022-07-16T07:53:03+0200</time>
      </trkpt>
      <trkpt lat="44.98732" lon="6.48193">
        <ele>1515.4</ele>
        <time>2022-07-16T07:53:05+0200</time>
      </trkpt>
      <trkpt lat="44.98737" lon="6.48191">
        <ele>1516</ele>
        <time>2022-07-16T07:53:07+0200</time>
      </trkpt>
      <trkpt lat="44.98737" lon="6.48183">
        <ele>1515.9</ele>
        <time>2022-07-16T07:53:09+0200</time>
      </trkpt>
      <trkpt lat="44.98734" lon="6.48177">
        <ele>1515.5</ele>
        <time>2022-07-16T07:53:10+0200</time>
      </trkpt>
      <trkpt lat="44.98733" lon="6.48166">
        <ele>1515.1</ele>
        <time>2022-07-16T07:53:12+0200</time>
      </trkpt>
      <trkpt lat="44.98736" lon="6.48154">
        <ele>1515</ele>
        <time>2022-07-16T07:53:14+0200</time>
      </trkpt>
      <trkpt lat="44.98735" lon="6.48148">
        <ele>1514.7</ele>
        <time>2022-07-16T07:53:15+0200</time>
      </trkpt>
      <trkpt lat="44.98735" lon="6.48139">
        <ele>1514.4</ele>
        <time>2022-07-16T07:53:17+0200</time>
      </trkpt>
      <trkpt lat="44.98736" lon="6.4813">
        <ele>1514.5</ele>
        <time>2022-07-16T07:53:18+0200</time>
      </trkpt>
      <trkpt lat="44.98733" lon="6.48122">
        <ele>1514.3</ele>
        <time>2022-07-16T07:53:20+0200</time>
      </trkpt>
      <trkpt lat="44.98733" lon="6.48109">
        <ele>1514.5</ele>
        <time>2022-07-16T07:53:22+0200</time>
      </trkpt>
      <trkpt lat="44.98738" lon="6.48106">
        <ele>1514.7</ele>
        <time>2022-07-16T07:53:23+0200</time>
      </trkpt>
      <trkpt lat="44.98742" lon="6.48105">
        <ele>1514.8</ele>
        <time>2022-07-16T07:53:24+0200</time>
      </trkpt>
      <trkpt lat="44.98746" lon="6.48102">
        <ele>1515</ele>
        <time>2022-07-16T07:53:25+0200</time>
      </trkpt>
      <trkpt lat="44.98749" lon="6.48097">
        <ele>1515</ele>
        <time>2022-07-16T07:53:26+0200</time>
      </trkpt>
      <trkpt lat="44.98754" lon="6.4809">
        <ele>1515.3</ele>
        <time>2022-07-16T07:53:28+0200</time>
      </trkpt>
      <trkpt lat="44.98757" lon="6.48084">
        <ele>1515.5</ele>
        <time>2022-07-16T07:53:30+0200</time>
      </trkpt>
      <trkpt lat="44.9876" lon="6.48076">
        <ele>1516</ele>
        <time>2022-07-16T07:53:32+0200</time>
      </trkpt>
      <trkpt lat="44.98759" lon="6.48065">
        <ele>1516.3</ele>
        <time>2022-07-16T07:53:34+0200</time>
      </trkpt>
      <trkpt lat="44.98761" lon="6.48058">
        <ele>1516.5</ele>
        <time>2022-07-16T07:53:36+0200</time>
      </trkpt>
      <trkpt lat="44.98765" lon="6.48051">
        <ele>1516.8</ele>
        <time>2022-07-16T07:53:38+0200</time>
      </trkpt>
      <trkpt lat="44.9877" lon="6.48041">
        <ele>1517.3</ele>
        <time>2022-07-16T07:53:40+0200</time>
      </trkpt>
      <trkpt lat="44.98775" lon="6.48032">
        <ele>1517.8</ele>
        <time>2022-07-16T07:53:42+0200</time>
      </trkpt>
      <trkpt lat="44.98778" lon="6.48027">
        <ele>1518</ele>
        <time>2022-07-16T07:53:43+0200</time>
      </trkpt>
      <trkpt lat="44.98784" lon="6.48019">
        <ele>1518.9</ele>
        <time>2022-07-16T07:53:45+0200</time>
      </trkpt>
      <trkpt lat="44.9879" lon="6.48012">
        <ele>1519.5</ele>
        <time>2022-07-16T07:53:47+0200</time>
      </trkpt>
      <trkpt lat="44.98796" lon="6.48008">
        <ele>1519.7</ele>
        <time>2022-07-16T07:53:49+0200</time>
      </trkpt>
      <trkpt lat="44.98803" lon="6.48006">
        <ele>1519.7</ele>
        <time>2022-07-16T07:53:51+0200</time>
      </trkpt>
      <trkpt lat="44.98808" lon="6.48">
        <ele>1519.9</ele>
        <time>2022-07-16T07:53:53+0200</time>
      </trkpt>
      <trkpt lat="44.98812" lon="6.47995">
        <ele>1520.4</ele>
        <time>2022-07-16T07:53:55+0200</time>
      </trkpt>
      <trkpt lat="44.98817" lon="6.47996">
        <ele>1520.2</ele>
        <time>2022-07-16T07:53:58+0200</time>
      </trkpt>
      <trkpt lat="44.98819" lon="6.4799">
        <ele>1521</ele>
        <time>2022-07-16T07:54:03+0200</time>
      </trkpt>
      <trkpt lat="44.98824" lon="6.47984">
        <ele>1521.7</ele>
        <time>2022-07-16T07:54:12+0200</time>
      </trkpt>
      <trkpt lat="44.9883" lon="6.47983">
        <ele>1521.5</ele>
        <time>2022-07-16T07:54:16+0200</time>
      </trkpt>
      <trkpt lat="44.98836" lon="6.47981">
        <ele>1521.7</ele>
        <time>2022-07-16T07:54:18+0200</time>
      </trkpt>
      <trkpt lat="44.98842" lon="6.4798">
        <ele>1522</ele>
        <time>2022-07-16T07:54:20+0200</time>
      </trkpt>
      <trkpt lat="44.98849" lon="6.47979">
        <ele>1522.1</ele>
        <time>2022-07-16T07:54:22+0200</time>
      </trkpt>
      <trkpt lat="44.98858" lon="6.47979">
        <ele>1522.3</ele>
        <time>2022-07-16T07:54:24+0200</time>
      </trkpt>
      <trkpt lat="44.98863" lon="6.47978">
        <ele>1522.5</ele>
        <time>2022-07-16T07:54:25+0200</time>
      </trkpt>
      <trkpt lat="44.98871" lon="6.47975">
        <ele>1523</ele>
        <time>2022-07-16T07:54:27+0200</time>
      </trkpt>
      <trkpt lat="44.98879" lon="6.47974">
        <ele>1523.4</ele>
        <time>2022-07-16T07:54:29+0200</time>
      </trkpt>
      <trkpt lat="44.98883" lon="6.47973">
        <ele>1523.7</ele>
        <time>2022-07-16T07:54:30+0200</time>
      </trkpt>
      <trkpt lat="44.9889" lon="6.47972">
        <ele>1524</ele>
        <time>2022-07-16T07:54:32+0200</time>
      </trkpt>
      <trkpt lat="44.98898" lon="6.47973">
        <ele>1524</ele>
        <time>2022-07-16T07:54:34+0200</time>
      </trkpt>
      <trkpt lat="44.98904" lon="6.47971">
        <ele>1524.1</ele>
        <time>2022-07-16T07:54:36+0200</time>
      </trkpt>
      <trkpt lat="44.98911" lon="6.47969">
        <ele>1524.4</ele>
        <time>2022-07-16T07:54:38+0200</time>
      </trkpt>
      <trkpt lat="44.98919" lon="6.47966">
        <ele>1524.8</ele>
        <time>2022-07-16T07:54:40+0200</time>
      </trkpt>
      <trkpt lat="44.98927" lon="6.47963">
        <ele>1525.2</ele>
        <time>2022-07-16T07:54:42+0200</time>
      </trkpt>
      <trkpt lat="44.98934" lon="6.47965">
        <ele>1525.2</ele>
        <time>2022-07-16T07:54:44+0200</time>
      </trkpt>
      <trkpt lat="44.98944" lon="6.47965">
        <ele>1525.5</ele>
        <time>2022-07-16T07:54:46+0200</time>
      </trkpt>
      <trkpt lat="44.98949" lon="6.47965">
        <ele>1525.7</ele>
        <time>2022-07-16T07:54:47+0200</time>
      </trkpt>
      <trkpt lat="44.98956" lon="6.47962">
        <ele>1526.2</ele>
        <time>2022-07-16T07:54:49+0200</time>
      </trkpt>
      <trkpt lat="44.9896" lon="6.47961">
        <ele>1526.4</ele>
        <time>2022-07-16T07:54:51+0200</time>
      </trkpt>
      <trkpt lat="44.98967" lon="6.47961">
        <ele>1526.7</ele>
        <time>2022-07-16T07:54:54+0200</time>
      </trkpt>
      <trkpt lat="44.98973" lon="6.47961">
        <ele>1526.8</ele>
        <time>2022-07-16T07:54:55+0200</time>
      </trkpt>
      <trkpt lat="44.98978" lon="6.47959">
        <ele>1526.8</ele>
        <time>2022-07-16T07:54:56+0200</time>
      </trkpt>
      <trkpt lat="44.98982" lon="6.47956">
        <ele>1527</ele>
        <time>2022-07-16T07:54:57+0200</time>
      </trkpt>
      <trkpt lat="44.98986" lon="6.47954">
        <ele>1527</ele>
        <time>2022-07-16T07:54:58+0200</time>
      </trkpt>
      <trkpt lat="44.98993" lon="6.47947">
        <ele>1527.1</ele>
        <time>2022-07-16T07:55:00+0200</time>
      </trkpt>
      <trkpt lat="44.98997" lon="6.47942">
        <ele>1527.2</ele>
        <time>2022-07-16T07:55:01+0200</time>
      </trkpt>
      <trkpt lat="44.99003" lon="6.47936">
        <ele>1527.3</ele>
        <time>2022-07-16T07:55:03+0200</time>
      </trkpt>
      <trkpt lat="44.99009" lon="6.47928">
        <ele>1527.8</ele>
        <time>2022-07-16T07:55:05+0200</time>
      </trkpt>
      <trkpt lat="44.99015" lon="6.47923">
        <ele>1528.2</ele>
        <time>2022-07-16T07:55:07+0200</time>
      </trkpt>
      <trkpt lat="44.99018" lon="6.47917">
        <ele>1528.6</ele>
        <time>2022-07-16T07:55:09+0200</time>
      </trkpt>
      <trkpt lat="44.99015" lon="6.47907">
        <ele>1529.4</ele>
        <time>2022-07-16T07:55:12+0200</time>
      </trkpt>
      <trkpt lat="44.99013" lon="6.47899">
        <ele>1530.1</ele>
        <time>2022-07-16T07:55:14+0200</time>
      </trkpt>
      <trkpt lat="44.99012" lon="6.47893">
        <ele>1530.6</ele>
        <time>2022-07-16T07:55:16+0200</time>
      </trkpt>
      <trkpt lat="44.99014" lon="6.47886">
        <ele>1531.2</ele>
        <time>2022-07-16T07:55:18+0200</time>
      </trkpt>
      <trkpt lat="44.99015" lon="6.4788">
        <ele>1531.8</ele>
        <time>2022-07-16T07:55:20+0200</time>
      </trkpt>
      <trkpt lat="44.99022" lon="6.47875">
        <ele>1532.1</ele>
        <time>2022-07-16T07:55:23+0200</time>
      </trkpt>
      <trkpt lat="44.99027" lon="6.47871">
        <ele>1532.3</ele>
        <time>2022-07-16T07:55:25+0200</time>
      </trkpt>
      <trkpt lat="44.99033" lon="6.47868">
        <ele>1532.4</ele>
        <time>2022-07-16T07:55:27+0200</time>
      </trkpt>
      <trkpt lat="44.9904" lon="6.47861">
        <ele>1532.6</ele>
        <time>2022-07-16T07:55:29+0200</time>
      </trkpt>
      <trkpt lat="44.99048" lon="6.47855">
        <ele>1532.7</ele>
        <time>2022-07-16T07:55:31+0200</time>
      </trkpt>
      <trkpt lat="44.99055" lon="6.47847">
        <ele>1533</ele>
        <time>2022-07-16T07:55:33+0200</time>
      </trkpt>
      <trkpt lat="44.99061" lon="6.47844">
        <ele>1533.1</ele>
        <time>2022-07-16T07:55:35+0200</time>
      </trkpt>
      <trkpt lat="44.99069" lon="6.47841">
        <ele>1533.1</ele>
        <time>2022-07-16T07:55:37+0200</time>
      </trkpt>
      <trkpt lat="44.99076" lon="6.47835">
        <ele>1533.2</ele>
        <time>2022-07-16T07:55:39+0200</time>
      </trkpt>
      <trkpt lat="44.9908" lon="6.47832">
        <ele>1533.2</ele>
        <time>2022-07-16T07:55:40+0200</time>
      </trkpt>
      <trkpt lat="44.99084" lon="6.47829">
        <ele>1533.3</ele>
        <time>2022-07-16T07:55:41+0200</time>
      </trkpt>
      <trkpt lat="44.99088" lon="6.47825">
        <ele>1533.4</ele>
        <time>2022-07-16T07:55:42+0200</time>
      </trkpt>
      <trkpt lat="44.99092" lon="6.47821">
        <ele>1533.6</ele>
        <time>2022-07-16T07:55:43+0200</time>
      </trkpt>
      <trkpt lat="44.99098" lon="6.47814">
        <ele>1533.9</ele>
        <time>2022-07-16T07:55:45+0200</time>
      </trkpt>
      <trkpt lat="44.99103" lon="6.47812">
        <ele>1533.9</ele>
        <time>2022-07-16T07:55:46+0200</time>
      </trkpt>
      <trkpt lat="44.99108" lon="6.47811">
        <ele>1533.7</ele>
        <time>2022-07-16T07:55:47+0200</time>
      </trkpt>
      <trkpt lat="44.99112" lon="6.47808">
        <ele>1533.8</ele>
        <time>2022-07-16T07:55:48+0200</time>
      </trkpt>
      <trkpt lat="44.9912" lon="6.47803">
        <ele>1533.9</ele>
        <time>2022-07-16T07:55:50+0200</time>
      </trkpt>
      <trkpt lat="44.99125" lon="6.47799">
        <ele>1534.2</ele>
        <time>2022-07-16T07:55:52+0200</time>
      </trkpt>
      <trkpt lat="44.99131" lon="6.47795">
        <ele>1534.4</ele>
        <time>2022-07-16T07:55:55+0200</time>
      </trkpt>
      <trkpt lat="44.99135" lon="6.47795">
        <ele>1534.2</ele>
        <time>2022-07-16T07:55:58+0200</time>
      </trkpt>
      <trkpt lat="44.99141" lon="6.47792">
        <ele>1534.4</ele>
        <time>2022-07-16T07:56:02+0200</time>
      </trkpt>
      <trkpt lat="44.99145" lon="6.47788">
        <ele>1534.6</ele>
        <time>2022-07-16T07:56:06+0200</time>
      </trkpt>
      <trkpt lat="44.99148" lon="6.47781">
        <ele>1535.3</ele>
        <time>2022-07-16T07:56:13+0200</time>
      </trkpt>
      <trkpt lat="44.99148" lon="6.47774">
        <ele>1536.1</ele>
        <time>2022-07-16T07:56:16+0200</time>
      </trkpt>
      <trkpt lat="44.99151" lon="6.47769">
        <ele>1536.7</ele>
        <time>2022-07-16T07:56:20+0200</time>
      </trkpt>
      <trkpt lat="44.99153" lon="6.47762">
        <ele>1537.4</ele>
        <time>2022-07-16T07:56:24+0200</time>
      </trkpt>
      <trkpt lat="44.99156" lon="6.47756">
        <ele>1538.2</ele>
        <time>2022-07-16T07:56:31+0200</time>
      </trkpt>
      <trkpt lat="44.99159" lon="6.47751">
        <ele>1538.8</ele>
        <time>2022-07-16T07:56:37+0200</time>
      </trkpt>
      <trkpt lat="44.99164" lon="6.47746">
        <ele>1539.5</ele>
        <time>2022-07-16T07:56:41+0200</time>
      </trkpt>
      <trkpt lat="44.99168" lon="6.47741">
        <ele>1540</ele>
        <time>2022-07-16T07:56:43+0200</time>
      </trkpt>
      <trkpt lat="44.99171" lon="6.47734">
        <ele>1540.6</ele>
        <time>2022-07-16T07:56:45+0200</time>
      </trkpt>
      <trkpt lat="44.99176" lon="6.47732">
        <ele>1540.8</ele>
        <time>2022-07-16T07:56:48+0200</time>
      </trkpt>
      <trkpt lat="44.9918" lon="6.47729">
        <ele>1541.2</ele>
        <time>2022-07-16T07:56:50+0200</time>
      </trkpt>
      <trkpt lat="44.99186" lon="6.47728">
        <ele>1541.2</ele>
        <time>2022-07-16T07:56:53+0200</time>
      </trkpt>
      <trkpt lat="44.99191" lon="6.47722">
        <ele>1542.1</ele>
        <time>2022-07-16T07:56:57+0200</time>
      </trkpt>
      <trkpt lat="44.99196" lon="6.47719">
        <ele>1542.5</ele>
        <time>2022-07-16T07:57:01+0200</time>
      </trkpt>
      <trkpt lat="44.99201" lon="6.47718">
        <ele>1542.4</ele>
        <time>2022-07-16T07:57:03+0200</time>
      </trkpt>
      <trkpt lat="44.99206" lon="6.47721">
        <ele>1541.8</ele>
        <time>2022-07-16T07:57:05+0200</time>
      </trkpt>
      <trkpt lat="44.99213" lon="6.47721">
        <ele>1541.6</ele>
        <time>2022-07-16T07:57:07+0200</time>
      </trkpt>
      <trkpt lat="44.99222" lon="6.4772">
        <ele>1541.5</ele>
        <time>2022-07-16T07:57:09+0200</time>
      </trkpt>
      <trkpt lat="44.99227" lon="6.4772">
        <ele>1541.2</ele>
        <time>2022-07-16T07:57:10+0200</time>
      </trkpt>
      <trkpt lat="44.99233" lon="6.47718">
        <ele>1541.4</ele>
        <time>2022-07-16T07:57:11+0200</time>
      </trkpt>
      <trkpt lat="44.99238" lon="6.47717">
        <ele>1541.4</ele>
        <time>2022-07-16T07:57:12+0200</time>
      </trkpt>
      <trkpt lat="44.99243" lon="6.47716">
        <ele>1541.5</ele>
        <time>2022-07-16T07:57:13+0200</time>
      </trkpt>
      <trkpt lat="44.9925" lon="6.47715">
        <ele>1541.4</ele>
        <time>2022-07-16T07:57:14+0200</time>
      </trkpt>
      <trkpt lat="44.99255" lon="6.47712">
        <ele>1541.7</ele>
        <time>2022-07-16T07:57:15+0200</time>
      </trkpt>
      <trkpt lat="44.99259" lon="6.4771">
        <ele>1542</ele>
        <time>2022-07-16T07:57:16+0200</time>
      </trkpt>
      <trkpt lat="44.99264" lon="6.47709">
        <ele>1542.1</ele>
        <time>2022-07-16T07:57:17+0200</time>
      </trkpt>
      <trkpt lat="44.99272" lon="6.47706">
        <ele>1542.5</ele>
        <time>2022-07-16T07:57:19+0200</time>
      </trkpt>
      <trkpt lat="44.99279" lon="6.47704">
        <ele>1542.7</ele>
        <time>2022-07-16T07:57:21+0200</time>
      </trkpt>
      <trkpt lat="44.99285" lon="6.47703">
        <ele>1542.7</ele>
        <time>2022-07-16T07:57:23+0200</time>
      </trkpt>
      <trkpt lat="44.99293" lon="6.47699">
        <ele>1543.3</ele>
        <time>2022-07-16T07:57:25+0200</time>
      </trkpt>
      <trkpt lat="44.99298" lon="6.47697">
        <ele>1543.5</ele>
        <time>2022-07-16T07:57:26+0200</time>
      </trkpt>
      <trkpt lat="44.99306" lon="6.47696">
        <ele>1543.6</ele>
        <time>2022-07-16T07:57:28+0200</time>
      </trkpt>
      <trkpt lat="44.99314" lon="6.47693">
        <ele>1544.2</ele>
        <time>2022-07-16T07:57:30+0200</time>
      </trkpt>
      <trkpt lat="44.9932" lon="6.47688">
        <ele>1545.1</ele>
        <time>2022-07-16T07:57:32+0200</time>
      </trkpt>
      <trkpt lat="44.99325" lon="6.47683">
        <ele>1545.9</ele>
        <time>2022-07-16T07:57:34+0200</time>
      </trkpt>
      <trkpt lat="44.99329" lon="6.47678">
        <ele>1546.8</ele>
        <time>2022-07-16T07:57:36+0200</time>
      </trkpt>
      <trkpt lat="44.99334" lon="6.47671">
        <ele>1548.3</ele>
        <time>2022-07-16T07:57:39+0200</time>
      </trkpt>
      <trkpt lat="44.99337" lon="6.47665">
        <ele>1549.4</ele>
        <time>2022-07-16T07:57:41+0200</time>
      </trkpt>
      <trkpt lat="44.9934" lon="6.47659">
        <ele>1550.6</ele>
        <time>2022-07-16T07:57:43+0200</time>
      </trkpt>
      <trkpt lat="44.99343" lon="6.47653">
        <ele>1551.6</ele>
        <time>2022-07-16T07:57:45+0200</time>
      </trkpt>
      <trkpt lat="44.99348" lon="6.47649">
        <ele>1552.4</ele>
        <time>2022-07-16T07:57:48+0200</time>
      </trkpt>
      <trkpt lat="44.99352" lon="6.47643">
        <ele>1553.4</ele>
        <time>2022-07-16T07:57:51+0200</time>
      </trkpt>
      <trkpt lat="44.99358" lon="6.4764">
        <ele>1553.9</ele>
        <time>2022-07-16T07:57:54+0200</time>
      </trkpt>
      <trkpt lat="44.99363" lon="6.47638">
        <ele>1554.2</ele>
        <time>2022-07-16T07:57:57+0200</time>
      </trkpt>
      <trkpt lat="44.99368" lon="6.47637">
        <ele>1554.6</ele>
        <time>2022-07-16T07:57:59+0200</time>
      </trkpt>
      <trkpt lat="44.99374" lon="6.47635">
        <ele>1555.1</ele>
        <time>2022-07-16T07:58:02+0200</time>
      </trkpt>
      <trkpt lat="44.99378" lon="6.47638">
        <ele>1554.8</ele>
        <time>2022-07-16T07:58:05+0200</time>
      </trkpt>
      <trkpt lat="44.99384" lon="6.47641">
        <ele>1554.5</ele>
        <time>2022-07-16T07:58:08+0200</time>
      </trkpt>
      <trkpt lat="44.99389" lon="6.47643">
        <ele>1554.5</ele>
        <time>2022-07-16T07:58:10+0200</time>
      </trkpt>
      <trkpt lat="44.99395" lon="6.47645">
        <ele>1554.3</ele>
        <time>2022-07-16T07:58:12+0200</time>
      </trkpt>
      <trkpt lat="44.99402" lon="6.47646">
        <ele>1554.3</ele>
        <time>2022-07-16T07:58:14+0200</time>
      </trkpt>
      <trkpt lat="44.99409" lon="6.47645">
        <ele>1554.6</ele>
        <time>2022-07-16T07:58:16+0200</time>
      </trkpt>
      <trkpt lat="44.99415" lon="6.47644">
        <ele>1555</ele>
        <time>2022-07-16T07:58:18+0200</time>
      </trkpt>
      <trkpt lat="44.99423" lon="6.47645">
        <ele>1555.1</ele>
        <time>2022-07-16T07:58:20+0200</time>
      </trkpt>
      <trkpt lat="44.99431" lon="6.47644">
        <ele>1555.5</ele>
        <time>2022-07-16T07:58:22+0200</time>
      </trkpt>
      <trkpt lat="44.99438" lon="6.4764">
        <ele>1556.6</ele>
        <time>2022-07-16T07:58:24+0200</time>
      </trkpt>
      <trkpt lat="44.99443" lon="6.47636">
        <ele>1557.5</ele>
        <time>2022-07-16T07:58:26+0200</time>
      </trkpt>
      <trkpt lat="44.99448" lon="6.47633">
        <ele>1558.1</ele>
        <time>2022-07-16T07:58:28+0200</time>
      </trkpt>
      <trkpt lat="44.99453" lon="6.4763">
        <ele>1558.6</ele>
        <time>2022-07-16T07:58:30+0200</time>
      </trkpt>
      <trkpt lat="44.99459" lon="6.47626">
        <ele>1559.4</ele>
        <time>2022-07-16T07:58:32+0200</time>
      </trkpt>
      <trkpt lat="44.99465" lon="6.47624">
        <ele>1559.6</ele>
        <time>2022-07-16T07:58:34+0200</time>
      </trkpt>
      <trkpt lat="44.99472" lon="6.47621">
        <ele>1560.1</ele>
        <time>2022-07-16T07:58:36+0200</time>
      </trkpt>
      <trkpt lat="44.99481" lon="6.47621">
        <ele>1559.6</ele>
        <time>2022-07-16T07:58:38+0200</time>
      </trkpt>
      <trkpt lat="44.99487" lon="6.47619">
        <ele>1559.6</ele>
        <time>2022-07-16T07:58:40+0200</time>
      </trkpt>
      <trkpt lat="44.99494" lon="6.47616">
        <ele>1560</ele>
        <time>2022-07-16T07:58:42+0200</time>
      </trkpt>
      <trkpt lat="44.99501" lon="6.47612">
        <ele>1560.8</ele>
        <time>2022-07-16T07:58:44+0200</time>
      </trkpt>
      <trkpt lat="44.99508" lon="6.47608">
        <ele>1561.4</ele>
        <time>2022-07-16T07:58:46+0200</time>
      </trkpt>
      <trkpt lat="44.99515" lon="6.47605">
        <ele>1561.7</ele>
        <time>2022-07-16T07:58:48+0200</time>
      </trkpt>
      <trkpt lat="44.99523" lon="6.47602">
        <ele>1561.9</ele>
        <time>2022-07-16T07:58:50+0200</time>
      </trkpt>
      <trkpt lat="44.9953" lon="6.47601">
        <ele>1561.7</ele>
        <time>2022-07-16T07:58:52+0200</time>
      </trkpt>
      <trkpt lat="44.99538" lon="6.47597">
        <ele>1561.5</ele>
        <time>2022-07-16T07:58:54+0200</time>
      </trkpt>
      <trkpt lat="44.99543" lon="6.47595">
        <ele>1561.5</ele>
        <time>2022-07-16T07:58:55+0200</time>
      </trkpt>
      <trkpt lat="44.99551" lon="6.4759">
        <ele>1561.5</ele>
        <time>2022-07-16T07:58:57+0200</time>
      </trkpt>
      <trkpt lat="44.99559" lon="6.47587">
        <ele>1561.3</ele>
        <time>2022-07-16T07:58:59+0200</time>
      </trkpt>
      <trkpt lat="44.99563" lon="6.47585">
        <ele>1561.5</ele>
        <time>2022-07-16T07:59:00+0200</time>
      </trkpt>
      <trkpt lat="44.99569" lon="6.47582">
        <ele>1561.8</ele>
        <time>2022-07-16T07:59:01+0200</time>
      </trkpt>
      <trkpt lat="44.99573" lon="6.47579">
        <ele>1562.1</ele>
        <time>2022-07-16T07:59:02+0200</time>
      </trkpt>
      <trkpt lat="44.99578" lon="6.47578">
        <ele>1562.1</ele>
        <time>2022-07-16T07:59:03+0200</time>
      </trkpt>
      <trkpt lat="44.99585" lon="6.4758">
        <ele>1561.7</ele>
        <time>2022-07-16T07:59:05+0200</time>
      </trkpt>
      <trkpt lat="44.9959" lon="6.47581">
        <ele>1561.6</ele>
        <time>2022-07-16T07:59:06+0200</time>
      </trkpt>
      <trkpt lat="44.99598" lon="6.47584">
        <ele>1561.4</ele>
        <time>2022-07-16T07:59:08+0200</time>
      </trkpt>
      <trkpt lat="44.99607" lon="6.47587">
        <ele>1561.3</ele>
        <time>2022-07-16T07:59:10+0200</time>
      </trkpt>
      <trkpt lat="44.99613" lon="6.47589">
        <ele>1561.2</ele>
        <time>2022-07-16T07:59:11+0200</time>
      </trkpt>
      <trkpt lat="44.99617" lon="6.4759">
        <ele>1561</ele>
        <time>2022-07-16T07:59:12+0200</time>
      </trkpt>
      <trkpt lat="44.99622" lon="6.4759">
        <ele>1561</ele>
        <time>2022-07-16T07:59:13+0200</time>
      </trkpt>
      <trkpt lat="44.99628" lon="6.47591">
        <ele>1560.9</ele>
        <time>2022-07-16T07:59:14+0200</time>
      </trkpt>
      <trkpt lat="44.99633" lon="6.47593">
        <ele>1560.7</ele>
        <time>2022-07-16T07:59:15+0200</time>
      </trkpt>
      <trkpt lat="44.99637" lon="6.47597">
        <ele>1560.1</ele>
        <time>2022-07-16T07:59:16+0200</time>
      </trkpt>
      <trkpt lat="44.99642" lon="6.476">
        <ele>1559.6</ele>
        <time>2022-07-16T07:59:17+0200</time>
      </trkpt>
      <trkpt lat="44.99647" lon="6.47602">
        <ele>1559.5</ele>
        <time>2022-07-16T07:59:18+0200</time>
      </trkpt>
      <trkpt lat="44.99656" lon="6.47603">
        <ele>1559.4</ele>
        <time>2022-07-16T07:59:19+0200</time>
      </trkpt>
      <trkpt lat="44.99662" lon="6.47605">
        <ele>1559.1</ele>
        <time>2022-07-16T07:59:20+0200</time>
      </trkpt>
      <trkpt lat="44.99668" lon="6.47605">
        <ele>1559.2</ele>
        <time>2022-07-16T07:59:21+0200</time>
      </trkpt>
      <trkpt lat="44.99673" lon="6.47602">
        <ele>1559.6</ele>
        <time>2022-07-16T07:59:22+0200</time>
      </trkpt>
      <trkpt lat="44.9968" lon="6.47601">
        <ele>1559.9</ele>
        <time>2022-07-16T07:59:24+0200</time>
      </trkpt>
      <trkpt lat="44.99687" lon="6.47598">
        <ele>1560.4</ele>
        <time>2022-07-16T07:59:26+0200</time>
      </trkpt>
      <trkpt lat="44.99692" lon="6.47594">
        <ele>1561</ele>
        <time>2022-07-16T07:59:28+0200</time>
      </trkpt>
      <trkpt lat="44.99696" lon="6.4759">
        <ele>1561.9</ele>
        <time>2022-07-16T07:59:30+0200</time>
      </trkpt>
      <trkpt lat="44.997" lon="6.47586">
        <ele>1562.6</ele>
        <time>2022-07-16T07:59:32+0200</time>
      </trkpt>
      <trkpt lat="44.99705" lon="6.47581">
        <ele>1563.3</ele>
        <time>2022-07-16T07:59:34+0200</time>
      </trkpt>
      <trkpt lat="44.99711" lon="6.47578">
        <ele>1563.9</ele>
        <time>2022-07-16T07:59:36+0200</time>
      </trkpt>
      <trkpt lat="44.99717" lon="6.47577">
        <ele>1564.2</ele>
        <time>2022-07-16T07:59:39+0200</time>
      </trkpt>
      <trkpt lat="44.99721" lon="6.47574">
        <ele>1564.8</ele>
        <time>2022-07-16T07:59:41+0200</time>
      </trkpt>
      <trkpt lat="44.99727" lon="6.47571">
        <ele>1565</ele>
        <time>2022-07-16T07:59:44+0200</time>
      </trkpt>
      <trkpt lat="44.99734" lon="6.47571">
        <ele>1564.8</ele>
        <time>2022-07-16T07:59:46+0200</time>
      </trkpt>
      <trkpt lat="44.99739" lon="6.47573">
        <ele>1564.2</ele>
        <time>2022-07-16T07:59:48+0200</time>
      </trkpt>
      <trkpt lat="44.99745" lon="6.47573">
        <ele>1564</ele>
        <time>2022-07-16T07:59:50+0200</time>
      </trkpt>
      <trkpt lat="44.9975" lon="6.4757">
        <ele>1564.3</ele>
        <time>2022-07-16T07:59:52+0200</time>
      </trkpt>
      <trkpt lat="44.99756" lon="6.47568">
        <ele>1564.6</ele>
        <time>2022-07-16T07:59:54+0200</time>
      </trkpt>
      <trkpt lat="44.99761" lon="6.4757">
        <ele>1564.2</ele>
        <time>2022-07-16T07:59:56+0200</time>
      </trkpt>
      <trkpt lat="44.99765" lon="6.47568">
        <ele>1564.5</ele>
        <time>2022-07-16T07:59:59+0200</time>
      </trkpt>
      <trkpt lat="44.99771" lon="6.47563">
        <ele>1565.1</ele>
        <time>2022-07-16T08:00:01+0200</time>
      </trkpt>
      <trkpt lat="44.99776" lon="6.47562">
        <ele>1565.2</ele>
        <time>2022-07-16T08:00:03+0200</time>
      </trkpt>
      <trkpt lat="44.99782" lon="6.47559">
        <ele>1565.4</ele>
        <time>2022-07-16T08:00:05+0200</time>
      </trkpt>
      <trkpt lat="44.99789" lon="6.47555">
        <ele>1565.7</ele>
        <time>2022-07-16T08:00:07+0200</time>
      </trkpt>
      <trkpt lat="44.99795" lon="6.47554">
        <ele>1565.7</ele>
        <time>2022-07-16T08:00:09+0200</time>
      </trkpt>
      <trkpt lat="44.998" lon="6.47554">
        <ele>1565.5</ele>
        <time>2022-07-16T08:00:10+0200</time>
      </trkpt>
      <trkpt lat="44.99804" lon="6.47549">
        <ele>1566</ele>
        <time>2022-07-16T08:00:12+0200</time>
      </trkpt>
      <trkpt lat="44.99808" lon="6.47545">
        <ele>1566.3</ele>
        <time>2022-07-16T08:00:14+0200</time>
      </trkpt>
      <trkpt lat="44.99816" lon="6.47541">
        <ele>1566.3</ele>
        <time>2022-07-16T08:00:16+0200</time>
      </trkpt>
      <trkpt lat="44.99824" lon="6.47539">
        <ele>1566.1</ele>
        <time>2022-07-16T08:00:18+0200</time>
      </trkpt>
      <trkpt lat="44.99832" lon="6.47537">
        <ele>1565.8</ele>
        <time>2022-07-16T08:00:20+0200</time>
      </trkpt>
      <trkpt lat="44.99839" lon="6.4753">
        <ele>1566</ele>
        <time>2022-07-16T08:00:22+0200</time>
      </trkpt>
      <trkpt lat="44.99843" lon="6.47525">
        <ele>1566.3</ele>
        <time>2022-07-16T08:00:23+0200</time>
      </trkpt>
      <trkpt lat="44.99847" lon="6.4752">
        <ele>1566.5</ele>
        <time>2022-07-16T08:00:24+0200</time>
      </trkpt>
      <trkpt lat="44.99852" lon="6.47514">
        <ele>1566.8</ele>
        <time>2022-07-16T08:00:25+0200</time>
      </trkpt>
      <trkpt lat="44.99856" lon="6.47509">
        <ele>1567.2</ele>
        <time>2022-07-16T08:00:26+0200</time>
      </trkpt>
      <trkpt lat="44.99863" lon="6.47501">
        <ele>1567.6</ele>
        <time>2022-07-16T08:00:28+0200</time>
      </trkpt>
      <trkpt lat="44.99868" lon="6.47496">
        <ele>1567.8</ele>
        <time>2022-07-16T08:00:29+0200</time>
      </trkpt>
      <trkpt lat="44.99874" lon="6.47493">
        <ele>1567.4</ele>
        <time>2022-07-16T08:00:31+0200</time>
      </trkpt>
      <trkpt lat="44.99881" lon="6.47488">
        <ele>1567.2</ele>
        <time>2022-07-16T08:00:33+0200</time>
      </trkpt>
      <trkpt lat="44.99888" lon="6.47483">
        <ele>1567</ele>
        <time>2022-07-16T08:00:35+0200</time>
      </trkpt>
      <trkpt lat="44.9989" lon="6.47475">
        <ele>1567.6</ele>
        <time>2022-07-16T08:00:37+0200</time>
      </trkpt>
      <trkpt lat="44.99893" lon="6.47468">
        <ele>1568.2</ele>
        <time>2022-07-16T08:00:39+0200</time>
      </trkpt>
      <trkpt lat="44.99895" lon="6.47459">
        <ele>1569</ele>
        <time>2022-07-16T08:00:41+0200</time>
      </trkpt>
      <trkpt lat="44.99898" lon="6.47453">
        <ele>1569.4</ele>
        <time>2022-07-16T08:00:43+0200</time>
      </trkpt>
      <trkpt lat="44.99899" lon="6.47446">
        <ele>1570.1</ele>
        <time>2022-07-16T08:00:45+0200</time>
      </trkpt>
      <trkpt lat="44.99901" lon="6.47438">
        <ele>1570.8</ele>
        <time>2022-07-16T08:00:47+0200</time>
      </trkpt>
      <trkpt lat="44.99902" lon="6.4743">
        <ele>1571.4</ele>
        <time>2022-07-16T08:00:49+0200</time>
      </trkpt>
      <trkpt lat="44.99904" lon="6.47421">
        <ele>1572</ele>
        <time>2022-07-16T08:00:51+0200</time>
      </trkpt>
      <trkpt lat="44.99905" lon="6.47414">
        <ele>1572.6</ele>
        <time>2022-07-16T08:00:53+0200</time>
      </trkpt>
      <trkpt lat="44.99905" lon="6.47405">
        <ele>1573.5</ele>
        <time>2022-07-16T08:00:56+0200</time>
      </trkpt>
      <trkpt lat="44.99906" lon="6.47396">
        <ele>1574.4</ele>
        <time>2022-07-16T08:01:00+0200</time>
      </trkpt>
      <trkpt lat="44.99908" lon="6.47388">
        <ele>1575</ele>
        <time>2022-07-16T08:01:02+0200</time>
      </trkpt>
      <trkpt lat="44.99906" lon="6.47382">
        <ele>1575.7</ele>
        <time>2022-07-16T08:01:04+0200</time>
      </trkpt>
      <trkpt lat="44.99904" lon="6.47376">
        <ele>1576.5</ele>
        <time>2022-07-16T08:01:07+0200</time>
      </trkpt>
      <trkpt lat="44.99908" lon="6.47369">
        <ele>1576.6</ele>
        <time>2022-07-16T08:01:10+0200</time>
      </trkpt>
      <trkpt lat="44.9991" lon="6.47363">
        <ele>1576.8</ele>
        <time>2022-07-16T08:01:11+0200</time>
      </trkpt>
      <trkpt lat="44.99912" lon="6.47355">
        <ele>1577.2</ele>
        <time>2022-07-16T08:01:13+0200</time>
      </trkpt>
      <trkpt lat="44.99914" lon="6.47349">
        <ele>1577.7</ele>
        <time>2022-07-16T08:01:15+0200</time>
      </trkpt>
      <trkpt lat="44.99916" lon="6.47342">
        <ele>1578.1</ele>
        <time>2022-07-16T08:01:19+0200</time>
      </trkpt>
      <trkpt lat="44.99922" lon="6.47333">
        <ele>1578.2</ele>
        <time>2022-07-16T08:01:22+0200</time>
      </trkpt>
      <trkpt lat="44.99926" lon="6.4733">
        <ele>1578</ele>
        <time>2022-07-16T08:01:23+0200</time>
      </trkpt>
      <trkpt lat="44.99931" lon="6.47325">
        <ele>1577.8</ele>
        <time>2022-07-16T08:01:25+0200</time>
      </trkpt>
      <trkpt lat="44.99936" lon="6.47316">
        <ele>1577.9</ele>
        <time>2022-07-16T08:01:27+0200</time>
      </trkpt>
      <trkpt lat="44.99942" lon="6.47308">
        <ele>1578</ele>
        <time>2022-07-16T08:01:29+0200</time>
      </trkpt>
      <trkpt lat="44.99949" lon="6.473">
        <ele>1578.1</ele>
        <time>2022-07-16T08:01:31+0200</time>
      </trkpt>
      <trkpt lat="44.99956" lon="6.47292">
        <ele>1578.4</ele>
        <time>2022-07-16T08:01:33+0200</time>
      </trkpt>
      <trkpt lat="44.9996" lon="6.47289">
        <ele>1578.4</ele>
        <time>2022-07-16T08:01:34+0200</time>
      </trkpt>
      <trkpt lat="44.99967" lon="6.47286">
        <ele>1578.3</ele>
        <time>2022-07-16T08:01:36+0200</time>
      </trkpt>
      <trkpt lat="44.99974" lon="6.47281">
        <ele>1578.3</ele>
        <time>2022-07-16T08:01:38+0200</time>
      </trkpt>
      <trkpt lat="44.99981" lon="6.47274">
        <ele>1577.9</ele>
        <time>2022-07-16T08:01:40+0200</time>
      </trkpt>
      <trkpt lat="44.99989" lon="6.47268">
        <ele>1577.2</ele>
        <time>2022-07-16T08:01:42+0200</time>
      </trkpt>
      <trkpt lat="44.99993" lon="6.47262">
        <ele>1577</ele>
        <time>2022-07-16T08:01:43+0200</time>
      </trkpt>
      <trkpt lat="44.99998" lon="6.47256">
        <ele>1576.8</ele>
        <time>2022-07-16T08:01:44+0200</time>
      </trkpt>
      <trkpt lat="45.00002" lon="6.47251">
        <ele>1576.4</ele>
        <time>2022-07-16T08:01:45+0200</time>
      </trkpt>
      <trkpt lat="45.00006" lon="6.47244">
        <ele>1576.6</ele>
        <time>2022-07-16T08:01:47+0200</time>
      </trkpt>
      <trkpt lat="45.0001" lon="6.47237">
        <ele>1576.7</ele>
        <time>2022-07-16T08:01:49+0200</time>
      </trkpt>
      <trkpt lat="45.00013" lon="6.4723">
        <ele>1577</ele>
        <time>2022-07-16T08:01:50+0200</time>
      </trkpt>
      <trkpt lat="45.00016" lon="6.47225">
        <ele>1577.1</ele>
        <time>2022-07-16T08:01:51+0200</time>
      </trkpt>
      <trkpt lat="45.00021" lon="6.47218">
        <ele>1577.1</ele>
        <time>2022-07-16T08:01:53+0200</time>
      </trkpt>
      <trkpt lat="45.00025" lon="6.47211">
        <ele>1577.3</ele>
        <time>2022-07-16T08:01:55+0200</time>
      </trkpt>
      <trkpt lat="45.00029" lon="6.47205">
        <ele>1577.3</ele>
        <time>2022-07-16T08:01:57+0200</time>
      </trkpt>
      <trkpt lat="45.00033" lon="6.47198">
        <ele>1577.8</ele>
        <time>2022-07-16T08:01:59+0200</time>
      </trkpt>
      <trkpt lat="45.00037" lon="6.47191">
        <ele>1578.2</ele>
        <time>2022-07-16T08:02:01+0200</time>
      </trkpt>
      <trkpt lat="45.0004" lon="6.47184">
        <ele>1578.8</ele>
        <time>2022-07-16T08:02:03+0200</time>
      </trkpt>
      <trkpt lat="45.00044" lon="6.47175">
        <ele>1579.7</ele>
        <time>2022-07-16T08:02:05+0200</time>
      </trkpt>
      <trkpt lat="45.00047" lon="6.47169">
        <ele>1580.1</ele>
        <time>2022-07-16T08:02:07+0200</time>
      </trkpt>
      <trkpt lat="45.00051" lon="6.47163">
        <ele>1580.3</ele>
        <time>2022-07-16T08:02:09+0200</time>
      </trkpt>
      <trkpt lat="45.00056" lon="6.47156">
        <ele>1580.4</ele>
        <time>2022-07-16T08:02:11+0200</time>
      </trkpt>
      <trkpt lat="45.0006" lon="6.47148">
        <ele>1581</ele>
        <time>2022-07-16T08:02:13+0200</time>
      </trkpt>
      <trkpt lat="45.00062" lon="6.47141">
        <ele>1581.6</ele>
        <time>2022-07-16T08:02:14+0200</time>
      </trkpt>
      <trkpt lat="45.00065" lon="6.47136">
        <ele>1581.7</ele>
        <time>2022-07-16T08:02:15+0200</time>
      </trkpt>
      <trkpt lat="45.00067" lon="6.47131">
        <ele>1581.9</ele>
        <time>2022-07-16T08:02:16+0200</time>
      </trkpt>
      <trkpt lat="45.00074" lon="6.47124">
        <ele>1581.6</ele>
        <time>2022-07-16T08:02:18+0200</time>
      </trkpt>
      <trkpt lat="45.00078" lon="6.47119">
        <ele>1581.8</ele>
        <time>2022-07-16T08:02:19+0200</time>
      </trkpt>
      <trkpt lat="45.00082" lon="6.47115">
        <ele>1581.7</ele>
        <time>2022-07-16T08:02:20+0200</time>
      </trkpt>
      <trkpt lat="45.00087" lon="6.47111">
        <ele>1581.6</ele>
        <time>2022-07-16T08:02:22+0200</time>
      </trkpt>
      <trkpt lat="45.00091" lon="6.47102">
        <ele>1582.2</ele>
        <time>2022-07-16T08:02:24+0200</time>
      </trkpt>
      <trkpt lat="45.00095" lon="6.47098">
        <ele>1582.3</ele>
        <time>2022-07-16T08:02:25+0200</time>
      </trkpt>
      <trkpt lat="45.00099" lon="6.47091">
        <ele>1582.7</ele>
        <time>2022-07-16T08:02:27+0200</time>
      </trkpt>
      <trkpt lat="45.00104" lon="6.47083">
        <ele>1583</ele>
        <time>2022-07-16T08:02:29+0200</time>
      </trkpt>
      <trkpt lat="45.00108" lon="6.47076">
        <ele>1583.8</ele>
        <time>2022-07-16T08:02:31+0200</time>
      </trkpt>
      <trkpt lat="45.0011" lon="6.47069">
        <ele>1584.8</ele>
        <time>2022-07-16T08:02:34+0200</time>
      </trkpt>
      <trkpt lat="45.00114" lon="6.47062">
        <ele>1585.4</ele>
        <time>2022-07-16T08:02:37+0200</time>
      </trkpt>
      <trkpt lat="45.00117" lon="6.47057">
        <ele>1585.9</ele>
        <time>2022-07-16T08:02:40+0200</time>
      </trkpt>
      <trkpt lat="45.00122" lon="6.47053">
        <ele>1585.9</ele>
        <time>2022-07-16T08:02:44+0200</time>
      </trkpt>
      <trkpt lat="45.00125" lon="6.47048">
        <ele>1586.7</ele>
        <time>2022-07-16T08:02:47+0200</time>
      </trkpt>
      <trkpt lat="45.00128" lon="6.47043">
        <ele>1587.3</ele>
        <time>2022-07-16T08:02:50+0200</time>
      </trkpt>
      <trkpt lat="45.00132" lon="6.47036">
        <ele>1588.2</ele>
        <time>2022-07-16T08:02:53+0200</time>
      </trkpt>
      <trkpt lat="45.00138" lon="6.47034">
        <ele>1587.9</ele>
        <time>2022-07-16T08:02:55+0200</time>
      </trkpt>
      <trkpt lat="45.00141" lon="6.47029">
        <ele>1588.4</ele>
        <time>2022-07-16T08:02:57+0200</time>
      </trkpt>
      <trkpt lat="45.00146" lon="6.47026">
        <ele>1588.5</ele>
        <time>2022-07-16T08:02:59+0200</time>
      </trkpt>
      <trkpt lat="45.00151" lon="6.47021">
        <ele>1589</ele>
        <time>2022-07-16T08:03:01+0200</time>
      </trkpt>
      <trkpt lat="45.00159" lon="6.47016">
        <ele>1589.1</ele>
        <time>2022-07-16T08:03:03+0200</time>
      </trkpt>
      <trkpt lat="45.00165" lon="6.47015">
        <ele>1588.4</ele>
        <time>2022-07-16T08:03:06+0200</time>
      </trkpt>
      <trkpt lat="45.00173" lon="6.47013">
        <ele>1588.2</ele>
        <time>2022-07-16T08:03:08+0200</time>
      </trkpt>
      <trkpt lat="45.00178" lon="6.47005">
        <ele>1589.6</ele>
        <time>2022-07-16T08:03:10+0200</time>
      </trkpt>
      <trkpt lat="45.00183" lon="6.47004">
        <ele>1589.3</ele>
        <time>2022-07-16T08:03:12+0200</time>
      </trkpt>
      <trkpt lat="45.00188" lon="6.47002">
        <ele>1589.2</ele>
        <time>2022-07-16T08:03:13+0200</time>
      </trkpt>
      <trkpt lat="45.00194" lon="6.46999">
        <ele>1589.4</ele>
        <time>2022-07-16T08:03:14+0200</time>
      </trkpt>
      <trkpt lat="45.00199" lon="6.46996">
        <ele>1589.5</ele>
        <time>2022-07-16T08:03:15+0200</time>
      </trkpt>
      <trkpt lat="45.00204" lon="6.46995">
        <ele>1589.1</ele>
        <time>2022-07-16T08:03:16+0200</time>
      </trkpt>
      <trkpt lat="45.00208" lon="6.46993">
        <ele>1589.2</ele>
        <time>2022-07-16T08:03:17+0200</time>
      </trkpt>
      <trkpt lat="45.00215" lon="6.46986">
        <ele>1590.1</ele>
        <time>2022-07-16T08:03:19+0200</time>
      </trkpt>
      <trkpt lat="45.00221" lon="6.46978">
        <ele>1591</ele>
        <time>2022-07-16T08:03:21+0200</time>
      </trkpt>
      <trkpt lat="45.00227" lon="6.46971">
        <ele>1591.8</ele>
        <time>2022-07-16T08:03:23+0200</time>
      </trkpt>
      <trkpt lat="45.00233" lon="6.46968">
        <ele>1592.1</ele>
        <time>2022-07-16T08:03:26+0200</time>
      </trkpt>
      <trkpt lat="45.00238" lon="6.46965">
        <ele>1592.5</ele>
        <time>2022-07-16T08:03:30+0200</time>
      </trkpt>
      <trkpt lat="45.00243" lon="6.46961">
        <ele>1593</ele>
        <time>2022-07-16T08:03:32+0200</time>
      </trkpt>
      <trkpt lat="45.00249" lon="6.46961">
        <ele>1592.3</ele>
        <time>2022-07-16T08:03:34+0200</time>
      </trkpt>
      <trkpt lat="45.00254" lon="6.46959">
        <ele>1592.3</ele>
        <time>2022-07-16T08:03:37+0200</time>
      </trkpt>
      <trkpt lat="45.00259" lon="6.46959">
        <ele>1591.8</ele>
        <time>2022-07-16T08:03:40+0200</time>
      </trkpt>
      <trkpt lat="45.00264" lon="6.46959">
        <ele>1591.2</ele>
        <time>2022-07-16T08:03:42+0200</time>
      </trkpt>
      <trkpt lat="45.00269" lon="6.46958">
        <ele>1590.9</ele>
        <time>2022-07-16T08:03:45+0200</time>
      </trkpt>
      <trkpt lat="45.00276" lon="6.46957">
        <ele>1590.5</ele>
        <time>2022-07-16T08:03:47+0200</time>
      </trkpt>
      <trkpt lat="45.00283" lon="6.46953">
        <ele>1591</ele>
        <time>2022-07-16T08:03:49+0200</time>
      </trkpt>
      <trkpt lat="45.0029" lon="6.46954">
        <ele>1590.2</ele>
        <time>2022-07-16T08:03:52+0200</time>
      </trkpt>
      <trkpt lat="45.00296" lon="6.46955">
        <ele>1589.2</ele>
        <time>2022-07-16T08:03:54+0200</time>
      </trkpt>
      <trkpt lat="45.00301" lon="6.46954">
        <ele>1589</ele>
        <time>2022-07-16T08:03:55+0200</time>
      </trkpt>
      <trkpt lat="45.00305" lon="6.46954">
        <ele>1588.7</ele>
        <time>2022-07-16T08:03:56+0200</time>
      </trkpt>
      <trkpt lat="45.0031" lon="6.46952">
        <ele>1588.6</ele>
        <time>2022-07-16T08:03:57+0200</time>
      </trkpt>
      <trkpt lat="45.00317" lon="6.46945">
        <ele>1589.7</ele>
        <time>2022-07-16T08:03:59+0200</time>
      </trkpt>
      <trkpt lat="45.00321" lon="6.46943">
        <ele>1589.7</ele>
        <time>2022-07-16T08:04:00+0200</time>
      </trkpt>
      <trkpt lat="45.00326" lon="6.4694">
        <ele>1589.9</ele>
        <time>2022-07-16T08:04:01+0200</time>
      </trkpt>
      <trkpt lat="45.0033" lon="6.46934">
        <ele>1590.8</ele>
        <time>2022-07-16T08:04:03+0200</time>
      </trkpt>
      <trkpt lat="45.00337" lon="6.46931">
        <ele>1590.4</ele>
        <time>2022-07-16T08:04:05+0200</time>
      </trkpt>
      <trkpt lat="45.00342" lon="6.46927">
        <ele>1590.7</ele>
        <time>2022-07-16T08:04:07+0200</time>
      </trkpt>
      <trkpt lat="45.00348" lon="6.4692">
        <ele>1591.8</ele>
        <time>2022-07-16T08:04:09+0200</time>
      </trkpt>
      <trkpt lat="45.00354" lon="6.46916">
        <ele>1591.9</ele>
        <time>2022-07-16T08:04:11+0200</time>
      </trkpt>
      <trkpt lat="45.00362" lon="6.46915">
        <ele>1591.3</ele>
        <time>2022-07-16T08:04:13+0200</time>
      </trkpt>
      <trkpt lat="45.00367" lon="6.46909">
        <ele>1592.1</ele>
        <time>2022-07-16T08:04:14+0200</time>
      </trkpt>
      <trkpt lat="45.00372" lon="6.46905">
        <ele>1592</ele>
        <time>2022-07-16T08:04:15+0200</time>
      </trkpt>
      <trkpt lat="45.00378" lon="6.46901">
        <ele>1591.9</ele>
        <time>2022-07-16T08:04:16+0200</time>
      </trkpt>
      <trkpt lat="45.00383" lon="6.46897">
        <ele>1591.8</ele>
        <time>2022-07-16T08:04:17+0200</time>
      </trkpt>
      <trkpt lat="45.00388" lon="6.46892">
        <ele>1591.6</ele>
        <time>2022-07-16T08:04:18+0200</time>
      </trkpt>
      <trkpt lat="45.00392" lon="6.46886">
        <ele>1592</ele>
        <time>2022-07-16T08:04:19+0200</time>
      </trkpt>
      <trkpt lat="45.00394" lon="6.46876">
        <ele>1593.5</ele>
        <time>2022-07-16T08:04:20+0200</time>
      </trkpt>
      <trkpt lat="45.00394" lon="6.4687">
        <ele>1594.5</ele>
        <time>2022-07-16T08:04:21+0200</time>
      </trkpt>
      <trkpt lat="45.004" lon="6.46861">
        <ele>1594.6</ele>
        <time>2022-07-16T08:04:23+0200</time>
      </trkpt>
      <trkpt lat="45.00404" lon="6.46856">
        <ele>1594.7</ele>
        <time>2022-07-16T08:04:24+0200</time>
      </trkpt>
      <trkpt lat="45.00411" lon="6.46848">
        <ele>1594.4</ele>
        <time>2022-07-16T08:04:26+0200</time>
      </trkpt>
      <trkpt lat="45.00413" lon="6.46843">
        <ele>1594.6</ele>
        <time>2022-07-16T08:04:28+0200</time>
      </trkpt>
      <trkpt lat="45.00416" lon="6.46837">
        <ele>1594.6</ele>
        <time>2022-07-16T08:04:31+0200</time>
      </trkpt>
      <trkpt lat="45.00418" lon="6.46831">
        <ele>1595.3</ele>
        <time>2022-07-16T08:04:33+0200</time>
      </trkpt>
      <trkpt lat="45.00419" lon="6.46822">
        <ele>1596.7</ele>
        <time>2022-07-16T08:04:36+0200</time>
      </trkpt>
      <trkpt lat="45.00423" lon="6.46816">
        <ele>1596.9</ele>
        <time>2022-07-16T08:04:39+0200</time>
      </trkpt>
      <trkpt lat="45.00429" lon="6.46813">
        <ele>1596.4</ele>
        <time>2022-07-16T08:04:42+0200</time>
      </trkpt>
      <trkpt lat="45.00431" lon="6.46807">
        <ele>1596.7</ele>
        <time>2022-07-16T08:04:44+0200</time>
      </trkpt>
      <trkpt lat="45.00436" lon="6.46801">
        <ele>1596.4</ele>
        <time>2022-07-16T08:04:47+0200</time>
      </trkpt>
      <trkpt lat="45.0044" lon="6.46795">
        <ele>1596.4</ele>
        <time>2022-07-16T08:04:49+0200</time>
      </trkpt>
      <trkpt lat="45.00444" lon="6.4679">
        <ele>1595.9</ele>
        <time>2022-07-16T08:04:52+0200</time>
      </trkpt>
      <trkpt lat="45.00447" lon="6.46784">
        <ele>1596.2</ele>
        <time>2022-07-16T08:04:54+0200</time>
      </trkpt>
      <trkpt lat="45.00449" lon="6.46777">
        <ele>1597</ele>
        <time>2022-07-16T08:04:58+0200</time>
      </trkpt>
      <trkpt lat="45.00449" lon="6.46769">
        <ele>1599</ele>
        <time>2022-07-16T08:05:00+0200</time>
      </trkpt>
      <trkpt lat="45.00452" lon="6.46762">
        <ele>1600.3</ele>
        <time>2022-07-16T08:05:03+0200</time>
      </trkpt>
      <trkpt lat="45.00455" lon="6.46752">
        <ele>1602.2</ele>
        <time>2022-07-16T08:05:06+0200</time>
      </trkpt>
      <trkpt lat="45.00457" lon="6.46744">
        <ele>1604.2</ele>
        <time>2022-07-16T08:05:09+0200</time>
      </trkpt>
      <trkpt lat="45.00461" lon="6.46736">
        <ele>1605.8</ele>
        <time>2022-07-16T08:05:13+0200</time>
      </trkpt>
      <trkpt lat="45.00466" lon="6.46731">
        <ele>1605.8</ele>
        <time>2022-07-16T08:05:15+0200</time>
      </trkpt>
      <trkpt lat="45.00469" lon="6.46726">
        <ele>1606.1</ele>
        <time>2022-07-16T08:05:17+0200</time>
      </trkpt>
      <trkpt lat="45.00472" lon="6.46721">
        <ele>1606.3</ele>
        <time>2022-07-16T08:05:19+0200</time>
      </trkpt>
      <trkpt lat="45.00476" lon="6.46715">
        <ele>1607.8</ele>
        <time>2022-07-16T08:05:23+0200</time>
      </trkpt>
      <trkpt lat="45.00482" lon="6.4671">
        <ele>1608.5</ele>
        <time>2022-07-16T08:05:26+0200</time>
      </trkpt>
      <trkpt lat="45.00486" lon="6.46705">
        <ele>1609.1</ele>
        <time>2022-07-16T08:05:29+0200</time>
      </trkpt>
      <trkpt lat="45.0049" lon="6.46697">
        <ele>1610.1</ele>
        <time>2022-07-16T08:05:33+0200</time>
      </trkpt>
      <trkpt lat="45.00493" lon="6.46689">
        <ele>1611.2</ele>
        <time>2022-07-16T08:05:35+0200</time>
      </trkpt>
      <trkpt lat="45.00494" lon="6.46682">
        <ele>1612.6</ele>
        <time>2022-07-16T08:05:39+0200</time>
      </trkpt>
      <trkpt lat="45.00498" lon="6.46678">
        <ele>1612.4</ele>
        <time>2022-07-16T08:05:41+0200</time>
      </trkpt>
      <trkpt lat="45.00501" lon="6.46672">
        <ele>1612.6</ele>
        <time>2022-07-16T08:05:44+0200</time>
      </trkpt>
      <trkpt lat="45.00505" lon="6.46669">
        <ele>1612.6</ele>
        <time>2022-07-16T08:05:47+0200</time>
      </trkpt>
      <trkpt lat="45.00508" lon="6.46663">
        <ele>1613.3</ele>
        <time>2022-07-16T08:05:49+0200</time>
      </trkpt>
      <trkpt lat="45.00513" lon="6.46654">
        <ele>1614</ele>
        <time>2022-07-16T08:05:53+0200</time>
      </trkpt>
      <trkpt lat="45.00517" lon="6.46647">
        <ele>1614.6</ele>
        <time>2022-07-16T08:05:57+0200</time>
      </trkpt>
      <trkpt lat="45.0052" lon="6.4664">
        <ele>1615.3</ele>
        <time>2022-07-16T08:06:00+0200</time>
      </trkpt>
      <trkpt lat="45.00524" lon="6.46634">
        <ele>1615.4</ele>
        <time>2022-07-16T08:06:03+0200</time>
      </trkpt>
      <trkpt lat="45.00529" lon="6.46632">
        <ele>1614.9</ele>
        <time>2022-07-16T08:06:06+0200</time>
      </trkpt>
      <trkpt lat="45.00533" lon="6.46627">
        <ele>1615.3</ele>
        <time>2022-07-16T08:06:08+0200</time>
      </trkpt>
      <trkpt lat="45.00537" lon="6.46624">
        <ele>1615.4</ele>
        <time>2022-07-16T08:06:10+0200</time>
      </trkpt>
      <trkpt lat="45.0054" lon="6.46618">
        <ele>1616.1</ele>
        <time>2022-07-16T08:06:13+0200</time>
      </trkpt>
      <trkpt lat="45.00544" lon="6.46614">
        <ele>1616.4</ele>
        <time>2022-07-16T08:06:16+0200</time>
      </trkpt>
      <trkpt lat="45.0055" lon="6.46611">
        <ele>1616.5</ele>
        <time>2022-07-16T08:06:19+0200</time>
      </trkpt>
      <trkpt lat="45.00554" lon="6.46608">
        <ele>1616.8</ele>
        <time>2022-07-16T08:06:21+0200</time>
      </trkpt>
      <trkpt lat="45.00562" lon="6.46607">
        <ele>1617.1</ele>
        <time>2022-07-16T08:06:24+0200</time>
      </trkpt>
      <trkpt lat="45.00566" lon="6.46605">
        <ele>1617.6</ele>
        <time>2022-07-16T08:06:26+0200</time>
      </trkpt>
      <trkpt lat="45.00569" lon="6.46599">
        <ele>1619.1</ele>
        <time>2022-07-16T08:06:28+0200</time>
      </trkpt>
      <trkpt lat="45.00576" lon="6.46598">
        <ele>1619.6</ele>
        <time>2022-07-16T08:06:30+0200</time>
      </trkpt>
      <trkpt lat="45.00583" lon="6.466">
        <ele>1619.3</ele>
        <time>2022-07-16T08:06:32+0200</time>
      </trkpt>
      <trkpt lat="45.00589" lon="6.46604">
        <ele>1618.9</ele>
        <time>2022-07-16T08:06:35+0200</time>
      </trkpt>
      <trkpt lat="45.00594" lon="6.46604">
        <ele>1619.2</ele>
        <time>2022-07-16T08:06:37+0200</time>
      </trkpt>
      <trkpt lat="45.00599" lon="6.46607">
        <ele>1619.1</ele>
        <time>2022-07-16T08:06:40+0200</time>
      </trkpt>
      <trkpt lat="45.00604" lon="6.4661">
        <ele>1618.8</ele>
        <time>2022-07-16T08:06:42+0200</time>
      </trkpt>
      <trkpt lat="45.00609" lon="6.4661">
        <ele>1619.1</ele>
        <time>2022-07-16T08:06:44+0200</time>
      </trkpt>
      <trkpt lat="45.00614" lon="6.46607">
        <ele>1619.8</ele>
        <time>2022-07-16T08:06:48+0200</time>
      </trkpt>
      <trkpt lat="45.0062" lon="6.46606">
        <ele>1620.1</ele>
        <time>2022-07-16T08:06:50+0200</time>
      </trkpt>
      <trkpt lat="45.00627" lon="6.46605">
        <ele>1620.5</ele>
        <time>2022-07-16T08:06:52+0200</time>
      </trkpt>
      <trkpt lat="45.00636" lon="6.46603">
        <ele>1621.1</ele>
        <time>2022-07-16T08:06:54+0200</time>
      </trkpt>
      <trkpt lat="45.00643" lon="6.46603">
        <ele>1621.3</ele>
        <time>2022-07-16T08:06:55+0200</time>
      </trkpt>
      <trkpt lat="45.0065" lon="6.46603">
        <ele>1621.4</ele>
        <time>2022-07-16T08:06:56+0200</time>
      </trkpt>
      <trkpt lat="45.00655" lon="6.46603">
        <ele>1621.5</ele>
        <time>2022-07-16T08:06:57+0200</time>
      </trkpt>
      <trkpt lat="45.0066" lon="6.46599">
        <ele>1622.2</ele>
        <time>2022-07-16T08:06:58+0200</time>
      </trkpt>
      <trkpt lat="45.00665" lon="6.46594">
        <ele>1622.8</ele>
        <time>2022-07-16T08:06:59+0200</time>
      </trkpt>
      <trkpt lat="45.0067" lon="6.46588">
        <ele>1623.6</ele>
        <time>2022-07-16T08:07:00+0200</time>
      </trkpt>
      <trkpt lat="45.00677" lon="6.4659">
        <ele>1623.6</ele>
        <time>2022-07-16T08:07:02+0200</time>
      </trkpt>
      <trkpt lat="45.00681" lon="6.46585">
        <ele>1624.3</ele>
        <time>2022-07-16T08:07:04+0200</time>
      </trkpt>
      <trkpt lat="45.00685" lon="6.46581">
        <ele>1625</ele>
        <time>2022-07-16T08:07:06+0200</time>
      </trkpt>
      <trkpt lat="45.00692" lon="6.46583">
        <ele>1624.9</ele>
        <time>2022-07-16T08:07:09+0200</time>
      </trkpt>
      <trkpt lat="45.00698" lon="6.46579">
        <ele>1625.7</ele>
        <time>2022-07-16T08:07:11+0200</time>
      </trkpt>
      <trkpt lat="45.00705" lon="6.46574">
        <ele>1626.5</ele>
        <time>2022-07-16T08:07:13+0200</time>
      </trkpt>
      <trkpt lat="45.00711" lon="6.46574">
        <ele>1626.8</ele>
        <time>2022-07-16T08:07:16+0200</time>
      </trkpt>
      <trkpt lat="45.00717" lon="6.46576">
        <ele>1627</ele>
        <time>2022-07-16T08:07:18+0200</time>
      </trkpt>
      <trkpt lat="45.00722" lon="6.46578">
        <ele>1627.2</ele>
        <time>2022-07-16T08:07:20+0200</time>
      </trkpt>
      <trkpt lat="45.00726" lon="6.46581">
        <ele>1627.2</ele>
        <time>2022-07-16T08:07:22+0200</time>
      </trkpt>
      <trkpt lat="45.0073" lon="6.46586">
        <ele>1627.1</ele>
        <time>2022-07-16T08:07:25+0200</time>
      </trkpt>
      <trkpt lat="45.00734" lon="6.46593">
        <ele>1626.9</ele>
        <time>2022-07-16T08:07:29+0200</time>
      </trkpt>
      <trkpt lat="45.00739" lon="6.466">
        <ele>1626.8</ele>
        <time>2022-07-16T08:07:31+0200</time>
      </trkpt>
      <trkpt lat="45.00743" lon="6.46604">
        <ele>1626.8</ele>
        <time>2022-07-16T08:07:32+0200</time>
      </trkpt>
      <trkpt lat="45.00746" lon="6.46612">
        <ele>1626.6</ele>
        <time>2022-07-16T08:07:34+0200</time>
      </trkpt>
      <trkpt lat="45.0075" lon="6.46624">
        <ele>1626.5</ele>
        <time>2022-07-16T08:07:36+0200</time>
      </trkpt>
      <trkpt lat="45.00751" lon="6.4663">
        <ele>1626.4</ele>
        <time>2022-07-16T08:07:37+0200</time>
      </trkpt>
      <trkpt lat="45.00755" lon="6.46639">
        <ele>1626.4</ele>
        <time>2022-07-16T08:07:39+0200</time>
      </trkpt>
      <trkpt lat="45.00759" lon="6.46646">
        <ele>1626.5</ele>
        <time>2022-07-16T08:07:40+0200</time>
      </trkpt>
      <trkpt lat="45.00763" lon="6.4665">
        <ele>1626.7</ele>
        <time>2022-07-16T08:07:41+0200</time>
      </trkpt>
      <trkpt lat="45.00766" lon="6.46657">
        <ele>1626.9</ele>
        <time>2022-07-16T08:07:42+0200</time>
      </trkpt>
      <trkpt lat="45.00768" lon="6.46663">
        <ele>1626.9</ele>
        <time>2022-07-16T08:07:43+0200</time>
      </trkpt>
      <trkpt lat="45.0077" lon="6.4667">
        <ele>1627.1</ele>
        <time>2022-07-16T08:07:44+0200</time>
      </trkpt>
      <trkpt lat="45.00771" lon="6.46676">
        <ele>1627.1</ele>
        <time>2022-07-16T08:07:45+0200</time>
      </trkpt>
      <trkpt lat="45.00775" lon="6.4668">
        <ele>1627.6</ele>
        <time>2022-07-16T08:07:47+0200</time>
      </trkpt>
      <trkpt lat="45.00777" lon="6.46688">
        <ele>1627.8</ele>
        <time>2022-07-16T08:07:50+0200</time>
      </trkpt>
      <trkpt lat="45.00782" lon="6.46695">
        <ele>1628</ele>
        <time>2022-07-16T08:07:52+0200</time>
      </trkpt>
      <trkpt lat="45.00786" lon="6.46699">
        <ele>1627.9</ele>
        <time>2022-07-16T08:07:53+0200</time>
      </trkpt>
      <trkpt lat="45.0079" lon="6.46705">
        <ele>1627.8</ele>
        <time>2022-07-16T08:07:54+0200</time>
      </trkpt>
      <trkpt lat="45.00795" lon="6.46713">
        <ele>1627.7</ele>
        <time>2022-07-16T08:07:55+0200</time>
      </trkpt>
      <trkpt lat="45.008" lon="6.46721">
        <ele>1627.8</ele>
        <time>2022-07-16T08:07:56+0200</time>
      </trkpt>
      <trkpt lat="45.00806" lon="6.46729">
        <ele>1628</ele>
        <time>2022-07-16T08:07:57+0200</time>
      </trkpt>
      <trkpt lat="45.00812" lon="6.46734">
        <ele>1627.8</ele>
        <time>2022-07-16T08:07:58+0200</time>
      </trkpt>
      <trkpt lat="45.00819" lon="6.46733">
        <ele>1627.5</ele>
        <time>2022-07-16T08:07:59+0200</time>
      </trkpt>
      <trkpt lat="45.00831" lon="6.46734">
        <ele>1627.1</ele>
        <time>2022-07-16T08:08:00+0200</time>
      </trkpt>
      <trkpt lat="45.0084" lon="6.46733">
        <ele>1626.8</ele>
        <time>2022-07-16T08:08:01+0200</time>
      </trkpt>
      <trkpt lat="45.00847" lon="6.46734">
        <ele>1626.5</ele>
        <time>2022-07-16T08:08:02+0200</time>
      </trkpt>
      <trkpt lat="45.00854" lon="6.46735">
        <ele>1626.2</ele>
        <time>2022-07-16T08:08:03+0200</time>
      </trkpt>
      <trkpt lat="45.00861" lon="6.46736">
        <ele>1626</ele>
        <time>2022-07-16T08:08:04+0200</time>
      </trkpt>
      <trkpt lat="45.00868" lon="6.46738">
        <ele>1626</ele>
        <time>2022-07-16T08:08:05+0200</time>
      </trkpt>
      <trkpt lat="45.00874" lon="6.4674">
        <ele>1626</ele>
        <time>2022-07-16T08:08:06+0200</time>
      </trkpt>
      <trkpt lat="45.0088" lon="6.46744">
        <ele>1626</ele>
        <time>2022-07-16T08:08:07+0200</time>
      </trkpt>
      <trkpt lat="45.00885" lon="6.46746">
        <ele>1626</ele>
        <time>2022-07-16T08:08:08+0200</time>
      </trkpt>
      <trkpt lat="45.00891" lon="6.46751">
        <ele>1625.9</ele>
        <time>2022-07-16T08:08:09+0200</time>
      </trkpt>
      <trkpt lat="45.00895" lon="6.46756">
        <ele>1625.8</ele>
        <time>2022-07-16T08:08:10+0200</time>
      </trkpt>
      <trkpt lat="45.00899" lon="6.46763">
        <ele>1625.6</ele>
        <time>2022-07-16T08:08:11+0200</time>
      </trkpt>
      <trkpt lat="45.00902" lon="6.4677">
        <ele>1625.5</ele>
        <time>2022-07-16T08:08:12+0200</time>
      </trkpt>
      <trkpt lat="45.00905" lon="6.46777">
        <ele>1625.4</ele>
        <time>2022-07-16T08:08:13+0200</time>
      </trkpt>
      <trkpt lat="45.0091" lon="6.46787">
        <ele>1625.2</ele>
        <time>2022-07-16T08:08:15+0200</time>
      </trkpt>
      <trkpt lat="45.00919" lon="6.46786">
        <ele>1624.9</ele>
        <time>2022-07-16T08:08:16+0200</time>
      </trkpt>
      <trkpt lat="45.00926" lon="6.46783">
        <ele>1624.7</ele>
        <time>2022-07-16T08:08:17+0200</time>
      </trkpt>
      <trkpt lat="45.00931" lon="6.4678">
        <ele>1624.5</ele>
        <time>2022-07-16T08:08:18+0200</time>
      </trkpt>
      <trkpt lat="45.00935" lon="6.46776">
        <ele>1624.4</ele>
        <time>2022-07-16T08:08:19+0200</time>
      </trkpt>
      <trkpt lat="45.00939" lon="6.46771">
        <ele>1624.4</ele>
        <time>2022-07-16T08:08:20+0200</time>
      </trkpt>
      <trkpt lat="45.00944" lon="6.46768">
        <ele>1624.4</ele>
        <time>2022-07-16T08:08:21+0200</time>
      </trkpt>
      <trkpt lat="45.00949" lon="6.46765">
        <ele>1624.4</ele>
        <time>2022-07-16T08:08:22+0200</time>
      </trkpt>
      <trkpt lat="45.00956" lon="6.4676">
        <ele>1624.5</ele>
        <time>2022-07-16T08:08:24+0200</time>
      </trkpt>
      <trkpt lat="45.00963" lon="6.46755">
        <ele>1624.7</ele>
        <time>2022-07-16T08:08:26+0200</time>
      </trkpt>
      <trkpt lat="45.00969" lon="6.46746">
        <ele>1625.3</ele>
        <time>2022-07-16T08:08:28+0200</time>
      </trkpt>
      <trkpt lat="45.00978" lon="6.46737">
        <ele>1626.2</ele>
        <time>2022-07-16T08:08:30+0200</time>
      </trkpt>
      <trkpt lat="45.00982" lon="6.46731">
        <ele>1626.8</ele>
        <time>2022-07-16T08:08:31+0200</time>
      </trkpt>
      <trkpt lat="45.00985" lon="6.46725">
        <ele>1627.3</ele>
        <time>2022-07-16T08:08:32+0200</time>
      </trkpt>
      <trkpt lat="45.0099" lon="6.46717">
        <ele>1627.8</ele>
        <time>2022-07-16T08:08:34+0200</time>
      </trkpt>
      <trkpt lat="45.00993" lon="6.46712">
        <ele>1628.1</ele>
        <time>2022-07-16T08:08:35+0200</time>
      </trkpt>
      <trkpt lat="45.00998" lon="6.46708">
        <ele>1628.4</ele>
        <time>2022-07-16T08:08:36+0200</time>
      </trkpt>
      <trkpt lat="45.01004" lon="6.46705">
        <ele>1628.6</ele>
        <time>2022-07-16T08:08:38+0200</time>
      </trkpt>
      <trkpt lat="45.0101" lon="6.46702">
        <ele>1628.7</ele>
        <time>2022-07-16T08:08:40+0200</time>
      </trkpt>
      <trkpt lat="45.01015" lon="6.46696">
        <ele>1628.9</ele>
        <time>2022-07-16T08:08:42+0200</time>
      </trkpt>
      <trkpt lat="45.01018" lon="6.4669">
        <ele>1629.3</ele>
        <time>2022-07-16T08:08:44+0200</time>
      </trkpt>
      <trkpt lat="45.01025" lon="6.46689">
        <ele>1629.4</ele>
        <time>2022-07-16T08:08:45+0200</time>
      </trkpt>
      <trkpt lat="45.0103" lon="6.46685">
        <ele>1629.4</ele>
        <time>2022-07-16T08:08:46+0200</time>
      </trkpt>
      <trkpt lat="45.01033" lon="6.46681">
        <ele>1629.2</ele>
        <time>2022-07-16T08:08:47+0200</time>
      </trkpt>
      <trkpt lat="45.01041" lon="6.46674">
        <ele>1628.6</ele>
        <time>2022-07-16T08:08:49+0200</time>
      </trkpt>
      <trkpt lat="45.01045" lon="6.46669">
        <ele>1628.5</ele>
        <time>2022-07-16T08:08:50+0200</time>
      </trkpt>
      <trkpt lat="45.01048" lon="6.46662">
        <ele>1628.4</ele>
        <time>2022-07-16T08:08:51+0200</time>
      </trkpt>
      <trkpt lat="45.01051" lon="6.46655">
        <ele>1628.5</ele>
        <time>2022-07-16T08:08:52+0200</time>
      </trkpt>
      <trkpt lat="45.01054" lon="6.46648">
        <ele>1628.6</ele>
        <time>2022-07-16T08:08:53+0200</time>
      </trkpt>
      <trkpt lat="45.01056" lon="6.4664">
        <ele>1628.7</ele>
        <time>2022-07-16T08:08:54+0200</time>
      </trkpt>
      <trkpt lat="45.0106" lon="6.46631">
        <ele>1628.6</ele>
        <time>2022-07-16T08:08:55+0200</time>
      </trkpt>
      <trkpt lat="45.01065" lon="6.46622">
        <ele>1628.1</ele>
        <time>2022-07-16T08:08:56+0200</time>
      </trkpt>
      <trkpt lat="45.01073" lon="6.46617">
        <ele>1626.4</ele>
        <time>2022-07-16T08:08:57+0200</time>
      </trkpt>
      <trkpt lat="45.01081" lon="6.46611">
        <ele>1624.6</ele>
        <time>2022-07-16T08:08:58+0200</time>
      </trkpt>
      <trkpt lat="45.01086" lon="6.46601">
        <ele>1624.3</ele>
        <time>2022-07-16T08:08:59+0200</time>
      </trkpt>
      <trkpt lat="45.01092" lon="6.46592">
        <ele>1624.3</ele>
        <time>2022-07-16T08:09:00+0200</time>
      </trkpt>
      <trkpt lat="45.01099" lon="6.4659">
        <ele>1623.9</ele>
        <time>2022-07-16T08:09:01+0200</time>
      </trkpt>
      <trkpt lat="45.01104" lon="6.46588">
        <ele>1623.6</ele>
        <time>2022-07-16T08:09:02+0200</time>
      </trkpt>
      <trkpt lat="45.0111" lon="6.46589">
        <ele>1623.3</ele>
        <time>2022-07-16T08:09:03+0200</time>
      </trkpt>
      <trkpt lat="45.01116" lon="6.46596">
        <ele>1624.3</ele>
        <time>2022-07-16T08:09:04+0200</time>
      </trkpt>
      <trkpt lat="45.01121" lon="6.466">
        <ele>1625.5</ele>
        <time>2022-07-16T08:09:05+0200</time>
      </trkpt>
      <trkpt lat="45.01126" lon="6.46604">
        <ele>1626.6</ele>
        <time>2022-07-16T08:09:06+0200</time>
      </trkpt>
      <trkpt lat="45.01131" lon="6.46604">
        <ele>1627.7</ele>
        <time>2022-07-16T08:09:07+0200</time>
      </trkpt>
      <trkpt lat="45.01138" lon="6.46602">
        <ele>1628.8</ele>
        <time>2022-07-16T08:09:09+0200</time>
      </trkpt>
      <trkpt lat="45.01144" lon="6.46597">
        <ele>1629.4</ele>
        <time>2022-07-16T08:09:11+0200</time>
      </trkpt>
      <trkpt lat="45.0115" lon="6.46591">
        <ele>1630</ele>
        <time>2022-07-16T08:09:13+0200</time>
      </trkpt>
      <trkpt lat="45.01155" lon="6.46589">
        <ele>1630.7</ele>
        <time>2022-07-16T08:09:15+0200</time>
      </trkpt>
      <trkpt lat="45.01162" lon="6.46585">
        <ele>1631.3</ele>
        <time>2022-07-16T08:09:17+0200</time>
      </trkpt>
      <trkpt lat="45.01168" lon="6.4658">
        <ele>1631.8</ele>
        <time>2022-07-16T08:09:19+0200</time>
      </trkpt>
      <trkpt lat="45.01174" lon="6.46577">
        <ele>1632.4</ele>
        <time>2022-07-16T08:09:21+0200</time>
      </trkpt>
      <trkpt lat="45.0118" lon="6.46573">
        <ele>1632.8</ele>
        <time>2022-07-16T08:09:23+0200</time>
      </trkpt>
      <trkpt lat="45.01185" lon="6.4657">
        <ele>1633.2</ele>
        <time>2022-07-16T08:09:25+0200</time>
      </trkpt>
      <trkpt lat="45.01191" lon="6.46564">
        <ele>1633.4</ele>
        <time>2022-07-16T08:09:27+0200</time>
      </trkpt>
      <trkpt lat="45.01197" lon="6.4656">
        <ele>1633.8</ele>
        <time>2022-07-16T08:09:29+0200</time>
      </trkpt>
      <trkpt lat="45.01203" lon="6.46554">
        <ele>1633.9</ele>
        <time>2022-07-16T08:09:31+0200</time>
      </trkpt>
      <trkpt lat="45.01208" lon="6.46547">
        <ele>1634.2</ele>
        <time>2022-07-16T08:09:33+0200</time>
      </trkpt>
      <trkpt lat="45.01214" lon="6.4654">
        <ele>1634.5</ele>
        <time>2022-07-16T08:09:35+0200</time>
      </trkpt>
      <trkpt lat="45.01218" lon="6.46535">
        <ele>1634.9</ele>
        <time>2022-07-16T08:09:37+0200</time>
      </trkpt>
      <trkpt lat="45.01223" lon="6.46529">
        <ele>1635.1</ele>
        <time>2022-07-16T08:09:39+0200</time>
      </trkpt>
      <trkpt lat="45.01228" lon="6.46521">
        <ele>1635.2</ele>
        <time>2022-07-16T08:09:41+0200</time>
      </trkpt>
      <trkpt lat="45.01233" lon="6.46514">
        <ele>1635.4</ele>
        <time>2022-07-16T08:09:43+0200</time>
      </trkpt>
      <trkpt lat="45.01237" lon="6.46505">
        <ele>1635.5</ele>
        <time>2022-07-16T08:09:45+0200</time>
      </trkpt>
      <trkpt lat="45.01242" lon="6.46502">
        <ele>1635.7</ele>
        <time>2022-07-16T08:09:47+0200</time>
      </trkpt>
      <trkpt lat="45.01247" lon="6.46496">
        <ele>1636</ele>
        <time>2022-07-16T08:09:49+0200</time>
      </trkpt>
      <trkpt lat="45.01253" lon="6.46492">
        <ele>1636.5</ele>
        <time>2022-07-16T08:09:51+0200</time>
      </trkpt>
      <trkpt lat="45.01258" lon="6.46484">
        <ele>1637</ele>
        <time>2022-07-16T08:09:53+0200</time>
      </trkpt>
      <trkpt lat="45.01264" lon="6.46479">
        <ele>1637.4</ele>
        <time>2022-07-16T08:09:55+0200</time>
      </trkpt>
      <trkpt lat="45.01269" lon="6.46474">
        <ele>1637.7</ele>
        <time>2022-07-16T08:09:57+0200</time>
      </trkpt>
      <trkpt lat="45.01274" lon="6.46468">
        <ele>1638</ele>
        <time>2022-07-16T08:09:59+0200</time>
      </trkpt>
      <trkpt lat="45.01278" lon="6.46464">
        <ele>1638.3</ele>
        <time>2022-07-16T08:10:01+0200</time>
      </trkpt>
      <trkpt lat="45.01283" lon="6.46461">
        <ele>1638.8</ele>
        <time>2022-07-16T08:10:03+0200</time>
      </trkpt>
      <trkpt lat="45.01288" lon="6.46455">
        <ele>1639.3</ele>
        <time>2022-07-16T08:10:05+0200</time>
      </trkpt>
      <trkpt lat="45.01293" lon="6.4645">
        <ele>1639.9</ele>
        <time>2022-07-16T08:10:07+0200</time>
      </trkpt>
      <trkpt lat="45.01298" lon="6.46445">
        <ele>1640.5</ele>
        <time>2022-07-16T08:10:10+0200</time>
      </trkpt>
      <trkpt lat="45.01303" lon="6.46441">
        <ele>1640.8</ele>
        <time>2022-07-16T08:10:12+0200</time>
      </trkpt>
      <trkpt lat="45.01307" lon="6.46435">
        <ele>1641.1</ele>
        <time>2022-07-16T08:10:14+0200</time>
      </trkpt>
      <trkpt lat="45.01311" lon="6.4643">
        <ele>1641.3</ele>
        <time>2022-07-16T08:10:16+0200</time>
      </trkpt>
      <trkpt lat="45.01315" lon="6.46427">
        <ele>1641.5</ele>
        <time>2022-07-16T08:10:18+0200</time>
      </trkpt>
      <trkpt lat="45.01318" lon="6.4642">
        <ele>1641.5</ele>
        <time>2022-07-16T08:10:19+0200</time>
      </trkpt>
      <trkpt lat="45.01322" lon="6.46413">
        <ele>1641.5</ele>
        <time>2022-07-16T08:10:21+0200</time>
      </trkpt>
      <trkpt lat="45.01327" lon="6.46407">
        <ele>1641.7</ele>
        <time>2022-07-16T08:10:23+0200</time>
      </trkpt>
      <trkpt lat="45.01332" lon="6.46402">
        <ele>1641.9</ele>
        <time>2022-07-16T08:10:25+0200</time>
      </trkpt>
      <trkpt lat="45.01337" lon="6.46396">
        <ele>1642.3</ele>
        <time>2022-07-16T08:10:27+0200</time>
      </trkpt>
      <trkpt lat="45.01343" lon="6.4639">
        <ele>1642.7</ele>
        <time>2022-07-16T08:10:30+0200</time>
      </trkpt>
      <trkpt lat="45.01348" lon="6.46383">
        <ele>1643.1</ele>
        <time>2022-07-16T08:10:32+0200</time>
      </trkpt>
      <trkpt lat="45.01353" lon="6.46377">
        <ele>1643.4</ele>
        <time>2022-07-16T08:10:34+0200</time>
      </trkpt>
      <trkpt lat="45.01358" lon="6.46372">
        <ele>1643.8</ele>
        <time>2022-07-16T08:10:36+0200</time>
      </trkpt>
      <trkpt lat="45.01364" lon="6.46372">
        <ele>1644.3</ele>
        <time>2022-07-16T08:10:38+0200</time>
      </trkpt>
      <trkpt lat="45.01369" lon="6.46369">
        <ele>1644.7</ele>
        <time>2022-07-16T08:10:40+0200</time>
      </trkpt>
      <trkpt lat="45.01376" lon="6.46367">
        <ele>1645.1</ele>
        <time>2022-07-16T08:10:42+0200</time>
      </trkpt>
      <trkpt lat="45.01382" lon="6.46363">
        <ele>1645.5</ele>
        <time>2022-07-16T08:10:44+0200</time>
      </trkpt>
      <trkpt lat="45.01387" lon="6.46358">
        <ele>1646</ele>
        <time>2022-07-16T08:10:46+0200</time>
      </trkpt>
      <trkpt lat="45.01396" lon="6.46355">
        <ele>1646.9</ele>
        <time>2022-07-16T08:10:49+0200</time>
      </trkpt>
      <trkpt lat="45.01402" lon="6.46354">
        <ele>1647.6</ele>
        <time>2022-07-16T08:10:52+0200</time>
      </trkpt>
      <trkpt lat="45.01407" lon="6.46354">
        <ele>1648.1</ele>
        <time>2022-07-16T08:10:55+0200</time>
      </trkpt>
      <trkpt lat="45.01414" lon="6.46354">
        <ele>1648.7</ele>
        <time>2022-07-16T08:10:57+0200</time>
      </trkpt>
      <trkpt lat="45.0142" lon="6.46355">
        <ele>1649.2</ele>
        <time>2022-07-16T08:11:00+0200</time>
      </trkpt>
      <trkpt lat="45.01424" lon="6.46358">
        <ele>1649.5</ele>
        <time>2022-07-16T08:11:02+0200</time>
      </trkpt>
      <trkpt lat="45.0143" lon="6.46359">
        <ele>1649.9</ele>
        <time>2022-07-16T08:11:04+0200</time>
      </trkpt>
      <trkpt lat="45.01435" lon="6.46355">
        <ele>1650.3</ele>
        <time>2022-07-16T08:11:07+0200</time>
      </trkpt>
      <trkpt lat="45.01433" lon="6.46349">
        <ele>1650.2</ele>
        <time>2022-07-16T08:11:10+0200</time>
      </trkpt>
      <trkpt lat="45.01438" lon="6.46348">
        <ele>1650.6</ele>
        <time>2022-07-16T08:11:13+0200</time>
      </trkpt>
      <trkpt lat="45.01443" lon="6.46344">
        <ele>1650.9</ele>
        <time>2022-07-16T08:11:15+0200</time>
      </trkpt>
      <trkpt lat="45.01447" lon="6.46336">
        <ele>1651.3</ele>
        <time>2022-07-16T08:11:19+0200</time>
      </trkpt>
      <trkpt lat="45.0145" lon="6.46328">
        <ele>1652</ele>
        <time>2022-07-16T08:11:21+0200</time>
      </trkpt>
      <trkpt lat="45.01452" lon="6.46322">
        <ele>1652.6</ele>
        <time>2022-07-16T08:11:23+0200</time>
      </trkpt>
      <trkpt lat="45.01455" lon="6.46317">
        <ele>1653.4</ele>
        <time>2022-07-16T08:11:25+0200</time>
      </trkpt>
      <trkpt lat="45.01459" lon="6.46311">
        <ele>1654.2</ele>
        <time>2022-07-16T08:11:27+0200</time>
      </trkpt>
      <trkpt lat="45.01462" lon="6.46304">
        <ele>1655</ele>
        <time>2022-07-16T08:11:29+0200</time>
      </trkpt>
      <trkpt lat="45.01466" lon="6.46298">
        <ele>1655.6</ele>
        <time>2022-07-16T08:11:31+0200</time>
      </trkpt>
      <trkpt lat="45.01471" lon="6.46293">
        <ele>1656.3</ele>
        <time>2022-07-16T08:11:34+0200</time>
      </trkpt>
      <trkpt lat="45.01475" lon="6.46287">
        <ele>1656.9</ele>
        <time>2022-07-16T08:11:36+0200</time>
      </trkpt>
      <trkpt lat="45.01479" lon="6.46279">
        <ele>1657.7</ele>
        <time>2022-07-16T08:11:39+0200</time>
      </trkpt>
      <trkpt lat="45.01484" lon="6.46272">
        <ele>1658.5</ele>
        <time>2022-07-16T08:11:42+0200</time>
      </trkpt>
      <trkpt lat="45.0149" lon="6.46265">
        <ele>1659.4</ele>
        <time>2022-07-16T08:11:45+0200</time>
      </trkpt>
      <trkpt lat="45.01493" lon="6.46259">
        <ele>1659.9</ele>
        <time>2022-07-16T08:11:47+0200</time>
      </trkpt>
      <trkpt lat="45.01497" lon="6.46252">
        <ele>1660.6</ele>
        <time>2022-07-16T08:11:50+0200</time>
      </trkpt>
      <trkpt lat="45.015" lon="6.46247">
        <ele>1661</ele>
        <time>2022-07-16T08:11:52+0200</time>
      </trkpt>
      <trkpt lat="45.01504" lon="6.4624">
        <ele>1661.3</ele>
        <time>2022-07-16T08:11:55+0200</time>
      </trkpt>
      <trkpt lat="45.01509" lon="6.46238">
        <ele>1661.6</ele>
        <time>2022-07-16T08:11:58+0200</time>
      </trkpt>
      <trkpt lat="45.01514" lon="6.46234">
        <ele>1662</ele>
        <time>2022-07-16T08:12:01+0200</time>
      </trkpt>
      <trkpt lat="45.01519" lon="6.46226">
        <ele>1662.3</ele>
        <time>2022-07-16T08:12:04+0200</time>
      </trkpt>
      <trkpt lat="45.01523" lon="6.46223">
        <ele>1662.6</ele>
        <time>2022-07-16T08:12:07+0200</time>
      </trkpt>
      <trkpt lat="45.01526" lon="6.46218">
        <ele>1662.9</ele>
        <time>2022-07-16T08:12:10+0200</time>
      </trkpt>
      <trkpt lat="45.01529" lon="6.46213">
        <ele>1663.2</ele>
        <time>2022-07-16T08:12:12+0200</time>
      </trkpt>
      <trkpt lat="45.01533" lon="6.46207">
        <ele>1663.4</ele>
        <time>2022-07-16T08:12:14+0200</time>
      </trkpt>
      <trkpt lat="45.01537" lon="6.46203">
        <ele>1663.8</ele>
        <time>2022-07-16T08:12:16+0200</time>
      </trkpt>
      <trkpt lat="45.01541" lon="6.46199">
        <ele>1664</ele>
        <time>2022-07-16T08:12:18+0200</time>
      </trkpt>
      <trkpt lat="45.01546" lon="6.46194">
        <ele>1664.3</ele>
        <time>2022-07-16T08:12:21+0200</time>
      </trkpt>
      <trkpt lat="45.01552" lon="6.46191">
        <ele>1664.4</ele>
        <time>2022-07-16T08:12:23+0200</time>
      </trkpt>
      <trkpt lat="45.01558" lon="6.46187">
        <ele>1664.8</ele>
        <time>2022-07-16T08:12:25+0200</time>
      </trkpt>
      <trkpt lat="45.01564" lon="6.46183">
        <ele>1665.3</ele>
        <time>2022-07-16T08:12:27+0200</time>
      </trkpt>
      <trkpt lat="45.01571" lon="6.46179">
        <ele>1665.8</ele>
        <time>2022-07-16T08:12:29+0200</time>
      </trkpt>
      <trkpt lat="45.01577" lon="6.46175">
        <ele>1666.4</ele>
        <time>2022-07-16T08:12:31+0200</time>
      </trkpt>
      <trkpt lat="45.01582" lon="6.46172">
        <ele>1667</ele>
        <time>2022-07-16T08:12:33+0200</time>
      </trkpt>
      <trkpt lat="45.01586" lon="6.46169">
        <ele>1667.5</ele>
        <time>2022-07-16T08:12:35+0200</time>
      </trkpt>
      <trkpt lat="45.01591" lon="6.46167">
        <ele>1668.1</ele>
        <time>2022-07-16T08:12:37+0200</time>
      </trkpt>
      <trkpt lat="45.01595" lon="6.46162">
        <ele>1668.4</ele>
        <time>2022-07-16T08:12:39+0200</time>
      </trkpt>
      <trkpt lat="45.016" lon="6.46159">
        <ele>1668.7</ele>
        <time>2022-07-16T08:12:41+0200</time>
      </trkpt>
      <trkpt lat="45.01606" lon="6.46154">
        <ele>1669</ele>
        <time>2022-07-16T08:12:43+0200</time>
      </trkpt>
      <trkpt lat="45.01611" lon="6.46151">
        <ele>1669.3</ele>
        <time>2022-07-16T08:12:45+0200</time>
      </trkpt>
      <trkpt lat="45.01617" lon="6.46146">
        <ele>1669.3</ele>
        <time>2022-07-16T08:12:47+0200</time>
      </trkpt>
      <trkpt lat="45.01624" lon="6.46143">
        <ele>1669.7</ele>
        <time>2022-07-16T08:12:49+0200</time>
      </trkpt>
      <trkpt lat="45.0163" lon="6.4614">
        <ele>1670.1</ele>
        <time>2022-07-16T08:12:51+0200</time>
      </trkpt>
      <trkpt lat="45.01636" lon="6.46137">
        <ele>1670.5</ele>
        <time>2022-07-16T08:12:53+0200</time>
      </trkpt>
      <trkpt lat="45.01642" lon="6.46134">
        <ele>1670.7</ele>
        <time>2022-07-16T08:12:55+0200</time>
      </trkpt>
      <trkpt lat="45.01649" lon="6.46132">
        <ele>1671.1</ele>
        <time>2022-07-16T08:12:57+0200</time>
      </trkpt>
      <trkpt lat="45.01656" lon="6.4613">
        <ele>1671.5</ele>
        <time>2022-07-16T08:12:59+0200</time>
      </trkpt>
      <trkpt lat="45.01662" lon="6.46127">
        <ele>1671.7</ele>
        <time>2022-07-16T08:13:01+0200</time>
      </trkpt>
      <trkpt lat="45.01669" lon="6.46123">
        <ele>1671.9</ele>
        <time>2022-07-16T08:13:03+0200</time>
      </trkpt>
      <trkpt lat="45.01675" lon="6.46121">
        <ele>1672.1</ele>
        <time>2022-07-16T08:13:05+0200</time>
      </trkpt>
      <trkpt lat="45.01679" lon="6.46119">
        <ele>1672.2</ele>
        <time>2022-07-16T08:13:07+0200</time>
      </trkpt>
      <trkpt lat="45.01685" lon="6.46116">
        <ele>1672.4</ele>
        <time>2022-07-16T08:13:09+0200</time>
      </trkpt>
      <trkpt lat="45.01691" lon="6.46113">
        <ele>1672.7</ele>
        <time>2022-07-16T08:13:11+0200</time>
      </trkpt>
      <trkpt lat="45.01695" lon="6.46108">
        <ele>1673.2</ele>
        <time>2022-07-16T08:13:13+0200</time>
      </trkpt>
      <trkpt lat="45.01701" lon="6.46104">
        <ele>1673.9</ele>
        <time>2022-07-16T08:13:16+0200</time>
      </trkpt>
      <trkpt lat="45.01705" lon="6.461">
        <ele>1674.4</ele>
        <time>2022-07-16T08:13:18+0200</time>
      </trkpt>
      <trkpt lat="45.0171" lon="6.46094">
        <ele>1675</ele>
        <time>2022-07-16T08:13:20+0200</time>
      </trkpt>
      <trkpt lat="45.01715" lon="6.46091">
        <ele>1675.4</ele>
        <time>2022-07-16T08:13:22+0200</time>
      </trkpt>
      <trkpt lat="45.0172" lon="6.4609">
        <ele>1675.8</ele>
        <time>2022-07-16T08:13:25+0200</time>
      </trkpt>
      <trkpt lat="45.01724" lon="6.46088">
        <ele>1676.2</ele>
        <time>2022-07-16T08:13:27+0200</time>
      </trkpt>
      <trkpt lat="45.01729" lon="6.46084">
        <ele>1676.7</ele>
        <time>2022-07-16T08:13:29+0200</time>
      </trkpt>
      <trkpt lat="45.01733" lon="6.46079">
        <ele>1677.3</ele>
        <time>2022-07-16T08:13:32+0200</time>
      </trkpt>
      <trkpt lat="45.01737" lon="6.46075">
        <ele>1677.8</ele>
        <time>2022-07-16T08:13:34+0200</time>
      </trkpt>
      <trkpt lat="45.01741" lon="6.46071">
        <ele>1678.3</ele>
        <time>2022-07-16T08:13:37+0200</time>
      </trkpt>
      <trkpt lat="45.01745" lon="6.46066">
        <ele>1678.7</ele>
        <time>2022-07-16T08:13:39+0200</time>
      </trkpt>
      <trkpt lat="45.0175" lon="6.46062">
        <ele>1679</ele>
        <time>2022-07-16T08:13:42+0200</time>
      </trkpt>
      <trkpt lat="45.01756" lon="6.46058">
        <ele>1679.6</ele>
        <time>2022-07-16T08:13:45+0200</time>
      </trkpt>
      <trkpt lat="45.0176" lon="6.4605">
        <ele>1679.9</ele>
        <time>2022-07-16T08:13:48+0200</time>
      </trkpt>
      <trkpt lat="45.01764" lon="6.46045">
        <ele>1680.1</ele>
        <time>2022-07-16T08:13:51+0200</time>
      </trkpt>
      <trkpt lat="45.01769" lon="6.46037">
        <ele>1680.3</ele>
        <time>2022-07-16T08:13:54+0200</time>
      </trkpt>
      <trkpt lat="45.01772" lon="6.46028">
        <ele>1680.4</ele>
        <time>2022-07-16T08:13:56+0200</time>
      </trkpt>
      <trkpt lat="45.01774" lon="6.46018">
        <ele>1680.3</ele>
        <time>2022-07-16T08:13:58+0200</time>
      </trkpt>
      <trkpt lat="45.01776" lon="6.46008">
        <ele>1680.1</ele>
        <time>2022-07-16T08:14:00+0200</time>
      </trkpt>
      <trkpt lat="45.01779" lon="6.45999">
        <ele>1680.1</ele>
        <time>2022-07-16T08:14:02+0200</time>
      </trkpt>
      <trkpt lat="45.0178" lon="6.45992">
        <ele>1680.5</ele>
        <time>2022-07-16T08:14:04+0200</time>
      </trkpt>
      <trkpt lat="45.01781" lon="6.45985">
        <ele>1680.8</ele>
        <time>2022-07-16T08:14:07+0200</time>
      </trkpt>
      <trkpt lat="45.01782" lon="6.45979">
        <ele>1681</ele>
        <time>2022-07-16T08:14:09+0200</time>
      </trkpt>
      <trkpt lat="45.01783" lon="6.4597">
        <ele>1681.3</ele>
        <time>2022-07-16T08:14:11+0200</time>
      </trkpt>
      <trkpt lat="45.01785" lon="6.45962">
        <ele>1681.6</ele>
        <time>2022-07-16T08:14:13+0200</time>
      </trkpt>
      <trkpt lat="45.01783" lon="6.45956">
        <ele>1681.8</ele>
        <time>2022-07-16T08:14:16+0200</time>
      </trkpt>
      <trkpt lat="45.01783" lon="6.45949">
        <ele>1682</ele>
        <time>2022-07-16T08:14:18+0200</time>
      </trkpt>
      <trkpt lat="45.01783" lon="6.4594">
        <ele>1682.5</ele>
        <time>2022-07-16T08:14:21+0200</time>
      </trkpt>
      <trkpt lat="45.01784" lon="6.45934">
        <ele>1683.1</ele>
        <time>2022-07-16T08:14:23+0200</time>
      </trkpt>
      <trkpt lat="45.01784" lon="6.45927">
        <ele>1683.6</ele>
        <time>2022-07-16T08:14:25+0200</time>
      </trkpt>
      <trkpt lat="45.01783" lon="6.45918">
        <ele>1684.3</ele>
        <time>2022-07-16T08:14:28+0200</time>
      </trkpt>
      <trkpt lat="45.01782" lon="6.4591">
        <ele>1684.9</ele>
        <time>2022-07-16T08:14:31+0200</time>
      </trkpt>
      <trkpt lat="45.01782" lon="6.45903">
        <ele>1685.4</ele>
        <time>2022-07-16T08:14:33+0200</time>
      </trkpt>
      <trkpt lat="45.01783" lon="6.45893">
        <ele>1686.2</ele>
        <time>2022-07-16T08:14:36+0200</time>
      </trkpt>
      <trkpt lat="45.01783" lon="6.45886">
        <ele>1686.9</ele>
        <time>2022-07-16T08:14:38+0200</time>
      </trkpt>
      <trkpt lat="45.01782" lon="6.45878">
        <ele>1687.7</ele>
        <time>2022-07-16T08:14:41+0200</time>
      </trkpt>
      <trkpt lat="45.01784" lon="6.45871">
        <ele>1688.8</ele>
        <time>2022-07-16T08:14:46+0200</time>
      </trkpt>
      <trkpt lat="45.01785" lon="6.45865">
        <ele>1689.6</ele>
        <time>2022-07-16T08:14:49+0200</time>
      </trkpt>
      <trkpt lat="45.01789" lon="6.45862">
        <ele>1690.5</ele>
        <time>2022-07-16T08:14:52+0200</time>
      </trkpt>
      <trkpt lat="45.01793" lon="6.45855">
        <ele>1691.3</ele>
        <time>2022-07-16T08:14:56+0200</time>
      </trkpt>
      <trkpt lat="45.01796" lon="6.45849">
        <ele>1691.8</ele>
        <time>2022-07-16T08:14:58+0200</time>
      </trkpt>
      <trkpt lat="45.01798" lon="6.45843">
        <ele>1692.1</ele>
        <time>2022-07-16T08:15:00+0200</time>
      </trkpt>
      <trkpt lat="45.01798" lon="6.45836">
        <ele>1692.2</ele>
        <time>2022-07-16T08:15:02+0200</time>
      </trkpt>
      <trkpt lat="45.01801" lon="6.45828">
        <ele>1692.1</ele>
        <time>2022-07-16T08:15:05+0200</time>
      </trkpt>
      <trkpt lat="45.01805" lon="6.45824">
        <ele>1692.3</ele>
        <time>2022-07-16T08:15:07+0200</time>
      </trkpt>
      <trkpt lat="45.01812" lon="6.45821">
        <ele>1693.3</ele>
        <time>2022-07-16T08:15:10+0200</time>
      </trkpt>
      <trkpt lat="45.01816" lon="6.45817">
        <ele>1693.7</ele>
        <time>2022-07-16T08:15:13+0200</time>
      </trkpt>
      <trkpt lat="45.0182" lon="6.45811">
        <ele>1693.9</ele>
        <time>2022-07-16T08:15:15+0200</time>
      </trkpt>
      <trkpt lat="45.01824" lon="6.45806">
        <ele>1694.4</ele>
        <time>2022-07-16T08:15:17+0200</time>
      </trkpt>
      <trkpt lat="45.0183" lon="6.458">
        <ele>1694.5</ele>
        <time>2022-07-16T08:15:19+0200</time>
      </trkpt>
      <trkpt lat="45.01835" lon="6.45793">
        <ele>1694.3</ele>
        <time>2022-07-16T08:15:21+0200</time>
      </trkpt>
      <trkpt lat="45.01838" lon="6.45788">
        <ele>1693.9</ele>
        <time>2022-07-16T08:15:22+0200</time>
      </trkpt>
      <trkpt lat="45.0184" lon="6.45782">
        <ele>1693.3</ele>
        <time>2022-07-16T08:15:23+0200</time>
      </trkpt>
      <trkpt lat="45.01843" lon="6.45777">
        <ele>1693</ele>
        <time>2022-07-16T08:15:24+0200</time>
      </trkpt>
      <trkpt lat="45.01848" lon="6.4577">
        <ele>1693.3</ele>
        <time>2022-07-16T08:15:26+0200</time>
      </trkpt>
      <trkpt lat="45.01853" lon="6.45763">
        <ele>1693.6</ele>
        <time>2022-07-16T08:15:28+0200</time>
      </trkpt>
      <trkpt lat="45.01857" lon="6.45753">
        <ele>1693.7</ele>
        <time>2022-07-16T08:15:30+0200</time>
      </trkpt>
      <trkpt lat="45.01861" lon="6.45744">
        <ele>1694</ele>
        <time>2022-07-16T08:15:32+0200</time>
      </trkpt>
      <trkpt lat="45.01865" lon="6.45738">
        <ele>1694</ele>
        <time>2022-07-16T08:15:34+0200</time>
      </trkpt>
      <trkpt lat="45.01869" lon="6.45732">
        <ele>1694</ele>
        <time>2022-07-16T08:15:36+0200</time>
      </trkpt>
      <trkpt lat="45.01872" lon="6.45725">
        <ele>1694</ele>
        <time>2022-07-16T08:15:38+0200</time>
      </trkpt>
      <trkpt lat="45.01875" lon="6.4572">
        <ele>1694</ele>
        <time>2022-07-16T08:15:40+0200</time>
      </trkpt>
      <trkpt lat="45.01878" lon="6.45714">
        <ele>1694</ele>
        <time>2022-07-16T08:15:42+0200</time>
      </trkpt>
      <trkpt lat="45.01883" lon="6.45711">
        <ele>1694</ele>
        <time>2022-07-16T08:15:44+0200</time>
      </trkpt>
      <trkpt lat="45.01888" lon="6.45705">
        <ele>1694</ele>
        <time>2022-07-16T08:15:46+0200</time>
      </trkpt>
      <trkpt lat="45.01891" lon="6.457">
        <ele>1694</ele>
        <time>2022-07-16T08:15:49+0200</time>
      </trkpt>
      <trkpt lat="45.01896" lon="6.45697">
        <ele>1694</ele>
        <time>2022-07-16T08:16:13+0200</time>
      </trkpt>
      <trkpt lat="45.01902" lon="6.45692">
        <ele>1694.1</ele>
        <time>2022-07-16T08:16:15+0200</time>
      </trkpt>
      <trkpt lat="45.01908" lon="6.45686">
        <ele>1694.2</ele>
        <time>2022-07-16T08:16:17+0200</time>
      </trkpt>
      <trkpt lat="45.01914" lon="6.45679">
        <ele>1694.1</ele>
        <time>2022-07-16T08:16:19+0200</time>
      </trkpt>
      <trkpt lat="45.01918" lon="6.45675">
        <ele>1694</ele>
        <time>2022-07-16T08:16:20+0200</time>
      </trkpt>
      <trkpt lat="45.01925" lon="6.45667">
        <ele>1693.7</ele>
        <time>2022-07-16T08:16:22+0200</time>
      </trkpt>
      <trkpt lat="45.01928" lon="6.45661">
        <ele>1693.3</ele>
        <time>2022-07-16T08:16:23+0200</time>
      </trkpt>
      <trkpt lat="45.01932" lon="6.45657">
        <ele>1692.9</ele>
        <time>2022-07-16T08:16:24+0200</time>
      </trkpt>
      <trkpt lat="45.01935" lon="6.45651">
        <ele>1692.4</ele>
        <time>2022-07-16T08:16:25+0200</time>
      </trkpt>
      <trkpt lat="45.01939" lon="6.45646">
        <ele>1691.8</ele>
        <time>2022-07-16T08:16:26+0200</time>
      </trkpt>
      <trkpt lat="45.01944" lon="6.45642">
        <ele>1691.2</ele>
        <time>2022-07-16T08:16:27+0200</time>
      </trkpt>
      <trkpt lat="45.01948" lon="6.45638">
        <ele>1691.1</ele>
        <time>2022-07-16T08:16:28+0200</time>
      </trkpt>
      <trkpt lat="45.01952" lon="6.45632">
        <ele>1691</ele>
        <time>2022-07-16T08:16:29+0200</time>
      </trkpt>
      <trkpt lat="45.01956" lon="6.45625">
        <ele>1690.7</ele>
        <time>2022-07-16T08:16:30+0200</time>
      </trkpt>
      <trkpt lat="45.01961" lon="6.45619">
        <ele>1690.4</ele>
        <time>2022-07-16T08:16:31+0200</time>
      </trkpt>
      <trkpt lat="45.01966" lon="6.45614">
        <ele>1690.2</ele>
        <time>2022-07-16T08:16:32+0200</time>
      </trkpt>
      <trkpt lat="45.01972" lon="6.45609">
        <ele>1689.9</ele>
        <time>2022-07-16T08:16:33+0200</time>
      </trkpt>
      <trkpt lat="45.01976" lon="6.45602">
        <ele>1690</ele>
        <time>2022-07-16T08:16:34+0200</time>
      </trkpt>
      <trkpt lat="45.0198" lon="6.45594">
        <ele>1689.9</ele>
        <time>2022-07-16T08:16:35+0200</time>
      </trkpt>
      <trkpt lat="45.01986" lon="6.45592">
        <ele>1690.1</ele>
        <time>2022-07-16T08:16:36+0200</time>
      </trkpt>
      <trkpt lat="45.01993" lon="6.45593">
        <ele>1690.6</ele>
        <time>2022-07-16T08:16:37+0200</time>
      </trkpt>
      <trkpt lat="45.01998" lon="6.45591">
        <ele>1690.7</ele>
        <time>2022-07-16T08:16:38+0200</time>
      </trkpt>
      <trkpt lat="45.02002" lon="6.45587">
        <ele>1690.8</ele>
        <time>2022-07-16T08:16:39+0200</time>
      </trkpt>
      <trkpt lat="45.02007" lon="6.45584">
        <ele>1691</ele>
        <time>2022-07-16T08:16:40+0200</time>
      </trkpt>
      <trkpt lat="45.02012" lon="6.4558">
        <ele>1691.4</ele>
        <time>2022-07-16T08:16:41+0200</time>
      </trkpt>
      <trkpt lat="45.02021" lon="6.45574">
        <ele>1692</ele>
        <time>2022-07-16T08:16:43+0200</time>
      </trkpt>
      <trkpt lat="45.02024" lon="6.45569">
        <ele>1692</ele>
        <time>2022-07-16T08:16:44+0200</time>
      </trkpt>
      <trkpt lat="45.02029" lon="6.45563">
        <ele>1692</ele>
        <time>2022-07-16T08:16:46+0200</time>
      </trkpt>
      <trkpt lat="45.02033" lon="6.45559">
        <ele>1692.7</ele>
        <time>2022-07-16T08:16:47+0200</time>
      </trkpt>
      <trkpt lat="45.0204" lon="6.45554">
        <ele>1693.9</ele>
        <time>2022-07-16T08:16:49+0200</time>
      </trkpt>
      <trkpt lat="45.02046" lon="6.45546">
        <ele>1694.3</ele>
        <time>2022-07-16T08:16:51+0200</time>
      </trkpt>
      <trkpt lat="45.02053" lon="6.45539">
        <ele>1694.5</ele>
        <time>2022-07-16T08:16:53+0200</time>
      </trkpt>
      <trkpt lat="45.02058" lon="6.45534">
        <ele>1694.9</ele>
        <time>2022-07-16T08:16:55+0200</time>
      </trkpt>
      <trkpt lat="45.02063" lon="6.45528">
        <ele>1695.7</ele>
        <time>2022-07-16T08:16:57+0200</time>
      </trkpt>
      <trkpt lat="45.02068" lon="6.45524">
        <ele>1696.8</ele>
        <time>2022-07-16T08:16:59+0200</time>
      </trkpt>
      <trkpt lat="45.02073" lon="6.45517">
        <ele>1697.2</ele>
        <time>2022-07-16T08:17:01+0200</time>
      </trkpt>
      <trkpt lat="45.02077" lon="6.4551">
        <ele>1697.5</ele>
        <time>2022-07-16T08:17:03+0200</time>
      </trkpt>
      <trkpt lat="45.02081" lon="6.45503">
        <ele>1697.2</ele>
        <time>2022-07-16T08:17:05+0200</time>
      </trkpt>
      <trkpt lat="45.02086" lon="6.45498">
        <ele>1697.6</ele>
        <time>2022-07-16T08:17:07+0200</time>
      </trkpt>
      <trkpt lat="45.02092" lon="6.45491">
        <ele>1698</ele>
        <time>2022-07-16T08:17:09+0200</time>
      </trkpt>
      <trkpt lat="45.02097" lon="6.45485">
        <ele>1698.1</ele>
        <time>2022-07-16T08:17:11+0200</time>
      </trkpt>
      <trkpt lat="45.02102" lon="6.45477">
        <ele>1697.3</ele>
        <time>2022-07-16T08:17:13+0200</time>
      </trkpt>
      <trkpt lat="45.02108" lon="6.45471">
        <ele>1697</ele>
        <time>2022-07-16T08:17:15+0200</time>
      </trkpt>
      <trkpt lat="45.02115" lon="6.45467">
        <ele>1698.2</ele>
        <time>2022-07-16T08:17:17+0200</time>
      </trkpt>
      <trkpt lat="45.02121" lon="6.45464">
        <ele>1699</ele>
        <time>2022-07-16T08:17:19+0200</time>
      </trkpt>
      <trkpt lat="45.02128" lon="6.45461">
        <ele>1699.8</ele>
        <time>2022-07-16T08:17:21+0200</time>
      </trkpt>
      <trkpt lat="45.02133" lon="6.45457">
        <ele>1699.8</ele>
        <time>2022-07-16T08:17:23+0200</time>
      </trkpt>
      <trkpt lat="45.0214" lon="6.45453">
        <ele>1699.8</ele>
        <time>2022-07-16T08:17:25+0200</time>
      </trkpt>
      <trkpt lat="45.02146" lon="6.45447">
        <ele>1699.4</ele>
        <time>2022-07-16T08:17:27+0200</time>
      </trkpt>
      <trkpt lat="45.0215" lon="6.45444">
        <ele>1699.3</ele>
        <time>2022-07-16T08:17:28+0200</time>
      </trkpt>
      <trkpt lat="45.02154" lon="6.4544">
        <ele>1699.5</ele>
        <time>2022-07-16T08:17:29+0200</time>
      </trkpt>
      <trkpt lat="45.02161" lon="6.45435">
        <ele>1699.8</ele>
        <time>2022-07-16T08:17:31+0200</time>
      </trkpt>
      <trkpt lat="45.02168" lon="6.45431">
        <ele>1700.3</ele>
        <time>2022-07-16T08:17:33+0200</time>
      </trkpt>
      <trkpt lat="45.02176" lon="6.45428">
        <ele>1700.4</ele>
        <time>2022-07-16T08:17:35+0200</time>
      </trkpt>
      <trkpt lat="45.02184" lon="6.45428">
        <ele>1701.2</ele>
        <time>2022-07-16T08:17:37+0200</time>
      </trkpt>
      <trkpt lat="45.02189" lon="6.45426">
        <ele>1701.3</ele>
        <time>2022-07-16T08:17:39+0200</time>
      </trkpt>
      <trkpt lat="45.02194" lon="6.45423">
        <ele>1701.4</ele>
        <time>2022-07-16T08:17:41+0200</time>
      </trkpt>
      <trkpt lat="45.022" lon="6.45424">
        <ele>1702</ele>
        <time>2022-07-16T08:17:44+0200</time>
      </trkpt>
      <trkpt lat="45.02205" lon="6.45422">
        <ele>1702</ele>
        <time>2022-07-16T08:17:46+0200</time>
      </trkpt>
      <trkpt lat="45.02209" lon="6.45417">
        <ele>1701.7</ele>
        <time>2022-07-16T08:17:48+0200</time>
      </trkpt>
      <trkpt lat="45.02215" lon="6.45413">
        <ele>1701.8</ele>
        <time>2022-07-16T08:17:50+0200</time>
      </trkpt>
      <trkpt lat="45.02221" lon="6.4541">
        <ele>1702</ele>
        <time>2022-07-16T08:17:52+0200</time>
      </trkpt>
      <trkpt lat="45.02226" lon="6.45408">
        <ele>1702.1</ele>
        <time>2022-07-16T08:17:54+0200</time>
      </trkpt>
      <trkpt lat="45.02232" lon="6.45406">
        <ele>1702.3</ele>
        <time>2022-07-16T08:17:56+0200</time>
      </trkpt>
      <trkpt lat="45.02238" lon="6.45402">
        <ele>1702.4</ele>
        <time>2022-07-16T08:17:58+0200</time>
      </trkpt>
      <trkpt lat="45.02245" lon="6.45399">
        <ele>1702.6</ele>
        <time>2022-07-16T08:18:00+0200</time>
      </trkpt>
      <trkpt lat="45.02253" lon="6.45396">
        <ele>1703.1</ele>
        <time>2022-07-16T08:18:02+0200</time>
      </trkpt>
      <trkpt lat="45.02258" lon="6.45392">
        <ele>1703.4</ele>
        <time>2022-07-16T08:18:04+0200</time>
      </trkpt>
      <trkpt lat="45.02263" lon="6.4539">
        <ele>1703.9</ele>
        <time>2022-07-16T08:18:06+0200</time>
      </trkpt>
      <trkpt lat="45.02267" lon="6.45384">
        <ele>1704</ele>
        <time>2022-07-16T08:18:08+0200</time>
      </trkpt>
      <trkpt lat="45.02271" lon="6.45376">
        <ele>1703.8</ele>
        <time>2022-07-16T08:18:10+0200</time>
      </trkpt>
      <trkpt lat="45.02276" lon="6.45372">
        <ele>1703.8</ele>
        <time>2022-07-16T08:18:12+0200</time>
      </trkpt>
      <trkpt lat="45.0228" lon="6.45367">
        <ele>1703.9</ele>
        <time>2022-07-16T08:18:14+0200</time>
      </trkpt>
      <trkpt lat="45.02284" lon="6.45361">
        <ele>1704.1</ele>
        <time>2022-07-16T08:18:16+0200</time>
      </trkpt>
      <trkpt lat="45.02288" lon="6.45352">
        <ele>1704.5</ele>
        <time>2022-07-16T08:18:19+0200</time>
      </trkpt>
      <trkpt lat="45.02291" lon="6.45342">
        <ele>1704.7</ele>
        <time>2022-07-16T08:18:22+0200</time>
      </trkpt>
      <trkpt lat="45.02294" lon="6.45333">
        <ele>1704.9</ele>
        <time>2022-07-16T08:18:24+0200</time>
      </trkpt>
      <trkpt lat="45.02297" lon="6.45326">
        <ele>1705.4</ele>
        <time>2022-07-16T08:18:26+0200</time>
      </trkpt>
      <trkpt lat="45.02299" lon="6.45318">
        <ele>1705.8</ele>
        <time>2022-07-16T08:18:29+0200</time>
      </trkpt>
      <trkpt lat="45.02302" lon="6.45311">
        <ele>1706.3</ele>
        <time>2022-07-16T08:18:32+0200</time>
      </trkpt>
      <trkpt lat="45.02304" lon="6.45305">
        <ele>1706.8</ele>
        <time>2022-07-16T08:18:34+0200</time>
      </trkpt>
      <trkpt lat="45.02307" lon="6.45299">
        <ele>1707.5</ele>
        <time>2022-07-16T08:18:36+0200</time>
      </trkpt>
      <trkpt lat="45.02309" lon="6.45292">
        <ele>1708.1</ele>
        <time>2022-07-16T08:18:38+0200</time>
      </trkpt>
      <trkpt lat="45.02312" lon="6.45287">
        <ele>1708.9</ele>
        <time>2022-07-16T08:18:41+0200</time>
      </trkpt>
      <trkpt lat="45.02315" lon="6.4528">
        <ele>1709.6</ele>
        <time>2022-07-16T08:18:44+0200</time>
      </trkpt>
      <trkpt lat="45.02318" lon="6.45272">
        <ele>1710.4</ele>
        <time>2022-07-16T08:18:47+0200</time>
      </trkpt>
      <trkpt lat="45.02321" lon="6.45265">
        <ele>1711.1</ele>
        <time>2022-07-16T08:18:51+0200</time>
      </trkpt>
      <trkpt lat="45.02323" lon="6.45259">
        <ele>1711.9</ele>
        <time>2022-07-16T08:18:54+0200</time>
      </trkpt>
      <trkpt lat="45.02326" lon="6.45251">
        <ele>1712.6</ele>
        <time>2022-07-16T08:18:57+0200</time>
      </trkpt>
      <trkpt lat="45.02329" lon="6.45244">
        <ele>1713.2</ele>
        <time>2022-07-16T08:19:00+0200</time>
      </trkpt>
      <trkpt lat="45.02333" lon="6.45237">
        <ele>1713.9</ele>
        <time>2022-07-16T08:19:03+0200</time>
      </trkpt>
      <trkpt lat="45.02336" lon="6.45231">
        <ele>1714.6</ele>
        <time>2022-07-16T08:19:07+0200</time>
      </trkpt>
      <trkpt lat="45.0234" lon="6.45227">
        <ele>1715.3</ele>
        <time>2022-07-16T08:19:09+0200</time>
      </trkpt>
      <trkpt lat="45.02343" lon="6.45221">
        <ele>1716.1</ele>
        <time>2022-07-16T08:19:12+0200</time>
      </trkpt>
      <trkpt lat="45.02345" lon="6.45212">
        <ele>1716.5</ele>
        <time>2022-07-16T08:19:15+0200</time>
      </trkpt>
      <trkpt lat="45.02346" lon="6.45206">
        <ele>1716.8</ele>
        <time>2022-07-16T08:19:17+0200</time>
      </trkpt>
      <trkpt lat="45.02348" lon="6.45198">
        <ele>1717.1</ele>
        <time>2022-07-16T08:19:21+0200</time>
      </trkpt>
      <trkpt lat="45.0235" lon="6.45193">
        <ele>1717.7</ele>
        <time>2022-07-16T08:19:23+0200</time>
      </trkpt>
      <trkpt lat="45.02352" lon="6.45185">
        <ele>1718.3</ele>
        <time>2022-07-16T08:19:26+0200</time>
      </trkpt>
      <trkpt lat="45.02355" lon="6.45179">
        <ele>1719.1</ele>
        <time>2022-07-16T08:19:29+0200</time>
      </trkpt>
      <trkpt lat="45.02357" lon="6.45171">
        <ele>1719.9</ele>
        <time>2022-07-16T08:19:32+0200</time>
      </trkpt>
      <trkpt lat="45.02361" lon="6.45165">
        <ele>1720.9</ele>
        <time>2022-07-16T08:19:35+0200</time>
      </trkpt>
      <trkpt lat="45.02362" lon="6.45158">
        <ele>1720.9</ele>
        <time>2022-07-16T08:19:37+0200</time>
      </trkpt>
      <trkpt lat="45.02366" lon="6.45151">
        <ele>1721.4</ele>
        <time>2022-07-16T08:19:40+0200</time>
      </trkpt>
      <trkpt lat="45.02369" lon="6.45145">
        <ele>1721.7</ele>
        <time>2022-07-16T08:19:44+0200</time>
      </trkpt>
      <trkpt lat="45.02372" lon="6.45136">
        <ele>1722</ele>
        <time>2022-07-16T08:19:48+0200</time>
      </trkpt>
      <trkpt lat="45.02373" lon="6.45129">
        <ele>1722.5</ele>
        <time>2022-07-16T08:19:50+0200</time>
      </trkpt>
      <trkpt lat="45.02376" lon="6.45121">
        <ele>1723.3</ele>
        <time>2022-07-16T08:19:53+0200</time>
      </trkpt>
      <trkpt lat="45.02378" lon="6.45116">
        <ele>1723.9</ele>
        <time>2022-07-16T08:19:57+0200</time>
      </trkpt>
      <trkpt lat="45.02381" lon="6.45109">
        <ele>1724.6</ele>
        <time>2022-07-16T08:20:00+0200</time>
      </trkpt>
      <trkpt lat="45.02383" lon="6.45102">
        <ele>1725.2</ele>
        <time>2022-07-16T08:20:04+0200</time>
      </trkpt>
      <trkpt lat="45.02384" lon="6.45096">
        <ele>1725.7</ele>
        <time>2022-07-16T08:20:07+0200</time>
      </trkpt>
      <trkpt lat="45.02387" lon="6.45089">
        <ele>1726.4</ele>
        <time>2022-07-16T08:20:11+0200</time>
      </trkpt>
      <trkpt lat="45.02388" lon="6.45081">
        <ele>1727</ele>
        <time>2022-07-16T08:20:14+0200</time>
      </trkpt>
      <trkpt lat="45.02389" lon="6.45075">
        <ele>1727.3</ele>
        <time>2022-07-16T08:20:16+0200</time>
      </trkpt>
      <trkpt lat="45.0239" lon="6.45067">
        <ele>1727.8</ele>
        <time>2022-07-16T08:20:18+0200</time>
      </trkpt>
      <trkpt lat="45.02392" lon="6.45059">
        <ele>1728.5</ele>
        <time>2022-07-16T08:20:21+0200</time>
      </trkpt>
      <trkpt lat="45.02393" lon="6.45053">
        <ele>1728.8</ele>
        <time>2022-07-16T08:20:25+0200</time>
      </trkpt>
      <trkpt lat="45.02395" lon="6.45045">
        <ele>1729.4</ele>
        <time>2022-07-16T08:20:29+0200</time>
      </trkpt>
      <trkpt lat="45.02396" lon="6.45036">
        <ele>1730</ele>
        <time>2022-07-16T08:20:32+0200</time>
      </trkpt>
      <trkpt lat="45.02397" lon="6.45029">
        <ele>1730.5</ele>
        <time>2022-07-16T08:20:34+0200</time>
      </trkpt>
      <trkpt lat="45.024" lon="6.45019">
        <ele>1730.9</ele>
        <time>2022-07-16T08:20:36+0200</time>
      </trkpt>
      <trkpt lat="45.02402" lon="6.45012">
        <ele>1731.4</ele>
        <time>2022-07-16T08:20:39+0200</time>
      </trkpt>
      <trkpt lat="45.02405" lon="6.45003">
        <ele>1731.8</ele>
        <time>2022-07-16T08:20:42+0200</time>
      </trkpt>
      <trkpt lat="45.02407" lon="6.44995">
        <ele>1732.4</ele>
        <time>2022-07-16T08:20:46+0200</time>
      </trkpt>
      <trkpt lat="45.02409" lon="6.44987">
        <ele>1732.9</ele>
        <time>2022-07-16T08:20:49+0200</time>
      </trkpt>
      <trkpt lat="45.02412" lon="6.4498">
        <ele>1733.7</ele>
        <time>2022-07-16T08:20:52+0200</time>
      </trkpt>
      <trkpt lat="45.02411" lon="6.44971">
        <ele>1733.9</ele>
        <time>2022-07-16T08:20:55+0200</time>
      </trkpt>
      <trkpt lat="45.02416" lon="6.44966">
        <ele>1734.9</ele>
        <time>2022-07-16T08:20:58+0200</time>
      </trkpt>
      <trkpt lat="45.02421" lon="6.44965">
        <ele>1736.1</ele>
        <time>2022-07-16T08:21:00+0200</time>
      </trkpt>
      <trkpt lat="45.02426" lon="6.44964">
        <ele>1737.2</ele>
        <time>2022-07-16T08:21:04+0200</time>
      </trkpt>
      <trkpt lat="45.02425" lon="6.44956">
        <ele>1736.9</ele>
        <time>2022-07-16T08:21:07+0200</time>
      </trkpt>
      <trkpt lat="45.02423" lon="6.44949">
        <ele>1736.5</ele>
        <time>2022-07-16T08:21:10+0200</time>
      </trkpt>
      <trkpt lat="45.02425" lon="6.44942">
        <ele>1736.6</ele>
        <time>2022-07-16T08:21:12+0200</time>
      </trkpt>
      <trkpt lat="45.02428" lon="6.44936">
        <ele>1737.1</ele>
        <time>2022-07-16T08:21:14+0200</time>
      </trkpt>
      <trkpt lat="45.0243" lon="6.44928">
        <ele>1737.3</ele>
        <time>2022-07-16T08:21:17+0200</time>
      </trkpt>
      <trkpt lat="45.02432" lon="6.44921">
        <ele>1737.4</ele>
        <time>2022-07-16T08:21:19+0200</time>
      </trkpt>
      <trkpt lat="45.02435" lon="6.44913">
        <ele>1737.6</ele>
        <time>2022-07-16T08:21:22+0200</time>
      </trkpt>
      <trkpt lat="45.02438" lon="6.44906">
        <ele>1737.9</ele>
        <time>2022-07-16T08:21:24+0200</time>
      </trkpt>
      <trkpt lat="45.0244" lon="6.44899">
        <ele>1738.1</ele>
        <time>2022-07-16T08:21:26+0200</time>
      </trkpt>
      <trkpt lat="45.02443" lon="6.44894">
        <ele>1738.7</ele>
        <time>2022-07-16T08:21:28+0200</time>
      </trkpt>
      <trkpt lat="45.02446" lon="6.44889">
        <ele>1739.3</ele>
        <time>2022-07-16T08:21:30+0200</time>
      </trkpt>
      <trkpt lat="45.02449" lon="6.44884">
        <ele>1739.6</ele>
        <time>2022-07-16T08:21:33+0200</time>
      </trkpt>
      <trkpt lat="45.02453" lon="6.44879">
        <ele>1740.4</ele>
        <time>2022-07-16T08:21:36+0200</time>
      </trkpt>
      <trkpt lat="45.02456" lon="6.44872">
        <ele>1740.6</ele>
        <time>2022-07-16T08:21:40+0200</time>
      </trkpt>
      <trkpt lat="45.0246" lon="6.44865">
        <ele>1741.1</ele>
        <time>2022-07-16T08:21:43+0200</time>
      </trkpt>
      <trkpt lat="45.02463" lon="6.4486">
        <ele>1741.7</ele>
        <time>2022-07-16T08:21:46+0200</time>
      </trkpt>
      <trkpt lat="45.02467" lon="6.44855">
        <ele>1742.5</ele>
        <time>2022-07-16T08:21:48+0200</time>
      </trkpt>
      <trkpt lat="45.0247" lon="6.44849">
        <ele>1743.2</ele>
        <time>2022-07-16T08:21:50+0200</time>
      </trkpt>
      <trkpt lat="45.02474" lon="6.44844">
        <ele>1744.3</ele>
        <time>2022-07-16T08:21:53+0200</time>
      </trkpt>
      <trkpt lat="45.02477" lon="6.44838">
        <ele>1744.9</ele>
        <time>2022-07-16T08:21:56+0200</time>
      </trkpt>
      <trkpt lat="45.02481" lon="6.44833">
        <ele>1745.9</ele>
        <time>2022-07-16T08:21:59+0200</time>
      </trkpt>
      <trkpt lat="45.02485" lon="6.44829">
        <ele>1746.4</ele>
        <time>2022-07-16T08:22:02+0200</time>
      </trkpt>
      <trkpt lat="45.02488" lon="6.44823">
        <ele>1746.5</ele>
        <time>2022-07-16T08:22:05+0200</time>
      </trkpt>
      <trkpt lat="45.02493" lon="6.44819">
        <ele>1747.3</ele>
        <time>2022-07-16T08:22:08+0200</time>
      </trkpt>
      <trkpt lat="45.02498" lon="6.44815">
        <ele>1748.1</ele>
        <time>2022-07-16T08:22:11+0200</time>
      </trkpt>
      <trkpt lat="45.02504" lon="6.44811">
        <ele>1749</ele>
        <time>2022-07-16T08:22:14+0200</time>
      </trkpt>
      <trkpt lat="45.02508" lon="6.44805">
        <ele>1749.5</ele>
        <time>2022-07-16T08:22:17+0200</time>
      </trkpt>
      <trkpt lat="45.02513" lon="6.44799">
        <ele>1749.9</ele>
        <time>2022-07-16T08:22:20+0200</time>
      </trkpt>
      <trkpt lat="45.02517" lon="6.44795">
        <ele>1750.3</ele>
        <time>2022-07-16T08:22:23+0200</time>
      </trkpt>
      <trkpt lat="45.02522" lon="6.44789">
        <ele>1750.7</ele>
        <time>2022-07-16T08:22:26+0200</time>
      </trkpt>
      <trkpt lat="45.02525" lon="6.44783">
        <ele>1750.9</ele>
        <time>2022-07-16T08:22:28+0200</time>
      </trkpt>
      <trkpt lat="45.02529" lon="6.44778">
        <ele>1751.3</ele>
        <time>2022-07-16T08:22:31+0200</time>
      </trkpt>
      <trkpt lat="45.02533" lon="6.44773">
        <ele>1751.6</ele>
        <time>2022-07-16T08:22:33+0200</time>
      </trkpt>
      <trkpt lat="45.02537" lon="6.44768">
        <ele>1752</ele>
        <time>2022-07-16T08:22:35+0200</time>
      </trkpt>
      <trkpt lat="45.02542" lon="6.44762">
        <ele>1752.5</ele>
        <time>2022-07-16T08:22:37+0200</time>
      </trkpt>
      <trkpt lat="45.02547" lon="6.44759">
        <ele>1753</ele>
        <time>2022-07-16T08:22:40+0200</time>
      </trkpt>
      <trkpt lat="45.02552" lon="6.44756">
        <ele>1753.7</ele>
        <time>2022-07-16T08:22:43+0200</time>
      </trkpt>
      <trkpt lat="45.02556" lon="6.44751">
        <ele>1754.1</ele>
        <time>2022-07-16T08:22:45+0200</time>
      </trkpt>
      <trkpt lat="45.02561" lon="6.44744">
        <ele>1754.5</ele>
        <time>2022-07-16T08:22:48+0200</time>
      </trkpt>
      <trkpt lat="45.02564" lon="6.4474">
        <ele>1754.8</ele>
        <time>2022-07-16T08:22:50+0200</time>
      </trkpt>
      <trkpt lat="45.02568" lon="6.44734">
        <ele>1755.1</ele>
        <time>2022-07-16T08:22:52+0200</time>
      </trkpt>
      <trkpt lat="45.02572" lon="6.44729">
        <ele>1755.4</ele>
        <time>2022-07-16T08:22:54+0200</time>
      </trkpt>
      <trkpt lat="45.02578" lon="6.44722">
        <ele>1755.9</ele>
        <time>2022-07-16T08:22:57+0200</time>
      </trkpt>
      <trkpt lat="45.02582" lon="6.44714">
        <ele>1755.8</ele>
        <time>2022-07-16T08:22:59+0200</time>
      </trkpt>
      <trkpt lat="45.02587" lon="6.44707">
        <ele>1755.9</ele>
        <time>2022-07-16T08:23:01+0200</time>
      </trkpt>
      <trkpt lat="45.02591" lon="6.447">
        <ele>1755.9</ele>
        <time>2022-07-16T08:23:03+0200</time>
      </trkpt>
      <trkpt lat="45.02595" lon="6.44693">
        <ele>1756</ele>
        <time>2022-07-16T08:23:05+0200</time>
      </trkpt>
      <trkpt lat="45.026" lon="6.44686">
        <ele>1756.3</ele>
        <time>2022-07-16T08:23:07+0200</time>
      </trkpt>
      <trkpt lat="45.02604" lon="6.4468">
        <ele>1756.7</ele>
        <time>2022-07-16T08:23:09+0200</time>
      </trkpt>
      <trkpt lat="45.02608" lon="6.44674">
        <ele>1757.1</ele>
        <time>2022-07-16T08:23:11+0200</time>
      </trkpt>
      <trkpt lat="45.02613" lon="6.44667">
        <ele>1757.2</ele>
        <time>2022-07-16T08:23:13+0200</time>
      </trkpt>
      <trkpt lat="45.02617" lon="6.44661">
        <ele>1757.3</ele>
        <time>2022-07-16T08:23:15+0200</time>
      </trkpt>
      <trkpt lat="45.02622" lon="6.44656">
        <ele>1757.5</ele>
        <time>2022-07-16T08:23:17+0200</time>
      </trkpt>
      <trkpt lat="45.02626" lon="6.44651">
        <ele>1757.8</ele>
        <time>2022-07-16T08:23:19+0200</time>
      </trkpt>
      <trkpt lat="45.02631" lon="6.44646">
        <ele>1758.2</ele>
        <time>2022-07-16T08:23:21+0200</time>
      </trkpt>
      <trkpt lat="45.02635" lon="6.44638">
        <ele>1758.4</ele>
        <time>2022-07-16T08:23:23+0200</time>
      </trkpt>
      <trkpt lat="45.0264" lon="6.44632">
        <ele>1758.6</ele>
        <time>2022-07-16T08:23:25+0200</time>
      </trkpt>
      <trkpt lat="45.02644" lon="6.44625">
        <ele>1758.6</ele>
        <time>2022-07-16T08:23:27+0200</time>
      </trkpt>
      <trkpt lat="45.02648" lon="6.44618">
        <ele>1758.7</ele>
        <time>2022-07-16T08:23:29+0200</time>
      </trkpt>
      <trkpt lat="45.02652" lon="6.4461">
        <ele>1758.8</ele>
        <time>2022-07-16T08:23:31+0200</time>
      </trkpt>
      <trkpt lat="45.02655" lon="6.44602">
        <ele>1759.1</ele>
        <time>2022-07-16T08:23:33+0200</time>
      </trkpt>
      <trkpt lat="45.02658" lon="6.44594">
        <ele>1759.6</ele>
        <time>2022-07-16T08:23:35+0200</time>
      </trkpt>
      <trkpt lat="45.02662" lon="6.44588">
        <ele>1760.2</ele>
        <time>2022-07-16T08:23:37+0200</time>
      </trkpt>
      <trkpt lat="45.02667" lon="6.44582">
        <ele>1761</ele>
        <time>2022-07-16T08:23:40+0200</time>
      </trkpt>
      <trkpt lat="45.02671" lon="6.44577">
        <ele>1761.2</ele>
        <time>2022-07-16T08:23:42+0200</time>
      </trkpt>
      <trkpt lat="45.02675" lon="6.44572">
        <ele>1761.5</ele>
        <time>2022-07-16T08:23:44+0200</time>
      </trkpt>
      <trkpt lat="45.02681" lon="6.44566">
        <ele>1762.1</ele>
        <time>2022-07-16T08:23:47+0200</time>
      </trkpt>
      <trkpt lat="45.02684" lon="6.4456">
        <ele>1762.4</ele>
        <time>2022-07-16T08:23:49+0200</time>
      </trkpt>
      <trkpt lat="45.02687" lon="6.44553">
        <ele>1762.4</ele>
        <time>2022-07-16T08:23:51+0200</time>
      </trkpt>
      <trkpt lat="45.0269" lon="6.44544">
        <ele>1762.4</ele>
        <time>2022-07-16T08:23:53+0200</time>
      </trkpt>
      <trkpt lat="45.02693" lon="6.44533">
        <ele>1762.1</ele>
        <time>2022-07-16T08:23:55+0200</time>
      </trkpt>
      <trkpt lat="45.02695" lon="6.44521">
        <ele>1762.1</ele>
        <time>2022-07-16T08:23:57+0200</time>
      </trkpt>
      <trkpt lat="45.02696" lon="6.44512">
        <ele>1762.4</ele>
        <time>2022-07-16T08:23:59+0200</time>
      </trkpt>
      <trkpt lat="45.027" lon="6.44503">
        <ele>1763</ele>
        <time>2022-07-16T08:24:01+0200</time>
      </trkpt>
      <trkpt lat="45.02704" lon="6.44496">
        <ele>1763.5</ele>
        <time>2022-07-16T08:24:03+0200</time>
      </trkpt>
      <trkpt lat="45.02707" lon="6.44488">
        <ele>1763.8</ele>
        <time>2022-07-16T08:24:05+0200</time>
      </trkpt>
      <trkpt lat="45.02709" lon="6.44482">
        <ele>1763.9</ele>
        <time>2022-07-16T08:24:06+0200</time>
      </trkpt>
      <trkpt lat="45.02713" lon="6.44475">
        <ele>1764.4</ele>
        <time>2022-07-16T08:24:08+0200</time>
      </trkpt>
      <trkpt lat="45.02714" lon="6.44468">
        <ele>1764.4</ele>
        <time>2022-07-16T08:24:10+0200</time>
      </trkpt>
      <trkpt lat="45.02718" lon="6.44462">
        <ele>1764.9</ele>
        <time>2022-07-16T08:24:12+0200</time>
      </trkpt>
      <trkpt lat="45.02721" lon="6.44456">
        <ele>1765.2</ele>
        <time>2022-07-16T08:24:14+0200</time>
      </trkpt>
      <trkpt lat="45.02724" lon="6.4445">
        <ele>1765.6</ele>
        <time>2022-07-16T08:24:16+0200</time>
      </trkpt>
      <trkpt lat="45.02729" lon="6.44445">
        <ele>1766.1</ele>
        <time>2022-07-16T08:24:19+0200</time>
      </trkpt>
      <trkpt lat="45.02731" lon="6.44439">
        <ele>1766.2</ele>
        <time>2022-07-16T08:24:21+0200</time>
      </trkpt>
      <trkpt lat="45.02733" lon="6.44428">
        <ele>1766.1</ele>
        <time>2022-07-16T08:24:23+0200</time>
      </trkpt>
      <trkpt lat="45.02738" lon="6.44418">
        <ele>1766.3</ele>
        <time>2022-07-16T08:24:25+0200</time>
      </trkpt>
      <trkpt lat="45.02741" lon="6.44412">
        <ele>1766.2</ele>
        <time>2022-07-16T08:24:26+0200</time>
      </trkpt>
      <trkpt lat="45.02743" lon="6.44406">
        <ele>1766.1</ele>
        <time>2022-07-16T08:24:27+0200</time>
      </trkpt>
      <trkpt lat="45.02746" lon="6.44397">
        <ele>1765.9</ele>
        <time>2022-07-16T08:24:29+0200</time>
      </trkpt>
      <trkpt lat="45.02751" lon="6.44393">
        <ele>1766.5</ele>
        <time>2022-07-16T08:24:31+0200</time>
      </trkpt>
      <trkpt lat="45.02754" lon="6.44387">
        <ele>1766.4</ele>
        <time>2022-07-16T08:24:33+0200</time>
      </trkpt>
      <trkpt lat="45.02759" lon="6.4438">
        <ele>1766.7</ele>
        <time>2022-07-16T08:24:36+0200</time>
      </trkpt>
      <trkpt lat="45.02766" lon="6.44377">
        <ele>1767.4</ele>
        <time>2022-07-16T08:24:38+0200</time>
      </trkpt>
      <trkpt lat="45.0277" lon="6.44374">
        <ele>1767.8</ele>
        <time>2022-07-16T08:24:40+0200</time>
      </trkpt>
      <trkpt lat="45.02773" lon="6.44368">
        <ele>1767.8</ele>
        <time>2022-07-16T08:24:42+0200</time>
      </trkpt>
      <trkpt lat="45.02779" lon="6.44361">
        <ele>1768.1</ele>
        <time>2022-07-16T08:24:45+0200</time>
      </trkpt>
      <trkpt lat="45.02781" lon="6.44353">
        <ele>1767.9</ele>
        <time>2022-07-16T08:24:48+0200</time>
      </trkpt>
      <trkpt lat="45.02784" lon="6.44344">
        <ele>1767.7</ele>
        <time>2022-07-16T08:24:50+0200</time>
      </trkpt>
      <trkpt lat="45.02787" lon="6.44338">
        <ele>1767.6</ele>
        <time>2022-07-16T08:24:51+0200</time>
      </trkpt>
      <trkpt lat="45.02791" lon="6.44334">
        <ele>1767.8</ele>
        <time>2022-07-16T08:24:52+0200</time>
      </trkpt>
      <trkpt lat="45.02795" lon="6.4433">
        <ele>1768.3</ele>
        <time>2022-07-16T08:24:53+0200</time>
      </trkpt>
      <trkpt lat="45.02799" lon="6.44325">
        <ele>1768.8</ele>
        <time>2022-07-16T08:24:55+0200</time>
      </trkpt>
      <trkpt lat="45.02804" lon="6.44319">
        <ele>1769.2</ele>
        <time>2022-07-16T08:24:57+0200</time>
      </trkpt>
      <trkpt lat="45.02808" lon="6.44312">
        <ele>1769.4</ele>
        <time>2022-07-16T08:24:59+0200</time>
      </trkpt>
      <trkpt lat="45.02809" lon="6.44306">
        <ele>1769.3</ele>
        <time>2022-07-16T08:25:00+0200</time>
      </trkpt>
      <trkpt lat="45.02816" lon="6.443">
        <ele>1769.2</ele>
        <time>2022-07-16T08:25:02+0200</time>
      </trkpt>
      <trkpt lat="45.02823" lon="6.44292">
        <ele>1769.1</ele>
        <time>2022-07-16T08:25:04+0200</time>
      </trkpt>
      <trkpt lat="45.02828" lon="6.44285">
        <ele>1769</ele>
        <time>2022-07-16T08:25:06+0200</time>
      </trkpt>
      <trkpt lat="45.02835" lon="6.44277">
        <ele>1769.1</ele>
        <time>2022-07-16T08:25:08+0200</time>
      </trkpt>
      <trkpt lat="45.02842" lon="6.44277">
        <ele>1769.9</ele>
        <time>2022-07-16T08:25:10+0200</time>
      </trkpt>
      <trkpt lat="45.02848" lon="6.44276">
        <ele>1770.2</ele>
        <time>2022-07-16T08:25:13+0200</time>
      </trkpt>
      <trkpt lat="45.02853" lon="6.44273">
        <ele>1770.3</ele>
        <time>2022-07-16T08:25:16+0200</time>
      </trkpt>
      <trkpt lat="45.0286" lon="6.44269">
        <ele>1770.7</ele>
        <time>2022-07-16T08:25:18+0200</time>
      </trkpt>
      <trkpt lat="45.02865" lon="6.44265">
        <ele>1770.7</ele>
        <time>2022-07-16T08:25:20+0200</time>
      </trkpt>
      <trkpt lat="45.02871" lon="6.4426">
        <ele>1770.6</ele>
        <time>2022-07-16T08:25:22+0200</time>
      </trkpt>
      <trkpt lat="45.02875" lon="6.44256">
        <ele>1770.7</ele>
        <time>2022-07-16T08:25:24+0200</time>
      </trkpt>
      <trkpt lat="45.02881" lon="6.44252">
        <ele>1771.1</ele>
        <time>2022-07-16T08:25:26+0200</time>
      </trkpt>
      <trkpt lat="45.02888" lon="6.44248">
        <ele>1771.8</ele>
        <time>2022-07-16T08:25:28+0200</time>
      </trkpt>
      <trkpt lat="45.02894" lon="6.44244">
        <ele>1772.1</ele>
        <time>2022-07-16T08:25:30+0200</time>
      </trkpt>
      <trkpt lat="45.02899" lon="6.44241">
        <ele>1772.5</ele>
        <time>2022-07-16T08:25:32+0200</time>
      </trkpt>
      <trkpt lat="45.02904" lon="6.44239">
        <ele>1772.9</ele>
        <time>2022-07-16T08:25:34+0200</time>
      </trkpt>
      <trkpt lat="45.02911" lon="6.44236">
        <ele>1773.3</ele>
        <time>2022-07-16T08:25:37+0200</time>
      </trkpt>
      <trkpt lat="45.02916" lon="6.44233">
        <ele>1773.7</ele>
        <time>2022-07-16T08:25:39+0200</time>
      </trkpt>
      <trkpt lat="45.0292" lon="6.44231">
        <ele>1774.1</ele>
        <time>2022-07-16T08:25:41+0200</time>
      </trkpt>
      <trkpt lat="45.02925" lon="6.44232">
        <ele>1774.6</ele>
        <time>2022-07-16T08:25:43+0200</time>
      </trkpt>
      <trkpt lat="45.02931" lon="6.44226">
        <ele>1774.8</ele>
        <time>2022-07-16T08:25:45+0200</time>
      </trkpt>
      <trkpt lat="45.02935" lon="6.44222">
        <ele>1775</ele>
        <time>2022-07-16T08:25:47+0200</time>
      </trkpt>
      <trkpt lat="45.0294" lon="6.44219">
        <ele>1775.2</ele>
        <time>2022-07-16T08:25:49+0200</time>
      </trkpt>
      <trkpt lat="45.02945" lon="6.44215">
        <ele>1775.3</ele>
        <time>2022-07-16T08:25:51+0200</time>
      </trkpt>
      <trkpt lat="45.02951" lon="6.44212">
        <ele>1775.4</ele>
        <time>2022-07-16T08:25:53+0200</time>
      </trkpt>
      <trkpt lat="45.02957" lon="6.44208">
        <ele>1775.4</ele>
        <time>2022-07-16T08:25:55+0200</time>
      </trkpt>
      <trkpt lat="45.02964" lon="6.44206">
        <ele>1775.7</ele>
        <time>2022-07-16T08:25:57+0200</time>
      </trkpt>
      <trkpt lat="45.02971" lon="6.44203">
        <ele>1775.8</ele>
        <time>2022-07-16T08:25:59+0200</time>
      </trkpt>
      <trkpt lat="45.02976" lon="6.44199">
        <ele>1776.3</ele>
        <time>2022-07-16T08:26:01+0200</time>
      </trkpt>
      <trkpt lat="45.02981" lon="6.44196">
        <ele>1777.1</ele>
        <time>2022-07-16T08:26:03+0200</time>
      </trkpt>
      <trkpt lat="45.02987" lon="6.44192">
        <ele>1778</ele>
        <time>2022-07-16T08:26:05+0200</time>
      </trkpt>
      <trkpt lat="45.02992" lon="6.44188">
        <ele>1779</ele>
        <time>2022-07-16T08:26:08+0200</time>
      </trkpt>
      <trkpt lat="45.02996" lon="6.44179">
        <ele>1779.2</ele>
        <time>2022-07-16T08:26:11+0200</time>
      </trkpt>
      <trkpt lat="45.02997" lon="6.44171">
        <ele>1778.9</ele>
        <time>2022-07-16T08:26:13+0200</time>
      </trkpt>
      <trkpt lat="45.03" lon="6.44164">
        <ele>1779.1</ele>
        <time>2022-07-16T08:26:16+0200</time>
      </trkpt>
      <trkpt lat="45.03001" lon="6.44157">
        <ele>1779.3</ele>
        <time>2022-07-16T08:26:18+0200</time>
      </trkpt>
      <trkpt lat="45.03003" lon="6.44151">
        <ele>1779.9</ele>
        <time>2022-07-16T08:26:20+0200</time>
      </trkpt>
      <trkpt lat="45.03002" lon="6.44143">
        <ele>1779.2</ele>
        <time>2022-07-16T08:26:22+0200</time>
      </trkpt>
      <trkpt lat="45.03006" lon="6.44138">
        <ele>1781</ele>
        <time>2022-07-16T08:26:24+0200</time>
      </trkpt>
      <trkpt lat="45.03009" lon="6.4413">
        <ele>1782.2</ele>
        <time>2022-07-16T08:26:27+0200</time>
      </trkpt>
      <trkpt lat="45.03013" lon="6.44123">
        <ele>1783.2</ele>
        <time>2022-07-16T08:26:30+0200</time>
      </trkpt>
      <trkpt lat="45.03016" lon="6.44115">
        <ele>1784</ele>
        <time>2022-07-16T08:26:33+0200</time>
      </trkpt>
      <trkpt lat="45.03018" lon="6.44109">
        <ele>1784.1</ele>
        <time>2022-07-16T08:26:35+0200</time>
      </trkpt>
      <trkpt lat="45.03021" lon="6.44101">
        <ele>1784.5</ele>
        <time>2022-07-16T08:26:38+0200</time>
      </trkpt>
      <trkpt lat="45.03023" lon="6.44095">
        <ele>1784.4</ele>
        <time>2022-07-16T08:26:40+0200</time>
      </trkpt>
      <trkpt lat="45.03027" lon="6.44089">
        <ele>1784.6</ele>
        <time>2022-07-16T08:26:42+0200</time>
      </trkpt>
      <trkpt lat="45.03029" lon="6.44082">
        <ele>1784.5</ele>
        <time>2022-07-16T08:26:45+0200</time>
      </trkpt>
      <trkpt lat="45.03032" lon="6.44075">
        <ele>1784.9</ele>
        <time>2022-07-16T08:26:48+0200</time>
      </trkpt>
      <trkpt lat="45.03033" lon="6.44067">
        <ele>1784.6</ele>
        <time>2022-07-16T08:26:51+0200</time>
      </trkpt>
      <trkpt lat="45.03038" lon="6.44062">
        <ele>1785.5</ele>
        <time>2022-07-16T08:26:54+0200</time>
      </trkpt>
      <trkpt lat="45.03042" lon="6.44057">
        <ele>1786.4</ele>
        <time>2022-07-16T08:26:57+0200</time>
      </trkpt>
      <trkpt lat="45.03047" lon="6.44053">
        <ele>1787.4</ele>
        <time>2022-07-16T08:27:00+0200</time>
      </trkpt>
      <trkpt lat="45.03052" lon="6.44049">
        <ele>1787.9</ele>
        <time>2022-07-16T08:27:02+0200</time>
      </trkpt>
      <trkpt lat="45.03058" lon="6.44043">
        <ele>1787.7</ele>
        <time>2022-07-16T08:27:05+0200</time>
      </trkpt>
      <trkpt lat="45.03062" lon="6.4404">
        <ele>1788.3</ele>
        <time>2022-07-16T08:27:07+0200</time>
      </trkpt>
      <trkpt lat="45.03067" lon="6.44036">
        <ele>1789</ele>
        <time>2022-07-16T08:27:10+0200</time>
      </trkpt>
      <trkpt lat="45.03073" lon="6.44035">
        <ele>1790.7</ele>
        <time>2022-07-16T08:27:13+0200</time>
      </trkpt>
      <trkpt lat="45.03079" lon="6.44033">
        <ele>1792.2</ele>
        <time>2022-07-16T08:27:16+0200</time>
      </trkpt>
      <trkpt lat="45.03084" lon="6.44029">
        <ele>1792.4</ele>
        <time>2022-07-16T08:27:19+0200</time>
      </trkpt>
      <trkpt lat="45.03089" lon="6.44025">
        <ele>1793.5</ele>
        <time>2022-07-16T08:27:22+0200</time>
      </trkpt>
      <trkpt lat="45.03093" lon="6.44021">
        <ele>1793.2</ele>
        <time>2022-07-16T08:27:24+0200</time>
      </trkpt>
      <trkpt lat="45.03098" lon="6.44017">
        <ele>1794.3</ele>
        <time>2022-07-16T08:27:27+0200</time>
      </trkpt>
      <trkpt lat="45.03104" lon="6.44013">
        <ele>1795.2</ele>
        <time>2022-07-16T08:27:31+0200</time>
      </trkpt>
      <trkpt lat="45.03108" lon="6.44009">
        <ele>1795.6</ele>
        <time>2022-07-16T08:27:34+0200</time>
      </trkpt>
      <trkpt lat="45.03112" lon="6.44002">
        <ele>1795</ele>
        <time>2022-07-16T08:27:37+0200</time>
      </trkpt>
      <trkpt lat="45.03116" lon="6.43995">
        <ele>1794.5</ele>
        <time>2022-07-16T08:27:40+0200</time>
      </trkpt>
      <trkpt lat="45.03118" lon="6.43988">
        <ele>1793.6</ele>
        <time>2022-07-16T08:27:42+0200</time>
      </trkpt>
      <trkpt lat="45.0312" lon="6.43981">
        <ele>1792.6</ele>
        <time>2022-07-16T08:27:44+0200</time>
      </trkpt>
      <trkpt lat="45.03123" lon="6.43973">
        <ele>1791.6</ele>
        <time>2022-07-16T08:27:46+0200</time>
      </trkpt>
      <trkpt lat="45.03125" lon="6.43967">
        <ele>1791.9</ele>
        <time>2022-07-16T08:27:48+0200</time>
      </trkpt>
      <trkpt lat="45.03127" lon="6.43958">
        <ele>1791.4</ele>
        <time>2022-07-16T08:27:50+0200</time>
      </trkpt>
      <trkpt lat="45.03131" lon="6.43948">
        <ele>1791.6</ele>
        <time>2022-07-16T08:27:52+0200</time>
      </trkpt>
      <trkpt lat="45.03136" lon="6.4394">
        <ele>1792.2</ele>
        <time>2022-07-16T08:27:54+0200</time>
      </trkpt>
      <trkpt lat="45.03143" lon="6.43929">
        <ele>1792.1</ele>
        <time>2022-07-16T08:27:56+0200</time>
      </trkpt>
      <trkpt lat="45.03147" lon="6.43923">
        <ele>1792.3</ele>
        <time>2022-07-16T08:27:57+0200</time>
      </trkpt>
      <trkpt lat="45.03152" lon="6.43917">
        <ele>1792.6</ele>
        <time>2022-07-16T08:27:58+0200</time>
      </trkpt>
      <trkpt lat="45.03156" lon="6.43911">
        <ele>1793.1</ele>
        <time>2022-07-16T08:27:59+0200</time>
      </trkpt>
      <trkpt lat="45.0316" lon="6.43907">
        <ele>1793.2</ele>
        <time>2022-07-16T08:28:00+0200</time>
      </trkpt>
      <trkpt lat="45.03164" lon="6.43899">
        <ele>1792.5</ele>
        <time>2022-07-16T08:28:01+0200</time>
      </trkpt>
      <trkpt lat="45.03169" lon="6.43894">
        <ele>1792</ele>
        <time>2022-07-16T08:28:02+0200</time>
      </trkpt>
      <trkpt lat="45.03173" lon="6.43888">
        <ele>1791.9</ele>
        <time>2022-07-16T08:28:03+0200</time>
      </trkpt>
      <trkpt lat="45.03177" lon="6.43881">
        <ele>1792.3</ele>
        <time>2022-07-16T08:28:04+0200</time>
      </trkpt>
      <trkpt lat="45.0318" lon="6.43873">
        <ele>1792.4</ele>
        <time>2022-07-16T08:28:05+0200</time>
      </trkpt>
      <trkpt lat="45.03183" lon="6.43864">
        <ele>1792.1</ele>
        <time>2022-07-16T08:28:06+0200</time>
      </trkpt>
      <trkpt lat="45.03186" lon="6.43858">
        <ele>1792.4</ele>
        <time>2022-07-16T08:28:07+0200</time>
      </trkpt>
      <trkpt lat="45.03189" lon="6.43852">
        <ele>1792.4</ele>
        <time>2022-07-16T08:28:08+0200</time>
      </trkpt>
      <trkpt lat="45.03191" lon="6.43846">
        <ele>1792.2</ele>
        <time>2022-07-16T08:28:09+0200</time>
      </trkpt>
      <trkpt lat="45.03193" lon="6.43841">
        <ele>1791.9</ele>
        <time>2022-07-16T08:28:10+0200</time>
      </trkpt>
      <trkpt lat="45.03196" lon="6.43835">
        <ele>1791.5</ele>
        <time>2022-07-16T08:28:11+0200</time>
      </trkpt>
      <trkpt lat="45.03199" lon="6.43825">
        <ele>1791.9</ele>
        <time>2022-07-16T08:28:13+0200</time>
      </trkpt>
      <trkpt lat="45.03202" lon="6.43816">
        <ele>1792</ele>
        <time>2022-07-16T08:28:15+0200</time>
      </trkpt>
      <trkpt lat="45.03205" lon="6.43809">
        <ele>1792.3</ele>
        <time>2022-07-16T08:28:18+0200</time>
      </trkpt>
      <trkpt lat="45.03209" lon="6.43805">
        <ele>1793</ele>
        <time>2022-07-16T08:28:20+0200</time>
      </trkpt>
      <trkpt lat="45.03213" lon="6.43802">
        <ele>1793.9</ele>
        <time>2022-07-16T08:28:22+0200</time>
      </trkpt>
      <trkpt lat="45.03219" lon="6.43799">
        <ele>1795</ele>
        <time>2022-07-16T08:28:25+0200</time>
      </trkpt>
      <trkpt lat="45.03224" lon="6.43798">
        <ele>1795.6</ele>
        <time>2022-07-16T08:28:27+0200</time>
      </trkpt>
      <trkpt lat="45.0323" lon="6.43794">
        <ele>1795.3</ele>
        <time>2022-07-16T08:28:29+0200</time>
      </trkpt>
      <trkpt lat="45.03234" lon="6.43792">
        <ele>1795.1</ele>
        <time>2022-07-16T08:28:30+0200</time>
      </trkpt>
      <trkpt lat="45.0324" lon="6.43787">
        <ele>1794.9</ele>
        <time>2022-07-16T08:28:32+0200</time>
      </trkpt>
      <trkpt lat="45.03244" lon="6.43785">
        <ele>1795</ele>
        <time>2022-07-16T08:28:33+0200</time>
      </trkpt>
      <trkpt lat="45.03252" lon="6.43779">
        <ele>1795.2</ele>
        <time>2022-07-16T08:28:35+0200</time>
      </trkpt>
      <trkpt lat="45.03258" lon="6.43775">
        <ele>1795.2</ele>
        <time>2022-07-16T08:28:37+0200</time>
      </trkpt>
      <trkpt lat="45.03265" lon="6.43771">
        <ele>1795.4</ele>
        <time>2022-07-16T08:28:39+0200</time>
      </trkpt>
      <trkpt lat="45.03271" lon="6.43768">
        <ele>1795.8</ele>
        <time>2022-07-16T08:28:41+0200</time>
      </trkpt>
      <trkpt lat="45.03276" lon="6.43763">
        <ele>1796.4</ele>
        <time>2022-07-16T08:28:43+0200</time>
      </trkpt>
      <trkpt lat="45.03281" lon="6.43759">
        <ele>1797</ele>
        <time>2022-07-16T08:28:45+0200</time>
      </trkpt>
      <trkpt lat="45.03286" lon="6.43755">
        <ele>1797.4</ele>
        <time>2022-07-16T08:28:48+0200</time>
      </trkpt>
      <trkpt lat="45.0329" lon="6.43751">
        <ele>1797.5</ele>
        <time>2022-07-16T08:28:50+0200</time>
      </trkpt>
      <trkpt lat="45.03295" lon="6.43745">
        <ele>1797.7</ele>
        <time>2022-07-16T08:28:53+0200</time>
      </trkpt>
      <trkpt lat="45.03301" lon="6.43742">
        <ele>1798</ele>
        <time>2022-07-16T08:28:56+0200</time>
      </trkpt>
      <trkpt lat="45.03306" lon="6.43736">
        <ele>1798.5</ele>
        <time>2022-07-16T08:28:58+0200</time>
      </trkpt>
      <trkpt lat="45.0331" lon="6.43732">
        <ele>1798.7</ele>
        <time>2022-07-16T08:29:00+0200</time>
      </trkpt>
      <trkpt lat="45.03315" lon="6.43727">
        <ele>1798.9</ele>
        <time>2022-07-16T08:29:02+0200</time>
      </trkpt>
      <trkpt lat="45.03319" lon="6.43719">
        <ele>1798.9</ele>
        <time>2022-07-16T08:29:04+0200</time>
      </trkpt>
      <trkpt lat="45.03323" lon="6.43712">
        <ele>1798.8</ele>
        <time>2022-07-16T08:29:06+0200</time>
      </trkpt>
      <trkpt lat="45.03329" lon="6.43704">
        <ele>1799.2</ele>
        <time>2022-07-16T08:29:09+0200</time>
      </trkpt>
      <trkpt lat="45.03333" lon="6.43697">
        <ele>1799.8</ele>
        <time>2022-07-16T08:29:11+0200</time>
      </trkpt>
      <trkpt lat="45.03338" lon="6.4369">
        <ele>1800.1</ele>
        <time>2022-07-16T08:29:13+0200</time>
      </trkpt>
      <trkpt lat="45.03344" lon="6.43683">
        <ele>1800.2</ele>
        <time>2022-07-16T08:29:15+0200</time>
      </trkpt>
      <trkpt lat="45.03349" lon="6.43681">
        <ele>1800.7</ele>
        <time>2022-07-16T08:29:17+0200</time>
      </trkpt>
      <trkpt lat="45.03356" lon="6.43677">
        <ele>1801.4</ele>
        <time>2022-07-16T08:29:19+0200</time>
      </trkpt>
      <trkpt lat="45.03361" lon="6.43676">
        <ele>1802</ele>
        <time>2022-07-16T08:29:21+0200</time>
      </trkpt>
      <trkpt lat="45.03368" lon="6.43675">
        <ele>1802.1</ele>
        <time>2022-07-16T08:29:23+0200</time>
      </trkpt>
      <trkpt lat="45.03375" lon="6.43673">
        <ele>1802.3</ele>
        <time>2022-07-16T08:29:25+0200</time>
      </trkpt>
      <trkpt lat="45.0338" lon="6.43672">
        <ele>1802.4</ele>
        <time>2022-07-16T08:29:27+0200</time>
      </trkpt>
      <trkpt lat="45.03387" lon="6.43669">
        <ele>1802.8</ele>
        <time>2022-07-16T08:29:29+0200</time>
      </trkpt>
      <trkpt lat="45.03393" lon="6.43668">
        <ele>1803.1</ele>
        <time>2022-07-16T08:29:31+0200</time>
      </trkpt>
      <trkpt lat="45.03402" lon="6.43671">
        <ele>1803.5</ele>
        <time>2022-07-16T08:29:33+0200</time>
      </trkpt>
      <trkpt lat="45.03409" lon="6.43672">
        <ele>1803.9</ele>
        <time>2022-07-16T08:29:35+0200</time>
      </trkpt>
      <trkpt lat="45.03416" lon="6.43668">
        <ele>1804.1</ele>
        <time>2022-07-16T08:29:37+0200</time>
      </trkpt>
      <trkpt lat="45.03425" lon="6.43668">
        <ele>1805.4</ele>
        <time>2022-07-16T08:29:39+0200</time>
      </trkpt>
      <trkpt lat="45.03432" lon="6.43664">
        <ele>1805.9</ele>
        <time>2022-07-16T08:29:41+0200</time>
      </trkpt>
      <trkpt lat="45.03438" lon="6.43661">
        <ele>1806.5</ele>
        <time>2022-07-16T08:29:43+0200</time>
      </trkpt>
      <trkpt lat="45.03443" lon="6.43655">
        <ele>1806.6</ele>
        <time>2022-07-16T08:29:45+0200</time>
      </trkpt>
      <trkpt lat="45.03447" lon="6.43651">
        <ele>1806.7</ele>
        <time>2022-07-16T08:29:47+0200</time>
      </trkpt>
      <trkpt lat="45.03452" lon="6.43647">
        <ele>1806.9</ele>
        <time>2022-07-16T08:29:49+0200</time>
      </trkpt>
      <trkpt lat="45.03457" lon="6.43641">
        <ele>1806.7</ele>
        <time>2022-07-16T08:29:52+0200</time>
      </trkpt>
      <trkpt lat="45.0346" lon="6.43635">
        <ele>1806.6</ele>
        <time>2022-07-16T08:29:54+0200</time>
      </trkpt>
      <trkpt lat="45.03463" lon="6.43628">
        <ele>1806.7</ele>
        <time>2022-07-16T08:29:56+0200</time>
      </trkpt>
      <trkpt lat="45.03465" lon="6.43619">
        <ele>1806.7</ele>
        <time>2022-07-16T08:29:58+0200</time>
      </trkpt>
      <trkpt lat="45.03468" lon="6.43611">
        <ele>1806.7</ele>
        <time>2022-07-16T08:30:00+0200</time>
      </trkpt>
      <trkpt lat="45.03469" lon="6.43603">
        <ele>1807</ele>
        <time>2022-07-16T08:30:02+0200</time>
      </trkpt>
      <trkpt lat="45.03471" lon="6.43594">
        <ele>1807.5</ele>
        <time>2022-07-16T08:30:05+0200</time>
      </trkpt>
      <trkpt lat="45.03471" lon="6.43587">
        <ele>1807.8</ele>
        <time>2022-07-16T08:30:07+0200</time>
      </trkpt>
      <trkpt lat="45.03471" lon="6.43578">
        <ele>1808.5</ele>
        <time>2022-07-16T08:30:09+0200</time>
      </trkpt>
      <trkpt lat="45.03471" lon="6.43569">
        <ele>1809.3</ele>
        <time>2022-07-16T08:30:11+0200</time>
      </trkpt>
      <trkpt lat="45.03469" lon="6.43563">
        <ele>1809.8</ele>
        <time>2022-07-16T08:30:13+0200</time>
      </trkpt>
      <trkpt lat="45.03467" lon="6.43557">
        <ele>1810.1</ele>
        <time>2022-07-16T08:30:17+0200</time>
      </trkpt>
      <trkpt lat="45.03469" lon="6.4355">
        <ele>1810.7</ele>
        <time>2022-07-16T08:30:20+0200</time>
      </trkpt>
      <trkpt lat="45.03469" lon="6.4354">
        <ele>1811.1</ele>
        <time>2022-07-16T08:30:22+0200</time>
      </trkpt>
      <trkpt lat="45.03469" lon="6.4353">
        <ele>1811.5</ele>
        <time>2022-07-16T08:30:25+0200</time>
      </trkpt>
      <trkpt lat="45.03468" lon="6.43522">
        <ele>1811.5</ele>
        <time>2022-07-16T08:30:27+0200</time>
      </trkpt>
      <trkpt lat="45.03469" lon="6.43514">
        <ele>1811.5</ele>
        <time>2022-07-16T08:30:30+0200</time>
      </trkpt>
      <trkpt lat="45.03468" lon="6.43508">
        <ele>1811.5</ele>
        <time>2022-07-16T08:30:32+0200</time>
      </trkpt>
      <trkpt lat="45.03469" lon="6.43499">
        <ele>1811.6</ele>
        <time>2022-07-16T08:30:34+0200</time>
      </trkpt>
      <trkpt lat="45.0347" lon="6.43493">
        <ele>1811.8</ele>
        <time>2022-07-16T08:30:37+0200</time>
      </trkpt>
      <trkpt lat="45.03475" lon="6.43485">
        <ele>1812.3</ele>
        <time>2022-07-16T08:30:40+0200</time>
      </trkpt>
      <trkpt lat="45.03475" lon="6.43479">
        <ele>1812.4</ele>
        <time>2022-07-16T08:30:42+0200</time>
      </trkpt>
      <trkpt lat="45.03475" lon="6.43469">
        <ele>1812.4</ele>
        <time>2022-07-16T08:30:44+0200</time>
      </trkpt>
      <trkpt lat="45.03475" lon="6.43462">
        <ele>1812.7</ele>
        <time>2022-07-16T08:30:46+0200</time>
      </trkpt>
      <trkpt lat="45.03475" lon="6.43453">
        <ele>1812.9</ele>
        <time>2022-07-16T08:30:48+0200</time>
      </trkpt>
      <trkpt lat="45.03475" lon="6.43445">
        <ele>1813.2</ele>
        <time>2022-07-16T08:30:50+0200</time>
      </trkpt>
      <trkpt lat="45.03473" lon="6.43436">
        <ele>1813.4</ele>
        <time>2022-07-16T08:30:52+0200</time>
      </trkpt>
      <trkpt lat="45.03474" lon="6.43428">
        <ele>1813.7</ele>
        <time>2022-07-16T08:30:54+0200</time>
      </trkpt>
      <trkpt lat="45.03476" lon="6.43422">
        <ele>1814.1</ele>
        <time>2022-07-16T08:30:56+0200</time>
      </trkpt>
      <trkpt lat="45.03476" lon="6.43415">
        <ele>1814.3</ele>
        <time>2022-07-16T08:30:58+0200</time>
      </trkpt>
      <trkpt lat="45.03477" lon="6.43408">
        <ele>1814.4</ele>
        <time>2022-07-16T08:31:00+0200</time>
      </trkpt>
      <trkpt lat="45.03479" lon="6.43401">
        <ele>1814.6</ele>
        <time>2022-07-16T08:31:03+0200</time>
      </trkpt>
      <trkpt lat="45.03481" lon="6.43395">
        <ele>1814.9</ele>
        <time>2022-07-16T08:31:08+0200</time>
      </trkpt>
      <trkpt lat="45.0348" lon="6.43388">
        <ele>1814.9</ele>
        <time>2022-07-16T08:31:16+0200</time>
      </trkpt>
      <trkpt lat="45.03479" lon="6.43381">
        <ele>1814.9</ele>
        <time>2022-07-16T08:31:39+0200</time>
      </trkpt>
      <trkpt lat="45.03481" lon="6.43388">
        <ele>1814.9</ele>
        <time>2022-07-16T08:31:57+0200</time>
      </trkpt>
      <trkpt lat="45.03483" lon="6.43381">
        <ele>1815.3</ele>
        <time>2022-07-16T08:32:15+0200</time>
      </trkpt>
      <trkpt lat="45.03486" lon="6.43376">
        <ele>1815.7</ele>
        <time>2022-07-16T08:32:17+0200</time>
      </trkpt>
      <trkpt lat="45.03489" lon="6.43368">
        <ele>1816.1</ele>
        <time>2022-07-16T08:32:19+0200</time>
      </trkpt>
      <trkpt lat="45.03491" lon="6.43362">
        <ele>1816.4</ele>
        <time>2022-07-16T08:32:21+0200</time>
      </trkpt>
      <trkpt lat="45.03494" lon="6.43356">
        <ele>1816.6</ele>
        <time>2022-07-16T08:32:23+0200</time>
      </trkpt>
      <trkpt lat="45.03496" lon="6.43348">
        <ele>1817</ele>
        <time>2022-07-16T08:32:25+0200</time>
      </trkpt>
      <trkpt lat="45.03497" lon="6.4334">
        <ele>1817.4</ele>
        <time>2022-07-16T08:32:27+0200</time>
      </trkpt>
      <trkpt lat="45.03499" lon="6.43332">
        <ele>1817.9</ele>
        <time>2022-07-16T08:32:29+0200</time>
      </trkpt>
      <trkpt lat="45.03502" lon="6.43325">
        <ele>1817.9</ele>
        <time>2022-07-16T08:32:31+0200</time>
      </trkpt>
      <trkpt lat="45.03505" lon="6.43317">
        <ele>1817.9</ele>
        <time>2022-07-16T08:32:33+0200</time>
      </trkpt>
      <trkpt lat="45.03508" lon="6.4331">
        <ele>1817.9</ele>
        <time>2022-07-16T08:32:35+0200</time>
      </trkpt>
      <trkpt lat="45.03511" lon="6.43302">
        <ele>1817.9</ele>
        <time>2022-07-16T08:32:37+0200</time>
      </trkpt>
      <trkpt lat="45.03512" lon="6.43292">
        <ele>1817.6</ele>
        <time>2022-07-16T08:32:39+0200</time>
      </trkpt>
      <trkpt lat="45.03516" lon="6.43281">
        <ele>1817.4</ele>
        <time>2022-07-16T08:32:41+0200</time>
      </trkpt>
      <trkpt lat="45.03518" lon="6.4327">
        <ele>1817.6</ele>
        <time>2022-07-16T08:32:43+0200</time>
      </trkpt>
      <trkpt lat="45.03522" lon="6.43263">
        <ele>1818</ele>
        <time>2022-07-16T08:32:45+0200</time>
      </trkpt>
      <trkpt lat="45.03526" lon="6.43254">
        <ele>1818.6</ele>
        <time>2022-07-16T08:32:47+0200</time>
      </trkpt>
      <trkpt lat="45.03529" lon="6.43246">
        <ele>1819</ele>
        <time>2022-07-16T08:32:49+0200</time>
      </trkpt>
      <trkpt lat="45.03533" lon="6.43238">
        <ele>1819.3</ele>
        <time>2022-07-16T08:32:51+0200</time>
      </trkpt>
      <trkpt lat="45.03538" lon="6.43232">
        <ele>1819.7</ele>
        <time>2022-07-16T08:32:53+0200</time>
      </trkpt>
      <trkpt lat="45.0354" lon="6.43223">
        <ele>1819.8</ele>
        <time>2022-07-16T08:32:55+0200</time>
      </trkpt>
      <trkpt lat="45.03542" lon="6.43214">
        <ele>1819.9</ele>
        <time>2022-07-16T08:32:57+0200</time>
      </trkpt>
      <trkpt lat="45.03543" lon="6.43208">
        <ele>1820</ele>
        <time>2022-07-16T08:32:59+0200</time>
      </trkpt>
      <trkpt lat="45.03546" lon="6.43202">
        <ele>1820.4</ele>
        <time>2022-07-16T08:33:01+0200</time>
      </trkpt>
      <trkpt lat="45.03549" lon="6.43196">
        <ele>1820.8</ele>
        <time>2022-07-16T08:33:03+0200</time>
      </trkpt>
      <trkpt lat="45.03553" lon="6.43188">
        <ele>1821.4</ele>
        <time>2022-07-16T08:33:06+0200</time>
      </trkpt>
      <trkpt lat="45.03558" lon="6.43183">
        <ele>1821.9</ele>
        <time>2022-07-16T08:33:08+0200</time>
      </trkpt>
      <trkpt lat="45.03561" lon="6.43179">
        <ele>1822.2</ele>
        <time>2022-07-16T08:33:10+0200</time>
      </trkpt>
      <trkpt lat="45.03566" lon="6.43178">
        <ele>1822.9</ele>
        <time>2022-07-16T08:33:12+0200</time>
      </trkpt>
      <trkpt lat="45.03569" lon="6.4317">
        <ele>1823</ele>
        <time>2022-07-16T08:33:15+0200</time>
      </trkpt>
      <trkpt lat="45.03571" lon="6.43162">
        <ele>1823</ele>
        <time>2022-07-16T08:33:18+0200</time>
      </trkpt>
      <trkpt lat="45.03572" lon="6.43151">
        <ele>1822.7</ele>
        <time>2022-07-16T08:33:20+0200</time>
      </trkpt>
      <trkpt lat="45.03575" lon="6.43143">
        <ele>1822.9</ele>
        <time>2022-07-16T08:33:22+0200</time>
      </trkpt>
      <trkpt lat="45.03578" lon="6.43136">
        <ele>1823.2</ele>
        <time>2022-07-16T08:33:24+0200</time>
      </trkpt>
      <trkpt lat="45.03581" lon="6.43128">
        <ele>1823.6</ele>
        <time>2022-07-16T08:33:26+0200</time>
      </trkpt>
      <trkpt lat="45.03584" lon="6.4312">
        <ele>1824</ele>
        <time>2022-07-16T08:33:28+0200</time>
      </trkpt>
      <trkpt lat="45.03585" lon="6.43112">
        <ele>1824.3</ele>
        <time>2022-07-16T08:33:30+0200</time>
      </trkpt>
      <trkpt lat="45.0359" lon="6.43104">
        <ele>1824.5</ele>
        <time>2022-07-16T08:33:32+0200</time>
      </trkpt>
      <trkpt lat="45.03591" lon="6.43098">
        <ele>1824.3</ele>
        <time>2022-07-16T08:33:33+0200</time>
      </trkpt>
      <trkpt lat="45.03593" lon="6.43089">
        <ele>1824.1</ele>
        <time>2022-07-16T08:33:35+0200</time>
      </trkpt>
      <trkpt lat="45.03597" lon="6.4308">
        <ele>1824.3</ele>
        <time>2022-07-16T08:33:37+0200</time>
      </trkpt>
      <trkpt lat="45.03602" lon="6.4307">
        <ele>1824.5</ele>
        <time>2022-07-16T08:33:39+0200</time>
      </trkpt>
      <trkpt lat="45.03606" lon="6.43063">
        <ele>1824.8</ele>
        <time>2022-07-16T08:33:41+0200</time>
      </trkpt>
      <trkpt lat="45.0361" lon="6.43052">
        <ele>1824.6</ele>
        <time>2022-07-16T08:33:43+0200</time>
      </trkpt>
      <trkpt lat="45.03613" lon="6.43042">
        <ele>1824.3</ele>
        <time>2022-07-16T08:33:45+0200</time>
      </trkpt>
      <trkpt lat="45.03618" lon="6.43032">
        <ele>1824.3</ele>
        <time>2022-07-16T08:33:47+0200</time>
      </trkpt>
      <trkpt lat="45.03624" lon="6.43024">
        <ele>1824.6</ele>
        <time>2022-07-16T08:33:49+0200</time>
      </trkpt>
      <trkpt lat="45.03627" lon="6.43019">
        <ele>1825</ele>
        <time>2022-07-16T08:33:50+0200</time>
      </trkpt>
      <trkpt lat="45.0363" lon="6.43011">
        <ele>1825.2</ele>
        <time>2022-07-16T08:33:52+0200</time>
      </trkpt>
      <trkpt lat="45.03635" lon="6.43">
        <ele>1825.4</ele>
        <time>2022-07-16T08:33:54+0200</time>
      </trkpt>
      <trkpt lat="45.03639" lon="6.42991">
        <ele>1825.7</ele>
        <time>2022-07-16T08:33:56+0200</time>
      </trkpt>
      <trkpt lat="45.03641" lon="6.42985">
        <ele>1825.7</ele>
        <time>2022-07-16T08:33:57+0200</time>
      </trkpt>
      <trkpt lat="45.03645" lon="6.42975">
        <ele>1825.9</ele>
        <time>2022-07-16T08:33:59+0200</time>
      </trkpt>
      <trkpt lat="45.03647" lon="6.42969">
        <ele>1826.1</ele>
        <time>2022-07-16T08:34:00+0200</time>
      </trkpt>
      <trkpt lat="45.03651" lon="6.42963">
        <ele>1826.4</ele>
        <time>2022-07-16T08:34:02+0200</time>
      </trkpt>
      <trkpt lat="45.03653" lon="6.42954">
        <ele>1826.4</ele>
        <time>2022-07-16T08:34:04+0200</time>
      </trkpt>
      <trkpt lat="45.03656" lon="6.42945">
        <ele>1826.5</ele>
        <time>2022-07-16T08:34:06+0200</time>
      </trkpt>
      <trkpt lat="45.03658" lon="6.4294">
        <ele>1826.6</ele>
        <time>2022-07-16T08:34:07+0200</time>
      </trkpt>
      <trkpt lat="45.03661" lon="6.42928">
        <ele>1826.4</ele>
        <time>2022-07-16T08:34:09+0200</time>
      </trkpt>
      <trkpt lat="45.03665" lon="6.42919">
        <ele>1826.7</ele>
        <time>2022-07-16T08:34:11+0200</time>
      </trkpt>
      <trkpt lat="45.03666" lon="6.42912">
        <ele>1826.5</ele>
        <time>2022-07-16T08:34:12+0200</time>
      </trkpt>
      <trkpt lat="45.0367" lon="6.42902">
        <ele>1826.4</ele>
        <time>2022-07-16T08:34:14+0200</time>
      </trkpt>
      <trkpt lat="45.03672" lon="6.42896">
        <ele>1826.2</ele>
        <time>2022-07-16T08:34:15+0200</time>
      </trkpt>
      <trkpt lat="45.03676" lon="6.42886">
        <ele>1826.2</ele>
        <time>2022-07-16T08:34:17+0200</time>
      </trkpt>
      <trkpt lat="45.03678" lon="6.42877">
        <ele>1826.2</ele>
        <time>2022-07-16T08:34:19+0200</time>
      </trkpt>
      <trkpt lat="45.03679" lon="6.4287">
        <ele>1826.2</ele>
        <time>2022-07-16T08:34:20+0200</time>
      </trkpt>
      <trkpt lat="45.03682" lon="6.42859">
        <ele>1826.2</ele>
        <time>2022-07-16T08:34:22+0200</time>
      </trkpt>
      <trkpt lat="45.03684" lon="6.42852">
        <ele>1826.3</ele>
        <time>2022-07-16T08:34:23+0200</time>
      </trkpt>
      <trkpt lat="45.03686" lon="6.42846">
        <ele>1826.4</ele>
        <time>2022-07-16T08:34:24+0200</time>
      </trkpt>
      <trkpt lat="45.03688" lon="6.4284">
        <ele>1826.5</ele>
        <time>2022-07-16T08:34:25+0200</time>
      </trkpt>
      <trkpt lat="45.03691" lon="6.42833">
        <ele>1826.6</ele>
        <time>2022-07-16T08:34:26+0200</time>
      </trkpt>
      <trkpt lat="45.03695" lon="6.42823">
        <ele>1826.7</ele>
        <time>2022-07-16T08:34:28+0200</time>
      </trkpt>
      <trkpt lat="45.037" lon="6.42813">
        <ele>1826.7</ele>
        <time>2022-07-16T08:34:30+0200</time>
      </trkpt>
      <trkpt lat="45.03705" lon="6.42804">
        <ele>1826.7</ele>
        <time>2022-07-16T08:34:32+0200</time>
      </trkpt>
      <trkpt lat="45.03708" lon="6.42798">
        <ele>1826.7</ele>
        <time>2022-07-16T08:34:33+0200</time>
      </trkpt>
      <trkpt lat="45.0371" lon="6.42793">
        <ele>1826.7</ele>
        <time>2022-07-16T08:34:34+0200</time>
      </trkpt>
      <trkpt lat="45.03714" lon="6.42786">
        <ele>1826.7</ele>
        <time>2022-07-16T08:34:35+0200</time>
      </trkpt>
      <trkpt lat="45.03717" lon="6.42781">
        <ele>1826.7</ele>
        <time>2022-07-16T08:34:36+0200</time>
      </trkpt>
      <trkpt lat="45.03719" lon="6.42776">
        <ele>1826.8</ele>
        <time>2022-07-16T08:34:37+0200</time>
      </trkpt>
      <trkpt lat="45.03723" lon="6.42766">
        <ele>1827.1</ele>
        <time>2022-07-16T08:34:39+0200</time>
      </trkpt>
      <trkpt lat="45.03725" lon="6.42759">
        <ele>1827.3</ele>
        <time>2022-07-16T08:34:40+0200</time>
      </trkpt>
      <trkpt lat="45.03728" lon="6.42752">
        <ele>1827.6</ele>
        <time>2022-07-16T08:34:41+0200</time>
      </trkpt>
      <trkpt lat="45.0373" lon="6.4274">
        <ele>1827.8</ele>
        <time>2022-07-16T08:34:43+0200</time>
      </trkpt>
      <trkpt lat="45.03733" lon="6.42728">
        <ele>1827.8</ele>
        <time>2022-07-16T08:34:45+0200</time>
      </trkpt>
      <trkpt lat="45.03735" lon="6.42718">
        <ele>1827.9</ele>
        <time>2022-07-16T08:34:47+0200</time>
      </trkpt>
      <trkpt lat="45.03737" lon="6.42708">
        <ele>1828.1</ele>
        <time>2022-07-16T08:34:49+0200</time>
      </trkpt>
      <trkpt lat="45.03738" lon="6.42702">
        <ele>1828.2</ele>
        <time>2022-07-16T08:34:50+0200</time>
      </trkpt>
      <trkpt lat="45.03741" lon="6.4269">
        <ele>1828.3</ele>
        <time>2022-07-16T08:34:52+0200</time>
      </trkpt>
      <trkpt lat="45.03744" lon="6.42679">
        <ele>1828.4</ele>
        <time>2022-07-16T08:34:54+0200</time>
      </trkpt>
      <trkpt lat="45.03746" lon="6.42671">
        <ele>1828.5</ele>
        <time>2022-07-16T08:34:56+0200</time>
      </trkpt>
      <trkpt lat="45.03746" lon="6.42659">
        <ele>1828.3</ele>
        <time>2022-07-16T08:34:58+0200</time>
      </trkpt>
      <trkpt lat="45.03746" lon="6.42646">
        <ele>1827.9</ele>
        <time>2022-07-16T08:35:00+0200</time>
      </trkpt>
      <trkpt lat="45.03749" lon="6.42635">
        <ele>1827.9</ele>
        <time>2022-07-16T08:35:02+0200</time>
      </trkpt>
      <trkpt lat="45.03751" lon="6.42628">
        <ele>1828.1</ele>
        <time>2022-07-16T08:35:03+0200</time>
      </trkpt>
      <trkpt lat="45.03754" lon="6.42621">
        <ele>1828.5</ele>
        <time>2022-07-16T08:35:05+0200</time>
      </trkpt>
      <trkpt lat="45.03757" lon="6.42609">
        <ele>1828.7</ele>
        <time>2022-07-16T08:35:07+0200</time>
      </trkpt>
      <trkpt lat="45.03758" lon="6.42597">
        <ele>1828.7</ele>
        <time>2022-07-16T08:35:09+0200</time>
      </trkpt>
      <trkpt lat="45.03758" lon="6.42591">
        <ele>1828.6</ele>
        <time>2022-07-16T08:35:10+0200</time>
      </trkpt>
      <trkpt lat="45.03759" lon="6.4258">
        <ele>1828.6</ele>
        <time>2022-07-16T08:35:12+0200</time>
      </trkpt>
      <trkpt lat="45.03761" lon="6.42568">
        <ele>1828.8</ele>
        <time>2022-07-16T08:35:14+0200</time>
      </trkpt>
      <trkpt lat="45.03764" lon="6.4256">
        <ele>1829</ele>
        <time>2022-07-16T08:35:16+0200</time>
      </trkpt>
      <trkpt lat="45.03767" lon="6.42549">
        <ele>1829.1</ele>
        <time>2022-07-16T08:35:18+0200</time>
      </trkpt>
      <trkpt lat="45.03769" lon="6.4254">
        <ele>1829.2</ele>
        <time>2022-07-16T08:35:20+0200</time>
      </trkpt>
      <trkpt lat="45.03772" lon="6.42532">
        <ele>1829.4</ele>
        <time>2022-07-16T08:35:22+0200</time>
      </trkpt>
      <trkpt lat="45.03776" lon="6.42521">
        <ele>1829.8</ele>
        <time>2022-07-16T08:35:24+0200</time>
      </trkpt>
      <trkpt lat="45.0378" lon="6.42514">
        <ele>1830.2</ele>
        <time>2022-07-16T08:35:26+0200</time>
      </trkpt>
      <trkpt lat="45.03782" lon="6.42506">
        <ele>1830.4</ele>
        <time>2022-07-16T08:35:28+0200</time>
      </trkpt>
      <trkpt lat="45.03786" lon="6.42496">
        <ele>1830.4</ele>
        <time>2022-07-16T08:35:30+0200</time>
      </trkpt>
      <trkpt lat="45.03788" lon="6.4249">
        <ele>1830.4</ele>
        <time>2022-07-16T08:35:31+0200</time>
      </trkpt>
      <trkpt lat="45.03792" lon="6.42483">
        <ele>1830.4</ele>
        <time>2022-07-16T08:35:33+0200</time>
      </trkpt>
      <trkpt lat="45.03798" lon="6.42474">
        <ele>1830.5</ele>
        <time>2022-07-16T08:35:35+0200</time>
      </trkpt>
      <trkpt lat="45.03801" lon="6.42462">
        <ele>1830.7</ele>
        <time>2022-07-16T08:35:37+0200</time>
      </trkpt>
      <trkpt lat="45.03803" lon="6.42452">
        <ele>1830.8</ele>
        <time>2022-07-16T08:35:39+0200</time>
      </trkpt>
      <trkpt lat="45.03805" lon="6.42441">
        <ele>1831</ele>
        <time>2022-07-16T08:35:41+0200</time>
      </trkpt>
      <trkpt lat="45.03806" lon="6.42429">
        <ele>1831.1</ele>
        <time>2022-07-16T08:35:43+0200</time>
      </trkpt>
      <trkpt lat="45.03807" lon="6.4242">
        <ele>1831.1</ele>
        <time>2022-07-16T08:35:45+0200</time>
      </trkpt>
      <trkpt lat="45.03809" lon="6.42412">
        <ele>1831.3</ele>
        <time>2022-07-16T08:35:47+0200</time>
      </trkpt>
      <trkpt lat="45.0381" lon="6.42401">
        <ele>1831.3</ele>
        <time>2022-07-16T08:35:49+0200</time>
      </trkpt>
      <trkpt lat="45.03811" lon="6.42391">
        <ele>1831.4</ele>
        <time>2022-07-16T08:35:51+0200</time>
      </trkpt>
      <trkpt lat="45.03811" lon="6.42384">
        <ele>1831.4</ele>
        <time>2022-07-16T08:35:53+0200</time>
      </trkpt>
      <trkpt lat="45.03813" lon="6.42376">
        <ele>1831.5</ele>
        <time>2022-07-16T08:35:55+0200</time>
      </trkpt>
      <trkpt lat="45.03812" lon="6.42368">
        <ele>1831.5</ele>
        <time>2022-07-16T08:35:57+0200</time>
      </trkpt>
      <trkpt lat="45.03811" lon="6.4236">
        <ele>1831.4</ele>
        <time>2022-07-16T08:36:00+0200</time>
      </trkpt>
      <trkpt lat="45.03813" lon="6.42353">
        <ele>1831.8</ele>
        <time>2022-07-16T08:36:02+0200</time>
      </trkpt>
      <trkpt lat="45.03814" lon="6.42346">
        <ele>1832</ele>
        <time>2022-07-16T08:36:04+0200</time>
      </trkpt>
      <trkpt lat="45.03816" lon="6.4234">
        <ele>1832.2</ele>
        <time>2022-07-16T08:36:06+0200</time>
      </trkpt>
      <trkpt lat="45.03814" lon="6.42331">
        <ele>1832.5</ele>
        <time>2022-07-16T08:36:08+0200</time>
      </trkpt>
      <trkpt lat="45.03813" lon="6.42323">
        <ele>1833.3</ele>
        <time>2022-07-16T08:36:11+0200</time>
      </trkpt>
      <trkpt lat="45.03815" lon="6.42317">
        <ele>1833.9</ele>
        <time>2022-07-16T08:36:16+0200</time>
      </trkpt>
      <trkpt lat="45.0382" lon="6.42311">
        <ele>1834.5</ele>
        <time>2022-07-16T08:36:20+0200</time>
      </trkpt>
      <trkpt lat="45.03824" lon="6.42308">
        <ele>1834.8</ele>
        <time>2022-07-16T08:36:23+0200</time>
      </trkpt>
      <trkpt lat="45.03829" lon="6.42302">
        <ele>1835.7</ele>
        <time>2022-07-16T08:36:26+0200</time>
      </trkpt>
      <trkpt lat="45.03827" lon="6.42292">
        <ele>1837.3</ele>
        <time>2022-07-16T08:36:31+0200</time>
      </trkpt>
      <trkpt lat="45.03822" lon="6.42288">
        <ele>1837.8</ele>
        <time>2022-07-16T08:36:35+0200</time>
      </trkpt>
      <trkpt lat="45.03817" lon="6.42283">
        <ele>1838.6</ele>
        <time>2022-07-16T08:36:38+0200</time>
      </trkpt>
      <trkpt lat="45.03814" lon="6.42277">
        <ele>1839.5</ele>
        <time>2022-07-16T08:36:41+0200</time>
      </trkpt>
      <trkpt lat="45.03811" lon="6.42271">
        <ele>1840</ele>
        <time>2022-07-16T08:36:44+0200</time>
      </trkpt>
      <trkpt lat="45.03809" lon="6.42262">
        <ele>1841</ele>
        <time>2022-07-16T08:36:47+0200</time>
      </trkpt>
      <trkpt lat="45.0381" lon="6.42253">
        <ele>1842.1</ele>
        <time>2022-07-16T08:36:50+0200</time>
      </trkpt>
      <trkpt lat="45.0381" lon="6.42246">
        <ele>1842.8</ele>
        <time>2022-07-16T08:36:53+0200</time>
      </trkpt>
      <trkpt lat="45.0381" lon="6.42237">
        <ele>1843.4</ele>
        <time>2022-07-16T08:36:57+0200</time>
      </trkpt>
      <trkpt lat="45.0381" lon="6.42231">
        <ele>1843.9</ele>
        <time>2022-07-16T08:37:00+0200</time>
      </trkpt>
      <trkpt lat="45.0381" lon="6.42223">
        <ele>1844.4</ele>
        <time>2022-07-16T08:37:02+0200</time>
      </trkpt>
      <trkpt lat="45.03811" lon="6.42217">
        <ele>1844.6</ele>
        <time>2022-07-16T08:37:04+0200</time>
      </trkpt>
      <trkpt lat="45.03812" lon="6.42209">
        <ele>1844.9</ele>
        <time>2022-07-16T08:37:07+0200</time>
      </trkpt>
      <trkpt lat="45.03813" lon="6.42201">
        <ele>1845.2</ele>
        <time>2022-07-16T08:37:11+0200</time>
      </trkpt>
      <trkpt lat="45.03814" lon="6.42192">
        <ele>1845.5</ele>
        <time>2022-07-16T08:37:14+0200</time>
      </trkpt>
      <trkpt lat="45.03815" lon="6.42184">
        <ele>1845.8</ele>
        <time>2022-07-16T08:37:17+0200</time>
      </trkpt>
      <trkpt lat="45.03818" lon="6.42176">
        <ele>1846.2</ele>
        <time>2022-07-16T08:37:20+0200</time>
      </trkpt>
      <trkpt lat="45.03816" lon="6.42168">
        <ele>1845.9</ele>
        <time>2022-07-16T08:37:22+0200</time>
      </trkpt>
      <trkpt lat="45.03818" lon="6.42162">
        <ele>1846.2</ele>
        <time>2022-07-16T08:37:24+0200</time>
      </trkpt>
      <trkpt lat="45.03818" lon="6.42154">
        <ele>1846.5</ele>
        <time>2022-07-16T08:37:26+0200</time>
      </trkpt>
      <trkpt lat="45.03819" lon="6.42146">
        <ele>1846.8</ele>
        <time>2022-07-16T08:37:28+0200</time>
      </trkpt>
      <trkpt lat="45.03819" lon="6.42138">
        <ele>1846.9</ele>
        <time>2022-07-16T08:37:30+0200</time>
      </trkpt>
      <trkpt lat="45.03821" lon="6.4213">
        <ele>1847.5</ele>
        <time>2022-07-16T08:37:33+0200</time>
      </trkpt>
      <trkpt lat="45.03821" lon="6.42122">
        <ele>1847.6</ele>
        <time>2022-07-16T08:37:35+0200</time>
      </trkpt>
      <trkpt lat="45.03822" lon="6.42115">
        <ele>1847.9</ele>
        <time>2022-07-16T08:37:37+0200</time>
      </trkpt>
      <trkpt lat="45.03823" lon="6.42108">
        <ele>1848.1</ele>
        <time>2022-07-16T08:37:40+0200</time>
      </trkpt>
      <trkpt lat="45.03825" lon="6.42102">
        <ele>1848.3</ele>
        <time>2022-07-16T08:37:42+0200</time>
      </trkpt>
      <trkpt lat="45.03826" lon="6.42093">
        <ele>1848.4</ele>
        <time>2022-07-16T08:37:45+0200</time>
      </trkpt>
      <trkpt lat="45.03827" lon="6.42086">
        <ele>1848.6</ele>
        <time>2022-07-16T08:37:47+0200</time>
      </trkpt>
      <trkpt lat="45.03828" lon="6.42077">
        <ele>1849</ele>
        <time>2022-07-16T08:37:50+0200</time>
      </trkpt>
      <trkpt lat="45.03828" lon="6.42069">
        <ele>1849.2</ele>
        <time>2022-07-16T08:37:52+0200</time>
      </trkpt>
      <trkpt lat="45.03828" lon="6.42059">
        <ele>1849.5</ele>
        <time>2022-07-16T08:37:55+0200</time>
      </trkpt>
      <trkpt lat="45.03828" lon="6.42052">
        <ele>1849.7</ele>
        <time>2022-07-16T08:37:57+0200</time>
      </trkpt>
      <trkpt lat="45.03829" lon="6.42045">
        <ele>1850.3</ele>
        <time>2022-07-16T08:37:59+0200</time>
      </trkpt>
      <trkpt lat="45.0383" lon="6.42037">
        <ele>1850.6</ele>
        <time>2022-07-16T08:38:01+0200</time>
      </trkpt>
      <trkpt lat="45.03831" lon="6.42031">
        <ele>1851.2</ele>
        <time>2022-07-16T08:38:03+0200</time>
      </trkpt>
      <trkpt lat="45.03831" lon="6.42024">
        <ele>1851.3</ele>
        <time>2022-07-16T08:38:05+0200</time>
      </trkpt>
      <trkpt lat="45.03833" lon="6.42014">
        <ele>1851.9</ele>
        <time>2022-07-16T08:38:09+0200</time>
      </trkpt>
      <trkpt lat="45.03833" lon="6.42005">
        <ele>1852</ele>
        <time>2022-07-16T08:38:12+0200</time>
      </trkpt>
      <trkpt lat="45.03835" lon="6.41997">
        <ele>1852.7</ele>
        <time>2022-07-16T08:38:15+0200</time>
      </trkpt>
      <trkpt lat="45.03837" lon="6.41989">
        <ele>1853.2</ele>
        <time>2022-07-16T08:38:18+0200</time>
      </trkpt>
      <trkpt lat="45.03839" lon="6.41982">
        <ele>1853.9</ele>
        <time>2022-07-16T08:38:20+0200</time>
      </trkpt>
      <trkpt lat="45.0384" lon="6.41974">
        <ele>1854.1</ele>
        <time>2022-07-16T08:38:22+0200</time>
      </trkpt>
      <trkpt lat="45.03842" lon="6.41967">
        <ele>1854.7</ele>
        <time>2022-07-16T08:38:25+0200</time>
      </trkpt>
      <trkpt lat="45.03843" lon="6.41961">
        <ele>1855.1</ele>
        <time>2022-07-16T08:38:27+0200</time>
      </trkpt>
      <trkpt lat="45.03845" lon="6.41955">
        <ele>1855.9</ele>
        <time>2022-07-16T08:38:30+0200</time>
      </trkpt>
      <trkpt lat="45.03847" lon="6.41946">
        <ele>1856.4</ele>
        <time>2022-07-16T08:38:33+0200</time>
      </trkpt>
      <trkpt lat="45.03849" lon="6.41941">
        <ele>1857.3</ele>
        <time>2022-07-16T08:38:35+0200</time>
      </trkpt>
      <trkpt lat="45.0385" lon="6.41933">
        <ele>1858</ele>
        <time>2022-07-16T08:38:38+0200</time>
      </trkpt>
      <trkpt lat="45.03853" lon="6.41927">
        <ele>1859.3</ele>
        <time>2022-07-16T08:38:41+0200</time>
      </trkpt>
      <trkpt lat="45.03855" lon="6.41919">
        <ele>1860.4</ele>
        <time>2022-07-16T08:38:44+0200</time>
      </trkpt>
      <trkpt lat="45.03856" lon="6.41912">
        <ele>1860.9</ele>
        <time>2022-07-16T08:38:46+0200</time>
      </trkpt>
      <trkpt lat="45.03857" lon="6.41902">
        <ele>1861.6</ele>
        <time>2022-07-16T08:38:49+0200</time>
      </trkpt>
      <trkpt lat="45.03859" lon="6.41896">
        <ele>1862.2</ele>
        <time>2022-07-16T08:38:52+0200</time>
      </trkpt>
      <trkpt lat="45.0386" lon="6.41888">
        <ele>1862.8</ele>
        <time>2022-07-16T08:38:55+0200</time>
      </trkpt>
      <trkpt lat="45.03863" lon="6.41882">
        <ele>1863.6</ele>
        <time>2022-07-16T08:38:58+0200</time>
      </trkpt>
      <trkpt lat="45.03866" lon="6.41875">
        <ele>1864.7</ele>
        <time>2022-07-16T08:39:01+0200</time>
      </trkpt>
      <trkpt lat="45.03867" lon="6.41868">
        <ele>1865.1</ele>
        <time>2022-07-16T08:39:04+0200</time>
      </trkpt>
      <trkpt lat="45.03869" lon="6.41861">
        <ele>1865.7</ele>
        <time>2022-07-16T08:39:08+0200</time>
      </trkpt>
      <trkpt lat="45.03871" lon="6.41855">
        <ele>1866.4</ele>
        <time>2022-07-16T08:39:11+0200</time>
      </trkpt>
      <trkpt lat="45.03872" lon="6.41849">
        <ele>1867</ele>
        <time>2022-07-16T08:39:15+0200</time>
      </trkpt>
      <trkpt lat="45.03874" lon="6.41843">
        <ele>1868</ele>
        <time>2022-07-16T08:39:19+0200</time>
      </trkpt>
      <trkpt lat="45.03875" lon="6.41836">
        <ele>1868.4</ele>
        <time>2022-07-16T08:39:22+0200</time>
      </trkpt>
      <trkpt lat="45.03876" lon="6.4183">
        <ele>1868.8</ele>
        <time>2022-07-16T08:39:25+0200</time>
      </trkpt>
      <trkpt lat="45.03878" lon="6.41824">
        <ele>1869.3</ele>
        <time>2022-07-16T08:39:28+0200</time>
      </trkpt>
      <trkpt lat="45.0388" lon="6.41815">
        <ele>1869.9</ele>
        <time>2022-07-16T08:39:32+0200</time>
      </trkpt>
      <trkpt lat="45.03881" lon="6.41808">
        <ele>1870.3</ele>
        <time>2022-07-16T08:39:35+0200</time>
      </trkpt>
      <trkpt lat="45.03885" lon="6.41801">
        <ele>1871.3</ele>
        <time>2022-07-16T08:39:38+0200</time>
      </trkpt>
      <trkpt lat="45.03885" lon="6.41794">
        <ele>1871.7</ele>
        <time>2022-07-16T08:39:41+0200</time>
      </trkpt>
      <trkpt lat="45.03887" lon="6.41786">
        <ele>1872.4</ele>
        <time>2022-07-16T08:39:45+0200</time>
      </trkpt>
      <trkpt lat="45.03889" lon="6.41779">
        <ele>1873.1</ele>
        <time>2022-07-16T08:39:48+0200</time>
      </trkpt>
      <trkpt lat="45.03891" lon="6.41772">
        <ele>1874</ele>
        <time>2022-07-16T08:39:53+0200</time>
      </trkpt>
      <trkpt lat="45.03892" lon="6.41766">
        <ele>1874.5</ele>
        <time>2022-07-16T08:39:57+0200</time>
      </trkpt>
      <trkpt lat="45.03893" lon="6.41758">
        <ele>1874.8</ele>
        <time>2022-07-16T08:40:00+0200</time>
      </trkpt>
      <trkpt lat="45.03896" lon="6.41753">
        <ele>1875.6</ele>
        <time>2022-07-16T08:40:03+0200</time>
      </trkpt>
      <trkpt lat="45.03898" lon="6.41746">
        <ele>1876.4</ele>
        <time>2022-07-16T08:40:07+0200</time>
      </trkpt>
      <trkpt lat="45.03901" lon="6.41739">
        <ele>1877.4</ele>
        <time>2022-07-16T08:40:11+0200</time>
      </trkpt>
      <trkpt lat="45.03903" lon="6.41733">
        <ele>1877.9</ele>
        <time>2022-07-16T08:40:15+0200</time>
      </trkpt>
      <trkpt lat="45.03906" lon="6.41726">
        <ele>1878.7</ele>
        <time>2022-07-16T08:40:18+0200</time>
      </trkpt>
      <trkpt lat="45.03909" lon="6.41721">
        <ele>1879.4</ele>
        <time>2022-07-16T08:40:22+0200</time>
      </trkpt>
      <trkpt lat="45.03913" lon="6.41714">
        <ele>1880.3</ele>
        <time>2022-07-16T08:40:26+0200</time>
      </trkpt>
      <trkpt lat="45.03918" lon="6.41709">
        <ele>1881.2</ele>
        <time>2022-07-16T08:40:30+0200</time>
      </trkpt>
      <trkpt lat="45.03921" lon="6.41701">
        <ele>1882.2</ele>
        <time>2022-07-16T08:40:34+0200</time>
      </trkpt>
      <trkpt lat="45.03924" lon="6.41695">
        <ele>1882.9</ele>
        <time>2022-07-16T08:40:37+0200</time>
      </trkpt>
      <trkpt lat="45.03926" lon="6.41689">
        <ele>1883.4</ele>
        <time>2022-07-16T08:40:40+0200</time>
      </trkpt>
      <trkpt lat="45.0393" lon="6.41683">
        <ele>1884.1</ele>
        <time>2022-07-16T08:40:44+0200</time>
      </trkpt>
      <trkpt lat="45.03934" lon="6.41677">
        <ele>1884.9</ele>
        <time>2022-07-16T08:40:49+0200</time>
      </trkpt>
      <trkpt lat="45.03938" lon="6.41671">
        <ele>1885.7</ele>
        <time>2022-07-16T08:40:54+0200</time>
      </trkpt>
      <trkpt lat="45.0394" lon="6.41665">
        <ele>1885.7</ele>
        <time>2022-07-16T08:41:30+0200</time>
      </trkpt>
      <trkpt lat="45.03944" lon="6.41661">
        <ele>1886</ele>
        <time>2022-07-16T08:41:41+0200</time>
      </trkpt>
      <trkpt lat="45.03947" lon="6.41657">
        <ele>1886.4</ele>
        <time>2022-07-16T08:41:46+0200</time>
      </trkpt>
      <trkpt lat="45.03951" lon="6.41653">
        <ele>1886.9</ele>
        <time>2022-07-16T08:41:51+0200</time>
      </trkpt>
      <trkpt lat="45.03956" lon="6.41651">
        <ele>1888.1</ele>
        <time>2022-07-16T08:41:57+0200</time>
      </trkpt>
      <trkpt lat="45.0396" lon="6.41648">
        <ele>1888.6</ele>
        <time>2022-07-16T08:42:01+0200</time>
      </trkpt>
      <trkpt lat="45.03966" lon="6.41646">
        <ele>1889.7</ele>
        <time>2022-07-16T08:42:12+0200</time>
      </trkpt>
      <trkpt lat="45.03969" lon="6.4164">
        <ele>1889.4</ele>
        <time>2022-07-16T08:42:22+0200</time>
      </trkpt>
      <trkpt lat="45.03973" lon="6.41635">
        <ele>1889.7</ele>
        <time>2022-07-16T08:42:27+0200</time>
      </trkpt>
      <trkpt lat="45.03979" lon="6.4163">
        <ele>1889.9</ele>
        <time>2022-07-16T08:42:32+0200</time>
      </trkpt>
      <trkpt lat="45.03982" lon="6.41626">
        <ele>1890</ele>
        <time>2022-07-16T08:42:36+0200</time>
      </trkpt>
      <trkpt lat="45.03986" lon="6.41621">
        <ele>1889.9</ele>
        <time>2022-07-16T08:42:41+0200</time>
      </trkpt>
      <trkpt lat="45.03982" lon="6.41617">
        <ele>1888.6</ele>
        <time>2022-07-16T08:43:06+0200</time>
      </trkpt>
      <trkpt lat="45.03979" lon="6.4162">
        <ele>1888.5</ele>
        <time>2022-07-16T08:43:15+0200</time>
      </trkpt>
      <trkpt lat="45.03975" lon="6.41626">
        <ele>1888.7</ele>
        <time>2022-07-16T08:43:19+0200</time>
      </trkpt>
      <trkpt lat="45.03972" lon="6.41631">
        <ele>1888.8</ele>
        <time>2022-07-16T08:43:26+0200</time>
      </trkpt>
      <trkpt lat="45.03968" lon="6.41636">
        <ele>1888.4</ele>
        <time>2022-07-16T08:43:32+0200</time>
      </trkpt>
      <trkpt lat="45.03963" lon="6.41639">
        <ele>1887.6</ele>
        <time>2022-07-16T08:43:38+0200</time>
      </trkpt>
      <trkpt lat="45.03961" lon="6.41645">
        <ele>1888.2</ele>
        <time>2022-07-16T08:43:50+0200</time>
      </trkpt>
      <trkpt lat="45.03957" lon="6.4165">
        <ele>1888.1</ele>
        <time>2022-07-16T08:45:30+0200</time>
      </trkpt>
      <trkpt lat="45.03957" lon="6.41658">
        <ele>1889.5</ele>
        <time>2022-07-16T08:45:35+0200</time>
      </trkpt>
      <trkpt lat="45.03956" lon="6.41664">
        <ele>1890.5</ele>
        <time>2022-07-16T08:45:39+0200</time>
      </trkpt>
      <trkpt lat="45.03956" lon="6.41671">
        <ele>1891</ele>
        <time>2022-07-16T08:45:42+0200</time>
      </trkpt>
      <trkpt lat="45.03957" lon="6.41679">
        <ele>1891.9</ele>
        <time>2022-07-16T08:45:45+0200</time>
      </trkpt>
      <trkpt lat="45.03959" lon="6.41687">
        <ele>1892.6</ele>
        <time>2022-07-16T08:45:48+0200</time>
      </trkpt>
      <trkpt lat="45.0396" lon="6.41694">
        <ele>1893.5</ele>
        <time>2022-07-16T08:45:51+0200</time>
      </trkpt>
      <trkpt lat="45.03961" lon="6.41701">
        <ele>1894.4</ele>
        <time>2022-07-16T08:45:53+0200</time>
      </trkpt>
      <trkpt lat="45.03961" lon="6.41708">
        <ele>1894.8</ele>
        <time>2022-07-16T08:45:57+0200</time>
      </trkpt>
      <trkpt lat="45.03961" lon="6.41716">
        <ele>1895.1</ele>
        <time>2022-07-16T08:46:01+0200</time>
      </trkpt>
      <trkpt lat="45.03962" lon="6.41724">
        <ele>1896.1</ele>
        <time>2022-07-16T08:46:03+0200</time>
      </trkpt>
      <trkpt lat="45.03961" lon="6.41732">
        <ele>1896.6</ele>
        <time>2022-07-16T08:46:07+0200</time>
      </trkpt>
      <trkpt lat="45.03963" lon="6.4174">
        <ele>1898</ele>
        <time>2022-07-16T08:46:11+0200</time>
      </trkpt>
      <trkpt lat="45.03964" lon="6.41747">
        <ele>1899.3</ele>
        <time>2022-07-16T08:46:14+0200</time>
      </trkpt>
      <trkpt lat="45.03965" lon="6.41755">
        <ele>1900.1</ele>
        <time>2022-07-16T08:46:18+0200</time>
      </trkpt>
      <trkpt lat="45.03965" lon="6.41762">
        <ele>1900.4</ele>
        <time>2022-07-16T08:46:21+0200</time>
      </trkpt>
      <trkpt lat="45.03966" lon="6.41769">
        <ele>1901.3</ele>
        <time>2022-07-16T08:46:24+0200</time>
      </trkpt>
      <trkpt lat="45.03969" lon="6.41778">
        <ele>1902.6</ele>
        <time>2022-07-16T08:46:28+0200</time>
      </trkpt>
      <trkpt lat="45.0397" lon="6.41788">
        <ele>1903.3</ele>
        <time>2022-07-16T08:46:33+0200</time>
      </trkpt>
      <trkpt lat="45.03969" lon="6.41796">
        <ele>1903.5</ele>
        <time>2022-07-16T08:46:36+0200</time>
      </trkpt>
      <trkpt lat="45.03969" lon="6.41802">
        <ele>1903.5</ele>
        <time>2022-07-16T08:46:39+0200</time>
      </trkpt>
      <trkpt lat="45.03969" lon="6.4181">
        <ele>1903.9</ele>
        <time>2022-07-16T08:46:42+0200</time>
      </trkpt>
      <trkpt lat="45.03969" lon="6.4182">
        <ele>1904.4</ele>
        <time>2022-07-16T08:46:46+0200</time>
      </trkpt>
      <trkpt lat="45.0397" lon="6.41828">
        <ele>1905.1</ele>
        <time>2022-07-16T08:46:49+0200</time>
      </trkpt>
      <trkpt lat="45.03973" lon="6.41835">
        <ele>1906.3</ele>
        <time>2022-07-16T08:46:52+0200</time>
      </trkpt>
      <trkpt lat="45.03976" lon="6.41842">
        <ele>1907.6</ele>
        <time>2022-07-16T08:46:56+0200</time>
      </trkpt>
      <trkpt lat="45.03978" lon="6.41848">
        <ele>1908.4</ele>
        <time>2022-07-16T08:46:59+0200</time>
      </trkpt>
      <trkpt lat="45.03978" lon="6.41855">
        <ele>1909</ele>
        <time>2022-07-16T08:47:03+0200</time>
      </trkpt>
      <trkpt lat="45.03976" lon="6.41861">
        <ele>1908.3</ele>
        <time>2022-07-16T08:47:06+0200</time>
      </trkpt>
      <trkpt lat="45.03973" lon="6.41869">
        <ele>1908.3</ele>
        <time>2022-07-16T08:47:10+0200</time>
      </trkpt>
      <trkpt lat="45.0397" lon="6.41876">
        <ele>1908.4</ele>
        <time>2022-07-16T08:47:15+0200</time>
      </trkpt>
      <trkpt lat="45.03968" lon="6.41884">
        <ele>1908.9</ele>
        <time>2022-07-16T08:47:19+0200</time>
      </trkpt>
      <trkpt lat="45.03968" lon="6.41891">
        <ele>1909.7</ele>
        <time>2022-07-16T08:47:23+0200</time>
      </trkpt>
      <trkpt lat="45.03969" lon="6.41897">
        <ele>1910.7</ele>
        <time>2022-07-16T08:47:26+0200</time>
      </trkpt>
      <trkpt lat="45.03969" lon="6.41907">
        <ele>1911.6</ele>
        <time>2022-07-16T08:47:29+0200</time>
      </trkpt>
      <trkpt lat="45.03968" lon="6.41914">
        <ele>1912.1</ele>
        <time>2022-07-16T08:47:32+0200</time>
      </trkpt>
      <trkpt lat="45.03968" lon="6.41921">
        <ele>1912.7</ele>
        <time>2022-07-16T08:47:35+0200</time>
      </trkpt>
      <trkpt lat="45.03968" lon="6.41927">
        <ele>1913.3</ele>
        <time>2022-07-16T08:47:38+0200</time>
      </trkpt>
      <trkpt lat="45.03968" lon="6.41934">
        <ele>1914.2</ele>
        <time>2022-07-16T08:47:42+0200</time>
      </trkpt>
      <trkpt lat="45.03968" lon="6.41941">
        <ele>1914.9</ele>
        <time>2022-07-16T08:47:46+0200</time>
      </trkpt>
      <trkpt lat="45.03968" lon="6.41949">
        <ele>1915.7</ele>
        <time>2022-07-16T08:47:51+0200</time>
      </trkpt>
      <trkpt lat="45.03967" lon="6.41958">
        <ele>1916.4</ele>
        <time>2022-07-16T08:47:55+0200</time>
      </trkpt>
      <trkpt lat="45.03966" lon="6.41967">
        <ele>1916.9</ele>
        <time>2022-07-16T08:47:58+0200</time>
      </trkpt>
      <trkpt lat="45.03967" lon="6.41975">
        <ele>1918.3</ele>
        <time>2022-07-16T08:48:03+0200</time>
      </trkpt>
      <trkpt lat="45.03966" lon="6.41983">
        <ele>1918.2</ele>
        <time>2022-07-16T08:48:07+0200</time>
      </trkpt>
      <trkpt lat="45.03965" lon="6.41991">
        <ele>1918.5</ele>
        <time>2022-07-16T08:48:11+0200</time>
      </trkpt>
      <trkpt lat="45.03964" lon="6.41998">
        <ele>1918.6</ele>
        <time>2022-07-16T08:48:15+0200</time>
      </trkpt>
      <trkpt lat="45.03963" lon="6.42007">
        <ele>1919.2</ele>
        <time>2022-07-16T08:48:20+0200</time>
      </trkpt>
      <trkpt lat="45.03963" lon="6.42015">
        <ele>1920.1</ele>
        <time>2022-07-16T08:48:24+0200</time>
      </trkpt>
      <trkpt lat="45.03962" lon="6.42023">
        <ele>1920.8</ele>
        <time>2022-07-16T08:48:27+0200</time>
      </trkpt>
      <trkpt lat="45.03961" lon="6.42029">
        <ele>1921.1</ele>
        <time>2022-07-16T08:48:31+0200</time>
      </trkpt>
      <trkpt lat="45.03962" lon="6.42037">
        <ele>1921.2</ele>
        <time>2022-07-16T08:48:34+0200</time>
      </trkpt>
      <trkpt lat="45.03967" lon="6.42041">
        <ele>1922.6</ele>
        <time>2022-07-16T08:48:37+0200</time>
      </trkpt>
      <trkpt lat="45.03971" lon="6.42038">
        <ele>1923.8</ele>
        <time>2022-07-16T08:48:40+0200</time>
      </trkpt>
      <trkpt lat="45.03974" lon="6.42032">
        <ele>1924.6</ele>
        <time>2022-07-16T08:48:44+0200</time>
      </trkpt>
      <trkpt lat="45.03978" lon="6.42024">
        <ele>1925.4</ele>
        <time>2022-07-16T08:48:49+0200</time>
      </trkpt>
      <trkpt lat="45.03981" lon="6.42019">
        <ele>1925.9</ele>
        <time>2022-07-16T08:48:52+0200</time>
      </trkpt>
      <trkpt lat="45.03985" lon="6.42013">
        <ele>1926.4</ele>
        <time>2022-07-16T08:48:55+0200</time>
      </trkpt>
      <trkpt lat="45.03988" lon="6.42009">
        <ele>1927.1</ele>
        <time>2022-07-16T08:49:00+0200</time>
      </trkpt>
      <trkpt lat="45.03991" lon="6.42003">
        <ele>1927.3</ele>
        <time>2022-07-16T08:49:03+0200</time>
      </trkpt>
      <trkpt lat="45.03994" lon="6.41995">
        <ele>1928</ele>
        <time>2022-07-16T08:49:07+0200</time>
      </trkpt>
      <trkpt lat="45.03997" lon="6.41989">
        <ele>1928.5</ele>
        <time>2022-07-16T08:49:11+0200</time>
      </trkpt>
      <trkpt lat="45.03999" lon="6.41982">
        <ele>1929.1</ele>
        <time>2022-07-16T08:49:15+0200</time>
      </trkpt>
      <trkpt lat="45.04002" lon="6.41976">
        <ele>1929.8</ele>
        <time>2022-07-16T08:49:19+0200</time>
      </trkpt>
      <trkpt lat="45.04004" lon="6.4197">
        <ele>1930.1</ele>
        <time>2022-07-16T08:49:22+0200</time>
      </trkpt>
      <trkpt lat="45.04009" lon="6.41965">
        <ele>1930.9</ele>
        <time>2022-07-16T08:49:30+0200</time>
      </trkpt>
      <trkpt lat="45.04012" lon="6.4196">
        <ele>1931.5</ele>
        <time>2022-07-16T08:49:33+0200</time>
      </trkpt>
      <trkpt lat="45.04016" lon="6.41957">
        <ele>1932.6</ele>
        <time>2022-07-16T08:49:36+0200</time>
      </trkpt>
      <trkpt lat="45.0402" lon="6.41951">
        <ele>1933.2</ele>
        <time>2022-07-16T08:49:39+0200</time>
      </trkpt>
      <trkpt lat="45.04023" lon="6.41946">
        <ele>1933.8</ele>
        <time>2022-07-16T08:49:43+0200</time>
      </trkpt>
      <trkpt lat="45.04028" lon="6.41942">
        <ele>1934.9</ele>
        <time>2022-07-16T08:49:46+0200</time>
      </trkpt>
      <trkpt lat="45.0403" lon="6.41934">
        <ele>1934.9</ele>
        <time>2022-07-16T08:49:49+0200</time>
      </trkpt>
      <trkpt lat="45.04033" lon="6.41929">
        <ele>1935.4</ele>
        <time>2022-07-16T08:49:53+0200</time>
      </trkpt>
      <trkpt lat="45.04037" lon="6.41929">
        <ele>1936.9</ele>
        <time>2022-07-16T08:49:56+0200</time>
      </trkpt>
      <trkpt lat="45.04041" lon="6.41921">
        <ele>1937.6</ele>
        <time>2022-07-16T08:50:00+0200</time>
      </trkpt>
      <trkpt lat="45.04045" lon="6.41917">
        <ele>1938.8</ele>
        <time>2022-07-16T08:50:05+0200</time>
      </trkpt>
      <trkpt lat="45.0405" lon="6.41911">
        <ele>1939.6</ele>
        <time>2022-07-16T08:50:08+0200</time>
      </trkpt>
      <trkpt lat="45.04054" lon="6.41906">
        <ele>1940.2</ele>
        <time>2022-07-16T08:50:12+0200</time>
      </trkpt>
      <trkpt lat="45.04057" lon="6.41899">
        <ele>1940.7</ele>
        <time>2022-07-16T08:50:16+0200</time>
      </trkpt>
      <trkpt lat="45.04062" lon="6.41896">
        <ele>1941.8</ele>
        <time>2022-07-16T08:50:20+0200</time>
      </trkpt>
      <trkpt lat="45.04066" lon="6.41892">
        <ele>1942.8</ele>
        <time>2022-07-16T08:50:23+0200</time>
      </trkpt>
      <trkpt lat="45.0407" lon="6.41888">
        <ele>1943.3</ele>
        <time>2022-07-16T08:50:25+0200</time>
      </trkpt>
      <trkpt lat="45.04076" lon="6.41884">
        <ele>1944.5</ele>
        <time>2022-07-16T08:50:28+0200</time>
      </trkpt>
      <trkpt lat="45.04079" lon="6.4188">
        <ele>1944.8</ele>
        <time>2022-07-16T08:50:31+0200</time>
      </trkpt>
      <trkpt lat="45.04084" lon="6.41876">
        <ele>1945.3</ele>
        <time>2022-07-16T08:50:36+0200</time>
      </trkpt>
      <trkpt lat="45.0409" lon="6.41877">
        <ele>1946.8</ele>
        <time>2022-07-16T08:50:42+0200</time>
      </trkpt>
      <trkpt lat="45.04095" lon="6.41875">
        <ele>1947.3</ele>
        <time>2022-07-16T08:50:45+0200</time>
      </trkpt>
      <trkpt lat="45.041" lon="6.41874">
        <ele>1948.1</ele>
        <time>2022-07-16T08:50:48+0200</time>
      </trkpt>
      <trkpt lat="45.04104" lon="6.41873">
        <ele>1948.8</ele>
        <time>2022-07-16T08:50:51+0200</time>
      </trkpt>
      <trkpt lat="45.04109" lon="6.41871">
        <ele>1949.4</ele>
        <time>2022-07-16T08:50:53+0200</time>
      </trkpt>
      <trkpt lat="45.04114" lon="6.41872">
        <ele>1950.9</ele>
        <time>2022-07-16T08:50:57+0200</time>
      </trkpt>
      <trkpt lat="45.04119" lon="6.41871">
        <ele>1952.1</ele>
        <time>2022-07-16T08:51:00+0200</time>
      </trkpt>
      <trkpt lat="45.04124" lon="6.41869">
        <ele>1953.2</ele>
        <time>2022-07-16T08:51:04+0200</time>
      </trkpt>
      <trkpt lat="45.04128" lon="6.41865">
        <ele>1953.9</ele>
        <time>2022-07-16T08:51:07+0200</time>
      </trkpt>
      <trkpt lat="45.04133" lon="6.41862">
        <ele>1955.2</ele>
        <time>2022-07-16T08:51:12+0200</time>
      </trkpt>
      <trkpt lat="45.04138" lon="6.41857">
        <ele>1955.8</ele>
        <time>2022-07-16T08:51:15+0200</time>
      </trkpt>
      <trkpt lat="45.04139" lon="6.41851">
        <ele>1955.1</ele>
        <time>2022-07-16T08:51:19+0200</time>
      </trkpt>
      <trkpt lat="45.04142" lon="6.41845">
        <ele>1955.5</ele>
        <time>2022-07-16T08:51:23+0200</time>
      </trkpt>
      <trkpt lat="45.04145" lon="6.4184">
        <ele>1956</ele>
        <time>2022-07-16T08:51:27+0200</time>
      </trkpt>
      <trkpt lat="45.04149" lon="6.41835">
        <ele>1957.1</ele>
        <time>2022-07-16T08:51:31+0200</time>
      </trkpt>
      <trkpt lat="45.04153" lon="6.4183">
        <ele>1958.3</ele>
        <time>2022-07-16T08:51:35+0200</time>
      </trkpt>
      <trkpt lat="45.04158" lon="6.41827">
        <ele>1959.8</ele>
        <time>2022-07-16T08:51:39+0200</time>
      </trkpt>
      <trkpt lat="45.04161" lon="6.4182">
        <ele>1960.1</ele>
        <time>2022-07-16T08:51:43+0200</time>
      </trkpt>
      <trkpt lat="45.04165" lon="6.41814">
        <ele>1960.6</ele>
        <time>2022-07-16T08:51:47+0200</time>
      </trkpt>
      <trkpt lat="45.04168" lon="6.4181">
        <ele>1961.4</ele>
        <time>2022-07-16T08:51:51+0200</time>
      </trkpt>
      <trkpt lat="45.04173" lon="6.41809">
        <ele>1962.9</ele>
        <time>2022-07-16T08:51:54+0200</time>
      </trkpt>
      <trkpt lat="45.04176" lon="6.41804">
        <ele>1963.1</ele>
        <time>2022-07-16T08:51:59+0200</time>
      </trkpt>
      <trkpt lat="45.04181" lon="6.41799">
        <ele>1964</ele>
        <time>2022-07-16T08:52:03+0200</time>
      </trkpt>
      <trkpt lat="45.04185" lon="6.41794">
        <ele>1964.9</ele>
        <time>2022-07-16T08:52:06+0200</time>
      </trkpt>
      <trkpt lat="45.04189" lon="6.41787">
        <ele>1965.3</ele>
        <time>2022-07-16T08:52:10+0200</time>
      </trkpt>
      <trkpt lat="45.04193" lon="6.41785">
        <ele>1966.5</ele>
        <time>2022-07-16T08:52:14+0200</time>
      </trkpt>
      <trkpt lat="45.04199" lon="6.41782">
        <ele>1967.7</ele>
        <time>2022-07-16T08:52:19+0200</time>
      </trkpt>
      <trkpt lat="45.04205" lon="6.41779">
        <ele>1968.5</ele>
        <time>2022-07-16T08:52:23+0200</time>
      </trkpt>
      <trkpt lat="45.04211" lon="6.41778">
        <ele>1969.5</ele>
        <time>2022-07-16T08:52:27+0200</time>
      </trkpt>
      <trkpt lat="45.04216" lon="6.41774">
        <ele>1969.8</ele>
        <time>2022-07-16T08:52:31+0200</time>
      </trkpt>
      <trkpt lat="45.04221" lon="6.41772">
        <ele>1970.6</ele>
        <time>2022-07-16T08:52:39+0200</time>
      </trkpt>
      <trkpt lat="45.04224" lon="6.41777">
        <ele>1972.3</ele>
        <time>2022-07-16T08:53:21+0200</time>
      </trkpt>
      <trkpt lat="45.04229" lon="6.41776">
        <ele>1973.5</ele>
        <time>2022-07-16T08:53:24+0200</time>
      </trkpt>
      <trkpt lat="45.04234" lon="6.41772">
        <ele>1973.9</ele>
        <time>2022-07-16T08:53:28+0200</time>
      </trkpt>
      <trkpt lat="45.0424" lon="6.41771">
        <ele>1975.1</ele>
        <time>2022-07-16T08:53:31+0200</time>
      </trkpt>
      <trkpt lat="45.04247" lon="6.41771">
        <ele>1976.6</ele>
        <time>2022-07-16T08:53:35+0200</time>
      </trkpt>
      <trkpt lat="45.04251" lon="6.41768">
        <ele>1977.2</ele>
        <time>2022-07-16T08:53:38+0200</time>
      </trkpt>
      <trkpt lat="45.04257" lon="6.41767">
        <ele>1977.9</ele>
        <time>2022-07-16T08:53:41+0200</time>
      </trkpt>
      <trkpt lat="45.04262" lon="6.41765">
        <ele>1978.4</ele>
        <time>2022-07-16T08:53:44+0200</time>
      </trkpt>
      <trkpt lat="45.04266" lon="6.41762">
        <ele>1978.6</ele>
        <time>2022-07-16T08:53:47+0200</time>
      </trkpt>
      <trkpt lat="45.0427" lon="6.4176">
        <ele>1979</ele>
        <time>2022-07-16T08:53:51+0200</time>
      </trkpt>
      <trkpt lat="45.04275" lon="6.41756">
        <ele>1979.3</ele>
        <time>2022-07-16T08:53:54+0200</time>
      </trkpt>
      <trkpt lat="45.04279" lon="6.41754">
        <ele>1979.8</ele>
        <time>2022-07-16T08:53:57+0200</time>
      </trkpt>
      <trkpt lat="45.04284" lon="6.41751">
        <ele>1980.4</ele>
        <time>2022-07-16T08:54:00+0200</time>
      </trkpt>
      <trkpt lat="45.04288" lon="6.41747">
        <ele>1980.9</ele>
        <time>2022-07-16T08:54:04+0200</time>
      </trkpt>
      <trkpt lat="45.04293" lon="6.41744">
        <ele>1981.7</ele>
        <time>2022-07-16T08:54:07+0200</time>
      </trkpt>
      <trkpt lat="45.04297" lon="6.41739">
        <ele>1982.2</ele>
        <time>2022-07-16T08:54:11+0200</time>
      </trkpt>
      <trkpt lat="45.04301" lon="6.41735">
        <ele>1982.9</ele>
        <time>2022-07-16T08:54:14+0200</time>
      </trkpt>
      <trkpt lat="45.04305" lon="6.41733">
        <ele>1983.7</ele>
        <time>2022-07-16T08:54:18+0200</time>
      </trkpt>
      <trkpt lat="45.04309" lon="6.41725">
        <ele>1984.1</ele>
        <time>2022-07-16T08:54:22+0200</time>
      </trkpt>
      <trkpt lat="45.04313" lon="6.41721">
        <ele>1984.7</ele>
        <time>2022-07-16T08:54:25+0200</time>
      </trkpt>
      <trkpt lat="45.04316" lon="6.41714">
        <ele>1985</ele>
        <time>2022-07-16T08:54:28+0200</time>
      </trkpt>
      <trkpt lat="45.04318" lon="6.41709">
        <ele>1985.2</ele>
        <time>2022-07-16T08:54:31+0200</time>
      </trkpt>
      <trkpt lat="45.04323" lon="6.41705">
        <ele>1986</ele>
        <time>2022-07-16T08:54:34+0200</time>
      </trkpt>
      <trkpt lat="45.04328" lon="6.41701">
        <ele>1987.1</ele>
        <time>2022-07-16T08:54:38+0200</time>
      </trkpt>
      <trkpt lat="45.04332" lon="6.41698">
        <ele>1987.9</ele>
        <time>2022-07-16T08:54:42+0200</time>
      </trkpt>
      <trkpt lat="45.04336" lon="6.41695">
        <ele>1988.8</ele>
        <time>2022-07-16T08:54:45+0200</time>
      </trkpt>
      <trkpt lat="45.04341" lon="6.41692">
        <ele>1989.7</ele>
        <time>2022-07-16T08:54:49+0200</time>
      </trkpt>
      <trkpt lat="45.04344" lon="6.41686">
        <ele>1990.2</ele>
        <time>2022-07-16T08:54:53+0200</time>
      </trkpt>
      <trkpt lat="45.04348" lon="6.41683">
        <ele>1990.9</ele>
        <time>2022-07-16T08:54:56+0200</time>
      </trkpt>
      <trkpt lat="45.04351" lon="6.41679">
        <ele>1991.6</ele>
        <time>2022-07-16T08:54:59+0200</time>
      </trkpt>
      <trkpt lat="45.04356" lon="6.41674">
        <ele>1992.8</ele>
        <time>2022-07-16T08:55:02+0200</time>
      </trkpt>
      <trkpt lat="45.0436" lon="6.41669">
        <ele>1993.9</ele>
        <time>2022-07-16T08:55:06+0200</time>
      </trkpt>
      <trkpt lat="45.04366" lon="6.41667">
        <ele>1994.7</ele>
        <time>2022-07-16T08:55:09+0200</time>
      </trkpt>
      <trkpt lat="45.0437" lon="6.41663">
        <ele>1994.9</ele>
        <time>2022-07-16T08:55:13+0200</time>
      </trkpt>
      <trkpt lat="45.04376" lon="6.41659">
        <ele>1995.4</ele>
        <time>2022-07-16T08:55:17+0200</time>
      </trkpt>
      <trkpt lat="45.04379" lon="6.41654">
        <ele>1995.7</ele>
        <time>2022-07-16T08:55:21+0200</time>
      </trkpt>
      <trkpt lat="45.04385" lon="6.4165">
        <ele>1996.5</ele>
        <time>2022-07-16T08:55:25+0200</time>
      </trkpt>
      <trkpt lat="45.04389" lon="6.41647">
        <ele>1997.3</ele>
        <time>2022-07-16T08:55:29+0200</time>
      </trkpt>
      <trkpt lat="45.04393" lon="6.41643">
        <ele>1997.5</ele>
        <time>2022-07-16T08:55:32+0200</time>
      </trkpt>
      <trkpt lat="45.04398" lon="6.4164">
        <ele>1998</ele>
        <time>2022-07-16T08:55:36+0200</time>
      </trkpt>
      <trkpt lat="45.04404" lon="6.41637">
        <ele>1998.3</ele>
        <time>2022-07-16T08:55:39+0200</time>
      </trkpt>
      <trkpt lat="45.04409" lon="6.41634">
        <ele>1998.6</ele>
        <time>2022-07-16T08:55:42+0200</time>
      </trkpt>
      <trkpt lat="45.04414" lon="6.41629">
        <ele>1998.7</ele>
        <time>2022-07-16T08:55:45+0200</time>
      </trkpt>
      <trkpt lat="45.04418" lon="6.41626">
        <ele>1999.2</ele>
        <time>2022-07-16T08:55:48+0200</time>
      </trkpt>
      <trkpt lat="45.04423" lon="6.41622">
        <ele>1999.8</ele>
        <time>2022-07-16T08:55:51+0200</time>
      </trkpt>
      <trkpt lat="45.04427" lon="6.41617">
        <ele>2000.1</ele>
        <time>2022-07-16T08:55:53+0200</time>
      </trkpt>
      <trkpt lat="45.04431" lon="6.41613">
        <ele>2000.6</ele>
        <time>2022-07-16T08:55:56+0200</time>
      </trkpt>
      <trkpt lat="45.04435" lon="6.41611">
        <ele>2001.3</ele>
        <time>2022-07-16T08:55:59+0200</time>
      </trkpt>
      <trkpt lat="45.04439" lon="6.41608">
        <ele>2001.8</ele>
        <time>2022-07-16T08:56:02+0200</time>
      </trkpt>
      <trkpt lat="45.04445" lon="6.41606">
        <ele>2002.7</ele>
        <time>2022-07-16T08:56:05+0200</time>
      </trkpt>
      <trkpt lat="45.0445" lon="6.41603">
        <ele>2003</ele>
        <time>2022-07-16T08:56:08+0200</time>
      </trkpt>
      <trkpt lat="45.04454" lon="6.41599">
        <ele>2003.3</ele>
        <time>2022-07-16T08:56:11+0200</time>
      </trkpt>
      <trkpt lat="45.0446" lon="6.41597">
        <ele>2004</ele>
        <time>2022-07-16T08:56:14+0200</time>
      </trkpt>
      <trkpt lat="45.04464" lon="6.41594">
        <ele>2004.5</ele>
        <time>2022-07-16T08:56:17+0200</time>
      </trkpt>
      <trkpt lat="45.04469" lon="6.41592">
        <ele>2005.2</ele>
        <time>2022-07-16T08:56:20+0200</time>
      </trkpt>
      <trkpt lat="45.04474" lon="6.41591">
        <ele>2005.9</ele>
        <time>2022-07-16T08:56:23+0200</time>
      </trkpt>
      <trkpt lat="45.0448" lon="6.4159">
        <ele>2006.5</ele>
        <time>2022-07-16T08:56:26+0200</time>
      </trkpt>
      <trkpt lat="45.04484" lon="6.41588">
        <ele>2007.1</ele>
        <time>2022-07-16T08:56:28+0200</time>
      </trkpt>
      <trkpt lat="45.04489" lon="6.41586">
        <ele>2007.7</ele>
        <time>2022-07-16T08:56:31+0200</time>
      </trkpt>
      <trkpt lat="45.04495" lon="6.41584">
        <ele>2008.4</ele>
        <time>2022-07-16T08:56:35+0200</time>
      </trkpt>
      <trkpt lat="45.045" lon="6.4158">
        <ele>2008.9</ele>
        <time>2022-07-16T08:56:39+0200</time>
      </trkpt>
      <trkpt lat="45.04504" lon="6.41579">
        <ele>2009.3</ele>
        <time>2022-07-16T08:56:44+0200</time>
      </trkpt>
      <trkpt lat="45.0451" lon="6.41578">
        <ele>2009.9</ele>
        <time>2022-07-16T08:56:48+0200</time>
      </trkpt>
      <trkpt lat="45.04516" lon="6.41576">
        <ele>2010.7</ele>
        <time>2022-07-16T08:56:52+0200</time>
      </trkpt>
      <trkpt lat="45.04522" lon="6.41575">
        <ele>2011.3</ele>
        <time>2022-07-16T08:56:55+0200</time>
      </trkpt>
      <trkpt lat="45.04526" lon="6.41573">
        <ele>2011.8</ele>
        <time>2022-07-16T08:56:58+0200</time>
      </trkpt>
      <trkpt lat="45.04531" lon="6.41572">
        <ele>2012.5</ele>
        <time>2022-07-16T08:57:01+0200</time>
      </trkpt>
      <trkpt lat="45.04536" lon="6.41571">
        <ele>2013.3</ele>
        <time>2022-07-16T08:57:05+0200</time>
      </trkpt>
      <trkpt lat="45.04541" lon="6.4157">
        <ele>2014.1</ele>
        <time>2022-07-16T08:57:08+0200</time>
      </trkpt>
      <trkpt lat="45.04546" lon="6.41569">
        <ele>2014.9</ele>
        <time>2022-07-16T08:57:12+0200</time>
      </trkpt>
      <trkpt lat="45.0455" lon="6.41566">
        <ele>2015.8</ele>
        <time>2022-07-16T08:57:16+0200</time>
      </trkpt>
      <trkpt lat="45.04555" lon="6.41565">
        <ele>2016.6</ele>
        <time>2022-07-16T08:57:20+0200</time>
      </trkpt>
      <trkpt lat="45.0456" lon="6.41563">
        <ele>2017.9</ele>
        <time>2022-07-16T08:57:23+0200</time>
      </trkpt>
      <trkpt lat="45.04564" lon="6.41561">
        <ele>2019.1</ele>
        <time>2022-07-16T08:57:26+0200</time>
      </trkpt>
      <trkpt lat="45.04569" lon="6.41558">
        <ele>2020.3</ele>
        <time>2022-07-16T08:57:30+0200</time>
      </trkpt>
      <trkpt lat="45.04574" lon="6.41554">
        <ele>2021.6</ele>
        <time>2022-07-16T08:57:35+0200</time>
      </trkpt>
      <trkpt lat="45.04577" lon="6.4155">
        <ele>2022.4</ele>
        <time>2022-07-16T08:57:39+0200</time>
      </trkpt>
      <trkpt lat="45.04579" lon="6.41543">
        <ele>2022.9</ele>
        <time>2022-07-16T08:57:44+0200</time>
      </trkpt>
      <trkpt lat="45.0458" lon="6.41536">
        <ele>2023.2</ele>
        <time>2022-07-16T08:57:48+0200</time>
      </trkpt>
      <trkpt lat="45.04583" lon="6.41531">
        <ele>2023.9</ele>
        <time>2022-07-16T08:57:52+0200</time>
      </trkpt>
      <trkpt lat="45.04587" lon="6.41531">
        <ele>2025</ele>
        <time>2022-07-16T08:57:57+0200</time>
      </trkpt>
      <trkpt lat="45.04591" lon="6.41527">
        <ele>2025.9</ele>
        <time>2022-07-16T08:58:01+0200</time>
      </trkpt>
      <trkpt lat="45.04596" lon="6.41528">
        <ele>2027.2</ele>
        <time>2022-07-16T08:58:05+0200</time>
      </trkpt>
      <trkpt lat="45.04599" lon="6.41533">
        <ele>2028.4</ele>
        <time>2022-07-16T08:58:09+0200</time>
      </trkpt>
      <trkpt lat="45.04602" lon="6.41539">
        <ele>2029.8</ele>
        <time>2022-07-16T08:58:12+0200</time>
      </trkpt>
      <trkpt lat="45.04602" lon="6.41545">
        <ele>2030.3</ele>
        <time>2022-07-16T08:58:15+0200</time>
      </trkpt>
      <trkpt lat="45.046" lon="6.41553">
        <ele>2030.5</ele>
        <time>2022-07-16T08:58:19+0200</time>
      </trkpt>
      <trkpt lat="45.04601" lon="6.41561">
        <ele>2031.5</ele>
        <time>2022-07-16T08:58:23+0200</time>
      </trkpt>
      <trkpt lat="45.046" lon="6.41569">
        <ele>2032.2</ele>
        <time>2022-07-16T08:58:27+0200</time>
      </trkpt>
      <trkpt lat="45.04601" lon="6.41576">
        <ele>2033</ele>
        <time>2022-07-16T08:58:31+0200</time>
      </trkpt>
      <trkpt lat="45.046" lon="6.41584">
        <ele>2033.3</ele>
        <time>2022-07-16T08:58:35+0200</time>
      </trkpt>
      <trkpt lat="45.046" lon="6.41591">
        <ele>2033.5</ele>
        <time>2022-07-16T08:58:38+0200</time>
      </trkpt>
      <trkpt lat="45.04602" lon="6.416">
        <ele>2034.5</ele>
        <time>2022-07-16T08:58:42+0200</time>
      </trkpt>
      <trkpt lat="45.04603" lon="6.41607">
        <ele>2035</ele>
        <time>2022-07-16T08:58:45+0200</time>
      </trkpt>
      <trkpt lat="45.04604" lon="6.41615">
        <ele>2035.2</ele>
        <time>2022-07-16T08:58:50+0200</time>
      </trkpt>
      <trkpt lat="45.04606" lon="6.41621">
        <ele>2035.9</ele>
        <time>2022-07-16T08:58:54+0200</time>
      </trkpt>
      <trkpt lat="45.04608" lon="6.41628">
        <ele>2036.2</ele>
        <time>2022-07-16T08:58:58+0200</time>
      </trkpt>
      <trkpt lat="45.04611" lon="6.41634">
        <ele>2037.2</ele>
        <time>2022-07-16T08:59:03+0200</time>
      </trkpt>
      <trkpt lat="45.04614" lon="6.4164">
        <ele>2038</ele>
        <time>2022-07-16T08:59:06+0200</time>
      </trkpt>
      <trkpt lat="45.04617" lon="6.41646">
        <ele>2038.8</ele>
        <time>2022-07-16T08:59:10+0200</time>
      </trkpt>
      <trkpt lat="45.0462" lon="6.41652">
        <ele>2039.1</ele>
        <time>2022-07-16T08:59:13+0200</time>
      </trkpt>
      <trkpt lat="45.04621" lon="6.41659">
        <ele>2039</ele>
        <time>2022-07-16T08:59:18+0200</time>
      </trkpt>
      <trkpt lat="45.04625" lon="6.41662">
        <ele>2040</ele>
        <time>2022-07-16T08:59:21+0200</time>
      </trkpt>
      <trkpt lat="45.04629" lon="6.41667">
        <ele>2041.2</ele>
        <time>2022-07-16T08:59:25+0200</time>
      </trkpt>
      <trkpt lat="45.04633" lon="6.41672">
        <ele>2042</ele>
        <time>2022-07-16T08:59:29+0200</time>
      </trkpt>
      <trkpt lat="45.04637" lon="6.41677">
        <ele>2042.8</ele>
        <time>2022-07-16T08:59:34+0200</time>
      </trkpt>
      <trkpt lat="45.04638" lon="6.41684">
        <ele>2042.4</ele>
        <time>2022-07-16T08:59:39+0200</time>
      </trkpt>
      <trkpt lat="45.04643" lon="6.41688">
        <ele>2043.6</ele>
        <time>2022-07-16T08:59:42+0200</time>
      </trkpt>
      <trkpt lat="45.04647" lon="6.41694">
        <ele>2044.5</ele>
        <time>2022-07-16T08:59:46+0200</time>
      </trkpt>
      <trkpt lat="45.04651" lon="6.41698">
        <ele>2045.9</ele>
        <time>2022-07-16T08:59:48+0200</time>
      </trkpt>
      <trkpt lat="45.04654" lon="6.41702">
        <ele>2047.1</ele>
        <time>2022-07-16T08:59:51+0200</time>
      </trkpt>
      <trkpt lat="45.04659" lon="6.41706">
        <ele>2048.5</ele>
        <time>2022-07-16T08:59:55+0200</time>
      </trkpt>
      <trkpt lat="45.04662" lon="6.41711">
        <ele>2049.1</ele>
        <time>2022-07-16T08:59:59+0200</time>
      </trkpt>
      <trkpt lat="45.04667" lon="6.41717">
        <ele>2049.7</ele>
        <time>2022-07-16T09:00:06+0200</time>
      </trkpt>
      <trkpt lat="45.0467" lon="6.41724">
        <ele>2050.2</ele>
        <time>2022-07-16T09:00:11+0200</time>
      </trkpt>
      <trkpt lat="45.04672" lon="6.41731">
        <ele>2051</ele>
        <time>2022-07-16T09:00:14+0200</time>
      </trkpt>
      <trkpt lat="45.04676" lon="6.41734">
        <ele>2052.5</ele>
        <time>2022-07-16T09:00:18+0200</time>
      </trkpt>
      <trkpt lat="45.04681" lon="6.4174">
        <ele>2053.9</ele>
        <time>2022-07-16T09:00:24+0200</time>
      </trkpt>
      <trkpt lat="45.04686" lon="6.41741">
        <ele>2055.4</ele>
        <time>2022-07-16T09:00:28+0200</time>
      </trkpt>
      <trkpt lat="45.04689" lon="6.41746">
        <ele>2055.9</ele>
        <time>2022-07-16T09:00:31+0200</time>
      </trkpt>
      <trkpt lat="45.04693" lon="6.4175">
        <ele>2056.6</ele>
        <time>2022-07-16T09:00:35+0200</time>
      </trkpt>
      <trkpt lat="45.04695" lon="6.41756">
        <ele>2057.9</ele>
        <time>2022-07-16T09:00:39+0200</time>
      </trkpt>
      <trkpt lat="45.04691" lon="6.41759">
        <ele>2057.4</ele>
        <time>2022-07-16T09:00:42+0200</time>
      </trkpt>
      <trkpt lat="45.04689" lon="6.41765">
        <ele>2057.9</ele>
        <time>2022-07-16T09:00:46+0200</time>
      </trkpt>
      <trkpt lat="45.04686" lon="6.41771">
        <ele>2057.9</ele>
        <time>2022-07-16T09:00:50+0200</time>
      </trkpt>
      <trkpt lat="45.04682" lon="6.41775">
        <ele>2057.5</ele>
        <time>2022-07-16T09:00:54+0200</time>
      </trkpt>
      <trkpt lat="45.04679" lon="6.41782">
        <ele>2057.9</ele>
        <time>2022-07-16T09:00:57+0200</time>
      </trkpt>
      <trkpt lat="45.04676" lon="6.41788">
        <ele>2058.6</ele>
        <time>2022-07-16T09:01:01+0200</time>
      </trkpt>
      <trkpt lat="45.04674" lon="6.41794">
        <ele>2059.2</ele>
        <time>2022-07-16T09:01:04+0200</time>
      </trkpt>
      <trkpt lat="45.04671" lon="6.41799">
        <ele>2059.6</ele>
        <time>2022-07-16T09:01:07+0200</time>
      </trkpt>
      <trkpt lat="45.04668" lon="6.41807">
        <ele>2060.7</ele>
        <time>2022-07-16T09:01:11+0200</time>
      </trkpt>
      <trkpt lat="45.04664" lon="6.41813">
        <ele>2061.2</ele>
        <time>2022-07-16T09:01:14+0200</time>
      </trkpt>
      <trkpt lat="45.04661" lon="6.41819">
        <ele>2061.9</ele>
        <time>2022-07-16T09:01:18+0200</time>
      </trkpt>
      <trkpt lat="45.04656" lon="6.41824">
        <ele>2062.4</ele>
        <time>2022-07-16T09:01:22+0200</time>
      </trkpt>
      <trkpt lat="45.04655" lon="6.4183">
        <ele>2063.6</ele>
        <time>2022-07-16T09:01:25+0200</time>
      </trkpt>
      <trkpt lat="45.04651" lon="6.41834">
        <ele>2063.6</ele>
        <time>2022-07-16T09:01:29+0200</time>
      </trkpt>
      <trkpt lat="45.04648" lon="6.41841">
        <ele>2064.1</ele>
        <time>2022-07-16T09:01:33+0200</time>
      </trkpt>
      <trkpt lat="45.04647" lon="6.41847">
        <ele>2064.7</ele>
        <time>2022-07-16T09:01:37+0200</time>
      </trkpt>
      <trkpt lat="45.04645" lon="6.41853">
        <ele>2065.2</ele>
        <time>2022-07-16T09:01:40+0200</time>
      </trkpt>
      <trkpt lat="45.04644" lon="6.41861">
        <ele>2066.1</ele>
        <time>2022-07-16T09:01:44+0200</time>
      </trkpt>
      <trkpt lat="45.04645" lon="6.41868">
        <ele>2067.2</ele>
        <time>2022-07-16T09:01:47+0200</time>
      </trkpt>
      <trkpt lat="45.04643" lon="6.41875">
        <ele>2067.9</ele>
        <time>2022-07-16T09:01:50+0200</time>
      </trkpt>
      <trkpt lat="45.04641" lon="6.41881">
        <ele>2068.3</ele>
        <time>2022-07-16T09:01:55+0200</time>
      </trkpt>
      <trkpt lat="45.04639" lon="6.41888">
        <ele>2069</ele>
        <time>2022-07-16T09:01:58+0200</time>
      </trkpt>
      <trkpt lat="45.04636" lon="6.41892">
        <ele>2069.1</ele>
        <time>2022-07-16T09:02:03+0200</time>
      </trkpt>
      <trkpt lat="45.04632" lon="6.41898">
        <ele>2069.6</ele>
        <time>2022-07-16T09:02:05+0200</time>
      </trkpt>
      <trkpt lat="45.04629" lon="6.41902">
        <ele>2069.7</ele>
        <time>2022-07-16T09:02:07+0200</time>
      </trkpt>
      <trkpt lat="45.04625" lon="6.41908">
        <ele>2070.1</ele>
        <time>2022-07-16T09:02:10+0200</time>
      </trkpt>
      <trkpt lat="45.04623" lon="6.41914">
        <ele>2070.8</ele>
        <time>2022-07-16T09:02:14+0200</time>
      </trkpt>
      <trkpt lat="45.04621" lon="6.41921">
        <ele>2071.2</ele>
        <time>2022-07-16T09:02:18+0200</time>
      </trkpt>
      <trkpt lat="45.04618" lon="6.41928">
        <ele>2071.4</ele>
        <time>2022-07-16T09:02:22+0200</time>
      </trkpt>
      <trkpt lat="45.04616" lon="6.41936">
        <ele>2071.9</ele>
        <time>2022-07-16T09:02:25+0200</time>
      </trkpt>
      <trkpt lat="45.04615" lon="6.41944">
        <ele>2072.6</ele>
        <time>2022-07-16T09:02:29+0200</time>
      </trkpt>
      <trkpt lat="45.04613" lon="6.41953">
        <ele>2073.2</ele>
        <time>2022-07-16T09:02:33+0200</time>
      </trkpt>
      <trkpt lat="45.04612" lon="6.4196">
        <ele>2073.9</ele>
        <time>2022-07-16T09:02:36+0200</time>
      </trkpt>
      <trkpt lat="45.04611" lon="6.41966">
        <ele>2074.1</ele>
        <time>2022-07-16T09:02:40+0200</time>
      </trkpt>
      <trkpt lat="45.04609" lon="6.41974">
        <ele>2074.5</ele>
        <time>2022-07-16T09:02:44+0200</time>
      </trkpt>
      <trkpt lat="45.04608" lon="6.4198">
        <ele>2074.8</ele>
        <time>2022-07-16T09:02:48+0200</time>
      </trkpt>
      <trkpt lat="45.04609" lon="6.41986">
        <ele>2076.3</ele>
        <time>2022-07-16T09:02:51+0200</time>
      </trkpt>
      <trkpt lat="45.0461" lon="6.41995">
        <ele>2077.9</ele>
        <time>2022-07-16T09:02:54+0200</time>
      </trkpt>
      <trkpt lat="45.0461" lon="6.42002">
        <ele>2078.7</ele>
        <time>2022-07-16T09:02:58+0200</time>
      </trkpt>
      <trkpt lat="45.04609" lon="6.42009">
        <ele>2079</ele>
        <time>2022-07-16T09:03:02+0200</time>
      </trkpt>
      <trkpt lat="45.04611" lon="6.42016">
        <ele>2080</ele>
        <time>2022-07-16T09:03:05+0200</time>
      </trkpt>
      <trkpt lat="45.04612" lon="6.42024">
        <ele>2081</ele>
        <time>2022-07-16T09:03:09+0200</time>
      </trkpt>
      <trkpt lat="45.04615" lon="6.4203">
        <ele>2081.6</ele>
        <time>2022-07-16T09:03:13+0200</time>
      </trkpt>
      <trkpt lat="45.04618" lon="6.42036">
        <ele>2082</ele>
        <time>2022-07-16T09:03:16+0200</time>
      </trkpt>
      <trkpt lat="45.04621" lon="6.42042">
        <ele>2082.5</ele>
        <time>2022-07-16T09:03:19+0200</time>
      </trkpt>
      <trkpt lat="45.04626" lon="6.42041">
        <ele>2083.5</ele>
        <time>2022-07-16T09:03:24+0200</time>
      </trkpt>
      <trkpt lat="45.04633" lon="6.42039">
        <ele>2084.9</ele>
        <time>2022-07-16T09:03:28+0200</time>
      </trkpt>
      <trkpt lat="45.04637" lon="6.42035">
        <ele>2085.6</ele>
        <time>2022-07-16T09:03:32+0200</time>
      </trkpt>
      <trkpt lat="45.04641" lon="6.42032">
        <ele>2086.5</ele>
        <time>2022-07-16T09:03:36+0200</time>
      </trkpt>
      <trkpt lat="45.04646" lon="6.4203">
        <ele>2087.6</ele>
        <time>2022-07-16T09:03:40+0200</time>
      </trkpt>
      <trkpt lat="45.04652" lon="6.42027">
        <ele>2088.7</ele>
        <time>2022-07-16T09:03:44+0200</time>
      </trkpt>
      <trkpt lat="45.04657" lon="6.42022">
        <ele>2089.4</ele>
        <time>2022-07-16T09:03:49+0200</time>
      </trkpt>
      <trkpt lat="45.04659" lon="6.42017">
        <ele>2089.3</ele>
        <time>2022-07-16T09:03:52+0200</time>
      </trkpt>
      <trkpt lat="45.04665" lon="6.42015">
        <ele>2090.2</ele>
        <time>2022-07-16T09:03:58+0200</time>
      </trkpt>
      <trkpt lat="45.04668" lon="6.42011">
        <ele>2090.7</ele>
        <time>2022-07-16T09:04:01+0200</time>
      </trkpt>
      <trkpt lat="45.04673" lon="6.42007">
        <ele>2091.9</ele>
        <time>2022-07-16T09:04:05+0200</time>
      </trkpt>
      <trkpt lat="45.04678" lon="6.42005">
        <ele>2093.2</ele>
        <time>2022-07-16T09:04:09+0200</time>
      </trkpt>
      <trkpt lat="45.04682" lon="6.42001">
        <ele>2094.1</ele>
        <time>2022-07-16T09:04:12+0200</time>
      </trkpt>
      <trkpt lat="45.04687" lon="6.41997">
        <ele>2095</ele>
        <time>2022-07-16T09:04:16+0200</time>
      </trkpt>
      <trkpt lat="45.04691" lon="6.41994">
        <ele>2095.7</ele>
        <time>2022-07-16T09:04:19+0200</time>
      </trkpt>
      <trkpt lat="45.04695" lon="6.4199">
        <ele>2096.1</ele>
        <time>2022-07-16T09:04:22+0200</time>
      </trkpt>
      <trkpt lat="45.04699" lon="6.41986">
        <ele>2097.2</ele>
        <time>2022-07-16T09:04:27+0200</time>
      </trkpt>
      <trkpt lat="45.04703" lon="6.41982">
        <ele>2097.6</ele>
        <time>2022-07-16T09:04:31+0200</time>
      </trkpt>
      <trkpt lat="45.04708" lon="6.41979">
        <ele>2098.4</ele>
        <time>2022-07-16T09:04:35+0200</time>
      </trkpt>
      <trkpt lat="45.04713" lon="6.41976">
        <ele>2099.8</ele>
        <time>2022-07-16T09:04:40+0200</time>
      </trkpt>
      <trkpt lat="45.04717" lon="6.41971">
        <ele>2100</ele>
        <time>2022-07-16T09:04:45+0200</time>
      </trkpt>
      <trkpt lat="45.0472" lon="6.41965">
        <ele>2100.4</ele>
        <time>2022-07-16T09:04:48+0200</time>
      </trkpt>
      <trkpt lat="45.04724" lon="6.4196">
        <ele>2100.8</ele>
        <time>2022-07-16T09:04:52+0200</time>
      </trkpt>
      <trkpt lat="45.04728" lon="6.41953">
        <ele>2101.4</ele>
        <time>2022-07-16T09:04:56+0200</time>
      </trkpt>
      <trkpt lat="45.04731" lon="6.41947">
        <ele>2101.8</ele>
        <time>2022-07-16T09:04:59+0200</time>
      </trkpt>
      <trkpt lat="45.04735" lon="6.4194">
        <ele>2102.7</ele>
        <time>2022-07-16T09:05:03+0200</time>
      </trkpt>
      <trkpt lat="45.04739" lon="6.41936">
        <ele>2103.7</ele>
        <time>2022-07-16T09:05:08+0200</time>
      </trkpt>
      <trkpt lat="45.04743" lon="6.41932">
        <ele>2104.9</ele>
        <time>2022-07-16T09:05:13+0200</time>
      </trkpt>
      <trkpt lat="45.04746" lon="6.41927">
        <ele>2105.4</ele>
        <time>2022-07-16T09:05:16+0200</time>
      </trkpt>
      <trkpt lat="45.04749" lon="6.4192">
        <ele>2106.1</ele>
        <time>2022-07-16T09:05:20+0200</time>
      </trkpt>
      <trkpt lat="45.04753" lon="6.41915">
        <ele>2107</ele>
        <time>2022-07-16T09:05:23+0200</time>
      </trkpt>
      <trkpt lat="45.04757" lon="6.4191">
        <ele>2107.9</ele>
        <time>2022-07-16T09:05:28+0200</time>
      </trkpt>
      <trkpt lat="45.0476" lon="6.41902">
        <ele>2108.2</ele>
        <time>2022-07-16T09:05:31+0200</time>
      </trkpt>
      <trkpt lat="45.04764" lon="6.41896">
        <ele>2108.9</ele>
        <time>2022-07-16T09:05:36+0200</time>
      </trkpt>
      <trkpt lat="45.04766" lon="6.41892">
        <ele>2109.5</ele>
        <time>2022-07-16T09:05:39+0200</time>
      </trkpt>
      <trkpt lat="45.04771" lon="6.41888">
        <ele>2110.7</ele>
        <time>2022-07-16T09:05:43+0200</time>
      </trkpt>
      <trkpt lat="45.04775" lon="6.41884">
        <ele>2112.1</ele>
        <time>2022-07-16T09:05:47+0200</time>
      </trkpt>
      <trkpt lat="45.04779" lon="6.4188">
        <ele>2113.6</ele>
        <time>2022-07-16T09:05:52+0200</time>
      </trkpt>
      <trkpt lat="45.04783" lon="6.41875">
        <ele>2114.1</ele>
        <time>2022-07-16T09:05:55+0200</time>
      </trkpt>
      <trkpt lat="45.04787" lon="6.41872">
        <ele>2115.3</ele>
        <time>2022-07-16T09:06:01+0200</time>
      </trkpt>
      <trkpt lat="45.04792" lon="6.41869">
        <ele>2116.7</ele>
        <time>2022-07-16T09:06:06+0200</time>
      </trkpt>
      <trkpt lat="45.04797" lon="6.41868">
        <ele>2118</ele>
        <time>2022-07-16T09:06:10+0200</time>
      </trkpt>
      <trkpt lat="45.04799" lon="6.4186">
        <ele>2117.9</ele>
        <time>2022-07-16T09:06:14+0200</time>
      </trkpt>
      <trkpt lat="45.04801" lon="6.41852">
        <ele>2117.4</ele>
        <time>2022-07-16T09:06:17+0200</time>
      </trkpt>
      <trkpt lat="45.04803" lon="6.41846">
        <ele>2117.5</ele>
        <time>2022-07-16T09:06:20+0200</time>
      </trkpt>
      <trkpt lat="45.04807" lon="6.41841">
        <ele>2118.5</ele>
        <time>2022-07-16T09:06:23+0200</time>
      </trkpt>
      <trkpt lat="45.04811" lon="6.41836">
        <ele>2119.6</ele>
        <time>2022-07-16T09:06:26+0200</time>
      </trkpt>
      <trkpt lat="45.04815" lon="6.41831">
        <ele>2121.2</ele>
        <time>2022-07-16T09:06:30+0200</time>
      </trkpt>
      <trkpt lat="45.04816" lon="6.41823">
        <ele>2121.3</ele>
        <time>2022-07-16T09:06:34+0200</time>
      </trkpt>
      <trkpt lat="45.04817" lon="6.41816">
        <ele>2121.9</ele>
        <time>2022-07-16T09:06:37+0200</time>
      </trkpt>
      <trkpt lat="45.04817" lon="6.41809">
        <ele>2121.5</ele>
        <time>2022-07-16T09:06:40+0200</time>
      </trkpt>
      <trkpt lat="45.04818" lon="6.41801">
        <ele>2121.6</ele>
        <time>2022-07-16T09:06:44+0200</time>
      </trkpt>
      <trkpt lat="45.04819" lon="6.41792">
        <ele>2121.7</ele>
        <time>2022-07-16T09:06:48+0200</time>
      </trkpt>
      <trkpt lat="45.04822" lon="6.41786">
        <ele>2122.9</ele>
        <time>2022-07-16T09:06:52+0200</time>
      </trkpt>
      <trkpt lat="45.04825" lon="6.41781">
        <ele>2123.8</ele>
        <time>2022-07-16T09:06:56+0200</time>
      </trkpt>
      <trkpt lat="45.04829" lon="6.41777">
        <ele>2125.2</ele>
        <time>2022-07-16T09:06:59+0200</time>
      </trkpt>
      <trkpt lat="45.04832" lon="6.41772">
        <ele>2126.2</ele>
        <time>2022-07-16T09:07:05+0200</time>
      </trkpt>
      <trkpt lat="45.04834" lon="6.41766">
        <ele>2127</ele>
        <time>2022-07-16T09:07:09+0200</time>
      </trkpt>
      <trkpt lat="45.04838" lon="6.41762">
        <ele>2128.8</ele>
        <time>2022-07-16T09:07:13+0200</time>
      </trkpt>
      <trkpt lat="45.0484" lon="6.41754">
        <ele>2129.5</ele>
        <time>2022-07-16T09:07:17+0200</time>
      </trkpt>
      <trkpt lat="45.04841" lon="6.41746">
        <ele>2130</ele>
        <time>2022-07-16T09:07:20+0200</time>
      </trkpt>
      <trkpt lat="45.04843" lon="6.41739">
        <ele>2130.9</ele>
        <time>2022-07-16T09:07:23+0200</time>
      </trkpt>
      <trkpt lat="45.04842" lon="6.41731">
        <ele>2130.5</ele>
        <time>2022-07-16T09:07:26+0200</time>
      </trkpt>
      <trkpt lat="45.04844" lon="6.41725">
        <ele>2131.5</ele>
        <time>2022-07-16T09:07:29+0200</time>
      </trkpt>
      <trkpt lat="45.04844" lon="6.41717">
        <ele>2131.4</ele>
        <time>2022-07-16T09:07:32+0200</time>
      </trkpt>
      <trkpt lat="45.04843" lon="6.41708">
        <ele>2131.5</ele>
        <time>2022-07-16T09:07:36+0200</time>
      </trkpt>
      <trkpt lat="45.04845" lon="6.417">
        <ele>2132.6</ele>
        <time>2022-07-16T09:07:41+0200</time>
      </trkpt>
      <trkpt lat="45.04848" lon="6.41694">
        <ele>2133.7</ele>
        <time>2022-07-16T09:07:44+0200</time>
      </trkpt>
      <trkpt lat="45.0485" lon="6.41688">
        <ele>2134.6</ele>
        <time>2022-07-16T09:07:47+0200</time>
      </trkpt>
      <trkpt lat="45.0485" lon="6.41679">
        <ele>2135.1</ele>
        <time>2022-07-16T09:07:51+0200</time>
      </trkpt>
      <trkpt lat="45.0485" lon="6.41672">
        <ele>2134.9</ele>
        <time>2022-07-16T09:07:53+0200</time>
      </trkpt>
      <trkpt lat="45.04848" lon="6.41665">
        <ele>2134.3</ele>
        <time>2022-07-16T09:07:56+0200</time>
      </trkpt>
      <trkpt lat="45.04849" lon="6.41657">
        <ele>2135.2</ele>
        <time>2022-07-16T09:07:59+0200</time>
      </trkpt>
      <trkpt lat="45.04848" lon="6.4165">
        <ele>2135.4</ele>
        <time>2022-07-16T09:08:03+0200</time>
      </trkpt>
      <trkpt lat="45.04849" lon="6.41643">
        <ele>2136.3</ele>
        <time>2022-07-16T09:08:07+0200</time>
      </trkpt>
      <trkpt lat="45.0485" lon="6.41636">
        <ele>2136.8</ele>
        <time>2022-07-16T09:08:10+0200</time>
      </trkpt>
      <trkpt lat="45.04851" lon="6.41629">
        <ele>2137.2</ele>
        <time>2022-07-16T09:08:14+0200</time>
      </trkpt>
      <trkpt lat="45.0485" lon="6.41622">
        <ele>2137</ele>
        <time>2022-07-16T09:08:17+0200</time>
      </trkpt>
      <trkpt lat="45.04851" lon="6.41616">
        <ele>2137.5</ele>
        <time>2022-07-16T09:08:21+0200</time>
      </trkpt>
      <trkpt lat="45.04853" lon="6.4161">
        <ele>2138.6</ele>
        <time>2022-07-16T09:08:25+0200</time>
      </trkpt>
      <trkpt lat="45.04857" lon="6.41605">
        <ele>2139.9</ele>
        <time>2022-07-16T09:08:30+0200</time>
      </trkpt>
      <trkpt lat="45.04861" lon="6.41601">
        <ele>2141.2</ele>
        <time>2022-07-16T09:08:34+0200</time>
      </trkpt>
      <trkpt lat="45.04864" lon="6.41596">
        <ele>2142.1</ele>
        <time>2022-07-16T09:08:39+0200</time>
      </trkpt>
      <trkpt lat="45.04867" lon="6.41591">
        <ele>2142.9</ele>
        <time>2022-07-16T09:08:42+0200</time>
      </trkpt>
      <trkpt lat="45.0487" lon="6.41584">
        <ele>2143.7</ele>
        <time>2022-07-16T09:08:46+0200</time>
      </trkpt>
      <trkpt lat="45.04873" lon="6.41579">
        <ele>2144.1</ele>
        <time>2022-07-16T09:08:49+0200</time>
      </trkpt>
      <trkpt lat="45.04877" lon="6.41575">
        <ele>2145.1</ele>
        <time>2022-07-16T09:08:53+0200</time>
      </trkpt>
      <trkpt lat="45.04881" lon="6.41571">
        <ele>2145.9</ele>
        <time>2022-07-16T09:08:56+0200</time>
      </trkpt>
      <trkpt lat="45.04887" lon="6.41567">
        <ele>2147.7</ele>
        <time>2022-07-16T09:09:01+0200</time>
      </trkpt>
      <trkpt lat="45.04891" lon="6.41562">
        <ele>2148.8</ele>
        <time>2022-07-16T09:09:05+0200</time>
      </trkpt>
      <trkpt lat="45.04894" lon="6.41557">
        <ele>2149.3</ele>
        <time>2022-07-16T09:09:09+0200</time>
      </trkpt>
      <trkpt lat="45.04899" lon="6.41555">
        <ele>2151</ele>
        <time>2022-07-16T09:09:12+0200</time>
      </trkpt>
      <trkpt lat="45.04903" lon="6.41548">
        <ele>2152</ele>
        <time>2022-07-16T09:09:17+0200</time>
      </trkpt>
      <trkpt lat="45.04907" lon="6.41542">
        <ele>2152.8</ele>
        <time>2022-07-16T09:09:21+0200</time>
      </trkpt>
      <trkpt lat="45.04908" lon="6.41535">
        <ele>2152.8</ele>
        <time>2022-07-16T09:09:24+0200</time>
      </trkpt>
      <trkpt lat="45.04908" lon="6.41526">
        <ele>2152.4</ele>
        <time>2022-07-16T09:09:27+0200</time>
      </trkpt>
      <trkpt lat="45.04909" lon="6.41519">
        <ele>2153.5</ele>
        <time>2022-07-16T09:09:29+0200</time>
      </trkpt>
      <trkpt lat="45.04908" lon="6.41512">
        <ele>2153.9</ele>
        <time>2022-07-16T09:09:33+0200</time>
      </trkpt>
      <trkpt lat="45.04906" lon="6.41506">
        <ele>2153.8</ele>
        <time>2022-07-16T09:09:37+0200</time>
      </trkpt>
      <trkpt lat="45.04903" lon="6.41498">
        <ele>2153.4</ele>
        <time>2022-07-16T09:09:41+0200</time>
      </trkpt>
      <trkpt lat="45.04902" lon="6.41491">
        <ele>2153.7</ele>
        <time>2022-07-16T09:09:45+0200</time>
      </trkpt>
      <trkpt lat="45.04901" lon="6.41484">
        <ele>2154</ele>
        <time>2022-07-16T09:09:49+0200</time>
      </trkpt>
      <trkpt lat="45.04901" lon="6.41477">
        <ele>2154.8</ele>
        <time>2022-07-16T09:09:53+0200</time>
      </trkpt>
      <trkpt lat="45.04901" lon="6.4147">
        <ele>2155.5</ele>
        <time>2022-07-16T09:09:56+0200</time>
      </trkpt>
      <trkpt lat="45.04902" lon="6.41462">
        <ele>2156.2</ele>
        <time>2022-07-16T09:10:00+0200</time>
      </trkpt>
      <trkpt lat="45.04905" lon="6.41456">
        <ele>2157.7</ele>
        <time>2022-07-16T09:10:04+0200</time>
      </trkpt>
      <trkpt lat="45.04907" lon="6.4145">
        <ele>2158.9</ele>
        <time>2022-07-16T09:10:09+0200</time>
      </trkpt>
      <trkpt lat="45.04909" lon="6.41443">
        <ele>2160.4</ele>
        <time>2022-07-16T09:10:12+0200</time>
      </trkpt>
      <trkpt lat="45.0491" lon="6.41436">
        <ele>2160.8</ele>
        <time>2022-07-16T09:10:16+0200</time>
      </trkpt>
      <trkpt lat="45.04912" lon="6.4143">
        <ele>2161.4</ele>
        <time>2022-07-16T09:10:21+0200</time>
      </trkpt>
      <trkpt lat="45.04913" lon="6.41423">
        <ele>2161.9</ele>
        <time>2022-07-16T09:10:26+0200</time>
      </trkpt>
      <trkpt lat="45.04915" lon="6.41417">
        <ele>2162.5</ele>
        <time>2022-07-16T09:10:30+0200</time>
      </trkpt>
      <trkpt lat="45.04918" lon="6.41411">
        <ele>2163.5</ele>
        <time>2022-07-16T09:10:37+0200</time>
      </trkpt>
      <trkpt lat="45.04919" lon="6.41404">
        <ele>2164.2</ele>
        <time>2022-07-16T09:10:40+0200</time>
      </trkpt>
      <trkpt lat="45.04922" lon="6.41398">
        <ele>2165.1</ele>
        <time>2022-07-16T09:10:44+0200</time>
      </trkpt>
      <trkpt lat="45.04925" lon="6.41392">
        <ele>2166</ele>
        <time>2022-07-16T09:10:50+0200</time>
      </trkpt>
      <trkpt lat="45.04928" lon="6.41386">
        <ele>2166.5</ele>
        <time>2022-07-16T09:10:55+0200</time>
      </trkpt>
      <trkpt lat="45.04931" lon="6.41381">
        <ele>2166.9</ele>
        <time>2022-07-16T09:10:59+0200</time>
      </trkpt>
      <trkpt lat="45.04934" lon="6.41376">
        <ele>2167.3</ele>
        <time>2022-07-16T09:11:02+0200</time>
      </trkpt>
      <trkpt lat="45.04939" lon="6.41371">
        <ele>2168.1</ele>
        <time>2022-07-16T09:11:06+0200</time>
      </trkpt>
      <trkpt lat="45.04943" lon="6.41367">
        <ele>2168.9</ele>
        <time>2022-07-16T09:11:10+0200</time>
      </trkpt>
      <trkpt lat="45.04946" lon="6.41362">
        <ele>2169.4</ele>
        <time>2022-07-16T09:11:13+0200</time>
      </trkpt>
      <trkpt lat="45.04952" lon="6.41358">
        <ele>2170.4</ele>
        <time>2022-07-16T09:11:17+0200</time>
      </trkpt>
      <trkpt lat="45.04956" lon="6.41355">
        <ele>2171.1</ele>
        <time>2022-07-16T09:11:20+0200</time>
      </trkpt>
      <trkpt lat="45.0496" lon="6.41351">
        <ele>2171.7</ele>
        <time>2022-07-16T09:11:24+0200</time>
      </trkpt>
      <trkpt lat="45.04964" lon="6.41349">
        <ele>2172.8</ele>
        <time>2022-07-16T09:11:27+0200</time>
      </trkpt>
      <trkpt lat="45.04968" lon="6.41348">
        <ele>2173.9</ele>
        <time>2022-07-16T09:11:30+0200</time>
      </trkpt>
      <trkpt lat="45.04973" lon="6.4135">
        <ele>2175.5</ele>
        <time>2022-07-16T09:11:36+0200</time>
      </trkpt>
      <trkpt lat="45.04969" lon="6.4135">
        <ele>2174.1</ele>
        <time>2022-07-16T09:13:32+0200</time>
      </trkpt>
      <trkpt lat="45.04972" lon="6.41345">
        <ele>2174.6</ele>
        <time>2022-07-16T09:13:58+0200</time>
      </trkpt>
      <trkpt lat="45.04975" lon="6.4135">
        <ele>2176.1</ele>
        <time>2022-07-16T09:15:02+0200</time>
      </trkpt>
      <trkpt lat="45.04976" lon="6.41358">
        <ele>2176.9</ele>
        <time>2022-07-16T09:15:06+0200</time>
      </trkpt>
      <trkpt lat="45.04975" lon="6.41366">
        <ele>2177.4</ele>
        <time>2022-07-16T09:15:10+0200</time>
      </trkpt>
      <trkpt lat="45.04975" lon="6.41372">
        <ele>2177.6</ele>
        <time>2022-07-16T09:15:13+0200</time>
      </trkpt>
      <trkpt lat="45.04976" lon="6.4138">
        <ele>2178.5</ele>
        <time>2022-07-16T09:15:17+0200</time>
      </trkpt>
      <trkpt lat="45.04975" lon="6.41388">
        <ele>2178.8</ele>
        <time>2022-07-16T09:15:23+0200</time>
      </trkpt>
      <trkpt lat="45.04975" lon="6.41397">
        <ele>2179.5</ele>
        <time>2022-07-16T09:15:27+0200</time>
      </trkpt>
      <trkpt lat="45.04976" lon="6.41404">
        <ele>2180.3</ele>
        <time>2022-07-16T09:15:32+0200</time>
      </trkpt>
      <trkpt lat="45.04977" lon="6.41412">
        <ele>2181.3</ele>
        <time>2022-07-16T09:15:37+0200</time>
      </trkpt>
      <trkpt lat="45.04978" lon="6.4142">
        <ele>2182</ele>
        <time>2022-07-16T09:15:41+0200</time>
      </trkpt>
      <trkpt lat="45.0498" lon="6.41427">
        <ele>2182.6</ele>
        <time>2022-07-16T09:15:45+0200</time>
      </trkpt>
      <trkpt lat="45.04982" lon="6.41432">
        <ele>2183.6</ele>
        <time>2022-07-16T09:15:49+0200</time>
      </trkpt>
      <trkpt lat="45.04985" lon="6.4144">
        <ele>2184.5</ele>
        <time>2022-07-16T09:15:53+0200</time>
      </trkpt>
      <trkpt lat="45.04986" lon="6.41447">
        <ele>2184.9</ele>
        <time>2022-07-16T09:15:56+0200</time>
      </trkpt>
      <trkpt lat="45.0499" lon="6.41453">
        <ele>2186.1</ele>
        <time>2022-07-16T09:15:59+0200</time>
      </trkpt>
      <trkpt lat="45.04994" lon="6.41457">
        <ele>2187.1</ele>
        <time>2022-07-16T09:16:02+0200</time>
      </trkpt>
      <trkpt lat="45.04995" lon="6.41464">
        <ele>2187.5</ele>
        <time>2022-07-16T09:16:06+0200</time>
      </trkpt>
      <trkpt lat="45.04996" lon="6.4147">
        <ele>2187.9</ele>
        <time>2022-07-16T09:16:10+0200</time>
      </trkpt>
      <trkpt lat="45.04999" lon="6.41477">
        <ele>2188.8</ele>
        <time>2022-07-16T09:16:14+0200</time>
      </trkpt>
      <trkpt lat="45.05002" lon="6.41484">
        <ele>2190.1</ele>
        <time>2022-07-16T09:16:17+0200</time>
      </trkpt>
      <trkpt lat="45.05004" lon="6.41491">
        <ele>2191</ele>
        <time>2022-07-16T09:16:20+0200</time>
      </trkpt>
      <trkpt lat="45.05005" lon="6.41497">
        <ele>2191.3</ele>
        <time>2022-07-16T09:16:22+0200</time>
      </trkpt>
      <trkpt lat="45.05005" lon="6.41504">
        <ele>2192.1</ele>
        <time>2022-07-16T09:16:25+0200</time>
      </trkpt>
      <trkpt lat="45.05005" lon="6.4151">
        <ele>2192.8</ele>
        <time>2022-07-16T09:16:28+0200</time>
      </trkpt>
      <trkpt lat="45.05003" lon="6.41516">
        <ele>2192.4</ele>
        <time>2022-07-16T09:16:31+0200</time>
      </trkpt>
      <trkpt lat="45.05001" lon="6.41526">
        <ele>2192.5</ele>
        <time>2022-07-16T09:16:35+0200</time>
      </trkpt>
      <trkpt lat="45.05001" lon="6.41534">
        <ele>2192.5</ele>
        <time>2022-07-16T09:16:39+0200</time>
      </trkpt>
      <trkpt lat="45.05001" lon="6.41542">
        <ele>2192.8</ele>
        <time>2022-07-16T09:16:43+0200</time>
      </trkpt>
      <trkpt lat="45.05002" lon="6.4155">
        <ele>2194.1</ele>
        <time>2022-07-16T09:16:46+0200</time>
      </trkpt>
      <trkpt lat="45.05004" lon="6.41559">
        <ele>2195.3</ele>
        <time>2022-07-16T09:16:50+0200</time>
      </trkpt>
      <trkpt lat="45.05005" lon="6.41566">
        <ele>2195.8</ele>
        <time>2022-07-16T09:16:53+0200</time>
      </trkpt>
      <trkpt lat="45.05005" lon="6.41574">
        <ele>2196.2</ele>
        <time>2022-07-16T09:16:57+0200</time>
      </trkpt>
      <trkpt lat="45.05005" lon="6.41581">
        <ele>2196.5</ele>
        <time>2022-07-16T09:17:00+0200</time>
      </trkpt>
      <trkpt lat="45.05008" lon="6.41586">
        <ele>2197.9</ele>
        <time>2022-07-16T09:17:03+0200</time>
      </trkpt>
      <trkpt lat="45.05009" lon="6.41592">
        <ele>2198.8</ele>
        <time>2022-07-16T09:17:08+0200</time>
      </trkpt>
      <trkpt lat="45.05013" lon="6.41598">
        <ele>2200.4</ele>
        <time>2022-07-16T09:17:13+0200</time>
      </trkpt>
      <trkpt lat="45.05014" lon="6.41604">
        <ele>2201.2</ele>
        <time>2022-07-16T09:17:18+0200</time>
      </trkpt>
      <trkpt lat="45.05016" lon="6.4161">
        <ele>2202</ele>
        <time>2022-07-16T09:17:22+0200</time>
      </trkpt>
      <trkpt lat="45.05019" lon="6.41616">
        <ele>2203.3</ele>
        <time>2022-07-16T09:17:26+0200</time>
      </trkpt>
      <trkpt lat="45.05022" lon="6.41624">
        <ele>2204.8</ele>
        <time>2022-07-16T09:17:30+0200</time>
      </trkpt>
      <trkpt lat="45.05024" lon="6.41631">
        <ele>2206.1</ele>
        <time>2022-07-16T09:17:35+0200</time>
      </trkpt>
      <trkpt lat="45.05024" lon="6.41637">
        <ele>2206.5</ele>
        <time>2022-07-16T09:17:39+0200</time>
      </trkpt>
      <trkpt lat="45.05022" lon="6.41643">
        <ele>2206.4</ele>
        <time>2022-07-16T09:17:44+0200</time>
      </trkpt>
      <trkpt lat="45.05019" lon="6.4165">
        <ele>2206</ele>
        <time>2022-07-16T09:17:49+0200</time>
      </trkpt>
      <trkpt lat="45.05017" lon="6.41656">
        <ele>2206</ele>
        <time>2022-07-16T09:17:53+0200</time>
      </trkpt>
      <trkpt lat="45.05016" lon="6.41663">
        <ele>2206.3</ele>
        <time>2022-07-16T09:17:57+0200</time>
      </trkpt>
      <trkpt lat="45.05018" lon="6.4167">
        <ele>2208.5</ele>
        <time>2022-07-16T09:18:00+0200</time>
      </trkpt>
      <trkpt lat="45.05024" lon="6.41671">
        <ele>2211.4</ele>
        <time>2022-07-16T09:18:03+0200</time>
      </trkpt>
      <trkpt lat="45.05027" lon="6.41665">
        <ele>2211.6</ele>
        <time>2022-07-16T09:18:08+0200</time>
      </trkpt>
      <trkpt lat="45.05031" lon="6.41659">
        <ele>2212.4</ele>
        <time>2022-07-16T09:18:12+0200</time>
      </trkpt>
      <trkpt lat="45.05034" lon="6.41651">
        <ele>2212.7</ele>
        <time>2022-07-16T09:18:16+0200</time>
      </trkpt>
      <trkpt lat="45.05036" lon="6.41643">
        <ele>2212.4</ele>
        <time>2022-07-16T09:18:20+0200</time>
      </trkpt>
      <trkpt lat="45.05038" lon="6.41635">
        <ele>2212.6</ele>
        <time>2022-07-16T09:18:23+0200</time>
      </trkpt>
      <trkpt lat="45.05038" lon="6.41628">
        <ele>2212.7</ele>
        <time>2022-07-16T09:18:26+0200</time>
      </trkpt>
      <trkpt lat="45.05039" lon="6.41622">
        <ele>2213.1</ele>
        <time>2022-07-16T09:18:28+0200</time>
      </trkpt>
      <trkpt lat="45.05038" lon="6.41614">
        <ele>2212.7</ele>
        <time>2022-07-16T09:18:31+0200</time>
      </trkpt>
      <trkpt lat="45.05037" lon="6.41605">
        <ele>2212</ele>
        <time>2022-07-16T09:18:34+0200</time>
      </trkpt>
      <trkpt lat="45.05037" lon="6.41599">
        <ele>2212.4</ele>
        <time>2022-07-16T09:18:36+0200</time>
      </trkpt>
      <trkpt lat="45.05038" lon="6.41591">
        <ele>2213.1</ele>
        <time>2022-07-16T09:18:40+0200</time>
      </trkpt>
      <trkpt lat="45.05037" lon="6.41582">
        <ele>2213.1</ele>
        <time>2022-07-16T09:18:44+0200</time>
      </trkpt>
      <trkpt lat="45.05038" lon="6.41575">
        <ele>2213.7</ele>
        <time>2022-07-16T09:18:49+0200</time>
      </trkpt>
      <trkpt lat="45.0504" lon="6.41567">
        <ele>2214.6</ele>
        <time>2022-07-16T09:18:52+0200</time>
      </trkpt>
      <trkpt lat="45.0504" lon="6.41561">
        <ele>2214.8</ele>
        <time>2022-07-16T09:18:56+0200</time>
      </trkpt>
      <trkpt lat="45.05043" lon="6.41555">
        <ele>2215.9</ele>
        <time>2022-07-16T09:18:59+0200</time>
      </trkpt>
      <trkpt lat="45.05045" lon="6.41548">
        <ele>2216.4</ele>
        <time>2022-07-16T09:19:02+0200</time>
      </trkpt>
      <trkpt lat="45.05048" lon="6.41544">
        <ele>2217.9</ele>
        <time>2022-07-16T09:19:07+0200</time>
      </trkpt>
      <trkpt lat="45.05052" lon="6.41539">
        <ele>2219.5</ele>
        <time>2022-07-16T09:19:11+0200</time>
      </trkpt>
      <trkpt lat="45.05056" lon="6.41534">
        <ele>2220.9</ele>
        <time>2022-07-16T09:19:15+0200</time>
      </trkpt>
      <trkpt lat="45.0506" lon="6.41528">
        <ele>2222.1</ele>
        <time>2022-07-16T09:19:19+0200</time>
      </trkpt>
      <trkpt lat="45.05064" lon="6.41523">
        <ele>2222.8</ele>
        <time>2022-07-16T09:19:23+0200</time>
      </trkpt>
      <trkpt lat="45.05067" lon="6.41518">
        <ele>2223.3</ele>
        <time>2022-07-16T09:19:26+0200</time>
      </trkpt>
      <trkpt lat="45.05072" lon="6.41513">
        <ele>2224.5</ele>
        <time>2022-07-16T09:19:31+0200</time>
      </trkpt>
      <trkpt lat="45.05077" lon="6.41509">
        <ele>2225.7</ele>
        <time>2022-07-16T09:19:36+0200</time>
      </trkpt>
      <trkpt lat="45.05082" lon="6.41505">
        <ele>2226.7</ele>
        <time>2022-07-16T09:19:40+0200</time>
      </trkpt>
      <trkpt lat="45.05086" lon="6.415">
        <ele>2226.9</ele>
        <time>2022-07-16T09:19:43+0200</time>
      </trkpt>
      <trkpt lat="45.05091" lon="6.41497">
        <ele>2227.9</ele>
        <time>2022-07-16T09:19:46+0200</time>
      </trkpt>
      <trkpt lat="45.05094" lon="6.41492">
        <ele>2228.1</ele>
        <time>2022-07-16T09:19:51+0200</time>
      </trkpt>
      <trkpt lat="45.05098" lon="6.41485">
        <ele>2228.7</ele>
        <time>2022-07-16T09:19:56+0200</time>
      </trkpt>
      <trkpt lat="45.05102" lon="6.41479">
        <ele>2229.1</ele>
        <time>2022-07-16T09:19:59+0200</time>
      </trkpt>
      <trkpt lat="45.05105" lon="6.41473">
        <ele>2229.7</ele>
        <time>2022-07-16T09:20:02+0200</time>
      </trkpt>
      <trkpt lat="45.05107" lon="6.41466">
        <ele>2229.7</ele>
        <time>2022-07-16T09:20:06+0200</time>
      </trkpt>
      <trkpt lat="45.05109" lon="6.4146">
        <ele>2229.7</ele>
        <time>2022-07-16T09:20:11+0200</time>
      </trkpt>
      <trkpt lat="45.0511" lon="6.41454">
        <ele>2229.5</ele>
        <time>2022-07-16T09:20:14+0200</time>
      </trkpt>
      <trkpt lat="45.05113" lon="6.41448">
        <ele>2230.2</ele>
        <time>2022-07-16T09:20:18+0200</time>
      </trkpt>
      <trkpt lat="45.05118" lon="6.41444">
        <ele>2231.2</ele>
        <time>2022-07-16T09:20:23+0200</time>
      </trkpt>
      <trkpt lat="45.05122" lon="6.4144">
        <ele>2231.9</ele>
        <time>2022-07-16T09:20:27+0200</time>
      </trkpt>
      <trkpt lat="45.05127" lon="6.41437">
        <ele>2233.1</ele>
        <time>2022-07-16T09:20:33+0200</time>
      </trkpt>
      <trkpt lat="45.05132" lon="6.41434">
        <ele>2234.1</ele>
        <time>2022-07-16T09:20:37+0200</time>
      </trkpt>
      <trkpt lat="45.05137" lon="6.41432">
        <ele>2235.5</ele>
        <time>2022-07-16T09:20:41+0200</time>
      </trkpt>
      <trkpt lat="45.05141" lon="6.41435">
        <ele>2237.6</ele>
        <time>2022-07-16T09:20:46+0200</time>
      </trkpt>
      <trkpt lat="45.05141" lon="6.41442">
        <ele>2239.1</ele>
        <time>2022-07-16T09:20:53+0200</time>
      </trkpt>
      <trkpt lat="45.05141" lon="6.41449">
        <ele>2240.1</ele>
        <time>2022-07-16T09:20:57+0200</time>
      </trkpt>
      <trkpt lat="45.05142" lon="6.41457">
        <ele>2241.1</ele>
        <time>2022-07-16T09:21:01+0200</time>
      </trkpt>
      <trkpt lat="45.05142" lon="6.41466">
        <ele>2241.5</ele>
        <time>2022-07-16T09:21:04+0200</time>
      </trkpt>
      <trkpt lat="45.0514" lon="6.41474">
        <ele>2241.6</ele>
        <time>2022-07-16T09:21:09+0200</time>
      </trkpt>
      <trkpt lat="45.05142" lon="6.4148">
        <ele>2242.6</ele>
        <time>2022-07-16T09:21:12+0200</time>
      </trkpt>
      <trkpt lat="45.05142" lon="6.41488">
        <ele>2243.2</ele>
        <time>2022-07-16T09:21:15+0200</time>
      </trkpt>
      <trkpt lat="45.05141" lon="6.41495">
        <ele>2243.5</ele>
        <time>2022-07-16T09:21:19+0200</time>
      </trkpt>
      <trkpt lat="45.05142" lon="6.41503">
        <ele>2244.4</ele>
        <time>2022-07-16T09:21:23+0200</time>
      </trkpt>
      <trkpt lat="45.05142" lon="6.41509">
        <ele>2245.5</ele>
        <time>2022-07-16T09:21:27+0200</time>
      </trkpt>
      <trkpt lat="45.05142" lon="6.41516">
        <ele>2246.2</ele>
        <time>2022-07-16T09:21:31+0200</time>
      </trkpt>
      <trkpt lat="45.05139" lon="6.41523">
        <ele>2246.2</ele>
        <time>2022-07-16T09:21:35+0200</time>
      </trkpt>
      <trkpt lat="45.05134" lon="6.41525">
        <ele>2245.7</ele>
        <time>2022-07-16T09:21:38+0200</time>
      </trkpt>
      <trkpt lat="45.0513" lon="6.4153">
        <ele>2245.8</ele>
        <time>2022-07-16T09:21:42+0200</time>
      </trkpt>
      <trkpt lat="45.05125" lon="6.41535">
        <ele>2245.8</ele>
        <time>2022-07-16T09:21:46+0200</time>
      </trkpt>
      <trkpt lat="45.05123" lon="6.41542">
        <ele>2246.5</ele>
        <time>2022-07-16T09:21:49+0200</time>
      </trkpt>
      <trkpt lat="45.0512" lon="6.41547">
        <ele>2246.7</ele>
        <time>2022-07-16T09:21:52+0200</time>
      </trkpt>
      <trkpt lat="45.05116" lon="6.41554">
        <ele>2247.2</ele>
        <time>2022-07-16T09:21:56+0200</time>
      </trkpt>
      <trkpt lat="45.05114" lon="6.41561">
        <ele>2247.1</ele>
        <time>2022-07-16T09:21:58+0200</time>
      </trkpt>
      <trkpt lat="45.05112" lon="6.41569">
        <ele>2247.1</ele>
        <time>2022-07-16T09:22:01+0200</time>
      </trkpt>
      <trkpt lat="45.05112" lon="6.41576">
        <ele>2247.6</ele>
        <time>2022-07-16T09:22:03+0200</time>
      </trkpt>
      <trkpt lat="45.05112" lon="6.41583">
        <ele>2248.3</ele>
        <time>2022-07-16T09:22:05+0200</time>
      </trkpt>
      <trkpt lat="45.05112" lon="6.4159">
        <ele>2248.6</ele>
        <time>2022-07-16T09:22:07+0200</time>
      </trkpt>
      <trkpt lat="45.05115" lon="6.41597">
        <ele>2249.9</ele>
        <time>2022-07-16T09:22:09+0200</time>
      </trkpt>
      <trkpt lat="45.05117" lon="6.41604">
        <ele>2250.9</ele>
        <time>2022-07-16T09:22:12+0200</time>
      </trkpt>
      <trkpt lat="45.0512" lon="6.41613">
        <ele>2252.4</ele>
        <time>2022-07-16T09:22:15+0200</time>
      </trkpt>
      <trkpt lat="45.05121" lon="6.4162">
        <ele>2253</ele>
        <time>2022-07-16T09:22:18+0200</time>
      </trkpt>
      <trkpt lat="45.05122" lon="6.41628">
        <ele>2253.8</ele>
        <time>2022-07-16T09:22:22+0200</time>
      </trkpt>
      <trkpt lat="45.05123" lon="6.41636">
        <ele>2254.7</ele>
        <time>2022-07-16T09:22:25+0200</time>
      </trkpt>
      <trkpt lat="45.05124" lon="6.41645">
        <ele>2255.4</ele>
        <time>2022-07-16T09:22:28+0200</time>
      </trkpt>
      <trkpt lat="45.05125" lon="6.41652">
        <ele>2256.3</ele>
        <time>2022-07-16T09:22:30+0200</time>
      </trkpt>
      <trkpt lat="45.05123" lon="6.41659">
        <ele>2255.8</ele>
        <time>2022-07-16T09:22:34+0200</time>
      </trkpt>
      <trkpt lat="45.05121" lon="6.41666">
        <ele>2255.2</ele>
        <time>2022-07-16T09:22:37+0200</time>
      </trkpt>
      <trkpt lat="45.0512" lon="6.41674">
        <ele>2255.5</ele>
        <time>2022-07-16T09:22:40+0200</time>
      </trkpt>
      <trkpt lat="45.05124" lon="6.41678">
        <ele>2257.5</ele>
        <time>2022-07-16T09:22:43+0200</time>
      </trkpt>
      <trkpt lat="45.0513" lon="6.41677">
        <ele>2260.1</ele>
        <time>2022-07-16T09:22:46+0200</time>
      </trkpt>
      <trkpt lat="45.05132" lon="6.41671">
        <ele>2260.3</ele>
        <time>2022-07-16T09:22:49+0200</time>
      </trkpt>
      <trkpt lat="45.05132" lon="6.41663">
        <ele>2259.8</ele>
        <time>2022-07-16T09:22:53+0200</time>
      </trkpt>
      <trkpt lat="45.05133" lon="6.41655">
        <ele>2260</ele>
        <time>2022-07-16T09:22:57+0200</time>
      </trkpt>
      <trkpt lat="45.05133" lon="6.41648">
        <ele>2259.8</ele>
        <time>2022-07-16T09:23:00+0200</time>
      </trkpt>
      <trkpt lat="45.05135" lon="6.41642">
        <ele>2260.3</ele>
        <time>2022-07-16T09:23:04+0200</time>
      </trkpt>
      <trkpt lat="45.05137" lon="6.41633">
        <ele>2260.5</ele>
        <time>2022-07-16T09:23:08+0200</time>
      </trkpt>
      <trkpt lat="45.05138" lon="6.41626">
        <ele>2260.8</ele>
        <time>2022-07-16T09:23:12+0200</time>
      </trkpt>
      <trkpt lat="45.05141" lon="6.41619">
        <ele>2261.2</ele>
        <time>2022-07-16T09:23:17+0200</time>
      </trkpt>
      <trkpt lat="45.05146" lon="6.41616">
        <ele>2262.7</ele>
        <time>2022-07-16T09:23:22+0200</time>
      </trkpt>
      <trkpt lat="45.05152" lon="6.41614">
        <ele>2264.5</ele>
        <time>2022-07-16T09:23:26+0200</time>
      </trkpt>
      <trkpt lat="45.05157" lon="6.4161">
        <ele>2265.6</ele>
        <time>2022-07-16T09:23:29+0200</time>
      </trkpt>
      <trkpt lat="45.05163" lon="6.41606">
        <ele>2266.5</ele>
        <time>2022-07-16T09:23:33+0200</time>
      </trkpt>
      <trkpt lat="45.05167" lon="6.41603">
        <ele>2267.2</ele>
        <time>2022-07-16T09:23:36+0200</time>
      </trkpt>
      <trkpt lat="45.05172" lon="6.41601">
        <ele>2268.4</ele>
        <time>2022-07-16T09:23:39+0200</time>
      </trkpt>
      <trkpt lat="45.05176" lon="6.41597">
        <ele>2268.5</ele>
        <time>2022-07-16T09:23:41+0200</time>
      </trkpt>
      <trkpt lat="45.05181" lon="6.41593">
        <ele>2269.2</ele>
        <time>2022-07-16T09:23:45+0200</time>
      </trkpt>
      <trkpt lat="45.05184" lon="6.41587">
        <ele>2268.7</ele>
        <time>2022-07-16T09:23:49+0200</time>
      </trkpt>
      <trkpt lat="45.05186" lon="6.41581">
        <ele>2268.3</ele>
        <time>2022-07-16T09:23:52+0200</time>
      </trkpt>
      <trkpt lat="45.05188" lon="6.41572">
        <ele>2268.3</ele>
        <time>2022-07-16T09:23:55+0200</time>
      </trkpt>
      <trkpt lat="45.05191" lon="6.41566">
        <ele>2269.1</ele>
        <time>2022-07-16T09:23:59+0200</time>
      </trkpt>
      <trkpt lat="45.05192" lon="6.41559">
        <ele>2269.1</ele>
        <time>2022-07-16T09:24:02+0200</time>
      </trkpt>
      <trkpt lat="45.05193" lon="6.41551">
        <ele>2269.4</ele>
        <time>2022-07-16T09:24:05+0200</time>
      </trkpt>
      <trkpt lat="45.05194" lon="6.41545">
        <ele>2269.7</ele>
        <time>2022-07-16T09:24:08+0200</time>
      </trkpt>
      <trkpt lat="45.05198" lon="6.41541">
        <ele>2271.4</ele>
        <time>2022-07-16T09:24:11+0200</time>
      </trkpt>
      <trkpt lat="45.05203" lon="6.4154">
        <ele>2274.1</ele>
        <time>2022-07-16T09:24:15+0200</time>
      </trkpt>
      <trkpt lat="45.05207" lon="6.41545">
        <ele>2275.7</ele>
        <time>2022-07-16T09:24:19+0200</time>
      </trkpt>
      <trkpt lat="45.05208" lon="6.41552">
        <ele>2276.2</ele>
        <time>2022-07-16T09:24:22+0200</time>
      </trkpt>
      <trkpt lat="45.05208" lon="6.41559">
        <ele>2276.3</ele>
        <time>2022-07-16T09:24:25+0200</time>
      </trkpt>
      <trkpt lat="45.05208" lon="6.41566">
        <ele>2276.3</ele>
        <time>2022-07-16T09:24:29+0200</time>
      </trkpt>
      <trkpt lat="45.05209" lon="6.41575">
        <ele>2276.6</ele>
        <time>2022-07-16T09:24:33+0200</time>
      </trkpt>
      <trkpt lat="45.05208" lon="6.41583">
        <ele>2276.4</ele>
        <time>2022-07-16T09:24:36+0200</time>
      </trkpt>
      <trkpt lat="45.05209" lon="6.41591">
        <ele>2278.1</ele>
        <time>2022-07-16T09:24:39+0200</time>
      </trkpt>
      <trkpt lat="45.05205" lon="6.41597">
        <ele>2277.8</ele>
        <time>2022-07-16T09:24:42+0200</time>
      </trkpt>
      <trkpt lat="45.05201" lon="6.41603">
        <ele>2277.8</ele>
        <time>2022-07-16T09:24:45+0200</time>
      </trkpt>
      <trkpt lat="45.05198" lon="6.41607">
        <ele>2277.2</ele>
        <time>2022-07-16T09:24:48+0200</time>
      </trkpt>
      <trkpt lat="45.05194" lon="6.41611">
        <ele>2276.7</ele>
        <time>2022-07-16T09:24:52+0200</time>
      </trkpt>
      <trkpt lat="45.05192" lon="6.41619">
        <ele>2277.5</ele>
        <time>2022-07-16T09:24:55+0200</time>
      </trkpt>
      <trkpt lat="45.05194" lon="6.41625">
        <ele>2278.8</ele>
        <time>2022-07-16T09:24:58+0200</time>
      </trkpt>
      <trkpt lat="45.05193" lon="6.41633">
        <ele>2279.6</ele>
        <time>2022-07-16T09:25:02+0200</time>
      </trkpt>
      <trkpt lat="45.05193" lon="6.4164">
        <ele>2280.8</ele>
        <time>2022-07-16T09:25:05+0200</time>
      </trkpt>
      <trkpt lat="45.05195" lon="6.41648">
        <ele>2281.4</ele>
        <time>2022-07-16T09:25:08+0200</time>
      </trkpt>
      <trkpt lat="45.05195" lon="6.41655">
        <ele>2282</ele>
        <time>2022-07-16T09:25:11+0200</time>
      </trkpt>
      <trkpt lat="45.05197" lon="6.41661">
        <ele>2282.8</ele>
        <time>2022-07-16T09:25:14+0200</time>
      </trkpt>
      <trkpt lat="45.05195" lon="6.41669">
        <ele>2282.8</ele>
        <time>2022-07-16T09:25:17+0200</time>
      </trkpt>
      <trkpt lat="45.05193" lon="6.41676">
        <ele>2283.3</ele>
        <time>2022-07-16T09:25:20+0200</time>
      </trkpt>
      <trkpt lat="45.05191" lon="6.41682">
        <ele>2283.9</ele>
        <time>2022-07-16T09:25:24+0200</time>
      </trkpt>
      <trkpt lat="45.05189" lon="6.41688">
        <ele>2284.5</ele>
        <time>2022-07-16T09:25:26+0200</time>
      </trkpt>
      <trkpt lat="45.05185" lon="6.41691">
        <ele>2283.7</ele>
        <time>2022-07-16T09:25:29+0200</time>
      </trkpt>
      <trkpt lat="45.05182" lon="6.41698">
        <ele>2283.7</ele>
        <time>2022-07-16T09:25:32+0200</time>
      </trkpt>
      <trkpt lat="45.0518" lon="6.41706">
        <ele>2284.5</ele>
        <time>2022-07-16T09:25:35+0200</time>
      </trkpt>
      <trkpt lat="45.05177" lon="6.41714">
        <ele>2284.7</ele>
        <time>2022-07-16T09:25:38+0200</time>
      </trkpt>
      <trkpt lat="45.05175" lon="6.41722">
        <ele>2285</ele>
        <time>2022-07-16T09:25:41+0200</time>
      </trkpt>
      <trkpt lat="45.05178" lon="6.41728">
        <ele>2287.6</ele>
        <time>2022-07-16T09:25:45+0200</time>
      </trkpt>
      <trkpt lat="45.05184" lon="6.41726">
        <ele>2289.1</ele>
        <time>2022-07-16T09:25:49+0200</time>
      </trkpt>
      <trkpt lat="45.05188" lon="6.41721">
        <ele>2289.3</ele>
        <time>2022-07-16T09:25:53+0200</time>
      </trkpt>
      <trkpt lat="45.05193" lon="6.41717">
        <ele>2290.4</ele>
        <time>2022-07-16T09:25:57+0200</time>
      </trkpt>
      <trkpt lat="45.05197" lon="6.41712">
        <ele>2291</ele>
        <time>2022-07-16T09:26:00+0200</time>
      </trkpt>
      <trkpt lat="45.05201" lon="6.41707">
        <ele>2291.7</ele>
        <time>2022-07-16T09:26:03+0200</time>
      </trkpt>
      <trkpt lat="45.05206" lon="6.41703">
        <ele>2292.7</ele>
        <time>2022-07-16T09:26:06+0200</time>
      </trkpt>
      <trkpt lat="45.05209" lon="6.41697">
        <ele>2292.5</ele>
        <time>2022-07-16T09:26:10+0200</time>
      </trkpt>
      <trkpt lat="45.05211" lon="6.4169">
        <ele>2292.3</ele>
        <time>2022-07-16T09:26:12+0200</time>
      </trkpt>
      <trkpt lat="45.05212" lon="6.41683">
        <ele>2292.2</ele>
        <time>2022-07-16T09:26:16+0200</time>
      </trkpt>
      <trkpt lat="45.05216" lon="6.41677">
        <ele>2292.9</ele>
        <time>2022-07-16T09:26:19+0200</time>
      </trkpt>
      <trkpt lat="45.05218" lon="6.41671">
        <ele>2293.1</ele>
        <time>2022-07-16T09:26:21+0200</time>
      </trkpt>
      <trkpt lat="45.0522" lon="6.41664">
        <ele>2293.5</ele>
        <time>2022-07-16T09:26:23+0200</time>
      </trkpt>
      <trkpt lat="45.05223" lon="6.41658">
        <ele>2294.5</ele>
        <time>2022-07-16T09:26:27+0200</time>
      </trkpt>
      <trkpt lat="45.05227" lon="6.41651">
        <ele>2295</ele>
        <time>2022-07-16T09:26:31+0200</time>
      </trkpt>
      <trkpt lat="45.05233" lon="6.41647">
        <ele>2296.9</ele>
        <time>2022-07-16T09:26:35+0200</time>
      </trkpt>
      <trkpt lat="45.05236" lon="6.41643">
        <ele>2297.4</ele>
        <time>2022-07-16T09:26:38+0200</time>
      </trkpt>
      <trkpt lat="45.05241" lon="6.41637">
        <ele>2298.2</ele>
        <time>2022-07-16T09:26:42+0200</time>
      </trkpt>
      <trkpt lat="45.05245" lon="6.41633">
        <ele>2299.2</ele>
        <time>2022-07-16T09:26:46+0200</time>
      </trkpt>
      <trkpt lat="45.0525" lon="6.4163">
        <ele>2300.1</ele>
        <time>2022-07-16T09:26:50+0200</time>
      </trkpt>
      <trkpt lat="45.05254" lon="6.41625">
        <ele>2300.5</ele>
        <time>2022-07-16T09:26:52+0200</time>
      </trkpt>
      <trkpt lat="45.05259" lon="6.41622">
        <ele>2301.9</ele>
        <time>2022-07-16T09:26:57+0200</time>
      </trkpt>
      <trkpt lat="45.05262" lon="6.41616">
        <ele>2302.4</ele>
        <time>2022-07-16T09:27:02+0200</time>
      </trkpt>
      <trkpt lat="45.05266" lon="6.41612">
        <ele>2303</ele>
        <time>2022-07-16T09:27:04+0200</time>
      </trkpt>
      <trkpt lat="45.05269" lon="6.41605">
        <ele>2303.6</ele>
        <time>2022-07-16T09:27:09+0200</time>
      </trkpt>
      <trkpt lat="45.05271" lon="6.41599">
        <ele>2303.7</ele>
        <time>2022-07-16T09:27:12+0200</time>
      </trkpt>
      <trkpt lat="45.05273" lon="6.41593">
        <ele>2303.9</ele>
        <time>2022-07-16T09:27:16+0200</time>
      </trkpt>
      <trkpt lat="45.05275" lon="6.41587">
        <ele>2304.8</ele>
        <time>2022-07-16T09:27:20+0200</time>
      </trkpt>
      <trkpt lat="45.05277" lon="6.41581">
        <ele>2305.4</ele>
        <time>2022-07-16T09:27:23+0200</time>
      </trkpt>
      <trkpt lat="45.05278" lon="6.41572">
        <ele>2305.9</ele>
        <time>2022-07-16T09:27:28+0200</time>
      </trkpt>
      <trkpt lat="45.05279" lon="6.41565">
        <ele>2305.8</ele>
        <time>2022-07-16T09:27:32+0200</time>
      </trkpt>
      <trkpt lat="45.05281" lon="6.41557">
        <ele>2306.5</ele>
        <time>2022-07-16T09:27:36+0200</time>
      </trkpt>
      <trkpt lat="45.05285" lon="6.41551">
        <ele>2307.4</ele>
        <time>2022-07-16T09:27:40+0200</time>
      </trkpt>
      <trkpt lat="45.0529" lon="6.41549">
        <ele>2308.9</ele>
        <time>2022-07-16T09:27:43+0200</time>
      </trkpt>
      <trkpt lat="45.05294" lon="6.41545">
        <ele>2309.9</ele>
        <time>2022-07-16T09:27:47+0200</time>
      </trkpt>
      <trkpt lat="45.05299" lon="6.41543">
        <ele>2311</ele>
        <time>2022-07-16T09:27:50+0200</time>
      </trkpt>
      <trkpt lat="45.05304" lon="6.4154">
        <ele>2312</ele>
        <time>2022-07-16T09:27:53+0200</time>
      </trkpt>
      <trkpt lat="45.05308" lon="6.41538">
        <ele>2312.3</ele>
        <time>2022-07-16T09:27:56+0200</time>
      </trkpt>
      <trkpt lat="45.05314" lon="6.41536">
        <ele>2312.8</ele>
        <time>2022-07-16T09:28:00+0200</time>
      </trkpt>
      <trkpt lat="45.05319" lon="6.41535">
        <ele>2313.2</ele>
        <time>2022-07-16T09:28:03+0200</time>
      </trkpt>
      <trkpt lat="45.05324" lon="6.41533">
        <ele>2313.5</ele>
        <time>2022-07-16T09:28:06+0200</time>
      </trkpt>
      <trkpt lat="45.05329" lon="6.41532">
        <ele>2314.1</ele>
        <time>2022-07-16T09:28:10+0200</time>
      </trkpt>
      <trkpt lat="45.05335" lon="6.41529">
        <ele>2314.6</ele>
        <time>2022-07-16T09:28:15+0200</time>
      </trkpt>
      <trkpt lat="45.05339" lon="6.41526">
        <ele>2315.4</ele>
        <time>2022-07-16T09:28:18+0200</time>
      </trkpt>
      <trkpt lat="45.05344" lon="6.41521">
        <ele>2315.9</ele>
        <time>2022-07-16T09:28:23+0200</time>
      </trkpt>
      <trkpt lat="45.05348" lon="6.41518">
        <ele>2316.5</ele>
        <time>2022-07-16T09:28:28+0200</time>
      </trkpt>
      <trkpt lat="45.05354" lon="6.41515">
        <ele>2317</ele>
        <time>2022-07-16T09:28:31+0200</time>
      </trkpt>
      <trkpt lat="45.05359" lon="6.41512">
        <ele>2317.6</ele>
        <time>2022-07-16T09:28:35+0200</time>
      </trkpt>
      <trkpt lat="45.05365" lon="6.41515">
        <ele>2319.1</ele>
        <time>2022-07-16T09:28:40+0200</time>
      </trkpt>
      <trkpt lat="45.0537" lon="6.41513">
        <ele>2319.4</ele>
        <time>2022-07-16T09:28:43+0200</time>
      </trkpt>
      <trkpt lat="45.05375" lon="6.41514">
        <ele>2320.2</ele>
        <time>2022-07-16T09:28:46+0200</time>
      </trkpt>
      <trkpt lat="45.0538" lon="6.41513">
        <ele>2320.7</ele>
        <time>2022-07-16T09:28:50+0200</time>
      </trkpt>
      <trkpt lat="45.05385" lon="6.41514">
        <ele>2321.4</ele>
        <time>2022-07-16T09:28:54+0200</time>
      </trkpt>
      <trkpt lat="45.05391" lon="6.41514">
        <ele>2322.4</ele>
        <time>2022-07-16T09:28:57+0200</time>
      </trkpt>
      <trkpt lat="45.05396" lon="6.41517">
        <ele>2324.3</ele>
        <time>2022-07-16T09:29:01+0200</time>
      </trkpt>
      <trkpt lat="45.05401" lon="6.41519">
        <ele>2325.4</ele>
        <time>2022-07-16T09:29:06+0200</time>
      </trkpt>
      <trkpt lat="45.05405" lon="6.41515">
        <ele>2325</ele>
        <time>2022-07-16T09:29:09+0200</time>
      </trkpt>
      <trkpt lat="45.05407" lon="6.41508">
        <ele>2324.5</ele>
        <time>2022-07-16T09:29:14+0200</time>
      </trkpt>
      <trkpt lat="45.05408" lon="6.41499">
        <ele>2323.6</ele>
        <time>2022-07-16T09:29:19+0200</time>
      </trkpt>
      <trkpt lat="45.05409" lon="6.41492">
        <ele>2323.8</ele>
        <time>2022-07-16T09:29:21+0200</time>
      </trkpt>
      <trkpt lat="45.0541" lon="6.41485">
        <ele>2324.1</ele>
        <time>2022-07-16T09:29:25+0200</time>
      </trkpt>
      <trkpt lat="45.0541" lon="6.41478">
        <ele>2324.2</ele>
        <time>2022-07-16T09:29:28+0200</time>
      </trkpt>
      <trkpt lat="45.05409" lon="6.41469">
        <ele>2324.1</ele>
        <time>2022-07-16T09:29:32+0200</time>
      </trkpt>
      <trkpt lat="45.05408" lon="6.41462">
        <ele>2324.7</ele>
        <time>2022-07-16T09:29:35+0200</time>
      </trkpt>
      <trkpt lat="45.05408" lon="6.41454">
        <ele>2325.5</ele>
        <time>2022-07-16T09:29:38+0200</time>
      </trkpt>
      <trkpt lat="45.05408" lon="6.41447">
        <ele>2326.5</ele>
        <time>2022-07-16T09:29:41+0200</time>
      </trkpt>
      <trkpt lat="45.05407" lon="6.41439">
        <ele>2328.4</ele>
        <time>2022-07-16T09:29:45+0200</time>
      </trkpt>
      <trkpt lat="45.05402" lon="6.41435">
        <ele>2327.7</ele>
        <time>2022-07-16T09:29:48+0200</time>
      </trkpt>
      <trkpt lat="45.05397" lon="6.41429">
        <ele>2328</ele>
        <time>2022-07-16T09:29:52+0200</time>
      </trkpt>
      <trkpt lat="45.05396" lon="6.41423">
        <ele>2329.2</ele>
        <time>2022-07-16T09:29:55+0200</time>
      </trkpt>
      <trkpt lat="45.05394" lon="6.41416">
        <ele>2330.3</ele>
        <time>2022-07-16T09:29:58+0200</time>
      </trkpt>
      <trkpt lat="45.05393" lon="6.41408">
        <ele>2329.5</ele>
        <time>2022-07-16T09:30:02+0200</time>
      </trkpt>
      <trkpt lat="45.05397" lon="6.41401">
        <ele>2330.8</ele>
        <time>2022-07-16T09:30:05+0200</time>
      </trkpt>
      <trkpt lat="45.05402" lon="6.41396">
        <ele>2332.7</ele>
        <time>2022-07-16T09:30:09+0200</time>
      </trkpt>
      <trkpt lat="45.05407" lon="6.4139">
        <ele>2334.5</ele>
        <time>2022-07-16T09:30:13+0200</time>
      </trkpt>
      <trkpt lat="45.0541" lon="6.41386">
        <ele>2335.5</ele>
        <time>2022-07-16T09:30:16+0200</time>
      </trkpt>
      <trkpt lat="45.05416" lon="6.41382">
        <ele>2337.2</ele>
        <time>2022-07-16T09:30:20+0200</time>
      </trkpt>
      <trkpt lat="45.05419" lon="6.41376">
        <ele>2337.1</ele>
        <time>2022-07-16T09:30:24+0200</time>
      </trkpt>
      <trkpt lat="45.05423" lon="6.41371">
        <ele>2337.7</ele>
        <time>2022-07-16T09:30:28+0200</time>
      </trkpt>
      <trkpt lat="45.05427" lon="6.41366">
        <ele>2338.6</ele>
        <time>2022-07-16T09:30:31+0200</time>
      </trkpt>
      <trkpt lat="45.05431" lon="6.41363">
        <ele>2340.2</ele>
        <time>2022-07-16T09:30:34+0200</time>
      </trkpt>
      <trkpt lat="45.05436" lon="6.4136">
        <ele>2341.7</ele>
        <time>2022-07-16T09:30:38+0200</time>
      </trkpt>
      <trkpt lat="45.0544" lon="6.41355">
        <ele>2342.2</ele>
        <time>2022-07-16T09:30:43+0200</time>
      </trkpt>
      <trkpt lat="45.05446" lon="6.41351">
        <ele>2343.5</ele>
        <time>2022-07-16T09:30:46+0200</time>
      </trkpt>
      <trkpt lat="45.0545" lon="6.41344">
        <ele>2343.3</ele>
        <time>2022-07-16T09:30:50+0200</time>
      </trkpt>
      <trkpt lat="45.05451" lon="6.41338">
        <ele>2342.2</ele>
        <time>2022-07-16T09:30:54+0200</time>
      </trkpt>
      <trkpt lat="45.05454" lon="6.41334">
        <ele>2342.7</ele>
        <time>2022-07-16T09:30:56+0200</time>
      </trkpt>
      <trkpt lat="45.05458" lon="6.41328">
        <ele>2343</ele>
        <time>2022-07-16T09:30:59+0200</time>
      </trkpt>
      <trkpt lat="45.05463" lon="6.41322">
        <ele>2343.6</ele>
        <time>2022-07-16T09:31:03+0200</time>
      </trkpt>
      <trkpt lat="45.05467" lon="6.41318">
        <ele>2344.2</ele>
        <time>2022-07-16T09:31:06+0200</time>
      </trkpt>
      <trkpt lat="45.05472" lon="6.41315">
        <ele>2345.1</ele>
        <time>2022-07-16T09:31:10+0200</time>
      </trkpt>
      <trkpt lat="45.05477" lon="6.41312">
        <ele>2345.6</ele>
        <time>2022-07-16T09:31:13+0200</time>
      </trkpt>
      <trkpt lat="45.05481" lon="6.41308">
        <ele>2345.8</ele>
        <time>2022-07-16T09:31:16+0200</time>
      </trkpt>
      <trkpt lat="45.05486" lon="6.41303">
        <ele>2346.5</ele>
        <time>2022-07-16T09:31:20+0200</time>
      </trkpt>
      <trkpt lat="45.0549" lon="6.41298">
        <ele>2346.4</ele>
        <time>2022-07-16T09:31:23+0200</time>
      </trkpt>
      <trkpt lat="45.05496" lon="6.41295">
        <ele>2347.7</ele>
        <time>2022-07-16T09:31:27+0200</time>
      </trkpt>
      <trkpt lat="45.055" lon="6.41291">
        <ele>2347.8</ele>
        <time>2022-07-16T09:31:30+0200</time>
      </trkpt>
      <trkpt lat="45.05506" lon="6.41288">
        <ele>2348.2</ele>
        <time>2022-07-16T09:31:34+0200</time>
      </trkpt>
      <trkpt lat="45.05511" lon="6.41285">
        <ele>2348.4</ele>
        <time>2022-07-16T09:31:38+0200</time>
      </trkpt>
      <trkpt lat="45.05516" lon="6.4128">
        <ele>2348.1</ele>
        <time>2022-07-16T09:31:41+0200</time>
      </trkpt>
      <trkpt lat="45.05521" lon="6.41279">
        <ele>2348.8</ele>
        <time>2022-07-16T09:31:44+0200</time>
      </trkpt>
      <trkpt lat="45.05527" lon="6.41281">
        <ele>2350.5</ele>
        <time>2022-07-16T09:31:50+0200</time>
      </trkpt>
      <trkpt lat="45.05523" lon="6.41286">
        <ele>2350.9</ele>
        <time>2022-07-16T09:31:57+0200</time>
      </trkpt>
      <trkpt lat="45.05519" lon="6.41292">
        <ele>2351.7</ele>
        <time>2022-07-16T09:32:00+0200</time>
      </trkpt>
      <trkpt lat="45.05516" lon="6.41297">
        <ele>2352.5</ele>
        <time>2022-07-16T09:32:03+0200</time>
      </trkpt>
      <trkpt lat="45.0551" lon="6.41296">
        <ele>2351</ele>
        <time>2022-07-16T09:32:07+0200</time>
      </trkpt>
      <trkpt lat="45.05506" lon="6.41302">
        <ele>2352.2</ele>
        <time>2022-07-16T09:32:10+0200</time>
      </trkpt>
      <trkpt lat="45.05503" lon="6.41307">
        <ele>2352.8</ele>
        <time>2022-07-16T09:32:14+0200</time>
      </trkpt>
      <trkpt lat="45.05498" lon="6.41312">
        <ele>2352.8</ele>
        <time>2022-07-16T09:32:17+0200</time>
      </trkpt>
      <trkpt lat="45.05494" lon="6.41317">
        <ele>2352.7</ele>
        <time>2022-07-16T09:32:21+0200</time>
      </trkpt>
      <trkpt lat="45.05491" lon="6.41322">
        <ele>2352.7</ele>
        <time>2022-07-16T09:32:24+0200</time>
      </trkpt>
      <trkpt lat="45.05487" lon="6.41328">
        <ele>2353.3</ele>
        <time>2022-07-16T09:32:28+0200</time>
      </trkpt>
      <trkpt lat="45.05482" lon="6.41333">
        <ele>2353.5</ele>
        <time>2022-07-16T09:32:32+0200</time>
      </trkpt>
      <trkpt lat="45.0548" lon="6.41342">
        <ele>2354.5</ele>
        <time>2022-07-16T09:32:36+0200</time>
      </trkpt>
      <trkpt lat="45.05478" lon="6.41349">
        <ele>2355.4</ele>
        <time>2022-07-16T09:32:39+0200</time>
      </trkpt>
      <trkpt lat="45.05479" lon="6.41356">
        <ele>2356.9</ele>
        <time>2022-07-16T09:32:42+0200</time>
      </trkpt>
      <trkpt lat="45.05479" lon="6.41363">
        <ele>2358</ele>
        <time>2022-07-16T09:32:45+0200</time>
      </trkpt>
      <trkpt lat="45.0548" lon="6.41371">
        <ele>2359</ele>
        <time>2022-07-16T09:32:48+0200</time>
      </trkpt>
      <trkpt lat="45.05479" lon="6.41377">
        <ele>2359.3</ele>
        <time>2022-07-16T09:32:51+0200</time>
      </trkpt>
      <trkpt lat="45.05479" lon="6.41384">
        <ele>2359.8</ele>
        <time>2022-07-16T09:32:54+0200</time>
      </trkpt>
      <trkpt lat="45.05478" lon="6.41392">
        <ele>2360.3</ele>
        <time>2022-07-16T09:32:57+0200</time>
      </trkpt>
      <trkpt lat="45.05477" lon="6.41399">
        <ele>2360.9</ele>
        <time>2022-07-16T09:33:00+0200</time>
      </trkpt>
      <trkpt lat="45.05477" lon="6.41407">
        <ele>2361.8</ele>
        <time>2022-07-16T09:33:03+0200</time>
      </trkpt>
      <trkpt lat="45.05475" lon="6.41414">
        <ele>2361</ele>
        <time>2022-07-16T09:33:07+0200</time>
      </trkpt>
      <trkpt lat="45.05473" lon="6.41421">
        <ele>2361.1</ele>
        <time>2022-07-16T09:33:10+0200</time>
      </trkpt>
      <trkpt lat="45.05473" lon="6.41428">
        <ele>2361.8</ele>
        <time>2022-07-16T09:33:14+0200</time>
      </trkpt>
      <trkpt lat="45.05473" lon="6.41435">
        <ele>2362.8</ele>
        <time>2022-07-16T09:33:17+0200</time>
      </trkpt>
      <trkpt lat="45.05473" lon="6.41443">
        <ele>2364.3</ele>
        <time>2022-07-16T09:33:21+0200</time>
      </trkpt>
      <trkpt lat="45.05474" lon="6.4145">
        <ele>2364.9</ele>
        <time>2022-07-16T09:33:24+0200</time>
      </trkpt>
      <trkpt lat="45.05475" lon="6.41457">
        <ele>2365.5</ele>
        <time>2022-07-16T09:33:27+0200</time>
      </trkpt>
      <trkpt lat="45.05476" lon="6.41464">
        <ele>2366.1</ele>
        <time>2022-07-16T09:33:30+0200</time>
      </trkpt>
      <trkpt lat="45.05477" lon="6.41472">
        <ele>2366.3</ele>
        <time>2022-07-16T09:33:33+0200</time>
      </trkpt>
      <trkpt lat="45.05478" lon="6.41478">
        <ele>2366.6</ele>
        <time>2022-07-16T09:33:36+0200</time>
      </trkpt>
      <trkpt lat="45.05478" lon="6.41486">
        <ele>2366.6</ele>
        <time>2022-07-16T09:33:40+0200</time>
      </trkpt>
      <trkpt lat="45.0548" lon="6.41494">
        <ele>2367.4</ele>
        <time>2022-07-16T09:33:44+0200</time>
      </trkpt>
      <trkpt lat="45.05482" lon="6.41501">
        <ele>2368.3</ele>
        <time>2022-07-16T09:33:47+0200</time>
      </trkpt>
      <trkpt lat="45.05485" lon="6.41508">
        <ele>2367.7</ele>
        <time>2022-07-16T09:33:51+0200</time>
      </trkpt>
      <trkpt lat="45.05488" lon="6.41513">
        <ele>2368.4</ele>
        <time>2022-07-16T09:33:54+0200</time>
      </trkpt>
      <trkpt lat="45.05492" lon="6.41518">
        <ele>2369.1</ele>
        <time>2022-07-16T09:33:58+0200</time>
      </trkpt>
      <trkpt lat="45.05496" lon="6.41522">
        <ele>2370.1</ele>
        <time>2022-07-16T09:34:02+0200</time>
      </trkpt>
      <trkpt lat="45.055" lon="6.41527">
        <ele>2371.3</ele>
        <time>2022-07-16T09:34:06+0200</time>
      </trkpt>
      <trkpt lat="45.05504" lon="6.41532">
        <ele>2372.1</ele>
        <time>2022-07-16T09:34:09+0200</time>
      </trkpt>
      <trkpt lat="45.05508" lon="6.41537">
        <ele>2372.7</ele>
        <time>2022-07-16T09:34:13+0200</time>
      </trkpt>
      <trkpt lat="45.05512" lon="6.41542">
        <ele>2373.5</ele>
        <time>2022-07-16T09:34:16+0200</time>
      </trkpt>
      <trkpt lat="45.05516" lon="6.41546">
        <ele>2374.4</ele>
        <time>2022-07-16T09:34:20+0200</time>
      </trkpt>
      <trkpt lat="45.0552" lon="6.4155">
        <ele>2374.9</ele>
        <time>2022-07-16T09:34:23+0200</time>
      </trkpt>
      <trkpt lat="45.05523" lon="6.41558">
        <ele>2375</ele>
        <time>2022-07-16T09:34:27+0200</time>
      </trkpt>
      <trkpt lat="45.05525" lon="6.41564">
        <ele>2376</ele>
        <time>2022-07-16T09:34:31+0200</time>
      </trkpt>
      <trkpt lat="45.05527" lon="6.41571">
        <ele>2376.6</ele>
        <time>2022-07-16T09:34:34+0200</time>
      </trkpt>
      <trkpt lat="45.05528" lon="6.41578">
        <ele>2377</ele>
        <time>2022-07-16T09:34:38+0200</time>
      </trkpt>
      <trkpt lat="45.05529" lon="6.41586">
        <ele>2377.7</ele>
        <time>2022-07-16T09:34:43+0200</time>
      </trkpt>
      <trkpt lat="45.05526" lon="6.41591">
        <ele>2377.1</ele>
        <time>2022-07-16T09:34:46+0200</time>
      </trkpt>
      <trkpt lat="45.05524" lon="6.41598">
        <ele>2376.5</ele>
        <time>2022-07-16T09:34:50+0200</time>
      </trkpt>
      <trkpt lat="45.05524" lon="6.41605">
        <ele>2377.5</ele>
        <time>2022-07-16T09:34:53+0200</time>
      </trkpt>
      <trkpt lat="45.05527" lon="6.41612">
        <ele>2379.7</ele>
        <time>2022-07-16T09:34:56+0200</time>
      </trkpt>
      <trkpt lat="45.05532" lon="6.41611">
        <ele>2382.8</ele>
        <time>2022-07-16T09:35:00+0200</time>
      </trkpt>
      <trkpt lat="45.05534" lon="6.41605">
        <ele>2383</ele>
        <time>2022-07-16T09:35:05+0200</time>
      </trkpt>
      <trkpt lat="45.05536" lon="6.41599">
        <ele>2383.4</ele>
        <time>2022-07-16T09:35:09+0200</time>
      </trkpt>
      <trkpt lat="45.05538" lon="6.41592">
        <ele>2383.5</ele>
        <time>2022-07-16T09:35:13+0200</time>
      </trkpt>
      <trkpt lat="45.05539" lon="6.41583">
        <ele>2383.3</ele>
        <time>2022-07-16T09:35:17+0200</time>
      </trkpt>
      <trkpt lat="45.05539" lon="6.41576">
        <ele>2382.9</ele>
        <time>2022-07-16T09:35:20+0200</time>
      </trkpt>
      <trkpt lat="45.0554" lon="6.41568">
        <ele>2383.3</ele>
        <time>2022-07-16T09:35:24+0200</time>
      </trkpt>
      <trkpt lat="45.05542" lon="6.41561">
        <ele>2383.9</ele>
        <time>2022-07-16T09:35:28+0200</time>
      </trkpt>
      <trkpt lat="45.05543" lon="6.41554">
        <ele>2384.6</ele>
        <time>2022-07-16T09:35:32+0200</time>
      </trkpt>
      <trkpt lat="45.05543" lon="6.41548">
        <ele>2385.4</ele>
        <time>2022-07-16T09:35:35+0200</time>
      </trkpt>
      <trkpt lat="45.05542" lon="6.4154">
        <ele>2386.5</ele>
        <time>2022-07-16T09:35:39+0200</time>
      </trkpt>
      <trkpt lat="45.05541" lon="6.41532">
        <ele>2387.7</ele>
        <time>2022-07-16T09:35:43+0200</time>
      </trkpt>
      <trkpt lat="45.05539" lon="6.41525">
        <ele>2388</ele>
        <time>2022-07-16T09:35:48+0200</time>
      </trkpt>
      <trkpt lat="45.05538" lon="6.41518">
        <ele>2387.6</ele>
        <time>2022-07-16T09:35:52+0200</time>
      </trkpt>
      <trkpt lat="45.05537" lon="6.41511">
        <ele>2387.5</ele>
        <time>2022-07-16T09:35:55+0200</time>
      </trkpt>
      <trkpt lat="45.05537" lon="6.41504">
        <ele>2387.7</ele>
        <time>2022-07-16T09:35:58+0200</time>
      </trkpt>
      <trkpt lat="45.05536" lon="6.41497">
        <ele>2387.9</ele>
        <time>2022-07-16T09:36:01+0200</time>
      </trkpt>
      <trkpt lat="45.05536" lon="6.4149">
        <ele>2388.1</ele>
        <time>2022-07-16T09:36:04+0200</time>
      </trkpt>
      <trkpt lat="45.05538" lon="6.41482">
        <ele>2389.5</ele>
        <time>2022-07-16T09:36:08+0200</time>
      </trkpt>
      <trkpt lat="45.05537" lon="6.41474">
        <ele>2389.9</ele>
        <time>2022-07-16T09:36:12+0200</time>
      </trkpt>
      <trkpt lat="45.05536" lon="6.41466">
        <ele>2389.5</ele>
        <time>2022-07-16T09:36:16+0200</time>
      </trkpt>
      <trkpt lat="45.05539" lon="6.41461">
        <ele>2390.4</ele>
        <time>2022-07-16T09:36:31+0200</time>
      </trkpt>
      <trkpt lat="45.05543" lon="6.41455">
        <ele>2391.6</ele>
        <time>2022-07-16T09:37:14+0200</time>
      </trkpt>
      <trkpt lat="45.05547" lon="6.41451">
        <ele>2392.9</ele>
        <time>2022-07-16T09:37:18+0200</time>
      </trkpt>
      <trkpt lat="45.05552" lon="6.41446">
        <ele>2394.6</ele>
        <time>2022-07-16T09:37:22+0200</time>
      </trkpt>
      <trkpt lat="45.05556" lon="6.41443">
        <ele>2395.9</ele>
        <time>2022-07-16T09:37:25+0200</time>
      </trkpt>
      <trkpt lat="45.05561" lon="6.4144">
        <ele>2396.5</ele>
        <time>2022-07-16T09:37:28+0200</time>
      </trkpt>
      <trkpt lat="45.05565" lon="6.41437">
        <ele>2397.1</ele>
        <time>2022-07-16T09:37:32+0200</time>
      </trkpt>
      <trkpt lat="45.05569" lon="6.41435">
        <ele>2397.9</ele>
        <time>2022-07-16T09:37:35+0200</time>
      </trkpt>
      <trkpt lat="45.05574" lon="6.41432">
        <ele>2398.7</ele>
        <time>2022-07-16T09:37:39+0200</time>
      </trkpt>
      <trkpt lat="45.05578" lon="6.41429">
        <ele>2399.3</ele>
        <time>2022-07-16T09:37:42+0200</time>
      </trkpt>
      <trkpt lat="45.05582" lon="6.41426">
        <ele>2399.7</ele>
        <time>2022-07-16T09:37:45+0200</time>
      </trkpt>
      <trkpt lat="45.05587" lon="6.41423">
        <ele>2400.4</ele>
        <time>2022-07-16T09:37:49+0200</time>
      </trkpt>
      <trkpt lat="45.05593" lon="6.4142">
        <ele>2401.2</ele>
        <time>2022-07-16T09:37:53+0200</time>
      </trkpt>
      <trkpt lat="45.056" lon="6.41416">
        <ele>2402.1</ele>
        <time>2022-07-16T09:37:57+0200</time>
      </trkpt>
      <trkpt lat="45.05605" lon="6.41413">
        <ele>2402.5</ele>
        <time>2022-07-16T09:38:00+0200</time>
      </trkpt>
      <trkpt lat="45.05612" lon="6.41409">
        <ele>2402.9</ele>
        <time>2022-07-16T09:38:03+0200</time>
      </trkpt>
      <trkpt lat="45.05617" lon="6.41408">
        <ele>2404</ele>
        <time>2022-07-16T09:38:07+0200</time>
      </trkpt>
      <trkpt lat="45.05621" lon="6.41405">
        <ele>2404.3</ele>
        <time>2022-07-16T09:38:09+0200</time>
      </trkpt>
      <trkpt lat="45.05626" lon="6.41403">
        <ele>2404.8</ele>
        <time>2022-07-16T09:38:12+0200</time>
      </trkpt>
      <trkpt lat="45.05631" lon="6.41403">
        <ele>2405.9</ele>
        <time>2022-07-16T09:38:15+0200</time>
      </trkpt>
      <trkpt lat="45.05635" lon="6.41401">
        <ele>2406.2</ele>
        <time>2022-07-16T09:38:18+0200</time>
      </trkpt>
      <trkpt lat="45.0564" lon="6.414">
        <ele>2407</ele>
        <time>2022-07-16T09:38:21+0200</time>
      </trkpt>
      <trkpt lat="45.05644" lon="6.414">
        <ele>2407.4</ele>
        <time>2022-07-16T09:38:24+0200</time>
      </trkpt>
      <trkpt lat="45.05649" lon="6.41401">
        <ele>2408.2</ele>
        <time>2022-07-16T09:38:28+0200</time>
      </trkpt>
      <trkpt lat="45.05654" lon="6.41402">
        <ele>2408.8</ele>
        <time>2022-07-16T09:38:31+0200</time>
      </trkpt>
      <trkpt lat="45.05659" lon="6.41402">
        <ele>2409.3</ele>
        <time>2022-07-16T09:38:34+0200</time>
      </trkpt>
      <trkpt lat="45.05664" lon="6.41403">
        <ele>2410</ele>
        <time>2022-07-16T09:38:37+0200</time>
      </trkpt>
      <trkpt lat="45.0567" lon="6.41404">
        <ele>2410.6</ele>
        <time>2022-07-16T09:38:41+0200</time>
      </trkpt>
      <trkpt lat="45.05675" lon="6.41408">
        <ele>2411.9</ele>
        <time>2022-07-16T09:38:44+0200</time>
      </trkpt>
      <trkpt lat="45.0568" lon="6.41409">
        <ele>2412.5</ele>
        <time>2022-07-16T09:38:47+0200</time>
      </trkpt>
      <trkpt lat="45.05684" lon="6.41411">
        <ele>2413.5</ele>
        <time>2022-07-16T09:38:51+0200</time>
      </trkpt>
      <trkpt lat="45.0569" lon="6.41414">
        <ele>2414.8</ele>
        <time>2022-07-16T09:38:55+0200</time>
      </trkpt>
      <trkpt lat="45.05695" lon="6.41413">
        <ele>2414.6</ele>
        <time>2022-07-16T09:38:58+0200</time>
      </trkpt>
      <trkpt lat="45.057" lon="6.4141">
        <ele>2415.1</ele>
        <time>2022-07-16T09:39:02+0200</time>
      </trkpt>
      <trkpt lat="45.05703" lon="6.41404">
        <ele>2414.8</ele>
        <time>2022-07-16T09:39:07+0200</time>
      </trkpt>
      <trkpt lat="45.05702" lon="6.41395">
        <ele>2412.7</ele>
        <time>2022-07-16T09:39:10+0200</time>
      </trkpt>
      <trkpt lat="45.05704" lon="6.41388">
        <ele>2411.9</ele>
        <time>2022-07-16T09:39:12+0200</time>
      </trkpt>
      <trkpt lat="45.05705" lon="6.4138">
        <ele>2413.5</ele>
        <time>2022-07-16T09:39:15+0200</time>
      </trkpt>
      <trkpt lat="45.05708" lon="6.41372">
        <ele>2416.6</ele>
        <time>2022-07-16T09:39:18+0200</time>
      </trkpt>
      <trkpt lat="45.05706" lon="6.41365">
        <ele>2416</ele>
        <time>2022-07-16T09:39:20+0200</time>
      </trkpt>
      <trkpt lat="45.05706" lon="6.41358">
        <ele>2416.3</ele>
        <time>2022-07-16T09:39:23+0200</time>
      </trkpt>
      <trkpt lat="45.05706" lon="6.4135">
        <ele>2415.9</ele>
        <time>2022-07-16T09:39:26+0200</time>
      </trkpt>
      <trkpt lat="45.05707" lon="6.41342">
        <ele>2416.4</ele>
        <time>2022-07-16T09:39:29+0200</time>
      </trkpt>
      <trkpt lat="45.05704" lon="6.41335">
        <ele>2414.7</ele>
        <time>2022-07-16T09:39:32+0200</time>
      </trkpt>
      <trkpt lat="45.05703" lon="6.41326">
        <ele>2415.2</ele>
        <time>2022-07-16T09:39:35+0200</time>
      </trkpt>
      <trkpt lat="45.05702" lon="6.4132">
        <ele>2415.9</ele>
        <time>2022-07-16T09:39:37+0200</time>
      </trkpt>
      <trkpt lat="45.057" lon="6.41312">
        <ele>2416.3</ele>
        <time>2022-07-16T09:39:40+0200</time>
      </trkpt>
      <trkpt lat="45.05701" lon="6.41305">
        <ele>2417.8</ele>
        <time>2022-07-16T09:39:43+0200</time>
      </trkpt>
      <trkpt lat="45.05701" lon="6.41298">
        <ele>2418.4</ele>
        <time>2022-07-16T09:39:45+0200</time>
      </trkpt>
      <trkpt lat="45.05701" lon="6.41291">
        <ele>2418.6</ele>
        <time>2022-07-16T09:39:47+0200</time>
      </trkpt>
      <trkpt lat="45.05701" lon="6.41284">
        <ele>2419.2</ele>
        <time>2022-07-16T09:39:50+0200</time>
      </trkpt>
      <trkpt lat="45.05703" lon="6.41276">
        <ele>2420.3</ele>
        <time>2022-07-16T09:39:53+0200</time>
      </trkpt>
      <trkpt lat="45.05705" lon="6.4127">
        <ele>2420.8</ele>
        <time>2022-07-16T09:39:55+0200</time>
      </trkpt>
      <trkpt lat="45.05709" lon="6.41263">
        <ele>2422.2</ele>
        <time>2022-07-16T09:40:00+0200</time>
      </trkpt>
      <trkpt lat="45.05711" lon="6.41256">
        <ele>2423</ele>
        <time>2022-07-16T09:40:04+0200</time>
      </trkpt>
      <trkpt lat="45.05714" lon="6.4125">
        <ele>2424.1</ele>
        <time>2022-07-16T09:40:07+0200</time>
      </trkpt>
      <trkpt lat="45.05718" lon="6.41243">
        <ele>2425.1</ele>
        <time>2022-07-16T09:40:10+0200</time>
      </trkpt>
      <trkpt lat="45.0572" lon="6.41237">
        <ele>2425.2</ele>
        <time>2022-07-16T09:40:14+0200</time>
      </trkpt>
      <trkpt lat="45.05722" lon="6.4123">
        <ele>2425.2</ele>
        <time>2022-07-16T09:40:17+0200</time>
      </trkpt>
      <trkpt lat="45.05726" lon="6.41223">
        <ele>2426.1</ele>
        <time>2022-07-16T09:40:20+0200</time>
      </trkpt>
      <trkpt lat="45.05729" lon="6.41217">
        <ele>2426.8</ele>
        <time>2022-07-16T09:40:24+0200</time>
      </trkpt>
      <trkpt lat="45.05733" lon="6.41212">
        <ele>2428</ele>
        <time>2022-07-16T09:40:26+0200</time>
      </trkpt>
      <trkpt lat="45.05734" lon="6.41205">
        <ele>2427.7</ele>
        <time>2022-07-16T09:40:30+0200</time>
      </trkpt>
      <trkpt lat="45.05738" lon="6.41198">
        <ele>2428.6</ele>
        <time>2022-07-16T09:40:33+0200</time>
      </trkpt>
      <trkpt lat="45.05741" lon="6.41191">
        <ele>2428.5</ele>
        <time>2022-07-16T09:40:36+0200</time>
      </trkpt>
      <trkpt lat="45.05745" lon="6.41185">
        <ele>2429.3</ele>
        <time>2022-07-16T09:40:39+0200</time>
      </trkpt>
      <trkpt lat="45.05749" lon="6.41182">
        <ele>2430.4</ele>
        <time>2022-07-16T09:40:42+0200</time>
      </trkpt>
      <trkpt lat="45.05755" lon="6.41178">
        <ele>2431</ele>
        <time>2022-07-16T09:40:46+0200</time>
      </trkpt>
      <trkpt lat="45.0576" lon="6.41177">
        <ele>2431.4</ele>
        <time>2022-07-16T09:40:49+0200</time>
      </trkpt>
      <trkpt lat="45.05764" lon="6.41173">
        <ele>2431.2</ele>
        <time>2022-07-16T09:40:53+0200</time>
      </trkpt>
      <trkpt lat="45.05768" lon="6.41171">
        <ele>2431.5</ele>
        <time>2022-07-16T09:40:57+0200</time>
      </trkpt>
      <trkpt lat="45.05773" lon="6.41173">
        <ele>2432.9</ele>
        <time>2022-07-16T09:41:00+0200</time>
      </trkpt>
      <trkpt lat="45.05778" lon="6.41173">
        <ele>2433.9</ele>
        <time>2022-07-16T09:41:03+0200</time>
      </trkpt>
      <trkpt lat="45.05784" lon="6.41172">
        <ele>2434.5</ele>
        <time>2022-07-16T09:41:06+0200</time>
      </trkpt>
      <trkpt lat="45.05789" lon="6.41171">
        <ele>2435.1</ele>
        <time>2022-07-16T09:41:10+0200</time>
      </trkpt>
      <trkpt lat="45.05793" lon="6.41171">
        <ele>2435.9</ele>
        <time>2022-07-16T09:41:13+0200</time>
      </trkpt>
      <trkpt lat="45.05797" lon="6.41169">
        <ele>2436</ele>
        <time>2022-07-16T09:41:16+0200</time>
      </trkpt>
      <trkpt lat="45.05802" lon="6.41167">
        <ele>2436.5</ele>
        <time>2022-07-16T09:41:19+0200</time>
      </trkpt>
      <trkpt lat="45.05807" lon="6.41166">
        <ele>2437.3</ele>
        <time>2022-07-16T09:41:22+0200</time>
      </trkpt>
      <trkpt lat="45.05812" lon="6.41164">
        <ele>2438.3</ele>
        <time>2022-07-16T09:41:25+0200</time>
      </trkpt>
      <trkpt lat="45.05817" lon="6.41161">
        <ele>2439</ele>
        <time>2022-07-16T09:41:28+0200</time>
      </trkpt>
      <trkpt lat="45.05821" lon="6.41159">
        <ele>2440</ele>
        <time>2022-07-16T09:41:32+0200</time>
      </trkpt>
      <trkpt lat="45.05825" lon="6.41154">
        <ele>2439.9</ele>
        <time>2022-07-16T09:41:35+0200</time>
      </trkpt>
      <trkpt lat="45.0583" lon="6.41148">
        <ele>2439.9</ele>
        <time>2022-07-16T09:41:38+0200</time>
      </trkpt>
      <trkpt lat="45.05835" lon="6.41144">
        <ele>2440.9</ele>
        <time>2022-07-16T09:41:42+0200</time>
      </trkpt>
      <trkpt lat="45.0584" lon="6.4114">
        <ele>2441.6</ele>
        <time>2022-07-16T09:41:46+0200</time>
      </trkpt>
      <trkpt lat="45.05843" lon="6.41133">
        <ele>2441.2</ele>
        <time>2022-07-16T09:41:50+0200</time>
      </trkpt>
      <trkpt lat="45.05848" lon="6.41131">
        <ele>2442.2</ele>
        <time>2022-07-16T09:41:53+0200</time>
      </trkpt>
      <trkpt lat="45.05853" lon="6.41129">
        <ele>2443.7</ele>
        <time>2022-07-16T09:41:56+0200</time>
      </trkpt>
      <trkpt lat="45.05858" lon="6.41124">
        <ele>2444.4</ele>
        <time>2022-07-16T09:42:01+0200</time>
      </trkpt>
      <trkpt lat="45.05863" lon="6.4112">
        <ele>2444.9</ele>
        <time>2022-07-16T09:42:05+0200</time>
      </trkpt>
      <trkpt lat="45.05867" lon="6.41115">
        <ele>2445.1</ele>
        <time>2022-07-16T09:42:09+0200</time>
      </trkpt>
      <trkpt lat="45.05872" lon="6.41112">
        <ele>2445.7</ele>
        <time>2022-07-16T09:42:13+0200</time>
      </trkpt>
      <trkpt lat="45.05878" lon="6.41109">
        <ele>2446.7</ele>
        <time>2022-07-16T09:42:17+0200</time>
      </trkpt>
      <trkpt lat="45.05882" lon="6.41107">
        <ele>2447.6</ele>
        <time>2022-07-16T09:42:19+0200</time>
      </trkpt>
      <trkpt lat="45.05887" lon="6.41102">
        <ele>2448.1</ele>
        <time>2022-07-16T09:42:23+0200</time>
      </trkpt>
      <trkpt lat="45.05891" lon="6.41098">
        <ele>2448.7</ele>
        <time>2022-07-16T09:42:26+0200</time>
      </trkpt>
      <trkpt lat="45.05894" lon="6.41092">
        <ele>2448.9</ele>
        <time>2022-07-16T09:42:30+0200</time>
      </trkpt>
      <trkpt lat="45.05897" lon="6.41087">
        <ele>2449.3</ele>
        <time>2022-07-16T09:42:34+0200</time>
      </trkpt>
      <trkpt lat="45.05901" lon="6.41081">
        <ele>2450</ele>
        <time>2022-07-16T09:42:38+0200</time>
      </trkpt>
      <trkpt lat="45.05904" lon="6.41075">
        <ele>2450.9</ele>
        <time>2022-07-16T09:42:42+0200</time>
      </trkpt>
      <trkpt lat="45.05908" lon="6.41071">
        <ele>2451.8</ele>
        <time>2022-07-16T09:42:45+0200</time>
      </trkpt>
      <trkpt lat="45.05912" lon="6.41065">
        <ele>2452.4</ele>
        <time>2022-07-16T09:42:49+0200</time>
      </trkpt>
      <trkpt lat="45.05914" lon="6.41059">
        <ele>2452.4</ele>
        <time>2022-07-16T09:42:52+0200</time>
      </trkpt>
      <trkpt lat="45.05917" lon="6.41053">
        <ele>2452.8</ele>
        <time>2022-07-16T09:42:57+0200</time>
      </trkpt>
      <trkpt lat="45.05919" lon="6.41045">
        <ele>2453.8</ele>
        <time>2022-07-16T09:43:01+0200</time>
      </trkpt>
      <trkpt lat="45.05918" lon="6.41038">
        <ele>2453</ele>
        <time>2022-07-16T09:43:05+0200</time>
      </trkpt>
      <trkpt lat="45.05918" lon="6.41031">
        <ele>2452.8</ele>
        <time>2022-07-16T09:43:08+0200</time>
      </trkpt>
      <trkpt lat="45.05921" lon="6.41025">
        <ele>2454.2</ele>
        <time>2022-07-16T09:43:11+0200</time>
      </trkpt>
      <trkpt lat="45.05922" lon="6.41018">
        <ele>2454.2</ele>
        <time>2022-07-16T09:43:14+0200</time>
      </trkpt>
      <trkpt lat="45.05925" lon="6.41013">
        <ele>2455.5</ele>
        <time>2022-07-16T09:43:18+0200</time>
      </trkpt>
      <trkpt lat="45.05927" lon="6.41007">
        <ele>2456.4</ele>
        <time>2022-07-16T09:43:21+0200</time>
      </trkpt>
      <trkpt lat="45.0593" lon="6.41001">
        <ele>2457.1</ele>
        <time>2022-07-16T09:43:24+0200</time>
      </trkpt>
      <trkpt lat="45.05932" lon="6.40994">
        <ele>2457.8</ele>
        <time>2022-07-16T09:43:27+0200</time>
      </trkpt>
      <trkpt lat="45.05933" lon="6.40988">
        <ele>2457.6</ele>
        <time>2022-07-16T09:43:30+0200</time>
      </trkpt>
      <trkpt lat="45.05933" lon="6.4098">
        <ele>2457.5</ele>
        <time>2022-07-16T09:43:34+0200</time>
      </trkpt>
      <trkpt lat="45.05935" lon="6.40974">
        <ele>2457.5</ele>
        <time>2022-07-16T09:43:37+0200</time>
      </trkpt>
      <trkpt lat="45.05937" lon="6.40967">
        <ele>2458.4</ele>
        <time>2022-07-16T09:43:41+0200</time>
      </trkpt>
      <trkpt lat="45.05939" lon="6.4096">
        <ele>2459.3</ele>
        <time>2022-07-16T09:43:45+0200</time>
      </trkpt>
      <trkpt lat="45.05942" lon="6.40954">
        <ele>2460.4</ele>
        <time>2022-07-16T09:43:49+0200</time>
      </trkpt>
      <trkpt lat="45.05945" lon="6.40949">
        <ele>2461.2</ele>
        <time>2022-07-16T09:43:53+0200</time>
      </trkpt>
      <trkpt lat="45.05949" lon="6.40943">
        <ele>2462</ele>
        <time>2022-07-16T09:43:57+0200</time>
      </trkpt>
      <trkpt lat="45.05954" lon="6.40939">
        <ele>2462.7</ele>
        <time>2022-07-16T09:44:01+0200</time>
      </trkpt>
      <trkpt lat="45.0596" lon="6.40935">
        <ele>2463.4</ele>
        <time>2022-07-16T09:44:05+0200</time>
      </trkpt>
      <trkpt lat="45.05965" lon="6.40933">
        <ele>2464.2</ele>
        <time>2022-07-16T09:44:08+0200</time>
      </trkpt>
      <trkpt lat="45.0597" lon="6.40928">
        <ele>2464.5</ele>
        <time>2022-07-16T09:44:11+0200</time>
      </trkpt>
      <trkpt lat="45.05974" lon="6.40925">
        <ele>2465</ele>
        <time>2022-07-16T09:44:14+0200</time>
      </trkpt>
      <trkpt lat="45.05976" lon="6.40917">
        <ele>2464.3</ele>
        <time>2022-07-16T09:44:39+0200</time>
      </trkpt>
      <trkpt lat="45.0598" lon="6.40913">
        <ele>2465.3</ele>
        <time>2022-07-16T09:44:42+0200</time>
      </trkpt>
      <trkpt lat="45.05985" lon="6.4091">
        <ele>2466</ele>
        <time>2022-07-16T09:44:45+0200</time>
      </trkpt>
      <trkpt lat="45.05989" lon="6.40907">
        <ele>2466.8</ele>
        <time>2022-07-16T09:44:48+0200</time>
      </trkpt>
      <trkpt lat="45.05993" lon="6.40904">
        <ele>2467.5</ele>
        <time>2022-07-16T09:44:51+0200</time>
      </trkpt>
      <trkpt lat="45.05998" lon="6.40903">
        <ele>2468.4</ele>
        <time>2022-07-16T09:44:53+0200</time>
      </trkpt>
      <trkpt lat="45.06003" lon="6.40899">
        <ele>2469</ele>
        <time>2022-07-16T09:44:56+0200</time>
      </trkpt>
      <trkpt lat="45.06007" lon="6.40896">
        <ele>2469.4</ele>
        <time>2022-07-16T09:44:58+0200</time>
      </trkpt>
      <trkpt lat="45.06011" lon="6.40894">
        <ele>2470.3</ele>
        <time>2022-07-16T09:45:02+0200</time>
      </trkpt>
      <trkpt lat="45.06016" lon="6.40889">
        <ele>2470.6</ele>
        <time>2022-07-16T09:45:06+0200</time>
      </trkpt>
      <trkpt lat="45.0602" lon="6.40885">
        <ele>2471.1</ele>
        <time>2022-07-16T09:45:09+0200</time>
      </trkpt>
      <trkpt lat="45.06025" lon="6.40882">
        <ele>2471.8</ele>
        <time>2022-07-16T09:45:13+0200</time>
      </trkpt>
      <trkpt lat="45.06029" lon="6.40878">
        <ele>2472.4</ele>
        <time>2022-07-16T09:45:17+0200</time>
      </trkpt>
      <trkpt lat="45.06034" lon="6.40877">
        <ele>2473.7</ele>
        <time>2022-07-16T09:45:21+0200</time>
      </trkpt>
      <trkpt lat="45.06039" lon="6.40879">
        <ele>2475.4</ele>
        <time>2022-07-16T09:45:25+0200</time>
      </trkpt>
      <trkpt lat="45.06042" lon="6.40884">
        <ele>2477.5</ele>
        <time>2022-07-16T09:45:29+0200</time>
      </trkpt>
      <trkpt lat="45.06038" lon="6.40889">
        <ele>2477.3</ele>
        <time>2022-07-16T09:45:32+0200</time>
      </trkpt>
      <trkpt lat="45.06033" lon="6.40889">
        <ele>2475.6</ele>
        <time>2022-07-16T09:45:35+0200</time>
      </trkpt>
      <trkpt lat="45.06028" lon="6.40893">
        <ele>2475</ele>
        <time>2022-07-16T09:45:39+0200</time>
      </trkpt>
      <trkpt lat="45.06024" lon="6.40896">
        <ele>2474.3</ele>
        <time>2022-07-16T09:45:42+0200</time>
      </trkpt>
      <trkpt lat="45.06021" lon="6.40901">
        <ele>2474.6</ele>
        <time>2022-07-16T09:45:45+0200</time>
      </trkpt>
      <trkpt lat="45.06018" lon="6.40909">
        <ele>2475.3</ele>
        <time>2022-07-16T09:45:48+0200</time>
      </trkpt>
      <trkpt lat="45.06015" lon="6.40914">
        <ele>2475.6</ele>
        <time>2022-07-16T09:45:51+0200</time>
      </trkpt>
      <trkpt lat="45.06011" lon="6.4092">
        <ele>2475.6</ele>
        <time>2022-07-16T09:45:55+0200</time>
      </trkpt>
      <trkpt lat="45.06008" lon="6.40927">
        <ele>2475.9</ele>
        <time>2022-07-16T09:45:58+0200</time>
      </trkpt>
      <trkpt lat="45.06007" lon="6.40936">
        <ele>2476.9</ele>
        <time>2022-07-16T09:46:01+0200</time>
      </trkpt>
      <trkpt lat="45.06005" lon="6.40942">
        <ele>2477.5</ele>
        <time>2022-07-16T09:46:05+0200</time>
      </trkpt>
      <trkpt lat="45.06005" lon="6.4095">
        <ele>2478.2</ele>
        <time>2022-07-16T09:46:07+0200</time>
      </trkpt>
      <trkpt lat="45.06005" lon="6.40957">
        <ele>2478.8</ele>
        <time>2022-07-16T09:46:10+0200</time>
      </trkpt>
      <trkpt lat="45.06006" lon="6.40965">
        <ele>2479.7</ele>
        <time>2022-07-16T09:46:13+0200</time>
      </trkpt>
      <trkpt lat="45.06005" lon="6.40972">
        <ele>2480.3</ele>
        <time>2022-07-16T09:46:17+0200</time>
      </trkpt>
      <trkpt lat="45.06005" lon="6.4098">
        <ele>2481.2</ele>
        <time>2022-07-16T09:46:20+0200</time>
      </trkpt>
      <trkpt lat="45.06005" lon="6.40988">
        <ele>2482.1</ele>
        <time>2022-07-16T09:46:23+0200</time>
      </trkpt>
      <trkpt lat="45.06006" lon="6.40994">
        <ele>2482.9</ele>
        <time>2022-07-16T09:46:26+0200</time>
      </trkpt>
      <trkpt lat="45.06007" lon="6.41003">
        <ele>2484.1</ele>
        <time>2022-07-16T09:46:29+0200</time>
      </trkpt>
      <trkpt lat="45.06006" lon="6.4101">
        <ele>2484.7</ele>
        <time>2022-07-16T09:46:32+0200</time>
      </trkpt>
      <trkpt lat="45.06006" lon="6.41018">
        <ele>2485.4</ele>
        <time>2022-07-16T09:46:35+0200</time>
      </trkpt>
      <trkpt lat="45.06008" lon="6.41024">
        <ele>2486.5</ele>
        <time>2022-07-16T09:46:38+0200</time>
      </trkpt>
      <trkpt lat="45.06008" lon="6.41031">
        <ele>2486.9</ele>
        <time>2022-07-16T09:46:42+0200</time>
      </trkpt>
      <trkpt lat="45.0601" lon="6.41038">
        <ele>2487.9</ele>
        <time>2022-07-16T09:46:46+0200</time>
      </trkpt>
      <trkpt lat="45.06014" lon="6.41042">
        <ele>2489.6</ele>
        <time>2022-07-16T09:46:49+0200</time>
      </trkpt>
      <trkpt lat="45.06019" lon="6.41039">
        <ele>2490.7</ele>
        <time>2022-07-16T09:46:53+0200</time>
      </trkpt>
      <trkpt lat="45.06022" lon="6.41033">
        <ele>2490.6</ele>
        <time>2022-07-16T09:46:57+0200</time>
      </trkpt>
      <trkpt lat="45.06022" lon="6.41025">
        <ele>2489.6</ele>
        <time>2022-07-16T09:47:00+0200</time>
      </trkpt>
      <trkpt lat="45.06023" lon="6.41017">
        <ele>2489.4</ele>
        <time>2022-07-16T09:47:03+0200</time>
      </trkpt>
      <trkpt lat="45.06025" lon="6.4101">
        <ele>2489.6</ele>
        <time>2022-07-16T09:47:06+0200</time>
      </trkpt>
      <trkpt lat="45.06026" lon="6.41003">
        <ele>2489.5</ele>
        <time>2022-07-16T09:47:09+0200</time>
      </trkpt>
      <trkpt lat="45.06031" lon="6.40998">
        <ele>2490.2</ele>
        <time>2022-07-16T09:47:12+0200</time>
      </trkpt>
      <trkpt lat="45.06034" lon="6.40993">
        <ele>2490.4</ele>
        <time>2022-07-16T09:47:15+0200</time>
      </trkpt>
      <trkpt lat="45.06039" lon="6.4099">
        <ele>2490.9</ele>
        <time>2022-07-16T09:47:18+0200</time>
      </trkpt>
      <trkpt lat="45.06042" lon="6.40985">
        <ele>2491.1</ele>
        <time>2022-07-16T09:47:21+0200</time>
      </trkpt>
      <trkpt lat="45.06046" lon="6.40981">
        <ele>2491.8</ele>
        <time>2022-07-16T09:47:24+0200</time>
      </trkpt>
      <trkpt lat="45.0605" lon="6.40977">
        <ele>2492.7</ele>
        <time>2022-07-16T09:47:28+0200</time>
      </trkpt>
      <trkpt lat="45.06055" lon="6.40973">
        <ele>2493.9</ele>
        <time>2022-07-16T09:47:31+0200</time>
      </trkpt>
      <trkpt lat="45.0606" lon="6.40968">
        <ele>2494.5</ele>
        <time>2022-07-16T09:47:36+0200</time>
      </trkpt>
      <trkpt lat="45.06064" lon="6.40964">
        <ele>2495.1</ele>
        <time>2022-07-16T09:47:39+0200</time>
      </trkpt>
      <trkpt lat="45.06068" lon="6.40959">
        <ele>2495.5</ele>
        <time>2022-07-16T09:47:42+0200</time>
      </trkpt>
      <trkpt lat="45.06071" lon="6.40954">
        <ele>2495.7</ele>
        <time>2022-07-16T09:47:45+0200</time>
      </trkpt>
      <trkpt lat="45.06076" lon="6.4095">
        <ele>2496.5</ele>
        <time>2022-07-16T09:47:49+0200</time>
      </trkpt>
      <trkpt lat="45.0608" lon="6.40945">
        <ele>2497.2</ele>
        <time>2022-07-16T09:47:53+0200</time>
      </trkpt>
      <trkpt lat="45.06084" lon="6.4094">
        <ele>2498.2</ele>
        <time>2022-07-16T09:47:56+0200</time>
      </trkpt>
      <trkpt lat="45.06085" lon="6.40933">
        <ele>2498.7</ele>
        <time>2022-07-16T09:47:59+0200</time>
      </trkpt>
      <trkpt lat="45.0609" lon="6.4093">
        <ele>2499.8</ele>
        <time>2022-07-16T09:48:02+0200</time>
      </trkpt>
      <trkpt lat="45.06094" lon="6.40927">
        <ele>2500.8</ele>
        <time>2022-07-16T09:48:05+0200</time>
      </trkpt>
      <trkpt lat="45.06099" lon="6.40924">
        <ele>2501.9</ele>
        <time>2022-07-16T09:48:07+0200</time>
      </trkpt>
      <trkpt lat="45.06102" lon="6.40921">
        <ele>2502.9</ele>
        <time>2022-07-16T09:48:09+0200</time>
      </trkpt>
      <trkpt lat="45.06102" lon="6.40912">
        <ele>2503.2</ele>
        <time>2022-07-16T09:48:12+0200</time>
      </trkpt>
      <trkpt lat="45.06102" lon="6.40904">
        <ele>2503.2</ele>
        <time>2022-07-16T09:48:15+0200</time>
      </trkpt>
      <trkpt lat="45.06102" lon="6.40897">
        <ele>2503.6</ele>
        <time>2022-07-16T09:48:18+0200</time>
      </trkpt>
      <trkpt lat="45.06103" lon="6.40891">
        <ele>2504</ele>
        <time>2022-07-16T09:48:21+0200</time>
      </trkpt>
      <trkpt lat="45.06103" lon="6.40883">
        <ele>2504.3</ele>
        <time>2022-07-16T09:48:24+0200</time>
      </trkpt>
      <trkpt lat="45.06104" lon="6.40877">
        <ele>2504.6</ele>
        <time>2022-07-16T09:48:28+0200</time>
      </trkpt>
      <trkpt lat="45.06105" lon="6.40871">
        <ele>2505.4</ele>
        <time>2022-07-16T09:48:31+0200</time>
      </trkpt>
      <trkpt lat="45.06105" lon="6.40864">
        <ele>2505.5</ele>
        <time>2022-07-16T09:48:34+0200</time>
      </trkpt>
      <trkpt lat="45.06108" lon="6.40858">
        <ele>2506.9</ele>
        <time>2022-07-16T09:48:37+0200</time>
      </trkpt>
      <trkpt lat="45.06111" lon="6.40852">
        <ele>2507.9</ele>
        <time>2022-07-16T09:48:41+0200</time>
      </trkpt>
      <trkpt lat="45.06115" lon="6.40847">
        <ele>2509</ele>
        <time>2022-07-16T09:48:45+0200</time>
      </trkpt>
      <trkpt lat="45.06115" lon="6.4084">
        <ele>2508.4</ele>
        <time>2022-07-16T09:48:48+0200</time>
      </trkpt>
      <trkpt lat="45.06117" lon="6.40833">
        <ele>2508.6</ele>
        <time>2022-07-16T09:48:52+0200</time>
      </trkpt>
      <trkpt lat="45.06121" lon="6.40827">
        <ele>2509.4</ele>
        <time>2022-07-16T09:48:56+0200</time>
      </trkpt>
      <trkpt lat="45.06124" lon="6.40822">
        <ele>2510.3</ele>
        <time>2022-07-16T09:49:00+0200</time>
      </trkpt>
      <trkpt lat="45.06128" lon="6.40816">
        <ele>2510.9</ele>
        <time>2022-07-16T09:49:04+0200</time>
      </trkpt>
      <trkpt lat="45.06131" lon="6.40812">
        <ele>2511.7</ele>
        <time>2022-07-16T09:49:07+0200</time>
      </trkpt>
      <trkpt lat="45.06137" lon="6.40808">
        <ele>2513.5</ele>
        <time>2022-07-16T09:49:11+0200</time>
      </trkpt>
      <trkpt lat="45.06141" lon="6.40806">
        <ele>2514.8</ele>
        <time>2022-07-16T09:49:15+0200</time>
      </trkpt>
      <trkpt lat="45.06147" lon="6.40805">
        <ele>2516</ele>
        <time>2022-07-16T09:49:18+0200</time>
      </trkpt>
      <trkpt lat="45.06152" lon="6.40802">
        <ele>2516.8</ele>
        <time>2022-07-16T09:49:22+0200</time>
      </trkpt>
      <trkpt lat="45.06154" lon="6.40796">
        <ele>2516.2</ele>
        <time>2022-07-16T09:49:26+0200</time>
      </trkpt>
      <trkpt lat="45.06155" lon="6.40787">
        <ele>2514.2</ele>
        <time>2022-07-16T09:49:30+0200</time>
      </trkpt>
      <trkpt lat="45.06155" lon="6.4078">
        <ele>2512.5</ele>
        <time>2022-07-16T09:49:32+0200</time>
      </trkpt>
      <trkpt lat="45.06152" lon="6.40773">
        <ele>2512.8</ele>
        <time>2022-07-16T09:49:35+0200</time>
      </trkpt>
      <trkpt lat="45.06152" lon="6.40765">
        <ele>2515.5</ele>
        <time>2022-07-16T09:49:39+0200</time>
      </trkpt>
      <trkpt lat="45.06149" lon="6.40759">
        <ele>2516.8</ele>
        <time>2022-07-16T09:49:43+0200</time>
      </trkpt>
      <trkpt lat="45.06144" lon="6.40755">
        <ele>2516.6</ele>
        <time>2022-07-16T09:49:47+0200</time>
      </trkpt>
      <trkpt lat="45.0614" lon="6.4075">
        <ele>2517.3</ele>
        <time>2022-07-16T09:49:50+0200</time>
      </trkpt>
      <trkpt lat="45.06139" lon="6.40743">
        <ele>2519.2</ele>
        <time>2022-07-16T09:49:54+0200</time>
      </trkpt>
      <trkpt lat="45.06137" lon="6.40735">
        <ele>2519.9</ele>
        <time>2022-07-16T09:49:58+0200</time>
      </trkpt>
      <trkpt lat="45.06135" lon="6.40728">
        <ele>2521</ele>
        <time>2022-07-16T09:50:02+0200</time>
      </trkpt>
      <trkpt lat="45.06133" lon="6.40723">
        <ele>2521.5</ele>
        <time>2022-07-16T09:50:06+0200</time>
      </trkpt>
      <trkpt lat="45.0613" lon="6.40715">
        <ele>2522.7</ele>
        <time>2022-07-16T09:50:10+0200</time>
      </trkpt>
      <trkpt lat="45.06128" lon="6.40708">
        <ele>2524</ele>
        <time>2022-07-16T09:50:13+0200</time>
      </trkpt>
      <trkpt lat="45.06125" lon="6.40703">
        <ele>2524.3</ele>
        <time>2022-07-16T09:50:16+0200</time>
      </trkpt>
      <trkpt lat="45.06124" lon="6.40696">
        <ele>2526</ele>
        <time>2022-07-16T09:50:19+0200</time>
      </trkpt>
      <trkpt lat="45.06121" lon="6.40689">
        <ele>2526.4</ele>
        <time>2022-07-16T09:50:24+0200</time>
      </trkpt>
      <trkpt lat="45.06119" lon="6.40683">
        <ele>2526.3</ele>
        <time>2022-07-16T09:50:27+0200</time>
      </trkpt>
      <trkpt lat="45.06116" lon="6.40677">
        <ele>2526.2</ele>
        <time>2022-07-16T09:50:31+0200</time>
      </trkpt>
      <trkpt lat="45.06112" lon="6.4067">
        <ele>2525.7</ele>
        <time>2022-07-16T09:50:36+0200</time>
      </trkpt>
      <trkpt lat="45.06111" lon="6.40663">
        <ele>2526.8</ele>
        <time>2022-07-16T09:50:39+0200</time>
      </trkpt>
      <trkpt lat="45.06108" lon="6.40658">
        <ele>2526.7</ele>
        <time>2022-07-16T09:50:42+0200</time>
      </trkpt>
      <trkpt lat="45.06107" lon="6.40651">
        <ele>2527.6</ele>
        <time>2022-07-16T09:50:45+0200</time>
      </trkpt>
      <trkpt lat="45.06104" lon="6.40645">
        <ele>2527.9</ele>
        <time>2022-07-16T09:50:49+0200</time>
      </trkpt>
      <trkpt lat="45.06102" lon="6.40639">
        <ele>2528.4</ele>
        <time>2022-07-16T09:50:53+0200</time>
      </trkpt>
      <trkpt lat="45.061" lon="6.40632">
        <ele>2528.6</ele>
        <time>2022-07-16T09:50:56+0200</time>
      </trkpt>
      <trkpt lat="45.061" lon="6.40625">
        <ele>2529.5</ele>
        <time>2022-07-16T09:51:00+0200</time>
      </trkpt>
      <trkpt lat="45.06098" lon="6.40619">
        <ele>2529.6</ele>
        <time>2022-07-16T09:51:03+0200</time>
      </trkpt>
      <trkpt lat="45.06097" lon="6.40613">
        <ele>2530.7</ele>
        <time>2022-07-16T09:51:07+0200</time>
      </trkpt>
      <trkpt lat="45.06096" lon="6.40604">
        <ele>2530.7</ele>
        <time>2022-07-16T09:51:11+0200</time>
      </trkpt>
      <trkpt lat="45.06095" lon="6.40598">
        <ele>2530.8</ele>
        <time>2022-07-16T09:51:14+0200</time>
      </trkpt>
      <trkpt lat="45.06096" lon="6.4059">
        <ele>2531</ele>
        <time>2022-07-16T09:51:18+0200</time>
      </trkpt>
      <trkpt lat="45.06098" lon="6.40584">
        <ele>2531.6</ele>
        <time>2022-07-16T09:51:21+0200</time>
      </trkpt>
      <trkpt lat="45.06102" lon="6.4058">
        <ele>2532.4</ele>
        <time>2022-07-16T09:51:24+0200</time>
      </trkpt>
      <trkpt lat="45.06107" lon="6.40582">
        <ele>2533.3</ele>
        <time>2022-07-16T09:51:27+0200</time>
      </trkpt>
      <trkpt lat="45.06112" lon="6.40585">
        <ele>2534.4</ele>
        <time>2022-07-16T09:51:31+0200</time>
      </trkpt>
      <trkpt lat="45.06115" lon="6.40592">
        <ele>2535.6</ele>
        <time>2022-07-16T09:51:34+0200</time>
      </trkpt>
      <trkpt lat="45.06117" lon="6.40599">
        <ele>2536.6</ele>
        <time>2022-07-16T09:51:37+0200</time>
      </trkpt>
      <trkpt lat="45.06117" lon="6.40606">
        <ele>2536.6</ele>
        <time>2022-07-16T09:51:40+0200</time>
      </trkpt>
      <trkpt lat="45.06116" lon="6.40613">
        <ele>2536.4</ele>
        <time>2022-07-16T09:51:43+0200</time>
      </trkpt>
      <trkpt lat="45.06118" lon="6.40621">
        <ele>2536.4</ele>
        <time>2022-07-16T09:51:46+0200</time>
      </trkpt>
      <trkpt lat="45.06118" lon="6.40627">
        <ele>2536.1</ele>
        <time>2022-07-16T09:51:51+0200</time>
      </trkpt>
      <trkpt lat="45.06119" lon="6.40634">
        <ele>2536</ele>
        <time>2022-07-16T09:51:54+0200</time>
      </trkpt>
      <trkpt lat="45.06122" lon="6.4064">
        <ele>2536.3</ele>
        <time>2022-07-16T09:51:57+0200</time>
      </trkpt>
      <trkpt lat="45.06124" lon="6.40647">
        <ele>2535.9</ele>
        <time>2022-07-16T09:52:01+0200</time>
      </trkpt>
      <trkpt lat="45.06128" lon="6.40651">
        <ele>2536.8</ele>
        <time>2022-07-16T09:52:04+0200</time>
      </trkpt>
      <trkpt lat="45.06133" lon="6.40656">
        <ele>2538.2</ele>
        <time>2022-07-16T09:52:08+0200</time>
      </trkpt>
      <trkpt lat="45.06137" lon="6.40659">
        <ele>2539.9</ele>
        <time>2022-07-16T09:52:11+0200</time>
      </trkpt>
      <trkpt lat="45.06142" lon="6.40656">
        <ele>2540.8</ele>
        <time>2022-07-16T09:52:14+0200</time>
      </trkpt>
      <trkpt lat="45.06147" lon="6.40654">
        <ele>2541</ele>
        <time>2022-07-16T09:52:17+0200</time>
      </trkpt>
      <trkpt lat="45.06152" lon="6.40653">
        <ele>2541.2</ele>
        <time>2022-07-16T09:52:21+0200</time>
      </trkpt>
      <trkpt lat="45.06153" lon="6.40646">
        <ele>2541.9</ele>
        <time>2022-07-16T09:52:27+0200</time>
      </trkpt>
      <trkpt lat="45.06149" lon="6.40639">
        <ele>2542.4</ele>
        <time>2022-07-16T09:52:30+0200</time>
      </trkpt>
      <trkpt lat="45.06149" lon="6.40632">
        <ele>2542.7</ele>
        <time>2022-07-16T09:52:32+0200</time>
      </trkpt>
      <trkpt lat="45.06148" lon="6.40625">
        <ele>2543</ele>
        <time>2022-07-16T09:52:34+0200</time>
      </trkpt>
      <trkpt lat="45.06146" lon="6.40615">
        <ele>2543.5</ele>
        <time>2022-07-16T09:52:37+0200</time>
      </trkpt>
      <trkpt lat="45.06146" lon="6.40607">
        <ele>2543.7</ele>
        <time>2022-07-16T09:52:39+0200</time>
      </trkpt>
      <trkpt lat="45.06149" lon="6.406">
        <ele>2543.8</ele>
        <time>2022-07-16T09:52:41+0200</time>
      </trkpt>
      <trkpt lat="45.06152" lon="6.40595">
        <ele>2544.1</ele>
        <time>2022-07-16T09:52:44+0200</time>
      </trkpt>
      <trkpt lat="45.06157" lon="6.40589">
        <ele>2544.7</ele>
        <time>2022-07-16T09:52:47+0200</time>
      </trkpt>
      <trkpt lat="45.06163" lon="6.40584">
        <ele>2545.5</ele>
        <time>2022-07-16T09:52:50+0200</time>
      </trkpt>
      <trkpt lat="45.06165" lon="6.40576">
        <ele>2546.1</ele>
        <time>2022-07-16T09:52:54+0200</time>
      </trkpt>
      <trkpt lat="45.06169" lon="6.40571">
        <ele>2546.5</ele>
        <time>2022-07-16T09:52:57+0200</time>
      </trkpt>
      <trkpt lat="45.06172" lon="6.40566">
        <ele>2546.8</ele>
        <time>2022-07-16T09:53:00+0200</time>
      </trkpt>
      <trkpt lat="45.06176" lon="6.40563">
        <ele>2546.9</ele>
        <time>2022-07-16T09:53:03+0200</time>
      </trkpt>
      <trkpt lat="45.06181" lon="6.4056">
        <ele>2547</ele>
        <time>2022-07-16T09:53:10+0200</time>
      </trkpt>
      <trkpt lat="45.06183" lon="6.40553">
        <ele>2547.2</ele>
        <time>2022-07-16T09:53:21+0200</time>
      </trkpt>
      <trkpt lat="45.06178" lon="6.40551">
        <ele>2547.3</ele>
        <time>2022-07-16T09:53:31+0200</time>
      </trkpt>
      <trkpt lat="45.06174" lon="6.40548">
        <ele>2547.7</ele>
        <time>2022-07-16T09:54:20+0200</time>
      </trkpt>
      <trkpt lat="45.0617" lon="6.40552">
        <ele>2547.4</ele>
        <time>2022-07-16T09:54:56+0200</time>
      </trkpt>
      <trkpt lat="45.06175" lon="6.40551">
        <ele>2547.4</ele>
        <time>2022-07-16T09:55:07+0200</time>
      </trkpt>
      <trkpt lat="45.06171" lon="6.40551">
        <ele>2547.5</ele>
        <time>2022-07-16T09:55:20+0200</time>
      </trkpt>
      <trkpt lat="45.06174" lon="6.40556">
        <ele>2547</ele>
        <time>2022-07-16T09:55:59+0200</time>
      </trkpt>
      <trkpt lat="45.06175" lon="6.40549">
        <ele>2547.6</ele>
        <time>2022-07-16T09:56:09+0200</time>
      </trkpt>
      <trkpt lat="45.06176" lon="6.40555">
        <ele>2547</ele>
        <time>2022-07-16T09:58:18+0200</time>
      </trkpt>
      <trkpt lat="45.06173" lon="6.4055">
        <ele>2547.5</ele>
        <time>2022-07-16T09:59:18+0200</time>
      </trkpt>
      <trkpt lat="45.06176" lon="6.40555">
        <ele>2547</ele>
        <time>2022-07-16T09:59:57+0200</time>
      </trkpt>
      <trkpt lat="45.0618" lon="6.40559">
        <ele>2547</ele>
        <time>2022-07-16T10:00:06+0200</time>
      </trkpt>
      <trkpt lat="45.06182" lon="6.40553">
        <ele>2547.2</ele>
        <time>2022-07-16T10:01:02+0200</time>
      </trkpt>
      <trkpt lat="45.06186" lon="6.40548">
        <ele>2547.4</ele>
        <time>2022-07-16T10:01:06+0200</time>
      </trkpt>
      <trkpt lat="45.06187" lon="6.40541">
        <ele>2547.8</ele>
        <time>2022-07-16T10:01:11+0200</time>
      </trkpt>
      <trkpt lat="45.06189" lon="6.40534">
        <ele>2548.1</ele>
        <time>2022-07-16T10:01:14+0200</time>
      </trkpt>
      <trkpt lat="45.06191" lon="6.40528">
        <ele>2548.2</ele>
        <time>2022-07-16T10:01:18+0200</time>
      </trkpt>
      <trkpt lat="45.06194" lon="6.40522">
        <ele>2549</ele>
        <time>2022-07-16T10:01:21+0200</time>
      </trkpt>
      <trkpt lat="45.06196" lon="6.40515">
        <ele>2550.5</ele>
        <time>2022-07-16T10:01:24+0200</time>
      </trkpt>
      <trkpt lat="45.062" lon="6.4051">
        <ele>2551.9</ele>
        <time>2022-07-16T10:01:28+0200</time>
      </trkpt>
      <trkpt lat="45.06201" lon="6.40502">
        <ele>2553.2</ele>
        <time>2022-07-16T10:01:32+0200</time>
      </trkpt>
      <trkpt lat="45.06204" lon="6.40496">
        <ele>2553.9</ele>
        <time>2022-07-16T10:01:37+0200</time>
      </trkpt>
      <trkpt lat="45.06207" lon="6.40491">
        <ele>2554.6</ele>
        <time>2022-07-16T10:01:40+0200</time>
      </trkpt>
      <trkpt lat="45.0621" lon="6.40485">
        <ele>2555.7</ele>
        <time>2022-07-16T10:01:45+0200</time>
      </trkpt>
      <trkpt lat="45.06214" lon="6.40479">
        <ele>2557.1</ele>
        <time>2022-07-16T10:01:49+0200</time>
      </trkpt>
      <trkpt lat="45.06217" lon="6.40472">
        <ele>2558.7</ele>
        <time>2022-07-16T10:01:54+0200</time>
      </trkpt>
      <trkpt lat="45.06218" lon="6.40464">
        <ele>2560.2</ele>
        <time>2022-07-16T10:01:58+0200</time>
      </trkpt>
      <trkpt lat="45.06219" lon="6.40457">
        <ele>2561.6</ele>
        <time>2022-07-16T10:02:02+0200</time>
      </trkpt>
      <trkpt lat="45.06221" lon="6.40449">
        <ele>2563.2</ele>
        <time>2022-07-16T10:02:06+0200</time>
      </trkpt>
      <trkpt lat="45.06222" lon="6.40442">
        <ele>2564</ele>
        <time>2022-07-16T10:02:10+0200</time>
      </trkpt>
      <trkpt lat="45.06224" lon="6.40434">
        <ele>2564.7</ele>
        <time>2022-07-16T10:02:16+0200</time>
      </trkpt>
      <trkpt lat="45.0623" lon="6.40435">
        <ele>2565.6</ele>
        <time>2022-07-16T10:02:20+0200</time>
      </trkpt>
      <trkpt lat="45.06235" lon="6.40436">
        <ele>2566.3</ele>
        <time>2022-07-16T10:02:24+0200</time>
      </trkpt>
      <trkpt lat="45.0624" lon="6.40438">
        <ele>2566.9</ele>
        <time>2022-07-16T10:02:28+0200</time>
      </trkpt>
      <trkpt lat="45.06245" lon="6.40437">
        <ele>2567.7</ele>
        <time>2022-07-16T10:02:31+0200</time>
      </trkpt>
      <trkpt lat="45.06251" lon="6.40438">
        <ele>2568.4</ele>
        <time>2022-07-16T10:02:36+0200</time>
      </trkpt>
      <trkpt lat="45.06255" lon="6.4044">
        <ele>2568.2</ele>
        <time>2022-07-16T10:02:40+0200</time>
      </trkpt>
      <trkpt lat="45.06259" lon="6.40435">
        <ele>2568.6</ele>
        <time>2022-07-16T10:02:45+0200</time>
      </trkpt>
      <trkpt lat="45.06262" lon="6.4043">
        <ele>2569</ele>
        <time>2022-07-16T10:02:49+0200</time>
      </trkpt>
      <trkpt lat="45.06263" lon="6.40424">
        <ele>2569.7</ele>
        <time>2022-07-16T10:03:43+0200</time>
      </trkpt>
      <trkpt lat="45.06268" lon="6.40427">
        <ele>2569.5</ele>
        <time>2022-07-16T10:04:11+0200</time>
      </trkpt>
      <trkpt lat="45.06274" lon="6.40429">
        <ele>2569.3</ele>
        <time>2022-07-16T10:04:15+0200</time>
      </trkpt>
      <trkpt lat="45.06278" lon="6.40425">
        <ele>2569.9</ele>
        <time>2022-07-16T10:04:18+0200</time>
      </trkpt>
      <trkpt lat="45.06284" lon="6.40426">
        <ele>2569.5</ele>
        <time>2022-07-16T10:04:20+0200</time>
      </trkpt>
      <trkpt lat="45.06289" lon="6.40429">
        <ele>2569.1</ele>
        <time>2022-07-16T10:04:21+0200</time>
      </trkpt>
      <trkpt lat="45.06296" lon="6.40432">
        <ele>2568.9</ele>
        <time>2022-07-16T10:04:22+0200</time>
      </trkpt>
      <trkpt lat="45.06303" lon="6.40436">
        <ele>2568.9</ele>
        <time>2022-07-16T10:04:23+0200</time>
      </trkpt>
      <trkpt lat="45.06311" lon="6.40438">
        <ele>2569.6</ele>
        <time>2022-07-16T10:04:24+0200</time>
      </trkpt>
      <trkpt lat="45.06315" lon="6.40436">
        <ele>2570.2</ele>
        <time>2022-07-16T10:04:25+0200</time>
      </trkpt>
      <trkpt lat="45.06319" lon="6.40433">
        <ele>2570.6</ele>
        <time>2022-07-16T10:04:27+0200</time>
      </trkpt>
      <trkpt lat="45.06324" lon="6.40427">
        <ele>2570.8</ele>
        <time>2022-07-16T10:04:31+0200</time>
      </trkpt>
      <trkpt lat="45.0633" lon="6.40427">
        <ele>2571.4</ele>
        <time>2022-07-16T10:04:35+0200</time>
      </trkpt>
      <trkpt lat="45.0633" lon="6.40434">
        <ele>2571.8</ele>
        <time>2022-07-16T10:04:38+0200</time>
      </trkpt>
      <trkpt lat="45.06329" lon="6.40427">
        <ele>2571.3</ele>
        <time>2022-07-16T10:04:50+0200</time>
      </trkpt>
      <trkpt lat="45.06327" lon="6.40434">
        <ele>2571.5</ele>
        <time>2022-07-16T10:05:45+0200</time>
      </trkpt>
      <trkpt lat="45.06326" lon="6.40441">
        <ele>2571.8</ele>
        <time>2022-07-16T10:05:49+0200</time>
      </trkpt>
      <trkpt lat="45.06331" lon="6.40447">
        <ele>2572.9</ele>
        <time>2022-07-16T10:05:54+0200</time>
      </trkpt>
      <trkpt lat="45.06335" lon="6.4045">
        <ele>2574.2</ele>
        <time>2022-07-16T10:05:57+0200</time>
      </trkpt>
      <trkpt lat="45.06338" lon="6.40454">
        <ele>2575.6</ele>
        <time>2022-07-16T10:06:00+0200</time>
      </trkpt>
      <trkpt lat="45.06344" lon="6.40454">
        <ele>2577.1</ele>
        <time>2022-07-16T10:06:05+0200</time>
      </trkpt>
      <trkpt lat="45.06349" lon="6.40451">
        <ele>2578</ele>
        <time>2022-07-16T10:06:10+0200</time>
      </trkpt>
      <trkpt lat="45.06353" lon="6.40448">
        <ele>2578.5</ele>
        <time>2022-07-16T10:06:16+0200</time>
      </trkpt>
      <trkpt lat="45.06357" lon="6.40442">
        <ele>2578.9</ele>
        <time>2022-07-16T10:06:21+0200</time>
      </trkpt>
      <trkpt lat="45.06361" lon="6.40437">
        <ele>2579.9</ele>
        <time>2022-07-16T10:06:26+0200</time>
      </trkpt>
      <trkpt lat="45.06364" lon="6.4043">
        <ele>2581.4</ele>
        <time>2022-07-16T10:06:30+0200</time>
      </trkpt>
      <trkpt lat="45.06367" lon="6.40424">
        <ele>2582.7</ele>
        <time>2022-07-16T10:06:35+0200</time>
      </trkpt>
      <trkpt lat="45.0637" lon="6.40418">
        <ele>2583.7</ele>
        <time>2022-07-16T10:06:41+0200</time>
      </trkpt>
      <trkpt lat="45.06375" lon="6.40411">
        <ele>2584.6</ele>
        <time>2022-07-16T10:06:45+0200</time>
      </trkpt>
      <trkpt lat="45.06378" lon="6.40406">
        <ele>2585.2</ele>
        <time>2022-07-16T10:06:48+0200</time>
      </trkpt>
      <trkpt lat="45.06381" lon="6.404">
        <ele>2585.4</ele>
        <time>2022-07-16T10:06:51+0200</time>
      </trkpt>
      <trkpt lat="45.06384" lon="6.40393">
        <ele>2585.3</ele>
        <time>2022-07-16T10:06:55+0200</time>
      </trkpt>
      <trkpt lat="45.06388" lon="6.40387">
        <ele>2585.7</ele>
        <time>2022-07-16T10:06:58+0200</time>
      </trkpt>
      <trkpt lat="45.06391" lon="6.40381">
        <ele>2586.8</ele>
        <time>2022-07-16T10:07:00+0200</time>
      </trkpt>
      <trkpt lat="45.06393" lon="6.40373">
        <ele>2587.1</ele>
        <time>2022-07-16T10:07:03+0200</time>
      </trkpt>
      <trkpt lat="45.06398" lon="6.40367">
        <ele>2588.1</ele>
        <time>2022-07-16T10:07:06+0200</time>
      </trkpt>
      <trkpt lat="45.06402" lon="6.4036">
        <ele>2588.8</ele>
        <time>2022-07-16T10:07:10+0200</time>
      </trkpt>
      <trkpt lat="45.06406" lon="6.40355">
        <ele>2589.3</ele>
        <time>2022-07-16T10:07:13+0200</time>
      </trkpt>
      <trkpt lat="45.06411" lon="6.40351">
        <ele>2590</ele>
        <time>2022-07-16T10:07:16+0200</time>
      </trkpt>
      <trkpt lat="45.06415" lon="6.40345">
        <ele>2590.3</ele>
        <time>2022-07-16T10:07:20+0200</time>
      </trkpt>
      <trkpt lat="45.06419" lon="6.4034">
        <ele>2590.6</ele>
        <time>2022-07-16T10:07:23+0200</time>
      </trkpt>
      <trkpt lat="45.06423" lon="6.40335">
        <ele>2591.3</ele>
        <time>2022-07-16T10:07:26+0200</time>
      </trkpt>
      <trkpt lat="45.06427" lon="6.40329">
        <ele>2591.9</ele>
        <time>2022-07-16T10:07:29+0200</time>
      </trkpt>
      <trkpt lat="45.06432" lon="6.40322">
        <ele>2592.7</ele>
        <time>2022-07-16T10:07:32+0200</time>
      </trkpt>
      <trkpt lat="45.06436" lon="6.40316">
        <ele>2593.1</ele>
        <time>2022-07-16T10:07:35+0200</time>
      </trkpt>
      <trkpt lat="45.0644" lon="6.4031">
        <ele>2593</ele>
        <time>2022-07-16T10:07:38+0200</time>
      </trkpt>
      <trkpt lat="45.06442" lon="6.40304">
        <ele>2592.8</ele>
        <time>2022-07-16T10:07:42+0200</time>
      </trkpt>
      <trkpt lat="45.0644" lon="6.40298">
        <ele>2592.8</ele>
        <time>2022-07-16T10:07:48+0200</time>
      </trkpt>
      <trkpt lat="45.06444" lon="6.40302">
        <ele>2592.9</ele>
        <time>2022-07-16T10:08:08+0200</time>
      </trkpt>
      <trkpt lat="45.06448" lon="6.40307">
        <ele>2593.2</ele>
        <time>2022-07-16T10:08:13+0200</time>
      </trkpt>
      <trkpt lat="45.06452" lon="6.40312">
        <ele>2594.4</ele>
        <time>2022-07-16T10:08:17+0200</time>
      </trkpt>
      <trkpt lat="45.06454" lon="6.40319">
        <ele>2596.3</ele>
        <time>2022-07-16T10:08:31+0200</time>
      </trkpt>
      <trkpt lat="45.06458" lon="6.40322">
        <ele>2598</ele>
        <time>2022-07-16T10:08:37+0200</time>
      </trkpt>
      <trkpt lat="45.06457" lon="6.40329">
        <ele>2599.9</ele>
        <time>2022-07-16T10:08:54+0200</time>
      </trkpt>
      <trkpt lat="45.06458" lon="6.40336">
        <ele>2602.5</ele>
        <time>2022-07-16T10:09:01+0200</time>
      </trkpt>
      <trkpt lat="45.06463" lon="6.40338">
        <ele>2604.9</ele>
        <time>2022-07-16T10:09:11+0200</time>
      </trkpt>
      <trkpt lat="45.06466" lon="6.40343">
        <ele>2608</ele>
        <time>2022-07-16T10:09:19+0200</time>
      </trkpt>
      <trkpt lat="45.06464" lon="6.40349">
        <ele>2610.2</ele>
        <time>2022-07-16T10:09:37+0200</time>
      </trkpt>
      <trkpt lat="45.06469" lon="6.40352">
        <ele>2613.6</ele>
        <time>2022-07-16T10:09:50+0200</time>
      </trkpt>
      <trkpt lat="45.06473" lon="6.40356">
        <ele>2617.4</ele>
        <time>2022-07-16T10:10:04+0200</time>
      </trkpt>
      <trkpt lat="45.06477" lon="6.40358">
        <ele>2617.9</ele>
        <time>2022-07-16T10:10:24+0200</time>
      </trkpt>
      <trkpt lat="45.06479" lon="6.40364">
        <ele>2620.6</ele>
        <time>2022-07-16T10:10:35+0200</time>
      </trkpt>
      <trkpt lat="45.06482" lon="6.4037">
        <ele>2622.6</ele>
        <time>2022-07-16T10:10:55+0200</time>
      </trkpt>
      <trkpt lat="45.06482" lon="6.40376">
        <ele>2625.4</ele>
        <time>2022-07-16T10:11:07+0200</time>
      </trkpt>
      <trkpt lat="45.06481" lon="6.40382">
        <ele>2627.9</ele>
        <time>2022-07-16T10:11:21+0200</time>
      </trkpt>
      <trkpt lat="45.06482" lon="6.40388">
        <ele>2630.6</ele>
        <time>2022-07-16T10:11:27+0200</time>
      </trkpt>
      <trkpt lat="45.06482" lon="6.40394">
        <ele>2632.7</ele>
        <time>2022-07-16T10:11:40+0200</time>
      </trkpt>
      <trkpt lat="45.06484" lon="6.40401">
        <ele>2635.2</ele>
        <time>2022-07-16T10:11:46+0200</time>
      </trkpt>
      <trkpt lat="45.06488" lon="6.40406">
        <ele>2637.6</ele>
        <time>2022-07-16T10:11:53+0200</time>
      </trkpt>
      <trkpt lat="45.06492" lon="6.40409">
        <ele>2640.1</ele>
        <time>2022-07-16T10:12:08+0200</time>
      </trkpt>
      <trkpt lat="45.06492" lon="6.40416">
        <ele>2642.7</ele>
        <time>2022-07-16T10:12:24+0200</time>
      </trkpt>
      <trkpt lat="45.06492" lon="6.40422">
        <ele>2645.5</ele>
        <time>2022-07-16T10:12:40+0200</time>
      </trkpt>
      <trkpt lat="45.06495" lon="6.40428">
        <ele>2648.8</ele>
        <time>2022-07-16T10:12:53+0200</time>
      </trkpt>
      <trkpt lat="45.06499" lon="6.40434">
        <ele>2652.8</ele>
        <time>2022-07-16T10:13:16+0200</time>
      </trkpt>
      <trkpt lat="45.06504" lon="6.40437">
        <ele>2655.4</ele>
        <time>2022-07-16T10:13:30+0200</time>
      </trkpt>
      <trkpt lat="45.06508" lon="6.4044">
        <ele>2657</ele>
        <time>2022-07-16T10:13:41+0200</time>
      </trkpt>
      <trkpt lat="45.06507" lon="6.40446">
        <ele>2659.1</ele>
        <time>2022-07-16T10:13:49+0200</time>
      </trkpt>
      <trkpt lat="45.06505" lon="6.40452">
        <ele>2660.2</ele>
        <time>2022-07-16T10:13:55+0200</time>
      </trkpt>
      <trkpt lat="45.06503" lon="6.40459">
        <ele>2661.5</ele>
        <time>2022-07-16T10:14:02+0200</time>
      </trkpt>
      <trkpt lat="45.06501" lon="6.40467">
        <ele>2663</ele>
        <time>2022-07-16T10:14:07+0200</time>
      </trkpt>
      <trkpt lat="45.06499" lon="6.40473">
        <ele>2663.6</ele>
        <time>2022-07-16T10:14:13+0200</time>
      </trkpt>
      <trkpt lat="45.06495" lon="6.40479">
        <ele>2663.7</ele>
        <time>2022-07-16T10:14:19+0200</time>
      </trkpt>
      <trkpt lat="45.06493" lon="6.40485">
        <ele>2664</ele>
        <time>2022-07-16T10:14:22+0200</time>
      </trkpt>
      <trkpt lat="45.06491" lon="6.40492">
        <ele>2664.5</ele>
        <time>2022-07-16T10:14:25+0200</time>
      </trkpt>
      <trkpt lat="45.06494" lon="6.40497">
        <ele>2666.5</ele>
        <time>2022-07-16T10:14:34+0200</time>
      </trkpt>
      <trkpt lat="45.06492" lon="6.40504">
        <ele>2667</ele>
        <time>2022-07-16T10:14:42+0200</time>
      </trkpt>
      <trkpt lat="45.06493" lon="6.40511">
        <ele>2668.2</ele>
        <time>2022-07-16T10:14:48+0200</time>
      </trkpt>
      <trkpt lat="45.06492" lon="6.40517">
        <ele>2669</ele>
        <time>2022-07-16T10:14:56+0200</time>
      </trkpt>
      <trkpt lat="45.06496" lon="6.40519">
        <ele>2670.1</ele>
        <time>2022-07-16T10:15:01+0200</time>
      </trkpt>
      <trkpt lat="45.06502" lon="6.4052">
        <ele>2670.9</ele>
        <time>2022-07-16T10:15:08+0200</time>
      </trkpt>
      <trkpt lat="45.06507" lon="6.40521">
        <ele>2671.7</ele>
        <time>2022-07-16T10:15:15+0200</time>
      </trkpt>
      <trkpt lat="45.06512" lon="6.40523">
        <ele>2672.4</ele>
        <time>2022-07-16T10:15:19+0200</time>
      </trkpt>
      <trkpt lat="45.06515" lon="6.40529">
        <ele>2673.7</ele>
        <time>2022-07-16T10:15:27+0200</time>
      </trkpt>
      <trkpt lat="45.06518" lon="6.40534">
        <ele>2674.6</ele>
        <time>2022-07-16T10:15:36+0200</time>
      </trkpt>
      <trkpt lat="45.06522" lon="6.40538">
        <ele>2675.5</ele>
        <time>2022-07-16T10:16:30+0200</time>
      </trkpt>
      <trkpt lat="45.06527" lon="6.40543">
        <ele>2676.9</ele>
        <time>2022-07-16T10:17:07+0200</time>
      </trkpt>
      <trkpt lat="45.06529" lon="6.4055">
        <ele>2676.3</ele>
        <time>2022-07-16T10:17:10+0200</time>
      </trkpt>
      <trkpt lat="45.06532" lon="6.40558">
        <ele>2673.8</ele>
        <time>2022-07-16T10:17:13+0200</time>
      </trkpt>
      <trkpt lat="45.06532" lon="6.40566">
        <ele>2673.1</ele>
        <time>2022-07-16T10:17:17+0200</time>
      </trkpt>
      <trkpt lat="45.0653" lon="6.40573">
        <ele>2675.1</ele>
        <time>2022-07-16T10:17:19+0200</time>
      </trkpt>
      <trkpt lat="45.06528" lon="6.40582">
        <ele>2676.9</ele>
        <time>2022-07-16T10:17:21+0200</time>
      </trkpt>
      <trkpt lat="45.06525" lon="6.4059">
        <ele>2674.1</ele>
        <time>2022-07-16T10:17:23+0200</time>
      </trkpt>
      <trkpt lat="45.06521" lon="6.40596">
        <ele>2672.1</ele>
        <time>2022-07-16T10:17:25+0200</time>
      </trkpt>
      <trkpt lat="45.0652" lon="6.40603">
        <ele>2671.1</ele>
        <time>2022-07-16T10:17:27+0200</time>
      </trkpt>
      <trkpt lat="45.06517" lon="6.4061">
        <ele>2670.6</ele>
        <time>2022-07-16T10:17:30+0200</time>
      </trkpt>
      <trkpt lat="45.06512" lon="6.40614">
        <ele>2670.2</ele>
        <time>2022-07-16T10:17:33+0200</time>
      </trkpt>
      <trkpt lat="45.06507" lon="6.40618">
        <ele>2669.9</ele>
        <time>2022-07-16T10:17:35+0200</time>
      </trkpt>
      <trkpt lat="45.06502" lon="6.40623">
        <ele>2669.7</ele>
        <time>2022-07-16T10:17:38+0200</time>
      </trkpt>
      <trkpt lat="45.06498" lon="6.40626">
        <ele>2669.5</ele>
        <time>2022-07-16T10:17:40+0200</time>
      </trkpt>
      <trkpt lat="45.06493" lon="6.40624">
        <ele>2671.1</ele>
        <time>2022-07-16T10:17:48+0200</time>
      </trkpt>
      <trkpt lat="45.06489" lon="6.40619">
        <ele>2672.7</ele>
        <time>2022-07-16T10:17:52+0200</time>
      </trkpt>
      <trkpt lat="45.06484" lon="6.40615">
        <ele>2674.2</ele>
        <time>2022-07-16T10:17:54+0200</time>
      </trkpt>
      <trkpt lat="45.06477" lon="6.40614">
        <ele>2675.2</ele>
        <time>2022-07-16T10:17:56+0200</time>
      </trkpt>
      <trkpt lat="45.06473" lon="6.40618">
        <ele>2675.5</ele>
        <time>2022-07-16T10:17:59+0200</time>
      </trkpt>
      <trkpt lat="45.06467" lon="6.40622">
        <ele>2673.7</ele>
        <time>2022-07-16T10:18:01+0200</time>
      </trkpt>
      <trkpt lat="45.06465" lon="6.40629">
        <ele>2672.7</ele>
        <time>2022-07-16T10:18:02+0200</time>
      </trkpt>
      <trkpt lat="45.06466" lon="6.40638">
        <ele>2672.2</ele>
        <time>2022-07-16T10:18:03+0200</time>
      </trkpt>
      <trkpt lat="45.06468" lon="6.40645">
        <ele>2672.8</ele>
        <time>2022-07-16T10:18:05+0200</time>
      </trkpt>
      <trkpt lat="45.06467" lon="6.40653">
        <ele>2672.5</ele>
        <time>2022-07-16T10:18:08+0200</time>
      </trkpt>
      <trkpt lat="45.06465" lon="6.4066">
        <ele>2672.2</ele>
        <time>2022-07-16T10:18:12+0200</time>
      </trkpt>
      <trkpt lat="45.0646" lon="6.40667">
        <ele>2671.5</ele>
        <time>2022-07-16T10:18:15+0200</time>
      </trkpt>
      <trkpt lat="45.06456" lon="6.40674">
        <ele>2668.7</ele>
        <time>2022-07-16T10:18:18+0200</time>
      </trkpt>
      <trkpt lat="45.06456" lon="6.40681">
        <ele>2666.3</ele>
        <time>2022-07-16T10:18:21+0200</time>
      </trkpt>
      <trkpt lat="45.06453" lon="6.40689">
        <ele>2663.4</ele>
        <time>2022-07-16T10:18:25+0200</time>
      </trkpt>
      <trkpt lat="45.06449" lon="6.40696">
        <ele>2661.4</ele>
        <time>2022-07-16T10:18:28+0200</time>
      </trkpt>
      <trkpt lat="45.06445" lon="6.40703">
        <ele>2659.5</ele>
        <time>2022-07-16T10:18:30+0200</time>
      </trkpt>
      <trkpt lat="45.06441" lon="6.40708">
        <ele>2657.6</ele>
        <time>2022-07-16T10:18:31+0200</time>
      </trkpt>
      <trkpt lat="45.0644" lon="6.40714">
        <ele>2655.5</ele>
        <time>2022-07-16T10:18:32+0200</time>
      </trkpt>
      <trkpt lat="45.06438" lon="6.40722">
        <ele>2653.1</ele>
        <time>2022-07-16T10:18:34+0200</time>
      </trkpt>
      <trkpt lat="45.06439" lon="6.40729">
        <ele>2652</ele>
        <time>2022-07-16T10:18:36+0200</time>
      </trkpt>
      <trkpt lat="45.06444" lon="6.40732">
        <ele>2651.8</ele>
        <time>2022-07-16T10:18:42+0200</time>
      </trkpt>
      <trkpt lat="45.06453" lon="6.40732">
        <ele>2649.6</ele>
        <time>2022-07-16T10:18:45+0200</time>
      </trkpt>
      <trkpt lat="45.06457" lon="6.40729">
        <ele>2649.7</ele>
        <time>2022-07-16T10:18:46+0200</time>
      </trkpt>
      <trkpt lat="45.06461" lon="6.40725">
        <ele>2649.8</ele>
        <time>2022-07-16T10:18:47+0200</time>
      </trkpt>
      <trkpt lat="45.06459" lon="6.40733">
        <ele>2647.8</ele>
        <time>2022-07-16T10:18:52+0200</time>
      </trkpt>
      <trkpt lat="45.06455" lon="6.40741">
        <ele>2646.4</ele>
        <time>2022-07-16T10:18:54+0200</time>
      </trkpt>
      <trkpt lat="45.06449" lon="6.40748">
        <ele>2646.6</ele>
        <time>2022-07-16T10:18:56+0200</time>
      </trkpt>
      <trkpt lat="45.06447" lon="6.40754">
        <ele>2645.4</ele>
        <time>2022-07-16T10:18:57+0200</time>
      </trkpt>
      <trkpt lat="45.06444" lon="6.40761">
        <ele>2643.8</ele>
        <time>2022-07-16T10:18:58+0200</time>
      </trkpt>
      <trkpt lat="45.06441" lon="6.40769">
        <ele>2641.1</ele>
        <time>2022-07-16T10:19:00+0200</time>
      </trkpt>
      <trkpt lat="45.06438" lon="6.40774">
        <ele>2639.5</ele>
        <time>2022-07-16T10:19:02+0200</time>
      </trkpt>
      <trkpt lat="45.06434" lon="6.4078">
        <ele>2638.6</ele>
        <time>2022-07-16T10:19:06+0200</time>
      </trkpt>
      <trkpt lat="45.06431" lon="6.40785">
        <ele>2638.3</ele>
        <time>2022-07-16T10:19:12+0200</time>
      </trkpt>
      <trkpt lat="45.06435" lon="6.40789">
        <ele>2636.1</ele>
        <time>2022-07-16T10:19:21+0200</time>
      </trkpt>
      <trkpt lat="45.0644" lon="6.40789">
        <ele>2634.4</ele>
        <time>2022-07-16T10:19:25+0200</time>
      </trkpt>
      <trkpt lat="45.06444" lon="6.40788">
        <ele>2633.2</ele>
        <time>2022-07-16T10:19:28+0200</time>
      </trkpt>
      <trkpt lat="45.0645" lon="6.40789">
        <ele>2630.1</ele>
        <time>2022-07-16T10:19:31+0200</time>
      </trkpt>
      <trkpt lat="45.06456" lon="6.40789">
        <ele>2627.4</ele>
        <time>2022-07-16T10:19:34+0200</time>
      </trkpt>
      <trkpt lat="45.06461" lon="6.40788">
        <ele>2625.6</ele>
        <time>2022-07-16T10:19:36+0200</time>
      </trkpt>
      <trkpt lat="45.06467" lon="6.40787">
        <ele>2622.7</ele>
        <time>2022-07-16T10:19:39+0200</time>
      </trkpt>
      <trkpt lat="45.06474" lon="6.40785">
        <ele>2620.3</ele>
        <time>2022-07-16T10:19:42+0200</time>
      </trkpt>
      <trkpt lat="45.0648" lon="6.40786">
        <ele>2618</ele>
        <time>2022-07-16T10:19:45+0200</time>
      </trkpt>
      <trkpt lat="45.06487" lon="6.40784">
        <ele>2616.1</ele>
        <time>2022-07-16T10:19:48+0200</time>
      </trkpt>
      <trkpt lat="45.06493" lon="6.40783">
        <ele>2614.2</ele>
        <time>2022-07-16T10:19:51+0200</time>
      </trkpt>
      <trkpt lat="45.06499" lon="6.40783">
        <ele>2612.4</ele>
        <time>2022-07-16T10:19:53+0200</time>
      </trkpt>
      <trkpt lat="45.06503" lon="6.40784">
        <ele>2610.3</ele>
        <time>2022-07-16T10:19:55+0200</time>
      </trkpt>
      <trkpt lat="45.06508" lon="6.40784">
        <ele>2608</ele>
        <time>2022-07-16T10:19:58+0200</time>
      </trkpt>
      <trkpt lat="45.06514" lon="6.40788">
        <ele>2604.4</ele>
        <time>2022-07-16T10:20:03+0200</time>
      </trkpt>
      <trkpt lat="45.06519" lon="6.40791">
        <ele>2601.3</ele>
        <time>2022-07-16T10:20:06+0200</time>
      </trkpt>
      <trkpt lat="45.06524" lon="6.40792">
        <ele>2599</ele>
        <time>2022-07-16T10:20:09+0200</time>
      </trkpt>
      <trkpt lat="45.06528" lon="6.40794">
        <ele>2596.5</ele>
        <time>2022-07-16T10:20:13+0200</time>
      </trkpt>
      <trkpt lat="45.06533" lon="6.40795">
        <ele>2594.4</ele>
        <time>2022-07-16T10:20:19+0200</time>
      </trkpt>
      <trkpt lat="45.06538" lon="6.40794">
        <ele>2592.9</ele>
        <time>2022-07-16T10:20:22+0200</time>
      </trkpt>
      <trkpt lat="45.06544" lon="6.40795">
        <ele>2590.5</ele>
        <time>2022-07-16T10:20:25+0200</time>
      </trkpt>
      <trkpt lat="45.06548" lon="6.40799">
        <ele>2588.6</ele>
        <time>2022-07-16T10:20:30+0200</time>
      </trkpt>
      <trkpt lat="45.06547" lon="6.40806">
        <ele>2588.3</ele>
        <time>2022-07-16T10:20:33+0200</time>
      </trkpt>
      <trkpt lat="45.06546" lon="6.40815">
        <ele>2586.8</ele>
        <time>2022-07-16T10:20:41+0200</time>
      </trkpt>
      <trkpt lat="45.06546" lon="6.40822">
        <ele>2585.5</ele>
        <time>2022-07-16T10:20:43+0200</time>
      </trkpt>
      <trkpt lat="45.06549" lon="6.40828">
        <ele>2584.1</ele>
        <time>2022-07-16T10:20:47+0200</time>
      </trkpt>
      <trkpt lat="45.06554" lon="6.4083">
        <ele>2582.7</ele>
        <time>2022-07-16T10:20:51+0200</time>
      </trkpt>
      <trkpt lat="45.0656" lon="6.4083">
        <ele>2580</ele>
        <time>2022-07-16T10:20:54+0200</time>
      </trkpt>
      <trkpt lat="45.06567" lon="6.40831">
        <ele>2575.9</ele>
        <time>2022-07-16T10:20:57+0200</time>
      </trkpt>
      <trkpt lat="45.06571" lon="6.40828">
        <ele>2573.8</ele>
        <time>2022-07-16T10:21:00+0200</time>
      </trkpt>
      <trkpt lat="45.06578" lon="6.40826">
        <ele>2570</ele>
        <time>2022-07-16T10:21:03+0200</time>
      </trkpt>
      <trkpt lat="45.06584" lon="6.40823">
        <ele>2566.8</ele>
        <time>2022-07-16T10:21:05+0200</time>
      </trkpt>
      <trkpt lat="45.06588" lon="6.40819">
        <ele>2565.4</ele>
        <time>2022-07-16T10:21:08+0200</time>
      </trkpt>
      <trkpt lat="45.06593" lon="6.40821">
        <ele>2563.3</ele>
        <time>2022-07-16T10:21:13+0200</time>
      </trkpt>
      <trkpt lat="45.06591" lon="6.40828">
        <ele>2563.5</ele>
        <time>2022-07-16T10:21:15+0200</time>
      </trkpt>
      <trkpt lat="45.0659" lon="6.40839">
        <ele>2563.9</ele>
        <time>2022-07-16T10:21:17+0200</time>
      </trkpt>
      <trkpt lat="45.06595" lon="6.40841">
        <ele>2562</ele>
        <time>2022-07-16T10:21:19+0200</time>
      </trkpt>
      <trkpt lat="45.06602" lon="6.40841">
        <ele>2559.3</ele>
        <time>2022-07-16T10:21:21+0200</time>
      </trkpt>
      <trkpt lat="45.06607" lon="6.40847">
        <ele>2557.2</ele>
        <time>2022-07-16T10:21:23+0200</time>
      </trkpt>
      <trkpt lat="45.06613" lon="6.40847">
        <ele>2555.1</ele>
        <time>2022-07-16T10:21:34+0200</time>
      </trkpt>
      <trkpt lat="45.06623" lon="6.4085">
        <ele>2553</ele>
        <time>2022-07-16T10:21:36+0200</time>
      </trkpt>
      <trkpt lat="45.06629" lon="6.40853">
        <ele>2552</ele>
        <time>2022-07-16T10:21:37+0200</time>
      </trkpt>
      <trkpt lat="45.06636" lon="6.40851">
        <ele>2550.4</ele>
        <time>2022-07-16T10:21:38+0200</time>
      </trkpt>
      <trkpt lat="45.06644" lon="6.40852">
        <ele>2549.5</ele>
        <time>2022-07-16T10:21:39+0200</time>
      </trkpt>
      <trkpt lat="45.06653" lon="6.40855">
        <ele>2549.1</ele>
        <time>2022-07-16T10:21:40+0200</time>
      </trkpt>
      <trkpt lat="45.06658" lon="6.4086">
        <ele>2549.1</ele>
        <time>2022-07-16T10:21:41+0200</time>
      </trkpt>
      <trkpt lat="45.06666" lon="6.40867">
        <ele>2548.4</ele>
        <time>2022-07-16T10:21:42+0200</time>
      </trkpt>
      <trkpt lat="45.06672" lon="6.40877">
        <ele>2548.6</ele>
        <time>2022-07-16T10:21:43+0200</time>
      </trkpt>
      <trkpt lat="45.06676" lon="6.40885">
        <ele>2548.7</ele>
        <time>2022-07-16T10:21:44+0200</time>
      </trkpt>
      <trkpt lat="45.0668" lon="6.40893">
        <ele>2548.1</ele>
        <time>2022-07-16T10:21:45+0200</time>
      </trkpt>
      <trkpt lat="45.06684" lon="6.40899">
        <ele>2547.4</ele>
        <time>2022-07-16T10:21:46+0200</time>
      </trkpt>
      <trkpt lat="45.06688" lon="6.40903">
        <ele>2546.9</ele>
        <time>2022-07-16T10:21:47+0200</time>
      </trkpt>
      <trkpt lat="45.06693" lon="6.40903">
        <ele>2546.5</ele>
        <time>2022-07-16T10:21:49+0200</time>
      </trkpt>
      <trkpt lat="45.067" lon="6.40908">
        <ele>2545</ele>
        <time>2022-07-16T10:21:51+0200</time>
      </trkpt>
      <trkpt lat="45.06703" lon="6.40913">
        <ele>2543.9</ele>
        <time>2022-07-16T10:21:59+0200</time>
      </trkpt>
      <trkpt lat="45.06707" lon="6.40917">
        <ele>2542.7</ele>
        <time>2022-07-16T10:22:06+0200</time>
      </trkpt>
      <trkpt lat="45.06708" lon="6.40923">
        <ele>2541.9</ele>
        <time>2022-07-16T10:22:44+0200</time>
      </trkpt>
      <trkpt lat="45.0671" lon="6.40929">
        <ele>2541</ele>
        <time>2022-07-16T10:22:47+0200</time>
      </trkpt>
      <trkpt lat="45.0671" lon="6.40938">
        <ele>2540.2</ele>
        <time>2022-07-16T10:22:52+0200</time>
      </trkpt>
      <trkpt lat="45.06708" lon="6.40932">
        <ele>2541.2</ele>
        <time>2022-07-16T10:22:56+0200</time>
      </trkpt>
      <trkpt lat="45.06707" lon="6.40923">
        <ele>2542.2</ele>
        <time>2022-07-16T10:23:00+0200</time>
      </trkpt>
      <trkpt lat="45.06705" lon="6.40915">
        <ele>2543.4</ele>
        <time>2022-07-16T10:23:03+0200</time>
      </trkpt>
      <trkpt lat="45.067" lon="6.40912">
        <ele>2544.5</ele>
        <time>2022-07-16T10:23:05+0200</time>
      </trkpt>
      <trkpt lat="45.06695" lon="6.40914">
        <ele>2545.2</ele>
        <time>2022-07-16T10:23:07+0200</time>
      </trkpt>
      <trkpt lat="45.06691" lon="6.40911">
        <ele>2545.9</ele>
        <time>2022-07-16T10:23:09+0200</time>
      </trkpt>
      <trkpt lat="45.0669" lon="6.40902">
        <ele>2546.8</ele>
        <time>2022-07-16T10:23:11+0200</time>
      </trkpt>
      <trkpt lat="45.06689" lon="6.40893">
        <ele>2547.8</ele>
        <time>2022-07-16T10:23:14+0200</time>
      </trkpt>
      <trkpt lat="45.06687" lon="6.40885">
        <ele>2548.5</ele>
        <time>2022-07-16T10:23:16+0200</time>
      </trkpt>
      <trkpt lat="45.06686" lon="6.40878">
        <ele>2548.7</ele>
        <time>2022-07-16T10:23:18+0200</time>
      </trkpt>
      <trkpt lat="45.06683" lon="6.40871">
        <ele>2548.9</ele>
        <time>2022-07-16T10:23:20+0200</time>
      </trkpt>
      <trkpt lat="45.0668" lon="6.40864">
        <ele>2548.9</ele>
        <time>2022-07-16T10:23:22+0200</time>
      </trkpt>
      <trkpt lat="45.06679" lon="6.40856">
        <ele>2548.7</ele>
        <time>2022-07-16T10:23:24+0200</time>
      </trkpt>
      <trkpt lat="45.06679" lon="6.40849">
        <ele>2548.4</ele>
        <time>2022-07-16T10:23:27+0200</time>
      </trkpt>
      <trkpt lat="45.06685" lon="6.4085">
        <ele>2549</ele>
        <time>2022-07-16T10:23:31+0200</time>
      </trkpt>
      <trkpt lat="45.0669" lon="6.40847">
        <ele>2549.5</ele>
        <time>2022-07-16T10:23:34+0200</time>
      </trkpt>
      <trkpt lat="45.06697" lon="6.40847">
        <ele>2549.9</ele>
        <time>2022-07-16T10:23:37+0200</time>
      </trkpt>
      <trkpt lat="45.06702" lon="6.40848">
        <ele>2549.6</ele>
        <time>2022-07-16T10:23:39+0200</time>
      </trkpt>
      <trkpt lat="45.06708" lon="6.40851">
        <ele>2549.4</ele>
        <time>2022-07-16T10:23:41+0200</time>
      </trkpt>
      <trkpt lat="45.06714" lon="6.4085">
        <ele>2549</ele>
        <time>2022-07-16T10:23:43+0200</time>
      </trkpt>
      <trkpt lat="45.06719" lon="6.40847">
        <ele>2548.7</ele>
        <time>2022-07-16T10:23:45+0200</time>
      </trkpt>
      <trkpt lat="45.06724" lon="6.40845">
        <ele>2547.6</ele>
        <time>2022-07-16T10:23:48+0200</time>
      </trkpt>
      <trkpt lat="45.06725" lon="6.40852">
        <ele>2547.7</ele>
        <time>2022-07-16T10:23:54+0200</time>
      </trkpt>
      <trkpt lat="45.06724" lon="6.40858">
        <ele>2548.3</ele>
        <time>2022-07-16T10:24:00+0200</time>
      </trkpt>
      <trkpt lat="45.06729" lon="6.40862">
        <ele>2546.4</ele>
        <time>2022-07-16T10:24:02+0200</time>
      </trkpt>
      <trkpt lat="45.06736" lon="6.40858">
        <ele>2543.8</ele>
        <time>2022-07-16T10:24:04+0200</time>
      </trkpt>
      <trkpt lat="45.06744" lon="6.40857">
        <ele>2540.5</ele>
        <time>2022-07-16T10:24:06+0200</time>
      </trkpt>
      <trkpt lat="45.0675" lon="6.40854">
        <ele>2537.5</ele>
        <time>2022-07-16T10:24:08+0200</time>
      </trkpt>
      <trkpt lat="45.06757" lon="6.40855">
        <ele>2535</ele>
        <time>2022-07-16T10:24:11+0200</time>
      </trkpt>
      <trkpt lat="45.06762" lon="6.40859">
        <ele>2533.6</ele>
        <time>2022-07-16T10:24:13+0200</time>
      </trkpt>
      <trkpt lat="45.06769" lon="6.40852">
        <ele>2530.2</ele>
        <time>2022-07-16T10:24:15+0200</time>
      </trkpt>
      <trkpt lat="45.06773" lon="6.40846">
        <ele>2528.4</ele>
        <time>2022-07-16T10:24:16+0200</time>
      </trkpt>
      <trkpt lat="45.06779" lon="6.4084">
        <ele>2526.8</ele>
        <time>2022-07-16T10:24:17+0200</time>
      </trkpt>
      <trkpt lat="45.06785" lon="6.40838">
        <ele>2526.1</ele>
        <time>2022-07-16T10:24:18+0200</time>
      </trkpt>
      <trkpt lat="45.06793" lon="6.4084">
        <ele>2525</ele>
        <time>2022-07-16T10:24:19+0200</time>
      </trkpt>
      <trkpt lat="45.068" lon="6.40841">
        <ele>2523.9</ele>
        <time>2022-07-16T10:24:20+0200</time>
      </trkpt>
      <trkpt lat="45.06806" lon="6.40842">
        <ele>2522.6</ele>
        <time>2022-07-16T10:24:21+0200</time>
      </trkpt>
      <trkpt lat="45.06812" lon="6.40844">
        <ele>2520.1</ele>
        <time>2022-07-16T10:24:22+0200</time>
      </trkpt>
      <trkpt lat="45.06817" lon="6.40845">
        <ele>2517.9</ele>
        <time>2022-07-16T10:24:23+0200</time>
      </trkpt>
      <trkpt lat="45.06825" lon="6.40851">
        <ele>2515.3</ele>
        <time>2022-07-16T10:24:25+0200</time>
      </trkpt>
      <trkpt lat="45.0683" lon="6.4085">
        <ele>2513.7</ele>
        <time>2022-07-16T10:24:27+0200</time>
      </trkpt>
      <trkpt lat="45.06836" lon="6.40852">
        <ele>2512.1</ele>
        <time>2022-07-16T10:24:29+0200</time>
      </trkpt>
      <trkpt lat="45.06842" lon="6.40853">
        <ele>2510.3</ele>
        <time>2022-07-16T10:24:31+0200</time>
      </trkpt>
      <trkpt lat="45.06848" lon="6.40856">
        <ele>2508.9</ele>
        <time>2022-07-16T10:24:33+0200</time>
      </trkpt>
      <trkpt lat="45.06853" lon="6.40864">
        <ele>2509.2</ele>
        <time>2022-07-16T10:24:35+0200</time>
      </trkpt>
      <trkpt lat="45.06857" lon="6.40871">
        <ele>2508.6</ele>
        <time>2022-07-16T10:24:40+0200</time>
      </trkpt>
      <trkpt lat="45.06861" lon="6.40877">
        <ele>2508.7</ele>
        <time>2022-07-16T10:24:41+0200</time>
      </trkpt>
      <trkpt lat="45.06863" lon="6.40882">
        <ele>2508.5</ele>
        <time>2022-07-16T10:24:42+0200</time>
      </trkpt>
      <trkpt lat="45.06865" lon="6.40889">
        <ele>2508.1</ele>
        <time>2022-07-16T10:24:43+0200</time>
      </trkpt>
      <trkpt lat="45.06868" lon="6.40901">
        <ele>2505.8</ele>
        <time>2022-07-16T10:24:45+0200</time>
      </trkpt>
      <trkpt lat="45.06869" lon="6.40908">
        <ele>2504.9</ele>
        <time>2022-07-16T10:24:46+0200</time>
      </trkpt>
      <trkpt lat="45.0687" lon="6.40921">
        <ele>2503.6</ele>
        <time>2022-07-16T10:24:48+0200</time>
      </trkpt>
      <trkpt lat="45.06871" lon="6.40929">
        <ele>2502</ele>
        <time>2022-07-16T10:24:49+0200</time>
      </trkpt>
      <trkpt lat="45.06872" lon="6.40937">
        <ele>2500.6</ele>
        <time>2022-07-16T10:24:50+0200</time>
      </trkpt>
      <trkpt lat="45.06873" lon="6.40944">
        <ele>2499.4</ele>
        <time>2022-07-16T10:24:51+0200</time>
      </trkpt>
      <trkpt lat="45.06874" lon="6.4095">
        <ele>2498.1</ele>
        <time>2022-07-16T10:24:52+0200</time>
      </trkpt>
      <trkpt lat="45.06874" lon="6.40957">
        <ele>2496.6</ele>
        <time>2022-07-16T10:24:53+0200</time>
      </trkpt>
      <trkpt lat="45.06875" lon="6.40968">
        <ele>2494.3</ele>
        <time>2022-07-16T10:24:55+0200</time>
      </trkpt>
      <trkpt lat="45.06883" lon="6.4097">
        <ele>2492.1</ele>
        <time>2022-07-16T10:24:58+0200</time>
      </trkpt>
      <trkpt lat="45.06892" lon="6.40966">
        <ele>2490.3</ele>
        <time>2022-07-16T10:25:00+0200</time>
      </trkpt>
      <trkpt lat="45.06897" lon="6.40964">
        <ele>2488.6</ele>
        <time>2022-07-16T10:25:01+0200</time>
      </trkpt>
      <trkpt lat="45.06902" lon="6.4096">
        <ele>2487.5</ele>
        <time>2022-07-16T10:25:02+0200</time>
      </trkpt>
      <trkpt lat="45.06907" lon="6.40958">
        <ele>2485.6</ele>
        <time>2022-07-16T10:25:04+0200</time>
      </trkpt>
      <trkpt lat="45.06913" lon="6.4096">
        <ele>2482.8</ele>
        <time>2022-07-16T10:25:06+0200</time>
      </trkpt>
      <trkpt lat="45.06918" lon="6.40963">
        <ele>2480.4</ele>
        <time>2022-07-16T10:25:09+0200</time>
      </trkpt>
      <trkpt lat="45.06923" lon="6.40966">
        <ele>2478.3</ele>
        <time>2022-07-16T10:25:37+0200</time>
      </trkpt>
      <trkpt lat="45.06928" lon="6.40971">
        <ele>2476.1</ele>
        <time>2022-07-16T10:25:47+0200</time>
      </trkpt>
      <trkpt lat="45.06928" lon="6.40978">
        <ele>2475.4</ele>
        <time>2022-07-16T10:25:48+0200</time>
      </trkpt>
      <trkpt lat="45.06929" lon="6.40985">
        <ele>2474.5</ele>
        <time>2022-07-16T10:25:49+0200</time>
      </trkpt>
      <trkpt lat="45.06929" lon="6.40992">
        <ele>2474.1</ele>
        <time>2022-07-16T10:25:50+0200</time>
      </trkpt>
      <trkpt lat="45.06927" lon="6.41">
        <ele>2474.1</ele>
        <time>2022-07-16T10:25:51+0200</time>
      </trkpt>
      <trkpt lat="45.06924" lon="6.41008">
        <ele>2474.7</ele>
        <time>2022-07-16T10:25:52+0200</time>
      </trkpt>
      <trkpt lat="45.06921" lon="6.41016">
        <ele>2475</ele>
        <time>2022-07-16T10:25:53+0200</time>
      </trkpt>
      <trkpt lat="45.06921" lon="6.41023">
        <ele>2474.7</ele>
        <time>2022-07-16T10:25:54+0200</time>
      </trkpt>
      <trkpt lat="45.06925" lon="6.41027">
        <ele>2474.1</ele>
        <time>2022-07-16T10:25:55+0200</time>
      </trkpt>
      <trkpt lat="45.0693" lon="6.41031">
        <ele>2473.7</ele>
        <time>2022-07-16T10:25:56+0200</time>
      </trkpt>
      <trkpt lat="45.06937" lon="6.41034">
        <ele>2473.4</ele>
        <time>2022-07-16T10:25:57+0200</time>
      </trkpt>
      <trkpt lat="45.06944" lon="6.41037">
        <ele>2473.3</ele>
        <time>2022-07-16T10:25:58+0200</time>
      </trkpt>
      <trkpt lat="45.06951" lon="6.41037">
        <ele>2472.9</ele>
        <time>2022-07-16T10:25:59+0200</time>
      </trkpt>
      <trkpt lat="45.06957" lon="6.41037">
        <ele>2472.6</ele>
        <time>2022-07-16T10:26:00+0200</time>
      </trkpt>
      <trkpt lat="45.06962" lon="6.41038">
        <ele>2472.5</ele>
        <time>2022-07-16T10:26:01+0200</time>
      </trkpt>
      <trkpt lat="45.06968" lon="6.41039">
        <ele>2472.3</ele>
        <time>2022-07-16T10:26:02+0200</time>
      </trkpt>
      <trkpt lat="45.06973" lon="6.4104">
        <ele>2472.4</ele>
        <time>2022-07-16T10:26:03+0200</time>
      </trkpt>
      <trkpt lat="45.0698" lon="6.41045">
        <ele>2472.7</ele>
        <time>2022-07-16T10:26:05+0200</time>
      </trkpt>
      <trkpt lat="45.06988" lon="6.41049">
        <ele>2472.6</ele>
        <time>2022-07-16T10:26:07+0200</time>
      </trkpt>
      <trkpt lat="45.06994" lon="6.41055">
        <ele>2473.8</ele>
        <time>2022-07-16T10:26:09+0200</time>
      </trkpt>
      <trkpt lat="45.07" lon="6.41056">
        <ele>2472.9</ele>
        <time>2022-07-16T10:26:11+0200</time>
      </trkpt>
      <trkpt lat="45.07005" lon="6.41058">
        <ele>2471.8</ele>
        <time>2022-07-16T10:26:12+0200</time>
      </trkpt>
      <trkpt lat="45.0701" lon="6.4106">
        <ele>2471</ele>
        <time>2022-07-16T10:26:13+0200</time>
      </trkpt>
      <trkpt lat="45.07016" lon="6.41061">
        <ele>2469.9</ele>
        <time>2022-07-16T10:26:14+0200</time>
      </trkpt>
      <trkpt lat="45.07023" lon="6.41064">
        <ele>2468.8</ele>
        <time>2022-07-16T10:26:15+0200</time>
      </trkpt>
      <trkpt lat="45.07029" lon="6.41066">
        <ele>2467.8</ele>
        <time>2022-07-16T10:26:16+0200</time>
      </trkpt>
      <trkpt lat="45.07035" lon="6.41068">
        <ele>2467.2</ele>
        <time>2022-07-16T10:26:17+0200</time>
      </trkpt>
      <trkpt lat="45.07041" lon="6.4107">
        <ele>2466.8</ele>
        <time>2022-07-16T10:26:18+0200</time>
      </trkpt>
      <trkpt lat="45.07047" lon="6.41071">
        <ele>2466.6</ele>
        <time>2022-07-16T10:26:19+0200</time>
      </trkpt>
      <trkpt lat="45.07053" lon="6.41072">
        <ele>2466.5</ele>
        <time>2022-07-16T10:26:20+0200</time>
      </trkpt>
      <trkpt lat="45.0706" lon="6.41076">
        <ele>2466.4</ele>
        <time>2022-07-16T10:26:21+0200</time>
      </trkpt>
      <trkpt lat="45.07067" lon="6.41077">
        <ele>2465.8</ele>
        <time>2022-07-16T10:26:22+0200</time>
      </trkpt>
      <trkpt lat="45.07073" lon="6.41077">
        <ele>2465</ele>
        <time>2022-07-16T10:26:23+0200</time>
      </trkpt>
      <trkpt lat="45.0708" lon="6.41078">
        <ele>2464.3</ele>
        <time>2022-07-16T10:26:24+0200</time>
      </trkpt>
      <trkpt lat="45.07087" lon="6.4108">
        <ele>2463.1</ele>
        <time>2022-07-16T10:26:25+0200</time>
      </trkpt>
      <trkpt lat="45.07092" lon="6.41079">
        <ele>2461.4</ele>
        <time>2022-07-16T10:26:26+0200</time>
      </trkpt>
      <trkpt lat="45.07098" lon="6.41076">
        <ele>2459.1</ele>
        <time>2022-07-16T10:26:28+0200</time>
      </trkpt>
      <trkpt lat="45.07103" lon="6.41078">
        <ele>2457.8</ele>
        <time>2022-07-16T10:26:30+0200</time>
      </trkpt>
      <trkpt lat="45.07111" lon="6.41083">
        <ele>2456</ele>
        <time>2022-07-16T10:26:32+0200</time>
      </trkpt>
      <trkpt lat="45.07115" lon="6.41087">
        <ele>2455.2</ele>
        <time>2022-07-16T10:26:33+0200</time>
      </trkpt>
      <trkpt lat="45.07119" lon="6.41093">
        <ele>2454.4</ele>
        <time>2022-07-16T10:26:34+0200</time>
      </trkpt>
      <trkpt lat="45.07122" lon="6.411">
        <ele>2453.6</ele>
        <time>2022-07-16T10:26:35+0200</time>
      </trkpt>
      <trkpt lat="45.07124" lon="6.41108">
        <ele>2452.9</ele>
        <time>2022-07-16T10:26:37+0200</time>
      </trkpt>
      <trkpt lat="45.0712" lon="6.41105">
        <ele>2453.8</ele>
        <time>2022-07-16T10:26:56+0200</time>
      </trkpt>
      <trkpt lat="45.07123" lon="6.41112">
        <ele>2452.9</ele>
        <time>2022-07-16T10:27:16+0200</time>
      </trkpt>
      <trkpt lat="45.07127" lon="6.41117">
        <ele>2452.5</ele>
        <time>2022-07-16T10:27:18+0200</time>
      </trkpt>
      <trkpt lat="45.07134" lon="6.4112">
        <ele>2451.7</ele>
        <time>2022-07-16T10:27:20+0200</time>
      </trkpt>
      <trkpt lat="45.07138" lon="6.41126">
        <ele>2451.8</ele>
        <time>2022-07-16T10:27:22+0200</time>
      </trkpt>
      <trkpt lat="45.07144" lon="6.41129">
        <ele>2451.2</ele>
        <time>2022-07-16T10:27:29+0200</time>
      </trkpt>
      <trkpt lat="45.07149" lon="6.41131">
        <ele>2450.8</ele>
        <time>2022-07-16T10:27:33+0200</time>
      </trkpt>
      <trkpt lat="45.07155" lon="6.41132">
        <ele>2450</ele>
        <time>2022-07-16T10:27:35+0200</time>
      </trkpt>
      <trkpt lat="45.07162" lon="6.41133">
        <ele>2449.3</ele>
        <time>2022-07-16T10:27:37+0200</time>
      </trkpt>
      <trkpt lat="45.07167" lon="6.41134">
        <ele>2448.9</ele>
        <time>2022-07-16T10:27:39+0200</time>
      </trkpt>
      <trkpt lat="45.07172" lon="6.41136">
        <ele>2448.4</ele>
        <time>2022-07-16T10:27:42+0200</time>
      </trkpt>
      <trkpt lat="45.07177" lon="6.41135">
        <ele>2447.2</ele>
        <time>2022-07-16T10:27:44+0200</time>
      </trkpt>
      <trkpt lat="45.07184" lon="6.41136">
        <ele>2446.2</ele>
        <time>2022-07-16T10:27:47+0200</time>
      </trkpt>
      <trkpt lat="45.07191" lon="6.41133">
        <ele>2444.2</ele>
        <time>2022-07-16T10:27:49+0200</time>
      </trkpt>
      <trkpt lat="45.07197" lon="6.41132">
        <ele>2443.2</ele>
        <time>2022-07-16T10:27:50+0200</time>
      </trkpt>
      <trkpt lat="45.07203" lon="6.41131">
        <ele>2442.6</ele>
        <time>2022-07-16T10:27:51+0200</time>
      </trkpt>
      <trkpt lat="45.07209" lon="6.41128">
        <ele>2441.8</ele>
        <time>2022-07-16T10:27:52+0200</time>
      </trkpt>
      <trkpt lat="45.07215" lon="6.41127">
        <ele>2441.4</ele>
        <time>2022-07-16T10:27:53+0200</time>
      </trkpt>
      <trkpt lat="45.07222" lon="6.41128">
        <ele>2441.3</ele>
        <time>2022-07-16T10:27:55+0200</time>
      </trkpt>
      <trkpt lat="45.07227" lon="6.41127">
        <ele>2442.1</ele>
        <time>2022-07-16T10:27:57+0200</time>
      </trkpt>
      <trkpt lat="45.07232" lon="6.41128">
        <ele>2443.2</ele>
        <time>2022-07-16T10:28:00+0200</time>
      </trkpt>
      <trkpt lat="45.07239" lon="6.41125">
        <ele>2443.8</ele>
        <time>2022-07-16T10:28:03+0200</time>
      </trkpt>
      <trkpt lat="45.07244" lon="6.41125">
        <ele>2444.6</ele>
        <time>2022-07-16T10:28:05+0200</time>
      </trkpt>
      <trkpt lat="45.07251" lon="6.41123">
        <ele>2445.4</ele>
        <time>2022-07-16T10:28:07+0200</time>
      </trkpt>
      <trkpt lat="45.07257" lon="6.41121">
        <ele>2444.8</ele>
        <time>2022-07-16T10:28:09+0200</time>
      </trkpt>
      <trkpt lat="45.07262" lon="6.41121">
        <ele>2444.9</ele>
        <time>2022-07-16T10:28:11+0200</time>
      </trkpt>
      <trkpt lat="45.07269" lon="6.41122">
        <ele>2445.2</ele>
        <time>2022-07-16T10:28:14+0200</time>
      </trkpt>
      <trkpt lat="45.07275" lon="6.41123">
        <ele>2445.5</ele>
        <time>2022-07-16T10:28:16+0200</time>
      </trkpt>
      <trkpt lat="45.0728" lon="6.41124">
        <ele>2445.5</ele>
        <time>2022-07-16T10:28:18+0200</time>
      </trkpt>
      <trkpt lat="45.07285" lon="6.41127">
        <ele>2445.2</ele>
        <time>2022-07-16T10:28:20+0200</time>
      </trkpt>
      <trkpt lat="45.07292" lon="6.41131">
        <ele>2444.7</ele>
        <time>2022-07-16T10:28:23+0200</time>
      </trkpt>
      <trkpt lat="45.07299" lon="6.41136">
        <ele>2444.1</ele>
        <time>2022-07-16T10:28:25+0200</time>
      </trkpt>
      <trkpt lat="45.07303" lon="6.41139">
        <ele>2443.5</ele>
        <time>2022-07-16T10:28:26+0200</time>
      </trkpt>
      <trkpt lat="45.07309" lon="6.41143">
        <ele>2442.4</ele>
        <time>2022-07-16T10:28:27+0200</time>
      </trkpt>
      <trkpt lat="45.07316" lon="6.41147">
        <ele>2441.4</ele>
        <time>2022-07-16T10:28:28+0200</time>
      </trkpt>
      <trkpt lat="45.07324" lon="6.4115">
        <ele>2440.3</ele>
        <time>2022-07-16T10:28:29+0200</time>
      </trkpt>
      <trkpt lat="45.07332" lon="6.41151">
        <ele>2439.2</ele>
        <time>2022-07-16T10:28:30+0200</time>
      </trkpt>
      <trkpt lat="45.07341" lon="6.41151">
        <ele>2437.8</ele>
        <time>2022-07-16T10:28:31+0200</time>
      </trkpt>
      <trkpt lat="45.07349" lon="6.4115">
        <ele>2436.6</ele>
        <time>2022-07-16T10:28:32+0200</time>
      </trkpt>
      <trkpt lat="45.07357" lon="6.41148">
        <ele>2435.6</ele>
        <time>2022-07-16T10:28:33+0200</time>
      </trkpt>
      <trkpt lat="45.07362" lon="6.41148">
        <ele>2434.7</ele>
        <time>2022-07-16T10:28:34+0200</time>
      </trkpt>
      <trkpt lat="45.07366" lon="6.41154">
        <ele>2432.4</ele>
        <time>2022-07-16T10:28:38+0200</time>
      </trkpt>
      <trkpt lat="45.07366" lon="6.41163">
        <ele>2431.2</ele>
        <time>2022-07-16T10:28:41+0200</time>
      </trkpt>
      <trkpt lat="45.07366" lon="6.41173">
        <ele>2429.2</ele>
        <time>2022-07-16T10:28:44+0200</time>
      </trkpt>
      <trkpt lat="45.07369" lon="6.4118">
        <ele>2426.9</ele>
        <time>2022-07-16T10:28:46+0200</time>
      </trkpt>
      <trkpt lat="45.07371" lon="6.41192">
        <ele>2425.1</ele>
        <time>2022-07-16T10:28:48+0200</time>
      </trkpt>
      <trkpt lat="45.07373" lon="6.41201">
        <ele>2424.6</ele>
        <time>2022-07-16T10:28:50+0200</time>
      </trkpt>
      <trkpt lat="45.07377" lon="6.41206">
        <ele>2424.5</ele>
        <time>2022-07-16T10:28:52+0200</time>
      </trkpt>
      <trkpt lat="45.07383" lon="6.41211">
        <ele>2424.7</ele>
        <time>2022-07-16T10:28:54+0200</time>
      </trkpt>
      <trkpt lat="45.07388" lon="6.41211">
        <ele>2424.7</ele>
        <time>2022-07-16T10:28:56+0200</time>
      </trkpt>
      <trkpt lat="45.07394" lon="6.41208">
        <ele>2424.4</ele>
        <time>2022-07-16T10:28:59+0200</time>
      </trkpt>
      <trkpt lat="45.074" lon="6.41207">
        <ele>2424.8</ele>
        <time>2022-07-16T10:29:01+0200</time>
      </trkpt>
      <trkpt lat="45.07407" lon="6.41207">
        <ele>2425.3</ele>
        <time>2022-07-16T10:29:03+0200</time>
      </trkpt>
      <trkpt lat="45.07412" lon="6.41207">
        <ele>2425.8</ele>
        <time>2022-07-16T10:29:05+0200</time>
      </trkpt>
      <trkpt lat="45.07418" lon="6.41205">
        <ele>2425.7</ele>
        <time>2022-07-16T10:29:07+0200</time>
      </trkpt>
      <trkpt lat="45.07424" lon="6.41207">
        <ele>2425.2</ele>
        <time>2022-07-16T10:29:09+0200</time>
      </trkpt>
      <trkpt lat="45.0743" lon="6.41207">
        <ele>2424.7</ele>
        <time>2022-07-16T10:29:11+0200</time>
      </trkpt>
      <trkpt lat="45.07436" lon="6.41208">
        <ele>2424</ele>
        <time>2022-07-16T10:29:13+0200</time>
      </trkpt>
      <trkpt lat="45.07441" lon="6.41207">
        <ele>2423.3</ele>
        <time>2022-07-16T10:29:14+0200</time>
      </trkpt>
      <trkpt lat="45.07445" lon="6.41205">
        <ele>2422.5</ele>
        <time>2022-07-16T10:29:15+0200</time>
      </trkpt>
      <trkpt lat="45.0745" lon="6.41205">
        <ele>2422.5</ele>
        <time>2022-07-16T10:29:16+0200</time>
      </trkpt>
      <trkpt lat="45.07456" lon="6.41202">
        <ele>2422.2</ele>
        <time>2022-07-16T10:29:18+0200</time>
      </trkpt>
      <trkpt lat="45.07462" lon="6.41197">
        <ele>2422.3</ele>
        <time>2022-07-16T10:29:20+0200</time>
      </trkpt>
      <trkpt lat="45.07469" lon="6.41192">
        <ele>2421.7</ele>
        <time>2022-07-16T10:29:22+0200</time>
      </trkpt>
      <trkpt lat="45.07475" lon="6.41186">
        <ele>2419.9</ele>
        <time>2022-07-16T10:29:24+0200</time>
      </trkpt>
      <trkpt lat="45.07482" lon="6.41182">
        <ele>2418.7</ele>
        <time>2022-07-16T10:29:26+0200</time>
      </trkpt>
      <trkpt lat="45.0749" lon="6.41179">
        <ele>2418.5</ele>
        <time>2022-07-16T10:29:28+0200</time>
      </trkpt>
      <trkpt lat="45.07497" lon="6.41176">
        <ele>2418.4</ele>
        <time>2022-07-16T10:29:30+0200</time>
      </trkpt>
      <trkpt lat="45.07502" lon="6.41175">
        <ele>2418.1</ele>
        <time>2022-07-16T10:29:32+0200</time>
      </trkpt>
      <trkpt lat="45.07508" lon="6.41174">
        <ele>2416.7</ele>
        <time>2022-07-16T10:29:34+0200</time>
      </trkpt>
      <trkpt lat="45.07516" lon="6.41175">
        <ele>2415.9</ele>
        <time>2022-07-16T10:29:36+0200</time>
      </trkpt>
      <trkpt lat="45.07521" lon="6.41176">
        <ele>2415.3</ele>
        <time>2022-07-16T10:29:37+0200</time>
      </trkpt>
      <trkpt lat="45.07526" lon="6.41174">
        <ele>2413.8</ele>
        <time>2022-07-16T10:29:38+0200</time>
      </trkpt>
      <trkpt lat="45.07531" lon="6.41169">
        <ele>2411.9</ele>
        <time>2022-07-16T10:29:39+0200</time>
      </trkpt>
      <trkpt lat="45.07537" lon="6.41167">
        <ele>2410.6</ele>
        <time>2022-07-16T10:29:40+0200</time>
      </trkpt>
      <trkpt lat="45.07543" lon="6.41165">
        <ele>2409.3</ele>
        <time>2022-07-16T10:29:41+0200</time>
      </trkpt>
      <trkpt lat="45.07547" lon="6.4116">
        <ele>2407.8</ele>
        <time>2022-07-16T10:29:42+0200</time>
      </trkpt>
      <trkpt lat="45.07551" lon="6.41154">
        <ele>2406.1</ele>
        <time>2022-07-16T10:29:43+0200</time>
      </trkpt>
      <trkpt lat="45.07554" lon="6.41148">
        <ele>2404.8</ele>
        <time>2022-07-16T10:29:44+0200</time>
      </trkpt>
      <trkpt lat="45.07559" lon="6.41146">
        <ele>2404.2</ele>
        <time>2022-07-16T10:29:45+0200</time>
      </trkpt>
      <trkpt lat="45.07564" lon="6.41144">
        <ele>2403.8</ele>
        <time>2022-07-16T10:29:46+0200</time>
      </trkpt>
      <trkpt lat="45.07567" lon="6.41136">
        <ele>2402.6</ele>
        <time>2022-07-16T10:29:47+0200</time>
      </trkpt>
      <trkpt lat="45.07567" lon="6.41129">
        <ele>2401.4</ele>
        <time>2022-07-16T10:29:49+0200</time>
      </trkpt>
      <trkpt lat="45.0756" lon="6.41131">
        <ele>2401.7</ele>
        <time>2022-07-16T10:29:51+0200</time>
      </trkpt>
      <trkpt lat="45.07554" lon="6.41132">
        <ele>2401.8</ele>
        <time>2022-07-16T10:29:53+0200</time>
      </trkpt>
      <trkpt lat="45.07548" lon="6.41129">
        <ele>2401.1</ele>
        <time>2022-07-16T10:29:55+0200</time>
      </trkpt>
      <trkpt lat="45.07547" lon="6.41123">
        <ele>2399.5</ele>
        <time>2022-07-16T10:29:57+0200</time>
      </trkpt>
      <trkpt lat="45.07552" lon="6.41118">
        <ele>2398.9</ele>
        <time>2022-07-16T10:29:59+0200</time>
      </trkpt>
      <trkpt lat="45.07556" lon="6.41115">
        <ele>2398.7</ele>
        <time>2022-07-16T10:30:00+0200</time>
      </trkpt>
      <trkpt lat="45.0756" lon="6.41111">
        <ele>2398.3</ele>
        <time>2022-07-16T10:30:01+0200</time>
      </trkpt>
      <trkpt lat="45.07565" lon="6.41106">
        <ele>2397</ele>
        <time>2022-07-16T10:30:02+0200</time>
      </trkpt>
      <trkpt lat="45.07571" lon="6.41102">
        <ele>2396.1</ele>
        <time>2022-07-16T10:30:03+0200</time>
      </trkpt>
      <trkpt lat="45.07578" lon="6.41096">
        <ele>2395.1</ele>
        <time>2022-07-16T10:30:04+0200</time>
      </trkpt>
      <trkpt lat="45.07584" lon="6.41091">
        <ele>2394.1</ele>
        <time>2022-07-16T10:30:05+0200</time>
      </trkpt>
      <trkpt lat="45.07591" lon="6.41086">
        <ele>2392.8</ele>
        <time>2022-07-16T10:30:06+0200</time>
      </trkpt>
      <trkpt lat="45.07598" lon="6.41081">
        <ele>2391.1</ele>
        <time>2022-07-16T10:30:07+0200</time>
      </trkpt>
      <trkpt lat="45.07605" lon="6.41079">
        <ele>2390.2</ele>
        <time>2022-07-16T10:30:08+0200</time>
      </trkpt>
      <trkpt lat="45.07611" lon="6.41076">
        <ele>2389.3</ele>
        <time>2022-07-16T10:30:09+0200</time>
      </trkpt>
      <trkpt lat="45.0762" lon="6.41073">
        <ele>2387.1</ele>
        <time>2022-07-16T10:30:10+0200</time>
      </trkpt>
      <trkpt lat="45.07629" lon="6.41071">
        <ele>2384.9</ele>
        <time>2022-07-16T10:30:11+0200</time>
      </trkpt>
      <trkpt lat="45.07637" lon="6.41069">
        <ele>2382.7</ele>
        <time>2022-07-16T10:30:12+0200</time>
      </trkpt>
      <trkpt lat="45.07646" lon="6.41067">
        <ele>2380.4</ele>
        <time>2022-07-16T10:30:13+0200</time>
      </trkpt>
      <trkpt lat="45.07654" lon="6.41067">
        <ele>2378.5</ele>
        <time>2022-07-16T10:30:14+0200</time>
      </trkpt>
      <trkpt lat="45.07663" lon="6.41065">
        <ele>2376.1</ele>
        <time>2022-07-16T10:30:15+0200</time>
      </trkpt>
      <trkpt lat="45.0767" lon="6.41062">
        <ele>2374</ele>
        <time>2022-07-16T10:30:16+0200</time>
      </trkpt>
      <trkpt lat="45.07677" lon="6.4106">
        <ele>2372.5</ele>
        <time>2022-07-16T10:30:17+0200</time>
      </trkpt>
      <trkpt lat="45.07684" lon="6.41057">
        <ele>2371.1</ele>
        <time>2022-07-16T10:30:18+0200</time>
      </trkpt>
      <trkpt lat="45.07693" lon="6.41055">
        <ele>2369.9</ele>
        <time>2022-07-16T10:30:19+0200</time>
      </trkpt>
      <trkpt lat="45.07702" lon="6.41049">
        <ele>2366.4</ele>
        <time>2022-07-16T10:30:20+0200</time>
      </trkpt>
      <trkpt lat="45.07711" lon="6.41046">
        <ele>2364.5</ele>
        <time>2022-07-16T10:30:21+0200</time>
      </trkpt>
      <trkpt lat="45.07718" lon="6.41044">
        <ele>2363.3</ele>
        <time>2022-07-16T10:30:22+0200</time>
      </trkpt>
      <trkpt lat="45.07723" lon="6.41042">
        <ele>2362.1</ele>
        <time>2022-07-16T10:30:23+0200</time>
      </trkpt>
      <trkpt lat="45.07728" lon="6.41042">
        <ele>2361.3</ele>
        <time>2022-07-16T10:30:24+0200</time>
      </trkpt>
      <trkpt lat="45.07732" lon="6.41038">
        <ele>2359.4</ele>
        <time>2022-07-16T10:30:26+0200</time>
      </trkpt>
      <trkpt lat="45.07729" lon="6.41033">
        <ele>2357.3</ele>
        <time>2022-07-16T10:30:29+0200</time>
      </trkpt>
      <trkpt lat="45.07719" lon="6.41032">
        <ele>2357.6</ele>
        <time>2022-07-16T10:30:31+0200</time>
      </trkpt>
      <trkpt lat="45.07715" lon="6.41029">
        <ele>2356.7</ele>
        <time>2022-07-16T10:30:32+0200</time>
      </trkpt>
      <trkpt lat="45.07709" lon="6.41023">
        <ele>2353.7</ele>
        <time>2022-07-16T10:30:33+0200</time>
      </trkpt>
      <trkpt lat="45.07704" lon="6.41017">
        <ele>2350.9</ele>
        <time>2022-07-16T10:30:34+0200</time>
      </trkpt>
      <trkpt lat="45.07698" lon="6.41012">
        <ele>2348.9</ele>
        <time>2022-07-16T10:30:35+0200</time>
      </trkpt>
      <trkpt lat="45.07692" lon="6.41007">
        <ele>2347</ele>
        <time>2022-07-16T10:30:36+0200</time>
      </trkpt>
      <trkpt lat="45.07686" lon="6.41">
        <ele>2344</ele>
        <time>2022-07-16T10:30:37+0200</time>
      </trkpt>
      <trkpt lat="45.0768" lon="6.40997">
        <ele>2342.3</ele>
        <time>2022-07-16T10:30:38+0200</time>
      </trkpt>
      <trkpt lat="45.07674" lon="6.40994">
        <ele>2341.2</ele>
        <time>2022-07-16T10:30:39+0200</time>
      </trkpt>
      <trkpt lat="45.07667" lon="6.4099">
        <ele>2339.5</ele>
        <time>2022-07-16T10:30:40+0200</time>
      </trkpt>
      <trkpt lat="45.0766" lon="6.40985">
        <ele>2338.4</ele>
        <time>2022-07-16T10:30:41+0200</time>
      </trkpt>
      <trkpt lat="45.07653" lon="6.40978">
        <ele>2335.9</ele>
        <time>2022-07-16T10:30:42+0200</time>
      </trkpt>
      <trkpt lat="45.07644" lon="6.40969">
        <ele>2333.2</ele>
        <time>2022-07-16T10:30:43+0200</time>
      </trkpt>
      <trkpt lat="45.07636" lon="6.40962">
        <ele>2332.3</ele>
        <time>2022-07-16T10:30:44+0200</time>
      </trkpt>
      <trkpt lat="45.07628" lon="6.4096">
        <ele>2332.3</ele>
        <time>2022-07-16T10:30:45+0200</time>
      </trkpt>
      <trkpt lat="45.07621" lon="6.40956">
        <ele>2331.7</ele>
        <time>2022-07-16T10:30:46+0200</time>
      </trkpt>
      <trkpt lat="45.07614" lon="6.40952">
        <ele>2330.6</ele>
        <time>2022-07-16T10:30:47+0200</time>
      </trkpt>
      <trkpt lat="45.07608" lon="6.40948">
        <ele>2329</ele>
        <time>2022-07-16T10:30:48+0200</time>
      </trkpt>
      <trkpt lat="45.07601" lon="6.40945">
        <ele>2326.6</ele>
        <time>2022-07-16T10:30:49+0200</time>
      </trkpt>
      <trkpt lat="45.07592" lon="6.40942">
        <ele>2324.4</ele>
        <time>2022-07-16T10:30:50+0200</time>
      </trkpt>
      <trkpt lat="45.07581" lon="6.40943">
        <ele>2323</ele>
        <time>2022-07-16T10:30:51+0200</time>
      </trkpt>
      <trkpt lat="45.07569" lon="6.40944">
        <ele>2322.4</ele>
        <time>2022-07-16T10:30:52+0200</time>
      </trkpt>
      <trkpt lat="45.07562" lon="6.40944">
        <ele>2321.4</ele>
        <time>2022-07-16T10:30:53+0200</time>
      </trkpt>
      <trkpt lat="45.07557" lon="6.40942">
        <ele>2320.5</ele>
        <time>2022-07-16T10:30:54+0200</time>
      </trkpt>
      <trkpt lat="45.07556" lon="6.4093">
        <ele>2317.9</ele>
        <time>2022-07-16T10:30:56+0200</time>
      </trkpt>
      <trkpt lat="45.07559" lon="6.40922">
        <ele>2316</ele>
        <time>2022-07-16T10:30:57+0200</time>
      </trkpt>
      <trkpt lat="45.07565" lon="6.40914">
        <ele>2314</ele>
        <time>2022-07-16T10:30:58+0200</time>
      </trkpt>
      <trkpt lat="45.07573" lon="6.40909">
        <ele>2312.9</ele>
        <time>2022-07-16T10:30:59+0200</time>
      </trkpt>
      <trkpt lat="45.0758" lon="6.40899">
        <ele>2311.4</ele>
        <time>2022-07-16T10:31:00+0200</time>
      </trkpt>
      <trkpt lat="45.07589" lon="6.40892">
        <ele>2310</ele>
        <time>2022-07-16T10:31:01+0200</time>
      </trkpt>
      <trkpt lat="45.07597" lon="6.40888">
        <ele>2308.3</ele>
        <time>2022-07-16T10:31:02+0200</time>
      </trkpt>
      <trkpt lat="45.07607" lon="6.40883">
        <ele>2306.7</ele>
        <time>2022-07-16T10:31:03+0200</time>
      </trkpt>
      <trkpt lat="45.07616" lon="6.40876">
        <ele>2304.6</ele>
        <time>2022-07-16T10:31:04+0200</time>
      </trkpt>
      <trkpt lat="45.07624" lon="6.4087">
        <ele>2302.7</ele>
        <time>2022-07-16T10:31:05+0200</time>
      </trkpt>
      <trkpt lat="45.07633" lon="6.40867">
        <ele>2301</ele>
        <time>2022-07-16T10:31:06+0200</time>
      </trkpt>
      <trkpt lat="45.07644" lon="6.40869">
        <ele>2300.3</ele>
        <time>2022-07-16T10:31:07+0200</time>
      </trkpt>
      <trkpt lat="45.07654" lon="6.40872">
        <ele>2299.9</ele>
        <time>2022-07-16T10:31:08+0200</time>
      </trkpt>
      <trkpt lat="45.07663" lon="6.40877">
        <ele>2299.7</ele>
        <time>2022-07-16T10:31:09+0200</time>
      </trkpt>
      <trkpt lat="45.07669" lon="6.40884">
        <ele>2299.8</ele>
        <time>2022-07-16T10:31:10+0200</time>
      </trkpt>
      <trkpt lat="45.07677" lon="6.40888">
        <ele>2299.1</ele>
        <time>2022-07-16T10:31:11+0200</time>
      </trkpt>
      <trkpt lat="45.07686" lon="6.40886">
        <ele>2297.2</ele>
        <time>2022-07-16T10:31:12+0200</time>
      </trkpt>
      <trkpt lat="45.07694" lon="6.40885">
        <ele>2295.6</ele>
        <time>2022-07-16T10:31:13+0200</time>
      </trkpt>
      <trkpt lat="45.07702" lon="6.40884">
        <ele>2294.5</ele>
        <time>2022-07-16T10:31:14+0200</time>
      </trkpt>
      <trkpt lat="45.0771" lon="6.40881">
        <ele>2292.9</ele>
        <time>2022-07-16T10:31:15+0200</time>
      </trkpt>
      <trkpt lat="45.07717" lon="6.40876">
        <ele>2290.7</ele>
        <time>2022-07-16T10:31:16+0200</time>
      </trkpt>
      <trkpt lat="45.07723" lon="6.40871">
        <ele>2288.2</ele>
        <time>2022-07-16T10:31:17+0200</time>
      </trkpt>
      <trkpt lat="45.07727" lon="6.40869">
        <ele>2287.1</ele>
        <time>2022-07-16T10:31:18+0200</time>
      </trkpt>
      <trkpt lat="45.07732" lon="6.40864">
        <ele>2285.1</ele>
        <time>2022-07-16T10:31:20+0200</time>
      </trkpt>
      <trkpt lat="45.07729" lon="6.40859">
        <ele>2283.7</ele>
        <time>2022-07-16T10:31:22+0200</time>
      </trkpt>
      <trkpt lat="45.07723" lon="6.40856">
        <ele>2283.2</ele>
        <time>2022-07-16T10:31:23+0200</time>
      </trkpt>
      <trkpt lat="45.07718" lon="6.40853">
        <ele>2283.3</ele>
        <time>2022-07-16T10:31:24+0200</time>
      </trkpt>
      <trkpt lat="45.07713" lon="6.40849">
        <ele>2283.1</ele>
        <time>2022-07-16T10:31:25+0200</time>
      </trkpt>
      <trkpt lat="45.07707" lon="6.40846">
        <ele>2283.5</ele>
        <time>2022-07-16T10:31:26+0200</time>
      </trkpt>
      <trkpt lat="45.07701" lon="6.40845">
        <ele>2284.2</ele>
        <time>2022-07-16T10:31:27+0200</time>
      </trkpt>
      <trkpt lat="45.07695" lon="6.40843">
        <ele>2284.8</ele>
        <time>2022-07-16T10:31:28+0200</time>
      </trkpt>
      <trkpt lat="45.0769" lon="6.4084">
        <ele>2284.4</ele>
        <time>2022-07-16T10:31:29+0200</time>
      </trkpt>
      <trkpt lat="45.07686" lon="6.40836">
        <ele>2283.7</ele>
        <time>2022-07-16T10:31:30+0200</time>
      </trkpt>
      <trkpt lat="45.07681" lon="6.40831">
        <ele>2282.8</ele>
        <time>2022-07-16T10:31:32+0200</time>
      </trkpt>
      <trkpt lat="45.07684" lon="6.40822">
        <ele>2278</ele>
        <time>2022-07-16T10:31:34+0200</time>
      </trkpt>
      <trkpt lat="45.07691" lon="6.4082">
        <ele>2276.2</ele>
        <time>2022-07-16T10:31:36+0200</time>
      </trkpt>
      <trkpt lat="45.07699" lon="6.4082">
        <ele>2274.6</ele>
        <time>2022-07-16T10:31:38+0200</time>
      </trkpt>
      <trkpt lat="45.07704" lon="6.40817">
        <ele>2272.5</ele>
        <time>2022-07-16T10:31:39+0200</time>
      </trkpt>
      <trkpt lat="45.07709" lon="6.40816">
        <ele>2270.6</ele>
        <time>2022-07-16T10:31:40+0200</time>
      </trkpt>
      <trkpt lat="45.07714" lon="6.40814">
        <ele>2268.9</ele>
        <time>2022-07-16T10:31:41+0200</time>
      </trkpt>
      <trkpt lat="45.07719" lon="6.40814">
        <ele>2267.4</ele>
        <time>2022-07-16T10:31:42+0200</time>
      </trkpt>
      <trkpt lat="45.07725" lon="6.40812">
        <ele>2265.4</ele>
        <time>2022-07-16T10:31:43+0200</time>
      </trkpt>
      <trkpt lat="45.0773" lon="6.4081">
        <ele>2263.3</ele>
        <time>2022-07-16T10:31:44+0200</time>
      </trkpt>
      <trkpt lat="45.07737" lon="6.40808">
        <ele>2260.9</ele>
        <time>2022-07-16T10:31:45+0200</time>
      </trkpt>
      <trkpt lat="45.07743" lon="6.40806">
        <ele>2258.4</ele>
        <time>2022-07-16T10:31:46+0200</time>
      </trkpt>
      <trkpt lat="45.07749" lon="6.40805">
        <ele>2256.8</ele>
        <time>2022-07-16T10:31:47+0200</time>
      </trkpt>
      <trkpt lat="45.07755" lon="6.40804">
        <ele>2255.4</ele>
        <time>2022-07-16T10:31:48+0200</time>
      </trkpt>
      <trkpt lat="45.07761" lon="6.40805">
        <ele>2254.1</ele>
        <time>2022-07-16T10:31:49+0200</time>
      </trkpt>
      <trkpt lat="45.07769" lon="6.40803">
        <ele>2251.9</ele>
        <time>2022-07-16T10:31:50+0200</time>
      </trkpt>
      <trkpt lat="45.07779" lon="6.40802">
        <ele>2249.4</ele>
        <time>2022-07-16T10:31:51+0200</time>
      </trkpt>
      <trkpt lat="45.07789" lon="6.408">
        <ele>2248.5</ele>
        <time>2022-07-16T10:31:52+0200</time>
      </trkpt>
      <trkpt lat="45.07797" lon="6.40798">
        <ele>2247.9</ele>
        <time>2022-07-16T10:31:53+0200</time>
      </trkpt>
      <trkpt lat="45.07804" lon="6.40796">
        <ele>2246.8</ele>
        <time>2022-07-16T10:31:54+0200</time>
      </trkpt>
      <trkpt lat="45.07811" lon="6.4079">
        <ele>2243.9</ele>
        <time>2022-07-16T10:31:55+0200</time>
      </trkpt>
      <trkpt lat="45.07818" lon="6.40785">
        <ele>2241.8</ele>
        <time>2022-07-16T10:31:56+0200</time>
      </trkpt>
      <trkpt lat="45.07825" lon="6.40781">
        <ele>2240.3</ele>
        <time>2022-07-16T10:31:57+0200</time>
      </trkpt>
      <trkpt lat="45.07832" lon="6.40778">
        <ele>2238.7</ele>
        <time>2022-07-16T10:31:58+0200</time>
      </trkpt>
      <trkpt lat="45.07839" lon="6.40777">
        <ele>2238.9</ele>
        <time>2022-07-16T10:31:59+0200</time>
      </trkpt>
      <trkpt lat="45.07847" lon="6.40778">
        <ele>2239.4</ele>
        <time>2022-07-16T10:32:00+0200</time>
      </trkpt>
      <trkpt lat="45.07852" lon="6.40773">
        <ele>2237.3</ele>
        <time>2022-07-16T10:32:01+0200</time>
      </trkpt>
      <trkpt lat="45.0786" lon="6.40766">
        <ele>2234.5</ele>
        <time>2022-07-16T10:32:02+0200</time>
      </trkpt>
      <trkpt lat="45.07865" lon="6.4076">
        <ele>2232.2</ele>
        <time>2022-07-16T10:32:03+0200</time>
      </trkpt>
      <trkpt lat="45.07873" lon="6.40756">
        <ele>2230.8</ele>
        <time>2022-07-16T10:32:04+0200</time>
      </trkpt>
      <trkpt lat="45.0788" lon="6.40751">
        <ele>2228.8</ele>
        <time>2022-07-16T10:32:05+0200</time>
      </trkpt>
      <trkpt lat="45.07886" lon="6.40746">
        <ele>2226.8</ele>
        <time>2022-07-16T10:32:06+0200</time>
      </trkpt>
      <trkpt lat="45.07892" lon="6.40739">
        <ele>2224.4</ele>
        <time>2022-07-16T10:32:07+0200</time>
      </trkpt>
      <trkpt lat="45.07897" lon="6.40735">
        <ele>2222.9</ele>
        <time>2022-07-16T10:32:08+0200</time>
      </trkpt>
      <trkpt lat="45.07901" lon="6.40731">
        <ele>2221.5</ele>
        <time>2022-07-16T10:32:09+0200</time>
      </trkpt>
      <trkpt lat="45.07905" lon="6.40728">
        <ele>2220.6</ele>
        <time>2022-07-16T10:32:10+0200</time>
      </trkpt>
      <trkpt lat="45.07912" lon="6.40722">
        <ele>2218.6</ele>
        <time>2022-07-16T10:32:12+0200</time>
      </trkpt>
      <trkpt lat="45.07916" lon="6.40718">
        <ele>2217.3</ele>
        <time>2022-07-16T10:32:13+0200</time>
      </trkpt>
      <trkpt lat="45.07919" lon="6.40714">
        <ele>2216.3</ele>
        <time>2022-07-16T10:32:14+0200</time>
      </trkpt>
      <trkpt lat="45.07926" lon="6.40707">
        <ele>2214.1</ele>
        <time>2022-07-16T10:32:16+0200</time>
      </trkpt>
      <trkpt lat="45.07931" lon="6.407">
        <ele>2211.9</ele>
        <time>2022-07-16T10:32:18+0200</time>
      </trkpt>
      <trkpt lat="45.07935" lon="6.40695">
        <ele>2210</ele>
        <time>2022-07-16T10:32:20+0200</time>
      </trkpt>
      <trkpt lat="45.07938" lon="6.4069">
        <ele>2209.1</ele>
        <time>2022-07-16T10:32:22+0200</time>
      </trkpt>
      <trkpt lat="45.07943" lon="6.40684">
        <ele>2207.9</ele>
        <time>2022-07-16T10:32:25+0200</time>
      </trkpt>
      <trkpt lat="45.07948" lon="6.40681">
        <ele>2206.4</ele>
        <time>2022-07-16T10:32:28+0200</time>
      </trkpt>
      <trkpt lat="45.07954" lon="6.40679">
        <ele>2205</ele>
        <time>2022-07-16T10:32:30+0200</time>
      </trkpt>
      <trkpt lat="45.0796" lon="6.40678">
        <ele>2204.2</ele>
        <time>2022-07-16T10:32:32+0200</time>
      </trkpt>
      <trkpt lat="45.07966" lon="6.40677">
        <ele>2203.2</ele>
        <time>2022-07-16T10:32:34+0200</time>
      </trkpt>
      <trkpt lat="45.07971" lon="6.40677">
        <ele>2202.5</ele>
        <time>2022-07-16T10:32:39+0200</time>
      </trkpt>
      <trkpt lat="45.07976" lon="6.40677">
        <ele>2201.8</ele>
        <time>2022-07-16T10:32:43+0200</time>
      </trkpt>
      <trkpt lat="45.07981" lon="6.40675">
        <ele>2200.9</ele>
        <time>2022-07-16T10:32:47+0200</time>
      </trkpt>
      <trkpt lat="45.07986" lon="6.40673">
        <ele>2199.9</ele>
        <time>2022-07-16T10:32:53+0200</time>
      </trkpt>
      <trkpt lat="45.0799" lon="6.40666">
        <ele>2199.1</ele>
        <time>2022-07-16T10:32:58+0200</time>
      </trkpt>
      <trkpt lat="45.07994" lon="6.40658">
        <ele>2201.2</ele>
        <time>2022-07-16T10:33:00+0200</time>
      </trkpt>
      <trkpt lat="45.07996" lon="6.40648">
        <ele>2203.3</ele>
        <time>2022-07-16T10:33:02+0200</time>
      </trkpt>
      <trkpt lat="45.07998" lon="6.40638">
        <ele>2205.7</ele>
        <time>2022-07-16T10:33:04+0200</time>
      </trkpt>
      <trkpt lat="45.08" lon="6.40631">
        <ele>2206.5</ele>
        <time>2022-07-16T10:33:06+0200</time>
      </trkpt>
      <trkpt lat="45.08001" lon="6.40625">
        <ele>2207.4</ele>
        <time>2022-07-16T10:33:08+0200</time>
      </trkpt>
      <trkpt lat="45.08003" lon="6.40616">
        <ele>2208.3</ele>
        <time>2022-07-16T10:33:11+0200</time>
      </trkpt>
      <trkpt lat="45.08003" lon="6.40608">
        <ele>2209.4</ele>
        <time>2022-07-16T10:33:13+0200</time>
      </trkpt>
      <trkpt lat="45.08005" lon="6.406">
        <ele>2210.2</ele>
        <time>2022-07-16T10:33:16+0200</time>
      </trkpt>
      <trkpt lat="45.08005" lon="6.40593">
        <ele>2211.2</ele>
        <time>2022-07-16T10:33:19+0200</time>
      </trkpt>
      <trkpt lat="45.08006" lon="6.40586">
        <ele>2212.3</ele>
        <time>2022-07-16T10:33:22+0200</time>
      </trkpt>
      <trkpt lat="45.08003" lon="6.40581">
        <ele>2213.3</ele>
        <time>2022-07-16T10:33:26+0200</time>
      </trkpt>
      <trkpt lat="45.07999" lon="6.40576">
        <ele>2213.8</ele>
        <time>2022-07-16T10:33:30+0200</time>
      </trkpt>
      <trkpt lat="45.07993" lon="6.40572">
        <ele>2213.7</ele>
        <time>2022-07-16T10:33:34+0200</time>
      </trkpt>
      <trkpt lat="45.07989" lon="6.4057">
        <ele>2213.7</ele>
        <time>2022-07-16T10:33:36+0200</time>
      </trkpt>
      <trkpt lat="45.07985" lon="6.40566">
        <ele>2213.4</ele>
        <time>2022-07-16T10:33:38+0200</time>
      </trkpt>
      <trkpt lat="45.0798" lon="6.40561">
        <ele>2212.9</ele>
        <time>2022-07-16T10:33:40+0200</time>
      </trkpt>
      <trkpt lat="45.07974" lon="6.4055">
        <ele>2211.4</ele>
        <time>2022-07-16T10:33:42+0200</time>
      </trkpt>
      <trkpt lat="45.0797" lon="6.40543">
        <ele>2210.9</ele>
        <time>2022-07-16T10:33:43+0200</time>
      </trkpt>
      <trkpt lat="45.07966" lon="6.40537">
        <ele>2210.8</ele>
        <time>2022-07-16T10:33:44+0200</time>
      </trkpt>
      <trkpt lat="45.07964" lon="6.4053">
        <ele>2210.6</ele>
        <time>2022-07-16T10:33:45+0200</time>
      </trkpt>
      <trkpt lat="45.07968" lon="6.4052">
        <ele>2209.4</ele>
        <time>2022-07-16T10:33:47+0200</time>
      </trkpt>
      <trkpt lat="45.07971" lon="6.4051">
        <ele>2208.6</ele>
        <time>2022-07-16T10:33:49+0200</time>
      </trkpt>
      <trkpt lat="45.07969" lon="6.40501">
        <ele>2208.6</ele>
        <time>2022-07-16T10:33:50+0200</time>
      </trkpt>
      <trkpt lat="45.07968" lon="6.40493">
        <ele>2207.9</ele>
        <time>2022-07-16T10:33:51+0200</time>
      </trkpt>
      <trkpt lat="45.07964" lon="6.40483">
        <ele>2207.4</ele>
        <time>2022-07-16T10:33:52+0200</time>
      </trkpt>
      <trkpt lat="45.07962" lon="6.40475">
        <ele>2207</ele>
        <time>2022-07-16T10:33:53+0200</time>
      </trkpt>
      <trkpt lat="45.07963" lon="6.40469">
        <ele>2206.3</ele>
        <time>2022-07-16T10:33:54+0200</time>
      </trkpt>
      <trkpt lat="45.07967" lon="6.40465">
        <ele>2205.2</ele>
        <time>2022-07-16T10:33:55+0200</time>
      </trkpt>
      <trkpt lat="45.07973" lon="6.40457">
        <ele>2203.1</ele>
        <time>2022-07-16T10:33:57+0200</time>
      </trkpt>
      <trkpt lat="45.07972" lon="6.40447">
        <ele>2203.2</ele>
        <time>2022-07-16T10:33:59+0200</time>
      </trkpt>
      <trkpt lat="45.0797" lon="6.4044">
        <ele>2202.4</ele>
        <time>2022-07-16T10:34:00+0200</time>
      </trkpt>
      <trkpt lat="45.07967" lon="6.40433">
        <ele>2201.5</ele>
        <time>2022-07-16T10:34:01+0200</time>
      </trkpt>
      <trkpt lat="45.07964" lon="6.40427">
        <ele>2200.8</ele>
        <time>2022-07-16T10:34:02+0200</time>
      </trkpt>
      <trkpt lat="45.07962" lon="6.4042">
        <ele>2199.8</ele>
        <time>2022-07-16T10:34:03+0200</time>
      </trkpt>
      <trkpt lat="45.07959" lon="6.40415">
        <ele>2199.3</ele>
        <time>2022-07-16T10:34:04+0200</time>
      </trkpt>
      <trkpt lat="45.07955" lon="6.40411">
        <ele>2198.5</ele>
        <time>2022-07-16T10:34:05+0200</time>
      </trkpt>
      <trkpt lat="45.0795" lon="6.40405">
        <ele>2197.7</ele>
        <time>2022-07-16T10:34:06+0200</time>
      </trkpt>
      <trkpt lat="45.07946" lon="6.40397">
        <ele>2195.6</ele>
        <time>2022-07-16T10:34:07+0200</time>
      </trkpt>
      <trkpt lat="45.07942" lon="6.40388">
        <ele>2193.4</ele>
        <time>2022-07-16T10:34:08+0200</time>
      </trkpt>
      <trkpt lat="45.07937" lon="6.40377">
        <ele>2191.7</ele>
        <time>2022-07-16T10:34:09+0200</time>
      </trkpt>
      <trkpt lat="45.07932" lon="6.40365">
        <ele>2189.5</ele>
        <time>2022-07-16T10:34:10+0200</time>
      </trkpt>
      <trkpt lat="45.07927" lon="6.40353">
        <ele>2187.6</ele>
        <time>2022-07-16T10:34:11+0200</time>
      </trkpt>
      <trkpt lat="45.07924" lon="6.40343">
        <ele>2185.7</ele>
        <time>2022-07-16T10:34:12+0200</time>
      </trkpt>
      <trkpt lat="45.07921" lon="6.40333">
        <ele>2183.6</ele>
        <time>2022-07-16T10:34:13+0200</time>
      </trkpt>
      <trkpt lat="45.07919" lon="6.40323">
        <ele>2182.3</ele>
        <time>2022-07-16T10:34:14+0200</time>
      </trkpt>
      <trkpt lat="45.07919" lon="6.40315">
        <ele>2180.8</ele>
        <time>2022-07-16T10:34:15+0200</time>
      </trkpt>
      <trkpt lat="45.07919" lon="6.40306">
        <ele>2179.2</ele>
        <time>2022-07-16T10:34:16+0200</time>
      </trkpt>
      <trkpt lat="45.07919" lon="6.40299">
        <ele>2177.8</ele>
        <time>2022-07-16T10:34:17+0200</time>
      </trkpt>
      <trkpt lat="45.07917" lon="6.40291">
        <ele>2177.3</ele>
        <time>2022-07-16T10:34:18+0200</time>
      </trkpt>
      <trkpt lat="45.07915" lon="6.40283">
        <ele>2176.7</ele>
        <time>2022-07-16T10:34:19+0200</time>
      </trkpt>
      <trkpt lat="45.07913" lon="6.40275">
        <ele>2175.7</ele>
        <time>2022-07-16T10:34:20+0200</time>
      </trkpt>
      <trkpt lat="45.07913" lon="6.40267">
        <ele>2173.9</ele>
        <time>2022-07-16T10:34:21+0200</time>
      </trkpt>
      <trkpt lat="45.07911" lon="6.40256">
        <ele>2171.8</ele>
        <time>2022-07-16T10:34:22+0200</time>
      </trkpt>
      <trkpt lat="45.07909" lon="6.40246">
        <ele>2170.5</ele>
        <time>2022-07-16T10:34:23+0200</time>
      </trkpt>
      <trkpt lat="45.07909" lon="6.40235">
        <ele>2168.6</ele>
        <time>2022-07-16T10:34:24+0200</time>
      </trkpt>
      <trkpt lat="45.0791" lon="6.40226">
        <ele>2166</ele>
        <time>2022-07-16T10:34:25+0200</time>
      </trkpt>
      <trkpt lat="45.07912" lon="6.40216">
        <ele>2163.6</ele>
        <time>2022-07-16T10:34:26+0200</time>
      </trkpt>
      <trkpt lat="45.07915" lon="6.40207">
        <ele>2161.9</ele>
        <time>2022-07-16T10:34:27+0200</time>
      </trkpt>
      <trkpt lat="45.07919" lon="6.402">
        <ele>2160.6</ele>
        <time>2022-07-16T10:34:28+0200</time>
      </trkpt>
      <trkpt lat="45.07924" lon="6.40196">
        <ele>2159.9</ele>
        <time>2022-07-16T10:34:29+0200</time>
      </trkpt>
      <trkpt lat="45.07931" lon="6.40194">
        <ele>2159</ele>
        <time>2022-07-16T10:34:30+0200</time>
      </trkpt>
      <trkpt lat="45.07938" lon="6.40193">
        <ele>2158</ele>
        <time>2022-07-16T10:34:31+0200</time>
      </trkpt>
      <trkpt lat="45.07943" lon="6.40189">
        <ele>2157.4</ele>
        <time>2022-07-16T10:34:33+0200</time>
      </trkpt>
      <trkpt lat="45.07947" lon="6.40185">
        <ele>2157.1</ele>
        <time>2022-07-16T10:34:34+0200</time>
      </trkpt>
      <trkpt lat="45.0795" lon="6.4018">
        <ele>2156.7</ele>
        <time>2022-07-16T10:34:35+0200</time>
      </trkpt>
      <trkpt lat="45.07955" lon="6.4018">
        <ele>2156</ele>
        <time>2022-07-16T10:34:56+0200</time>
      </trkpt>
      <trkpt lat="45.07961" lon="6.40181">
        <ele>2155.1</ele>
        <time>2022-07-16T10:35:10+0200</time>
      </trkpt>
      <trkpt lat="45.0797" lon="6.40187">
        <ele>2153.7</ele>
        <time>2022-07-16T10:35:12+0200</time>
      </trkpt>
      <trkpt lat="45.07975" lon="6.40187">
        <ele>2152.9</ele>
        <time>2022-07-16T10:35:13+0200</time>
      </trkpt>
      <trkpt lat="45.07981" lon="6.40183">
        <ele>2152.4</ele>
        <time>2022-07-16T10:35:14+0200</time>
      </trkpt>
      <trkpt lat="45.07985" lon="6.40178">
        <ele>2152.2</ele>
        <time>2022-07-16T10:35:15+0200</time>
      </trkpt>
      <trkpt lat="45.07994" lon="6.4018">
        <ele>2151.2</ele>
        <time>2022-07-16T10:35:17+0200</time>
      </trkpt>
      <trkpt lat="45.08" lon="6.40181">
        <ele>2150.5</ele>
        <time>2022-07-16T10:35:18+0200</time>
      </trkpt>
      <trkpt lat="45.08008" lon="6.40187">
        <ele>2149.1</ele>
        <time>2022-07-16T10:35:20+0200</time>
      </trkpt>
      <trkpt lat="45.08011" lon="6.40192">
        <ele>2148.5</ele>
        <time>2022-07-16T10:35:21+0200</time>
      </trkpt>
      <trkpt lat="45.08015" lon="6.40194">
        <ele>2148</ele>
        <time>2022-07-16T10:35:22+0200</time>
      </trkpt>
      <trkpt lat="45.0802" lon="6.40194">
        <ele>2147.6</ele>
        <time>2022-07-16T10:35:23+0200</time>
      </trkpt>
      <trkpt lat="45.08025" lon="6.40189">
        <ele>2147.5</ele>
        <time>2022-07-16T10:35:25+0200</time>
      </trkpt>
      <trkpt lat="45.08029" lon="6.40186">
        <ele>2147.1</ele>
        <time>2022-07-16T10:35:27+0200</time>
      </trkpt>
      <trkpt lat="45.08035" lon="6.40184">
        <ele>2146.1</ele>
        <time>2022-07-16T10:35:30+0200</time>
      </trkpt>
      <trkpt lat="45.0804" lon="6.40181">
        <ele>2145.6</ele>
        <time>2022-07-16T10:35:32+0200</time>
      </trkpt>
      <trkpt lat="45.08043" lon="6.40177">
        <ele>2145.2</ele>
        <time>2022-07-16T10:35:34+0200</time>
      </trkpt>
      <trkpt lat="45.08046" lon="6.40172">
        <ele>2145.1</ele>
        <time>2022-07-16T10:36:12+0200</time>
      </trkpt>
      <trkpt lat="45.08051" lon="6.4017">
        <ele>2144.5</ele>
        <time>2022-07-16T10:36:24+0200</time>
      </trkpt>
      <trkpt lat="45.08055" lon="6.40168">
        <ele>2143.9</ele>
        <time>2022-07-16T10:36:31+0200</time>
      </trkpt>
      <trkpt lat="45.0806" lon="6.40169">
        <ele>2143.8</ele>
        <time>2022-07-16T10:36:38+0200</time>
      </trkpt>
      <trkpt lat="45.08065" lon="6.40167">
        <ele>2144</ele>
        <time>2022-07-16T10:36:43+0200</time>
      </trkpt>
      <trkpt lat="45.08069" lon="6.40164">
        <ele>2144.3</ele>
        <time>2022-07-16T10:36:48+0200</time>
      </trkpt>
      <trkpt lat="45.08075" lon="6.40162">
        <ele>2144.6</ele>
        <time>2022-07-16T10:36:54+0200</time>
      </trkpt>
      <trkpt lat="45.08081" lon="6.4016">
        <ele>2144.8</ele>
        <time>2022-07-16T10:36:57+0200</time>
      </trkpt>
      <trkpt lat="45.08086" lon="6.40158">
        <ele>2144.9</ele>
        <time>2022-07-16T10:37:00+0200</time>
      </trkpt>
      <trkpt lat="45.08093" lon="6.40159">
        <ele>2144.4</ele>
        <time>2022-07-16T10:37:03+0200</time>
      </trkpt>
      <trkpt lat="45.08099" lon="6.4016">
        <ele>2144.1</ele>
        <time>2022-07-16T10:37:05+0200</time>
      </trkpt>
      <trkpt lat="45.08106" lon="6.4016">
        <ele>2143.7</ele>
        <time>2022-07-16T10:37:07+0200</time>
      </trkpt>
      <trkpt lat="45.08111" lon="6.40159">
        <ele>2143.6</ele>
        <time>2022-07-16T10:37:08+0200</time>
      </trkpt>
      <trkpt lat="45.08116" lon="6.40156">
        <ele>2143.3</ele>
        <time>2022-07-16T10:37:09+0200</time>
      </trkpt>
      <trkpt lat="45.08124" lon="6.40152">
        <ele>2142.9</ele>
        <time>2022-07-16T10:37:11+0200</time>
      </trkpt>
      <trkpt lat="45.08132" lon="6.40149">
        <ele>2142.7</ele>
        <time>2022-07-16T10:37:13+0200</time>
      </trkpt>
      <trkpt lat="45.08136" lon="6.40148">
        <ele>2142.6</ele>
        <time>2022-07-16T10:37:14+0200</time>
      </trkpt>
      <trkpt lat="45.08142" lon="6.40148">
        <ele>2142.4</ele>
        <time>2022-07-16T10:37:15+0200</time>
      </trkpt>
      <trkpt lat="45.08148" lon="6.40148">
        <ele>2142.4</ele>
        <time>2022-07-16T10:37:16+0200</time>
      </trkpt>
      <trkpt lat="45.08153" lon="6.40148">
        <ele>2142.2</ele>
        <time>2022-07-16T10:37:17+0200</time>
      </trkpt>
      <trkpt lat="45.08158" lon="6.40149">
        <ele>2142</ele>
        <time>2022-07-16T10:37:18+0200</time>
      </trkpt>
      <trkpt lat="45.08163" lon="6.40147">
        <ele>2142.2</ele>
        <time>2022-07-16T10:37:19+0200</time>
      </trkpt>
      <trkpt lat="45.08169" lon="6.40143">
        <ele>2143</ele>
        <time>2022-07-16T10:37:21+0200</time>
      </trkpt>
      <trkpt lat="45.08178" lon="6.40142">
        <ele>2143</ele>
        <time>2022-07-16T10:37:23+0200</time>
      </trkpt>
      <trkpt lat="45.08184" lon="6.40143">
        <ele>2142.6</ele>
        <time>2022-07-16T10:37:24+0200</time>
      </trkpt>
      <trkpt lat="45.08189" lon="6.40144">
        <ele>2142.2</ele>
        <time>2022-07-16T10:37:25+0200</time>
      </trkpt>
      <trkpt lat="45.08193" lon="6.40145">
        <ele>2142</ele>
        <time>2022-07-16T10:37:26+0200</time>
      </trkpt>
      <trkpt lat="45.08198" lon="6.40147">
        <ele>2141.8</ele>
        <time>2022-07-16T10:37:27+0200</time>
      </trkpt>
      <trkpt lat="45.08202" lon="6.40146">
        <ele>2142.1</ele>
        <time>2022-07-16T10:37:28+0200</time>
      </trkpt>
      <trkpt lat="45.08207" lon="6.40146">
        <ele>2142.3</ele>
        <time>2022-07-16T10:37:29+0200</time>
      </trkpt>
      <trkpt lat="45.08213" lon="6.40146">
        <ele>2142.8</ele>
        <time>2022-07-16T10:37:30+0200</time>
      </trkpt>
      <trkpt lat="45.08218" lon="6.40145">
        <ele>2143.2</ele>
        <time>2022-07-16T10:37:31+0200</time>
      </trkpt>
      <trkpt lat="45.08226" lon="6.40144">
        <ele>2143.9</ele>
        <time>2022-07-16T10:37:33+0200</time>
      </trkpt>
      <trkpt lat="45.08232" lon="6.40141">
        <ele>2144.7</ele>
        <time>2022-07-16T10:37:35+0200</time>
      </trkpt>
      <trkpt lat="45.08239" lon="6.4014">
        <ele>2145.2</ele>
        <time>2022-07-16T10:37:38+0200</time>
      </trkpt>
      <trkpt lat="45.08246" lon="6.40138">
        <ele>2146.2</ele>
        <time>2022-07-16T10:37:40+0200</time>
      </trkpt>
      <trkpt lat="45.08251" lon="6.40135">
        <ele>2147</ele>
        <time>2022-07-16T10:37:42+0200</time>
      </trkpt>
      <trkpt lat="45.08255" lon="6.40134">
        <ele>2147</ele>
        <time>2022-07-16T10:37:44+0200</time>
      </trkpt>
      <trkpt lat="45.0826" lon="6.40133">
        <ele>2147.1</ele>
        <time>2022-07-16T10:37:46+0200</time>
      </trkpt>
      <trkpt lat="45.08265" lon="6.40133">
        <ele>2146.9</ele>
        <time>2022-07-16T10:37:48+0200</time>
      </trkpt>
      <trkpt lat="45.0827" lon="6.40132">
        <ele>2146.9</ele>
        <time>2022-07-16T10:37:50+0200</time>
      </trkpt>
      <trkpt lat="45.08276" lon="6.40133">
        <ele>2146.3</ele>
        <time>2022-07-16T10:37:52+0200</time>
      </trkpt>
      <trkpt lat="45.08281" lon="6.40132">
        <ele>2146.3</ele>
        <time>2022-07-16T10:37:53+0200</time>
      </trkpt>
      <trkpt lat="45.08288" lon="6.40133">
        <ele>2145.7</ele>
        <time>2022-07-16T10:37:55+0200</time>
      </trkpt>
      <trkpt lat="45.08295" lon="6.40134">
        <ele>2145.3</ele>
        <time>2022-07-16T10:37:57+0200</time>
      </trkpt>
      <trkpt lat="45.08302" lon="6.40131">
        <ele>2145.6</ele>
        <time>2022-07-16T10:37:59+0200</time>
      </trkpt>
      <trkpt lat="45.08308" lon="6.40125">
        <ele>2146.7</ele>
        <time>2022-07-16T10:38:01+0200</time>
      </trkpt>
      <trkpt lat="45.08315" lon="6.40125">
        <ele>2147.1</ele>
        <time>2022-07-16T10:38:03+0200</time>
      </trkpt>
      <trkpt lat="45.08322" lon="6.40129">
        <ele>2147</ele>
        <time>2022-07-16T10:38:05+0200</time>
      </trkpt>
      <trkpt lat="45.0833" lon="6.40133">
        <ele>2146.9</ele>
        <time>2022-07-16T10:38:07+0200</time>
      </trkpt>
      <trkpt lat="45.08336" lon="6.40136">
        <ele>2146.4</ele>
        <time>2022-07-16T10:38:09+0200</time>
      </trkpt>
      <trkpt lat="45.08343" lon="6.40139">
        <ele>2145.9</ele>
        <time>2022-07-16T10:38:11+0200</time>
      </trkpt>
      <trkpt lat="45.08351" lon="6.40142">
        <ele>2145.6</ele>
        <time>2022-07-16T10:38:13+0200</time>
      </trkpt>
      <trkpt lat="45.08359" lon="6.40142">
        <ele>2145.5</ele>
        <time>2022-07-16T10:38:15+0200</time>
      </trkpt>
      <trkpt lat="45.08368" lon="6.40141">
        <ele>2145.5</ele>
        <time>2022-07-16T10:38:17+0200</time>
      </trkpt>
      <trkpt lat="45.08375" lon="6.40141">
        <ele>2145.1</ele>
        <time>2022-07-16T10:38:19+0200</time>
      </trkpt>
      <trkpt lat="45.08384" lon="6.40138">
        <ele>2145.3</ele>
        <time>2022-07-16T10:38:21+0200</time>
      </trkpt>
      <trkpt lat="45.0839" lon="6.40135">
        <ele>2145.5</ele>
        <time>2022-07-16T10:38:22+0200</time>
      </trkpt>
      <trkpt lat="45.08397" lon="6.40135">
        <ele>2145</ele>
        <time>2022-07-16T10:38:24+0200</time>
      </trkpt>
      <trkpt lat="45.08402" lon="6.40134">
        <ele>2144.8</ele>
        <time>2022-07-16T10:38:25+0200</time>
      </trkpt>
      <trkpt lat="45.08411" lon="6.40131">
        <ele>2144.6</ele>
        <time>2022-07-16T10:38:27+0200</time>
      </trkpt>
      <trkpt lat="45.08416" lon="6.40129">
        <ele>2144.5</ele>
        <time>2022-07-16T10:38:28+0200</time>
      </trkpt>
      <trkpt lat="45.08424" lon="6.40125">
        <ele>2145.1</ele>
        <time>2022-07-16T10:38:30+0200</time>
      </trkpt>
      <trkpt lat="45.08432" lon="6.40126">
        <ele>2145.2</ele>
        <time>2022-07-16T10:38:32+0200</time>
      </trkpt>
      <trkpt lat="45.08439" lon="6.40132">
        <ele>2144.6</ele>
        <time>2022-07-16T10:38:34+0200</time>
      </trkpt>
      <trkpt lat="45.08446" lon="6.40135">
        <ele>2144.5</ele>
        <time>2022-07-16T10:38:36+0200</time>
      </trkpt>
      <trkpt lat="45.08454" lon="6.40136">
        <ele>2144.2</ele>
        <time>2022-07-16T10:38:38+0200</time>
      </trkpt>
      <trkpt lat="45.08463" lon="6.40137">
        <ele>2144.1</ele>
        <time>2022-07-16T10:38:40+0200</time>
      </trkpt>
      <trkpt lat="45.08467" lon="6.40138">
        <ele>2144.1</ele>
        <time>2022-07-16T10:38:41+0200</time>
      </trkpt>
      <trkpt lat="45.08472" lon="6.40137">
        <ele>2144.1</ele>
        <time>2022-07-16T10:38:42+0200</time>
      </trkpt>
      <trkpt lat="45.0848" lon="6.40139">
        <ele>2143.7</ele>
        <time>2022-07-16T10:38:44+0200</time>
      </trkpt>
      <trkpt lat="45.08485" lon="6.4014">
        <ele>2143.5</ele>
        <time>2022-07-16T10:38:45+0200</time>
      </trkpt>
      <trkpt lat="45.0849" lon="6.4014">
        <ele>2143.3</ele>
        <time>2022-07-16T10:38:46+0200</time>
      </trkpt>
      <trkpt lat="45.08495" lon="6.40139">
        <ele>2143.2</ele>
        <time>2022-07-16T10:38:47+0200</time>
      </trkpt>
      <trkpt lat="45.085" lon="6.40139">
        <ele>2143</ele>
        <time>2022-07-16T10:38:48+0200</time>
      </trkpt>
      <trkpt lat="45.08505" lon="6.40137">
        <ele>2142.6</ele>
        <time>2022-07-16T10:38:49+0200</time>
      </trkpt>
      <trkpt lat="45.0851" lon="6.40135">
        <ele>2142.2</ele>
        <time>2022-07-16T10:38:50+0200</time>
      </trkpt>
      <trkpt lat="45.08515" lon="6.40131">
        <ele>2141.7</ele>
        <time>2022-07-16T10:38:51+0200</time>
      </trkpt>
      <trkpt lat="45.0852" lon="6.40127">
        <ele>2141.2</ele>
        <time>2022-07-16T10:38:52+0200</time>
      </trkpt>
      <trkpt lat="45.08526" lon="6.40122">
        <ele>2140.6</ele>
        <time>2022-07-16T10:38:53+0200</time>
      </trkpt>
      <trkpt lat="45.08531" lon="6.40117">
        <ele>2139.6</ele>
        <time>2022-07-16T10:38:54+0200</time>
      </trkpt>
      <trkpt lat="45.08535" lon="6.40109">
        <ele>2138.7</ele>
        <time>2022-07-16T10:38:58+0200</time>
      </trkpt>
      <trkpt lat="45.08539" lon="6.40102">
        <ele>2138.6</ele>
        <time>2022-07-16T10:39:00+0200</time>
      </trkpt>
      <trkpt lat="45.08541" lon="6.40097">
        <ele>2138.4</ele>
        <time>2022-07-16T10:39:02+0200</time>
      </trkpt>
      <trkpt lat="45.08544" lon="6.40092">
        <ele>2138</ele>
        <time>2022-07-16T10:39:03+0200</time>
      </trkpt>
      <trkpt lat="45.08549" lon="6.40084">
        <ele>2137.1</ele>
        <time>2022-07-16T10:39:05+0200</time>
      </trkpt>
      <trkpt lat="45.08552" lon="6.40077">
        <ele>2137</ele>
        <time>2022-07-16T10:39:07+0200</time>
      </trkpt>
      <trkpt lat="45.08557" lon="6.40068">
        <ele>2136.3</ele>
        <time>2022-07-16T10:39:09+0200</time>
      </trkpt>
      <trkpt lat="45.08561" lon="6.40062">
        <ele>2136.2</ele>
        <time>2022-07-16T10:39:11+0200</time>
      </trkpt>
      <trkpt lat="45.08566" lon="6.40056">
        <ele>2136</ele>
        <time>2022-07-16T10:39:13+0200</time>
      </trkpt>
      <trkpt lat="45.08573" lon="6.40052">
        <ele>2135.6</ele>
        <time>2022-07-16T10:39:15+0200</time>
      </trkpt>
      <trkpt lat="45.08579" lon="6.40048">
        <ele>2135.2</ele>
        <time>2022-07-16T10:39:17+0200</time>
      </trkpt>
      <trkpt lat="45.08584" lon="6.40042">
        <ele>2135.5</ele>
        <time>2022-07-16T10:39:19+0200</time>
      </trkpt>
      <trkpt lat="45.0859" lon="6.40034">
        <ele>2136.4</ele>
        <time>2022-07-16T10:39:21+0200</time>
      </trkpt>
      <trkpt lat="45.08595" lon="6.40029">
        <ele>2136.6</ele>
        <time>2022-07-16T10:39:23+0200</time>
      </trkpt>
      <trkpt lat="45.086" lon="6.40028">
        <ele>2136.2</ele>
        <time>2022-07-16T10:39:25+0200</time>
      </trkpt>
      <trkpt lat="45.08605" lon="6.40031">
        <ele>2135.5</ele>
        <time>2022-07-16T10:39:27+0200</time>
      </trkpt>
      <trkpt lat="45.08611" lon="6.40034">
        <ele>2134.8</ele>
        <time>2022-07-16T10:39:29+0200</time>
      </trkpt>
      <trkpt lat="45.0862" lon="6.40034">
        <ele>2133.9</ele>
        <time>2022-07-16T10:39:31+0200</time>
      </trkpt>
      <trkpt lat="45.08626" lon="6.40033">
        <ele>2133.4</ele>
        <time>2022-07-16T10:39:32+0200</time>
      </trkpt>
      <trkpt lat="45.08631" lon="6.40032">
        <ele>2133.1</ele>
        <time>2022-07-16T10:39:33+0200</time>
      </trkpt>
      <trkpt lat="45.08639" lon="6.4003">
        <ele>2132.7</ele>
        <time>2022-07-16T10:39:35+0200</time>
      </trkpt>
      <trkpt lat="45.08642" lon="6.40025">
        <ele>2131.9</ele>
        <time>2022-07-16T10:39:37+0200</time>
      </trkpt>
      <trkpt lat="45.08645" lon="6.4002">
        <ele>2130.6</ele>
        <time>2022-07-16T10:39:38+0200</time>
      </trkpt>
      <trkpt lat="45.08648" lon="6.40015">
        <ele>2129.1</ele>
        <time>2022-07-16T10:39:39+0200</time>
      </trkpt>
      <trkpt lat="45.08652" lon="6.40006">
        <ele>2127</ele>
        <time>2022-07-16T10:39:41+0200</time>
      </trkpt>
      <trkpt lat="45.08654" lon="6.39998">
        <ele>2125.7</ele>
        <time>2022-07-16T10:39:43+0200</time>
      </trkpt>
      <trkpt lat="45.08651" lon="6.3999">
        <ele>2126.3</ele>
        <time>2022-07-16T10:39:46+0200</time>
      </trkpt>
      <trkpt lat="45.08651" lon="6.39981">
        <ele>2126.4</ele>
        <time>2022-07-16T10:39:48+0200</time>
      </trkpt>
      <trkpt lat="45.08651" lon="6.39972">
        <ele>2126</ele>
        <time>2022-07-16T10:39:49+0200</time>
      </trkpt>
      <trkpt lat="45.08656" lon="6.39964">
        <ele>2124.9</ele>
        <time>2022-07-16T10:39:50+0200</time>
      </trkpt>
      <trkpt lat="45.08663" lon="6.39962">
        <ele>2123</ele>
        <time>2022-07-16T10:39:51+0200</time>
      </trkpt>
      <trkpt lat="45.08671" lon="6.39962">
        <ele>2121.4</ele>
        <time>2022-07-16T10:39:52+0200</time>
      </trkpt>
      <trkpt lat="45.08679" lon="6.39966">
        <ele>2119.9</ele>
        <time>2022-07-16T10:39:53+0200</time>
      </trkpt>
      <trkpt lat="45.08687" lon="6.39974">
        <ele>2117.9</ele>
        <time>2022-07-16T10:39:54+0200</time>
      </trkpt>
      <trkpt lat="45.08696" lon="6.39977">
        <ele>2116.1</ele>
        <time>2022-07-16T10:39:55+0200</time>
      </trkpt>
      <trkpt lat="45.08703" lon="6.39981">
        <ele>2114.7</ele>
        <time>2022-07-16T10:39:56+0200</time>
      </trkpt>
      <trkpt lat="45.08708" lon="6.39985">
        <ele>2113.4</ele>
        <time>2022-07-16T10:39:57+0200</time>
      </trkpt>
      <trkpt lat="45.08713" lon="6.39995">
        <ele>2111.2</ele>
        <time>2022-07-16T10:39:59+0200</time>
      </trkpt>
      <trkpt lat="45.0872" lon="6.39997">
        <ele>2109.9</ele>
        <time>2022-07-16T10:40:01+0200</time>
      </trkpt>
      <trkpt lat="45.08725" lon="6.39994">
        <ele>2109.8</ele>
        <time>2022-07-16T10:40:03+0200</time>
      </trkpt>
      <trkpt lat="45.08731" lon="6.39991">
        <ele>2109.5</ele>
        <time>2022-07-16T10:40:05+0200</time>
      </trkpt>
      <trkpt lat="45.08737" lon="6.3999">
        <ele>2108.9</ele>
        <time>2022-07-16T10:40:07+0200</time>
      </trkpt>
      <trkpt lat="45.08742" lon="6.39996">
        <ele>2107.4</ele>
        <time>2022-07-16T10:40:09+0200</time>
      </trkpt>
      <trkpt lat="45.08749" lon="6.39997">
        <ele>2106.5</ele>
        <time>2022-07-16T10:40:11+0200</time>
      </trkpt>
      <trkpt lat="45.08753" lon="6.39997">
        <ele>2105.7</ele>
        <time>2022-07-16T10:40:12+0200</time>
      </trkpt>
      <trkpt lat="45.08759" lon="6.39997">
        <ele>2104.7</ele>
        <time>2022-07-16T10:40:13+0200</time>
      </trkpt>
      <trkpt lat="45.08763" lon="6.39997">
        <ele>2103.9</ele>
        <time>2022-07-16T10:40:14+0200</time>
      </trkpt>
      <trkpt lat="45.08767" lon="6.39993">
        <ele>2103.3</ele>
        <time>2022-07-16T10:40:15+0200</time>
      </trkpt>
      <trkpt lat="45.08773" lon="6.39996">
        <ele>2102.1</ele>
        <time>2022-07-16T10:40:17+0200</time>
      </trkpt>
      <trkpt lat="45.0878" lon="6.39999">
        <ele>2100.7</ele>
        <time>2022-07-16T10:40:19+0200</time>
      </trkpt>
      <trkpt lat="45.08784" lon="6.40003">
        <ele>2099.7</ele>
        <time>2022-07-16T10:40:20+0200</time>
      </trkpt>
      <trkpt lat="45.08789" lon="6.40008">
        <ele>2098.3</ele>
        <time>2022-07-16T10:40:21+0200</time>
      </trkpt>
      <trkpt lat="45.08795" lon="6.40012">
        <ele>2097.2</ele>
        <time>2022-07-16T10:40:22+0200</time>
      </trkpt>
      <trkpt lat="45.08802" lon="6.40013">
        <ele>2096</ele>
        <time>2022-07-16T10:40:23+0200</time>
      </trkpt>
      <trkpt lat="45.08808" lon="6.40013">
        <ele>2095</ele>
        <time>2022-07-16T10:40:24+0200</time>
      </trkpt>
      <trkpt lat="45.08813" lon="6.40013">
        <ele>2094.2</ele>
        <time>2022-07-16T10:40:25+0200</time>
      </trkpt>
      <trkpt lat="45.08818" lon="6.40015">
        <ele>2093.2</ele>
        <time>2022-07-16T10:40:27+0200</time>
      </trkpt>
      <trkpt lat="45.08824" lon="6.40018">
        <ele>2092.1</ele>
        <time>2022-07-16T10:40:29+0200</time>
      </trkpt>
      <trkpt lat="45.08833" lon="6.40021">
        <ele>2090.4</ele>
        <time>2022-07-16T10:40:31+0200</time>
      </trkpt>
      <trkpt lat="45.08837" lon="6.40025">
        <ele>2089.6</ele>
        <time>2022-07-16T10:40:32+0200</time>
      </trkpt>
      <trkpt lat="45.08844" lon="6.40033">
        <ele>2088.1</ele>
        <time>2022-07-16T10:40:34+0200</time>
      </trkpt>
      <trkpt lat="45.08849" lon="6.40036">
        <ele>2087.3</ele>
        <time>2022-07-16T10:40:37+0200</time>
      </trkpt>
      <trkpt lat="45.08855" lon="6.40034">
        <ele>2086.7</ele>
        <time>2022-07-16T10:40:39+0200</time>
      </trkpt>
      <trkpt lat="45.08859" lon="6.40029">
        <ele>2086.3</ele>
        <time>2022-07-16T10:40:43+0200</time>
      </trkpt>
      <trkpt lat="45.08861" lon="6.40023">
        <ele>2087.1</ele>
        <time>2022-07-16T10:40:51+0200</time>
      </trkpt>
      <trkpt lat="45.08866" lon="6.4002">
        <ele>2087.1</ele>
        <time>2022-07-16T10:40:57+0200</time>
      </trkpt>
      <trkpt lat="45.08871" lon="6.40021">
        <ele>2086.2</ele>
        <time>2022-07-16T10:40:59+0200</time>
      </trkpt>
      <trkpt lat="45.08877" lon="6.40022">
        <ele>2085.3</ele>
        <time>2022-07-16T10:41:02+0200</time>
      </trkpt>
      <trkpt lat="45.08882" lon="6.40023">
        <ele>2084.5</ele>
        <time>2022-07-16T10:41:04+0200</time>
      </trkpt>
      <trkpt lat="45.08889" lon="6.40028">
        <ele>2082</ele>
        <time>2022-07-16T10:41:06+0200</time>
      </trkpt>
      <trkpt lat="45.08894" lon="6.40029">
        <ele>2081.8</ele>
        <time>2022-07-16T10:41:07+0200</time>
      </trkpt>
      <trkpt lat="45.089" lon="6.4003">
        <ele>2081.4</ele>
        <time>2022-07-16T10:41:09+0200</time>
      </trkpt>
      <trkpt lat="45.08907" lon="6.40037">
        <ele>2080.4</ele>
        <time>2022-07-16T10:41:11+0200</time>
      </trkpt>
      <trkpt lat="45.08913" lon="6.4004">
        <ele>2079.5</ele>
        <time>2022-07-16T10:41:12+0200</time>
      </trkpt>
      <trkpt lat="45.08919" lon="6.40042">
        <ele>2078.9</ele>
        <time>2022-07-16T10:41:13+0200</time>
      </trkpt>
      <trkpt lat="45.08925" lon="6.40045">
        <ele>2078</ele>
        <time>2022-07-16T10:41:14+0200</time>
      </trkpt>
      <trkpt lat="45.08932" lon="6.40048">
        <ele>2076.9</ele>
        <time>2022-07-16T10:41:15+0200</time>
      </trkpt>
      <trkpt lat="45.08939" lon="6.40047">
        <ele>2076.6</ele>
        <time>2022-07-16T10:41:16+0200</time>
      </trkpt>
      <trkpt lat="45.08944" lon="6.40047">
        <ele>2076.1</ele>
        <time>2022-07-16T10:41:17+0200</time>
      </trkpt>
      <trkpt lat="45.08949" lon="6.40051">
        <ele>2075.5</ele>
        <time>2022-07-16T10:41:18+0200</time>
      </trkpt>
      <trkpt lat="45.08952" lon="6.40056">
        <ele>2074.5</ele>
        <time>2022-07-16T10:41:19+0200</time>
      </trkpt>
      <trkpt lat="45.08957" lon="6.40059">
        <ele>2074.3</ele>
        <time>2022-07-16T10:41:20+0200</time>
      </trkpt>
      <trkpt lat="45.08961" lon="6.40063">
        <ele>2074</ele>
        <time>2022-07-16T10:41:21+0200</time>
      </trkpt>
      <trkpt lat="45.08969" lon="6.40071">
        <ele>2073.1</ele>
        <time>2022-07-16T10:41:23+0200</time>
      </trkpt>
      <trkpt lat="45.08974" lon="6.40074">
        <ele>2072.7</ele>
        <time>2022-07-16T10:41:24+0200</time>
      </trkpt>
      <trkpt lat="45.0898" lon="6.40076">
        <ele>2072.3</ele>
        <time>2022-07-16T10:41:25+0200</time>
      </trkpt>
      <trkpt lat="45.08987" lon="6.4008">
        <ele>2071.7</ele>
        <time>2022-07-16T10:41:26+0200</time>
      </trkpt>
      <trkpt lat="45.08993" lon="6.4008">
        <ele>2071.7</ele>
        <time>2022-07-16T10:41:27+0200</time>
      </trkpt>
      <trkpt lat="45.08999" lon="6.40082">
        <ele>2071.3</ele>
        <time>2022-07-16T10:41:28+0200</time>
      </trkpt>
      <trkpt lat="45.09004" lon="6.40082">
        <ele>2071.5</ele>
        <time>2022-07-16T10:41:29+0200</time>
      </trkpt>
      <trkpt lat="45.09008" lon="6.40078">
        <ele>2072.5</ele>
        <time>2022-07-16T10:41:30+0200</time>
      </trkpt>
      <trkpt lat="45.09014" lon="6.40078">
        <ele>2072.7</ele>
        <time>2022-07-16T10:41:33+0200</time>
      </trkpt>
      <trkpt lat="45.0902" lon="6.40078">
        <ele>2072.9</ele>
        <time>2022-07-16T10:41:35+0200</time>
      </trkpt>
      <trkpt lat="45.09026" lon="6.40076">
        <ele>2073.7</ele>
        <time>2022-07-16T10:41:37+0200</time>
      </trkpt>
      <trkpt lat="45.09032" lon="6.40077">
        <ele>2073.5</ele>
        <time>2022-07-16T10:41:39+0200</time>
      </trkpt>
      <trkpt lat="45.09037" lon="6.40077">
        <ele>2073.4</ele>
        <time>2022-07-16T10:41:43+0200</time>
      </trkpt>
      <trkpt lat="45.09042" lon="6.4008">
        <ele>2072.5</ele>
        <time>2022-07-16T10:41:45+0200</time>
      </trkpt>
      <trkpt lat="45.09048" lon="6.40083">
        <ele>2071.4</ele>
        <time>2022-07-16T10:41:47+0200</time>
      </trkpt>
      <trkpt lat="45.09056" lon="6.40084">
        <ele>2070.4</ele>
        <time>2022-07-16T10:41:49+0200</time>
      </trkpt>
      <trkpt lat="45.09061" lon="6.4008">
        <ele>2070.3</ele>
        <time>2022-07-16T10:41:51+0200</time>
      </trkpt>
      <trkpt lat="45.09065" lon="6.40076">
        <ele>2069.9</ele>
        <time>2022-07-16T10:41:54+0200</time>
      </trkpt>
      <trkpt lat="45.0907" lon="6.40072">
        <ele>2070.2</ele>
        <time>2022-07-16T10:41:56+0200</time>
      </trkpt>
      <trkpt lat="45.09074" lon="6.40069">
        <ele>2070.1</ele>
        <time>2022-07-16T10:41:58+0200</time>
      </trkpt>
      <trkpt lat="45.09081" lon="6.40068">
        <ele>2069</ele>
        <time>2022-07-16T10:42:00+0200</time>
      </trkpt>
      <trkpt lat="45.09089" lon="6.40064">
        <ele>2068.1</ele>
        <time>2022-07-16T10:42:02+0200</time>
      </trkpt>
      <trkpt lat="45.09093" lon="6.40058">
        <ele>2069.4</ele>
        <time>2022-07-16T10:42:04+0200</time>
      </trkpt>
      <trkpt lat="45.09102" lon="6.40051">
        <ele>2068.6</ele>
        <time>2022-07-16T10:42:06+0200</time>
      </trkpt>
      <trkpt lat="45.09105" lon="6.40046">
        <ele>2069.1</ele>
        <time>2022-07-16T10:42:07+0200</time>
      </trkpt>
      <trkpt lat="45.09109" lon="6.40042">
        <ele>2069</ele>
        <time>2022-07-16T10:42:09+0200</time>
      </trkpt>
      <trkpt lat="45.09116" lon="6.40038">
        <ele>2067.8</ele>
        <time>2022-07-16T10:42:11+0200</time>
      </trkpt>
      <trkpt lat="45.09122" lon="6.40036">
        <ele>2066.9</ele>
        <time>2022-07-16T10:42:12+0200</time>
      </trkpt>
      <trkpt lat="45.09127" lon="6.40034">
        <ele>2066.3</ele>
        <time>2022-07-16T10:42:13+0200</time>
      </trkpt>
      <trkpt lat="45.09134" lon="6.40031">
        <ele>2065.4</ele>
        <time>2022-07-16T10:42:14+0200</time>
      </trkpt>
      <trkpt lat="45.09139" lon="6.40028">
        <ele>2064.8</ele>
        <time>2022-07-16T10:42:15+0200</time>
      </trkpt>
      <trkpt lat="45.09147" lon="6.40026">
        <ele>2065.7</ele>
        <time>2022-07-16T10:42:17+0200</time>
      </trkpt>
      <trkpt lat="45.09152" lon="6.4003">
        <ele>2064.6</ele>
        <time>2022-07-16T10:42:19+0200</time>
      </trkpt>
      <trkpt lat="45.09159" lon="6.40033">
        <ele>2063.8</ele>
        <time>2022-07-16T10:42:21+0200</time>
      </trkpt>
      <trkpt lat="45.09164" lon="6.40038">
        <ele>2062.5</ele>
        <time>2022-07-16T10:42:24+0200</time>
      </trkpt>
      <trkpt lat="45.0917" lon="6.40042">
        <ele>2061.4</ele>
        <time>2022-07-16T10:42:26+0200</time>
      </trkpt>
      <trkpt lat="45.09177" lon="6.40041">
        <ele>2061.6</ele>
        <time>2022-07-16T10:42:28+0200</time>
      </trkpt>
      <trkpt lat="45.09182" lon="6.40047">
        <ele>2060.5</ele>
        <time>2022-07-16T10:42:30+0200</time>
      </trkpt>
      <trkpt lat="45.09187" lon="6.40048">
        <ele>2060.5</ele>
        <time>2022-07-16T10:42:31+0200</time>
      </trkpt>
      <trkpt lat="45.09191" lon="6.40052">
        <ele>2060.2</ele>
        <time>2022-07-16T10:42:32+0200</time>
      </trkpt>
      <trkpt lat="45.09194" lon="6.40057">
        <ele>2059.8</ele>
        <time>2022-07-16T10:42:33+0200</time>
      </trkpt>
      <trkpt lat="45.092" lon="6.40063">
        <ele>2058.8</ele>
        <time>2022-07-16T10:42:35+0200</time>
      </trkpt>
      <trkpt lat="45.09204" lon="6.40068">
        <ele>2057.7</ele>
        <time>2022-07-16T10:42:37+0200</time>
      </trkpt>
      <trkpt lat="45.09211" lon="6.40075">
        <ele>2055.7</ele>
        <time>2022-07-16T10:42:39+0200</time>
      </trkpt>
      <trkpt lat="45.09218" lon="6.40073">
        <ele>2055.2</ele>
        <time>2022-07-16T10:42:41+0200</time>
      </trkpt>
      <trkpt lat="45.09224" lon="6.40076">
        <ele>2054</ele>
        <time>2022-07-16T10:42:43+0200</time>
      </trkpt>
      <trkpt lat="45.09232" lon="6.40082">
        <ele>2052.4</ele>
        <time>2022-07-16T10:42:45+0200</time>
      </trkpt>
      <trkpt lat="45.09237" lon="6.40085">
        <ele>2051.7</ele>
        <time>2022-07-16T10:42:46+0200</time>
      </trkpt>
      <trkpt lat="45.09243" lon="6.40088">
        <ele>2051.3</ele>
        <time>2022-07-16T10:42:47+0200</time>
      </trkpt>
      <trkpt lat="45.0925" lon="6.40093">
        <ele>2050.3</ele>
        <time>2022-07-16T10:42:48+0200</time>
      </trkpt>
      <trkpt lat="45.09257" lon="6.40097">
        <ele>2050.1</ele>
        <time>2022-07-16T10:42:49+0200</time>
      </trkpt>
      <trkpt lat="45.09264" lon="6.40102">
        <ele>2049.3</ele>
        <time>2022-07-16T10:42:50+0200</time>
      </trkpt>
      <trkpt lat="45.09271" lon="6.40104">
        <ele>2048.9</ele>
        <time>2022-07-16T10:42:51+0200</time>
      </trkpt>
      <trkpt lat="45.09277" lon="6.40109">
        <ele>2047.8</ele>
        <time>2022-07-16T10:42:52+0200</time>
      </trkpt>
      <trkpt lat="45.09284" lon="6.40112">
        <ele>2047.5</ele>
        <time>2022-07-16T10:42:53+0200</time>
      </trkpt>
      <trkpt lat="45.09291" lon="6.40116">
        <ele>2047.2</ele>
        <time>2022-07-16T10:42:54+0200</time>
      </trkpt>
      <trkpt lat="45.09297" lon="6.40119">
        <ele>2047.2</ele>
        <time>2022-07-16T10:42:55+0200</time>
      </trkpt>
      <trkpt lat="45.09304" lon="6.40121">
        <ele>2047.2</ele>
        <time>2022-07-16T10:42:56+0200</time>
      </trkpt>
      <trkpt lat="45.0931" lon="6.40123">
        <ele>2046.9</ele>
        <time>2022-07-16T10:42:57+0200</time>
      </trkpt>
      <trkpt lat="45.09315" lon="6.40125">
        <ele>2046.2</ele>
        <time>2022-07-16T10:42:58+0200</time>
      </trkpt>
      <trkpt lat="45.0932" lon="6.40126">
        <ele>2046.1</ele>
        <time>2022-07-16T10:42:59+0200</time>
      </trkpt>
      <trkpt lat="45.09326" lon="6.40128">
        <ele>2045.4</ele>
        <time>2022-07-16T10:43:00+0200</time>
      </trkpt>
      <trkpt lat="45.09331" lon="6.4013">
        <ele>2044.6</ele>
        <time>2022-07-16T10:43:01+0200</time>
      </trkpt>
      <trkpt lat="45.09337" lon="6.40134">
        <ele>2043.6</ele>
        <time>2022-07-16T10:43:02+0200</time>
      </trkpt>
      <trkpt lat="45.09344" lon="6.40135">
        <ele>2043.4</ele>
        <time>2022-07-16T10:43:03+0200</time>
      </trkpt>
      <trkpt lat="45.09349" lon="6.4014">
        <ele>2042.3</ele>
        <time>2022-07-16T10:43:04+0200</time>
      </trkpt>
      <trkpt lat="45.09355" lon="6.40141">
        <ele>2042.3</ele>
        <time>2022-07-16T10:43:05+0200</time>
      </trkpt>
      <trkpt lat="45.09361" lon="6.40142">
        <ele>2042.2</ele>
        <time>2022-07-16T10:43:06+0200</time>
      </trkpt>
      <trkpt lat="45.09367" lon="6.40144">
        <ele>2041.4</ele>
        <time>2022-07-16T10:43:07+0200</time>
      </trkpt>
      <trkpt lat="45.09374" lon="6.40147">
        <ele>2040.3</ele>
        <time>2022-07-16T10:43:08+0200</time>
      </trkpt>
      <trkpt lat="45.0938" lon="6.40149">
        <ele>2039.3</ele>
        <time>2022-07-16T10:43:09+0200</time>
      </trkpt>
      <trkpt lat="45.09385" lon="6.4015">
        <ele>2038.9</ele>
        <time>2022-07-16T10:43:10+0200</time>
      </trkpt>
      <trkpt lat="45.09394" lon="6.4015">
        <ele>2037.8</ele>
        <time>2022-07-16T10:43:12+0200</time>
      </trkpt>
      <trkpt lat="45.09401" lon="6.40152">
        <ele>2036.1</ele>
        <time>2022-07-16T10:43:14+0200</time>
      </trkpt>
      <trkpt lat="45.09408" lon="6.40148">
        <ele>2035.6</ele>
        <time>2022-07-16T10:43:16+0200</time>
      </trkpt>
      <trkpt lat="45.09415" lon="6.40147">
        <ele>2034.4</ele>
        <time>2022-07-16T10:43:19+0200</time>
      </trkpt>
      <trkpt lat="45.0942" lon="6.40146">
        <ele>2033.5</ele>
        <time>2022-07-16T10:43:20+0200</time>
      </trkpt>
      <trkpt lat="45.09426" lon="6.40142">
        <ele>2032.1</ele>
        <time>2022-07-16T10:43:22+0200</time>
      </trkpt>
      <trkpt lat="45.09433" lon="6.40142">
        <ele>2030.4</ele>
        <time>2022-07-16T10:43:24+0200</time>
      </trkpt>
      <trkpt lat="45.0944" lon="6.40138">
        <ele>2029.2</ele>
        <time>2022-07-16T10:43:26+0200</time>
      </trkpt>
      <trkpt lat="45.09445" lon="6.40135">
        <ele>2028.5</ele>
        <time>2022-07-16T10:43:27+0200</time>
      </trkpt>
      <trkpt lat="45.09449" lon="6.40135">
        <ele>2027.5</ele>
        <time>2022-07-16T10:43:28+0200</time>
      </trkpt>
      <trkpt lat="45.09455" lon="6.40136">
        <ele>2026.3</ele>
        <time>2022-07-16T10:43:30+0200</time>
      </trkpt>
      <trkpt lat="45.0946" lon="6.40141">
        <ele>2024</ele>
        <time>2022-07-16T10:43:33+0200</time>
      </trkpt>
      <trkpt lat="45.09463" lon="6.40135">
        <ele>2024.7</ele>
        <time>2022-07-16T10:43:35+0200</time>
      </trkpt>
      <trkpt lat="45.09469" lon="6.40138">
        <ele>2022.8</ele>
        <time>2022-07-16T10:43:37+0200</time>
      </trkpt>
      <trkpt lat="45.09473" lon="6.40143">
        <ele>2020.6</ele>
        <time>2022-07-16T10:43:38+0200</time>
      </trkpt>
      <trkpt lat="45.09479" lon="6.40146">
        <ele>2018.6</ele>
        <time>2022-07-16T10:43:40+0200</time>
      </trkpt>
      <trkpt lat="45.09482" lon="6.40153">
        <ele>2015.7</ele>
        <time>2022-07-16T10:43:42+0200</time>
      </trkpt>
      <trkpt lat="45.09487" lon="6.40155">
        <ele>2014.3</ele>
        <time>2022-07-16T10:43:44+0200</time>
      </trkpt>
      <trkpt lat="45.09482" lon="6.40159">
        <ele>2014.4</ele>
        <time>2022-07-16T10:43:49+0200</time>
      </trkpt>
      <trkpt lat="45.09478" lon="6.40162">
        <ele>2014.3</ele>
        <time>2022-07-16T10:43:53+0200</time>
      </trkpt>
      <trkpt lat="45.09483" lon="6.40169">
        <ele>2011</ele>
        <time>2022-07-16T10:43:55+0200</time>
      </trkpt>
      <trkpt lat="45.0949" lon="6.40175">
        <ele>2007.8</ele>
        <time>2022-07-16T10:43:57+0200</time>
      </trkpt>
      <trkpt lat="45.09497" lon="6.40174">
        <ele>2007.4</ele>
        <time>2022-07-16T10:43:59+0200</time>
      </trkpt>
      <trkpt lat="45.09504" lon="6.40168">
        <ele>2007.2</ele>
        <time>2022-07-16T10:44:01+0200</time>
      </trkpt>
      <trkpt lat="45.09509" lon="6.40166">
        <ele>2006.2</ele>
        <time>2022-07-16T10:44:03+0200</time>
      </trkpt>
      <trkpt lat="45.09513" lon="6.4017">
        <ele>2004.1</ele>
        <time>2022-07-16T10:44:07+0200</time>
      </trkpt>
      <trkpt lat="45.09516" lon="6.40177">
        <ele>2001.1</ele>
        <time>2022-07-16T10:44:11+0200</time>
      </trkpt>
      <trkpt lat="45.09522" lon="6.40179">
        <ele>1998.6</ele>
        <time>2022-07-16T10:44:15+0200</time>
      </trkpt>
      <trkpt lat="45.09527" lon="6.40177">
        <ele>1997.7</ele>
        <time>2022-07-16T10:44:17+0200</time>
      </trkpt>
      <trkpt lat="45.09527" lon="6.40187">
        <ele>1995.1</ele>
        <time>2022-07-16T10:44:19+0200</time>
      </trkpt>
      <trkpt lat="45.09522" lon="6.40189">
        <ele>1996.2</ele>
        <time>2022-07-16T10:44:21+0200</time>
      </trkpt>
      <trkpt lat="45.09515" lon="6.40188">
        <ele>1998.5</ele>
        <time>2022-07-16T10:44:23+0200</time>
      </trkpt>
      <trkpt lat="45.0952" lon="6.40195">
        <ele>1995.2</ele>
        <time>2022-07-16T10:44:24+0200</time>
      </trkpt>
      <trkpt lat="45.09526" lon="6.40201">
        <ele>1990.9</ele>
        <time>2022-07-16T10:44:26+0200</time>
      </trkpt>
      <trkpt lat="45.0953" lon="6.40202">
        <ele>1989.5</ele>
        <time>2022-07-16T10:44:28+0200</time>
      </trkpt>
      <trkpt lat="45.09535" lon="6.40201">
        <ele>1989.4</ele>
        <time>2022-07-16T10:44:30+0200</time>
      </trkpt>
      <trkpt lat="45.09538" lon="6.40208">
        <ele>1986.2</ele>
        <time>2022-07-16T10:44:34+0200</time>
      </trkpt>
      <trkpt lat="45.09542" lon="6.4021">
        <ele>1984.4</ele>
        <time>2022-07-16T10:44:36+0200</time>
      </trkpt>
      <trkpt lat="45.09548" lon="6.40212">
        <ele>1983</ele>
        <time>2022-07-16T10:44:38+0200</time>
      </trkpt>
      <trkpt lat="45.09552" lon="6.40212">
        <ele>1982</ele>
        <time>2022-07-16T10:44:41+0200</time>
      </trkpt>
      <trkpt lat="45.09559" lon="6.40216">
        <ele>1980.1</ele>
        <time>2022-07-16T10:44:43+0200</time>
      </trkpt>
      <trkpt lat="45.09566" lon="6.40221">
        <ele>1978.3</ele>
        <time>2022-07-16T10:44:45+0200</time>
      </trkpt>
      <trkpt lat="45.09574" lon="6.40224">
        <ele>1977.7</ele>
        <time>2022-07-16T10:44:47+0200</time>
      </trkpt>
      <trkpt lat="45.09577" lon="6.4023">
        <ele>1975.4</ele>
        <time>2022-07-16T10:44:49+0200</time>
      </trkpt>
      <trkpt lat="45.09581" lon="6.40233">
        <ele>1974.8</ele>
        <time>2022-07-16T10:44:51+0200</time>
      </trkpt>
      <trkpt lat="45.09587" lon="6.4024">
        <ele>1972</ele>
        <time>2022-07-16T10:44:53+0200</time>
      </trkpt>
      <trkpt lat="45.09593" lon="6.40246">
        <ele>1969.6</ele>
        <time>2022-07-16T10:44:55+0200</time>
      </trkpt>
      <trkpt lat="45.09599" lon="6.40248">
        <ele>1968.7</ele>
        <time>2022-07-16T10:44:57+0200</time>
      </trkpt>
      <trkpt lat="45.09606" lon="6.4025">
        <ele>1967.9</ele>
        <time>2022-07-16T10:44:59+0200</time>
      </trkpt>
      <trkpt lat="45.0961" lon="6.40257">
        <ele>1967</ele>
        <time>2022-07-16T10:45:01+0200</time>
      </trkpt>
      <trkpt lat="45.09613" lon="6.40262">
        <ele>1966.8</ele>
        <time>2022-07-16T10:45:04+0200</time>
      </trkpt>
      <trkpt lat="45.09607" lon="6.40261">
        <ele>1966</ele>
        <time>2022-07-16T10:45:08+0200</time>
      </trkpt>
      <trkpt lat="45.09603" lon="6.40263">
        <ele>1964.9</ele>
        <time>2022-07-16T10:45:14+0200</time>
      </trkpt>
      <trkpt lat="45.09605" lon="6.40269">
        <ele>1964.1</ele>
        <time>2022-07-16T10:45:18+0200</time>
      </trkpt>
      <trkpt lat="45.09601" lon="6.40272">
        <ele>1962.5</ele>
        <time>2022-07-16T10:45:22+0200</time>
      </trkpt>
      <trkpt lat="45.09604" lon="6.40279">
        <ele>1961.6</ele>
        <time>2022-07-16T10:45:26+0200</time>
      </trkpt>
      <trkpt lat="45.09599" lon="6.40284">
        <ele>1959</ele>
        <time>2022-07-16T10:45:29+0200</time>
      </trkpt>
      <trkpt lat="45.09594" lon="6.40287">
        <ele>1956.5</ele>
        <time>2022-07-16T10:45:32+0200</time>
      </trkpt>
      <trkpt lat="45.09592" lon="6.40295">
        <ele>1953.5</ele>
        <time>2022-07-16T10:45:34+0200</time>
      </trkpt>
      <trkpt lat="45.09596" lon="6.40305">
        <ele>1952.2</ele>
        <time>2022-07-16T10:45:36+0200</time>
      </trkpt>
      <trkpt lat="45.096" lon="6.40313">
        <ele>1950.9</ele>
        <time>2022-07-16T10:45:38+0200</time>
      </trkpt>
      <trkpt lat="45.096" lon="6.40323">
        <ele>1947.1</ele>
        <time>2022-07-16T10:45:40+0200</time>
      </trkpt>
      <trkpt lat="45.09604" lon="6.40328">
        <ele>1945.9</ele>
        <time>2022-07-16T10:45:41+0200</time>
      </trkpt>
      <trkpt lat="45.09606" lon="6.40336">
        <ele>1943.7</ele>
        <time>2022-07-16T10:45:42+0200</time>
      </trkpt>
      <trkpt lat="45.09608" lon="6.40346">
        <ele>1941.3</ele>
        <time>2022-07-16T10:45:43+0200</time>
      </trkpt>
      <trkpt lat="45.09612" lon="6.40355">
        <ele>1939.7</ele>
        <time>2022-07-16T10:45:44+0200</time>
      </trkpt>
      <trkpt lat="45.09613" lon="6.40365">
        <ele>1937.8</ele>
        <time>2022-07-16T10:45:45+0200</time>
      </trkpt>
      <trkpt lat="45.09613" lon="6.40374">
        <ele>1936.5</ele>
        <time>2022-07-16T10:45:46+0200</time>
      </trkpt>
      <trkpt lat="45.09612" lon="6.40383">
        <ele>1935.1</ele>
        <time>2022-07-16T10:45:47+0200</time>
      </trkpt>
      <trkpt lat="45.09613" lon="6.40393">
        <ele>1933.9</ele>
        <time>2022-07-16T10:45:48+0200</time>
      </trkpt>
      <trkpt lat="45.09616" lon="6.40402">
        <ele>1933.2</ele>
        <time>2022-07-16T10:45:49+0200</time>
      </trkpt>
      <trkpt lat="45.09616" lon="6.4041">
        <ele>1932.2</ele>
        <time>2022-07-16T10:45:50+0200</time>
      </trkpt>
      <trkpt lat="45.09615" lon="6.4042">
        <ele>1930.7</ele>
        <time>2022-07-16T10:45:51+0200</time>
      </trkpt>
      <trkpt lat="45.09616" lon="6.4043">
        <ele>1929</ele>
        <time>2022-07-16T10:45:52+0200</time>
      </trkpt>
      <trkpt lat="45.09617" lon="6.40437">
        <ele>1927.8</ele>
        <time>2022-07-16T10:45:53+0200</time>
      </trkpt>
      <trkpt lat="45.09619" lon="6.40448">
        <ele>1925.8</ele>
        <time>2022-07-16T10:45:55+0200</time>
      </trkpt>
      <trkpt lat="45.09622" lon="6.4046">
        <ele>1923.7</ele>
        <time>2022-07-16T10:45:57+0200</time>
      </trkpt>
      <trkpt lat="45.09625" lon="6.40471">
        <ele>1921.8</ele>
        <time>2022-07-16T10:45:59+0200</time>
      </trkpt>
      <trkpt lat="45.09626" lon="6.40482">
        <ele>1920</ele>
        <time>2022-07-16T10:46:01+0200</time>
      </trkpt>
      <trkpt lat="45.09627" lon="6.40488">
        <ele>1919</ele>
        <time>2022-07-16T10:46:02+0200</time>
      </trkpt>
      <trkpt lat="45.09628" lon="6.40495">
        <ele>1917.8</ele>
        <time>2022-07-16T10:46:03+0200</time>
      </trkpt>
      <trkpt lat="45.09631" lon="6.40501">
        <ele>1916.9</ele>
        <time>2022-07-16T10:46:04+0200</time>
      </trkpt>
      <trkpt lat="45.09639" lon="6.40508">
        <ele>1916.2</ele>
        <time>2022-07-16T10:46:06+0200</time>
      </trkpt>
      <trkpt lat="45.09646" lon="6.40509">
        <ele>1916</ele>
        <time>2022-07-16T10:46:08+0200</time>
      </trkpt>
      <trkpt lat="45.09651" lon="6.40513">
        <ele>1915.6</ele>
        <time>2022-07-16T10:46:09+0200</time>
      </trkpt>
      <trkpt lat="45.09656" lon="6.40516">
        <ele>1915.3</ele>
        <time>2022-07-16T10:46:10+0200</time>
      </trkpt>
      <trkpt lat="45.09661" lon="6.40518">
        <ele>1915.1</ele>
        <time>2022-07-16T10:46:11+0200</time>
      </trkpt>
      <trkpt lat="45.09668" lon="6.40522">
        <ele>1914.6</ele>
        <time>2022-07-16T10:46:13+0200</time>
      </trkpt>
      <trkpt lat="45.09672" lon="6.40522">
        <ele>1914.4</ele>
        <time>2022-07-16T10:46:15+0200</time>
      </trkpt>
      <trkpt lat="45.09677" lon="6.40527">
        <ele>1913.7</ele>
        <time>2022-07-16T10:46:18+0200</time>
      </trkpt>
      <trkpt lat="45.09682" lon="6.40534">
        <ele>1912.9</ele>
        <time>2022-07-16T10:46:20+0200</time>
      </trkpt>
      <trkpt lat="45.09687" lon="6.40539">
        <ele>1912.3</ele>
        <time>2022-07-16T10:46:21+0200</time>
      </trkpt>
      <trkpt lat="45.0969" lon="6.40546">
        <ele>1911.7</ele>
        <time>2022-07-16T10:46:22+0200</time>
      </trkpt>
      <trkpt lat="45.09693" lon="6.40554">
        <ele>1911.1</ele>
        <time>2022-07-16T10:46:23+0200</time>
      </trkpt>
      <trkpt lat="45.09698" lon="6.40557">
        <ele>1910.8</ele>
        <time>2022-07-16T10:46:24+0200</time>
      </trkpt>
      <trkpt lat="45.09702" lon="6.4056">
        <ele>1910.3</ele>
        <time>2022-07-16T10:46:25+0200</time>
      </trkpt>
      <trkpt lat="45.09703" lon="6.40568">
        <ele>1909.5</ele>
        <time>2022-07-16T10:46:26+0200</time>
      </trkpt>
      <trkpt lat="45.09705" lon="6.40576">
        <ele>1908.7</ele>
        <time>2022-07-16T10:46:27+0200</time>
      </trkpt>
      <trkpt lat="45.0971" lon="6.40583">
        <ele>1908</ele>
        <time>2022-07-16T10:46:28+0200</time>
      </trkpt>
      <trkpt lat="45.09714" lon="6.4059">
        <ele>1907.5</ele>
        <time>2022-07-16T10:46:29+0200</time>
      </trkpt>
      <trkpt lat="45.09717" lon="6.40599">
        <ele>1906.9</ele>
        <time>2022-07-16T10:46:30+0200</time>
      </trkpt>
      <trkpt lat="45.0972" lon="6.40608">
        <ele>1906.2</ele>
        <time>2022-07-16T10:46:31+0200</time>
      </trkpt>
      <trkpt lat="45.09723" lon="6.40616">
        <ele>1905.8</ele>
        <time>2022-07-16T10:46:32+0200</time>
      </trkpt>
      <trkpt lat="45.09726" lon="6.40626">
        <ele>1905.8</ele>
        <time>2022-07-16T10:46:33+0200</time>
      </trkpt>
      <trkpt lat="45.09729" lon="6.40636">
        <ele>1905.3</ele>
        <time>2022-07-16T10:46:34+0200</time>
      </trkpt>
      <trkpt lat="45.09732" lon="6.40646">
        <ele>1904.9</ele>
        <time>2022-07-16T10:46:35+0200</time>
      </trkpt>
      <trkpt lat="45.09733" lon="6.40657">
        <ele>1904.2</ele>
        <time>2022-07-16T10:46:36+0200</time>
      </trkpt>
      <trkpt lat="45.09735" lon="6.40667">
        <ele>1903.4</ele>
        <time>2022-07-16T10:46:37+0200</time>
      </trkpt>
      <trkpt lat="45.09737" lon="6.40676">
        <ele>1902.7</ele>
        <time>2022-07-16T10:46:38+0200</time>
      </trkpt>
      <trkpt lat="45.09741" lon="6.40685">
        <ele>1901.9</ele>
        <time>2022-07-16T10:46:39+0200</time>
      </trkpt>
      <trkpt lat="45.09747" lon="6.40693">
        <ele>1901.2</ele>
        <time>2022-07-16T10:46:40+0200</time>
      </trkpt>
      <trkpt lat="45.09753" lon="6.40697">
        <ele>1902.1</ele>
        <time>2022-07-16T10:46:41+0200</time>
      </trkpt>
      <trkpt lat="45.09756" lon="6.40706">
        <ele>1901.9</ele>
        <time>2022-07-16T10:46:42+0200</time>
      </trkpt>
      <trkpt lat="45.09759" lon="6.40713">
        <ele>1901.5</ele>
        <time>2022-07-16T10:46:43+0200</time>
      </trkpt>
      <trkpt lat="45.09763" lon="6.4072">
        <ele>1900.9</ele>
        <time>2022-07-16T10:46:44+0200</time>
      </trkpt>
      <trkpt lat="45.09768" lon="6.40724">
        <ele>1900.8</ele>
        <time>2022-07-16T10:46:45+0200</time>
      </trkpt>
      <trkpt lat="45.09771" lon="6.40728">
        <ele>1900.6</ele>
        <time>2022-07-16T10:46:46+0200</time>
      </trkpt>
      <trkpt lat="45.09778" lon="6.40735">
        <ele>1899.7</ele>
        <time>2022-07-16T10:46:48+0200</time>
      </trkpt>
      <trkpt lat="45.09782" lon="6.4074">
        <ele>1900.4</ele>
        <time>2022-07-16T10:46:50+0200</time>
      </trkpt>
      <trkpt lat="45.09786" lon="6.40745">
        <ele>1900.6</ele>
        <time>2022-07-16T10:46:53+0200</time>
      </trkpt>
      <trkpt lat="45.09791" lon="6.40752">
        <ele>1900</ele>
        <time>2022-07-16T10:46:58+0200</time>
      </trkpt>
      <trkpt lat="45.09795" lon="6.40758">
        <ele>1899.9</ele>
        <time>2022-07-16T10:47:00+0200</time>
      </trkpt>
      <trkpt lat="45.098" lon="6.40761">
        <ele>1900</ele>
        <time>2022-07-16T10:47:02+0200</time>
      </trkpt>
      <trkpt lat="45.09804" lon="6.40762">
        <ele>1900.3</ele>
        <time>2022-07-16T10:47:04+0200</time>
      </trkpt>
      <trkpt lat="45.09807" lon="6.40769">
        <ele>1899.2</ele>
        <time>2022-07-16T10:47:06+0200</time>
      </trkpt>
      <trkpt lat="45.09812" lon="6.40775">
        <ele>1898.6</ele>
        <time>2022-07-16T10:47:08+0200</time>
      </trkpt>
      <trkpt lat="45.09816" lon="6.40779">
        <ele>1898.5</ele>
        <time>2022-07-16T10:47:09+0200</time>
      </trkpt>
      <trkpt lat="45.09823" lon="6.40786">
        <ele>1898.9</ele>
        <time>2022-07-16T10:47:11+0200</time>
      </trkpt>
      <trkpt lat="45.09829" lon="6.40791">
        <ele>1898.7</ele>
        <time>2022-07-16T10:47:13+0200</time>
      </trkpt>
      <trkpt lat="45.09834" lon="6.408">
        <ele>1897</ele>
        <time>2022-07-16T10:47:15+0200</time>
      </trkpt>
      <trkpt lat="45.09838" lon="6.40806">
        <ele>1896.4</ele>
        <time>2022-07-16T10:47:16+0200</time>
      </trkpt>
      <trkpt lat="45.09843" lon="6.40808">
        <ele>1897.7</ele>
        <time>2022-07-16T10:47:17+0200</time>
      </trkpt>
      <trkpt lat="45.09848" lon="6.40815">
        <ele>1897.8</ele>
        <time>2022-07-16T10:47:19+0200</time>
      </trkpt>
      <trkpt lat="45.09854" lon="6.40824">
        <ele>1896.5</ele>
        <time>2022-07-16T10:47:21+0200</time>
      </trkpt>
      <trkpt lat="45.09857" lon="6.40829">
        <ele>1895.4</ele>
        <time>2022-07-16T10:47:22+0200</time>
      </trkpt>
      <trkpt lat="45.0986" lon="6.40834">
        <ele>1894</ele>
        <time>2022-07-16T10:47:23+0200</time>
      </trkpt>
      <trkpt lat="45.09866" lon="6.40841">
        <ele>1895.8</ele>
        <time>2022-07-16T10:47:25+0200</time>
      </trkpt>
      <trkpt lat="45.09868" lon="6.40847">
        <ele>1895.8</ele>
        <time>2022-07-16T10:47:26+0200</time>
      </trkpt>
      <trkpt lat="45.09872" lon="6.40856">
        <ele>1896</ele>
        <time>2022-07-16T10:47:28+0200</time>
      </trkpt>
      <trkpt lat="45.09877" lon="6.40861">
        <ele>1895.9</ele>
        <time>2022-07-16T10:47:30+0200</time>
      </trkpt>
      <trkpt lat="45.09882" lon="6.40868">
        <ele>1895.8</ele>
        <time>2022-07-16T10:47:33+0200</time>
      </trkpt>
      <trkpt lat="45.09886" lon="6.40873">
        <ele>1894.7</ele>
        <time>2022-07-16T10:47:35+0200</time>
      </trkpt>
      <trkpt lat="45.09891" lon="6.40879">
        <ele>1893.6</ele>
        <time>2022-07-16T10:47:38+0200</time>
      </trkpt>
      <trkpt lat="45.09896" lon="6.40884">
        <ele>1893.5</ele>
        <time>2022-07-16T10:47:41+0200</time>
      </trkpt>
      <trkpt lat="45.099" lon="6.40891">
        <ele>1893.7</ele>
        <time>2022-07-16T10:47:44+0200</time>
      </trkpt>
      <trkpt lat="45.09905" lon="6.409">
        <ele>1894.8</ele>
        <time>2022-07-16T10:47:46+0200</time>
      </trkpt>
      <trkpt lat="45.09909" lon="6.40907">
        <ele>1894.3</ele>
        <time>2022-07-16T10:47:47+0200</time>
      </trkpt>
      <trkpt lat="45.09913" lon="6.40912">
        <ele>1893.1</ele>
        <time>2022-07-16T10:47:48+0200</time>
      </trkpt>
      <trkpt lat="45.09916" lon="6.40917">
        <ele>1891.2</ele>
        <time>2022-07-16T10:47:49+0200</time>
      </trkpt>
      <trkpt lat="45.09919" lon="6.40923">
        <ele>1891.4</ele>
        <time>2022-07-16T10:47:50+0200</time>
      </trkpt>
      <trkpt lat="45.09922" lon="6.40929">
        <ele>1892.3</ele>
        <time>2022-07-16T10:47:51+0200</time>
      </trkpt>
      <trkpt lat="45.09926" lon="6.40935">
        <ele>1893.1</ele>
        <time>2022-07-16T10:47:52+0200</time>
      </trkpt>
      <trkpt lat="45.09929" lon="6.40941">
        <ele>1892.9</ele>
        <time>2022-07-16T10:47:53+0200</time>
      </trkpt>
      <trkpt lat="45.09932" lon="6.40948">
        <ele>1892.6</ele>
        <time>2022-07-16T10:47:54+0200</time>
      </trkpt>
      <trkpt lat="45.09937" lon="6.40955">
        <ele>1892.7</ele>
        <time>2022-07-16T10:47:55+0200</time>
      </trkpt>
      <trkpt lat="45.0994" lon="6.4096">
        <ele>1891.7</ele>
        <time>2022-07-16T10:47:56+0200</time>
      </trkpt>
      <trkpt lat="45.09944" lon="6.40966">
        <ele>1890.1</ele>
        <time>2022-07-16T10:47:57+0200</time>
      </trkpt>
      <trkpt lat="45.09948" lon="6.40972">
        <ele>1889.9</ele>
        <time>2022-07-16T10:47:58+0200</time>
      </trkpt>
      <trkpt lat="45.09952" lon="6.40977">
        <ele>1890.9</ele>
        <time>2022-07-16T10:47:59+0200</time>
      </trkpt>
      <trkpt lat="45.09956" lon="6.40984">
        <ele>1890.8</ele>
        <time>2022-07-16T10:48:00+0200</time>
      </trkpt>
      <trkpt lat="45.0996" lon="6.40989">
        <ele>1890.8</ele>
        <time>2022-07-16T10:48:01+0200</time>
      </trkpt>
      <trkpt lat="45.09964" lon="6.40994">
        <ele>1890.5</ele>
        <time>2022-07-16T10:48:02+0200</time>
      </trkpt>
      <trkpt lat="45.09969" lon="6.40999">
        <ele>1890.3</ele>
        <time>2022-07-16T10:48:04+0200</time>
      </trkpt>
      <trkpt lat="45.09973" lon="6.41004">
        <ele>1890</ele>
        <time>2022-07-16T10:48:06+0200</time>
      </trkpt>
      <trkpt lat="45.09979" lon="6.4101">
        <ele>1891.1</ele>
        <time>2022-07-16T10:48:09+0200</time>
      </trkpt>
      <trkpt lat="45.09984" lon="6.41014">
        <ele>1892.9</ele>
        <time>2022-07-16T10:48:11+0200</time>
      </trkpt>
      <trkpt lat="45.09988" lon="6.41021">
        <ele>1891.7</ele>
        <time>2022-07-16T10:48:15+0200</time>
      </trkpt>
      <trkpt lat="45.09993" lon="6.41027">
        <ele>1891.8</ele>
        <time>2022-07-16T10:48:18+0200</time>
      </trkpt>
      <trkpt lat="45.09996" lon="6.41032">
        <ele>1891.2</ele>
        <time>2022-07-16T10:48:20+0200</time>
      </trkpt>
      <trkpt lat="45.09999" lon="6.41037">
        <ele>1889.9</ele>
        <time>2022-07-16T10:48:23+0200</time>
      </trkpt>
      <trkpt lat="45.10003" lon="6.41041">
        <ele>1888.9</ele>
        <time>2022-07-16T10:48:26+0200</time>
      </trkpt>
      <trkpt lat="45.10008" lon="6.41044">
        <ele>1889.6</ele>
        <time>2022-07-16T10:48:28+0200</time>
      </trkpt>
      <trkpt lat="45.10012" lon="6.41047">
        <ele>1890</ele>
        <time>2022-07-16T10:48:31+0200</time>
      </trkpt>
      <trkpt lat="45.10016" lon="6.41053">
        <ele>1889.4</ele>
        <time>2022-07-16T10:48:33+0200</time>
      </trkpt>
      <trkpt lat="45.10018" lon="6.41059">
        <ele>1887.8</ele>
        <time>2022-07-16T10:48:34+0200</time>
      </trkpt>
      <trkpt lat="45.10022" lon="6.41065">
        <ele>1886</ele>
        <time>2022-07-16T10:48:35+0200</time>
      </trkpt>
      <trkpt lat="45.10027" lon="6.41071">
        <ele>1883.5</ele>
        <time>2022-07-16T10:48:36+0200</time>
      </trkpt>
      <trkpt lat="45.10035" lon="6.41077">
        <ele>1882.1</ele>
        <time>2022-07-16T10:48:37+0200</time>
      </trkpt>
      <trkpt lat="45.10043" lon="6.41082">
        <ele>1882.9</ele>
        <time>2022-07-16T10:48:38+0200</time>
      </trkpt>
      <trkpt lat="45.10051" lon="6.41089">
        <ele>1882.9</ele>
        <time>2022-07-16T10:48:39+0200</time>
      </trkpt>
      <trkpt lat="45.10059" lon="6.41095">
        <ele>1882.1</ele>
        <time>2022-07-16T10:48:40+0200</time>
      </trkpt>
      <trkpt lat="45.10067" lon="6.411">
        <ele>1883.1</ele>
        <time>2022-07-16T10:48:41+0200</time>
      </trkpt>
      <trkpt lat="45.10073" lon="6.41108">
        <ele>1881.8</ele>
        <time>2022-07-16T10:48:42+0200</time>
      </trkpt>
      <trkpt lat="45.10079" lon="6.41113">
        <ele>1882.4</ele>
        <time>2022-07-16T10:48:43+0200</time>
      </trkpt>
      <trkpt lat="45.10084" lon="6.41116">
        <ele>1883.3</ele>
        <time>2022-07-16T10:48:44+0200</time>
      </trkpt>
      <trkpt lat="45.10089" lon="6.41118">
        <ele>1883.7</ele>
        <time>2022-07-16T10:48:45+0200</time>
      </trkpt>
      <trkpt lat="45.10094" lon="6.41121">
        <ele>1883.6</ele>
        <time>2022-07-16T10:48:46+0200</time>
      </trkpt>
      <trkpt lat="45.101" lon="6.41125">
        <ele>1883.4</ele>
        <time>2022-07-16T10:48:47+0200</time>
      </trkpt>
      <trkpt lat="45.10106" lon="6.4113">
        <ele>1882.1</ele>
        <time>2022-07-16T10:48:48+0200</time>
      </trkpt>
      <trkpt lat="45.10111" lon="6.4113">
        <ele>1883.2</ele>
        <time>2022-07-16T10:48:56+0200</time>
      </trkpt>
      <trkpt lat="45.10115" lon="6.41134">
        <ele>1881.9</ele>
        <time>2022-07-16T10:49:00+0200</time>
      </trkpt>
      <trkpt lat="45.10119" lon="6.41143">
        <ele>1878.8</ele>
        <time>2022-07-16T10:49:03+0200</time>
      </trkpt>
      <trkpt lat="45.10121" lon="6.41151">
        <ele>1876.1</ele>
        <time>2022-07-16T10:49:04+0200</time>
      </trkpt>
      <trkpt lat="45.10127" lon="6.41162">
        <ele>1872.7</ele>
        <time>2022-07-16T10:49:05+0200</time>
      </trkpt>
      <trkpt lat="45.10133" lon="6.41173">
        <ele>1870.7</ele>
        <time>2022-07-16T10:49:06+0200</time>
      </trkpt>
      <trkpt lat="45.1014" lon="6.41182">
        <ele>1869.9</ele>
        <time>2022-07-16T10:49:07+0200</time>
      </trkpt>
      <trkpt lat="45.10144" lon="6.41189">
        <ele>1869.2</ele>
        <time>2022-07-16T10:49:08+0200</time>
      </trkpt>
      <trkpt lat="45.10149" lon="6.41193">
        <ele>1869.1</ele>
        <time>2022-07-16T10:49:09+0200</time>
      </trkpt>
      <trkpt lat="45.10154" lon="6.41202">
        <ele>1868.8</ele>
        <time>2022-07-16T10:49:11+0200</time>
      </trkpt>
      <trkpt lat="45.10156" lon="6.41209">
        <ele>1868.2</ele>
        <time>2022-07-16T10:49:12+0200</time>
      </trkpt>
      <trkpt lat="45.10158" lon="6.41217">
        <ele>1867.4</ele>
        <time>2022-07-16T10:49:13+0200</time>
      </trkpt>
      <trkpt lat="45.1016" lon="6.41226">
        <ele>1866.7</ele>
        <time>2022-07-16T10:49:14+0200</time>
      </trkpt>
      <trkpt lat="45.10164" lon="6.41232">
        <ele>1866.8</ele>
        <time>2022-07-16T10:49:15+0200</time>
      </trkpt>
      <trkpt lat="45.10167" lon="6.41237">
        <ele>1866.9</ele>
        <time>2022-07-16T10:49:16+0200</time>
      </trkpt>
      <trkpt lat="45.10168" lon="6.41244">
        <ele>1866.9</ele>
        <time>2022-07-16T10:49:17+0200</time>
      </trkpt>
      <trkpt lat="45.10168" lon="6.41252">
        <ele>1866.2</ele>
        <time>2022-07-16T10:49:18+0200</time>
      </trkpt>
      <trkpt lat="45.10168" lon="6.41259">
        <ele>1865.6</ele>
        <time>2022-07-16T10:49:19+0200</time>
      </trkpt>
      <trkpt lat="45.1017" lon="6.41267">
        <ele>1865.9</ele>
        <time>2022-07-16T10:49:20+0200</time>
      </trkpt>
      <trkpt lat="45.10172" lon="6.41273">
        <ele>1866</ele>
        <time>2022-07-16T10:49:21+0200</time>
      </trkpt>
      <trkpt lat="45.10174" lon="6.4128">
        <ele>1866.4</ele>
        <time>2022-07-16T10:49:22+0200</time>
      </trkpt>
      <trkpt lat="45.10177" lon="6.41286">
        <ele>1867.2</ele>
        <time>2022-07-16T10:49:23+0200</time>
      </trkpt>
      <trkpt lat="45.1018" lon="6.41293">
        <ele>1867.8</ele>
        <time>2022-07-16T10:49:24+0200</time>
      </trkpt>
      <trkpt lat="45.10181" lon="6.41302">
        <ele>1867.7</ele>
        <time>2022-07-16T10:49:25+0200</time>
      </trkpt>
      <trkpt lat="45.10181" lon="6.41309">
        <ele>1867.1</ele>
        <time>2022-07-16T10:49:26+0200</time>
      </trkpt>
      <trkpt lat="45.10183" lon="6.41318">
        <ele>1865.7</ele>
        <time>2022-07-16T10:49:27+0200</time>
      </trkpt>
      <trkpt lat="45.10184" lon="6.41327">
        <ele>1864</ele>
        <time>2022-07-16T10:49:28+0200</time>
      </trkpt>
      <trkpt lat="45.10187" lon="6.41335">
        <ele>1862.3</ele>
        <time>2022-07-16T10:49:29+0200</time>
      </trkpt>
      <trkpt lat="45.10188" lon="6.41343">
        <ele>1860.8</ele>
        <time>2022-07-16T10:49:30+0200</time>
      </trkpt>
      <trkpt lat="45.10188" lon="6.4135">
        <ele>1859.5</ele>
        <time>2022-07-16T10:49:31+0200</time>
      </trkpt>
      <trkpt lat="45.10188" lon="6.41358">
        <ele>1857.9</ele>
        <time>2022-07-16T10:49:32+0200</time>
      </trkpt>
      <trkpt lat="45.10189" lon="6.41367">
        <ele>1856.7</ele>
        <time>2022-07-16T10:49:33+0200</time>
      </trkpt>
      <trkpt lat="45.1019" lon="6.41376">
        <ele>1855.5</ele>
        <time>2022-07-16T10:49:34+0200</time>
      </trkpt>
      <trkpt lat="45.10193" lon="6.41385">
        <ele>1854.9</ele>
        <time>2022-07-16T10:49:35+0200</time>
      </trkpt>
      <trkpt lat="45.10195" lon="6.41396">
        <ele>1853.3</ele>
        <time>2022-07-16T10:49:37+0200</time>
      </trkpt>
      <trkpt lat="45.10196" lon="6.41406">
        <ele>1851.3</ele>
        <time>2022-07-16T10:49:39+0200</time>
      </trkpt>
      <trkpt lat="45.102" lon="6.41417">
        <ele>1850.2</ele>
        <time>2022-07-16T10:49:41+0200</time>
      </trkpt>
      <trkpt lat="45.10202" lon="6.41422">
        <ele>1850.2</ele>
        <time>2022-07-16T10:49:42+0200</time>
      </trkpt>
      <trkpt lat="45.10203" lon="6.41434">
        <ele>1848.9</ele>
        <time>2022-07-16T10:49:44+0200</time>
      </trkpt>
      <trkpt lat="45.10203" lon="6.41441">
        <ele>1847.5</ele>
        <time>2022-07-16T10:49:45+0200</time>
      </trkpt>
      <trkpt lat="45.10201" lon="6.41452">
        <ele>1844.6</ele>
        <time>2022-07-16T10:49:47+0200</time>
      </trkpt>
      <trkpt lat="45.10202" lon="6.41458">
        <ele>1844.1</ele>
        <time>2022-07-16T10:49:48+0200</time>
      </trkpt>
      <trkpt lat="45.10206" lon="6.41467">
        <ele>1844.6</ele>
        <time>2022-07-16T10:49:49+0200</time>
      </trkpt>
      <trkpt lat="45.1021" lon="6.41474">
        <ele>1844.7</ele>
        <time>2022-07-16T10:49:50+0200</time>
      </trkpt>
      <trkpt lat="45.10215" lon="6.4148">
        <ele>1844.7</ele>
        <time>2022-07-16T10:49:51+0200</time>
      </trkpt>
      <trkpt lat="45.10219" lon="6.41487">
        <ele>1843.8</ele>
        <time>2022-07-16T10:49:52+0200</time>
      </trkpt>
      <trkpt lat="45.10223" lon="6.41495">
        <ele>1842.9</ele>
        <time>2022-07-16T10:49:53+0200</time>
      </trkpt>
      <trkpt lat="45.10227" lon="6.41503">
        <ele>1842.9</ele>
        <time>2022-07-16T10:49:54+0200</time>
      </trkpt>
      <trkpt lat="45.1023" lon="6.41511">
        <ele>1842.6</ele>
        <time>2022-07-16T10:49:55+0200</time>
      </trkpt>
      <trkpt lat="45.10233" lon="6.4152">
        <ele>1842</ele>
        <time>2022-07-16T10:49:56+0200</time>
      </trkpt>
      <trkpt lat="45.10236" lon="6.41527">
        <ele>1840.8</ele>
        <time>2022-07-16T10:49:57+0200</time>
      </trkpt>
      <trkpt lat="45.10237" lon="6.41534">
        <ele>1839.4</ele>
        <time>2022-07-16T10:49:58+0200</time>
      </trkpt>
      <trkpt lat="45.10241" lon="6.41545">
        <ele>1837.2</ele>
        <time>2022-07-16T10:50:00+0200</time>
      </trkpt>
      <trkpt lat="45.10244" lon="6.41553">
        <ele>1835.5</ele>
        <time>2022-07-16T10:50:01+0200</time>
      </trkpt>
      <trkpt lat="45.10247" lon="6.41559">
        <ele>1834.8</ele>
        <time>2022-07-16T10:50:02+0200</time>
      </trkpt>
      <trkpt lat="45.1025" lon="6.41564">
        <ele>1834.4</ele>
        <time>2022-07-16T10:50:03+0200</time>
      </trkpt>
      <trkpt lat="45.10253" lon="6.41573">
        <ele>1832.9</ele>
        <time>2022-07-16T10:50:05+0200</time>
      </trkpt>
      <trkpt lat="45.10258" lon="6.41583">
        <ele>1831.5</ele>
        <time>2022-07-16T10:50:07+0200</time>
      </trkpt>
      <trkpt lat="45.10262" lon="6.41592">
        <ele>1830.5</ele>
        <time>2022-07-16T10:50:09+0200</time>
      </trkpt>
      <trkpt lat="45.10263" lon="6.41602">
        <ele>1829.1</ele>
        <time>2022-07-16T10:50:11+0200</time>
      </trkpt>
      <trkpt lat="45.10264" lon="6.41614">
        <ele>1826.9</ele>
        <time>2022-07-16T10:50:13+0200</time>
      </trkpt>
      <trkpt lat="45.10269" lon="6.41623">
        <ele>1826.1</ele>
        <time>2022-07-16T10:50:15+0200</time>
      </trkpt>
      <trkpt lat="45.10271" lon="6.41634">
        <ele>1824.5</ele>
        <time>2022-07-16T10:50:17+0200</time>
      </trkpt>
      <trkpt lat="45.10275" lon="6.41639">
        <ele>1824.8</ele>
        <time>2022-07-16T10:50:18+0200</time>
      </trkpt>
      <trkpt lat="45.10277" lon="6.41646">
        <ele>1824.6</ele>
        <time>2022-07-16T10:50:20+0200</time>
      </trkpt>
      <trkpt lat="45.10279" lon="6.41653">
        <ele>1823.6</ele>
        <time>2022-07-16T10:50:22+0200</time>
      </trkpt>
      <trkpt lat="45.10282" lon="6.41659">
        <ele>1823.6</ele>
        <time>2022-07-16T10:50:33+0200</time>
      </trkpt>
      <trkpt lat="45.10284" lon="6.41667">
        <ele>1822.4</ele>
        <time>2022-07-16T10:50:35+0200</time>
      </trkpt>
      <trkpt lat="45.10285" lon="6.4168">
        <ele>1819.9</ele>
        <time>2022-07-16T10:50:37+0200</time>
      </trkpt>
      <trkpt lat="45.10288" lon="6.41687">
        <ele>1819</ele>
        <time>2022-07-16T10:50:38+0200</time>
      </trkpt>
      <trkpt lat="45.10292" lon="6.41692">
        <ele>1819.1</ele>
        <time>2022-07-16T10:50:39+0200</time>
      </trkpt>
      <trkpt lat="45.10295" lon="6.41697">
        <ele>1819</ele>
        <time>2022-07-16T10:50:40+0200</time>
      </trkpt>
      <trkpt lat="45.10298" lon="6.41704">
        <ele>1818.4</ele>
        <time>2022-07-16T10:50:41+0200</time>
      </trkpt>
      <trkpt lat="45.10301" lon="6.41712">
        <ele>1817.2</ele>
        <time>2022-07-16T10:50:42+0200</time>
      </trkpt>
      <trkpt lat="45.10302" lon="6.41722">
        <ele>1815.5</ele>
        <time>2022-07-16T10:50:43+0200</time>
      </trkpt>
      <trkpt lat="45.10303" lon="6.41731">
        <ele>1814.6</ele>
        <time>2022-07-16T10:50:44+0200</time>
      </trkpt>
      <trkpt lat="45.10305" lon="6.41743">
        <ele>1814</ele>
        <time>2022-07-16T10:50:45+0200</time>
      </trkpt>
      <trkpt lat="45.10308" lon="6.41751">
        <ele>1813.1</ele>
        <time>2022-07-16T10:50:46+0200</time>
      </trkpt>
      <trkpt lat="45.1031" lon="6.41758">
        <ele>1812.1</ele>
        <time>2022-07-16T10:50:47+0200</time>
      </trkpt>
      <trkpt lat="45.10312" lon="6.41766">
        <ele>1810.7</ele>
        <time>2022-07-16T10:50:48+0200</time>
      </trkpt>
      <trkpt lat="45.10316" lon="6.41773">
        <ele>1809.6</ele>
        <time>2022-07-16T10:50:49+0200</time>
      </trkpt>
      <trkpt lat="45.10321" lon="6.41783">
        <ele>1808</ele>
        <time>2022-07-16T10:50:50+0200</time>
      </trkpt>
      <trkpt lat="45.10326" lon="6.41789">
        <ele>1807.1</ele>
        <time>2022-07-16T10:50:51+0200</time>
      </trkpt>
      <trkpt lat="45.10332" lon="6.41794">
        <ele>1806.8</ele>
        <time>2022-07-16T10:50:52+0200</time>
      </trkpt>
      <trkpt lat="45.10338" lon="6.41797">
        <ele>1806.7</ele>
        <time>2022-07-16T10:50:53+0200</time>
      </trkpt>
      <trkpt lat="45.10345" lon="6.41803">
        <ele>1806.1</ele>
        <time>2022-07-16T10:50:54+0200</time>
      </trkpt>
      <trkpt lat="45.10352" lon="6.41807">
        <ele>1805.5</ele>
        <time>2022-07-16T10:50:55+0200</time>
      </trkpt>
      <trkpt lat="45.10356" lon="6.41813">
        <ele>1804.4</ele>
        <time>2022-07-16T10:50:56+0200</time>
      </trkpt>
      <trkpt lat="45.1036" lon="6.41821">
        <ele>1802.9</ele>
        <time>2022-07-16T10:50:57+0200</time>
      </trkpt>
      <trkpt lat="45.10363" lon="6.41831">
        <ele>1801.3</ele>
        <time>2022-07-16T10:50:58+0200</time>
      </trkpt>
      <trkpt lat="45.10368" lon="6.41837">
        <ele>1800.8</ele>
        <time>2022-07-16T10:50:59+0200</time>
      </trkpt>
      <trkpt lat="45.10372" lon="6.41843">
        <ele>1800.1</ele>
        <time>2022-07-16T10:51:00+0200</time>
      </trkpt>
      <trkpt lat="45.10376" lon="6.41849">
        <ele>1799.3</ele>
        <time>2022-07-16T10:51:01+0200</time>
      </trkpt>
      <trkpt lat="45.10378" lon="6.41864">
        <ele>1795.3</ele>
        <time>2022-07-16T10:51:03+0200</time>
      </trkpt>
      <trkpt lat="45.10381" lon="6.41875">
        <ele>1793.4</ele>
        <time>2022-07-16T10:51:04+0200</time>
      </trkpt>
      <trkpt lat="45.10384" lon="6.41886">
        <ele>1791.4</ele>
        <time>2022-07-16T10:51:05+0200</time>
      </trkpt>
      <trkpt lat="45.10388" lon="6.41899">
        <ele>1789.9</ele>
        <time>2022-07-16T10:51:06+0200</time>
      </trkpt>
      <trkpt lat="45.1039" lon="6.41911">
        <ele>1788.7</ele>
        <time>2022-07-16T10:51:07+0200</time>
      </trkpt>
      <trkpt lat="45.10394" lon="6.4192">
        <ele>1788.3</ele>
        <time>2022-07-16T10:51:08+0200</time>
      </trkpt>
      <trkpt lat="45.10399" lon="6.41925">
        <ele>1788.2</ele>
        <time>2022-07-16T10:51:09+0200</time>
      </trkpt>
      <trkpt lat="45.10405" lon="6.41929">
        <ele>1787.9</ele>
        <time>2022-07-16T10:51:10+0200</time>
      </trkpt>
      <trkpt lat="45.1041" lon="6.41936">
        <ele>1786.9</ele>
        <time>2022-07-16T10:51:11+0200</time>
      </trkpt>
      <trkpt lat="45.10414" lon="6.41944">
        <ele>1785.1</ele>
        <time>2022-07-16T10:51:12+0200</time>
      </trkpt>
      <trkpt lat="45.10417" lon="6.41955">
        <ele>1784.3</ele>
        <time>2022-07-16T10:51:13+0200</time>
      </trkpt>
      <trkpt lat="45.10421" lon="6.41963">
        <ele>1784.6</ele>
        <time>2022-07-16T10:51:14+0200</time>
      </trkpt>
      <trkpt lat="45.10428" lon="6.41972">
        <ele>1784.7</ele>
        <time>2022-07-16T10:51:15+0200</time>
      </trkpt>
      <trkpt lat="45.10434" lon="6.41981">
        <ele>1784.1</ele>
        <time>2022-07-16T10:51:16+0200</time>
      </trkpt>
      <trkpt lat="45.1044" lon="6.41989">
        <ele>1783.1</ele>
        <time>2022-07-16T10:51:17+0200</time>
      </trkpt>
      <trkpt lat="45.10446" lon="6.41998">
        <ele>1782.2</ele>
        <time>2022-07-16T10:51:18+0200</time>
      </trkpt>
      <trkpt lat="45.10451" lon="6.42008">
        <ele>1782.7</ele>
        <time>2022-07-16T10:51:19+0200</time>
      </trkpt>
      <trkpt lat="45.10457" lon="6.42016">
        <ele>1783.3</ele>
        <time>2022-07-16T10:51:20+0200</time>
      </trkpt>
      <trkpt lat="45.10463" lon="6.42026">
        <ele>1782.2</ele>
        <time>2022-07-16T10:51:21+0200</time>
      </trkpt>
      <trkpt lat="45.10468" lon="6.42035">
        <ele>1781.1</ele>
        <time>2022-07-16T10:51:22+0200</time>
      </trkpt>
      <trkpt lat="45.10474" lon="6.42043">
        <ele>1780.5</ele>
        <time>2022-07-16T10:51:23+0200</time>
      </trkpt>
      <trkpt lat="45.1048" lon="6.42052">
        <ele>1781.2</ele>
        <time>2022-07-16T10:51:24+0200</time>
      </trkpt>
      <trkpt lat="45.10485" lon="6.4206">
        <ele>1781.1</ele>
        <time>2022-07-16T10:51:25+0200</time>
      </trkpt>
      <trkpt lat="45.10489" lon="6.42069">
        <ele>1780.3</ele>
        <time>2022-07-16T10:51:26+0200</time>
      </trkpt>
      <trkpt lat="45.10492" lon="6.42078">
        <ele>1778.2</ele>
        <time>2022-07-16T10:51:27+0200</time>
      </trkpt>
      <trkpt lat="45.10496" lon="6.42088">
        <ele>1776.3</ele>
        <time>2022-07-16T10:51:28+0200</time>
      </trkpt>
      <trkpt lat="45.10501" lon="6.42095">
        <ele>1775.7</ele>
        <time>2022-07-16T10:51:29+0200</time>
      </trkpt>
      <trkpt lat="45.10505" lon="6.42103">
        <ele>1775.3</ele>
        <time>2022-07-16T10:51:30+0200</time>
      </trkpt>
      <trkpt lat="45.1051" lon="6.42111">
        <ele>1774.5</ele>
        <time>2022-07-16T10:51:31+0200</time>
      </trkpt>
      <trkpt lat="45.10515" lon="6.42119">
        <ele>1774.3</ele>
        <time>2022-07-16T10:51:32+0200</time>
      </trkpt>
      <trkpt lat="45.10518" lon="6.42128">
        <ele>1773.6</ele>
        <time>2022-07-16T10:51:33+0200</time>
      </trkpt>
      <trkpt lat="45.10522" lon="6.42136">
        <ele>1772.6</ele>
        <time>2022-07-16T10:51:34+0200</time>
      </trkpt>
      <trkpt lat="45.10527" lon="6.42144">
        <ele>1771.9</ele>
        <time>2022-07-16T10:51:35+0200</time>
      </trkpt>
      <trkpt lat="45.10531" lon="6.42152">
        <ele>1771.9</ele>
        <time>2022-07-16T10:51:36+0200</time>
      </trkpt>
      <trkpt lat="45.10535" lon="6.42158">
        <ele>1771.8</ele>
        <time>2022-07-16T10:51:37+0200</time>
      </trkpt>
      <trkpt lat="45.10538" lon="6.42167">
        <ele>1771</ele>
        <time>2022-07-16T10:51:38+0200</time>
      </trkpt>
      <trkpt lat="45.10541" lon="6.42174">
        <ele>1770.7</ele>
        <time>2022-07-16T10:51:39+0200</time>
      </trkpt>
      <trkpt lat="45.10545" lon="6.42181">
        <ele>1770.5</ele>
        <time>2022-07-16T10:51:40+0200</time>
      </trkpt>
      <trkpt lat="45.10549" lon="6.42188">
        <ele>1770.2</ele>
        <time>2022-07-16T10:51:41+0200</time>
      </trkpt>
      <trkpt lat="45.10552" lon="6.42194">
        <ele>1770</ele>
        <time>2022-07-16T10:51:42+0200</time>
      </trkpt>
      <trkpt lat="45.10556" lon="6.422">
        <ele>1769.8</ele>
        <time>2022-07-16T10:51:43+0200</time>
      </trkpt>
      <trkpt lat="45.10558" lon="6.42207">
        <ele>1769.6</ele>
        <time>2022-07-16T10:51:44+0200</time>
      </trkpt>
      <trkpt lat="45.10563" lon="6.42214">
        <ele>1769.2</ele>
        <time>2022-07-16T10:51:45+0200</time>
      </trkpt>
      <trkpt lat="45.10567" lon="6.42219">
        <ele>1768.8</ele>
        <time>2022-07-16T10:51:46+0200</time>
      </trkpt>
      <trkpt lat="45.10571" lon="6.42225">
        <ele>1768.4</ele>
        <time>2022-07-16T10:51:47+0200</time>
      </trkpt>
      <trkpt lat="45.10573" lon="6.42233">
        <ele>1768</ele>
        <time>2022-07-16T10:51:48+0200</time>
      </trkpt>
      <trkpt lat="45.10576" lon="6.42239">
        <ele>1767.7</ele>
        <time>2022-07-16T10:51:49+0200</time>
      </trkpt>
      <trkpt lat="45.10579" lon="6.42247">
        <ele>1767.3</ele>
        <time>2022-07-16T10:51:50+0200</time>
      </trkpt>
      <trkpt lat="45.10581" lon="6.42255">
        <ele>1766.9</ele>
        <time>2022-07-16T10:51:51+0200</time>
      </trkpt>
      <trkpt lat="45.10586" lon="6.42263">
        <ele>1766.5</ele>
        <time>2022-07-16T10:51:52+0200</time>
      </trkpt>
      <trkpt lat="45.10591" lon="6.42269">
        <ele>1766.1</ele>
        <time>2022-07-16T10:51:53+0200</time>
      </trkpt>
      <trkpt lat="45.10596" lon="6.42274">
        <ele>1765.7</ele>
        <time>2022-07-16T10:51:54+0200</time>
      </trkpt>
      <trkpt lat="45.106" lon="6.42279">
        <ele>1765.3</ele>
        <time>2022-07-16T10:51:55+0200</time>
      </trkpt>
      <trkpt lat="45.10606" lon="6.42283">
        <ele>1764.6</ele>
        <time>2022-07-16T10:51:56+0200</time>
      </trkpt>
      <trkpt lat="45.10612" lon="6.42288">
        <ele>1763.8</ele>
        <time>2022-07-16T10:51:57+0200</time>
      </trkpt>
      <trkpt lat="45.10618" lon="6.42291">
        <ele>1763</ele>
        <time>2022-07-16T10:51:58+0200</time>
      </trkpt>
      <trkpt lat="45.10625" lon="6.42296">
        <ele>1762.2</ele>
        <time>2022-07-16T10:51:59+0200</time>
      </trkpt>
      <trkpt lat="45.10632" lon="6.423">
        <ele>1761.6</ele>
        <time>2022-07-16T10:52:00+0200</time>
      </trkpt>
      <trkpt lat="45.10639" lon="6.42303">
        <ele>1761.1</ele>
        <time>2022-07-16T10:52:01+0200</time>
      </trkpt>
      <trkpt lat="45.10646" lon="6.42306">
        <ele>1760.7</ele>
        <time>2022-07-16T10:52:02+0200</time>
      </trkpt>
      <trkpt lat="45.10653" lon="6.4231">
        <ele>1760.3</ele>
        <time>2022-07-16T10:52:03+0200</time>
      </trkpt>
      <trkpt lat="45.1066" lon="6.42312">
        <ele>1760</ele>
        <time>2022-07-16T10:52:04+0200</time>
      </trkpt>
      <trkpt lat="45.10668" lon="6.42315">
        <ele>1759.6</ele>
        <time>2022-07-16T10:52:05+0200</time>
      </trkpt>
      <trkpt lat="45.10675" lon="6.42318">
        <ele>1759.4</ele>
        <time>2022-07-16T10:52:06+0200</time>
      </trkpt>
      <trkpt lat="45.10682" lon="6.42321">
        <ele>1759.2</ele>
        <time>2022-07-16T10:52:07+0200</time>
      </trkpt>
      <trkpt lat="45.10689" lon="6.42324">
        <ele>1758.8</ele>
        <time>2022-07-16T10:52:08+0200</time>
      </trkpt>
      <trkpt lat="45.10695" lon="6.42327">
        <ele>1758.5</ele>
        <time>2022-07-16T10:52:09+0200</time>
      </trkpt>
      <trkpt lat="45.10701" lon="6.4233">
        <ele>1758.2</ele>
        <time>2022-07-16T10:52:10+0200</time>
      </trkpt>
      <trkpt lat="45.10706" lon="6.42332">
        <ele>1758.1</ele>
        <time>2022-07-16T10:52:11+0200</time>
      </trkpt>
      <trkpt lat="45.10712" lon="6.42334">
        <ele>1758</ele>
        <time>2022-07-16T10:52:12+0200</time>
      </trkpt>
      <trkpt lat="45.10718" lon="6.42335">
        <ele>1757.9</ele>
        <time>2022-07-16T10:52:13+0200</time>
      </trkpt>
      <trkpt lat="45.10723" lon="6.42337">
        <ele>1757.7</ele>
        <time>2022-07-16T10:52:14+0200</time>
      </trkpt>
      <trkpt lat="45.10729" lon="6.42338">
        <ele>1757.5</ele>
        <time>2022-07-16T10:52:15+0200</time>
      </trkpt>
      <trkpt lat="45.10735" lon="6.42338">
        <ele>1757.3</ele>
        <time>2022-07-16T10:52:16+0200</time>
      </trkpt>
      <trkpt lat="45.1074" lon="6.42338">
        <ele>1757.1</ele>
        <time>2022-07-16T10:52:17+0200</time>
      </trkpt>
      <trkpt lat="45.10746" lon="6.42338">
        <ele>1757</ele>
        <time>2022-07-16T10:52:18+0200</time>
      </trkpt>
      <trkpt lat="45.10752" lon="6.42337">
        <ele>1757</ele>
        <time>2022-07-16T10:52:19+0200</time>
      </trkpt>
      <trkpt lat="45.10757" lon="6.42342">
        <ele>1757</ele>
        <time>2022-07-16T10:52:20+0200</time>
      </trkpt>
      <trkpt lat="45.1076" lon="6.42348">
        <ele>1756.8</ele>
        <time>2022-07-16T10:52:21+0200</time>
      </trkpt>
      <trkpt lat="45.10762" lon="6.42356">
        <ele>1756.3</ele>
        <time>2022-07-16T10:52:22+0200</time>
      </trkpt>
      <trkpt lat="45.10765" lon="6.42363">
        <ele>1756.1</ele>
        <time>2022-07-16T10:52:23+0200</time>
      </trkpt>
      <trkpt lat="45.1077" lon="6.42366">
        <ele>1756.1</ele>
        <time>2022-07-16T10:52:24+0200</time>
      </trkpt>
      <trkpt lat="45.10773" lon="6.42376">
        <ele>1756.2</ele>
        <time>2022-07-16T10:52:26+0200</time>
      </trkpt>
      <trkpt lat="45.10774" lon="6.42384">
        <ele>1756.2</ele>
        <time>2022-07-16T10:52:28+0200</time>
      </trkpt>
      <trkpt lat="45.10772" lon="6.42393">
        <ele>1757.8</ele>
        <time>2022-07-16T10:52:30+0200</time>
      </trkpt>
      <trkpt lat="45.1077" lon="6.42399">
        <ele>1760.1</ele>
        <time>2022-07-16T10:52:32+0200</time>
      </trkpt>
      <trkpt lat="45.10764" lon="6.42394">
        <ele>1759</ele>
        <time>2022-07-16T10:52:36+0200</time>
      </trkpt>
      <trkpt lat="45.10759" lon="6.42391">
        <ele>1758.1</ele>
        <time>2022-07-16T10:52:38+0200</time>
      </trkpt>
      <trkpt lat="45.10753" lon="6.4239">
        <ele>1758.3</ele>
        <time>2022-07-16T10:52:40+0200</time>
      </trkpt>
      <trkpt lat="45.10747" lon="6.42387">
        <ele>1758.2</ele>
        <time>2022-07-16T10:52:43+0200</time>
      </trkpt>
      <trkpt lat="45.10742" lon="6.42386">
        <ele>1758.8</ele>
        <time>2022-07-16T10:52:45+0200</time>
      </trkpt>
      <trkpt lat="45.10736" lon="6.42384">
        <ele>1759.3</ele>
        <time>2022-07-16T10:52:47+0200</time>
      </trkpt>
      <trkpt lat="45.10731" lon="6.42383">
        <ele>1759.7</ele>
        <time>2022-07-16T10:52:49+0200</time>
      </trkpt>
      <trkpt lat="45.10726" lon="6.42381">
        <ele>1759.8</ele>
        <time>2022-07-16T10:52:51+0200</time>
      </trkpt>
      <trkpt lat="45.10721" lon="6.4238">
        <ele>1760</ele>
        <time>2022-07-16T10:52:54+0200</time>
      </trkpt>
      <trkpt lat="45.10715" lon="6.42381">
        <ele>1759.9</ele>
        <time>2022-07-16T10:52:56+0200</time>
      </trkpt>
      <trkpt lat="45.1071" lon="6.42383">
        <ele>1759.8</ele>
        <time>2022-07-16T10:52:58+0200</time>
      </trkpt>
      <trkpt lat="45.10704" lon="6.42385">
        <ele>1759.6</ele>
        <time>2022-07-16T10:53:00+0200</time>
      </trkpt>
      <trkpt lat="45.10698" lon="6.42385">
        <ele>1759</ele>
        <time>2022-07-16T10:53:02+0200</time>
      </trkpt>
      <trkpt lat="45.10691" lon="6.42387">
        <ele>1758.8</ele>
        <time>2022-07-16T10:53:04+0200</time>
      </trkpt>
      <trkpt lat="45.10686" lon="6.42387">
        <ele>1758.6</ele>
        <time>2022-07-16T10:53:06+0200</time>
      </trkpt>
      <trkpt lat="45.1068" lon="6.42389">
        <ele>1758.6</ele>
        <time>2022-07-16T10:53:08+0200</time>
      </trkpt>
      <trkpt lat="45.10672" lon="6.42394">
        <ele>1759.8</ele>
        <time>2022-07-16T10:53:10+0200</time>
      </trkpt>
      <trkpt lat="45.10664" lon="6.42398">
        <ele>1761.3</ele>
        <time>2022-07-16T10:53:12+0200</time>
      </trkpt>
      <trkpt lat="45.10659" lon="6.424">
        <ele>1761.8</ele>
        <time>2022-07-16T10:53:13+0200</time>
      </trkpt>
      <trkpt lat="45.10654" lon="6.42401">
        <ele>1762</ele>
        <time>2022-07-16T10:53:15+0200</time>
      </trkpt>
      <trkpt lat="45.10648" lon="6.42402">
        <ele>1762.2</ele>
        <time>2022-07-16T10:53:17+0200</time>
      </trkpt>
      <trkpt lat="45.10641" lon="6.42404">
        <ele>1762.3</ele>
        <time>2022-07-16T10:53:19+0200</time>
      </trkpt>
      <trkpt lat="45.10635" lon="6.42406">
        <ele>1762.6</ele>
        <time>2022-07-16T10:53:21+0200</time>
      </trkpt>
      <trkpt lat="45.10629" lon="6.42408">
        <ele>1762.8</ele>
        <time>2022-07-16T10:53:23+0200</time>
      </trkpt>
      <trkpt lat="45.10621" lon="6.42409">
        <ele>1763</ele>
        <time>2022-07-16T10:53:25+0200</time>
      </trkpt>
      <trkpt lat="45.10615" lon="6.42411">
        <ele>1763.1</ele>
        <time>2022-07-16T10:53:27+0200</time>
      </trkpt>
      <trkpt lat="45.10607" lon="6.42413">
        <ele>1763.3</ele>
        <time>2022-07-16T10:53:30+0200</time>
      </trkpt>
      <trkpt lat="45.10601" lon="6.42413">
        <ele>1763.4</ele>
        <time>2022-07-16T10:53:32+0200</time>
      </trkpt>
      <trkpt lat="45.10596" lon="6.42412">
        <ele>1763.3</ele>
        <time>2022-07-16T10:53:34+0200</time>
      </trkpt>
      <trkpt lat="45.10591" lon="6.42413">
        <ele>1763.4</ele>
        <time>2022-07-16T10:53:36+0200</time>
      </trkpt>
      <trkpt lat="45.10586" lon="6.42414">
        <ele>1763.6</ele>
        <time>2022-07-16T10:53:38+0200</time>
      </trkpt>
      <trkpt lat="45.10581" lon="6.42415">
        <ele>1763.6</ele>
        <time>2022-07-16T10:53:40+0200</time>
      </trkpt>
      <trkpt lat="45.10574" lon="6.42417">
        <ele>1763.3</ele>
        <time>2022-07-16T10:53:42+0200</time>
      </trkpt>
      <trkpt lat="45.10566" lon="6.42419">
        <ele>1763.5</ele>
        <time>2022-07-16T10:53:44+0200</time>
      </trkpt>
      <trkpt lat="45.10556" lon="6.42421">
        <ele>1763.5</ele>
        <time>2022-07-16T10:53:46+0200</time>
      </trkpt>
      <trkpt lat="45.10548" lon="6.42422">
        <ele>1763.7</ele>
        <time>2022-07-16T10:53:47+0200</time>
      </trkpt>
      <trkpt lat="45.10542" lon="6.42422">
        <ele>1763.9</ele>
        <time>2022-07-16T10:53:49+0200</time>
      </trkpt>
      <trkpt lat="45.10536" lon="6.42421">
        <ele>1763.7</ele>
        <time>2022-07-16T10:53:52+0200</time>
      </trkpt>
      <trkpt lat="45.10531" lon="6.4242">
        <ele>1763.6</ele>
        <time>2022-07-16T10:53:54+0200</time>
      </trkpt>
      <trkpt lat="45.10525" lon="6.42419">
        <ele>1763.6</ele>
        <time>2022-07-16T10:53:56+0200</time>
      </trkpt>
      <trkpt lat="45.10517" lon="6.42418">
        <ele>1764</ele>
        <time>2022-07-16T10:53:58+0200</time>
      </trkpt>
      <trkpt lat="45.10509" lon="6.42417">
        <ele>1764.4</ele>
        <time>2022-07-16T10:54:00+0200</time>
      </trkpt>
      <trkpt lat="45.10502" lon="6.42417">
        <ele>1764.9</ele>
        <time>2022-07-16T10:54:02+0200</time>
      </trkpt>
      <trkpt lat="45.10497" lon="6.42417">
        <ele>1765.2</ele>
        <time>2022-07-16T10:54:04+0200</time>
      </trkpt>
      <trkpt lat="45.10491" lon="6.42415">
        <ele>1765.5</ele>
        <time>2022-07-16T10:54:07+0200</time>
      </trkpt>
      <trkpt lat="45.10484" lon="6.42413">
        <ele>1765.8</ele>
        <time>2022-07-16T10:54:10+0200</time>
      </trkpt>
      <trkpt lat="45.10479" lon="6.42413">
        <ele>1766.2</ele>
        <time>2022-07-16T10:54:12+0200</time>
      </trkpt>
      <trkpt lat="45.10474" lon="6.42412">
        <ele>1766.4</ele>
        <time>2022-07-16T10:54:14+0200</time>
      </trkpt>
      <trkpt lat="45.10469" lon="6.42412">
        <ele>1766.6</ele>
        <time>2022-07-16T10:54:16+0200</time>
      </trkpt>
      <trkpt lat="45.10464" lon="6.42416">
        <ele>1767.2</ele>
        <time>2022-07-16T10:54:19+0200</time>
      </trkpt>
      <trkpt lat="45.10464" lon="6.42423">
        <ele>1767.8</ele>
        <time>2022-07-16T10:54:22+0200</time>
      </trkpt>
      <trkpt lat="45.10461" lon="6.4243">
        <ele>1768.5</ele>
        <time>2022-07-16T10:54:25+0200</time>
      </trkpt>
      <trkpt lat="45.10457" lon="6.42434">
        <ele>1769.2</ele>
        <time>2022-07-16T10:54:29+0200</time>
      </trkpt>
      <trkpt lat="45.10452" lon="6.42436">
        <ele>1769.6</ele>
        <time>2022-07-16T10:54:32+0200</time>
      </trkpt>
      <trkpt lat="45.10448" lon="6.42439">
        <ele>1770.2</ele>
        <time>2022-07-16T10:54:35+0200</time>
      </trkpt>
      <trkpt lat="45.10444" lon="6.42442">
        <ele>1770.7</ele>
        <time>2022-07-16T10:54:39+0200</time>
      </trkpt>
      <trkpt lat="45.1044" lon="6.42445">
        <ele>1771</ele>
        <time>2022-07-16T10:54:42+0200</time>
      </trkpt>
      <trkpt lat="45.10438" lon="6.42451">
        <ele>1772</ele>
        <time>2022-07-16T10:54:46+0200</time>
      </trkpt>
      <trkpt lat="45.10443" lon="6.42449">
        <ele>1771.6</ele>
        <time>2022-07-16T10:55:04+0200</time>
      </trkpt>
      <trkpt lat="45.10436" lon="6.42449">
        <ele>1771.6</ele>
        <time>2022-07-16T10:55:17+0200</time>
      </trkpt>
      <trkpt lat="45.1043" lon="6.42447">
        <ele>1771.3</ele>
        <time>2022-07-16T10:55:19+0200</time>
      </trkpt>
      <trkpt lat="45.10422" lon="6.42445">
        <ele>1771</ele>
        <time>2022-07-16T10:55:21+0200</time>
      </trkpt>
      <trkpt lat="45.10416" lon="6.42445">
        <ele>1771</ele>
        <time>2022-07-16T10:55:24+0200</time>
      </trkpt>
      <trkpt lat="45.10411" lon="6.42444">
        <ele>1770.8</ele>
        <time>2022-07-16T10:55:28+0200</time>
      </trkpt>
      <trkpt lat="45.10407" lon="6.42441">
        <ele>1770.3</ele>
        <time>2022-07-16T10:55:30+0200</time>
      </trkpt>
      <trkpt lat="45.10403" lon="6.42445">
        <ele>1770.6</ele>
        <time>2022-07-16T10:55:33+0200</time>
      </trkpt>
      <trkpt lat="45.10398" lon="6.42447">
        <ele>1770.9</ele>
        <time>2022-07-16T10:55:37+0200</time>
      </trkpt>
      <trkpt lat="45.10394" lon="6.42452">
        <ele>1771.9</ele>
        <time>2022-07-16T10:55:44+0200</time>
      </trkpt>
      <trkpt lat="45.1039" lon="6.42453">
        <ele>1772.1</ele>
        <time>2022-07-16T10:55:48+0200</time>
      </trkpt>
      <trkpt lat="45.10386" lon="6.42457">
        <ele>1773.1</ele>
        <time>2022-07-16T10:55:52+0200</time>
      </trkpt>
      <trkpt lat="45.10381" lon="6.42457">
        <ele>1773.1</ele>
        <time>2022-07-16T10:55:56+0200</time>
      </trkpt>
      <trkpt lat="45.10376" lon="6.42457">
        <ele>1773.1</ele>
        <time>2022-07-16T10:55:58+0200</time>
      </trkpt>
      <trkpt lat="45.10371" lon="6.42457">
        <ele>1773</ele>
        <time>2022-07-16T10:56:01+0200</time>
      </trkpt>
      <trkpt lat="45.10365" lon="6.42458">
        <ele>1773</ele>
        <time>2022-07-16T10:56:03+0200</time>
      </trkpt>
      <trkpt lat="45.10361" lon="6.42459">
        <ele>1773.1</ele>
        <time>2022-07-16T10:56:06+0200</time>
      </trkpt>
      <trkpt lat="45.10355" lon="6.42461">
        <ele>1773.5</ele>
        <time>2022-07-16T10:56:10+0200</time>
      </trkpt>
      <trkpt lat="45.10349" lon="6.42463">
        <ele>1773.9</ele>
        <time>2022-07-16T10:56:13+0200</time>
      </trkpt>
      <trkpt lat="45.10344" lon="6.42465">
        <ele>1774.2</ele>
        <time>2022-07-16T10:56:16+0200</time>
      </trkpt>
      <trkpt lat="45.1034" lon="6.42465">
        <ele>1774.4</ele>
        <time>2022-07-16T10:56:19+0200</time>
      </trkpt>
      <trkpt lat="45.10334" lon="6.42465">
        <ele>1774.5</ele>
        <time>2022-07-16T10:56:23+0200</time>
      </trkpt>
      <trkpt lat="45.1033" lon="6.42467">
        <ele>1774.6</ele>
        <time>2022-07-16T10:56:25+0200</time>
      </trkpt>
      <trkpt lat="45.10325" lon="6.4247">
        <ele>1774.6</ele>
        <time>2022-07-16T10:56:27+0200</time>
      </trkpt>
      <trkpt lat="45.1032" lon="6.42475">
        <ele>1774.8</ele>
        <time>2022-07-16T10:56:31+0200</time>
      </trkpt>
      <trkpt lat="45.10316" lon="6.42479">
        <ele>1775.1</ele>
        <time>2022-07-16T10:56:34+0200</time>
      </trkpt>
      <trkpt lat="45.10311" lon="6.42481">
        <ele>1775.1</ele>
        <time>2022-07-16T10:56:39+0200</time>
      </trkpt>
      <trkpt lat="45.10306" lon="6.42479">
        <ele>1774.5</ele>
        <time>2022-07-16T10:56:45+0200</time>
      </trkpt>
      <trkpt lat="45.10302" lon="6.42474">
        <ele>1774.6</ele>
        <time>2022-07-16T10:56:55+0200</time>
      </trkpt>
      <trkpt lat="45.10298" lon="6.42471">
        <ele>1775.1</ele>
        <time>2022-07-16T10:57:00+0200</time>
      </trkpt>
      <trkpt lat="45.10294" lon="6.42478">
        <ele>1775.7</ele>
        <time>2022-07-16T10:57:08+0200</time>
      </trkpt>
      <trkpt lat="45.10291" lon="6.42485">
        <ele>1776.1</ele>
        <time>2022-07-16T10:57:11+0200</time>
      </trkpt>
      <trkpt lat="45.10287" lon="6.4249">
        <ele>1776.3</ele>
        <time>2022-07-16T10:57:14+0200</time>
      </trkpt>
      <trkpt lat="45.10282" lon="6.42492">
        <ele>1776.4</ele>
        <time>2022-07-16T10:57:17+0200</time>
      </trkpt>
      <trkpt lat="45.10278" lon="6.42496">
        <ele>1776.3</ele>
        <time>2022-07-16T10:57:21+0200</time>
      </trkpt>
      <trkpt lat="45.10272" lon="6.42497">
        <ele>1777.3</ele>
        <time>2022-07-16T10:57:24+0200</time>
      </trkpt>
      <trkpt lat="45.1027" lon="6.42503">
        <ele>1777.7</ele>
        <time>2022-07-16T10:57:27+0200</time>
      </trkpt>
      <trkpt lat="45.10266" lon="6.42508">
        <ele>1778.1</ele>
        <time>2022-07-16T10:57:30+0200</time>
      </trkpt>
      <trkpt lat="45.10263" lon="6.42513">
        <ele>1778.5</ele>
        <time>2022-07-16T10:57:33+0200</time>
      </trkpt>
      <trkpt lat="45.1026" lon="6.4252">
        <ele>1778.4</ele>
        <time>2022-07-16T10:57:36+0200</time>
      </trkpt>
      <trkpt lat="45.10257" lon="6.42526">
        <ele>1778.4</ele>
        <time>2022-07-16T10:57:40+0200</time>
      </trkpt>
      <trkpt lat="45.10252" lon="6.42531">
        <ele>1778.8</ele>
        <time>2022-07-16T10:57:43+0200</time>
      </trkpt>
      <trkpt lat="45.10247" lon="6.4253">
        <ele>1779.6</ele>
        <time>2022-07-16T10:57:49+0200</time>
      </trkpt>
      <trkpt lat="45.10241" lon="6.42528">
        <ele>1780.6</ele>
        <time>2022-07-16T10:57:52+0200</time>
      </trkpt>
      <trkpt lat="45.10236" lon="6.42529">
        <ele>1781.5</ele>
        <time>2022-07-16T10:57:55+0200</time>
      </trkpt>
      <trkpt lat="45.10231" lon="6.42529">
        <ele>1782.4</ele>
        <time>2022-07-16T10:57:58+0200</time>
      </trkpt>
      <trkpt lat="45.10226" lon="6.4253">
        <ele>1783.2</ele>
        <time>2022-07-16T10:58:01+0200</time>
      </trkpt>
      <trkpt lat="45.10221" lon="6.42534">
        <ele>1783.7</ele>
        <time>2022-07-16T10:58:04+0200</time>
      </trkpt>
      <trkpt lat="45.10217" lon="6.42537">
        <ele>1784.3</ele>
        <time>2022-07-16T10:58:08+0200</time>
      </trkpt>
      <trkpt lat="45.10214" lon="6.42542">
        <ele>1784.7</ele>
        <time>2022-07-16T10:58:12+0200</time>
      </trkpt>
      <trkpt lat="45.1021" lon="6.42548">
        <ele>1785.2</ele>
        <time>2022-07-16T10:58:18+0200</time>
      </trkpt>
      <trkpt lat="45.10206" lon="6.42552">
        <ele>1785.7</ele>
        <time>2022-07-16T10:58:21+0200</time>
      </trkpt>
      <trkpt lat="45.10202" lon="6.42557">
        <ele>1786.1</ele>
        <time>2022-07-16T10:58:25+0200</time>
      </trkpt>
      <trkpt lat="45.10197" lon="6.4256">
        <ele>1786.6</ele>
        <time>2022-07-16T10:58:29+0200</time>
      </trkpt>
      <trkpt lat="45.10193" lon="6.42563">
        <ele>1786.9</ele>
        <time>2022-07-16T10:58:41+0200</time>
      </trkpt>
      <trkpt lat="45.10188" lon="6.42566">
        <ele>1787.2</ele>
        <time>2022-07-16T10:58:46+0200</time>
      </trkpt>
      <trkpt lat="45.10184" lon="6.42566">
        <ele>1788.4</ele>
        <time>2022-07-16T10:58:49+0200</time>
      </trkpt>
      <trkpt lat="45.1018" lon="6.4257">
        <ele>1788.6</ele>
        <time>2022-07-16T10:59:00+0200</time>
      </trkpt>
      <trkpt lat="45.10175" lon="6.42573">
        <ele>1789.3</ele>
        <time>2022-07-16T10:59:05+0200</time>
      </trkpt>
      <trkpt lat="45.1017" lon="6.42575">
        <ele>1790.5</ele>
        <time>2022-07-16T10:59:10+0200</time>
      </trkpt>
      <trkpt lat="45.10165" lon="6.42575">
        <ele>1791.5</ele>
        <time>2022-07-16T10:59:16+0200</time>
      </trkpt>
      <trkpt lat="45.10159" lon="6.42576">
        <ele>1792.7</ele>
        <time>2022-07-16T10:59:20+0200</time>
      </trkpt>
      <trkpt lat="45.10154" lon="6.4258">
        <ele>1793.8</ele>
        <time>2022-07-16T10:59:24+0200</time>
      </trkpt>
      <trkpt lat="45.1015" lon="6.42583">
        <ele>1794.8</ele>
        <time>2022-07-16T10:59:28+0200</time>
      </trkpt>
      <trkpt lat="45.10146" lon="6.42586">
        <ele>1795.4</ele>
        <time>2022-07-16T10:59:34+0200</time>
      </trkpt>
      <trkpt lat="45.10142" lon="6.42588">
        <ele>1796.2</ele>
        <time>2022-07-16T10:59:39+0200</time>
      </trkpt>
      <trkpt lat="45.10137" lon="6.42591">
        <ele>1796.7</ele>
        <time>2022-07-16T10:59:43+0200</time>
      </trkpt>
      <trkpt lat="45.10131" lon="6.42592">
        <ele>1797.2</ele>
        <time>2022-07-16T10:59:49+0200</time>
      </trkpt>
      <trkpt lat="45.10127" lon="6.42597">
        <ele>1796.7</ele>
        <time>2022-07-16T10:59:54+0200</time>
      </trkpt>
      <trkpt lat="45.10122" lon="6.42597">
        <ele>1797.2</ele>
        <time>2022-07-16T11:00:00+0200</time>
      </trkpt>
      <trkpt lat="45.10116" lon="6.42597">
        <ele>1798.2</ele>
        <time>2022-07-16T11:00:06+0200</time>
      </trkpt>
      <trkpt lat="45.10112" lon="6.42592">
        <ele>1800.4</ele>
        <time>2022-07-16T11:00:10+0200</time>
      </trkpt>
      <trkpt lat="45.10108" lon="6.42588">
        <ele>1802.2</ele>
        <time>2022-07-16T11:00:15+0200</time>
      </trkpt>
      <trkpt lat="45.10103" lon="6.42585">
        <ele>1803.2</ele>
        <time>2022-07-16T11:00:19+0200</time>
      </trkpt>
      <trkpt lat="45.10098" lon="6.42581">
        <ele>1803.6</ele>
        <time>2022-07-16T11:00:23+0200</time>
      </trkpt>
      <trkpt lat="45.10093" lon="6.42578">
        <ele>1803.8</ele>
        <time>2022-07-16T11:00:27+0200</time>
      </trkpt>
      <trkpt lat="45.10087" lon="6.4258">
        <ele>1803.8</ele>
        <time>2022-07-16T11:00:32+0200</time>
      </trkpt>
      <trkpt lat="45.10081" lon="6.42577">
        <ele>1804.7</ele>
        <time>2022-07-16T11:00:37+0200</time>
      </trkpt>
      <trkpt lat="45.10076" lon="6.42574">
        <ele>1806.1</ele>
        <time>2022-07-16T11:00:45+0200</time>
      </trkpt>
      <trkpt lat="45.10072" lon="6.42572">
        <ele>1807.3</ele>
        <time>2022-07-16T11:00:52+0200</time>
      </trkpt>
      <trkpt lat="45.10067" lon="6.4257">
        <ele>1808.8</ele>
        <time>2022-07-16T11:01:03+0200</time>
      </trkpt>
      <trkpt lat="45.10062" lon="6.42568">
        <ele>1810.5</ele>
        <time>2022-07-16T11:01:11+0200</time>
      </trkpt>
      <trkpt lat="45.10058" lon="6.42566">
        <ele>1812.1</ele>
        <time>2022-07-16T11:01:18+0200</time>
      </trkpt>
      <trkpt lat="45.10053" lon="6.42565">
        <ele>1813.7</ele>
        <time>2022-07-16T11:01:26+0200</time>
      </trkpt>
      <trkpt lat="45.10048" lon="6.42563">
        <ele>1815.7</ele>
        <time>2022-07-16T11:01:31+0200</time>
      </trkpt>
      <trkpt lat="45.10043" lon="6.42563">
        <ele>1817.2</ele>
        <time>2022-07-16T11:01:40+0200</time>
      </trkpt>
      <trkpt lat="45.10039" lon="6.4256">
        <ele>1819.5</ele>
        <time>2022-07-16T11:01:45+0200</time>
      </trkpt>
      <trkpt lat="45.10034" lon="6.42561">
        <ele>1820.8</ele>
        <time>2022-07-16T11:01:53+0200</time>
      </trkpt>
      <trkpt lat="45.10028" lon="6.42564">
        <ele>1820.8</ele>
        <time>2022-07-16T11:02:03+0200</time>
      </trkpt>
      <trkpt lat="45.10024" lon="6.42564">
        <ele>1822.7</ele>
        <time>2022-07-16T11:02:10+0200</time>
      </trkpt>
      <trkpt lat="45.10019" lon="6.42564">
        <ele>1824.5</ele>
        <time>2022-07-16T11:02:15+0200</time>
      </trkpt>
      <trkpt lat="45.10014" lon="6.42565">
        <ele>1826</ele>
        <time>2022-07-16T11:02:24+0200</time>
      </trkpt>
      <trkpt lat="45.10009" lon="6.42566">
        <ele>1827.9</ele>
        <time>2022-07-16T11:02:31+0200</time>
      </trkpt>
      <trkpt lat="45.10004" lon="6.42568">
        <ele>1829.3</ele>
        <time>2022-07-16T11:02:39+0200</time>
      </trkpt>
      <trkpt lat="45.10001" lon="6.42572">
        <ele>1829.8</ele>
        <time>2022-07-16T11:02:53+0200</time>
      </trkpt>
      <trkpt lat="45.09996" lon="6.42574">
        <ele>1831.7</ele>
        <time>2022-07-16T11:03:01+0200</time>
      </trkpt>
      <trkpt lat="45.09991" lon="6.42575">
        <ele>1834.7</ele>
        <time>2022-07-16T11:03:11+0200</time>
      </trkpt>
      <trkpt lat="45.09987" lon="6.42579">
        <ele>1836.3</ele>
        <time>2022-07-16T11:03:21+0200</time>
      </trkpt>
      <trkpt lat="45.09982" lon="6.42582">
        <ele>1838.3</ele>
        <time>2022-07-16T11:03:31+0200</time>
      </trkpt>
      <trkpt lat="45.09977" lon="6.42584">
        <ele>1840.8</ele>
        <time>2022-07-16T11:03:38+0200</time>
      </trkpt>
      <trkpt lat="45.09976" lon="6.42591">
        <ele>1841.1</ele>
        <time>2022-07-16T11:03:45+0200</time>
      </trkpt>
      <trkpt lat="45.09973" lon="6.42596">
        <ele>1843.4</ele>
        <time>2022-07-16T11:03:52+0200</time>
      </trkpt>
      <trkpt lat="45.0997" lon="6.42603">
        <ele>1845</ele>
        <time>2022-07-16T11:03:59+0200</time>
      </trkpt>
      <trkpt lat="45.09966" lon="6.42609">
        <ele>1846.1</ele>
        <time>2022-07-16T11:04:06+0200</time>
      </trkpt>
      <trkpt lat="45.09966" lon="6.42616">
        <ele>1844.1</ele>
        <time>2022-07-16T11:04:14+0200</time>
      </trkpt>
      <trkpt lat="45.09961" lon="6.42619">
        <ele>1844.6</ele>
        <time>2022-07-16T11:04:21+0200</time>
      </trkpt>
      <trkpt lat="45.09956" lon="6.42619">
        <ele>1846.2</ele>
        <time>2022-07-16T11:04:26+0200</time>
      </trkpt>
      <trkpt lat="45.09951" lon="6.42618">
        <ele>1848.1</ele>
        <time>2022-07-16T11:04:32+0200</time>
      </trkpt>
      <trkpt lat="45.09947" lon="6.42619">
        <ele>1849.3</ele>
        <time>2022-07-16T11:04:39+0200</time>
      </trkpt>
      <trkpt lat="45.09942" lon="6.42621">
        <ele>1850.4</ele>
        <time>2022-07-16T11:04:44+0200</time>
      </trkpt>
      <trkpt lat="45.09938" lon="6.42623">
        <ele>1851.5</ele>
        <time>2022-07-16T11:04:50+0200</time>
      </trkpt>
      <trkpt lat="45.09933" lon="6.42625">
        <ele>1853.1</ele>
        <time>2022-07-16T11:04:57+0200</time>
      </trkpt>
      <trkpt lat="45.09928" lon="6.42625">
        <ele>1855.2</ele>
        <time>2022-07-16T11:05:04+0200</time>
      </trkpt>
      <trkpt lat="45.09924" lon="6.42627">
        <ele>1856.4</ele>
        <time>2022-07-16T11:05:12+0200</time>
      </trkpt>
      <trkpt lat="45.09918" lon="6.42628">
        <ele>1858.8</ele>
        <time>2022-07-16T11:05:19+0200</time>
      </trkpt>
      <trkpt lat="45.09913" lon="6.42628">
        <ele>1860.4</ele>
        <time>2022-07-16T11:05:26+0200</time>
      </trkpt>
      <trkpt lat="45.09907" lon="6.4263">
        <ele>1862</ele>
        <time>2022-07-16T11:05:33+0200</time>
      </trkpt>
      <trkpt lat="45.09903" lon="6.42633">
        <ele>1862.8</ele>
        <time>2022-07-16T11:05:40+0200</time>
      </trkpt>
      <trkpt lat="45.09897" lon="6.42634">
        <ele>1864.4</ele>
        <time>2022-07-16T11:05:46+0200</time>
      </trkpt>
      <trkpt lat="45.09892" lon="6.42637">
        <ele>1865.4</ele>
        <time>2022-07-16T11:05:51+0200</time>
      </trkpt>
      <trkpt lat="45.09888" lon="6.42639">
        <ele>1866</ele>
        <time>2022-07-16T11:05:58+0200</time>
      </trkpt>
      <trkpt lat="45.09882" lon="6.42642">
        <ele>1866.2</ele>
        <time>2022-07-16T11:06:07+0200</time>
      </trkpt>
      <trkpt lat="45.09878" lon="6.42645">
        <ele>1865.4</ele>
        <time>2022-07-16T11:06:14+0200</time>
      </trkpt>
      <trkpt lat="45.09873" lon="6.42646">
        <ele>1866.2</ele>
        <time>2022-07-16T11:06:23+0200</time>
      </trkpt>
      <trkpt lat="45.09868" lon="6.42645">
        <ele>1867.4</ele>
        <time>2022-07-16T11:06:31+0200</time>
      </trkpt>
      <trkpt lat="45.09863" lon="6.42645">
        <ele>1868.9</ele>
        <time>2022-07-16T11:06:36+0200</time>
      </trkpt>
      <trkpt lat="45.09858" lon="6.42647">
        <ele>1869.1</ele>
        <time>2022-07-16T11:06:42+0200</time>
      </trkpt>
      <trkpt lat="45.09853" lon="6.42649">
        <ele>1870</ele>
        <time>2022-07-16T11:06:51+0200</time>
      </trkpt>
      <trkpt lat="45.09849" lon="6.4265">
        <ele>1871.3</ele>
        <time>2022-07-16T11:06:55+0200</time>
      </trkpt>
      <trkpt lat="45.09845" lon="6.42654">
        <ele>1871.5</ele>
        <time>2022-07-16T11:06:59+0200</time>
      </trkpt>
      <trkpt lat="45.0984" lon="6.42657">
        <ele>1872.2</ele>
        <time>2022-07-16T11:07:02+0200</time>
      </trkpt>
      <trkpt lat="45.09835" lon="6.4266">
        <ele>1873.9</ele>
        <time>2022-07-16T11:07:05+0200</time>
      </trkpt>
      <trkpt lat="45.0983" lon="6.42662">
        <ele>1875.1</ele>
        <time>2022-07-16T11:07:08+0200</time>
      </trkpt>
      <trkpt lat="45.09827" lon="6.42667">
        <ele>1875</ele>
        <time>2022-07-16T11:07:13+0200</time>
      </trkpt>
      <trkpt lat="45.09824" lon="6.42672">
        <ele>1874.8</ele>
        <time>2022-07-16T11:07:16+0200</time>
      </trkpt>
      <trkpt lat="45.09819" lon="6.42675">
        <ele>1876.4</ele>
        <time>2022-07-16T11:07:20+0200</time>
      </trkpt>
      <trkpt lat="45.09814" lon="6.42677">
        <ele>1879.1</ele>
        <time>2022-07-16T11:07:25+0200</time>
      </trkpt>
      <trkpt lat="45.09809" lon="6.42678">
        <ele>1881.8</ele>
        <time>2022-07-16T11:07:29+0200</time>
      </trkpt>
      <trkpt lat="45.09804" lon="6.42682">
        <ele>1883.4</ele>
        <time>2022-07-16T11:07:33+0200</time>
      </trkpt>
      <trkpt lat="45.09801" lon="6.42687">
        <ele>1882.9</ele>
        <time>2022-07-16T11:08:26+0200</time>
      </trkpt>
      <trkpt lat="45.09796" lon="6.42686">
        <ele>1884.4</ele>
        <time>2022-07-16T11:08:32+0200</time>
      </trkpt>
      <trkpt lat="45.0979" lon="6.42686">
        <ele>1885.5</ele>
        <time>2022-07-16T11:08:37+0200</time>
      </trkpt>
      <trkpt lat="45.09785" lon="6.42686">
        <ele>1886.7</ele>
        <time>2022-07-16T11:08:41+0200</time>
      </trkpt>
      <trkpt lat="45.0978" lon="6.42689">
        <ele>1886.9</ele>
        <time>2022-07-16T11:08:45+0200</time>
      </trkpt>
      <trkpt lat="45.09774" lon="6.42689">
        <ele>1888.2</ele>
        <time>2022-07-16T11:08:50+0200</time>
      </trkpt>
      <trkpt lat="45.09769" lon="6.4269">
        <ele>1888.9</ele>
        <time>2022-07-16T11:08:53+0200</time>
      </trkpt>
      <trkpt lat="45.09765" lon="6.42692">
        <ele>1889</ele>
        <time>2022-07-16T11:08:56+0200</time>
      </trkpt>
      <trkpt lat="45.09759" lon="6.42694">
        <ele>1889.4</ele>
        <time>2022-07-16T11:09:00+0200</time>
      </trkpt>
      <trkpt lat="45.09754" lon="6.42696">
        <ele>1890</ele>
        <time>2022-07-16T11:09:03+0200</time>
      </trkpt>
      <trkpt lat="45.09749" lon="6.42695">
        <ele>1891.2</ele>
        <time>2022-07-16T11:09:07+0200</time>
      </trkpt>
      <trkpt lat="45.09745" lon="6.42696">
        <ele>1892.2</ele>
        <time>2022-07-16T11:09:11+0200</time>
      </trkpt>
      <trkpt lat="45.0974" lon="6.42698">
        <ele>1893</ele>
        <time>2022-07-16T11:09:15+0200</time>
      </trkpt>
      <trkpt lat="45.09735" lon="6.42699">
        <ele>1894</ele>
        <time>2022-07-16T11:09:19+0200</time>
      </trkpt>
      <trkpt lat="45.09731" lon="6.42701">
        <ele>1894.8</ele>
        <time>2022-07-16T11:09:23+0200</time>
      </trkpt>
      <trkpt lat="45.09725" lon="6.42704">
        <ele>1895.6</ele>
        <time>2022-07-16T11:09:27+0200</time>
      </trkpt>
      <trkpt lat="45.0972" lon="6.42709">
        <ele>1896.2</ele>
        <time>2022-07-16T11:09:31+0200</time>
      </trkpt>
      <trkpt lat="45.09714" lon="6.42711">
        <ele>1897.5</ele>
        <time>2022-07-16T11:09:35+0200</time>
      </trkpt>
      <trkpt lat="45.0971" lon="6.42715">
        <ele>1897.9</ele>
        <time>2022-07-16T11:09:39+0200</time>
      </trkpt>
      <trkpt lat="45.09705" lon="6.42716">
        <ele>1899.3</ele>
        <time>2022-07-16T11:09:43+0200</time>
      </trkpt>
      <trkpt lat="45.09699" lon="6.4272">
        <ele>1900.3</ele>
        <time>2022-07-16T11:09:47+0200</time>
      </trkpt>
      <trkpt lat="45.09693" lon="6.42722">
        <ele>1901.5</ele>
        <time>2022-07-16T11:09:52+0200</time>
      </trkpt>
      <trkpt lat="45.09689" lon="6.42726">
        <ele>1902</ele>
        <time>2022-07-16T11:09:56+0200</time>
      </trkpt>
      <trkpt lat="45.09684" lon="6.42729">
        <ele>1903.3</ele>
        <time>2022-07-16T11:10:00+0200</time>
      </trkpt>
      <trkpt lat="45.0968" lon="6.42733">
        <ele>1904.1</ele>
        <time>2022-07-16T11:10:04+0200</time>
      </trkpt>
      <trkpt lat="45.09676" lon="6.42739">
        <ele>1904.8</ele>
        <time>2022-07-16T11:10:08+0200</time>
      </trkpt>
      <trkpt lat="45.09673" lon="6.42744">
        <ele>1905.8</ele>
        <time>2022-07-16T11:10:11+0200</time>
      </trkpt>
      <trkpt lat="45.09668" lon="6.42749">
        <ele>1907.3</ele>
        <time>2022-07-16T11:10:16+0200</time>
      </trkpt>
      <trkpt lat="45.09666" lon="6.42757">
        <ele>1907.3</ele>
        <time>2022-07-16T11:10:20+0200</time>
      </trkpt>
      <trkpt lat="45.09663" lon="6.42764">
        <ele>1908.9</ele>
        <time>2022-07-16T11:10:24+0200</time>
      </trkpt>
      <trkpt lat="45.0966" lon="6.42769">
        <ele>1910.8</ele>
        <time>2022-07-16T11:10:27+0200</time>
      </trkpt>
      <trkpt lat="45.09657" lon="6.42776">
        <ele>1912</ele>
        <time>2022-07-16T11:10:31+0200</time>
      </trkpt>
      <trkpt lat="45.09655" lon="6.42783">
        <ele>1913.5</ele>
        <time>2022-07-16T11:10:34+0200</time>
      </trkpt>
      <trkpt lat="45.09651" lon="6.42788">
        <ele>1916.1</ele>
        <time>2022-07-16T11:10:38+0200</time>
      </trkpt>
      <trkpt lat="45.09649" lon="6.42793">
        <ele>1916.8</ele>
        <time>2022-07-16T11:10:42+0200</time>
      </trkpt>
      <trkpt lat="45.0965" lon="6.428">
        <ele>1915.6</ele>
        <time>2022-07-16T11:10:56+0200</time>
      </trkpt>
      <trkpt lat="45.09646" lon="6.42805">
        <ele>1917.2</ele>
        <time>2022-07-16T11:11:05+0200</time>
      </trkpt>
      <trkpt lat="45.09645" lon="6.42812">
        <ele>1918.4</ele>
        <time>2022-07-16T11:11:15+0200</time>
      </trkpt>
      <trkpt lat="45.09646" lon="6.42818">
        <ele>1917.9</ele>
        <time>2022-07-16T11:11:23+0200</time>
      </trkpt>
      <trkpt lat="45.09642" lon="6.42823">
        <ele>1919.7</ele>
        <time>2022-07-16T11:11:34+0200</time>
      </trkpt>
      <trkpt lat="45.0964" lon="6.4283">
        <ele>1920.1</ele>
        <time>2022-07-16T11:11:44+0200</time>
      </trkpt>
      <trkpt lat="45.09641" lon="6.42837">
        <ele>1919</ele>
        <time>2022-07-16T11:11:52+0200</time>
      </trkpt>
      <trkpt lat="45.09636" lon="6.42841">
        <ele>1920</ele>
        <time>2022-07-16T11:11:58+0200</time>
      </trkpt>
      <trkpt lat="45.09632" lon="6.42846">
        <ele>1920.3</ele>
        <time>2022-07-16T11:12:03+0200</time>
      </trkpt>
      <trkpt lat="45.0963" lon="6.42852">
        <ele>1920.2</ele>
        <time>2022-07-16T11:12:07+0200</time>
      </trkpt>
      <trkpt lat="45.09625" lon="6.42855">
        <ele>1921.3</ele>
        <time>2022-07-16T11:12:13+0200</time>
      </trkpt>
      <trkpt lat="45.0962" lon="6.42857">
        <ele>1922.3</ele>
        <time>2022-07-16T11:12:35+0200</time>
      </trkpt>
      <trkpt lat="45.09614" lon="6.42855">
        <ele>1924.5</ele>
        <time>2022-07-16T11:12:41+0200</time>
      </trkpt>
      <trkpt lat="45.09609" lon="6.42857">
        <ele>1925.4</ele>
        <time>2022-07-16T11:12:48+0200</time>
      </trkpt>
      <trkpt lat="45.09611" lon="6.4285">
        <ele>1926.4</ele>
        <time>2022-07-16T11:13:01+0200</time>
      </trkpt>
      <trkpt lat="45.09617" lon="6.42851">
        <ele>1924.5</ele>
        <time>2022-07-16T11:13:11+0200</time>
      </trkpt>
      <trkpt lat="45.09622" lon="6.42854">
        <ele>1922.2</ele>
        <time>2022-07-16T11:13:14+0200</time>
      </trkpt>
      <trkpt lat="45.09625" lon="6.4286">
        <ele>1920.2</ele>
        <time>2022-07-16T11:13:38+0200</time>
      </trkpt>
      <trkpt lat="45.09624" lon="6.42854">
        <ele>1921.5</ele>
        <time>2022-07-16T11:14:32+0200</time>
      </trkpt>
      <trkpt lat="45.09621" lon="6.42859">
        <ele>1921.5</ele>
        <time>2022-07-16T11:15:43+0200</time>
      </trkpt>
      <trkpt lat="45.09616" lon="6.42857">
        <ele>1923.4</ele>
        <time>2022-07-16T11:17:01+0200</time>
      </trkpt>
      <trkpt lat="45.09621" lon="6.42855">
        <ele>1922.5</ele>
        <time>2022-07-16T11:17:35+0200</time>
      </trkpt>
      <trkpt lat="45.09616" lon="6.42857">
        <ele>1923.4</ele>
        <time>2022-07-16T11:18:09+0200</time>
      </trkpt>
      <trkpt lat="45.0962" lon="6.42853">
        <ele>1923</ele>
        <time>2022-07-16T11:18:21+0200</time>
      </trkpt>
      <trkpt lat="45.09625" lon="6.42851">
        <ele>1921.9</ele>
        <time>2022-07-16T11:18:29+0200</time>
      </trkpt>
      <trkpt lat="45.0962" lon="6.4285">
        <ele>1923.5</ele>
        <time>2022-07-16T11:18:48+0200</time>
      </trkpt>
      <trkpt lat="45.0962" lon="6.42857">
        <ele>1922.3</ele>
        <time>2022-07-16T11:19:54+0200</time>
      </trkpt>
      <trkpt lat="45.09624" lon="6.42858">
        <ele>1920.7</ele>
        <time>2022-07-16T11:20:06+0200</time>
      </trkpt>
      <trkpt lat="45.09621" lon="6.42854">
        <ele>1922.5</ele>
        <time>2022-07-16T11:21:10+0200</time>
      </trkpt>
      <trkpt lat="45.09616" lon="6.42855">
        <ele>1923.8</ele>
        <time>2022-07-16T11:21:24+0200</time>
      </trkpt>
      <trkpt lat="45.09621" lon="6.42856">
        <ele>1922.4</ele>
        <time>2022-07-16T11:21:42+0200</time>
      </trkpt>
      <trkpt lat="45.09617" lon="6.42861">
        <ele>1922.3</ele>
        <time>2022-07-16T11:22:26+0200</time>
      </trkpt>
      <trkpt lat="45.09612" lon="6.42862">
        <ele>1923.5</ele>
        <time>2022-07-16T11:22:29+0200</time>
      </trkpt>
      <trkpt lat="45.09605" lon="6.42863">
        <ele>1924.1</ele>
        <time>2022-07-16T11:22:32+0200</time>
      </trkpt>
      <trkpt lat="45.096" lon="6.42863">
        <ele>1925.1</ele>
        <time>2022-07-16T11:22:34+0200</time>
      </trkpt>
      <trkpt lat="45.09595" lon="6.42866">
        <ele>1924.3</ele>
        <time>2022-07-16T11:22:40+0200</time>
      </trkpt>
      <trkpt lat="45.0959" lon="6.4287">
        <ele>1923.9</ele>
        <time>2022-07-16T11:22:44+0200</time>
      </trkpt>
      <trkpt lat="45.09584" lon="6.42871">
        <ele>1924.5</ele>
        <time>2022-07-16T11:22:47+0200</time>
      </trkpt>
      <trkpt lat="45.09579" lon="6.42873">
        <ele>1924.6</ele>
        <time>2022-07-16T11:22:49+0200</time>
      </trkpt>
      <trkpt lat="45.09574" lon="6.42874">
        <ele>1925.1</ele>
        <time>2022-07-16T11:22:52+0200</time>
      </trkpt>
      <trkpt lat="45.09569" lon="6.42876">
        <ele>1925.2</ele>
        <time>2022-07-16T11:22:55+0200</time>
      </trkpt>
      <trkpt lat="45.09563" lon="6.42878">
        <ele>1925.6</ele>
        <time>2022-07-16T11:22:58+0200</time>
      </trkpt>
      <trkpt lat="45.09558" lon="6.4288">
        <ele>1925.8</ele>
        <time>2022-07-16T11:23:01+0200</time>
      </trkpt>
      <trkpt lat="45.09553" lon="6.42878">
        <ele>1927.6</ele>
        <time>2022-07-16T11:23:04+0200</time>
      </trkpt>
      <trkpt lat="45.09548" lon="6.42879">
        <ele>1929</ele>
        <time>2022-07-16T11:23:08+0200</time>
      </trkpt>
      <trkpt lat="45.09543" lon="6.42882">
        <ele>1929.5</ele>
        <time>2022-07-16T11:23:12+0200</time>
      </trkpt>
      <trkpt lat="45.09538" lon="6.42883">
        <ele>1930.8</ele>
        <time>2022-07-16T11:23:16+0200</time>
      </trkpt>
      <trkpt lat="45.09533" lon="6.42885">
        <ele>1931.5</ele>
        <time>2022-07-16T11:23:20+0200</time>
      </trkpt>
      <trkpt lat="45.09528" lon="6.42888">
        <ele>1932.5</ele>
        <time>2022-07-16T11:23:24+0200</time>
      </trkpt>
      <trkpt lat="45.09522" lon="6.4289">
        <ele>1932.7</ele>
        <time>2022-07-16T11:23:29+0200</time>
      </trkpt>
      <trkpt lat="45.09517" lon="6.4289">
        <ele>1934</ele>
        <time>2022-07-16T11:23:33+0200</time>
      </trkpt>
      <trkpt lat="45.09512" lon="6.42891">
        <ele>1934.5</ele>
        <time>2022-07-16T11:23:37+0200</time>
      </trkpt>
      <trkpt lat="45.09506" lon="6.42893">
        <ele>1934.6</ele>
        <time>2022-07-16T11:23:41+0200</time>
      </trkpt>
      <trkpt lat="45.09501" lon="6.42894">
        <ele>1935.4</ele>
        <time>2022-07-16T11:23:45+0200</time>
      </trkpt>
      <trkpt lat="45.09496" lon="6.42894">
        <ele>1936.1</ele>
        <time>2022-07-16T11:23:48+0200</time>
      </trkpt>
      <trkpt lat="45.09491" lon="6.42894">
        <ele>1936.5</ele>
        <time>2022-07-16T11:23:52+0200</time>
      </trkpt>
      <trkpt lat="45.09485" lon="6.42894">
        <ele>1937.5</ele>
        <time>2022-07-16T11:23:56+0200</time>
      </trkpt>
      <trkpt lat="45.0948" lon="6.42894">
        <ele>1938.2</ele>
        <time>2022-07-16T11:23:59+0200</time>
      </trkpt>
      <trkpt lat="45.09474" lon="6.42896">
        <ele>1938</ele>
        <time>2022-07-16T11:24:03+0200</time>
      </trkpt>
      <trkpt lat="45.0947" lon="6.429">
        <ele>1937</ele>
        <time>2022-07-16T11:24:05+0200</time>
      </trkpt>
      <trkpt lat="45.09464" lon="6.429">
        <ele>1938.5</ele>
        <time>2022-07-16T11:24:10+0200</time>
      </trkpt>
      <trkpt lat="45.09459" lon="6.42902">
        <ele>1939.2</ele>
        <time>2022-07-16T11:24:14+0200</time>
      </trkpt>
      <trkpt lat="45.09454" lon="6.42903">
        <ele>1940.6</ele>
        <time>2022-07-16T11:24:17+0200</time>
      </trkpt>
      <trkpt lat="45.09449" lon="6.42903">
        <ele>1942.1</ele>
        <time>2022-07-16T11:24:21+0200</time>
      </trkpt>
      <trkpt lat="45.09444" lon="6.42903">
        <ele>1943.6</ele>
        <time>2022-07-16T11:24:25+0200</time>
      </trkpt>
      <trkpt lat="45.09439" lon="6.42904">
        <ele>1945</ele>
        <time>2022-07-16T11:24:31+0200</time>
      </trkpt>
      <trkpt lat="45.09434" lon="6.42905">
        <ele>1946.5</ele>
        <time>2022-07-16T11:24:35+0200</time>
      </trkpt>
      <trkpt lat="45.09429" lon="6.42905">
        <ele>1948.3</ele>
        <time>2022-07-16T11:24:39+0200</time>
      </trkpt>
      <trkpt lat="45.09424" lon="6.42906">
        <ele>1949.8</ele>
        <time>2022-07-16T11:24:43+0200</time>
      </trkpt>
      <trkpt lat="45.09419" lon="6.42907">
        <ele>1951.1</ele>
        <time>2022-07-16T11:24:46+0200</time>
      </trkpt>
      <trkpt lat="45.09414" lon="6.42909">
        <ele>1952.5</ele>
        <time>2022-07-16T11:24:51+0200</time>
      </trkpt>
      <trkpt lat="45.09409" lon="6.42912">
        <ele>1953.3</ele>
        <time>2022-07-16T11:24:54+0200</time>
      </trkpt>
      <trkpt lat="45.09404" lon="6.42914">
        <ele>1954.3</ele>
        <time>2022-07-16T11:24:59+0200</time>
      </trkpt>
      <trkpt lat="45.09399" lon="6.42918">
        <ele>1955.3</ele>
        <time>2022-07-16T11:25:03+0200</time>
      </trkpt>
      <trkpt lat="45.09395" lon="6.42921">
        <ele>1956</ele>
        <time>2022-07-16T11:25:06+0200</time>
      </trkpt>
      <trkpt lat="45.0939" lon="6.42926">
        <ele>1956</ele>
        <time>2022-07-16T11:25:09+0200</time>
      </trkpt>
      <trkpt lat="45.09385" lon="6.42929">
        <ele>1957.1</ele>
        <time>2022-07-16T11:25:12+0200</time>
      </trkpt>
      <trkpt lat="45.09379" lon="6.42935">
        <ele>1956.7</ele>
        <time>2022-07-16T11:25:16+0200</time>
      </trkpt>
      <trkpt lat="45.09375" lon="6.42938">
        <ele>1957.3</ele>
        <time>2022-07-16T11:25:18+0200</time>
      </trkpt>
      <trkpt lat="45.0937" lon="6.42943">
        <ele>1957.5</ele>
        <time>2022-07-16T11:25:21+0200</time>
      </trkpt>
      <trkpt lat="45.09366" lon="6.4295">
        <ele>1956.4</ele>
        <time>2022-07-16T11:25:24+0200</time>
      </trkpt>
      <trkpt lat="45.09363" lon="6.42956">
        <ele>1955.3</ele>
        <time>2022-07-16T11:25:27+0200</time>
      </trkpt>
      <trkpt lat="45.09358" lon="6.42963">
        <ele>1954.6</ele>
        <time>2022-07-16T11:25:29+0200</time>
      </trkpt>
      <trkpt lat="45.09354" lon="6.42968">
        <ele>1954.2</ele>
        <time>2022-07-16T11:25:30+0200</time>
      </trkpt>
      <trkpt lat="45.0935" lon="6.42974">
        <ele>1953.5</ele>
        <time>2022-07-16T11:25:31+0200</time>
      </trkpt>
      <trkpt lat="45.09346" lon="6.42979">
        <ele>1953.3</ele>
        <time>2022-07-16T11:25:32+0200</time>
      </trkpt>
      <trkpt lat="45.09342" lon="6.42986">
        <ele>1952.2</ele>
        <time>2022-07-16T11:25:33+0200</time>
      </trkpt>
      <trkpt lat="45.09338" lon="6.42994">
        <ele>1951.1</ele>
        <time>2022-07-16T11:25:34+0200</time>
      </trkpt>
      <trkpt lat="45.09333" lon="6.43003">
        <ele>1950.3</ele>
        <time>2022-07-16T11:25:35+0200</time>
      </trkpt>
      <trkpt lat="45.09328" lon="6.43013">
        <ele>1949.8</ele>
        <time>2022-07-16T11:25:36+0200</time>
      </trkpt>
      <trkpt lat="45.09323" lon="6.43023">
        <ele>1949.4</ele>
        <time>2022-07-16T11:25:37+0200</time>
      </trkpt>
      <trkpt lat="45.09319" lon="6.43032">
        <ele>1949.1</ele>
        <time>2022-07-16T11:25:38+0200</time>
      </trkpt>
      <trkpt lat="45.09314" lon="6.4304">
        <ele>1949.6</ele>
        <time>2022-07-16T11:25:39+0200</time>
      </trkpt>
      <trkpt lat="45.09312" lon="6.43046">
        <ele>1949.4</ele>
        <time>2022-07-16T11:25:40+0200</time>
      </trkpt>
      <trkpt lat="45.0931" lon="6.43053">
        <ele>1949.4</ele>
        <time>2022-07-16T11:25:41+0200</time>
      </trkpt>
      <trkpt lat="45.09308" lon="6.43059">
        <ele>1949</ele>
        <time>2022-07-16T11:25:42+0200</time>
      </trkpt>
      <trkpt lat="45.09307" lon="6.43066">
        <ele>1948.3</ele>
        <time>2022-07-16T11:25:43+0200</time>
      </trkpt>
      <trkpt lat="45.09304" lon="6.43072">
        <ele>1948.5</ele>
        <time>2022-07-16T11:25:44+0200</time>
      </trkpt>
      <trkpt lat="45.09301" lon="6.43078">
        <ele>1949</ele>
        <time>2022-07-16T11:25:45+0200</time>
      </trkpt>
      <trkpt lat="45.09298" lon="6.43089">
        <ele>1948.1</ele>
        <time>2022-07-16T11:25:47+0200</time>
      </trkpt>
      <trkpt lat="45.09294" lon="6.43093">
        <ele>1948.9</ele>
        <time>2022-07-16T11:25:48+0200</time>
      </trkpt>
      <trkpt lat="45.0929" lon="6.43099">
        <ele>1949.3</ele>
        <time>2022-07-16T11:25:49+0200</time>
      </trkpt>
      <trkpt lat="45.09287" lon="6.43105">
        <ele>1949</ele>
        <time>2022-07-16T11:25:50+0200</time>
      </trkpt>
      <trkpt lat="45.09284" lon="6.43111">
        <ele>1948.3</ele>
        <time>2022-07-16T11:25:51+0200</time>
      </trkpt>
      <trkpt lat="45.09281" lon="6.43118">
        <ele>1948</ele>
        <time>2022-07-16T11:25:53+0200</time>
      </trkpt>
      <trkpt lat="45.09279" lon="6.43124">
        <ele>1947.4</ele>
        <time>2022-07-16T11:25:59+0200</time>
      </trkpt>
      <trkpt lat="45.09275" lon="6.4313">
        <ele>1947.4</ele>
        <time>2022-07-16T11:26:06+0200</time>
      </trkpt>
      <trkpt lat="45.09272" lon="6.43135">
        <ele>1947.2</ele>
        <time>2022-07-16T11:26:09+0200</time>
      </trkpt>
      <trkpt lat="45.09267" lon="6.43138">
        <ele>1948.2</ele>
        <time>2022-07-16T11:26:11+0200</time>
      </trkpt>
      <trkpt lat="45.09263" lon="6.43143">
        <ele>1947.4</ele>
        <time>2022-07-16T11:26:16+0200</time>
      </trkpt>
      <trkpt lat="45.09257" lon="6.43146">
        <ele>1947.6</ele>
        <time>2022-07-16T11:26:19+0200</time>
      </trkpt>
      <trkpt lat="45.09252" lon="6.4315">
        <ele>1948.1</ele>
        <time>2022-07-16T11:26:22+0200</time>
      </trkpt>
      <trkpt lat="45.09247" lon="6.43157">
        <ele>1947</ele>
        <time>2022-07-16T11:26:24+0200</time>
      </trkpt>
      <trkpt lat="45.09242" lon="6.4316">
        <ele>1947.1</ele>
        <time>2022-07-16T11:26:26+0200</time>
      </trkpt>
      <trkpt lat="45.09237" lon="6.43163">
        <ele>1947.2</ele>
        <time>2022-07-16T11:26:28+0200</time>
      </trkpt>
      <trkpt lat="45.09232" lon="6.43165">
        <ele>1947.4</ele>
        <time>2022-07-16T11:26:30+0200</time>
      </trkpt>
      <trkpt lat="45.09226" lon="6.43169">
        <ele>1947</ele>
        <time>2022-07-16T11:26:33+0200</time>
      </trkpt>
      <trkpt lat="45.09223" lon="6.43174">
        <ele>1944.7</ele>
        <time>2022-07-16T11:26:35+0200</time>
      </trkpt>
      <trkpt lat="45.09218" lon="6.43179">
        <ele>1943.7</ele>
        <time>2022-07-16T11:26:37+0200</time>
      </trkpt>
      <trkpt lat="45.09212" lon="6.43183">
        <ele>1944.3</ele>
        <time>2022-07-16T11:26:39+0200</time>
      </trkpt>
      <trkpt lat="45.09206" lon="6.43185">
        <ele>1945.5</ele>
        <time>2022-07-16T11:26:41+0200</time>
      </trkpt>
      <trkpt lat="45.09201" lon="6.4319">
        <ele>1945.2</ele>
        <time>2022-07-16T11:26:44+0200</time>
      </trkpt>
      <trkpt lat="45.09196" lon="6.43194">
        <ele>1945.7</ele>
        <time>2022-07-16T11:26:46+0200</time>
      </trkpt>
      <trkpt lat="45.09189" lon="6.43197">
        <ele>1946.7</ele>
        <time>2022-07-16T11:26:49+0200</time>
      </trkpt>
      <trkpt lat="45.09185" lon="6.43199">
        <ele>1946.8</ele>
        <time>2022-07-16T11:26:51+0200</time>
      </trkpt>
      <trkpt lat="45.0918" lon="6.43202">
        <ele>1946.8</ele>
        <time>2022-07-16T11:26:53+0200</time>
      </trkpt>
      <trkpt lat="45.09174" lon="6.43209">
        <ele>1945.4</ele>
        <time>2022-07-16T11:26:55+0200</time>
      </trkpt>
      <trkpt lat="45.0917" lon="6.43212">
        <ele>1945</ele>
        <time>2022-07-16T11:26:56+0200</time>
      </trkpt>
      <trkpt lat="45.09166" lon="6.43217">
        <ele>1944.3</ele>
        <time>2022-07-16T11:26:57+0200</time>
      </trkpt>
      <trkpt lat="45.09161" lon="6.43221">
        <ele>1943.7</ele>
        <time>2022-07-16T11:26:58+0200</time>
      </trkpt>
      <trkpt lat="45.09156" lon="6.43227">
        <ele>1942.8</ele>
        <time>2022-07-16T11:26:59+0200</time>
      </trkpt>
      <trkpt lat="45.0915" lon="6.43234">
        <ele>1941.8</ele>
        <time>2022-07-16T11:27:00+0200</time>
      </trkpt>
      <trkpt lat="45.09144" lon="6.43239">
        <ele>1941.6</ele>
        <time>2022-07-16T11:27:01+0200</time>
      </trkpt>
      <trkpt lat="45.0914" lon="6.43245">
        <ele>1940.3</ele>
        <time>2022-07-16T11:27:02+0200</time>
      </trkpt>
      <trkpt lat="45.09136" lon="6.43251">
        <ele>1939.4</ele>
        <time>2022-07-16T11:27:03+0200</time>
      </trkpt>
      <trkpt lat="45.0913" lon="6.43257">
        <ele>1940.6</ele>
        <time>2022-07-16T11:27:05+0200</time>
      </trkpt>
      <trkpt lat="45.09126" lon="6.43261">
        <ele>1940.5</ele>
        <time>2022-07-16T11:27:07+0200</time>
      </trkpt>
      <trkpt lat="45.09122" lon="6.43265">
        <ele>1940.4</ele>
        <time>2022-07-16T11:27:12+0200</time>
      </trkpt>
      <trkpt lat="45.09117" lon="6.43267">
        <ele>1941.1</ele>
        <time>2022-07-16T11:27:19+0200</time>
      </trkpt>
      <trkpt lat="45.09113" lon="6.4327">
        <ele>1940.9</ele>
        <time>2022-07-16T11:27:21+0200</time>
      </trkpt>
      <trkpt lat="45.09108" lon="6.43275">
        <ele>1939.7</ele>
        <time>2022-07-16T11:27:24+0200</time>
      </trkpt>
      <trkpt lat="45.09103" lon="6.43281">
        <ele>1939.3</ele>
        <time>2022-07-16T11:27:27+0200</time>
      </trkpt>
      <trkpt lat="45.09096" lon="6.43284">
        <ele>1940.4</ele>
        <time>2022-07-16T11:27:29+0200</time>
      </trkpt>
      <trkpt lat="45.09091" lon="6.43289">
        <ele>1940.4</ele>
        <time>2022-07-16T11:27:31+0200</time>
      </trkpt>
      <trkpt lat="45.09085" lon="6.43292">
        <ele>1940.7</ele>
        <time>2022-07-16T11:27:33+0200</time>
      </trkpt>
      <trkpt lat="45.09079" lon="6.43298">
        <ele>1940.1</ele>
        <time>2022-07-16T11:27:36+0200</time>
      </trkpt>
      <trkpt lat="45.09074" lon="6.43302">
        <ele>1940.5</ele>
        <time>2022-07-16T11:27:38+0200</time>
      </trkpt>
      <trkpt lat="45.09068" lon="6.43307">
        <ele>1940.8</ele>
        <time>2022-07-16T11:27:40+0200</time>
      </trkpt>
      <trkpt lat="45.09064" lon="6.43314">
        <ele>1941.2</ele>
        <time>2022-07-16T11:27:42+0200</time>
      </trkpt>
      <trkpt lat="45.09059" lon="6.43317">
        <ele>1941.9</ele>
        <time>2022-07-16T11:27:44+0200</time>
      </trkpt>
      <trkpt lat="45.09055" lon="6.43322">
        <ele>1941.9</ele>
        <time>2022-07-16T11:27:48+0200</time>
      </trkpt>
      <trkpt lat="45.09051" lon="6.43325">
        <ele>1942.1</ele>
        <time>2022-07-16T11:27:51+0200</time>
      </trkpt>
      <trkpt lat="45.09048" lon="6.43332">
        <ele>1941.2</ele>
        <time>2022-07-16T11:27:55+0200</time>
      </trkpt>
      <trkpt lat="45.09043" lon="6.43336">
        <ele>1941.6</ele>
        <time>2022-07-16T11:27:58+0200</time>
      </trkpt>
      <trkpt lat="45.09037" lon="6.43338">
        <ele>1942.7</ele>
        <time>2022-07-16T11:28:03+0200</time>
      </trkpt>
      <trkpt lat="45.09033" lon="6.43341">
        <ele>1943.2</ele>
        <time>2022-07-16T11:28:06+0200</time>
      </trkpt>
      <trkpt lat="45.09027" lon="6.43345">
        <ele>1943.9</ele>
        <time>2022-07-16T11:28:09+0200</time>
      </trkpt>
      <trkpt lat="45.09022" lon="6.43349">
        <ele>1944.5</ele>
        <time>2022-07-16T11:28:12+0200</time>
      </trkpt>
      <trkpt lat="45.09019" lon="6.43355">
        <ele>1944.3</ele>
        <time>2022-07-16T11:28:15+0200</time>
      </trkpt>
      <trkpt lat="45.09013" lon="6.4336">
        <ele>1944.3</ele>
        <time>2022-07-16T11:28:18+0200</time>
      </trkpt>
      <trkpt lat="45.09009" lon="6.43359">
        <ele>1945.2</ele>
        <time>2022-07-16T11:28:20+0200</time>
      </trkpt>
      <trkpt lat="45.09005" lon="6.43366">
        <ele>1945.1</ele>
        <time>2022-07-16T11:28:24+0200</time>
      </trkpt>
      <trkpt lat="45.09002" lon="6.43371">
        <ele>1945.1</ele>
        <time>2022-07-16T11:28:33+0200</time>
      </trkpt>
      <trkpt lat="45.08997" lon="6.43374">
        <ele>1945.5</ele>
        <time>2022-07-16T11:28:38+0200</time>
      </trkpt>
      <trkpt lat="45.08994" lon="6.43379">
        <ele>1945.8</ele>
        <time>2022-07-16T11:28:43+0200</time>
      </trkpt>
      <trkpt lat="45.0899" lon="6.43384">
        <ele>1946.1</ele>
        <time>2022-07-16T11:28:48+0200</time>
      </trkpt>
      <trkpt lat="45.08986" lon="6.4339">
        <ele>1946.5</ele>
        <time>2022-07-16T11:29:09+0200</time>
      </trkpt>
      <trkpt lat="45.08981" lon="6.43393">
        <ele>1947.1</ele>
        <time>2022-07-16T11:29:13+0200</time>
      </trkpt>
      <trkpt lat="45.08976" lon="6.43399">
        <ele>1947.3</ele>
        <time>2022-07-16T11:29:16+0200</time>
      </trkpt>
      <trkpt lat="45.08972" lon="6.43403">
        <ele>1947.5</ele>
        <time>2022-07-16T11:29:18+0200</time>
      </trkpt>
      <trkpt lat="45.08967" lon="6.43405">
        <ele>1947.9</ele>
        <time>2022-07-16T11:29:21+0200</time>
      </trkpt>
      <trkpt lat="45.08962" lon="6.43408">
        <ele>1948.5</ele>
        <time>2022-07-16T11:29:29+0200</time>
      </trkpt>
      <trkpt lat="45.08958" lon="6.43413">
        <ele>1948.7</ele>
        <time>2022-07-16T11:29:34+0200</time>
      </trkpt>
      <trkpt lat="45.08955" lon="6.43417">
        <ele>1949.1</ele>
        <time>2022-07-16T11:29:39+0200</time>
      </trkpt>
      <trkpt lat="45.08952" lon="6.43423">
        <ele>1949.1</ele>
        <time>2022-07-16T11:29:46+0200</time>
      </trkpt>
      <trkpt lat="45.08947" lon="6.43424">
        <ele>1949.7</ele>
        <time>2022-07-16T11:29:49+0200</time>
      </trkpt>
      <trkpt lat="45.08941" lon="6.43427">
        <ele>1949.9</ele>
        <time>2022-07-16T11:29:52+0200</time>
      </trkpt>
      <trkpt lat="45.08935" lon="6.43431">
        <ele>1949.8</ele>
        <time>2022-07-16T11:29:55+0200</time>
      </trkpt>
      <trkpt lat="45.0893" lon="6.43432">
        <ele>1950.2</ele>
        <time>2022-07-16T11:29:57+0200</time>
      </trkpt>
      <trkpt lat="45.08925" lon="6.43435">
        <ele>1950.3</ele>
        <time>2022-07-16T11:30:00+0200</time>
      </trkpt>
      <trkpt lat="45.08918" lon="6.43436">
        <ele>1950.8</ele>
        <time>2022-07-16T11:30:03+0200</time>
      </trkpt>
      <trkpt lat="45.08912" lon="6.43438">
        <ele>1950.9</ele>
        <time>2022-07-16T11:30:06+0200</time>
      </trkpt>
      <trkpt lat="45.08906" lon="6.43438">
        <ele>1951.2</ele>
        <time>2022-07-16T11:30:09+0200</time>
      </trkpt>
      <trkpt lat="45.08899" lon="6.43438">
        <ele>1951.5</ele>
        <time>2022-07-16T11:30:11+0200</time>
      </trkpt>
      <trkpt lat="45.08894" lon="6.43437">
        <ele>1951.9</ele>
        <time>2022-07-16T11:30:13+0200</time>
      </trkpt>
      <trkpt lat="45.08888" lon="6.43434">
        <ele>1952.7</ele>
        <time>2022-07-16T11:30:16+0200</time>
      </trkpt>
      <trkpt lat="45.08882" lon="6.43433">
        <ele>1954</ele>
        <time>2022-07-16T11:30:19+0200</time>
      </trkpt>
      <trkpt lat="45.08877" lon="6.43434">
        <ele>1954.7</ele>
        <time>2022-07-16T11:30:21+0200</time>
      </trkpt>
      <trkpt lat="45.08873" lon="6.43438">
        <ele>1954.8</ele>
        <time>2022-07-16T11:30:23+0200</time>
      </trkpt>
      <trkpt lat="45.08869" lon="6.43442">
        <ele>1954.4</ele>
        <time>2022-07-16T11:30:25+0200</time>
      </trkpt>
      <trkpt lat="45.08863" lon="6.43446">
        <ele>1954.7</ele>
        <time>2022-07-16T11:30:28+0200</time>
      </trkpt>
      <trkpt lat="45.08859" lon="6.43448">
        <ele>1955.4</ele>
        <time>2022-07-16T11:30:30+0200</time>
      </trkpt>
      <trkpt lat="45.08853" lon="6.43451">
        <ele>1956.5</ele>
        <time>2022-07-16T11:30:33+0200</time>
      </trkpt>
      <trkpt lat="45.08849" lon="6.43454">
        <ele>1957.1</ele>
        <time>2022-07-16T11:30:35+0200</time>
      </trkpt>
      <trkpt lat="45.08844" lon="6.43458">
        <ele>1957.5</ele>
        <time>2022-07-16T11:30:38+0200</time>
      </trkpt>
      <trkpt lat="45.08841" lon="6.43463">
        <ele>1957.4</ele>
        <time>2022-07-16T11:30:41+0200</time>
      </trkpt>
      <trkpt lat="45.08835" lon="6.43467">
        <ele>1957.6</ele>
        <time>2022-07-16T11:30:44+0200</time>
      </trkpt>
      <trkpt lat="45.0883" lon="6.43469">
        <ele>1958</ele>
        <time>2022-07-16T11:30:46+0200</time>
      </trkpt>
      <trkpt lat="45.08824" lon="6.43471">
        <ele>1958.7</ele>
        <time>2022-07-16T11:30:48+0200</time>
      </trkpt>
      <trkpt lat="45.08819" lon="6.43477">
        <ele>1959.2</ele>
        <time>2022-07-16T11:30:52+0200</time>
      </trkpt>
      <trkpt lat="45.08815" lon="6.43482">
        <ele>1959.5</ele>
        <time>2022-07-16T11:30:54+0200</time>
      </trkpt>
      <trkpt lat="45.08811" lon="6.43487">
        <ele>1959.7</ele>
        <time>2022-07-16T11:30:57+0200</time>
      </trkpt>
      <trkpt lat="45.08805" lon="6.4349">
        <ele>1959.9</ele>
        <time>2022-07-16T11:31:01+0200</time>
      </trkpt>
      <trkpt lat="45.088" lon="6.43492">
        <ele>1960.2</ele>
        <time>2022-07-16T11:31:04+0200</time>
      </trkpt>
      <trkpt lat="45.08796" lon="6.43493">
        <ele>1960.8</ele>
        <time>2022-07-16T11:31:07+0200</time>
      </trkpt>
      <trkpt lat="45.0879" lon="6.43494">
        <ele>1961.4</ele>
        <time>2022-07-16T11:31:11+0200</time>
      </trkpt>
      <trkpt lat="45.08785" lon="6.435">
        <ele>1961.3</ele>
        <time>2022-07-16T11:31:15+0200</time>
      </trkpt>
      <trkpt lat="45.08779" lon="6.43499">
        <ele>1961.9</ele>
        <time>2022-07-16T11:31:19+0200</time>
      </trkpt>
      <trkpt lat="45.08773" lon="6.43502">
        <ele>1962.9</ele>
        <time>2022-07-16T11:31:23+0200</time>
      </trkpt>
      <trkpt lat="45.08768" lon="6.43507">
        <ele>1963.8</ele>
        <time>2022-07-16T11:31:27+0200</time>
      </trkpt>
      <trkpt lat="45.08762" lon="6.43509">
        <ele>1964.3</ele>
        <time>2022-07-16T11:31:31+0200</time>
      </trkpt>
      <trkpt lat="45.08758" lon="6.43512">
        <ele>1964.5</ele>
        <time>2022-07-16T11:31:35+0200</time>
      </trkpt>
      <trkpt lat="45.08753" lon="6.43516">
        <ele>1964.6</ele>
        <time>2022-07-16T11:31:39+0200</time>
      </trkpt>
      <trkpt lat="45.08747" lon="6.43518">
        <ele>1965.1</ele>
        <time>2022-07-16T11:31:42+0200</time>
      </trkpt>
      <trkpt lat="45.08743" lon="6.43524">
        <ele>1965.8</ele>
        <time>2022-07-16T11:31:45+0200</time>
      </trkpt>
      <trkpt lat="45.08738" lon="6.43529">
        <ele>1966.5</ele>
        <time>2022-07-16T11:31:49+0200</time>
      </trkpt>
      <trkpt lat="45.08734" lon="6.43535">
        <ele>1967.6</ele>
        <time>2022-07-16T11:31:52+0200</time>
      </trkpt>
      <trkpt lat="45.0873" lon="6.4354">
        <ele>1968.4</ele>
        <time>2022-07-16T11:31:56+0200</time>
      </trkpt>
      <trkpt lat="45.08725" lon="6.43544">
        <ele>1968.9</ele>
        <time>2022-07-16T11:31:59+0200</time>
      </trkpt>
      <trkpt lat="45.08719" lon="6.43548">
        <ele>1969.3</ele>
        <time>2022-07-16T11:32:06+0200</time>
      </trkpt>
      <trkpt lat="45.08714" lon="6.43549">
        <ele>1969.9</ele>
        <time>2022-07-16T11:32:12+0200</time>
      </trkpt>
      <trkpt lat="45.0871" lon="6.43549">
        <ele>1970.6</ele>
        <time>2022-07-16T11:32:20+0200</time>
      </trkpt>
      <trkpt lat="45.08705" lon="6.43551">
        <ele>1970.8</ele>
        <time>2022-07-16T11:32:23+0200</time>
      </trkpt>
      <trkpt lat="45.087" lon="6.43553">
        <ele>1970.9</ele>
        <time>2022-07-16T11:32:28+0200</time>
      </trkpt>
      <trkpt lat="45.08694" lon="6.43557">
        <ele>1971</ele>
        <time>2022-07-16T11:32:34+0200</time>
      </trkpt>
      <trkpt lat="45.0869" lon="6.4356">
        <ele>1972.2</ele>
        <time>2022-07-16T11:32:36+0200</time>
      </trkpt>
      <trkpt lat="45.08685" lon="6.43563">
        <ele>1973.2</ele>
        <time>2022-07-16T11:32:42+0200</time>
      </trkpt>
      <trkpt lat="45.0868" lon="6.43567">
        <ele>1973.8</ele>
        <time>2022-07-16T11:32:50+0200</time>
      </trkpt>
      <trkpt lat="45.08677" lon="6.43572">
        <ele>1973.9</ele>
        <time>2022-07-16T11:32:57+0200</time>
      </trkpt>
      <trkpt lat="45.08672" lon="6.43575">
        <ele>1974.1</ele>
        <time>2022-07-16T11:33:01+0200</time>
      </trkpt>
      <trkpt lat="45.08667" lon="6.43578">
        <ele>1974.2</ele>
        <time>2022-07-16T11:33:06+0200</time>
      </trkpt>
      <trkpt lat="45.08663" lon="6.43582">
        <ele>1974.3</ele>
        <time>2022-07-16T11:33:10+0200</time>
      </trkpt>
      <trkpt lat="45.08658" lon="6.43585">
        <ele>1975.3</ele>
        <time>2022-07-16T11:33:17+0200</time>
      </trkpt>
      <trkpt lat="45.08653" lon="6.43587">
        <ele>1976.3</ele>
        <time>2022-07-16T11:33:25+0200</time>
      </trkpt>
      <trkpt lat="45.08649" lon="6.43589">
        <ele>1977.3</ele>
        <time>2022-07-16T11:33:36+0200</time>
      </trkpt>
      <trkpt lat="45.08645" lon="6.43594">
        <ele>1977.9</ele>
        <time>2022-07-16T11:33:42+0200</time>
      </trkpt>
      <trkpt lat="45.08642" lon="6.43601">
        <ele>1978.1</ele>
        <time>2022-07-16T11:33:46+0200</time>
      </trkpt>
      <trkpt lat="45.08641" lon="6.43607">
        <ele>1978</ele>
        <time>2022-07-16T11:33:50+0200</time>
      </trkpt>
      <trkpt lat="45.08639" lon="6.43615">
        <ele>1977.9</ele>
        <time>2022-07-16T11:33:54+0200</time>
      </trkpt>
      <trkpt lat="45.08637" lon="6.43621">
        <ele>1978.3</ele>
        <time>2022-07-16T11:33:56+0200</time>
      </trkpt>
      <trkpt lat="45.08636" lon="6.43629">
        <ele>1978.3</ele>
        <time>2022-07-16T11:33:59+0200</time>
      </trkpt>
      <trkpt lat="45.08634" lon="6.43637">
        <ele>1978.3</ele>
        <time>2022-07-16T11:34:02+0200</time>
      </trkpt>
      <trkpt lat="45.08631" lon="6.43643">
        <ele>1979</ele>
        <time>2022-07-16T11:34:05+0200</time>
      </trkpt>
      <trkpt lat="45.08627" lon="6.43646">
        <ele>1979.7</ele>
        <time>2022-07-16T11:34:08+0200</time>
      </trkpt>
      <trkpt lat="45.08623" lon="6.43649">
        <ele>1980.4</ele>
        <time>2022-07-16T11:34:12+0200</time>
      </trkpt>
      <trkpt lat="45.08617" lon="6.43654">
        <ele>1981</ele>
        <time>2022-07-16T11:34:16+0200</time>
      </trkpt>
      <trkpt lat="45.08613" lon="6.43658">
        <ele>1981.1</ele>
        <time>2022-07-16T11:34:19+0200</time>
      </trkpt>
      <trkpt lat="45.08608" lon="6.43662">
        <ele>1981.2</ele>
        <time>2022-07-16T11:34:22+0200</time>
      </trkpt>
      <trkpt lat="45.08603" lon="6.43666">
        <ele>1981.8</ele>
        <time>2022-07-16T11:34:26+0200</time>
      </trkpt>
      <trkpt lat="45.08598" lon="6.43669">
        <ele>1982.8</ele>
        <time>2022-07-16T11:34:28+0200</time>
      </trkpt>
      <trkpt lat="45.08595" lon="6.43673">
        <ele>1983.5</ele>
        <time>2022-07-16T11:34:32+0200</time>
      </trkpt>
      <trkpt lat="45.08591" lon="6.4368">
        <ele>1984.1</ele>
        <time>2022-07-16T11:34:35+0200</time>
      </trkpt>
      <trkpt lat="45.08588" lon="6.43686">
        <ele>1984.6</ele>
        <time>2022-07-16T11:34:39+0200</time>
      </trkpt>
      <trkpt lat="45.08583" lon="6.43687">
        <ele>1985.3</ele>
        <time>2022-07-16T11:34:42+0200</time>
      </trkpt>
      <trkpt lat="45.08578" lon="6.43689">
        <ele>1986.2</ele>
        <time>2022-07-16T11:34:46+0200</time>
      </trkpt>
      <trkpt lat="45.08574" lon="6.43694">
        <ele>1986.5</ele>
        <time>2022-07-16T11:34:50+0200</time>
      </trkpt>
      <trkpt lat="45.0857" lon="6.43697">
        <ele>1986.8</ele>
        <time>2022-07-16T11:34:56+0200</time>
      </trkpt>
      <trkpt lat="45.08565" lon="6.43696">
        <ele>1987.5</ele>
        <time>2022-07-16T11:35:09+0200</time>
      </trkpt>
      <trkpt lat="45.08566" lon="6.43702">
        <ele>1986.8</ele>
        <time>2022-07-16T11:35:37+0200</time>
      </trkpt>
      <trkpt lat="45.0857" lon="6.43707">
        <ele>1986.1</ele>
        <time>2022-07-16T11:35:41+0200</time>
      </trkpt>
      <trkpt lat="45.08575" lon="6.43713">
        <ele>1985.2</ele>
        <time>2022-07-16T11:35:44+0200</time>
      </trkpt>
      <trkpt lat="45.0858" lon="6.43715">
        <ele>1984.5</ele>
        <time>2022-07-16T11:35:47+0200</time>
      </trkpt>
      <trkpt lat="45.08584" lon="6.43719">
        <ele>1984.1</ele>
        <time>2022-07-16T11:35:49+0200</time>
      </trkpt>
      <trkpt lat="45.08588" lon="6.43726">
        <ele>1984.5</ele>
        <time>2022-07-16T11:35:52+0200</time>
      </trkpt>
      <trkpt lat="45.0859" lon="6.43732">
        <ele>1985.2</ele>
        <time>2022-07-16T11:35:54+0200</time>
      </trkpt>
      <trkpt lat="45.08594" lon="6.43736">
        <ele>1985.9</ele>
        <time>2022-07-16T11:35:56+0200</time>
      </trkpt>
      <trkpt lat="45.08599" lon="6.4374">
        <ele>1986.6</ele>
        <time>2022-07-16T11:35:58+0200</time>
      </trkpt>
      <trkpt lat="45.08605" lon="6.43743">
        <ele>1987.4</ele>
        <time>2022-07-16T11:36:00+0200</time>
      </trkpt>
      <trkpt lat="45.08612" lon="6.43742">
        <ele>1987.6</ele>
        <time>2022-07-16T11:36:02+0200</time>
      </trkpt>
      <trkpt lat="45.08619" lon="6.43739">
        <ele>1987.7</ele>
        <time>2022-07-16T11:36:04+0200</time>
      </trkpt>
      <trkpt lat="45.08626" lon="6.43733">
        <ele>1987</ele>
        <time>2022-07-16T11:36:06+0200</time>
      </trkpt>
      <trkpt lat="45.08634" lon="6.43726">
        <ele>1985.9</ele>
        <time>2022-07-16T11:36:08+0200</time>
      </trkpt>
      <trkpt lat="45.08638" lon="6.43722">
        <ele>1984.8</ele>
        <time>2022-07-16T11:36:09+0200</time>
      </trkpt>
      <trkpt lat="45.08642" lon="6.43719">
        <ele>1984.9</ele>
        <time>2022-07-16T11:36:10+0200</time>
      </trkpt>
      <trkpt lat="45.0865" lon="6.43711">
        <ele>1984.6</ele>
        <time>2022-07-16T11:36:12+0200</time>
      </trkpt>
      <trkpt lat="45.08654" lon="6.43706">
        <ele>1984.2</ele>
        <time>2022-07-16T11:36:13+0200</time>
      </trkpt>
      <trkpt lat="45.0866" lon="6.43703">
        <ele>1984.3</ele>
        <time>2022-07-16T11:36:14+0200</time>
      </trkpt>
      <trkpt lat="45.08665" lon="6.43697">
        <ele>1983.5</ele>
        <time>2022-07-16T11:36:15+0200</time>
      </trkpt>
      <trkpt lat="45.0867" lon="6.43691">
        <ele>1982.8</ele>
        <time>2022-07-16T11:36:16+0200</time>
      </trkpt>
      <trkpt lat="45.08676" lon="6.43686">
        <ele>1982.9</ele>
        <time>2022-07-16T11:36:17+0200</time>
      </trkpt>
      <trkpt lat="45.08681" lon="6.4368">
        <ele>1982.2</ele>
        <time>2022-07-16T11:36:18+0200</time>
      </trkpt>
      <trkpt lat="45.08684" lon="6.43675">
        <ele>1981.5</ele>
        <time>2022-07-16T11:36:19+0200</time>
      </trkpt>
      <trkpt lat="45.0869" lon="6.43669">
        <ele>1980.9</ele>
        <time>2022-07-16T11:36:20+0200</time>
      </trkpt>
      <trkpt lat="45.08695" lon="6.43662">
        <ele>1980</ele>
        <time>2022-07-16T11:36:21+0200</time>
      </trkpt>
      <trkpt lat="45.08701" lon="6.43657">
        <ele>1979.6</ele>
        <time>2022-07-16T11:36:22+0200</time>
      </trkpt>
      <trkpt lat="45.08707" lon="6.4365">
        <ele>1979.1</ele>
        <time>2022-07-16T11:36:23+0200</time>
      </trkpt>
      <trkpt lat="45.08713" lon="6.43645">
        <ele>1978.8</ele>
        <time>2022-07-16T11:36:24+0200</time>
      </trkpt>
      <trkpt lat="45.08719" lon="6.43639">
        <ele>1978.5</ele>
        <time>2022-07-16T11:36:25+0200</time>
      </trkpt>
      <trkpt lat="45.08725" lon="6.43633">
        <ele>1978.1</ele>
        <time>2022-07-16T11:36:26+0200</time>
      </trkpt>
      <trkpt lat="45.0873" lon="6.43628">
        <ele>1977.4</ele>
        <time>2022-07-16T11:36:27+0200</time>
      </trkpt>
      <trkpt lat="45.08736" lon="6.43622">
        <ele>1976.8</ele>
        <time>2022-07-16T11:36:28+0200</time>
      </trkpt>
      <trkpt lat="45.08741" lon="6.43617">
        <ele>1976.3</ele>
        <time>2022-07-16T11:36:29+0200</time>
      </trkpt>
      <trkpt lat="45.08748" lon="6.43612">
        <ele>1976</ele>
        <time>2022-07-16T11:36:30+0200</time>
      </trkpt>
      <trkpt lat="45.08754" lon="6.43606">
        <ele>1975.8</ele>
        <time>2022-07-16T11:36:31+0200</time>
      </trkpt>
      <trkpt lat="45.08759" lon="6.43601">
        <ele>1975.4</ele>
        <time>2022-07-16T11:36:32+0200</time>
      </trkpt>
      <trkpt lat="45.08765" lon="6.43595">
        <ele>1974.7</ele>
        <time>2022-07-16T11:36:33+0200</time>
      </trkpt>
      <trkpt lat="45.08771" lon="6.4359">
        <ele>1974.1</ele>
        <time>2022-07-16T11:36:34+0200</time>
      </trkpt>
      <trkpt lat="45.08777" lon="6.43586">
        <ele>1973.3</ele>
        <time>2022-07-16T11:36:35+0200</time>
      </trkpt>
      <trkpt lat="45.08784" lon="6.43584">
        <ele>1973.3</ele>
        <time>2022-07-16T11:36:36+0200</time>
      </trkpt>
      <trkpt lat="45.08791" lon="6.43582">
        <ele>1973.3</ele>
        <time>2022-07-16T11:36:37+0200</time>
      </trkpt>
      <trkpt lat="45.08797" lon="6.43579">
        <ele>1973.2</ele>
        <time>2022-07-16T11:36:38+0200</time>
      </trkpt>
      <trkpt lat="45.08805" lon="6.43573">
        <ele>1972.8</ele>
        <time>2022-07-16T11:36:39+0200</time>
      </trkpt>
      <trkpt lat="45.0881" lon="6.43571">
        <ele>1972.5</ele>
        <time>2022-07-16T11:36:40+0200</time>
      </trkpt>
      <trkpt lat="45.08817" lon="6.4357">
        <ele>1972.1</ele>
        <time>2022-07-16T11:36:42+0200</time>
      </trkpt>
      <trkpt lat="45.08822" lon="6.43568">
        <ele>1971.7</ele>
        <time>2022-07-16T11:36:43+0200</time>
      </trkpt>
      <trkpt lat="45.08827" lon="6.43567">
        <ele>1971.5</ele>
        <time>2022-07-16T11:36:44+0200</time>
      </trkpt>
      <trkpt lat="45.08832" lon="6.43565">
        <ele>1971.1</ele>
        <time>2022-07-16T11:36:45+0200</time>
      </trkpt>
      <trkpt lat="45.08837" lon="6.43563">
        <ele>1970.7</ele>
        <time>2022-07-16T11:36:46+0200</time>
      </trkpt>
      <trkpt lat="45.08847" lon="6.43562">
        <ele>1970.6</ele>
        <time>2022-07-16T11:36:48+0200</time>
      </trkpt>
      <trkpt lat="45.08853" lon="6.4356">
        <ele>1970.4</ele>
        <time>2022-07-16T11:36:49+0200</time>
      </trkpt>
      <trkpt lat="45.08858" lon="6.43559">
        <ele>1970.3</ele>
        <time>2022-07-16T11:36:50+0200</time>
      </trkpt>
      <trkpt lat="45.08863" lon="6.43558">
        <ele>1970.1</ele>
        <time>2022-07-16T11:36:51+0200</time>
      </trkpt>
      <trkpt lat="45.0887" lon="6.43557">
        <ele>1969.8</ele>
        <time>2022-07-16T11:36:52+0200</time>
      </trkpt>
      <trkpt lat="45.08875" lon="6.43555">
        <ele>1969.5</ele>
        <time>2022-07-16T11:36:53+0200</time>
      </trkpt>
      <trkpt lat="45.08881" lon="6.43553">
        <ele>1969</ele>
        <time>2022-07-16T11:36:54+0200</time>
      </trkpt>
      <trkpt lat="45.08887" lon="6.43551">
        <ele>1968.5</ele>
        <time>2022-07-16T11:36:55+0200</time>
      </trkpt>
      <trkpt lat="45.08894" lon="6.43548">
        <ele>1968.2</ele>
        <time>2022-07-16T11:36:56+0200</time>
      </trkpt>
      <trkpt lat="45.08899" lon="6.43546">
        <ele>1968</ele>
        <time>2022-07-16T11:36:57+0200</time>
      </trkpt>
      <trkpt lat="45.08905" lon="6.43544">
        <ele>1967.8</ele>
        <time>2022-07-16T11:36:58+0200</time>
      </trkpt>
      <trkpt lat="45.08911" lon="6.43543">
        <ele>1967.7</ele>
        <time>2022-07-16T11:36:59+0200</time>
      </trkpt>
      <trkpt lat="45.08917" lon="6.43543">
        <ele>1967.6</ele>
        <time>2022-07-16T11:37:00+0200</time>
      </trkpt>
      <trkpt lat="45.08923" lon="6.43542">
        <ele>1967.3</ele>
        <time>2022-07-16T11:37:01+0200</time>
      </trkpt>
      <trkpt lat="45.0893" lon="6.4354">
        <ele>1966.9</ele>
        <time>2022-07-16T11:37:02+0200</time>
      </trkpt>
      <trkpt lat="45.08936" lon="6.43539">
        <ele>1966.6</ele>
        <time>2022-07-16T11:37:03+0200</time>
      </trkpt>
      <trkpt lat="45.08943" lon="6.43539">
        <ele>1966.3</ele>
        <time>2022-07-16T11:37:04+0200</time>
      </trkpt>
      <trkpt lat="45.08949" lon="6.43537">
        <ele>1965.7</ele>
        <time>2022-07-16T11:37:05+0200</time>
      </trkpt>
      <trkpt lat="45.08955" lon="6.43537">
        <ele>1965.5</ele>
        <time>2022-07-16T11:37:06+0200</time>
      </trkpt>
      <trkpt lat="45.0896" lon="6.43538">
        <ele>1965.3</ele>
        <time>2022-07-16T11:37:07+0200</time>
      </trkpt>
      <trkpt lat="45.08967" lon="6.43539">
        <ele>1965.1</ele>
        <time>2022-07-16T11:37:08+0200</time>
      </trkpt>
      <trkpt lat="45.08973" lon="6.43541">
        <ele>1964.8</ele>
        <time>2022-07-16T11:37:09+0200</time>
      </trkpt>
      <trkpt lat="45.0898" lon="6.43542">
        <ele>1964.4</ele>
        <time>2022-07-16T11:37:10+0200</time>
      </trkpt>
      <trkpt lat="45.08987" lon="6.43544">
        <ele>1964.2</ele>
        <time>2022-07-16T11:37:11+0200</time>
      </trkpt>
      <trkpt lat="45.08994" lon="6.43545">
        <ele>1963.7</ele>
        <time>2022-07-16T11:37:12+0200</time>
      </trkpt>
      <trkpt lat="45.09001" lon="6.43543">
        <ele>1963.1</ele>
        <time>2022-07-16T11:37:13+0200</time>
      </trkpt>
      <trkpt lat="45.09008" lon="6.43545">
        <ele>1963</ele>
        <time>2022-07-16T11:37:14+0200</time>
      </trkpt>
      <trkpt lat="45.09015" lon="6.43547">
        <ele>1962.8</ele>
        <time>2022-07-16T11:37:15+0200</time>
      </trkpt>
      <trkpt lat="45.09021" lon="6.43545">
        <ele>1962.5</ele>
        <time>2022-07-16T11:37:16+0200</time>
      </trkpt>
      <trkpt lat="45.09025" lon="6.43549">
        <ele>1962.6</ele>
        <time>2022-07-16T11:37:18+0200</time>
      </trkpt>
      <trkpt lat="45.09026" lon="6.43555">
        <ele>1963</ele>
        <time>2022-07-16T11:37:26+0200</time>
      </trkpt>
      <trkpt lat="45.09023" lon="6.4356">
        <ele>1963.6</ele>
        <time>2022-07-16T11:37:29+0200</time>
      </trkpt>
      <trkpt lat="45.09019" lon="6.43567">
        <ele>1964.6</ele>
        <time>2022-07-16T11:37:33+0200</time>
      </trkpt>
      <trkpt lat="45.09017" lon="6.43574">
        <ele>1965.4</ele>
        <time>2022-07-16T11:37:37+0200</time>
      </trkpt>
      <trkpt lat="45.09014" lon="6.43581">
        <ele>1966.2</ele>
        <time>2022-07-16T11:37:41+0200</time>
      </trkpt>
      <trkpt lat="45.09012" lon="6.43587">
        <ele>1966.9</ele>
        <time>2022-07-16T11:37:45+0200</time>
      </trkpt>
      <trkpt lat="45.09009" lon="6.43594">
        <ele>1967.5</ele>
        <time>2022-07-16T11:37:48+0200</time>
      </trkpt>
      <trkpt lat="45.09006" lon="6.43599">
        <ele>1968</ele>
        <time>2022-07-16T11:37:51+0200</time>
      </trkpt>
      <trkpt lat="45.09003" lon="6.43606">
        <ele>1968.6</ele>
        <time>2022-07-16T11:37:55+0200</time>
      </trkpt>
      <trkpt lat="45.09001" lon="6.43611">
        <ele>1969</ele>
        <time>2022-07-16T11:37:58+0200</time>
      </trkpt>
      <trkpt lat="45.08997" lon="6.43616">
        <ele>1969.8</ele>
        <time>2022-07-16T11:38:02+0200</time>
      </trkpt>
      <trkpt lat="45.08993" lon="6.43619">
        <ele>1970.6</ele>
        <time>2022-07-16T11:38:05+0200</time>
      </trkpt>
      <trkpt lat="45.08989" lon="6.43622">
        <ele>1971.3</ele>
        <time>2022-07-16T11:38:07+0200</time>
      </trkpt>
      <trkpt lat="45.08984" lon="6.43625">
        <ele>1971.9</ele>
        <time>2022-07-16T11:38:10+0200</time>
      </trkpt>
      <trkpt lat="45.0898" lon="6.43627">
        <ele>1972.5</ele>
        <time>2022-07-16T11:38:13+0200</time>
      </trkpt>
      <trkpt lat="45.08976" lon="6.43631">
        <ele>1973.1</ele>
        <time>2022-07-16T11:38:16+0200</time>
      </trkpt>
      <trkpt lat="45.0897" lon="6.43634">
        <ele>1973.8</ele>
        <time>2022-07-16T11:38:20+0200</time>
      </trkpt>
      <trkpt lat="45.08963" lon="6.43636">
        <ele>1974.4</ele>
        <time>2022-07-16T11:38:23+0200</time>
      </trkpt>
      <trkpt lat="45.08958" lon="6.43638">
        <ele>1974.9</ele>
        <time>2022-07-16T11:38:26+0200</time>
      </trkpt>
      <trkpt lat="45.08952" lon="6.43641">
        <ele>1975.7</ele>
        <time>2022-07-16T11:38:29+0200</time>
      </trkpt>
      <trkpt lat="45.08947" lon="6.43642">
        <ele>1976.3</ele>
        <time>2022-07-16T11:38:33+0200</time>
      </trkpt>
      <trkpt lat="45.08942" lon="6.43646">
        <ele>1977.2</ele>
        <time>2022-07-16T11:38:37+0200</time>
      </trkpt>
      <trkpt lat="45.08937" lon="6.43649">
        <ele>1977.9</ele>
        <time>2022-07-16T11:38:41+0200</time>
      </trkpt>
      <trkpt lat="45.08933" lon="6.4365">
        <ele>1978.4</ele>
        <time>2022-07-16T11:38:44+0200</time>
      </trkpt>
      <trkpt lat="45.08928" lon="6.4365">
        <ele>1978.8</ele>
        <time>2022-07-16T11:38:47+0200</time>
      </trkpt>
      <trkpt lat="45.08923" lon="6.43652">
        <ele>1979.4</ele>
        <time>2022-07-16T11:38:50+0200</time>
      </trkpt>
      <trkpt lat="45.08918" lon="6.43655">
        <ele>1980.2</ele>
        <time>2022-07-16T11:38:53+0200</time>
      </trkpt>
      <trkpt lat="45.08913" lon="6.43659">
        <ele>1981</ele>
        <time>2022-07-16T11:38:56+0200</time>
      </trkpt>
      <trkpt lat="45.08907" lon="6.43663">
        <ele>1981.5</ele>
        <time>2022-07-16T11:39:00+0200</time>
      </trkpt>
      <trkpt lat="45.08903" lon="6.43667">
        <ele>1982.1</ele>
        <time>2022-07-16T11:39:04+0200</time>
      </trkpt>
      <trkpt lat="45.08898" lon="6.43671">
        <ele>1982.5</ele>
        <time>2022-07-16T11:39:07+0200</time>
      </trkpt>
      <trkpt lat="45.08894" lon="6.43677">
        <ele>1983.1</ele>
        <time>2022-07-16T11:39:11+0200</time>
      </trkpt>
      <trkpt lat="45.08889" lon="6.43681">
        <ele>1983.5</ele>
        <time>2022-07-16T11:39:15+0200</time>
      </trkpt>
      <trkpt lat="45.08885" lon="6.43686">
        <ele>1984.4</ele>
        <time>2022-07-16T11:39:18+0200</time>
      </trkpt>
      <trkpt lat="45.0888" lon="6.43692">
        <ele>1985.4</ele>
        <time>2022-07-16T11:39:21+0200</time>
      </trkpt>
      <trkpt lat="45.08875" lon="6.43696">
        <ele>1986.2</ele>
        <time>2022-07-16T11:39:24+0200</time>
      </trkpt>
      <trkpt lat="45.0887" lon="6.43699">
        <ele>1986.9</ele>
        <time>2022-07-16T11:39:27+0200</time>
      </trkpt>
      <trkpt lat="45.08867" lon="6.43704">
        <ele>1987.9</ele>
        <time>2022-07-16T11:39:30+0200</time>
      </trkpt>
      <trkpt lat="45.08862" lon="6.4371">
        <ele>1989.1</ele>
        <time>2022-07-16T11:39:33+0200</time>
      </trkpt>
      <trkpt lat="45.08859" lon="6.43713">
        <ele>1989.7</ele>
        <time>2022-07-16T11:39:36+0200</time>
      </trkpt>
      <trkpt lat="45.08855" lon="6.43718">
        <ele>1990.3</ele>
        <time>2022-07-16T11:39:39+0200</time>
      </trkpt>
      <trkpt lat="45.0885" lon="6.43723">
        <ele>1991.1</ele>
        <time>2022-07-16T11:39:44+0200</time>
      </trkpt>
      <trkpt lat="45.08846" lon="6.43729">
        <ele>1991.7</ele>
        <time>2022-07-16T11:39:48+0200</time>
      </trkpt>
      <trkpt lat="45.08843" lon="6.43734">
        <ele>1992.3</ele>
        <time>2022-07-16T11:39:52+0200</time>
      </trkpt>
      <trkpt lat="45.08839" lon="6.4374">
        <ele>1992.9</ele>
        <time>2022-07-16T11:39:56+0200</time>
      </trkpt>
      <trkpt lat="45.08836" lon="6.43745">
        <ele>1993.5</ele>
        <time>2022-07-16T11:39:59+0200</time>
      </trkpt>
      <trkpt lat="45.08834" lon="6.43752">
        <ele>1994.2</ele>
        <time>2022-07-16T11:40:02+0200</time>
      </trkpt>
      <trkpt lat="45.08832" lon="6.43759">
        <ele>1995.2</ele>
        <time>2022-07-16T11:40:05+0200</time>
      </trkpt>
      <trkpt lat="45.08831" lon="6.43765">
        <ele>1996.1</ele>
        <time>2022-07-16T11:40:08+0200</time>
      </trkpt>
      <trkpt lat="45.0883" lon="6.43773">
        <ele>1997.2</ele>
        <time>2022-07-16T11:40:12+0200</time>
      </trkpt>
      <trkpt lat="45.08828" lon="6.4378">
        <ele>1998</ele>
        <time>2022-07-16T11:40:16+0200</time>
      </trkpt>
      <trkpt lat="45.08826" lon="6.43785">
        <ele>1998.6</ele>
        <time>2022-07-16T11:40:19+0200</time>
      </trkpt>
      <trkpt lat="45.08823" lon="6.43791">
        <ele>1999.2</ele>
        <time>2022-07-16T11:40:22+0200</time>
      </trkpt>
      <trkpt lat="45.0882" lon="6.43798">
        <ele>2000</ele>
        <time>2022-07-16T11:40:25+0200</time>
      </trkpt>
      <trkpt lat="45.08818" lon="6.43803">
        <ele>2000.7</ele>
        <time>2022-07-16T11:40:28+0200</time>
      </trkpt>
      <trkpt lat="45.08813" lon="6.43808">
        <ele>2001.2</ele>
        <time>2022-07-16T11:40:33+0200</time>
      </trkpt>
      <trkpt lat="45.08809" lon="6.43811">
        <ele>2001.6</ele>
        <time>2022-07-16T11:40:37+0200</time>
      </trkpt>
      <trkpt lat="45.08805" lon="6.43814">
        <ele>2001.9</ele>
        <time>2022-07-16T11:40:41+0200</time>
      </trkpt>
      <trkpt lat="45.08801" lon="6.4382">
        <ele>2002.4</ele>
        <time>2022-07-16T11:40:45+0200</time>
      </trkpt>
      <trkpt lat="45.08797" lon="6.43825">
        <ele>2002.8</ele>
        <time>2022-07-16T11:40:49+0200</time>
      </trkpt>
      <trkpt lat="45.08795" lon="6.43831">
        <ele>2003.4</ele>
        <time>2022-07-16T11:40:53+0200</time>
      </trkpt>
      <trkpt lat="45.08791" lon="6.43837">
        <ele>2004.1</ele>
        <time>2022-07-16T11:40:57+0200</time>
      </trkpt>
      <trkpt lat="45.0879" lon="6.43844">
        <ele>2004.9</ele>
        <time>2022-07-16T11:41:02+0200</time>
      </trkpt>
      <trkpt lat="45.08788" lon="6.4385">
        <ele>2005.7</ele>
        <time>2022-07-16T11:41:06+0200</time>
      </trkpt>
      <trkpt lat="45.08786" lon="6.43856">
        <ele>2006.5</ele>
        <time>2022-07-16T11:41:09+0200</time>
      </trkpt>
      <trkpt lat="45.08783" lon="6.43862">
        <ele>2007.3</ele>
        <time>2022-07-16T11:41:13+0200</time>
      </trkpt>
      <trkpt lat="45.08781" lon="6.43868">
        <ele>2008</ele>
        <time>2022-07-16T11:41:16+0200</time>
      </trkpt>
      <trkpt lat="45.08778" lon="6.43873">
        <ele>2008.7</ele>
        <time>2022-07-16T11:41:20+0200</time>
      </trkpt>
      <trkpt lat="45.08775" lon="6.43879">
        <ele>2009.6</ele>
        <time>2022-07-16T11:41:24+0200</time>
      </trkpt>
      <trkpt lat="45.08773" lon="6.43886">
        <ele>2010.6</ele>
        <time>2022-07-16T11:41:27+0200</time>
      </trkpt>
      <trkpt lat="45.08771" lon="6.43892">
        <ele>2011.4</ele>
        <time>2022-07-16T11:41:31+0200</time>
      </trkpt>
      <trkpt lat="45.08767" lon="6.43897">
        <ele>2012.1</ele>
        <time>2022-07-16T11:41:35+0200</time>
      </trkpt>
      <trkpt lat="45.08765" lon="6.43904">
        <ele>2012.9</ele>
        <time>2022-07-16T11:41:39+0200</time>
      </trkpt>
      <trkpt lat="45.08761" lon="6.43908">
        <ele>2013.3</ele>
        <time>2022-07-16T11:41:42+0200</time>
      </trkpt>
      <trkpt lat="45.08757" lon="6.43912">
        <ele>2013.7</ele>
        <time>2022-07-16T11:41:47+0200</time>
      </trkpt>
      <trkpt lat="45.08754" lon="6.4392">
        <ele>2014.6</ele>
        <time>2022-07-16T11:41:51+0200</time>
      </trkpt>
      <trkpt lat="45.08749" lon="6.43924">
        <ele>2015.1</ele>
        <time>2022-07-16T11:41:55+0200</time>
      </trkpt>
      <trkpt lat="45.08744" lon="6.4393">
        <ele>2016</ele>
        <time>2022-07-16T11:41:59+0200</time>
      </trkpt>
      <trkpt lat="45.08739" lon="6.43937">
        <ele>2017</ele>
        <time>2022-07-16T11:42:03+0200</time>
      </trkpt>
      <trkpt lat="45.08735" lon="6.43941">
        <ele>2017.6</ele>
        <time>2022-07-16T11:42:07+0200</time>
      </trkpt>
      <trkpt lat="45.08731" lon="6.43944">
        <ele>2018</ele>
        <time>2022-07-16T11:42:10+0200</time>
      </trkpt>
      <trkpt lat="45.08725" lon="6.43946">
        <ele>2018.2</ele>
        <time>2022-07-16T11:42:14+0200</time>
      </trkpt>
      <trkpt lat="45.08722" lon="6.43952">
        <ele>2019.1</ele>
        <time>2022-07-16T11:42:17+0200</time>
      </trkpt>
      <trkpt lat="45.08719" lon="6.43957">
        <ele>2019.5</ele>
        <time>2022-07-16T11:42:20+0200</time>
      </trkpt>
      <trkpt lat="45.08717" lon="6.43963">
        <ele>2020.3</ele>
        <time>2022-07-16T11:42:23+0200</time>
      </trkpt>
      <trkpt lat="45.08716" lon="6.4397">
        <ele>2021.3</ele>
        <time>2022-07-16T11:42:27+0200</time>
      </trkpt>
      <trkpt lat="45.08717" lon="6.43979">
        <ele>2022.3</ele>
        <time>2022-07-16T11:42:31+0200</time>
      </trkpt>
      <trkpt lat="45.08719" lon="6.43985">
        <ele>2023.1</ele>
        <time>2022-07-16T11:42:34+0200</time>
      </trkpt>
      <trkpt lat="45.08722" lon="6.4399">
        <ele>2023.9</ele>
        <time>2022-07-16T11:42:37+0200</time>
      </trkpt>
      <trkpt lat="45.08727" lon="6.43995">
        <ele>2024.5</ele>
        <time>2022-07-16T11:42:40+0200</time>
      </trkpt>
      <trkpt lat="45.08732" lon="6.43996">
        <ele>2024.9</ele>
        <time>2022-07-16T11:42:43+0200</time>
      </trkpt>
      <trkpt lat="45.08738" lon="6.43998">
        <ele>2025.3</ele>
        <time>2022-07-16T11:42:47+0200</time>
      </trkpt>
      <trkpt lat="45.08744" lon="6.44">
        <ele>2025.7</ele>
        <time>2022-07-16T11:42:50+0200</time>
      </trkpt>
      <trkpt lat="45.08748" lon="6.44">
        <ele>2025.9</ele>
        <time>2022-07-16T11:42:53+0200</time>
      </trkpt>
      <trkpt lat="45.08754" lon="6.44001">
        <ele>2026.5</ele>
        <time>2022-07-16T11:42:57+0200</time>
      </trkpt>
      <trkpt lat="45.08759" lon="6.44001">
        <ele>2026.8</ele>
        <time>2022-07-16T11:43:00+0200</time>
      </trkpt>
      <trkpt lat="45.08763" lon="6.44">
        <ele>2027</ele>
        <time>2022-07-16T11:43:03+0200</time>
      </trkpt>
      <trkpt lat="45.08769" lon="6.44002">
        <ele>2027.6</ele>
        <time>2022-07-16T11:43:06+0200</time>
      </trkpt>
      <trkpt lat="45.08773" lon="6.44005">
        <ele>2028.3</ele>
        <time>2022-07-16T11:43:09+0200</time>
      </trkpt>
      <trkpt lat="45.08776" lon="6.44012">
        <ele>2029.2</ele>
        <time>2022-07-16T11:43:13+0200</time>
      </trkpt>
      <trkpt lat="45.08776" lon="6.4402">
        <ele>2030.1</ele>
        <time>2022-07-16T11:43:17+0200</time>
      </trkpt>
      <trkpt lat="45.08773" lon="6.44028">
        <ele>2031.1</ele>
        <time>2022-07-16T11:43:20+0200</time>
      </trkpt>
      <trkpt lat="45.0877" lon="6.44036">
        <ele>2032.2</ele>
        <time>2022-07-16T11:43:23+0200</time>
      </trkpt>
      <trkpt lat="45.08768" lon="6.44041">
        <ele>2033</ele>
        <time>2022-07-16T11:43:26+0200</time>
      </trkpt>
      <trkpt lat="45.08765" lon="6.44047">
        <ele>2033.9</ele>
        <time>2022-07-16T11:43:30+0200</time>
      </trkpt>
      <trkpt lat="45.08763" lon="6.44055">
        <ele>2034.8</ele>
        <time>2022-07-16T11:43:34+0200</time>
      </trkpt>
      <trkpt lat="45.08759" lon="6.44061">
        <ele>2035.4</ele>
        <time>2022-07-16T11:43:38+0200</time>
      </trkpt>
      <trkpt lat="45.08757" lon="6.44068">
        <ele>2036</ele>
        <time>2022-07-16T11:43:42+0200</time>
      </trkpt>
      <trkpt lat="45.08755" lon="6.44075">
        <ele>2036.6</ele>
        <time>2022-07-16T11:43:45+0200</time>
      </trkpt>
      <trkpt lat="45.08753" lon="6.44082">
        <ele>2037.1</ele>
        <time>2022-07-16T11:43:48+0200</time>
      </trkpt>
      <trkpt lat="45.0875" lon="6.44089">
        <ele>2038</ele>
        <time>2022-07-16T11:43:53+0200</time>
      </trkpt>
      <trkpt lat="45.08744" lon="6.44092">
        <ele>2038.1</ele>
        <time>2022-07-16T11:43:57+0200</time>
      </trkpt>
      <trkpt lat="45.08741" lon="6.44096">
        <ele>2038.5</ele>
        <time>2022-07-16T11:44:00+0200</time>
      </trkpt>
      <trkpt lat="45.08737" lon="6.44103">
        <ele>2039.3</ele>
        <time>2022-07-16T11:44:03+0200</time>
      </trkpt>
      <trkpt lat="45.08734" lon="6.4411">
        <ele>2040</ele>
        <time>2022-07-16T11:44:07+0200</time>
      </trkpt>
      <trkpt lat="45.08731" lon="6.44116">
        <ele>2040.4</ele>
        <time>2022-07-16T11:44:10+0200</time>
      </trkpt>
      <trkpt lat="45.08725" lon="6.4412">
        <ele>2040.3</ele>
        <time>2022-07-16T11:44:13+0200</time>
      </trkpt>
      <trkpt lat="45.08722" lon="6.44128">
        <ele>2040.8</ele>
        <time>2022-07-16T11:44:17+0200</time>
      </trkpt>
      <trkpt lat="45.08718" lon="6.44134">
        <ele>2041</ele>
        <time>2022-07-16T11:44:20+0200</time>
      </trkpt>
      <trkpt lat="45.08715" lon="6.4414">
        <ele>2041.6</ele>
        <time>2022-07-16T11:44:23+0200</time>
      </trkpt>
      <trkpt lat="45.08711" lon="6.44148">
        <ele>2042.4</ele>
        <time>2022-07-16T11:44:26+0200</time>
      </trkpt>
      <trkpt lat="45.08707" lon="6.44154">
        <ele>2042.8</ele>
        <time>2022-07-16T11:44:29+0200</time>
      </trkpt>
      <trkpt lat="45.08704" lon="6.44161">
        <ele>2043.3</ele>
        <time>2022-07-16T11:44:32+0200</time>
      </trkpt>
      <trkpt lat="45.08701" lon="6.44169">
        <ele>2044</ele>
        <time>2022-07-16T11:44:35+0200</time>
      </trkpt>
      <trkpt lat="45.08698" lon="6.44176">
        <ele>2044.1</ele>
        <time>2022-07-16T11:44:38+0200</time>
      </trkpt>
      <trkpt lat="45.08696" lon="6.44182">
        <ele>2044.2</ele>
        <time>2022-07-16T11:44:40+0200</time>
      </trkpt>
      <trkpt lat="45.08694" lon="6.44189">
        <ele>2044.5</ele>
        <time>2022-07-16T11:44:42+0200</time>
      </trkpt>
      <trkpt lat="45.08692" lon="6.44195">
        <ele>2044.7</ele>
        <time>2022-07-16T11:44:44+0200</time>
      </trkpt>
      <trkpt lat="45.08689" lon="6.44201">
        <ele>2045</ele>
        <time>2022-07-16T11:44:46+0200</time>
      </trkpt>
      <trkpt lat="45.08687" lon="6.44209">
        <ele>2045.4</ele>
        <time>2022-07-16T11:44:48+0200</time>
      </trkpt>
      <trkpt lat="45.08684" lon="6.44217">
        <ele>2046</ele>
        <time>2022-07-16T11:44:51+0200</time>
      </trkpt>
      <trkpt lat="45.08682" lon="6.44224">
        <ele>2046.5</ele>
        <time>2022-07-16T11:44:53+0200</time>
      </trkpt>
      <trkpt lat="45.0868" lon="6.44231">
        <ele>2046.9</ele>
        <time>2022-07-16T11:44:56+0200</time>
      </trkpt>
      <trkpt lat="45.08679" lon="6.44238">
        <ele>2047.5</ele>
        <time>2022-07-16T11:44:58+0200</time>
      </trkpt>
      <trkpt lat="45.08678" lon="6.44246">
        <ele>2048.2</ele>
        <time>2022-07-16T11:45:01+0200</time>
      </trkpt>
      <trkpt lat="45.08678" lon="6.44253">
        <ele>2048.9</ele>
        <time>2022-07-16T11:45:03+0200</time>
      </trkpt>
      <trkpt lat="45.08676" lon="6.4426">
        <ele>2049.3</ele>
        <time>2022-07-16T11:45:06+0200</time>
      </trkpt>
      <trkpt lat="45.08674" lon="6.44267">
        <ele>2049.9</ele>
        <time>2022-07-16T11:45:08+0200</time>
      </trkpt>
      <trkpt lat="45.08673" lon="6.44273">
        <ele>2050.5</ele>
        <time>2022-07-16T11:45:10+0200</time>
      </trkpt>
      <trkpt lat="45.08672" lon="6.44279">
        <ele>2050.8</ele>
        <time>2022-07-16T11:45:13+0200</time>
      </trkpt>
      <trkpt lat="45.08669" lon="6.44285">
        <ele>2050.6</ele>
        <time>2022-07-16T11:45:16+0200</time>
      </trkpt>
      <trkpt lat="45.08668" lon="6.44291">
        <ele>2050.6</ele>
        <time>2022-07-16T11:45:18+0200</time>
      </trkpt>
      <trkpt lat="45.08667" lon="6.44297">
        <ele>2050.7</ele>
        <time>2022-07-16T11:45:21+0200</time>
      </trkpt>
      <trkpt lat="45.08665" lon="6.44304">
        <ele>2050</ele>
        <time>2022-07-16T11:45:24+0200</time>
      </trkpt>
      <trkpt lat="45.08663" lon="6.44312">
        <ele>2050</ele>
        <time>2022-07-16T11:45:27+0200</time>
      </trkpt>
      <trkpt lat="45.08662" lon="6.44321">
        <ele>2050.6</ele>
        <time>2022-07-16T11:45:30+0200</time>
      </trkpt>
      <trkpt lat="45.08661" lon="6.44329">
        <ele>2050.8</ele>
        <time>2022-07-16T11:45:33+0200</time>
      </trkpt>
      <trkpt lat="45.0866" lon="6.44338">
        <ele>2051.7</ele>
        <time>2022-07-16T11:45:36+0200</time>
      </trkpt>
      <trkpt lat="45.08659" lon="6.44346">
        <ele>2052.9</ele>
        <time>2022-07-16T11:45:39+0200</time>
      </trkpt>
      <trkpt lat="45.08657" lon="6.44354">
        <ele>2053.8</ele>
        <time>2022-07-16T11:45:42+0200</time>
      </trkpt>
      <trkpt lat="45.08657" lon="6.44363">
        <ele>2055.3</ele>
        <time>2022-07-16T11:45:45+0200</time>
      </trkpt>
      <trkpt lat="45.08654" lon="6.4437">
        <ele>2055.3</ele>
        <time>2022-07-16T11:45:48+0200</time>
      </trkpt>
      <trkpt lat="45.08652" lon="6.44378">
        <ele>2055.2</ele>
        <time>2022-07-16T11:45:50+0200</time>
      </trkpt>
      <trkpt lat="45.08651" lon="6.44387">
        <ele>2055.7</ele>
        <time>2022-07-16T11:45:53+0200</time>
      </trkpt>
      <trkpt lat="45.0865" lon="6.44396">
        <ele>2055.7</ele>
        <time>2022-07-16T11:45:56+0200</time>
      </trkpt>
      <trkpt lat="45.0865" lon="6.44403">
        <ele>2055.8</ele>
        <time>2022-07-16T11:45:58+0200</time>
      </trkpt>
      <trkpt lat="45.08649" lon="6.44412">
        <ele>2055.8</ele>
        <time>2022-07-16T11:46:01+0200</time>
      </trkpt>
      <trkpt lat="45.0865" lon="6.44419">
        <ele>2055.9</ele>
        <time>2022-07-16T11:46:03+0200</time>
      </trkpt>
      <trkpt lat="45.08652" lon="6.44426">
        <ele>2056.3</ele>
        <time>2022-07-16T11:46:05+0200</time>
      </trkpt>
      <trkpt lat="45.08653" lon="6.44434">
        <ele>2056.6</ele>
        <time>2022-07-16T11:46:07+0200</time>
      </trkpt>
      <trkpt lat="45.08654" lon="6.44441">
        <ele>2056.6</ele>
        <time>2022-07-16T11:46:09+0200</time>
      </trkpt>
      <trkpt lat="45.08653" lon="6.44448">
        <ele>2056.6</ele>
        <time>2022-07-16T11:46:11+0200</time>
      </trkpt>
      <trkpt lat="45.08652" lon="6.44456">
        <ele>2056.7</ele>
        <time>2022-07-16T11:46:13+0200</time>
      </trkpt>
      <trkpt lat="45.08649" lon="6.44464">
        <ele>2056.6</ele>
        <time>2022-07-16T11:46:16+0200</time>
      </trkpt>
      <trkpt lat="45.08648" lon="6.44472">
        <ele>2056.6</ele>
        <time>2022-07-16T11:46:18+0200</time>
      </trkpt>
      <trkpt lat="45.08645" lon="6.44477">
        <ele>2056.9</ele>
        <time>2022-07-16T11:46:20+0200</time>
      </trkpt>
      <trkpt lat="45.08643" lon="6.44483">
        <ele>2057.4</ele>
        <time>2022-07-16T11:46:22+0200</time>
      </trkpt>
      <trkpt lat="45.0864" lon="6.4449">
        <ele>2057.9</ele>
        <time>2022-07-16T11:46:24+0200</time>
      </trkpt>
      <trkpt lat="45.08637" lon="6.44496">
        <ele>2058.2</ele>
        <time>2022-07-16T11:46:27+0200</time>
      </trkpt>
      <trkpt lat="45.08633" lon="6.44502">
        <ele>2059.2</ele>
        <time>2022-07-16T11:46:30+0200</time>
      </trkpt>
      <trkpt lat="45.08629" lon="6.44508">
        <ele>2060.4</ele>
        <time>2022-07-16T11:46:33+0200</time>
      </trkpt>
      <trkpt lat="45.08626" lon="6.44514">
        <ele>2061.7</ele>
        <time>2022-07-16T11:46:36+0200</time>
      </trkpt>
      <trkpt lat="45.08623" lon="6.44521">
        <ele>2062.9</ele>
        <time>2022-07-16T11:46:39+0200</time>
      </trkpt>
      <trkpt lat="45.08619" lon="6.44525">
        <ele>2063.5</ele>
        <time>2022-07-16T11:46:42+0200</time>
      </trkpt>
      <trkpt lat="45.08615" lon="6.4453">
        <ele>2064</ele>
        <time>2022-07-16T11:46:45+0200</time>
      </trkpt>
      <trkpt lat="45.0861" lon="6.44534">
        <ele>2064.1</ele>
        <time>2022-07-16T11:46:49+0200</time>
      </trkpt>
      <trkpt lat="45.08606" lon="6.44541">
        <ele>2065.1</ele>
        <time>2022-07-16T11:46:52+0200</time>
      </trkpt>
      <trkpt lat="45.08602" lon="6.44547">
        <ele>2066</ele>
        <time>2022-07-16T11:46:55+0200</time>
      </trkpt>
      <trkpt lat="45.086" lon="6.44554">
        <ele>2067</ele>
        <time>2022-07-16T11:46:58+0200</time>
      </trkpt>
      <trkpt lat="45.08597" lon="6.4456">
        <ele>2067.6</ele>
        <time>2022-07-16T11:47:00+0200</time>
      </trkpt>
      <trkpt lat="45.08594" lon="6.44566">
        <ele>2068.3</ele>
        <time>2022-07-16T11:47:03+0200</time>
      </trkpt>
      <trkpt lat="45.08591" lon="6.4457">
        <ele>2068.4</ele>
        <time>2022-07-16T11:47:05+0200</time>
      </trkpt>
      <trkpt lat="45.08587" lon="6.44576">
        <ele>2068.7</ele>
        <time>2022-07-16T11:47:08+0200</time>
      </trkpt>
      <trkpt lat="45.08585" lon="6.44584">
        <ele>2069.5</ele>
        <time>2022-07-16T11:47:11+0200</time>
      </trkpt>
      <trkpt lat="45.08582" lon="6.44591">
        <ele>2070.2</ele>
        <time>2022-07-16T11:47:15+0200</time>
      </trkpt>
      <trkpt lat="45.08579" lon="6.44597">
        <ele>2070.7</ele>
        <time>2022-07-16T11:47:18+0200</time>
      </trkpt>
      <trkpt lat="45.08576" lon="6.44603">
        <ele>2071.4</ele>
        <time>2022-07-16T11:47:21+0200</time>
      </trkpt>
      <trkpt lat="45.08573" lon="6.44609">
        <ele>2072.1</ele>
        <time>2022-07-16T11:47:24+0200</time>
      </trkpt>
      <trkpt lat="45.08569" lon="6.44615">
        <ele>2072.5</ele>
        <time>2022-07-16T11:47:27+0200</time>
      </trkpt>
      <trkpt lat="45.08566" lon="6.44622">
        <ele>2072.9</ele>
        <time>2022-07-16T11:47:30+0200</time>
      </trkpt>
      <trkpt lat="45.08563" lon="6.44629">
        <ele>2073.1</ele>
        <time>2022-07-16T11:47:33+0200</time>
      </trkpt>
      <trkpt lat="45.08559" lon="6.44637">
        <ele>2073.5</ele>
        <time>2022-07-16T11:47:36+0200</time>
      </trkpt>
      <trkpt lat="45.08557" lon="6.44644">
        <ele>2073.8</ele>
        <time>2022-07-16T11:47:39+0200</time>
      </trkpt>
      <trkpt lat="45.08555" lon="6.44652">
        <ele>2074.2</ele>
        <time>2022-07-16T11:47:41+0200</time>
      </trkpt>
      <trkpt lat="45.08552" lon="6.44659">
        <ele>2074.6</ele>
        <time>2022-07-16T11:47:43+0200</time>
      </trkpt>
      <trkpt lat="45.0855" lon="6.44665">
        <ele>2075</ele>
        <time>2022-07-16T11:47:45+0200</time>
      </trkpt>
      <trkpt lat="45.08547" lon="6.44672">
        <ele>2075.2</ele>
        <time>2022-07-16T11:47:48+0200</time>
      </trkpt>
      <trkpt lat="45.08545" lon="6.4468">
        <ele>2075.6</ele>
        <time>2022-07-16T11:47:51+0200</time>
      </trkpt>
      <trkpt lat="45.08542" lon="6.44686">
        <ele>2075.8</ele>
        <time>2022-07-16T11:47:53+0200</time>
      </trkpt>
      <trkpt lat="45.08539" lon="6.44694">
        <ele>2076.2</ele>
        <time>2022-07-16T11:47:56+0200</time>
      </trkpt>
      <trkpt lat="45.08536" lon="6.447">
        <ele>2076.2</ele>
        <time>2022-07-16T11:47:58+0200</time>
      </trkpt>
      <trkpt lat="45.08536" lon="6.44708">
        <ele>2076.7</ele>
        <time>2022-07-16T11:48:01+0200</time>
      </trkpt>
      <trkpt lat="45.08534" lon="6.44716">
        <ele>2076.7</ele>
        <time>2022-07-16T11:48:04+0200</time>
      </trkpt>
      <trkpt lat="45.08534" lon="6.44725">
        <ele>2077.2</ele>
        <time>2022-07-16T11:48:07+0200</time>
      </trkpt>
      <trkpt lat="45.08532" lon="6.44732">
        <ele>2077.5</ele>
        <time>2022-07-16T11:48:10+0200</time>
      </trkpt>
      <trkpt lat="45.08531" lon="6.4474">
        <ele>2077.9</ele>
        <time>2022-07-16T11:48:13+0200</time>
      </trkpt>
      <trkpt lat="45.08531" lon="6.44747">
        <ele>2078.4</ele>
        <time>2022-07-16T11:48:16+0200</time>
      </trkpt>
      <trkpt lat="45.08531" lon="6.44756">
        <ele>2079.2</ele>
        <time>2022-07-16T11:48:19+0200</time>
      </trkpt>
      <trkpt lat="45.08531" lon="6.44764">
        <ele>2080.1</ele>
        <time>2022-07-16T11:48:22+0200</time>
      </trkpt>
      <trkpt lat="45.08531" lon="6.44773">
        <ele>2081</ele>
        <time>2022-07-16T11:48:25+0200</time>
      </trkpt>
      <trkpt lat="45.0853" lon="6.44781">
        <ele>2081.6</ele>
        <time>2022-07-16T11:48:28+0200</time>
      </trkpt>
      <trkpt lat="45.08528" lon="6.44789">
        <ele>2081.5</ele>
        <time>2022-07-16T11:48:31+0200</time>
      </trkpt>
      <trkpt lat="45.08528" lon="6.44796">
        <ele>2081.6</ele>
        <time>2022-07-16T11:48:34+0200</time>
      </trkpt>
      <trkpt lat="45.08528" lon="6.44802">
        <ele>2081.8</ele>
        <time>2022-07-16T11:48:36+0200</time>
      </trkpt>
      <trkpt lat="45.08529" lon="6.4481">
        <ele>2082.5</ele>
        <time>2022-07-16T11:48:39+0200</time>
      </trkpt>
      <trkpt lat="45.08529" lon="6.44818">
        <ele>2083</ele>
        <time>2022-07-16T11:48:42+0200</time>
      </trkpt>
      <trkpt lat="45.08529" lon="6.44825">
        <ele>2083.5</ele>
        <time>2022-07-16T11:48:45+0200</time>
      </trkpt>
      <trkpt lat="45.08529" lon="6.44833">
        <ele>2084.2</ele>
        <time>2022-07-16T11:48:48+0200</time>
      </trkpt>
      <trkpt lat="45.08529" lon="6.44842">
        <ele>2084.8</ele>
        <time>2022-07-16T11:48:51+0200</time>
      </trkpt>
      <trkpt lat="45.08528" lon="6.44848">
        <ele>2085.2</ele>
        <time>2022-07-16T11:48:53+0200</time>
      </trkpt>
      <trkpt lat="45.08528" lon="6.44856">
        <ele>2085.6</ele>
        <time>2022-07-16T11:48:56+0200</time>
      </trkpt>
      <trkpt lat="45.08527" lon="6.44864">
        <ele>2086.1</ele>
        <time>2022-07-16T11:48:59+0200</time>
      </trkpt>
      <trkpt lat="45.08526" lon="6.44871">
        <ele>2086.5</ele>
        <time>2022-07-16T11:49:02+0200</time>
      </trkpt>
      <trkpt lat="45.08525" lon="6.44878">
        <ele>2086.9</ele>
        <time>2022-07-16T11:49:05+0200</time>
      </trkpt>
      <trkpt lat="45.08525" lon="6.44887">
        <ele>2087.4</ele>
        <time>2022-07-16T11:49:08+0200</time>
      </trkpt>
      <trkpt lat="45.08525" lon="6.44893">
        <ele>2087.9</ele>
        <time>2022-07-16T11:49:10+0200</time>
      </trkpt>
      <trkpt lat="45.08524" lon="6.44901">
        <ele>2088.3</ele>
        <time>2022-07-16T11:49:13+0200</time>
      </trkpt>
      <trkpt lat="45.08523" lon="6.4491">
        <ele>2088.8</ele>
        <time>2022-07-16T11:49:16+0200</time>
      </trkpt>
      <trkpt lat="45.08522" lon="6.44917">
        <ele>2089.2</ele>
        <time>2022-07-16T11:49:18+0200</time>
      </trkpt>
      <trkpt lat="45.08521" lon="6.44925">
        <ele>2089.9</ele>
        <time>2022-07-16T11:49:22+0200</time>
      </trkpt>
      <trkpt lat="45.08521" lon="6.44932">
        <ele>2090.5</ele>
        <time>2022-07-16T11:49:25+0200</time>
      </trkpt>
      <trkpt lat="45.0852" lon="6.4494">
        <ele>2091.2</ele>
        <time>2022-07-16T11:49:29+0200</time>
      </trkpt>
      <trkpt lat="45.08521" lon="6.44947">
        <ele>2092</ele>
        <time>2022-07-16T11:49:32+0200</time>
      </trkpt>
      <trkpt lat="45.08521" lon="6.44954">
        <ele>2092.8</ele>
        <time>2022-07-16T11:49:35+0200</time>
      </trkpt>
      <trkpt lat="45.08521" lon="6.44962">
        <ele>2093.5</ele>
        <time>2022-07-16T11:49:38+0200</time>
      </trkpt>
      <trkpt lat="45.0852" lon="6.4497">
        <ele>2094.1</ele>
        <time>2022-07-16T11:49:42+0200</time>
      </trkpt>
      <trkpt lat="45.0852" lon="6.44977">
        <ele>2094.8</ele>
        <time>2022-07-16T11:49:45+0200</time>
      </trkpt>
      <trkpt lat="45.0852" lon="6.44984">
        <ele>2095.6</ele>
        <time>2022-07-16T11:49:49+0200</time>
      </trkpt>
      <trkpt lat="45.0852" lon="6.44991">
        <ele>2096.3</ele>
        <time>2022-07-16T11:49:52+0200</time>
      </trkpt>
      <trkpt lat="45.08522" lon="6.44998">
        <ele>2097.2</ele>
        <time>2022-07-16T11:49:55+0200</time>
      </trkpt>
      <trkpt lat="45.08521" lon="6.45004">
        <ele>2097.7</ele>
        <time>2022-07-16T11:49:58+0200</time>
      </trkpt>
      <trkpt lat="45.08519" lon="6.45011">
        <ele>2098.1</ele>
        <time>2022-07-16T11:50:02+0200</time>
      </trkpt>
      <trkpt lat="45.08518" lon="6.45018">
        <ele>2098.6</ele>
        <time>2022-07-16T11:50:05+0200</time>
      </trkpt>
      <trkpt lat="45.08516" lon="6.45024">
        <ele>2098.7</ele>
        <time>2022-07-16T11:50:09+0200</time>
      </trkpt>
      <trkpt lat="45.08515" lon="6.45031">
        <ele>2099.6</ele>
        <time>2022-07-16T11:50:13+0200</time>
      </trkpt>
      <trkpt lat="45.08511" lon="6.45036">
        <ele>2100.2</ele>
        <time>2022-07-16T11:50:16+0200</time>
      </trkpt>
      <trkpt lat="45.08508" lon="6.45042">
        <ele>2100.8</ele>
        <time>2022-07-16T11:50:19+0200</time>
      </trkpt>
      <trkpt lat="45.08505" lon="6.45048">
        <ele>2101.1</ele>
        <time>2022-07-16T11:50:22+0200</time>
      </trkpt>
      <trkpt lat="45.08502" lon="6.45053">
        <ele>2101.1</ele>
        <time>2022-07-16T11:50:25+0200</time>
      </trkpt>
      <trkpt lat="45.08499" lon="6.45059">
        <ele>2101.9</ele>
        <time>2022-07-16T11:50:28+0200</time>
      </trkpt>
      <trkpt lat="45.08496" lon="6.45064">
        <ele>2103</ele>
        <time>2022-07-16T11:50:31+0200</time>
      </trkpt>
      <trkpt lat="45.08493" lon="6.4507">
        <ele>2104.3</ele>
        <time>2022-07-16T11:50:34+0200</time>
      </trkpt>
      <trkpt lat="45.08489" lon="6.45075">
        <ele>2104.6</ele>
        <time>2022-07-16T11:50:37+0200</time>
      </trkpt>
      <trkpt lat="45.08485" lon="6.45082">
        <ele>2105.3</ele>
        <time>2022-07-16T11:50:40+0200</time>
      </trkpt>
      <trkpt lat="45.08482" lon="6.45086">
        <ele>2105.1</ele>
        <time>2022-07-16T11:50:43+0200</time>
      </trkpt>
      <trkpt lat="45.08479" lon="6.45094">
        <ele>2106.6</ele>
        <time>2022-07-16T11:50:46+0200</time>
      </trkpt>
      <trkpt lat="45.08476" lon="6.45098">
        <ele>2106.3</ele>
        <time>2022-07-16T11:50:49+0200</time>
      </trkpt>
      <trkpt lat="45.08473" lon="6.45106">
        <ele>2107</ele>
        <time>2022-07-16T11:50:52+0200</time>
      </trkpt>
      <trkpt lat="45.0847" lon="6.4511">
        <ele>2107.5</ele>
        <time>2022-07-16T11:50:55+0200</time>
      </trkpt>
      <trkpt lat="45.08466" lon="6.45118">
        <ele>2109.5</ele>
        <time>2022-07-16T11:50:59+0200</time>
      </trkpt>
      <trkpt lat="45.08463" lon="6.45123">
        <ele>2110.2</ele>
        <time>2022-07-16T11:51:02+0200</time>
      </trkpt>
      <trkpt lat="45.08459" lon="6.45127">
        <ele>2110.7</ele>
        <time>2022-07-16T11:51:05+0200</time>
      </trkpt>
      <trkpt lat="45.08455" lon="6.45132">
        <ele>2111.1</ele>
        <time>2022-07-16T11:51:08+0200</time>
      </trkpt>
      <trkpt lat="45.0845" lon="6.45137">
        <ele>2111.3</ele>
        <time>2022-07-16T11:51:11+0200</time>
      </trkpt>
      <trkpt lat="45.08446" lon="6.45141">
        <ele>2111</ele>
        <time>2022-07-16T11:51:14+0200</time>
      </trkpt>
      <trkpt lat="45.08442" lon="6.45146">
        <ele>2111.2</ele>
        <time>2022-07-16T11:51:17+0200</time>
      </trkpt>
      <trkpt lat="45.08437" lon="6.45153">
        <ele>2112</ele>
        <time>2022-07-16T11:51:21+0200</time>
      </trkpt>
      <trkpt lat="45.08434" lon="6.45158">
        <ele>2112.5</ele>
        <time>2022-07-16T11:51:24+0200</time>
      </trkpt>
      <trkpt lat="45.0843" lon="6.45164">
        <ele>2113</ele>
        <time>2022-07-16T11:51:28+0200</time>
      </trkpt>
      <trkpt lat="45.08426" lon="6.4517">
        <ele>2113.5</ele>
        <time>2022-07-16T11:51:32+0200</time>
      </trkpt>
      <trkpt lat="45.08423" lon="6.45176">
        <ele>2114.2</ele>
        <time>2022-07-16T11:51:36+0200</time>
      </trkpt>
      <trkpt lat="45.08422" lon="6.45184">
        <ele>2115</ele>
        <time>2022-07-16T11:51:39+0200</time>
      </trkpt>
      <trkpt lat="45.08422" lon="6.4519">
        <ele>2116</ele>
        <time>2022-07-16T11:51:42+0200</time>
      </trkpt>
      <trkpt lat="45.08419" lon="6.45198">
        <ele>2116.4</ele>
        <time>2022-07-16T11:51:46+0200</time>
      </trkpt>
      <trkpt lat="45.08416" lon="6.45203">
        <ele>2116.8</ele>
        <time>2022-07-16T11:51:49+0200</time>
      </trkpt>
      <trkpt lat="45.08413" lon="6.45209">
        <ele>2118.1</ele>
        <time>2022-07-16T11:51:52+0200</time>
      </trkpt>
      <trkpt lat="45.0841" lon="6.45214">
        <ele>2118.9</ele>
        <time>2022-07-16T11:51:55+0200</time>
      </trkpt>
      <trkpt lat="45.08406" lon="6.45219">
        <ele>2119.7</ele>
        <time>2022-07-16T11:51:58+0200</time>
      </trkpt>
      <trkpt lat="45.08401" lon="6.45226">
        <ele>2120.9</ele>
        <time>2022-07-16T11:52:01+0200</time>
      </trkpt>
      <trkpt lat="45.08398" lon="6.4523">
        <ele>2121.5</ele>
        <time>2022-07-16T11:52:04+0200</time>
      </trkpt>
      <trkpt lat="45.08394" lon="6.45234">
        <ele>2121.4</ele>
        <time>2022-07-16T11:52:07+0200</time>
      </trkpt>
      <trkpt lat="45.08388" lon="6.45231">
        <ele>2120.4</ele>
        <time>2022-07-16T11:52:11+0200</time>
      </trkpt>
      <trkpt lat="45.08385" lon="6.45226">
        <ele>2121.2</ele>
        <time>2022-07-16T11:52:14+0200</time>
      </trkpt>
      <trkpt lat="45.08384" lon="6.45219">
        <ele>2120.9</ele>
        <time>2022-07-16T11:52:17+0200</time>
      </trkpt>
      <trkpt lat="45.08384" lon="6.45211">
        <ele>2120.2</ele>
        <time>2022-07-16T11:52:20+0200</time>
      </trkpt>
      <trkpt lat="45.08384" lon="6.45204">
        <ele>2119.5</ele>
        <time>2022-07-16T11:52:23+0200</time>
      </trkpt>
      <trkpt lat="45.08384" lon="6.45196">
        <ele>2118.6</ele>
        <time>2022-07-16T11:52:26+0200</time>
      </trkpt>
      <trkpt lat="45.08385" lon="6.45188">
        <ele>2117.6</ele>
        <time>2022-07-16T11:52:29+0200</time>
      </trkpt>
      <trkpt lat="45.08383" lon="6.4518">
        <ele>2118.4</ele>
        <time>2022-07-16T11:52:32+0200</time>
      </trkpt>
      <trkpt lat="45.08382" lon="6.4517">
        <ele>2118.5</ele>
        <time>2022-07-16T11:52:35+0200</time>
      </trkpt>
      <trkpt lat="45.0838" lon="6.45163">
        <ele>2119.1</ele>
        <time>2022-07-16T11:52:37+0200</time>
      </trkpt>
      <trkpt lat="45.08377" lon="6.45158">
        <ele>2120</ele>
        <time>2022-07-16T11:52:39+0200</time>
      </trkpt>
      <trkpt lat="45.08373" lon="6.45154">
        <ele>2120.9</ele>
        <time>2022-07-16T11:52:41+0200</time>
      </trkpt>
      <trkpt lat="45.08368" lon="6.4515">
        <ele>2121.6</ele>
        <time>2022-07-16T11:52:43+0200</time>
      </trkpt>
      <trkpt lat="45.08363" lon="6.45151">
        <ele>2122.7</ele>
        <time>2022-07-16T11:52:45+0200</time>
      </trkpt>
      <trkpt lat="45.08358" lon="6.45151">
        <ele>2123</ele>
        <time>2022-07-16T11:52:47+0200</time>
      </trkpt>
      <trkpt lat="45.08353" lon="6.45153">
        <ele>2123.4</ele>
        <time>2022-07-16T11:52:49+0200</time>
      </trkpt>
      <trkpt lat="45.08348" lon="6.45156">
        <ele>2123.9</ele>
        <time>2022-07-16T11:52:51+0200</time>
      </trkpt>
      <trkpt lat="45.08342" lon="6.45159">
        <ele>2124.4</ele>
        <time>2022-07-16T11:52:53+0200</time>
      </trkpt>
      <trkpt lat="45.08336" lon="6.45161">
        <ele>2124.8</ele>
        <time>2022-07-16T11:52:56+0200</time>
      </trkpt>
      <trkpt lat="45.08332" lon="6.45164">
        <ele>2125.4</ele>
        <time>2022-07-16T11:52:58+0200</time>
      </trkpt>
      <trkpt lat="45.08325" lon="6.45167">
        <ele>2126</ele>
        <time>2022-07-16T11:53:01+0200</time>
      </trkpt>
      <trkpt lat="45.0832" lon="6.45172">
        <ele>2126.2</ele>
        <time>2022-07-16T11:53:03+0200</time>
      </trkpt>
      <trkpt lat="45.08314" lon="6.45176">
        <ele>2126.2</ele>
        <time>2022-07-16T11:53:05+0200</time>
      </trkpt>
      <trkpt lat="45.08308" lon="6.45182">
        <ele>2126.1</ele>
        <time>2022-07-16T11:53:07+0200</time>
      </trkpt>
      <trkpt lat="45.08304" lon="6.45188">
        <ele>2125.8</ele>
        <time>2022-07-16T11:53:09+0200</time>
      </trkpt>
      <trkpt lat="45.08299" lon="6.45193">
        <ele>2125.3</ele>
        <time>2022-07-16T11:53:11+0200</time>
      </trkpt>
      <trkpt lat="45.08297" lon="6.45201">
        <ele>2125.2</ele>
        <time>2022-07-16T11:53:13+0200</time>
      </trkpt>
      <trkpt lat="45.08293" lon="6.45207">
        <ele>2125.3</ele>
        <time>2022-07-16T11:53:15+0200</time>
      </trkpt>
      <trkpt lat="45.08291" lon="6.45214">
        <ele>2125.5</ele>
        <time>2022-07-16T11:53:17+0200</time>
      </trkpt>
      <trkpt lat="45.08288" lon="6.45222">
        <ele>2126</ele>
        <time>2022-07-16T11:53:20+0200</time>
      </trkpt>
      <trkpt lat="45.08285" lon="6.4523">
        <ele>2126.8</ele>
        <time>2022-07-16T11:53:23+0200</time>
      </trkpt>
      <trkpt lat="45.08283" lon="6.45236">
        <ele>2127.5</ele>
        <time>2022-07-16T11:53:25+0200</time>
      </trkpt>
      <trkpt lat="45.08281" lon="6.45243">
        <ele>2128.3</ele>
        <time>2022-07-16T11:53:28+0200</time>
      </trkpt>
      <trkpt lat="45.08279" lon="6.45249">
        <ele>2128.9</ele>
        <time>2022-07-16T11:53:30+0200</time>
      </trkpt>
      <trkpt lat="45.08277" lon="6.45258">
        <ele>2130.1</ele>
        <time>2022-07-16T11:53:33+0200</time>
      </trkpt>
      <trkpt lat="45.08273" lon="6.45263">
        <ele>2131.1</ele>
        <time>2022-07-16T11:53:38+0200</time>
      </trkpt>
      <trkpt lat="45.08272" lon="6.45271">
        <ele>2132.4</ele>
        <time>2022-07-16T11:53:41+0200</time>
      </trkpt>
      <trkpt lat="45.0827" lon="6.45277">
        <ele>2133.4</ele>
        <time>2022-07-16T11:53:44+0200</time>
      </trkpt>
      <trkpt lat="45.08267" lon="6.45286">
        <ele>2134</ele>
        <time>2022-07-16T11:53:47+0200</time>
      </trkpt>
      <trkpt lat="45.08265" lon="6.45293">
        <ele>2134.4</ele>
        <time>2022-07-16T11:53:50+0200</time>
      </trkpt>
      <trkpt lat="45.08263" lon="6.45301">
        <ele>2135</ele>
        <time>2022-07-16T11:53:53+0200</time>
      </trkpt>
      <trkpt lat="45.08261" lon="6.45307">
        <ele>2135.3</ele>
        <time>2022-07-16T11:53:55+0200</time>
      </trkpt>
      <trkpt lat="45.08259" lon="6.45314">
        <ele>2135.3</ele>
        <time>2022-07-16T11:53:57+0200</time>
      </trkpt>
      <trkpt lat="45.08258" lon="6.45323">
        <ele>2135.2</ele>
        <time>2022-07-16T11:54:00+0200</time>
      </trkpt>
      <trkpt lat="45.08257" lon="6.45332">
        <ele>2134.8</ele>
        <time>2022-07-16T11:54:03+0200</time>
      </trkpt>
      <trkpt lat="45.08257" lon="6.4534">
        <ele>2134.8</ele>
        <time>2022-07-16T11:54:05+0200</time>
      </trkpt>
      <trkpt lat="45.08257" lon="6.45349">
        <ele>2134.8</ele>
        <time>2022-07-16T11:54:08+0200</time>
      </trkpt>
      <trkpt lat="45.08258" lon="6.45357">
        <ele>2134.8</ele>
        <time>2022-07-16T11:54:11+0200</time>
      </trkpt>
      <trkpt lat="45.08258" lon="6.45365">
        <ele>2134.8</ele>
        <time>2022-07-16T11:54:14+0200</time>
      </trkpt>
      <trkpt lat="45.08262" lon="6.45371">
        <ele>2135.3</ele>
        <time>2022-07-16T11:54:17+0200</time>
      </trkpt>
      <trkpt lat="45.08266" lon="6.45378">
        <ele>2135.8</ele>
        <time>2022-07-16T11:54:21+0200</time>
      </trkpt>
      <trkpt lat="45.08272" lon="6.45379">
        <ele>2136.7</ele>
        <time>2022-07-16T11:54:24+0200</time>
      </trkpt>
      <trkpt lat="45.08277" lon="6.45377">
        <ele>2137.4</ele>
        <time>2022-07-16T11:54:28+0200</time>
      </trkpt>
      <trkpt lat="45.08283" lon="6.45376">
        <ele>2139.2</ele>
        <time>2022-07-16T11:54:32+0200</time>
      </trkpt>
      <trkpt lat="45.08288" lon="6.45375">
        <ele>2140.7</ele>
        <time>2022-07-16T11:54:36+0200</time>
      </trkpt>
      <trkpt lat="45.08292" lon="6.45372">
        <ele>2141.4</ele>
        <time>2022-07-16T11:54:39+0200</time>
      </trkpt>
      <trkpt lat="45.08296" lon="6.45369">
        <ele>2142</ele>
        <time>2022-07-16T11:54:42+0200</time>
      </trkpt>
      <trkpt lat="45.08301" lon="6.45369">
        <ele>2143.5</ele>
        <time>2022-07-16T11:54:46+0200</time>
      </trkpt>
      <trkpt lat="45.08306" lon="6.45365">
        <ele>2143.4</ele>
        <time>2022-07-16T11:54:50+0200</time>
      </trkpt>
      <trkpt lat="45.08311" lon="6.45363">
        <ele>2143.9</ele>
        <time>2022-07-16T11:54:53+0200</time>
      </trkpt>
      <trkpt lat="45.08316" lon="6.45362">
        <ele>2145.1</ele>
        <time>2022-07-16T11:54:57+0200</time>
      </trkpt>
      <trkpt lat="45.08322" lon="6.45361">
        <ele>2146.1</ele>
        <time>2022-07-16T11:55:03+0200</time>
      </trkpt>
      <trkpt lat="45.08326" lon="6.45361">
        <ele>2147.2</ele>
        <time>2022-07-16T11:55:09+0200</time>
      </trkpt>
      <trkpt lat="45.08331" lon="6.45359">
        <ele>2148</ele>
        <time>2022-07-16T11:55:12+0200</time>
      </trkpt>
      <trkpt lat="45.08336" lon="6.45357">
        <ele>2149.1</ele>
        <time>2022-07-16T11:55:16+0200</time>
      </trkpt>
      <trkpt lat="45.08342" lon="6.45355">
        <ele>2150.7</ele>
        <time>2022-07-16T11:55:20+0200</time>
      </trkpt>
      <trkpt lat="45.08346" lon="6.45353">
        <ele>2151.7</ele>
        <time>2022-07-16T11:55:24+0200</time>
      </trkpt>
      <trkpt lat="45.08352" lon="6.45351">
        <ele>2152.6</ele>
        <time>2022-07-16T11:55:27+0200</time>
      </trkpt>
      <trkpt lat="45.08356" lon="6.45348">
        <ele>2152.9</ele>
        <time>2022-07-16T11:55:31+0200</time>
      </trkpt>
      <trkpt lat="45.08361" lon="6.45346">
        <ele>2153.6</ele>
        <time>2022-07-16T11:55:36+0200</time>
      </trkpt>
      <trkpt lat="45.08365" lon="6.45342">
        <ele>2153.6</ele>
        <time>2022-07-16T11:55:39+0200</time>
      </trkpt>
      <trkpt lat="45.0837" lon="6.45339">
        <ele>2153.9</ele>
        <time>2022-07-16T11:55:42+0200</time>
      </trkpt>
      <trkpt lat="45.08375" lon="6.45335">
        <ele>2154.6</ele>
        <time>2022-07-16T11:55:45+0200</time>
      </trkpt>
      <trkpt lat="45.08381" lon="6.45332">
        <ele>2155.8</ele>
        <time>2022-07-16T11:55:48+0200</time>
      </trkpt>
      <trkpt lat="45.08385" lon="6.45329">
        <ele>2156.7</ele>
        <time>2022-07-16T11:55:51+0200</time>
      </trkpt>
      <trkpt lat="45.08389" lon="6.45325">
        <ele>2156.8</ele>
        <time>2022-07-16T11:55:54+0200</time>
      </trkpt>
      <trkpt lat="45.08394" lon="6.45323">
        <ele>2157.5</ele>
        <time>2022-07-16T11:55:57+0200</time>
      </trkpt>
      <trkpt lat="45.08399" lon="6.45319">
        <ele>2157.8</ele>
        <time>2022-07-16T11:56:01+0200</time>
      </trkpt>
      <trkpt lat="45.08404" lon="6.45317">
        <ele>2158.6</ele>
        <time>2022-07-16T11:56:05+0200</time>
      </trkpt>
      <trkpt lat="45.0841" lon="6.45312">
        <ele>2158.9</ele>
        <time>2022-07-16T11:56:09+0200</time>
      </trkpt>
      <trkpt lat="45.08414" lon="6.45309">
        <ele>2159.2</ele>
        <time>2022-07-16T11:56:12+0200</time>
      </trkpt>
      <trkpt lat="45.08419" lon="6.45307">
        <ele>2159.8</ele>
        <time>2022-07-16T11:56:16+0200</time>
      </trkpt>
      <trkpt lat="45.08425" lon="6.45304">
        <ele>2159.4</ele>
        <time>2022-07-16T11:56:20+0200</time>
      </trkpt>
      <trkpt lat="45.08429" lon="6.45301">
        <ele>2159</ele>
        <time>2022-07-16T11:56:23+0200</time>
      </trkpt>
      <trkpt lat="45.08434" lon="6.45298">
        <ele>2158.9</ele>
        <time>2022-07-16T11:56:27+0200</time>
      </trkpt>
      <trkpt lat="45.08439" lon="6.45298">
        <ele>2159.5</ele>
        <time>2022-07-16T11:56:30+0200</time>
      </trkpt>
      <trkpt lat="45.08444" lon="6.45299">
        <ele>2160.6</ele>
        <time>2022-07-16T11:56:33+0200</time>
      </trkpt>
      <trkpt lat="45.08445" lon="6.45308">
        <ele>2163.1</ele>
        <time>2022-07-16T11:56:37+0200</time>
      </trkpt>
      <trkpt lat="45.08441" lon="6.45312">
        <ele>2164.4</ele>
        <time>2022-07-16T11:56:41+0200</time>
      </trkpt>
      <trkpt lat="45.08437" lon="6.45316">
        <ele>2165.4</ele>
        <time>2022-07-16T11:56:44+0200</time>
      </trkpt>
      <trkpt lat="45.08431" lon="6.45318">
        <ele>2165.3</ele>
        <time>2022-07-16T11:56:48+0200</time>
      </trkpt>
      <trkpt lat="45.08426" lon="6.45321">
        <ele>2165.4</ele>
        <time>2022-07-16T11:56:51+0200</time>
      </trkpt>
      <trkpt lat="45.08421" lon="6.45324">
        <ele>2165.5</ele>
        <time>2022-07-16T11:56:54+0200</time>
      </trkpt>
      <trkpt lat="45.08416" lon="6.45328">
        <ele>2165.8</ele>
        <time>2022-07-16T11:56:57+0200</time>
      </trkpt>
      <trkpt lat="45.08411" lon="6.45333">
        <ele>2166.1</ele>
        <time>2022-07-16T11:57:00+0200</time>
      </trkpt>
      <trkpt lat="45.08407" lon="6.45337">
        <ele>2166.5</ele>
        <time>2022-07-16T11:57:03+0200</time>
      </trkpt>
      <trkpt lat="45.08404" lon="6.45343">
        <ele>2167.8</ele>
        <time>2022-07-16T11:57:07+0200</time>
      </trkpt>
      <trkpt lat="45.084" lon="6.45348">
        <ele>2168.7</ele>
        <time>2022-07-16T11:57:10+0200</time>
      </trkpt>
      <trkpt lat="45.08397" lon="6.45353">
        <ele>2169.6</ele>
        <time>2022-07-16T11:57:14+0200</time>
      </trkpt>
      <trkpt lat="45.08394" lon="6.45358">
        <ele>2170.5</ele>
        <time>2022-07-16T11:57:17+0200</time>
      </trkpt>
      <trkpt lat="45.0839" lon="6.45364">
        <ele>2171.3</ele>
        <time>2022-07-16T11:57:20+0200</time>
      </trkpt>
      <trkpt lat="45.08386" lon="6.45369">
        <ele>2171.9</ele>
        <time>2022-07-16T11:57:23+0200</time>
      </trkpt>
      <trkpt lat="45.08383" lon="6.45374">
        <ele>2173</ele>
        <time>2022-07-16T11:57:26+0200</time>
      </trkpt>
      <trkpt lat="45.08379" lon="6.45378">
        <ele>2173.4</ele>
        <time>2022-07-16T11:57:29+0200</time>
      </trkpt>
      <trkpt lat="45.08375" lon="6.45384">
        <ele>2174.3</ele>
        <time>2022-07-16T11:57:33+0200</time>
      </trkpt>
      <trkpt lat="45.08371" lon="6.45389">
        <ele>2175</ele>
        <time>2022-07-16T11:57:37+0200</time>
      </trkpt>
      <trkpt lat="45.08367" lon="6.45393">
        <ele>2175.1</ele>
        <time>2022-07-16T11:57:40+0200</time>
      </trkpt>
      <trkpt lat="45.08363" lon="6.45399">
        <ele>2175.6</ele>
        <time>2022-07-16T11:57:43+0200</time>
      </trkpt>
      <trkpt lat="45.08359" lon="6.45405">
        <ele>2176.3</ele>
        <time>2022-07-16T11:57:47+0200</time>
      </trkpt>
      <trkpt lat="45.08355" lon="6.45408">
        <ele>2176.4</ele>
        <time>2022-07-16T11:57:50+0200</time>
      </trkpt>
      <trkpt lat="45.08351" lon="6.45414">
        <ele>2177</ele>
        <time>2022-07-16T11:57:54+0200</time>
      </trkpt>
      <trkpt lat="45.08348" lon="6.45418">
        <ele>2177.6</ele>
        <time>2022-07-16T11:57:57+0200</time>
      </trkpt>
      <trkpt lat="45.08344" lon="6.45423">
        <ele>2177.6</ele>
        <time>2022-07-16T11:58:00+0200</time>
      </trkpt>
      <trkpt lat="45.08341" lon="6.45426">
        <ele>2177.3</ele>
        <time>2022-07-16T11:58:04+0200</time>
      </trkpt>
      <trkpt lat="45.08336" lon="6.45431">
        <ele>2177.1</ele>
        <time>2022-07-16T11:58:07+0200</time>
      </trkpt>
      <trkpt lat="45.08331" lon="6.45436">
        <ele>2176.7</ele>
        <time>2022-07-16T11:58:11+0200</time>
      </trkpt>
      <trkpt lat="45.08327" lon="6.45441">
        <ele>2176.9</ele>
        <time>2022-07-16T11:58:15+0200</time>
      </trkpt>
      <trkpt lat="45.08324" lon="6.45445">
        <ele>2177.5</ele>
        <time>2022-07-16T11:58:42+0200</time>
      </trkpt>
      <trkpt lat="45.08328" lon="6.45449">
        <ele>2179.7</ele>
        <time>2022-07-16T11:59:49+0200</time>
      </trkpt>
      <trkpt lat="45.08334" lon="6.45449">
        <ele>2181.1</ele>
        <time>2022-07-16T11:59:53+0200</time>
      </trkpt>
      <trkpt lat="45.08338" lon="6.45445">
        <ele>2180.9</ele>
        <time>2022-07-16T11:59:57+0200</time>
      </trkpt>
      <trkpt lat="45.08341" lon="6.4544">
        <ele>2180.7</ele>
        <time>2022-07-16T12:00:00+0200</time>
      </trkpt>
      <trkpt lat="45.08346" lon="6.45434">
        <ele>2181.1</ele>
        <time>2022-07-16T12:00:03+0200</time>
      </trkpt>
      <trkpt lat="45.0835" lon="6.45429">
        <ele>2181.1</ele>
        <time>2022-07-16T12:00:06+0200</time>
      </trkpt>
      <trkpt lat="45.08356" lon="6.45424">
        <ele>2181.5</ele>
        <time>2022-07-16T12:00:09+0200</time>
      </trkpt>
      <trkpt lat="45.08362" lon="6.45422">
        <ele>2182.7</ele>
        <time>2022-07-16T12:00:12+0200</time>
      </trkpt>
      <trkpt lat="45.08368" lon="6.45421">
        <ele>2183.1</ele>
        <time>2022-07-16T12:00:15+0200</time>
      </trkpt>
      <trkpt lat="45.08374" lon="6.45419">
        <ele>2183.5</ele>
        <time>2022-07-16T12:00:18+0200</time>
      </trkpt>
      <trkpt lat="45.0838" lon="6.45419">
        <ele>2184.4</ele>
        <time>2022-07-16T12:00:21+0200</time>
      </trkpt>
      <trkpt lat="45.08385" lon="6.45416">
        <ele>2184.3</ele>
        <time>2022-07-16T12:00:24+0200</time>
      </trkpt>
      <trkpt lat="45.08389" lon="6.45413">
        <ele>2184.5</ele>
        <time>2022-07-16T12:00:26+0200</time>
      </trkpt>
      <trkpt lat="45.08395" lon="6.45413">
        <ele>2185.2</ele>
        <time>2022-07-16T12:00:29+0200</time>
      </trkpt>
      <trkpt lat="45.08401" lon="6.45409">
        <ele>2185.7</ele>
        <time>2022-07-16T12:00:32+0200</time>
      </trkpt>
      <trkpt lat="45.08405" lon="6.45406">
        <ele>2185.9</ele>
        <time>2022-07-16T12:00:34+0200</time>
      </trkpt>
      <trkpt lat="45.08411" lon="6.45404">
        <ele>2186.7</ele>
        <time>2022-07-16T12:00:37+0200</time>
      </trkpt>
      <trkpt lat="45.08416" lon="6.45401">
        <ele>2187.2</ele>
        <time>2022-07-16T12:00:40+0200</time>
      </trkpt>
      <trkpt lat="45.08422" lon="6.45401">
        <ele>2187.9</ele>
        <time>2022-07-16T12:00:43+0200</time>
      </trkpt>
      <trkpt lat="45.08427" lon="6.454">
        <ele>2188.6</ele>
        <time>2022-07-16T12:00:46+0200</time>
      </trkpt>
      <trkpt lat="45.08431" lon="6.45406">
        <ele>2190</ele>
        <time>2022-07-16T12:00:49+0200</time>
      </trkpt>
      <trkpt lat="45.08428" lon="6.45411">
        <ele>2190.5</ele>
        <time>2022-07-16T12:00:52+0200</time>
      </trkpt>
      <trkpt lat="45.08424" lon="6.45415">
        <ele>2190.3</ele>
        <time>2022-07-16T12:00:55+0200</time>
      </trkpt>
      <trkpt lat="45.08417" lon="6.45419">
        <ele>2189.9</ele>
        <time>2022-07-16T12:00:58+0200</time>
      </trkpt>
      <trkpt lat="45.08413" lon="6.45421">
        <ele>2189.9</ele>
        <time>2022-07-16T12:01:01+0200</time>
      </trkpt>
      <trkpt lat="45.08408" lon="6.45427">
        <ele>2191.3</ele>
        <time>2022-07-16T12:01:04+0200</time>
      </trkpt>
      <trkpt lat="45.08404" lon="6.45433">
        <ele>2192.5</ele>
        <time>2022-07-16T12:01:07+0200</time>
      </trkpt>
      <trkpt lat="45.084" lon="6.45439">
        <ele>2193.5</ele>
        <time>2022-07-16T12:01:11+0200</time>
      </trkpt>
      <trkpt lat="45.08396" lon="6.45444">
        <ele>2194.3</ele>
        <time>2022-07-16T12:01:15+0200</time>
      </trkpt>
      <trkpt lat="45.08391" lon="6.45449">
        <ele>2195</ele>
        <time>2022-07-16T12:01:19+0200</time>
      </trkpt>
      <trkpt lat="45.08386" lon="6.45454">
        <ele>2195.6</ele>
        <time>2022-07-16T12:01:22+0200</time>
      </trkpt>
      <trkpt lat="45.08381" lon="6.45456">
        <ele>2195.4</ele>
        <time>2022-07-16T12:01:26+0200</time>
      </trkpt>
      <trkpt lat="45.08376" lon="6.45461">
        <ele>2195.8</ele>
        <time>2022-07-16T12:01:29+0200</time>
      </trkpt>
      <trkpt lat="45.08371" lon="6.45464">
        <ele>2195.7</ele>
        <time>2022-07-16T12:01:31+0200</time>
      </trkpt>
      <trkpt lat="45.08367" lon="6.45469">
        <ele>2196.5</ele>
        <time>2022-07-16T12:01:35+0200</time>
      </trkpt>
      <trkpt lat="45.08364" lon="6.45475">
        <ele>2197.3</ele>
        <time>2022-07-16T12:01:38+0200</time>
      </trkpt>
      <trkpt lat="45.0836" lon="6.45481">
        <ele>2198.3</ele>
        <time>2022-07-16T12:01:42+0200</time>
      </trkpt>
      <trkpt lat="45.08357" lon="6.45487">
        <ele>2199.4</ele>
        <time>2022-07-16T12:01:45+0200</time>
      </trkpt>
      <trkpt lat="45.08353" lon="6.45493">
        <ele>2200.3</ele>
        <time>2022-07-16T12:01:49+0200</time>
      </trkpt>
      <trkpt lat="45.08351" lon="6.45499">
        <ele>2201.3</ele>
        <time>2022-07-16T12:01:52+0200</time>
      </trkpt>
      <trkpt lat="45.08348" lon="6.45506">
        <ele>2202.2</ele>
        <time>2022-07-16T12:01:55+0200</time>
      </trkpt>
      <trkpt lat="45.08342" lon="6.45511">
        <ele>2201.9</ele>
        <time>2022-07-16T12:01:59+0200</time>
      </trkpt>
      <trkpt lat="45.0834" lon="6.45517">
        <ele>2202.1</ele>
        <time>2022-07-16T12:02:02+0200</time>
      </trkpt>
      <trkpt lat="45.08337" lon="6.45523">
        <ele>2202.2</ele>
        <time>2022-07-16T12:02:05+0200</time>
      </trkpt>
      <trkpt lat="45.08333" lon="6.45527">
        <ele>2202</ele>
        <time>2022-07-16T12:02:08+0200</time>
      </trkpt>
      <trkpt lat="45.08329" lon="6.45533">
        <ele>2203.2</ele>
        <time>2022-07-16T12:02:12+0200</time>
      </trkpt>
      <trkpt lat="45.08325" lon="6.45539">
        <ele>2204.4</ele>
        <time>2022-07-16T12:02:16+0200</time>
      </trkpt>
      <trkpt lat="45.08321" lon="6.45542">
        <ele>2204.8</ele>
        <time>2022-07-16T12:02:19+0200</time>
      </trkpt>
      <trkpt lat="45.08317" lon="6.45548">
        <ele>2205.5</ele>
        <time>2022-07-16T12:02:23+0200</time>
      </trkpt>
      <trkpt lat="45.08313" lon="6.45552">
        <ele>2205.7</ele>
        <time>2022-07-16T12:02:26+0200</time>
      </trkpt>
      <trkpt lat="45.08309" lon="6.45556">
        <ele>2205.6</ele>
        <time>2022-07-16T12:02:28+0200</time>
      </trkpt>
      <trkpt lat="45.08305" lon="6.4556">
        <ele>2205.6</ele>
        <time>2022-07-16T12:02:32+0200</time>
      </trkpt>
      <trkpt lat="45.08301" lon="6.45564">
        <ele>2205.9</ele>
        <time>2022-07-16T12:02:36+0200</time>
      </trkpt>
      <trkpt lat="45.08298" lon="6.45569">
        <ele>2206.3</ele>
        <time>2022-07-16T12:02:39+0200</time>
      </trkpt>
      <trkpt lat="45.08297" lon="6.45576">
        <ele>2207.4</ele>
        <time>2022-07-16T12:02:42+0200</time>
      </trkpt>
      <trkpt lat="45.08301" lon="6.45581">
        <ele>2208.5</ele>
        <time>2022-07-16T12:02:45+0200</time>
      </trkpt>
      <trkpt lat="45.08306" lon="6.45583">
        <ele>2208.9</ele>
        <time>2022-07-16T12:02:48+0200</time>
      </trkpt>
      <trkpt lat="45.0831" lon="6.4558">
        <ele>2209.9</ele>
        <time>2022-07-16T12:02:51+0200</time>
      </trkpt>
      <trkpt lat="45.08314" lon="6.45577">
        <ele>2210.8</ele>
        <time>2022-07-16T12:02:55+0200</time>
      </trkpt>
      <trkpt lat="45.08319" lon="6.45573">
        <ele>2211.7</ele>
        <time>2022-07-16T12:02:59+0200</time>
      </trkpt>
      <trkpt lat="45.08325" lon="6.4557">
        <ele>2212.3</ele>
        <time>2022-07-16T12:03:03+0200</time>
      </trkpt>
      <trkpt lat="45.08329" lon="6.4557">
        <ele>2213.4</ele>
        <time>2022-07-16T12:03:06+0200</time>
      </trkpt>
      <trkpt lat="45.08334" lon="6.45567">
        <ele>2214</ele>
        <time>2022-07-16T12:03:09+0200</time>
      </trkpt>
      <trkpt lat="45.08339" lon="6.45565">
        <ele>2214.6</ele>
        <time>2022-07-16T12:03:12+0200</time>
      </trkpt>
      <trkpt lat="45.08344" lon="6.45565">
        <ele>2215.6</ele>
        <time>2022-07-16T12:03:15+0200</time>
      </trkpt>
      <trkpt lat="45.08349" lon="6.45562">
        <ele>2215.7</ele>
        <time>2022-07-16T12:03:18+0200</time>
      </trkpt>
      <trkpt lat="45.08354" lon="6.45557">
        <ele>2215.6</ele>
        <time>2022-07-16T12:03:22+0200</time>
      </trkpt>
      <trkpt lat="45.08359" lon="6.45556">
        <ele>2216.6</ele>
        <time>2022-07-16T12:03:26+0200</time>
      </trkpt>
      <trkpt lat="45.08365" lon="6.45553">
        <ele>2217.2</ele>
        <time>2022-07-16T12:03:29+0200</time>
      </trkpt>
      <trkpt lat="45.0837" lon="6.4555">
        <ele>2218</ele>
        <time>2022-07-16T12:03:32+0200</time>
      </trkpt>
      <trkpt lat="45.08376" lon="6.45548">
        <ele>2218.7</ele>
        <time>2022-07-16T12:03:36+0200</time>
      </trkpt>
      <trkpt lat="45.08381" lon="6.45547">
        <ele>2219.4</ele>
        <time>2022-07-16T12:03:39+0200</time>
      </trkpt>
      <trkpt lat="45.08387" lon="6.45546">
        <ele>2220.6</ele>
        <time>2022-07-16T12:03:43+0200</time>
      </trkpt>
      <trkpt lat="45.08392" lon="6.45544">
        <ele>2221</ele>
        <time>2022-07-16T12:03:46+0200</time>
      </trkpt>
      <trkpt lat="45.08397" lon="6.45545">
        <ele>2221.4</ele>
        <time>2022-07-16T12:03:49+0200</time>
      </trkpt>
      <trkpt lat="45.08402" lon="6.45544">
        <ele>2221.6</ele>
        <time>2022-07-16T12:03:52+0200</time>
      </trkpt>
      <trkpt lat="45.08407" lon="6.45546">
        <ele>2222.3</ele>
        <time>2022-07-16T12:03:55+0200</time>
      </trkpt>
      <trkpt lat="45.08413" lon="6.45546">
        <ele>2222.7</ele>
        <time>2022-07-16T12:03:59+0200</time>
      </trkpt>
      <trkpt lat="45.08418" lon="6.45548">
        <ele>2223.5</ele>
        <time>2022-07-16T12:04:03+0200</time>
      </trkpt>
      <trkpt lat="45.08424" lon="6.45548">
        <ele>2224.5</ele>
        <time>2022-07-16T12:04:07+0200</time>
      </trkpt>
      <trkpt lat="45.08428" lon="6.45546">
        <ele>2224.9</ele>
        <time>2022-07-16T12:04:11+0200</time>
      </trkpt>
      <trkpt lat="45.08433" lon="6.4554">
        <ele>2224.7</ele>
        <time>2022-07-16T12:04:15+0200</time>
      </trkpt>
      <trkpt lat="45.08437" lon="6.45536">
        <ele>2224.7</ele>
        <time>2022-07-16T12:04:18+0200</time>
      </trkpt>
      <trkpt lat="45.08442" lon="6.45536">
        <ele>2225.8</ele>
        <time>2022-07-16T12:04:21+0200</time>
      </trkpt>
      <trkpt lat="45.08447" lon="6.4554">
        <ele>2227.2</ele>
        <time>2022-07-16T12:04:24+0200</time>
      </trkpt>
      <trkpt lat="45.08448" lon="6.45546">
        <ele>2228.4</ele>
        <time>2022-07-16T12:04:27+0200</time>
      </trkpt>
      <trkpt lat="45.08445" lon="6.45552">
        <ele>2228.7</ele>
        <time>2022-07-16T12:04:30+0200</time>
      </trkpt>
      <trkpt lat="45.0844" lon="6.45553">
        <ele>2228</ele>
        <time>2022-07-16T12:04:34+0200</time>
      </trkpt>
      <trkpt lat="45.08435" lon="6.45558">
        <ele>2228.4</ele>
        <time>2022-07-16T12:04:38+0200</time>
      </trkpt>
      <trkpt lat="45.08431" lon="6.45563">
        <ele>2228.9</ele>
        <time>2022-07-16T12:04:41+0200</time>
      </trkpt>
      <trkpt lat="45.08427" lon="6.45568">
        <ele>2229.3</ele>
        <time>2022-07-16T12:04:44+0200</time>
      </trkpt>
      <trkpt lat="45.08423" lon="6.45573">
        <ele>2229.9</ele>
        <time>2022-07-16T12:04:48+0200</time>
      </trkpt>
      <trkpt lat="45.0842" lon="6.45578">
        <ele>2230.5</ele>
        <time>2022-07-16T12:04:51+0200</time>
      </trkpt>
      <trkpt lat="45.08417" lon="6.45584">
        <ele>2231.4</ele>
        <time>2022-07-16T12:04:55+0200</time>
      </trkpt>
      <trkpt lat="45.08414" lon="6.45589">
        <ele>2232.3</ele>
        <time>2022-07-16T12:04:58+0200</time>
      </trkpt>
      <trkpt lat="45.08409" lon="6.45592">
        <ele>2233</ele>
        <time>2022-07-16T12:05:01+0200</time>
      </trkpt>
      <trkpt lat="45.08405" lon="6.45596">
        <ele>2233.6</ele>
        <time>2022-07-16T12:05:04+0200</time>
      </trkpt>
      <trkpt lat="45.084" lon="6.45598">
        <ele>2233.8</ele>
        <time>2022-07-16T12:05:07+0200</time>
      </trkpt>
      <trkpt lat="45.08395" lon="6.45603">
        <ele>2234.3</ele>
        <time>2022-07-16T12:05:11+0200</time>
      </trkpt>
      <trkpt lat="45.0839" lon="6.45606">
        <ele>2234.4</ele>
        <time>2022-07-16T12:05:14+0200</time>
      </trkpt>
      <trkpt lat="45.08386" lon="6.4561">
        <ele>2234.5</ele>
        <time>2022-07-16T12:05:17+0200</time>
      </trkpt>
      <trkpt lat="45.08382" lon="6.45615">
        <ele>2235.1</ele>
        <time>2022-07-16T12:05:21+0200</time>
      </trkpt>
      <trkpt lat="45.08379" lon="6.45618">
        <ele>2235.7</ele>
        <time>2022-07-16T12:05:24+0200</time>
      </trkpt>
      <trkpt lat="45.08374" lon="6.45624">
        <ele>2236.5</ele>
        <time>2022-07-16T12:05:29+0200</time>
      </trkpt>
      <trkpt lat="45.08371" lon="6.4563">
        <ele>2237.9</ele>
        <time>2022-07-16T12:05:33+0200</time>
      </trkpt>
      <trkpt lat="45.08373" lon="6.45638">
        <ele>2240</ele>
        <time>2022-07-16T12:05:38+0200</time>
      </trkpt>
      <trkpt lat="45.08377" lon="6.45641">
        <ele>2241.3</ele>
        <time>2022-07-16T12:05:41+0200</time>
      </trkpt>
      <trkpt lat="45.08382" lon="6.45639">
        <ele>2241.4</ele>
        <time>2022-07-16T12:05:45+0200</time>
      </trkpt>
      <trkpt lat="45.08387" lon="6.45639">
        <ele>2241.8</ele>
        <time>2022-07-16T12:05:49+0200</time>
      </trkpt>
      <trkpt lat="45.08392" lon="6.45639">
        <ele>2242</ele>
        <time>2022-07-16T12:05:52+0200</time>
      </trkpt>
      <trkpt lat="45.08398" lon="6.45638">
        <ele>2242.1</ele>
        <time>2022-07-16T12:05:56+0200</time>
      </trkpt>
      <trkpt lat="45.08403" lon="6.45639">
        <ele>2242.4</ele>
        <time>2022-07-16T12:05:59+0200</time>
      </trkpt>
      <trkpt lat="45.08407" lon="6.4564">
        <ele>2242.9</ele>
        <time>2022-07-16T12:06:02+0200</time>
      </trkpt>
      <trkpt lat="45.08412" lon="6.45642">
        <ele>2243.6</ele>
        <time>2022-07-16T12:06:05+0200</time>
      </trkpt>
      <trkpt lat="45.08418" lon="6.45644">
        <ele>2244.1</ele>
        <time>2022-07-16T12:06:08+0200</time>
      </trkpt>
      <trkpt lat="45.08423" lon="6.45645">
        <ele>2244.9</ele>
        <time>2022-07-16T12:06:11+0200</time>
      </trkpt>
      <trkpt lat="45.08428" lon="6.45649">
        <ele>2246.1</ele>
        <time>2022-07-16T12:06:15+0200</time>
      </trkpt>
      <trkpt lat="45.08433" lon="6.4565">
        <ele>2246.8</ele>
        <time>2022-07-16T12:06:19+0200</time>
      </trkpt>
      <trkpt lat="45.08438" lon="6.45649">
        <ele>2247</ele>
        <time>2022-07-16T12:06:23+0200</time>
      </trkpt>
      <trkpt lat="45.08444" lon="6.45648">
        <ele>2247.3</ele>
        <time>2022-07-16T12:06:27+0200</time>
      </trkpt>
      <trkpt lat="45.08449" lon="6.45647">
        <ele>2248</ele>
        <time>2022-07-16T12:06:30+0200</time>
      </trkpt>
      <trkpt lat="45.08454" lon="6.45645">
        <ele>2248.8</ele>
        <time>2022-07-16T12:06:34+0200</time>
      </trkpt>
      <trkpt lat="45.08459" lon="6.45642">
        <ele>2249.3</ele>
        <time>2022-07-16T12:06:37+0200</time>
      </trkpt>
      <trkpt lat="45.08464" lon="6.45636">
        <ele>2249.3</ele>
        <time>2022-07-16T12:06:41+0200</time>
      </trkpt>
      <trkpt lat="45.08469" lon="6.45631">
        <ele>2249.8</ele>
        <time>2022-07-16T12:06:45+0200</time>
      </trkpt>
      <trkpt lat="45.08475" lon="6.45628">
        <ele>2250.4</ele>
        <time>2022-07-16T12:06:49+0200</time>
      </trkpt>
      <trkpt lat="45.08479" lon="6.45627">
        <ele>2250.9</ele>
        <time>2022-07-16T12:06:52+0200</time>
      </trkpt>
      <trkpt lat="45.08484" lon="6.45623">
        <ele>2250.8</ele>
        <time>2022-07-16T12:06:56+0200</time>
      </trkpt>
      <trkpt lat="45.08489" lon="6.45624">
        <ele>2251.6</ele>
        <time>2022-07-16T12:06:59+0200</time>
      </trkpt>
      <trkpt lat="45.08495" lon="6.45624">
        <ele>2252.5</ele>
        <time>2022-07-16T12:07:03+0200</time>
      </trkpt>
      <trkpt lat="45.08499" lon="6.45625">
        <ele>2253.5</ele>
        <time>2022-07-16T12:07:06+0200</time>
      </trkpt>
      <trkpt lat="45.08505" lon="6.45626">
        <ele>2254.7</ele>
        <time>2022-07-16T12:07:09+0200</time>
      </trkpt>
      <trkpt lat="45.0851" lon="6.45625">
        <ele>2255.5</ele>
        <time>2022-07-16T12:07:13+0200</time>
      </trkpt>
      <trkpt lat="45.08516" lon="6.45624">
        <ele>2256.5</ele>
        <time>2022-07-16T12:07:17+0200</time>
      </trkpt>
      <trkpt lat="45.08521" lon="6.45623">
        <ele>2257.2</ele>
        <time>2022-07-16T12:07:20+0200</time>
      </trkpt>
      <trkpt lat="45.08526" lon="6.4562">
        <ele>2257.6</ele>
        <time>2022-07-16T12:07:24+0200</time>
      </trkpt>
      <trkpt lat="45.08529" lon="6.45615">
        <ele>2257.3</ele>
        <time>2022-07-16T12:07:27+0200</time>
      </trkpt>
      <trkpt lat="45.08531" lon="6.45609">
        <ele>2257</ele>
        <time>2022-07-16T12:07:31+0200</time>
      </trkpt>
      <trkpt lat="45.08534" lon="6.45603">
        <ele>2257.8</ele>
        <time>2022-07-16T12:07:34+0200</time>
      </trkpt>
      <trkpt lat="45.08536" lon="6.45597">
        <ele>2258</ele>
        <time>2022-07-16T12:07:37+0200</time>
      </trkpt>
      <trkpt lat="45.0854" lon="6.45593">
        <ele>2258.8</ele>
        <time>2022-07-16T12:07:40+0200</time>
      </trkpt>
      <trkpt lat="45.08544" lon="6.45589">
        <ele>2259.6</ele>
        <time>2022-07-16T12:07:44+0200</time>
      </trkpt>
      <trkpt lat="45.08549" lon="6.45586">
        <ele>2260.6</ele>
        <time>2022-07-16T12:07:48+0200</time>
      </trkpt>
      <trkpt lat="45.08553" lon="6.45582">
        <ele>2260.9</ele>
        <time>2022-07-16T12:07:51+0200</time>
      </trkpt>
      <trkpt lat="45.08557" lon="6.45578">
        <ele>2260.9</ele>
        <time>2022-07-16T12:07:55+0200</time>
      </trkpt>
      <trkpt lat="45.08561" lon="6.45575">
        <ele>2260.5</ele>
        <time>2022-07-16T12:07:58+0200</time>
      </trkpt>
      <trkpt lat="45.08567" lon="6.45573">
        <ele>2260.7</ele>
        <time>2022-07-16T12:08:02+0200</time>
      </trkpt>
      <trkpt lat="45.08571" lon="6.45574">
        <ele>2261.4</ele>
        <time>2022-07-16T12:08:05+0200</time>
      </trkpt>
      <trkpt lat="45.08577" lon="6.45576">
        <ele>2262.6</ele>
        <time>2022-07-16T12:08:09+0200</time>
      </trkpt>
      <trkpt lat="45.08579" lon="6.45581">
        <ele>2264.1</ele>
        <time>2022-07-16T12:08:13+0200</time>
      </trkpt>
      <trkpt lat="45.08577" lon="6.45588">
        <ele>2265.2</ele>
        <time>2022-07-16T12:08:16+0200</time>
      </trkpt>
      <trkpt lat="45.08573" lon="6.45592">
        <ele>2265.6</ele>
        <time>2022-07-16T12:08:19+0200</time>
      </trkpt>
      <trkpt lat="45.08568" lon="6.45595">
        <ele>2265.6</ele>
        <time>2022-07-16T12:08:22+0200</time>
      </trkpt>
      <trkpt lat="45.08563" lon="6.45598">
        <ele>2265.7</ele>
        <time>2022-07-16T12:08:25+0200</time>
      </trkpt>
      <trkpt lat="45.08559" lon="6.45602">
        <ele>2266.4</ele>
        <time>2022-07-16T12:08:28+0200</time>
      </trkpt>
      <trkpt lat="45.08556" lon="6.45606">
        <ele>2267</ele>
        <time>2022-07-16T12:08:31+0200</time>
      </trkpt>
      <trkpt lat="45.08553" lon="6.45612">
        <ele>2266.9</ele>
        <time>2022-07-16T12:08:34+0200</time>
      </trkpt>
      <trkpt lat="45.08552" lon="6.45619">
        <ele>2267.2</ele>
        <time>2022-07-16T12:08:37+0200</time>
      </trkpt>
      <trkpt lat="45.08552" lon="6.45626">
        <ele>2268</ele>
        <time>2022-07-16T12:08:41+0200</time>
      </trkpt>
      <trkpt lat="45.08554" lon="6.45635">
        <ele>2269.3</ele>
        <time>2022-07-16T12:08:45+0200</time>
      </trkpt>
      <trkpt lat="45.08556" lon="6.45641">
        <ele>2270.4</ele>
        <time>2022-07-16T12:08:49+0200</time>
      </trkpt>
      <trkpt lat="45.08556" lon="6.45648">
        <ele>2271.1</ele>
        <time>2022-07-16T12:08:52+0200</time>
      </trkpt>
      <trkpt lat="45.08556" lon="6.45655">
        <ele>2271.9</ele>
        <time>2022-07-16T12:08:55+0200</time>
      </trkpt>
      <trkpt lat="45.08556" lon="6.45662">
        <ele>2272.7</ele>
        <time>2022-07-16T12:08:58+0200</time>
      </trkpt>
      <trkpt lat="45.08555" lon="6.45669">
        <ele>2273.2</ele>
        <time>2022-07-16T12:09:01+0200</time>
      </trkpt>
      <trkpt lat="45.08551" lon="6.45675">
        <ele>2273.9</ele>
        <time>2022-07-16T12:09:06+0200</time>
      </trkpt>
      <trkpt lat="45.08546" lon="6.45678">
        <ele>2274.1</ele>
        <time>2022-07-16T12:09:09+0200</time>
      </trkpt>
      <trkpt lat="45.08542" lon="6.45684">
        <ele>2274.7</ele>
        <time>2022-07-16T12:09:13+0200</time>
      </trkpt>
      <trkpt lat="45.08538" lon="6.45686">
        <ele>2274.9</ele>
        <time>2022-07-16T12:09:16+0200</time>
      </trkpt>
      <trkpt lat="45.08533" lon="6.45691">
        <ele>2275.6</ele>
        <time>2022-07-16T12:09:19+0200</time>
      </trkpt>
      <trkpt lat="45.08529" lon="6.45696">
        <ele>2276.6</ele>
        <time>2022-07-16T12:09:22+0200</time>
      </trkpt>
      <trkpt lat="45.08526" lon="6.45701">
        <ele>2277.1</ele>
        <time>2022-07-16T12:09:25+0200</time>
      </trkpt>
      <trkpt lat="45.08521" lon="6.45706">
        <ele>2277.4</ele>
        <time>2022-07-16T12:09:28+0200</time>
      </trkpt>
      <trkpt lat="45.08518" lon="6.45713">
        <ele>2278.1</ele>
        <time>2022-07-16T12:09:32+0200</time>
      </trkpt>
      <trkpt lat="45.08517" lon="6.4572">
        <ele>2278.9</ele>
        <time>2022-07-16T12:09:35+0200</time>
      </trkpt>
      <trkpt lat="45.08517" lon="6.45727">
        <ele>2279.9</ele>
        <time>2022-07-16T12:09:39+0200</time>
      </trkpt>
      <trkpt lat="45.0852" lon="6.45734">
        <ele>2281.2</ele>
        <time>2022-07-16T12:09:43+0200</time>
      </trkpt>
      <trkpt lat="45.0852" lon="6.45742">
        <ele>2281.9</ele>
        <time>2022-07-16T12:09:47+0200</time>
      </trkpt>
      <trkpt lat="45.0852" lon="6.45751">
        <ele>2282.3</ele>
        <time>2022-07-16T12:09:51+0200</time>
      </trkpt>
      <trkpt lat="45.08518" lon="6.45757">
        <ele>2282.3</ele>
        <time>2022-07-16T12:09:54+0200</time>
      </trkpt>
      <trkpt lat="45.08514" lon="6.45763">
        <ele>2282.2</ele>
        <time>2022-07-16T12:09:57+0200</time>
      </trkpt>
      <trkpt lat="45.08509" lon="6.45768">
        <ele>2282.2</ele>
        <time>2022-07-16T12:10:01+0200</time>
      </trkpt>
      <trkpt lat="45.08505" lon="6.45774">
        <ele>2282.6</ele>
        <time>2022-07-16T12:10:05+0200</time>
      </trkpt>
      <trkpt lat="45.08501" lon="6.45781">
        <ele>2283.3</ele>
        <time>2022-07-16T12:10:08+0200</time>
      </trkpt>
      <trkpt lat="45.085" lon="6.45787">
        <ele>2283.7</ele>
        <time>2022-07-16T12:10:12+0200</time>
      </trkpt>
      <trkpt lat="45.085" lon="6.45794">
        <ele>2284.1</ele>
        <time>2022-07-16T12:10:15+0200</time>
      </trkpt>
      <trkpt lat="45.085" lon="6.45801">
        <ele>2284.7</ele>
        <time>2022-07-16T12:10:18+0200</time>
      </trkpt>
      <trkpt lat="45.08499" lon="6.45809">
        <ele>2285</ele>
        <time>2022-07-16T12:10:22+0200</time>
      </trkpt>
      <trkpt lat="45.08498" lon="6.45817">
        <ele>2285.6</ele>
        <time>2022-07-16T12:10:25+0200</time>
      </trkpt>
      <trkpt lat="45.08497" lon="6.45825">
        <ele>2286</ele>
        <time>2022-07-16T12:10:28+0200</time>
      </trkpt>
      <trkpt lat="45.08494" lon="6.4583">
        <ele>2286.3</ele>
        <time>2022-07-16T12:10:31+0200</time>
      </trkpt>
      <trkpt lat="45.08492" lon="6.45837">
        <ele>2286.9</ele>
        <time>2022-07-16T12:10:34+0200</time>
      </trkpt>
      <trkpt lat="45.08488" lon="6.45841">
        <ele>2287.3</ele>
        <time>2022-07-16T12:10:37+0200</time>
      </trkpt>
      <trkpt lat="45.08483" lon="6.45843">
        <ele>2287.2</ele>
        <time>2022-07-16T12:10:40+0200</time>
      </trkpt>
      <trkpt lat="45.0848" lon="6.45848">
        <ele>2287.7</ele>
        <time>2022-07-16T12:10:44+0200</time>
      </trkpt>
      <trkpt lat="45.08479" lon="6.45855">
        <ele>2288.7</ele>
        <time>2022-07-16T12:10:48+0200</time>
      </trkpt>
      <trkpt lat="45.08481" lon="6.45863">
        <ele>2290.2</ele>
        <time>2022-07-16T12:10:52+0200</time>
      </trkpt>
      <trkpt lat="45.08478" lon="6.45869">
        <ele>2292</ele>
        <time>2022-07-16T12:11:53+0200</time>
      </trkpt>
      <trkpt lat="45.08483" lon="6.4587">
        <ele>2292.5</ele>
        <time>2022-07-16T12:12:22+0200</time>
      </trkpt>
      <trkpt lat="45.08488" lon="6.45869">
        <ele>2292.8</ele>
        <time>2022-07-16T12:13:01+0200</time>
      </trkpt>
      <trkpt lat="45.08494" lon="6.4587">
        <ele>2293.4</ele>
        <time>2022-07-16T12:13:05+0200</time>
      </trkpt>
      <trkpt lat="45.085" lon="6.45867">
        <ele>2293</ele>
        <time>2022-07-16T12:13:11+0200</time>
      </trkpt>
      <trkpt lat="45.08505" lon="6.45867">
        <ele>2293.7</ele>
        <time>2022-07-16T12:13:14+0200</time>
      </trkpt>
      <trkpt lat="45.08511" lon="6.45866">
        <ele>2294.5</ele>
        <time>2022-07-16T12:13:18+0200</time>
      </trkpt>
      <trkpt lat="45.08516" lon="6.45865">
        <ele>2295.3</ele>
        <time>2022-07-16T12:13:21+0200</time>
      </trkpt>
      <trkpt lat="45.08521" lon="6.45863">
        <ele>2295.4</ele>
        <time>2022-07-16T12:13:24+0200</time>
      </trkpt>
      <trkpt lat="45.08526" lon="6.45863">
        <ele>2296.2</ele>
        <time>2022-07-16T12:13:27+0200</time>
      </trkpt>
      <trkpt lat="45.08532" lon="6.45861">
        <ele>2296.6</ele>
        <time>2022-07-16T12:13:30+0200</time>
      </trkpt>
      <trkpt lat="45.08537" lon="6.45859">
        <ele>2297.3</ele>
        <time>2022-07-16T12:13:33+0200</time>
      </trkpt>
      <trkpt lat="45.08542" lon="6.45857">
        <ele>2297.6</ele>
        <time>2022-07-16T12:13:36+0200</time>
      </trkpt>
      <trkpt lat="45.08548" lon="6.45858">
        <ele>2298.9</ele>
        <time>2022-07-16T12:13:39+0200</time>
      </trkpt>
      <trkpt lat="45.08553" lon="6.45856">
        <ele>2299.3</ele>
        <time>2022-07-16T12:13:43+0200</time>
      </trkpt>
      <trkpt lat="45.08558" lon="6.45854">
        <ele>2300.7</ele>
        <time>2022-07-16T12:13:46+0200</time>
      </trkpt>
      <trkpt lat="45.08562" lon="6.45849">
        <ele>2301.5</ele>
        <time>2022-07-16T12:13:49+0200</time>
      </trkpt>
      <trkpt lat="45.08566" lon="6.45846">
        <ele>2302.5</ele>
        <time>2022-07-16T12:13:52+0200</time>
      </trkpt>
      <trkpt lat="45.08568" lon="6.45839">
        <ele>2302.2</ele>
        <time>2022-07-16T12:13:56+0200</time>
      </trkpt>
      <trkpt lat="45.08571" lon="6.45833">
        <ele>2302.4</ele>
        <time>2022-07-16T12:13:59+0200</time>
      </trkpt>
      <trkpt lat="45.08575" lon="6.45827">
        <ele>2303.1</ele>
        <time>2022-07-16T12:14:02+0200</time>
      </trkpt>
      <trkpt lat="45.08578" lon="6.45821">
        <ele>2303.1</ele>
        <time>2022-07-16T12:14:05+0200</time>
      </trkpt>
      <trkpt lat="45.08582" lon="6.45815">
        <ele>2303.6</ele>
        <time>2022-07-16T12:14:08+0200</time>
      </trkpt>
      <trkpt lat="45.08584" lon="6.4581">
        <ele>2303.4</ele>
        <time>2022-07-16T12:14:11+0200</time>
      </trkpt>
      <trkpt lat="45.0859" lon="6.45808">
        <ele>2304.2</ele>
        <time>2022-07-16T12:14:15+0200</time>
      </trkpt>
      <trkpt lat="45.08595" lon="6.45806">
        <ele>2304.9</ele>
        <time>2022-07-16T12:14:18+0200</time>
      </trkpt>
      <trkpt lat="45.086" lon="6.45803">
        <ele>2305.5</ele>
        <time>2022-07-16T12:14:22+0200</time>
      </trkpt>
      <trkpt lat="45.08606" lon="6.45803">
        <ele>2306.8</ele>
        <time>2022-07-16T12:14:25+0200</time>
      </trkpt>
      <trkpt lat="45.08611" lon="6.45804">
        <ele>2308.4</ele>
        <time>2022-07-16T12:14:28+0200</time>
      </trkpt>
      <trkpt lat="45.08616" lon="6.45804">
        <ele>2308.5</ele>
        <time>2022-07-16T12:14:31+0200</time>
      </trkpt>
      <trkpt lat="45.0862" lon="6.45806">
        <ele>2308.8</ele>
        <time>2022-07-16T12:14:34+0200</time>
      </trkpt>
      <trkpt lat="45.08626" lon="6.45807">
        <ele>2308.7</ele>
        <time>2022-07-16T12:14:37+0200</time>
      </trkpt>
      <trkpt lat="45.08631" lon="6.45808">
        <ele>2308.8</ele>
        <time>2022-07-16T12:14:40+0200</time>
      </trkpt>
      <trkpt lat="45.08635" lon="6.45812">
        <ele>2309.5</ele>
        <time>2022-07-16T12:14:43+0200</time>
      </trkpt>
      <trkpt lat="45.0864" lon="6.45815">
        <ele>2310</ele>
        <time>2022-07-16T12:14:47+0200</time>
      </trkpt>
      <trkpt lat="45.08646" lon="6.45818">
        <ele>2310.6</ele>
        <time>2022-07-16T12:14:51+0200</time>
      </trkpt>
      <trkpt lat="45.0865" lon="6.45821">
        <ele>2311.2</ele>
        <time>2022-07-16T12:14:54+0200</time>
      </trkpt>
      <trkpt lat="45.08655" lon="6.45823">
        <ele>2311.6</ele>
        <time>2022-07-16T12:14:57+0200</time>
      </trkpt>
      <trkpt lat="45.0866" lon="6.45826">
        <ele>2312.2</ele>
        <time>2022-07-16T12:15:00+0200</time>
      </trkpt>
      <trkpt lat="45.08665" lon="6.4583">
        <ele>2313.2</ele>
        <time>2022-07-16T12:15:04+0200</time>
      </trkpt>
      <trkpt lat="45.08669" lon="6.45834">
        <ele>2313.6</ele>
        <time>2022-07-16T12:15:07+0200</time>
      </trkpt>
      <trkpt lat="45.08674" lon="6.45839">
        <ele>2313.2</ele>
        <time>2022-07-16T12:15:11+0200</time>
      </trkpt>
      <trkpt lat="45.08678" lon="6.45844">
        <ele>2313.3</ele>
        <time>2022-07-16T12:15:15+0200</time>
      </trkpt>
      <trkpt lat="45.08683" lon="6.45848">
        <ele>2313.2</ele>
        <time>2022-07-16T12:15:19+0200</time>
      </trkpt>
      <trkpt lat="45.08683" lon="6.45856">
        <ele>2314.9</ele>
        <time>2022-07-16T12:15:24+0200</time>
      </trkpt>
      <trkpt lat="45.08683" lon="6.45864">
        <ele>2316.5</ele>
        <time>2022-07-16T12:15:27+0200</time>
      </trkpt>
      <trkpt lat="45.08682" lon="6.45872">
        <ele>2318.4</ele>
        <time>2022-07-16T12:15:30+0200</time>
      </trkpt>
      <trkpt lat="45.08679" lon="6.45877">
        <ele>2319.9</ele>
        <time>2022-07-16T12:15:34+0200</time>
      </trkpt>
      <trkpt lat="45.08674" lon="6.45881">
        <ele>2320.9</ele>
        <time>2022-07-16T12:15:38+0200</time>
      </trkpt>
      <trkpt lat="45.08669" lon="6.45881">
        <ele>2321.1</ele>
        <time>2022-07-16T12:15:41+0200</time>
      </trkpt>
      <trkpt lat="45.08664" lon="6.4588">
        <ele>2321.2</ele>
        <time>2022-07-16T12:15:46+0200</time>
      </trkpt>
      <trkpt lat="45.08659" lon="6.4588">
        <ele>2321.4</ele>
        <time>2022-07-16T12:15:50+0200</time>
      </trkpt>
      <trkpt lat="45.08652" lon="6.45882">
        <ele>2322.2</ele>
        <time>2022-07-16T12:15:54+0200</time>
      </trkpt>
      <trkpt lat="45.08646" lon="6.45883">
        <ele>2322.6</ele>
        <time>2022-07-16T12:15:58+0200</time>
      </trkpt>
      <trkpt lat="45.08641" lon="6.45885">
        <ele>2323.2</ele>
        <time>2022-07-16T12:16:02+0200</time>
      </trkpt>
      <trkpt lat="45.08636" lon="6.45887">
        <ele>2323.6</ele>
        <time>2022-07-16T12:16:06+0200</time>
      </trkpt>
      <trkpt lat="45.08632" lon="6.4589">
        <ele>2324.4</ele>
        <time>2022-07-16T12:16:09+0200</time>
      </trkpt>
      <trkpt lat="45.08628" lon="6.45894">
        <ele>2325.3</ele>
        <time>2022-07-16T12:16:13+0200</time>
      </trkpt>
      <trkpt lat="45.08622" lon="6.45898">
        <ele>2326.1</ele>
        <time>2022-07-16T12:16:16+0200</time>
      </trkpt>
      <trkpt lat="45.08618" lon="6.45901">
        <ele>2326.6</ele>
        <time>2022-07-16T12:16:20+0200</time>
      </trkpt>
      <trkpt lat="45.08613" lon="6.45905">
        <ele>2327.2</ele>
        <time>2022-07-16T12:16:23+0200</time>
      </trkpt>
      <trkpt lat="45.08608" lon="6.45908">
        <ele>2327.2</ele>
        <time>2022-07-16T12:16:27+0200</time>
      </trkpt>
      <trkpt lat="45.08603" lon="6.4591">
        <ele>2327.6</ele>
        <time>2022-07-16T12:16:30+0200</time>
      </trkpt>
      <trkpt lat="45.08599" lon="6.45913">
        <ele>2328</ele>
        <time>2022-07-16T12:16:33+0200</time>
      </trkpt>
      <trkpt lat="45.08594" lon="6.45915">
        <ele>2328.6</ele>
        <time>2022-07-16T12:16:37+0200</time>
      </trkpt>
      <trkpt lat="45.08589" lon="6.45917">
        <ele>2329.3</ele>
        <time>2022-07-16T12:16:40+0200</time>
      </trkpt>
      <trkpt lat="45.08584" lon="6.45921">
        <ele>2330.6</ele>
        <time>2022-07-16T12:16:44+0200</time>
      </trkpt>
      <trkpt lat="45.0858" lon="6.45921">
        <ele>2330.4</ele>
        <time>2022-07-16T12:16:48+0200</time>
      </trkpt>
      <trkpt lat="45.08574" lon="6.45919">
        <ele>2329.3</ele>
        <time>2022-07-16T12:16:52+0200</time>
      </trkpt>
      <trkpt lat="45.0857" lon="6.45922">
        <ele>2329.9</ele>
        <time>2022-07-16T12:16:55+0200</time>
      </trkpt>
      <trkpt lat="45.08566" lon="6.45925">
        <ele>2330.6</ele>
        <time>2022-07-16T12:16:57+0200</time>
      </trkpt>
      <trkpt lat="45.08562" lon="6.45929">
        <ele>2331.4</ele>
        <time>2022-07-16T12:17:00+0200</time>
      </trkpt>
      <trkpt lat="45.08559" lon="6.45934">
        <ele>2332.2</ele>
        <time>2022-07-16T12:17:03+0200</time>
      </trkpt>
      <trkpt lat="45.08556" lon="6.45941">
        <ele>2333.4</ele>
        <time>2022-07-16T12:17:07+0200</time>
      </trkpt>
      <trkpt lat="45.08554" lon="6.45948">
        <ele>2333.9</ele>
        <time>2022-07-16T12:17:11+0200</time>
      </trkpt>
      <trkpt lat="45.08552" lon="6.45956">
        <ele>2333.9</ele>
        <time>2022-07-16T12:17:15+0200</time>
      </trkpt>
      <trkpt lat="45.08551" lon="6.45963">
        <ele>2334.2</ele>
        <time>2022-07-16T12:17:18+0200</time>
      </trkpt>
      <trkpt lat="45.08552" lon="6.45971">
        <ele>2335</ele>
        <time>2022-07-16T12:17:22+0200</time>
      </trkpt>
      <trkpt lat="45.08556" lon="6.45975">
        <ele>2336.4</ele>
        <time>2022-07-16T12:17:25+0200</time>
      </trkpt>
      <trkpt lat="45.08561" lon="6.45973">
        <ele>2338.3</ele>
        <time>2022-07-16T12:17:29+0200</time>
      </trkpt>
      <trkpt lat="45.08565" lon="6.45966">
        <ele>2339.1</ele>
        <time>2022-07-16T12:17:33+0200</time>
      </trkpt>
      <trkpt lat="45.08567" lon="6.4596">
        <ele>2338.9</ele>
        <time>2022-07-16T12:17:37+0200</time>
      </trkpt>
      <trkpt lat="45.08571" lon="6.45954">
        <ele>2338.7</ele>
        <time>2022-07-16T12:17:41+0200</time>
      </trkpt>
      <trkpt lat="45.08575" lon="6.45952">
        <ele>2339.5</ele>
        <time>2022-07-16T12:17:46+0200</time>
      </trkpt>
      <trkpt lat="45.0858" lon="6.45951">
        <ele>2340.2</ele>
        <time>2022-07-16T12:17:50+0200</time>
      </trkpt>
      <trkpt lat="45.08586" lon="6.45949">
        <ele>2340.9</ele>
        <time>2022-07-16T12:17:54+0200</time>
      </trkpt>
      <trkpt lat="45.08591" lon="6.45951">
        <ele>2342.2</ele>
        <time>2022-07-16T12:17:57+0200</time>
      </trkpt>
      <trkpt lat="45.08596" lon="6.4595">
        <ele>2342.5</ele>
        <time>2022-07-16T12:18:00+0200</time>
      </trkpt>
      <trkpt lat="45.086" lon="6.45947">
        <ele>2341.9</ele>
        <time>2022-07-16T12:18:03+0200</time>
      </trkpt>
      <trkpt lat="45.08605" lon="6.45949">
        <ele>2343.1</ele>
        <time>2022-07-16T12:18:06+0200</time>
      </trkpt>
      <trkpt lat="45.08609" lon="6.45952">
        <ele>2344.8</ele>
        <time>2022-07-16T12:18:10+0200</time>
      </trkpt>
      <trkpt lat="45.08614" lon="6.45953">
        <ele>2345.5</ele>
        <time>2022-07-16T12:18:13+0200</time>
      </trkpt>
      <trkpt lat="45.08619" lon="6.45952">
        <ele>2345.5</ele>
        <time>2022-07-16T12:18:17+0200</time>
      </trkpt>
      <trkpt lat="45.08624" lon="6.45955">
        <ele>2346.4</ele>
        <time>2022-07-16T12:18:20+0200</time>
      </trkpt>
      <trkpt lat="45.08628" lon="6.45958">
        <ele>2347.1</ele>
        <time>2022-07-16T12:18:24+0200</time>
      </trkpt>
      <trkpt lat="45.08634" lon="6.45957">
        <ele>2346.8</ele>
        <time>2022-07-16T12:18:29+0200</time>
      </trkpt>
      <trkpt lat="45.08639" lon="6.4596">
        <ele>2347.3</ele>
        <time>2022-07-16T12:18:33+0200</time>
      </trkpt>
      <trkpt lat="45.08644" lon="6.45965">
        <ele>2346.8</ele>
        <time>2022-07-16T12:18:37+0200</time>
      </trkpt>
      <trkpt lat="45.08647" lon="6.45971">
        <ele>2347.3</ele>
        <time>2022-07-16T12:18:40+0200</time>
      </trkpt>
      <trkpt lat="45.08648" lon="6.45978">
        <ele>2347.8</ele>
        <time>2022-07-16T12:18:44+0200</time>
      </trkpt>
      <trkpt lat="45.08648" lon="6.45986">
        <ele>2349</ele>
        <time>2022-07-16T12:18:48+0200</time>
      </trkpt>
      <trkpt lat="45.0865" lon="6.45993">
        <ele>2349.3</ele>
        <time>2022-07-16T12:18:52+0200</time>
      </trkpt>
      <trkpt lat="45.0865" lon="6.45999">
        <ele>2350.4</ele>
        <time>2022-07-16T12:18:55+0200</time>
      </trkpt>
      <trkpt lat="45.08651" lon="6.46006">
        <ele>2351</ele>
        <time>2022-07-16T12:18:58+0200</time>
      </trkpt>
      <trkpt lat="45.08652" lon="6.46015">
        <ele>2352</ele>
        <time>2022-07-16T12:19:02+0200</time>
      </trkpt>
      <trkpt lat="45.08653" lon="6.46021">
        <ele>2352.8</ele>
        <time>2022-07-16T12:19:05+0200</time>
      </trkpt>
      <trkpt lat="45.08658" lon="6.46029">
        <ele>2352.8</ele>
        <time>2022-07-16T12:19:09+0200</time>
      </trkpt>
      <trkpt lat="45.0866" lon="6.46035">
        <ele>2353.4</ele>
        <time>2022-07-16T12:19:12+0200</time>
      </trkpt>
      <trkpt lat="45.08663" lon="6.46041">
        <ele>2353.8</ele>
        <time>2022-07-16T12:19:15+0200</time>
      </trkpt>
      <trkpt lat="45.08666" lon="6.46047">
        <ele>2354.4</ele>
        <time>2022-07-16T12:19:18+0200</time>
      </trkpt>
      <trkpt lat="45.08668" lon="6.46052">
        <ele>2355</ele>
        <time>2022-07-16T12:19:20+0200</time>
      </trkpt>
      <trkpt lat="45.08671" lon="6.46059">
        <ele>2356.2</ele>
        <time>2022-07-16T12:19:24+0200</time>
      </trkpt>
      <trkpt lat="45.08674" lon="6.46065">
        <ele>2357.2</ele>
        <time>2022-07-16T12:19:28+0200</time>
      </trkpt>
      <trkpt lat="45.08677" lon="6.46071">
        <ele>2358</ele>
        <time>2022-07-16T12:19:31+0200</time>
      </trkpt>
      <trkpt lat="45.08679" lon="6.46077">
        <ele>2359.2</ele>
        <time>2022-07-16T12:19:35+0200</time>
      </trkpt>
      <trkpt lat="45.08683" lon="6.46081">
        <ele>2359.3</ele>
        <time>2022-07-16T12:19:38+0200</time>
      </trkpt>
      <trkpt lat="45.08687" lon="6.46086">
        <ele>2359.8</ele>
        <time>2022-07-16T12:19:41+0200</time>
      </trkpt>
      <trkpt lat="45.08691" lon="6.4609">
        <ele>2359.9</ele>
        <time>2022-07-16T12:19:45+0200</time>
      </trkpt>
      <trkpt lat="45.08695" lon="6.46094">
        <ele>2359.8</ele>
        <time>2022-07-16T12:19:49+0200</time>
      </trkpt>
      <trkpt lat="45.087" lon="6.461">
        <ele>2360.9</ele>
        <time>2022-07-16T12:19:53+0200</time>
      </trkpt>
      <trkpt lat="45.08703" lon="6.46106">
        <ele>2362.1</ele>
        <time>2022-07-16T12:19:57+0200</time>
      </trkpt>
      <trkpt lat="45.08707" lon="6.46109">
        <ele>2362.5</ele>
        <time>2022-07-16T12:20:00+0200</time>
      </trkpt>
      <trkpt lat="45.08711" lon="6.46113">
        <ele>2363.3</ele>
        <time>2022-07-16T12:20:04+0200</time>
      </trkpt>
      <trkpt lat="45.08715" lon="6.46117">
        <ele>2364</ele>
        <time>2022-07-16T12:20:08+0200</time>
      </trkpt>
      <trkpt lat="45.0872" lon="6.46121">
        <ele>2364.5</ele>
        <time>2022-07-16T12:20:13+0200</time>
      </trkpt>
      <trkpt lat="45.08726" lon="6.46123">
        <ele>2364.5</ele>
        <time>2022-07-16T12:20:18+0200</time>
      </trkpt>
      <trkpt lat="45.08731" lon="6.46124">
        <ele>2364.5</ele>
        <time>2022-07-16T12:20:22+0200</time>
      </trkpt>
      <trkpt lat="45.08735" lon="6.46126">
        <ele>2364.7</ele>
        <time>2022-07-16T12:20:26+0200</time>
      </trkpt>
      <trkpt lat="45.08739" lon="6.46131">
        <ele>2365.7</ele>
        <time>2022-07-16T12:20:31+0200</time>
      </trkpt>
      <trkpt lat="45.08738" lon="6.46139">
        <ele>2368.3</ele>
        <time>2022-07-16T12:20:35+0200</time>
      </trkpt>
      <trkpt lat="45.08735" lon="6.46144">
        <ele>2369.3</ele>
        <time>2022-07-16T12:20:39+0200</time>
      </trkpt>
      <trkpt lat="45.0873" lon="6.46144">
        <ele>2370.1</ele>
        <time>2022-07-16T12:20:44+0200</time>
      </trkpt>
      <trkpt lat="45.08725" lon="6.46143">
        <ele>2370.7</ele>
        <time>2022-07-16T12:20:51+0200</time>
      </trkpt>
      <trkpt lat="45.0872" lon="6.46143">
        <ele>2371.3</ele>
        <time>2022-07-16T12:20:55+0200</time>
      </trkpt>
      <trkpt lat="45.08715" lon="6.46143">
        <ele>2371.8</ele>
        <time>2022-07-16T12:20:57+0200</time>
      </trkpt>
      <trkpt lat="45.0871" lon="6.46143">
        <ele>2372.5</ele>
        <time>2022-07-16T12:21:00+0200</time>
      </trkpt>
      <trkpt lat="45.08704" lon="6.46143">
        <ele>2373.2</ele>
        <time>2022-07-16T12:21:04+0200</time>
      </trkpt>
      <trkpt lat="45.087" lon="6.46142">
        <ele>2373.3</ele>
        <time>2022-07-16T12:21:08+0200</time>
      </trkpt>
      <trkpt lat="45.08695" lon="6.46141">
        <ele>2373.6</ele>
        <time>2022-07-16T12:21:12+0200</time>
      </trkpt>
      <trkpt lat="45.0869" lon="6.46142">
        <ele>2374.3</ele>
        <time>2022-07-16T12:21:15+0200</time>
      </trkpt>
      <trkpt lat="45.08686" lon="6.46138">
        <ele>2374.1</ele>
        <time>2022-07-16T12:21:20+0200</time>
      </trkpt>
      <trkpt lat="45.0868" lon="6.46138">
        <ele>2374.8</ele>
        <time>2022-07-16T12:21:24+0200</time>
      </trkpt>
      <trkpt lat="45.08673" lon="6.46137">
        <ele>2375.4</ele>
        <time>2022-07-16T12:21:28+0200</time>
      </trkpt>
      <trkpt lat="45.08668" lon="6.46136">
        <ele>2376.1</ele>
        <time>2022-07-16T12:21:32+0200</time>
      </trkpt>
      <trkpt lat="45.08664" lon="6.46139">
        <ele>2377.1</ele>
        <time>2022-07-16T12:21:35+0200</time>
      </trkpt>
      <trkpt lat="45.08658" lon="6.4614">
        <ele>2377.6</ele>
        <time>2022-07-16T12:21:40+0200</time>
      </trkpt>
      <trkpt lat="45.08653" lon="6.4614">
        <ele>2377.7</ele>
        <time>2022-07-16T12:21:43+0200</time>
      </trkpt>
      <trkpt lat="45.08648" lon="6.46142">
        <ele>2378.1</ele>
        <time>2022-07-16T12:21:46+0200</time>
      </trkpt>
      <trkpt lat="45.08642" lon="6.46143">
        <ele>2378.4</ele>
        <time>2022-07-16T12:21:50+0200</time>
      </trkpt>
      <trkpt lat="45.08637" lon="6.46145">
        <ele>2378.4</ele>
        <time>2022-07-16T12:21:53+0200</time>
      </trkpt>
      <trkpt lat="45.08634" lon="6.46151">
        <ele>2378.5</ele>
        <time>2022-07-16T12:21:56+0200</time>
      </trkpt>
      <trkpt lat="45.08632" lon="6.46159">
        <ele>2379</ele>
        <time>2022-07-16T12:22:00+0200</time>
      </trkpt>
      <trkpt lat="45.08632" lon="6.46167">
        <ele>2379.8</ele>
        <time>2022-07-16T12:22:03+0200</time>
      </trkpt>
      <trkpt lat="45.08637" lon="6.46169">
        <ele>2381.1</ele>
        <time>2022-07-16T12:22:07+0200</time>
      </trkpt>
      <trkpt lat="45.08642" lon="6.4617">
        <ele>2381.9</ele>
        <time>2022-07-16T12:22:11+0200</time>
      </trkpt>
      <trkpt lat="45.08649" lon="6.46169">
        <ele>2382.2</ele>
        <time>2022-07-16T12:22:15+0200</time>
      </trkpt>
      <trkpt lat="45.08654" lon="6.4617">
        <ele>2382.7</ele>
        <time>2022-07-16T12:22:19+0200</time>
      </trkpt>
      <trkpt lat="45.08658" lon="6.46172">
        <ele>2383.4</ele>
        <time>2022-07-16T12:22:22+0200</time>
      </trkpt>
      <trkpt lat="45.08663" lon="6.46175">
        <ele>2384.3</ele>
        <time>2022-07-16T12:22:25+0200</time>
      </trkpt>
      <trkpt lat="45.08668" lon="6.46178">
        <ele>2385</ele>
        <time>2022-07-16T12:22:28+0200</time>
      </trkpt>
      <trkpt lat="45.08674" lon="6.4618">
        <ele>2385.1</ele>
        <time>2022-07-16T12:22:31+0200</time>
      </trkpt>
      <trkpt lat="45.08678" lon="6.4618">
        <ele>2384.9</ele>
        <time>2022-07-16T12:22:34+0200</time>
      </trkpt>
      <trkpt lat="45.08684" lon="6.46183">
        <ele>2385.5</ele>
        <time>2022-07-16T12:22:38+0200</time>
      </trkpt>
      <trkpt lat="45.08688" lon="6.46187">
        <ele>2386.3</ele>
        <time>2022-07-16T12:22:41+0200</time>
      </trkpt>
      <trkpt lat="45.08692" lon="6.46194">
        <ele>2387.8</ele>
        <time>2022-07-16T12:22:46+0200</time>
      </trkpt>
      <trkpt lat="45.08692" lon="6.46202">
        <ele>2388.9</ele>
        <time>2022-07-16T12:22:50+0200</time>
      </trkpt>
      <trkpt lat="45.08689" lon="6.46208">
        <ele>2389.7</ele>
        <time>2022-07-16T12:22:54+0200</time>
      </trkpt>
      <trkpt lat="45.08684" lon="6.46207">
        <ele>2389.7</ele>
        <time>2022-07-16T12:22:58+0200</time>
      </trkpt>
      <trkpt lat="45.08679" lon="6.46211">
        <ele>2390.4</ele>
        <time>2022-07-16T12:23:03+0200</time>
      </trkpt>
      <trkpt lat="45.08674" lon="6.46213">
        <ele>2391</ele>
        <time>2022-07-16T12:23:07+0200</time>
      </trkpt>
      <trkpt lat="45.08669" lon="6.46218">
        <ele>2392.1</ele>
        <time>2022-07-16T12:23:12+0200</time>
      </trkpt>
      <trkpt lat="45.08664" lon="6.46222">
        <ele>2392.6</ele>
        <time>2022-07-16T12:23:16+0200</time>
      </trkpt>
      <trkpt lat="45.0866" lon="6.46228">
        <ele>2393.2</ele>
        <time>2022-07-16T12:23:20+0200</time>
      </trkpt>
      <trkpt lat="45.08654" lon="6.46231">
        <ele>2393</ele>
        <time>2022-07-16T12:23:24+0200</time>
      </trkpt>
      <trkpt lat="45.08652" lon="6.46238">
        <ele>2393.5</ele>
        <time>2022-07-16T12:23:28+0200</time>
      </trkpt>
      <trkpt lat="45.08653" lon="6.46246">
        <ele>2394.9</ele>
        <time>2022-07-16T12:23:33+0200</time>
      </trkpt>
      <trkpt lat="45.08657" lon="6.4625">
        <ele>2396.3</ele>
        <time>2022-07-16T12:23:37+0200</time>
      </trkpt>
      <trkpt lat="45.08662" lon="6.4625">
        <ele>2397.2</ele>
        <time>2022-07-16T12:23:41+0200</time>
      </trkpt>
      <trkpt lat="45.08667" lon="6.46249">
        <ele>2397.7</ele>
        <time>2022-07-16T12:23:44+0200</time>
      </trkpt>
      <trkpt lat="45.08671" lon="6.46247">
        <ele>2397.3</ele>
        <time>2022-07-16T12:23:47+0200</time>
      </trkpt>
      <trkpt lat="45.08678" lon="6.4625">
        <ele>2397.6</ele>
        <time>2022-07-16T12:23:51+0200</time>
      </trkpt>
      <trkpt lat="45.08683" lon="6.46253">
        <ele>2398</ele>
        <time>2022-07-16T12:23:54+0200</time>
      </trkpt>
      <trkpt lat="45.08689" lon="6.46256">
        <ele>2398.5</ele>
        <time>2022-07-16T12:23:58+0200</time>
      </trkpt>
      <trkpt lat="45.08692" lon="6.46262">
        <ele>2399.4</ele>
        <time>2022-07-16T12:24:01+0200</time>
      </trkpt>
      <trkpt lat="45.08694" lon="6.4627">
        <ele>2400.6</ele>
        <time>2022-07-16T12:24:05+0200</time>
      </trkpt>
      <trkpt lat="45.08696" lon="6.46276">
        <ele>2401.1</ele>
        <time>2022-07-16T12:24:08+0200</time>
      </trkpt>
      <trkpt lat="45.08699" lon="6.46283">
        <ele>2401.4</ele>
        <time>2022-07-16T12:24:12+0200</time>
      </trkpt>
      <trkpt lat="45.08702" lon="6.46288">
        <ele>2401.7</ele>
        <time>2022-07-16T12:24:15+0200</time>
      </trkpt>
      <trkpt lat="45.08706" lon="6.46293">
        <ele>2401.8</ele>
        <time>2022-07-16T12:24:18+0200</time>
      </trkpt>
      <trkpt lat="45.0871" lon="6.46298">
        <ele>2402.2</ele>
        <time>2022-07-16T12:24:20+0200</time>
      </trkpt>
      <trkpt lat="45.08715" lon="6.46302">
        <ele>2402.2</ele>
        <time>2022-07-16T12:24:23+0200</time>
      </trkpt>
      <trkpt lat="45.08718" lon="6.46307">
        <ele>2403.5</ele>
        <time>2022-07-16T12:24:25+0200</time>
      </trkpt>
      <trkpt lat="45.08725" lon="6.46311">
        <ele>2403.6</ele>
        <time>2022-07-16T12:24:28+0200</time>
      </trkpt>
      <trkpt lat="45.0873" lon="6.46314">
        <ele>2403.6</ele>
        <time>2022-07-16T12:24:30+0200</time>
      </trkpt>
      <trkpt lat="45.08735" lon="6.46318">
        <ele>2403.7</ele>
        <time>2022-07-16T12:24:32+0200</time>
      </trkpt>
      <trkpt lat="45.0874" lon="6.46322">
        <ele>2403.7</ele>
        <time>2022-07-16T12:24:34+0200</time>
      </trkpt>
      <trkpt lat="45.08745" lon="6.46325">
        <ele>2403.4</ele>
        <time>2022-07-16T12:24:36+0200</time>
      </trkpt>
      <trkpt lat="45.08749" lon="6.46332">
        <ele>2404.1</ele>
        <time>2022-07-16T12:24:38+0200</time>
      </trkpt>
      <trkpt lat="45.08751" lon="6.46339">
        <ele>2404.2</ele>
        <time>2022-07-16T12:24:40+0200</time>
      </trkpt>
      <trkpt lat="45.08751" lon="6.46348">
        <ele>2404.5</ele>
        <time>2022-07-16T12:24:42+0200</time>
      </trkpt>
      <trkpt lat="45.08751" lon="6.46356">
        <ele>2405.2</ele>
        <time>2022-07-16T12:24:44+0200</time>
      </trkpt>
      <trkpt lat="45.0875" lon="6.46362">
        <ele>2405.7</ele>
        <time>2022-07-16T12:24:46+0200</time>
      </trkpt>
      <trkpt lat="45.0875" lon="6.4637">
        <ele>2405.5</ele>
        <time>2022-07-16T12:24:48+0200</time>
      </trkpt>
      <trkpt lat="45.08748" lon="6.46379">
        <ele>2405.6</ele>
        <time>2022-07-16T12:24:50+0200</time>
      </trkpt>
      <trkpt lat="45.08747" lon="6.46386">
        <ele>2405.6</ele>
        <time>2022-07-16T12:24:52+0200</time>
      </trkpt>
      <trkpt lat="45.08745" lon="6.46394">
        <ele>2405.4</ele>
        <time>2022-07-16T12:24:54+0200</time>
      </trkpt>
      <trkpt lat="45.08744" lon="6.46402">
        <ele>2405</ele>
        <time>2022-07-16T12:24:56+0200</time>
      </trkpt>
      <trkpt lat="45.08742" lon="6.46411">
        <ele>2404.4</ele>
        <time>2022-07-16T12:24:58+0200</time>
      </trkpt>
      <trkpt lat="45.08739" lon="6.46419">
        <ele>2404.9</ele>
        <time>2022-07-16T12:25:00+0200</time>
      </trkpt>
      <trkpt lat="45.08734" lon="6.46425">
        <ele>2406.8</ele>
        <time>2022-07-16T12:25:02+0200</time>
      </trkpt>
      <trkpt lat="45.08729" lon="6.46431">
        <ele>2407.2</ele>
        <time>2022-07-16T12:25:04+0200</time>
      </trkpt>
      <trkpt lat="45.08723" lon="6.46437">
        <ele>2406.5</ele>
        <time>2022-07-16T12:25:06+0200</time>
      </trkpt>
      <trkpt lat="45.08718" lon="6.46442">
        <ele>2406.5</ele>
        <time>2022-07-16T12:25:08+0200</time>
      </trkpt>
      <trkpt lat="45.08713" lon="6.4645">
        <ele>2407.2</ele>
        <time>2022-07-16T12:25:10+0200</time>
      </trkpt>
      <trkpt lat="45.0871" lon="6.46457">
        <ele>2407.5</ele>
        <time>2022-07-16T12:25:12+0200</time>
      </trkpt>
      <trkpt lat="45.08704" lon="6.46463">
        <ele>2407.7</ele>
        <time>2022-07-16T12:25:14+0200</time>
      </trkpt>
      <trkpt lat="45.08697" lon="6.46467">
        <ele>2407.7</ele>
        <time>2022-07-16T12:25:16+0200</time>
      </trkpt>
      <trkpt lat="45.08692" lon="6.46472">
        <ele>2407.9</ele>
        <time>2022-07-16T12:25:18+0200</time>
      </trkpt>
      <trkpt lat="45.08688" lon="6.46477">
        <ele>2408.5</ele>
        <time>2022-07-16T12:25:20+0200</time>
      </trkpt>
      <trkpt lat="45.08684" lon="6.46481">
        <ele>2409</ele>
        <time>2022-07-16T12:25:22+0200</time>
      </trkpt>
      <trkpt lat="45.08678" lon="6.46486">
        <ele>2409.4</ele>
        <time>2022-07-16T12:25:24+0200</time>
      </trkpt>
      <trkpt lat="45.08672" lon="6.46491">
        <ele>2409.6</ele>
        <time>2022-07-16T12:25:26+0200</time>
      </trkpt>
      <trkpt lat="45.08666" lon="6.46494">
        <ele>2409.6</ele>
        <time>2022-07-16T12:25:28+0200</time>
      </trkpt>
      <trkpt lat="45.0866" lon="6.46499">
        <ele>2409.5</ele>
        <time>2022-07-16T12:25:30+0200</time>
      </trkpt>
      <trkpt lat="45.08656" lon="6.46504">
        <ele>2409.7</ele>
        <time>2022-07-16T12:25:32+0200</time>
      </trkpt>
      <trkpt lat="45.08652" lon="6.4651">
        <ele>2410</ele>
        <time>2022-07-16T12:25:34+0200</time>
      </trkpt>
      <trkpt lat="45.08651" lon="6.46517">
        <ele>2409.4</ele>
        <time>2022-07-16T12:25:36+0200</time>
      </trkpt>
      <trkpt lat="45.0865" lon="6.46525">
        <ele>2408.9</ele>
        <time>2022-07-16T12:25:38+0200</time>
      </trkpt>
      <trkpt lat="45.08649" lon="6.46533">
        <ele>2408.8</ele>
        <time>2022-07-16T12:25:40+0200</time>
      </trkpt>
      <trkpt lat="45.08649" lon="6.46541">
        <ele>2409.1</ele>
        <time>2022-07-16T12:25:42+0200</time>
      </trkpt>
      <trkpt lat="45.0865" lon="6.46549">
        <ele>2409.4</ele>
        <time>2022-07-16T12:25:44+0200</time>
      </trkpt>
      <trkpt lat="45.08649" lon="6.46558">
        <ele>2409.6</ele>
        <time>2022-07-16T12:25:46+0200</time>
      </trkpt>
      <trkpt lat="45.0865" lon="6.46566">
        <ele>2409.6</ele>
        <time>2022-07-16T12:25:48+0200</time>
      </trkpt>
      <trkpt lat="45.08651" lon="6.46574">
        <ele>2409.6</ele>
        <time>2022-07-16T12:25:50+0200</time>
      </trkpt>
      <trkpt lat="45.08651" lon="6.46583">
        <ele>2409.5</ele>
        <time>2022-07-16T12:25:52+0200</time>
      </trkpt>
      <trkpt lat="45.0865" lon="6.4659">
        <ele>2409.8</ele>
        <time>2022-07-16T12:25:54+0200</time>
      </trkpt>
      <trkpt lat="45.0865" lon="6.46599">
        <ele>2410.2</ele>
        <time>2022-07-16T12:25:56+0200</time>
      </trkpt>
      <trkpt lat="45.08651" lon="6.46607">
        <ele>2410.4</ele>
        <time>2022-07-16T12:25:58+0200</time>
      </trkpt>
      <trkpt lat="45.08651" lon="6.46615">
        <ele>2410.7</ele>
        <time>2022-07-16T12:26:00+0200</time>
      </trkpt>
      <trkpt lat="45.08651" lon="6.46622">
        <ele>2411</ele>
        <time>2022-07-16T12:26:02+0200</time>
      </trkpt>
      <trkpt lat="45.08651" lon="6.4663">
        <ele>2411.3</ele>
        <time>2022-07-16T12:26:05+0200</time>
      </trkpt>
      <trkpt lat="45.0865" lon="6.46639">
        <ele>2411.6</ele>
        <time>2022-07-16T12:26:08+0200</time>
      </trkpt>
      <trkpt lat="45.08652" lon="6.46647">
        <ele>2411.8</ele>
        <time>2022-07-16T12:26:10+0200</time>
      </trkpt>
      <trkpt lat="45.08656" lon="6.46655">
        <ele>2412</ele>
        <time>2022-07-16T12:26:13+0200</time>
      </trkpt>
      <trkpt lat="45.08659" lon="6.4666">
        <ele>2412</ele>
        <time>2022-07-16T12:26:16+0200</time>
      </trkpt>
      <trkpt lat="45.08659" lon="6.46667">
        <ele>2412.3</ele>
        <time>2022-07-16T12:26:19+0200</time>
      </trkpt>
      <trkpt lat="45.08657" lon="6.46672">
        <ele>2412.6</ele>
        <time>2022-07-16T12:26:37+0200</time>
      </trkpt>
      <trkpt lat="45.08657" lon="6.4668">
        <ele>2412.8</ele>
        <time>2022-07-16T12:27:22+0200</time>
      </trkpt>
      <trkpt lat="45.08653" lon="6.46683">
        <ele>2413.1</ele>
        <time>2022-07-16T12:27:25+0200</time>
      </trkpt>
      <trkpt lat="45.08649" lon="6.4669">
        <ele>2413.5</ele>
        <time>2022-07-16T12:27:28+0200</time>
      </trkpt>
      <trkpt lat="45.08645" lon="6.46697">
        <ele>2413.8</ele>
        <time>2022-07-16T12:27:32+0200</time>
      </trkpt>
      <trkpt lat="45.08645" lon="6.46705">
        <ele>2414.1</ele>
        <time>2022-07-16T12:27:35+0200</time>
      </trkpt>
      <trkpt lat="45.08645" lon="6.46711">
        <ele>2414.3</ele>
        <time>2022-07-16T12:27:37+0200</time>
      </trkpt>
      <trkpt lat="45.08646" lon="6.46718">
        <ele>2414.4</ele>
        <time>2022-07-16T12:27:39+0200</time>
      </trkpt>
      <trkpt lat="45.08642" lon="6.46723">
        <ele>2414.8</ele>
        <time>2022-07-16T12:27:41+0200</time>
      </trkpt>
      <trkpt lat="45.0864" lon="6.46728">
        <ele>2415.2</ele>
        <time>2022-07-16T12:27:44+0200</time>
      </trkpt>
      <trkpt lat="45.08635" lon="6.46732">
        <ele>2415.8</ele>
        <time>2022-07-16T12:27:47+0200</time>
      </trkpt>
      <trkpt lat="45.08631" lon="6.46735">
        <ele>2416.4</ele>
        <time>2022-07-16T12:27:49+0200</time>
      </trkpt>
      <trkpt lat="45.08625" lon="6.46736">
        <ele>2417</ele>
        <time>2022-07-16T12:27:52+0200</time>
      </trkpt>
      <trkpt lat="45.0862" lon="6.46737">
        <ele>2417.6</ele>
        <time>2022-07-16T12:27:55+0200</time>
      </trkpt>
      <trkpt lat="45.08615" lon="6.46742">
        <ele>2418.3</ele>
        <time>2022-07-16T12:27:58+0200</time>
      </trkpt>
      <trkpt lat="45.0861" lon="6.46745">
        <ele>2418.9</ele>
        <time>2022-07-16T12:28:02+0200</time>
      </trkpt>
      <trkpt lat="45.08608" lon="6.46751">
        <ele>2419.4</ele>
        <time>2022-07-16T12:28:05+0200</time>
      </trkpt>
      <trkpt lat="45.08608" lon="6.46758">
        <ele>2419.7</ele>
        <time>2022-07-16T12:28:08+0200</time>
      </trkpt>
      <trkpt lat="45.08607" lon="6.46765">
        <ele>2420</ele>
        <time>2022-07-16T12:28:11+0200</time>
      </trkpt>
      <trkpt lat="45.08606" lon="6.46772">
        <ele>2420.4</ele>
        <time>2022-07-16T12:28:13+0200</time>
      </trkpt>
      <trkpt lat="45.08602" lon="6.46776">
        <ele>2421.2</ele>
        <time>2022-07-16T12:28:16+0200</time>
      </trkpt>
      <trkpt lat="45.08598" lon="6.4678">
        <ele>2422.1</ele>
        <time>2022-07-16T12:28:20+0200</time>
      </trkpt>
      <trkpt lat="45.08593" lon="6.46783">
        <ele>2423</ele>
        <time>2022-07-16T12:28:23+0200</time>
      </trkpt>
      <trkpt lat="45.0859" lon="6.4679">
        <ele>2423.8</ele>
        <time>2022-07-16T12:28:27+0200</time>
      </trkpt>
      <trkpt lat="45.08589" lon="6.46796">
        <ele>2424.5</ele>
        <time>2022-07-16T12:28:30+0200</time>
      </trkpt>
      <trkpt lat="45.08589" lon="6.46803">
        <ele>2425</ele>
        <time>2022-07-16T12:28:35+0200</time>
      </trkpt>
      <trkpt lat="45.08585" lon="6.46808">
        <ele>2426.2</ele>
        <time>2022-07-16T12:28:39+0200</time>
      </trkpt>
      <trkpt lat="45.0858" lon="6.4681">
        <ele>2426.9</ele>
        <time>2022-07-16T12:28:44+0200</time>
      </trkpt>
      <trkpt lat="45.08577" lon="6.46815">
        <ele>2427.9</ele>
        <time>2022-07-16T12:28:47+0200</time>
      </trkpt>
      <trkpt lat="45.08574" lon="6.4682">
        <ele>2428.8</ele>
        <time>2022-07-16T12:28:51+0200</time>
      </trkpt>
      <trkpt lat="45.08574" lon="6.46827">
        <ele>2429.6</ele>
        <time>2022-07-16T12:28:54+0200</time>
      </trkpt>
      <trkpt lat="45.08571" lon="6.46832">
        <ele>2430.2</ele>
        <time>2022-07-16T12:28:57+0200</time>
      </trkpt>
      <trkpt lat="45.08567" lon="6.46835">
        <ele>2430.7</ele>
        <time>2022-07-16T12:29:01+0200</time>
      </trkpt>
      <trkpt lat="45.08564" lon="6.4684">
        <ele>2431.2</ele>
        <time>2022-07-16T12:29:05+0200</time>
      </trkpt>
      <trkpt lat="45.0856" lon="6.46844">
        <ele>2431.8</ele>
        <time>2022-07-16T12:29:10+0200</time>
      </trkpt>
      <trkpt lat="45.08556" lon="6.46849">
        <ele>2432.6</ele>
        <time>2022-07-16T12:29:13+0200</time>
      </trkpt>
      <trkpt lat="45.08554" lon="6.46855">
        <ele>2433.6</ele>
        <time>2022-07-16T12:29:17+0200</time>
      </trkpt>
      <trkpt lat="45.08549" lon="6.46859">
        <ele>2434.5</ele>
        <time>2022-07-16T12:29:22+0200</time>
      </trkpt>
      <trkpt lat="45.08544" lon="6.46862">
        <ele>2435.3</ele>
        <time>2022-07-16T12:29:28+0200</time>
      </trkpt>
      <trkpt lat="45.08539" lon="6.46864">
        <ele>2435.9</ele>
        <time>2022-07-16T12:29:33+0200</time>
      </trkpt>
      <trkpt lat="45.08535" lon="6.46869">
        <ele>2436.7</ele>
        <time>2022-07-16T12:29:37+0200</time>
      </trkpt>
      <trkpt lat="45.08531" lon="6.46873">
        <ele>2437.5</ele>
        <time>2022-07-16T12:29:42+0200</time>
      </trkpt>
      <trkpt lat="45.08527" lon="6.46877">
        <ele>2438.4</ele>
        <time>2022-07-16T12:29:45+0200</time>
      </trkpt>
      <trkpt lat="45.08522" lon="6.4688">
        <ele>2439.4</ele>
        <time>2022-07-16T12:29:49+0200</time>
      </trkpt>
      <trkpt lat="45.0852" lon="6.46886">
        <ele>2440.3</ele>
        <time>2022-07-16T12:29:54+0200</time>
      </trkpt>
      <trkpt lat="45.08515" lon="6.46889">
        <ele>2441.3</ele>
        <time>2022-07-16T12:30:00+0200</time>
      </trkpt>
      <trkpt lat="45.08509" lon="6.46892">
        <ele>2442.4</ele>
        <time>2022-07-16T12:30:19+0200</time>
      </trkpt>
      <trkpt lat="45.08505" lon="6.46896">
        <ele>2443</ele>
        <time>2022-07-16T12:30:22+0200</time>
      </trkpt>
      <trkpt lat="45.08501" lon="6.469">
        <ele>2443.9</ele>
        <time>2022-07-16T12:30:26+0200</time>
      </trkpt>
      <trkpt lat="45.08497" lon="6.46905">
        <ele>2444.6</ele>
        <time>2022-07-16T12:30:30+0200</time>
      </trkpt>
      <trkpt lat="45.08492" lon="6.46907">
        <ele>2445.6</ele>
        <time>2022-07-16T12:30:34+0200</time>
      </trkpt>
      <trkpt lat="45.08489" lon="6.4691">
        <ele>2446.4</ele>
        <time>2022-07-16T12:30:37+0200</time>
      </trkpt>
      <trkpt lat="45.08484" lon="6.46912">
        <ele>2447.5</ele>
        <time>2022-07-16T12:30:40+0200</time>
      </trkpt>
      <trkpt lat="45.0848" lon="6.46916">
        <ele>2448.3</ele>
        <time>2022-07-16T12:30:46+0200</time>
      </trkpt>
      <trkpt lat="45.08476" lon="6.4692">
        <ele>2449.1</ele>
        <time>2022-07-16T12:30:50+0200</time>
      </trkpt>
      <trkpt lat="45.08472" lon="6.46925">
        <ele>2449.8</ele>
        <time>2022-07-16T12:30:55+0200</time>
      </trkpt>
      <trkpt lat="45.08467" lon="6.46929">
        <ele>2450.8</ele>
        <time>2022-07-16T12:31:01+0200</time>
      </trkpt>
      <trkpt lat="45.08463" lon="6.4693">
        <ele>2452.1</ele>
        <time>2022-07-16T12:31:05+0200</time>
      </trkpt>
      <trkpt lat="45.0846" lon="6.46937">
        <ele>2452.6</ele>
        <time>2022-07-16T12:31:10+0200</time>
      </trkpt>
      <trkpt lat="45.08456" lon="6.46941">
        <ele>2453.7</ele>
        <time>2022-07-16T12:31:15+0200</time>
      </trkpt>
      <trkpt lat="45.08451" lon="6.46939">
        <ele>2455.2</ele>
        <time>2022-07-16T12:31:21+0200</time>
      </trkpt>
      <trkpt lat="45.08448" lon="6.46934">
        <ele>2456.1</ele>
        <time>2022-07-16T12:31:25+0200</time>
      </trkpt>
      <trkpt lat="45.08445" lon="6.46928">
        <ele>2457</ele>
        <time>2022-07-16T12:31:30+0200</time>
      </trkpt>
      <trkpt lat="45.08441" lon="6.46922">
        <ele>2458.3</ele>
        <time>2022-07-16T12:31:33+0200</time>
      </trkpt>
      <trkpt lat="45.08438" lon="6.46914">
        <ele>2459.2</ele>
        <time>2022-07-16T12:31:37+0200</time>
      </trkpt>
      <trkpt lat="45.08439" lon="6.46907">
        <ele>2458.8</ele>
        <time>2022-07-16T12:31:40+0200</time>
      </trkpt>
      <trkpt lat="45.08438" lon="6.469">
        <ele>2459</ele>
        <time>2022-07-16T12:31:44+0200</time>
      </trkpt>
      <trkpt lat="45.08436" lon="6.46894">
        <ele>2459.4</ele>
        <time>2022-07-16T12:31:47+0200</time>
      </trkpt>
      <trkpt lat="45.08432" lon="6.46889">
        <ele>2460.3</ele>
        <time>2022-07-16T12:31:50+0200</time>
      </trkpt>
      <trkpt lat="45.08432" lon="6.46882">
        <ele>2460</ele>
        <time>2022-07-16T12:31:53+0200</time>
      </trkpt>
      <trkpt lat="45.0843" lon="6.46876">
        <ele>2460.3</ele>
        <time>2022-07-16T12:31:56+0200</time>
      </trkpt>
      <trkpt lat="45.08428" lon="6.46869">
        <ele>2460.5</ele>
        <time>2022-07-16T12:32:00+0200</time>
      </trkpt>
      <trkpt lat="45.08426" lon="6.46862">
        <ele>2460.8</ele>
        <time>2022-07-16T12:32:04+0200</time>
      </trkpt>
      <trkpt lat="45.08422" lon="6.46857">
        <ele>2461.1</ele>
        <time>2022-07-16T12:32:07+0200</time>
      </trkpt>
      <trkpt lat="45.08419" lon="6.46852">
        <ele>2460.9</ele>
        <time>2022-07-16T12:32:11+0200</time>
      </trkpt>
      <trkpt lat="45.08414" lon="6.46851">
        <ele>2461.8</ele>
        <time>2022-07-16T12:32:14+0200</time>
      </trkpt>
      <trkpt lat="45.08409" lon="6.46854">
        <ele>2463.4</ele>
        <time>2022-07-16T12:32:17+0200</time>
      </trkpt>
      <trkpt lat="45.08406" lon="6.46858">
        <ele>2465.1</ele>
        <time>2022-07-16T12:32:21+0200</time>
      </trkpt>
      <trkpt lat="45.08406" lon="6.46864">
        <ele>2465.7</ele>
        <time>2022-07-16T12:32:24+0200</time>
      </trkpt>
      <trkpt lat="45.08408" lon="6.46871">
        <ele>2465.6</ele>
        <time>2022-07-16T12:32:28+0200</time>
      </trkpt>
      <trkpt lat="45.08409" lon="6.46878">
        <ele>2465.6</ele>
        <time>2022-07-16T12:32:31+0200</time>
      </trkpt>
      <trkpt lat="45.08409" lon="6.46887">
        <ele>2465.9</ele>
        <time>2022-07-16T12:32:34+0200</time>
      </trkpt>
      <trkpt lat="45.08408" lon="6.46895">
        <ele>2467</ele>
        <time>2022-07-16T12:32:37+0200</time>
      </trkpt>
      <trkpt lat="45.0841" lon="6.46903">
        <ele>2467.4</ele>
        <time>2022-07-16T12:32:40+0200</time>
      </trkpt>
      <trkpt lat="45.08408" lon="6.46911">
        <ele>2468.8</ele>
        <time>2022-07-16T12:32:44+0200</time>
      </trkpt>
      <trkpt lat="45.08412" lon="6.46917">
        <ele>2468.4</ele>
        <time>2022-07-16T12:32:47+0200</time>
      </trkpt>
      <trkpt lat="45.08415" lon="6.46922">
        <ele>2468.2</ele>
        <time>2022-07-16T12:32:51+0200</time>
      </trkpt>
      <trkpt lat="45.08416" lon="6.4693">
        <ele>2468.5</ele>
        <time>2022-07-16T12:32:54+0200</time>
      </trkpt>
      <trkpt lat="45.08418" lon="6.46938">
        <ele>2468.5</ele>
        <time>2022-07-16T12:32:58+0200</time>
      </trkpt>
      <trkpt lat="45.08419" lon="6.46944">
        <ele>2468.7</ele>
        <time>2022-07-16T12:33:01+0200</time>
      </trkpt>
      <trkpt lat="45.08419" lon="6.46954">
        <ele>2468.2</ele>
        <time>2022-07-16T12:33:06+0200</time>
      </trkpt>
      <trkpt lat="45.08415" lon="6.46961">
        <ele>2469.3</ele>
        <time>2022-07-16T12:33:10+0200</time>
      </trkpt>
      <trkpt lat="45.08413" lon="6.46969">
        <ele>2469.3</ele>
        <time>2022-07-16T12:33:13+0200</time>
      </trkpt>
      <trkpt lat="45.0841" lon="6.46974">
        <ele>2470.4</ele>
        <time>2022-07-16T12:33:16+0200</time>
      </trkpt>
      <trkpt lat="45.08407" lon="6.46981">
        <ele>2471.5</ele>
        <time>2022-07-16T12:33:19+0200</time>
      </trkpt>
      <trkpt lat="45.08403" lon="6.46988">
        <ele>2472.9</ele>
        <time>2022-07-16T12:33:22+0200</time>
      </trkpt>
      <trkpt lat="45.08403" lon="6.46995">
        <ele>2473.4</ele>
        <time>2022-07-16T12:33:25+0200</time>
      </trkpt>
      <trkpt lat="45.08402" lon="6.47004">
        <ele>2473.8</ele>
        <time>2022-07-16T12:33:28+0200</time>
      </trkpt>
      <trkpt lat="45.08402" lon="6.47011">
        <ele>2474</ele>
        <time>2022-07-16T12:33:31+0200</time>
      </trkpt>
      <trkpt lat="45.08402" lon="6.47019">
        <ele>2474.4</ele>
        <time>2022-07-16T12:33:34+0200</time>
      </trkpt>
      <trkpt lat="45.08401" lon="6.47026">
        <ele>2474.8</ele>
        <time>2022-07-16T12:33:37+0200</time>
      </trkpt>
      <trkpt lat="45.084" lon="6.47034">
        <ele>2475.6</ele>
        <time>2022-07-16T12:33:40+0200</time>
      </trkpt>
      <trkpt lat="45.08398" lon="6.47043">
        <ele>2476.6</ele>
        <time>2022-07-16T12:33:43+0200</time>
      </trkpt>
      <trkpt lat="45.08398" lon="6.4705">
        <ele>2477.2</ele>
        <time>2022-07-16T12:33:45+0200</time>
      </trkpt>
      <trkpt lat="45.08396" lon="6.47056">
        <ele>2478</ele>
        <time>2022-07-16T12:33:48+0200</time>
      </trkpt>
      <trkpt lat="45.08395" lon="6.47062">
        <ele>2478.5</ele>
        <time>2022-07-16T12:33:51+0200</time>
      </trkpt>
      <trkpt lat="45.08392" lon="6.4707">
        <ele>2478.9</ele>
        <time>2022-07-16T12:33:54+0200</time>
      </trkpt>
      <trkpt lat="45.08392" lon="6.47076">
        <ele>2479.1</ele>
        <time>2022-07-16T12:33:57+0200</time>
      </trkpt>
      <trkpt lat="45.08391" lon="6.47082">
        <ele>2479.2</ele>
        <time>2022-07-16T12:33:59+0200</time>
      </trkpt>
      <trkpt lat="45.08389" lon="6.4709">
        <ele>2479.8</ele>
        <time>2022-07-16T12:34:03+0200</time>
      </trkpt>
      <trkpt lat="45.0839" lon="6.47097">
        <ele>2480.6</ele>
        <time>2022-07-16T12:34:07+0200</time>
      </trkpt>
      <trkpt lat="45.08394" lon="6.47103">
        <ele>2481.4</ele>
        <time>2022-07-16T12:34:10+0200</time>
      </trkpt>
      <trkpt lat="45.08396" lon="6.47109">
        <ele>2482.1</ele>
        <time>2022-07-16T12:34:13+0200</time>
      </trkpt>
      <trkpt lat="45.084" lon="6.47112">
        <ele>2482.6</ele>
        <time>2022-07-16T12:34:16+0200</time>
      </trkpt>
      <trkpt lat="45.08405" lon="6.47116">
        <ele>2483.7</ele>
        <time>2022-07-16T12:34:20+0200</time>
      </trkpt>
      <trkpt lat="45.0841" lon="6.47118">
        <ele>2484.7</ele>
        <time>2022-07-16T12:34:24+0200</time>
      </trkpt>
      <trkpt lat="45.08414" lon="6.4712">
        <ele>2485.4</ele>
        <time>2022-07-16T12:34:27+0200</time>
      </trkpt>
      <trkpt lat="45.08419" lon="6.47123">
        <ele>2486.9</ele>
        <time>2022-07-16T12:34:30+0200</time>
      </trkpt>
      <trkpt lat="45.08425" lon="6.47124">
        <ele>2488.2</ele>
        <time>2022-07-16T12:34:34+0200</time>
      </trkpt>
      <trkpt lat="45.08431" lon="6.47125">
        <ele>2489.7</ele>
        <time>2022-07-16T12:34:38+0200</time>
      </trkpt>
      <trkpt lat="45.08436" lon="6.47122">
        <ele>2489.7</ele>
        <time>2022-07-16T12:34:43+0200</time>
      </trkpt>
      <trkpt lat="45.0844" lon="6.47119">
        <ele>2489.4</ele>
        <time>2022-07-16T12:34:46+0200</time>
      </trkpt>
      <trkpt lat="45.08446" lon="6.47115">
        <ele>2489.5</ele>
        <time>2022-07-16T12:34:50+0200</time>
      </trkpt>
      <trkpt lat="45.0845" lon="6.47111">
        <ele>2489.6</ele>
        <time>2022-07-16T12:34:53+0200</time>
      </trkpt>
      <trkpt lat="45.08454" lon="6.47109">
        <ele>2490.1</ele>
        <time>2022-07-16T12:34:55+0200</time>
      </trkpt>
      <trkpt lat="45.08459" lon="6.47105">
        <ele>2490.6</ele>
        <time>2022-07-16T12:34:58+0200</time>
      </trkpt>
      <trkpt lat="45.08463" lon="6.47101">
        <ele>2490.6</ele>
        <time>2022-07-16T12:35:00+0200</time>
      </trkpt>
      <trkpt lat="45.08469" lon="6.47099">
        <ele>2491.9</ele>
        <time>2022-07-16T12:35:04+0200</time>
      </trkpt>
      <trkpt lat="45.08474" lon="6.47097">
        <ele>2492.8</ele>
        <time>2022-07-16T12:35:07+0200</time>
      </trkpt>
      <trkpt lat="45.08481" lon="6.47098">
        <ele>2494.1</ele>
        <time>2022-07-16T12:35:11+0200</time>
      </trkpt>
      <trkpt lat="45.08486" lon="6.47095">
        <ele>2494.3</ele>
        <time>2022-07-16T12:35:14+0200</time>
      </trkpt>
      <trkpt lat="45.08491" lon="6.47094">
        <ele>2494.9</ele>
        <time>2022-07-16T12:35:17+0200</time>
      </trkpt>
      <trkpt lat="45.08495" lon="6.47088">
        <ele>2494.2</ele>
        <time>2022-07-16T12:35:20+0200</time>
      </trkpt>
      <trkpt lat="45.085" lon="6.47084">
        <ele>2494.2</ele>
        <time>2022-07-16T12:35:23+0200</time>
      </trkpt>
      <trkpt lat="45.08506" lon="6.47079">
        <ele>2493</ele>
        <time>2022-07-16T12:35:27+0200</time>
      </trkpt>
      <trkpt lat="45.0851" lon="6.47076">
        <ele>2492.4</ele>
        <time>2022-07-16T12:35:29+0200</time>
      </trkpt>
      <trkpt lat="45.08517" lon="6.47076">
        <ele>2492.4</ele>
        <time>2022-07-16T12:35:32+0200</time>
      </trkpt>
      <trkpt lat="45.08524" lon="6.47078">
        <ele>2493</ele>
        <time>2022-07-16T12:35:34+0200</time>
      </trkpt>
      <trkpt lat="45.08529" lon="6.47081">
        <ele>2493.8</ele>
        <time>2022-07-16T12:35:36+0200</time>
      </trkpt>
      <trkpt lat="45.08534" lon="6.47086">
        <ele>2494.6</ele>
        <time>2022-07-16T12:35:38+0200</time>
      </trkpt>
      <trkpt lat="45.08537" lon="6.47092">
        <ele>2494.4</ele>
        <time>2022-07-16T12:35:42+0200</time>
      </trkpt>
      <trkpt lat="45.0854" lon="6.47097">
        <ele>2493.7</ele>
        <time>2022-07-16T12:36:33+0200</time>
      </trkpt>
      <trkpt lat="45.08535" lon="6.47098">
        <ele>2494.2</ele>
        <time>2022-07-16T12:36:53+0200</time>
      </trkpt>
      <trkpt lat="45.08532" lon="6.47105">
        <ele>2494.5</ele>
        <time>2022-07-16T12:36:59+0200</time>
      </trkpt>
      <trkpt lat="45.08527" lon="6.47106">
        <ele>2495.7</ele>
        <time>2022-07-16T12:37:10+0200</time>
      </trkpt>
      <trkpt lat="45.08522" lon="6.47108">
        <ele>2496.5</ele>
        <time>2022-07-16T12:37:18+0200</time>
      </trkpt>
      <trkpt lat="45.08518" lon="6.47112">
        <ele>2497.5</ele>
        <time>2022-07-16T12:37:49+0200</time>
      </trkpt>
      <trkpt lat="45.08513" lon="6.47115">
        <ele>2498.3</ele>
        <time>2022-07-16T12:37:56+0200</time>
      </trkpt>
      <trkpt lat="45.08508" lon="6.4712">
        <ele>2499.7</ele>
        <time>2022-07-16T12:38:00+0200</time>
      </trkpt>
      <trkpt lat="45.08509" lon="6.47127">
        <ele>2500.2</ele>
        <time>2022-07-16T12:38:08+0200</time>
      </trkpt>
      <trkpt lat="45.08507" lon="6.47133">
        <ele>2501.3</ele>
        <time>2022-07-16T12:38:14+0200</time>
      </trkpt>
      <trkpt lat="45.0851" lon="6.47141">
        <ele>2500.6</ele>
        <time>2022-07-16T12:38:23+0200</time>
      </trkpt>
      <trkpt lat="45.0851" lon="6.47148">
        <ele>2499.9</ele>
        <time>2022-07-16T12:38:34+0200</time>
      </trkpt>
      <trkpt lat="45.08508" lon="6.47142">
        <ele>2501.5</ele>
        <time>2022-07-16T12:38:52+0200</time>
      </trkpt>
      <trkpt lat="45.08511" lon="6.47146">
        <ele>2499.5</ele>
        <time>2022-07-16T12:39:19+0200</time>
      </trkpt>
      <trkpt lat="45.08506" lon="6.4715">
        <ele>2501.6</ele>
        <time>2022-07-16T13:08:32+0200</time>
      </trkpt>
      <trkpt lat="45.08502" lon="6.47153">
        <ele>2503.7</ele>
        <time>2022-07-16T13:08:37+0200</time>
      </trkpt>
      <trkpt lat="45.08499" lon="6.47157">
        <ele>2505.3</ele>
        <time>2022-07-16T13:08:46+0200</time>
      </trkpt>
      <trkpt lat="45.08494" lon="6.4716">
        <ele>2506.5</ele>
        <time>2022-07-16T13:08:54+0200</time>
      </trkpt>
      <trkpt lat="45.0849" lon="6.47165">
        <ele>2507.6</ele>
        <time>2022-07-16T13:09:00+0200</time>
      </trkpt>
      <trkpt lat="45.08491" lon="6.47173">
        <ele>2506.4</ele>
        <time>2022-07-16T13:09:12+0200</time>
      </trkpt>
      <trkpt lat="45.08489" lon="6.4718">
        <ele>2506</ele>
        <time>2022-07-16T13:09:15+0200</time>
      </trkpt>
      <trkpt lat="45.08486" lon="6.47187">
        <ele>2506.3</ele>
        <time>2022-07-16T13:09:18+0200</time>
      </trkpt>
      <trkpt lat="45.08483" lon="6.47192">
        <ele>2507.8</ele>
        <time>2022-07-16T13:09:20+0200</time>
      </trkpt>
      <trkpt lat="45.0848" lon="6.47198">
        <ele>2508.1</ele>
        <time>2022-07-16T13:09:22+0200</time>
      </trkpt>
      <trkpt lat="45.08478" lon="6.47204">
        <ele>2508.2</ele>
        <time>2022-07-16T13:09:24+0200</time>
      </trkpt>
      <trkpt lat="45.08474" lon="6.47212">
        <ele>2508.8</ele>
        <time>2022-07-16T13:09:26+0200</time>
      </trkpt>
      <trkpt lat="45.08469" lon="6.47216">
        <ele>2510</ele>
        <time>2022-07-16T13:09:27+0200</time>
      </trkpt>
      <trkpt lat="45.08464" lon="6.47222">
        <ele>2511.6</ele>
        <time>2022-07-16T13:09:30+0200</time>
      </trkpt>
      <trkpt lat="45.08461" lon="6.47229">
        <ele>2512</ele>
        <time>2022-07-16T13:09:32+0200</time>
      </trkpt>
      <trkpt lat="45.08458" lon="6.47233">
        <ele>2513.6</ele>
        <time>2022-07-16T13:09:34+0200</time>
      </trkpt>
      <trkpt lat="45.08458" lon="6.47241">
        <ele>2512.8</ele>
        <time>2022-07-16T13:09:37+0200</time>
      </trkpt>
      <trkpt lat="45.08459" lon="6.47248">
        <ele>2511.1</ele>
        <time>2022-07-16T13:09:40+0200</time>
      </trkpt>
      <trkpt lat="45.08458" lon="6.47255">
        <ele>2510.2</ele>
        <time>2022-07-16T13:09:41+0200</time>
      </trkpt>
      <trkpt lat="45.08455" lon="6.47261">
        <ele>2510.7</ele>
        <time>2022-07-16T13:09:42+0200</time>
      </trkpt>
      <trkpt lat="45.08451" lon="6.47272">
        <ele>2510.4</ele>
        <time>2022-07-16T13:09:44+0200</time>
      </trkpt>
      <trkpt lat="45.08448" lon="6.47277">
        <ele>2510.9</ele>
        <time>2022-07-16T13:09:45+0200</time>
      </trkpt>
      <trkpt lat="45.08443" lon="6.47281">
        <ele>2512.8</ele>
        <time>2022-07-16T13:09:47+0200</time>
      </trkpt>
      <trkpt lat="45.0844" lon="6.47288">
        <ele>2512.9</ele>
        <time>2022-07-16T13:09:50+0200</time>
      </trkpt>
      <trkpt lat="45.08436" lon="6.47293">
        <ele>2513.7</ele>
        <time>2022-07-16T13:09:54+0200</time>
      </trkpt>
      <trkpt lat="45.08435" lon="6.47301">
        <ele>2511.5</ele>
        <time>2022-07-16T13:10:01+0200</time>
      </trkpt>
      <trkpt lat="45.08432" lon="6.47309">
        <ele>2511.5</ele>
        <time>2022-07-16T13:10:05+0200</time>
      </trkpt>
      <trkpt lat="45.08429" lon="6.47314">
        <ele>2512.2</ele>
        <time>2022-07-16T13:10:07+0200</time>
      </trkpt>
      <trkpt lat="45.08426" lon="6.47319">
        <ele>2512.9</ele>
        <time>2022-07-16T13:10:09+0200</time>
      </trkpt>
      <trkpt lat="45.08423" lon="6.47325">
        <ele>2512.7</ele>
        <time>2022-07-16T13:10:11+0200</time>
      </trkpt>
      <trkpt lat="45.08421" lon="6.47331">
        <ele>2512.6</ele>
        <time>2022-07-16T13:10:13+0200</time>
      </trkpt>
      <trkpt lat="45.08419" lon="6.47338">
        <ele>2512.8</ele>
        <time>2022-07-16T13:10:16+0200</time>
      </trkpt>
      <trkpt lat="45.08417" lon="6.47344">
        <ele>2514</ele>
        <time>2022-07-16T13:10:19+0200</time>
      </trkpt>
      <trkpt lat="45.08413" lon="6.47348">
        <ele>2515.6</ele>
        <time>2022-07-16T13:10:22+0200</time>
      </trkpt>
      <trkpt lat="45.08409" lon="6.47353">
        <ele>2516.5</ele>
        <time>2022-07-16T13:10:25+0200</time>
      </trkpt>
      <trkpt lat="45.08405" lon="6.47361">
        <ele>2516.8</ele>
        <time>2022-07-16T13:10:28+0200</time>
      </trkpt>
      <trkpt lat="45.08403" lon="6.4737">
        <ele>2516.3</ele>
        <time>2022-07-16T13:10:31+0200</time>
      </trkpt>
      <trkpt lat="45.08401" lon="6.47378">
        <ele>2516.2</ele>
        <time>2022-07-16T13:10:33+0200</time>
      </trkpt>
      <trkpt lat="45.08397" lon="6.47383">
        <ele>2516.5</ele>
        <time>2022-07-16T13:10:35+0200</time>
      </trkpt>
      <trkpt lat="45.08395" lon="6.47389">
        <ele>2516.6</ele>
        <time>2022-07-16T13:10:37+0200</time>
      </trkpt>
      <trkpt lat="45.08393" lon="6.47397">
        <ele>2516.6</ele>
        <time>2022-07-16T13:10:40+0200</time>
      </trkpt>
      <trkpt lat="45.08391" lon="6.47405">
        <ele>2517</ele>
        <time>2022-07-16T13:10:43+0200</time>
      </trkpt>
      <trkpt lat="45.08389" lon="6.47412">
        <ele>2517.2</ele>
        <time>2022-07-16T13:10:45+0200</time>
      </trkpt>
      <trkpt lat="45.08389" lon="6.47418">
        <ele>2516.7</ele>
        <time>2022-07-16T13:10:47+0200</time>
      </trkpt>
      <trkpt lat="45.08386" lon="6.47424">
        <ele>2516.9</ele>
        <time>2022-07-16T13:10:49+0200</time>
      </trkpt>
      <trkpt lat="45.08386" lon="6.4743">
        <ele>2516.3</ele>
        <time>2022-07-16T13:10:51+0200</time>
      </trkpt>
      <trkpt lat="45.08384" lon="6.47439">
        <ele>2515.8</ele>
        <time>2022-07-16T13:10:53+0200</time>
      </trkpt>
      <trkpt lat="45.0838" lon="6.47443">
        <ele>2516.6</ele>
        <time>2022-07-16T13:10:55+0200</time>
      </trkpt>
      <trkpt lat="45.08376" lon="6.47448">
        <ele>2517.1</ele>
        <time>2022-07-16T13:10:57+0200</time>
      </trkpt>
      <trkpt lat="45.08374" lon="6.47453">
        <ele>2516.7</ele>
        <time>2022-07-16T13:10:59+0200</time>
      </trkpt>
      <trkpt lat="45.08369" lon="6.47456">
        <ele>2517.6</ele>
        <time>2022-07-16T13:11:01+0200</time>
      </trkpt>
      <trkpt lat="45.08363" lon="6.47463">
        <ele>2518.7</ele>
        <time>2022-07-16T13:11:04+0200</time>
      </trkpt>
      <trkpt lat="45.08359" lon="6.47468">
        <ele>2518.8</ele>
        <time>2022-07-16T13:11:06+0200</time>
      </trkpt>
      <trkpt lat="45.08355" lon="6.47471">
        <ele>2519.3</ele>
        <time>2022-07-16T13:11:08+0200</time>
      </trkpt>
      <trkpt lat="45.0835" lon="6.47474">
        <ele>2519.6</ele>
        <time>2022-07-16T13:11:10+0200</time>
      </trkpt>
      <trkpt lat="45.08346" lon="6.47479">
        <ele>2519.6</ele>
        <time>2022-07-16T13:11:12+0200</time>
      </trkpt>
      <trkpt lat="45.08342" lon="6.47483">
        <ele>2519.9</ele>
        <time>2022-07-16T13:11:14+0200</time>
      </trkpt>
      <trkpt lat="45.08336" lon="6.47487">
        <ele>2520</ele>
        <time>2022-07-16T13:11:17+0200</time>
      </trkpt>
      <trkpt lat="45.08331" lon="6.47492">
        <ele>2520.6</ele>
        <time>2022-07-16T13:11:20+0200</time>
      </trkpt>
      <trkpt lat="45.08327" lon="6.47496">
        <ele>2521.7</ele>
        <time>2022-07-16T13:11:22+0200</time>
      </trkpt>
      <trkpt lat="45.08323" lon="6.47501">
        <ele>2522.9</ele>
        <time>2022-07-16T13:11:24+0200</time>
      </trkpt>
      <trkpt lat="45.08319" lon="6.47507">
        <ele>2524.3</ele>
        <time>2022-07-16T13:11:27+0200</time>
      </trkpt>
      <trkpt lat="45.08313" lon="6.47512">
        <ele>2526.4</ele>
        <time>2022-07-16T13:11:31+0200</time>
      </trkpt>
      <trkpt lat="45.0831" lon="6.47517">
        <ele>2526.5</ele>
        <time>2022-07-16T13:11:33+0200</time>
      </trkpt>
      <trkpt lat="45.08306" lon="6.47523">
        <ele>2526.7</ele>
        <time>2022-07-16T13:11:36+0200</time>
      </trkpt>
      <trkpt lat="45.08302" lon="6.47529">
        <ele>2526</ele>
        <time>2022-07-16T13:11:39+0200</time>
      </trkpt>
      <trkpt lat="45.08298" lon="6.47533">
        <ele>2525.9</ele>
        <time>2022-07-16T13:11:40+0200</time>
      </trkpt>
      <trkpt lat="45.08295" lon="6.47539">
        <ele>2525.2</ele>
        <time>2022-07-16T13:11:41+0200</time>
      </trkpt>
      <trkpt lat="45.08291" lon="6.47544">
        <ele>2524.9</ele>
        <time>2022-07-16T13:11:42+0200</time>
      </trkpt>
      <trkpt lat="45.08287" lon="6.47549">
        <ele>2524.9</ele>
        <time>2022-07-16T13:11:43+0200</time>
      </trkpt>
      <trkpt lat="45.08282" lon="6.47557">
        <ele>2524.1</ele>
        <time>2022-07-16T13:11:45+0200</time>
      </trkpt>
      <trkpt lat="45.08278" lon="6.47562">
        <ele>2524.6</ele>
        <time>2022-07-16T13:11:48+0200</time>
      </trkpt>
      <trkpt lat="45.08275" lon="6.47567">
        <ele>2524.9</ele>
        <time>2022-07-16T13:11:50+0200</time>
      </trkpt>
      <trkpt lat="45.0827" lon="6.47572">
        <ele>2526</ele>
        <time>2022-07-16T13:11:54+0200</time>
      </trkpt>
      <trkpt lat="45.08267" lon="6.47578">
        <ele>2525.3</ele>
        <time>2022-07-16T13:11:56+0200</time>
      </trkpt>
      <trkpt lat="45.08263" lon="6.47584">
        <ele>2525.4</ele>
        <time>2022-07-16T13:11:59+0200</time>
      </trkpt>
      <trkpt lat="45.0826" lon="6.4759">
        <ele>2526</ele>
        <time>2022-07-16T13:12:01+0200</time>
      </trkpt>
      <trkpt lat="45.08257" lon="6.47595">
        <ele>2526.7</ele>
        <time>2022-07-16T13:12:04+0200</time>
      </trkpt>
      <trkpt lat="45.08252" lon="6.47598">
        <ele>2527.8</ele>
        <time>2022-07-16T13:12:08+0200</time>
      </trkpt>
      <trkpt lat="45.08248" lon="6.47604">
        <ele>2528.2</ele>
        <time>2022-07-16T13:12:13+0200</time>
      </trkpt>
      <trkpt lat="45.08243" lon="6.47604">
        <ele>2528.8</ele>
        <time>2022-07-16T13:12:16+0200</time>
      </trkpt>
      <trkpt lat="45.08237" lon="6.47603">
        <ele>2530</ele>
        <time>2022-07-16T13:12:20+0200</time>
      </trkpt>
      <trkpt lat="45.08233" lon="6.47605">
        <ele>2530</ele>
        <time>2022-07-16T13:12:23+0200</time>
      </trkpt>
      <trkpt lat="45.08228" lon="6.47606">
        <ele>2530.6</ele>
        <time>2022-07-16T13:12:27+0200</time>
      </trkpt>
      <trkpt lat="45.08224" lon="6.47607">
        <ele>2530.6</ele>
        <time>2022-07-16T13:12:31+0200</time>
      </trkpt>
      <trkpt lat="45.08218" lon="6.47608">
        <ele>2531.5</ele>
        <time>2022-07-16T13:12:35+0200</time>
      </trkpt>
      <trkpt lat="45.08213" lon="6.47609">
        <ele>2532.7</ele>
        <time>2022-07-16T13:12:38+0200</time>
      </trkpt>
      <trkpt lat="45.08209" lon="6.47611">
        <ele>2532.9</ele>
        <time>2022-07-16T13:12:41+0200</time>
      </trkpt>
      <trkpt lat="45.08204" lon="6.47612">
        <ele>2534.2</ele>
        <time>2022-07-16T13:12:44+0200</time>
      </trkpt>
      <trkpt lat="45.08199" lon="6.47613">
        <ele>2535.2</ele>
        <time>2022-07-16T13:12:49+0200</time>
      </trkpt>
      <trkpt lat="45.08194" lon="6.47615">
        <ele>2536.2</ele>
        <time>2022-07-16T13:12:53+0200</time>
      </trkpt>
      <trkpt lat="45.08189" lon="6.47617">
        <ele>2537.1</ele>
        <time>2022-07-16T13:12:57+0200</time>
      </trkpt>
      <trkpt lat="45.08183" lon="6.47616">
        <ele>2538.8</ele>
        <time>2022-07-16T13:13:03+0200</time>
      </trkpt>
      <trkpt lat="45.08178" lon="6.47619">
        <ele>2539.7</ele>
        <time>2022-07-16T13:13:06+0200</time>
      </trkpt>
      <trkpt lat="45.08173" lon="6.47621">
        <ele>2540.6</ele>
        <time>2022-07-16T13:13:19+0200</time>
      </trkpt>
      <trkpt lat="45.08168" lon="6.47621">
        <ele>2542</ele>
        <time>2022-07-16T13:13:26+0200</time>
      </trkpt>
      <trkpt lat="45.08163" lon="6.47622">
        <ele>2543.2</ele>
        <time>2022-07-16T13:13:31+0200</time>
      </trkpt>
      <trkpt lat="45.08159" lon="6.47625">
        <ele>2543.8</ele>
        <time>2022-07-16T13:13:36+0200</time>
      </trkpt>
      <trkpt lat="45.08154" lon="6.4763">
        <ele>2544.3</ele>
        <time>2022-07-16T13:13:40+0200</time>
      </trkpt>
      <trkpt lat="45.08152" lon="6.47635">
        <ele>2544.4</ele>
        <time>2022-07-16T13:13:45+0200</time>
      </trkpt>
      <trkpt lat="45.08148" lon="6.4764">
        <ele>2545</ele>
        <time>2022-07-16T13:13:51+0200</time>
      </trkpt>
      <trkpt lat="45.08143" lon="6.47642">
        <ele>2546.4</ele>
        <time>2022-07-16T13:13:57+0200</time>
      </trkpt>
      <trkpt lat="45.0814" lon="6.47646">
        <ele>2547.3</ele>
        <time>2022-07-16T13:14:03+0200</time>
      </trkpt>
      <trkpt lat="45.08136" lon="6.4765">
        <ele>2548.2</ele>
        <time>2022-07-16T13:14:10+0200</time>
      </trkpt>
      <trkpt lat="45.08131" lon="6.47649">
        <ele>2549.8</ele>
        <time>2022-07-16T13:14:15+0200</time>
      </trkpt>
      <trkpt lat="45.08126" lon="6.47648">
        <ele>2551.3</ele>
        <time>2022-07-16T13:14:23+0200</time>
      </trkpt>
      <trkpt lat="45.08121" lon="6.47649">
        <ele>2552.8</ele>
        <time>2022-07-16T13:14:29+0200</time>
      </trkpt>
      <trkpt lat="45.08116" lon="6.47648">
        <ele>2554.3</ele>
        <time>2022-07-16T13:14:34+0200</time>
      </trkpt>
      <trkpt lat="45.08111" lon="6.47651">
        <ele>2555.6</ele>
        <time>2022-07-16T13:14:39+0200</time>
      </trkpt>
      <trkpt lat="45.08105" lon="6.47653">
        <ele>2556.6</ele>
        <time>2022-07-16T13:14:45+0200</time>
      </trkpt>
      <trkpt lat="45.081" lon="6.47653">
        <ele>2557.6</ele>
        <time>2022-07-16T13:14:51+0200</time>
      </trkpt>
      <trkpt lat="45.08096" lon="6.47652">
        <ele>2558.5</ele>
        <time>2022-07-16T13:14:58+0200</time>
      </trkpt>
      <trkpt lat="45.0809" lon="6.47651">
        <ele>2559.6</ele>
        <time>2022-07-16T13:15:03+0200</time>
      </trkpt>
      <trkpt lat="45.08085" lon="6.47654">
        <ele>2560.6</ele>
        <time>2022-07-16T13:15:08+0200</time>
      </trkpt>
      <trkpt lat="45.08081" lon="6.47657">
        <ele>2561.4</ele>
        <time>2022-07-16T13:15:14+0200</time>
      </trkpt>
      <trkpt lat="45.08076" lon="6.47658">
        <ele>2562.4</ele>
        <time>2022-07-16T13:15:19+0200</time>
      </trkpt>
      <trkpt lat="45.08072" lon="6.47658">
        <ele>2563.3</ele>
        <time>2022-07-16T13:15:23+0200</time>
      </trkpt>
      <trkpt lat="45.08067" lon="6.47658">
        <ele>2564.2</ele>
        <time>2022-07-16T13:15:28+0200</time>
      </trkpt>
      <trkpt lat="45.08062" lon="6.47656">
        <ele>2565</ele>
        <time>2022-07-16T13:15:35+0200</time>
      </trkpt>
      <trkpt lat="45.08057" lon="6.47656">
        <ele>2565.9</ele>
        <time>2022-07-16T13:15:40+0200</time>
      </trkpt>
      <trkpt lat="45.08053" lon="6.47657">
        <ele>2566.9</ele>
        <time>2022-07-16T13:15:47+0200</time>
      </trkpt>
      <trkpt lat="45.08048" lon="6.4766">
        <ele>2568.1</ele>
        <time>2022-07-16T13:15:52+0200</time>
      </trkpt>
      <trkpt lat="45.08044" lon="6.47659">
        <ele>2569</ele>
        <time>2022-07-16T13:16:10+0200</time>
      </trkpt>
      <trkpt lat="45.08041" lon="6.47654">
        <ele>2569.2</ele>
        <time>2022-07-16T13:16:17+0200</time>
      </trkpt>
      <trkpt lat="45.08043" lon="6.47659">
        <ele>2569.1</ele>
        <time>2022-07-16T13:16:34+0200</time>
      </trkpt>
      <trkpt lat="45.08039" lon="6.47657">
        <ele>2569.9</ele>
        <time>2022-07-16T13:16:46+0200</time>
      </trkpt>
      <trkpt lat="45.08034" lon="6.47658">
        <ele>2571.1</ele>
        <time>2022-07-16T13:16:49+0200</time>
      </trkpt>
      <trkpt lat="45.08029" lon="6.47657">
        <ele>2572.1</ele>
        <time>2022-07-16T13:16:52+0200</time>
      </trkpt>
      <trkpt lat="45.08024" lon="6.47657">
        <ele>2572.5</ele>
        <time>2022-07-16T13:16:55+0200</time>
      </trkpt>
      <trkpt lat="45.08019" lon="6.47657">
        <ele>2572.8</ele>
        <time>2022-07-16T13:16:58+0200</time>
      </trkpt>
      <trkpt lat="45.08015" lon="6.4766">
        <ele>2573.2</ele>
        <time>2022-07-16T13:17:01+0200</time>
      </trkpt>
      <trkpt lat="45.08008" lon="6.47659">
        <ele>2573.5</ele>
        <time>2022-07-16T13:17:04+0200</time>
      </trkpt>
      <trkpt lat="45.08003" lon="6.47659">
        <ele>2573.8</ele>
        <time>2022-07-16T13:17:07+0200</time>
      </trkpt>
      <trkpt lat="45.07999" lon="6.47662">
        <ele>2573.8</ele>
        <time>2022-07-16T13:17:10+0200</time>
      </trkpt>
      <trkpt lat="45.07993" lon="6.47666">
        <ele>2573.1</ele>
        <time>2022-07-16T13:17:12+0200</time>
      </trkpt>
      <trkpt lat="45.07988" lon="6.47667">
        <ele>2572.4</ele>
        <time>2022-07-16T13:17:13+0200</time>
      </trkpt>
      <trkpt lat="45.07982" lon="6.47669">
        <ele>2571.9</ele>
        <time>2022-07-16T13:17:14+0200</time>
      </trkpt>
      <trkpt lat="45.07977" lon="6.47669">
        <ele>2571</ele>
        <time>2022-07-16T13:17:15+0200</time>
      </trkpt>
      <trkpt lat="45.07972" lon="6.47666">
        <ele>2570.1</ele>
        <time>2022-07-16T13:17:16+0200</time>
      </trkpt>
      <trkpt lat="45.07965" lon="6.47671">
        <ele>2570.2</ele>
        <time>2022-07-16T13:17:18+0200</time>
      </trkpt>
      <trkpt lat="45.0796" lon="6.47673">
        <ele>2570.3</ele>
        <time>2022-07-16T13:17:20+0200</time>
      </trkpt>
      <trkpt lat="45.07955" lon="6.47675">
        <ele>2570.5</ele>
        <time>2022-07-16T13:17:22+0200</time>
      </trkpt>
      <trkpt lat="45.07948" lon="6.47679">
        <ele>2570.9</ele>
        <time>2022-07-16T13:17:28+0200</time>
      </trkpt>
      <trkpt lat="45.07939" lon="6.47684">
        <ele>2570.9</ele>
        <time>2022-07-16T13:17:30+0200</time>
      </trkpt>
      <trkpt lat="45.07934" lon="6.47684">
        <ele>2569.8</ele>
        <time>2022-07-16T13:17:31+0200</time>
      </trkpt>
      <trkpt lat="45.07928" lon="6.47684">
        <ele>2568.9</ele>
        <time>2022-07-16T13:17:32+0200</time>
      </trkpt>
      <trkpt lat="45.07922" lon="6.47684">
        <ele>2567.8</ele>
        <time>2022-07-16T13:17:33+0200</time>
      </trkpt>
      <trkpt lat="45.07916" lon="6.47689">
        <ele>2567.2</ele>
        <time>2022-07-16T13:17:34+0200</time>
      </trkpt>
      <trkpt lat="45.0791" lon="6.47691">
        <ele>2566.2</ele>
        <time>2022-07-16T13:17:35+0200</time>
      </trkpt>
      <trkpt lat="45.07903" lon="6.47691">
        <ele>2564.5</ele>
        <time>2022-07-16T13:17:36+0200</time>
      </trkpt>
      <trkpt lat="45.07895" lon="6.47692">
        <ele>2562.6</ele>
        <time>2022-07-16T13:17:37+0200</time>
      </trkpt>
      <trkpt lat="45.07887" lon="6.47694">
        <ele>2561</ele>
        <time>2022-07-16T13:17:38+0200</time>
      </trkpt>
      <trkpt lat="45.07881" lon="6.47692">
        <ele>2561.2</ele>
        <time>2022-07-16T13:17:39+0200</time>
      </trkpt>
      <trkpt lat="45.07874" lon="6.47688">
        <ele>2561.6</ele>
        <time>2022-07-16T13:17:40+0200</time>
      </trkpt>
      <trkpt lat="45.07867" lon="6.47688">
        <ele>2561.6</ele>
        <time>2022-07-16T13:17:41+0200</time>
      </trkpt>
      <trkpt lat="45.0786" lon="6.47689">
        <ele>2561.6</ele>
        <time>2022-07-16T13:17:42+0200</time>
      </trkpt>
      <trkpt lat="45.07855" lon="6.47693">
        <ele>2561.4</ele>
        <time>2022-07-16T13:17:43+0200</time>
      </trkpt>
      <trkpt lat="45.0785" lon="6.47695">
        <ele>2561.6</ele>
        <time>2022-07-16T13:17:44+0200</time>
      </trkpt>
      <trkpt lat="45.07841" lon="6.47697">
        <ele>2562.3</ele>
        <time>2022-07-16T13:17:46+0200</time>
      </trkpt>
      <trkpt lat="45.07833" lon="6.47695">
        <ele>2562.1</ele>
        <time>2022-07-16T13:17:48+0200</time>
      </trkpt>
      <trkpt lat="45.07828" lon="6.47693">
        <ele>2562.1</ele>
        <time>2022-07-16T13:17:49+0200</time>
      </trkpt>
      <trkpt lat="45.07824" lon="6.47692">
        <ele>2562</ele>
        <time>2022-07-16T13:17:50+0200</time>
      </trkpt>
      <trkpt lat="45.07818" lon="6.47696">
        <ele>2561.7</ele>
        <time>2022-07-16T13:17:51+0200</time>
      </trkpt>
      <trkpt lat="45.07813" lon="6.47698">
        <ele>2562.1</ele>
        <time>2022-07-16T13:17:52+0200</time>
      </trkpt>
      <trkpt lat="45.07808" lon="6.47701">
        <ele>2562.4</ele>
        <time>2022-07-16T13:17:53+0200</time>
      </trkpt>
      <trkpt lat="45.07803" lon="6.477">
        <ele>2562.1</ele>
        <time>2022-07-16T13:17:54+0200</time>
      </trkpt>
      <trkpt lat="45.07798" lon="6.47701">
        <ele>2562.3</ele>
        <time>2022-07-16T13:17:55+0200</time>
      </trkpt>
      <trkpt lat="45.07793" lon="6.47704">
        <ele>2562.9</ele>
        <time>2022-07-16T13:17:56+0200</time>
      </trkpt>
      <trkpt lat="45.07785" lon="6.47706">
        <ele>2563.6</ele>
        <time>2022-07-16T13:17:58+0200</time>
      </trkpt>
      <trkpt lat="45.0778" lon="6.47707">
        <ele>2563.8</ele>
        <time>2022-07-16T13:17:59+0200</time>
      </trkpt>
      <trkpt lat="45.07774" lon="6.47707">
        <ele>2563.4</ele>
        <time>2022-07-16T13:18:00+0200</time>
      </trkpt>
      <trkpt lat="45.0777" lon="6.47707">
        <ele>2562.9</ele>
        <time>2022-07-16T13:18:01+0200</time>
      </trkpt>
      <trkpt lat="45.07765" lon="6.47708">
        <ele>2562.3</ele>
        <time>2022-07-16T13:18:02+0200</time>
      </trkpt>
      <trkpt lat="45.07758" lon="6.47709">
        <ele>2561.5</ele>
        <time>2022-07-16T13:18:03+0200</time>
      </trkpt>
      <trkpt lat="45.07752" lon="6.47709">
        <ele>2560.7</ele>
        <time>2022-07-16T13:18:04+0200</time>
      </trkpt>
      <trkpt lat="45.07746" lon="6.47712">
        <ele>2559.6</ele>
        <time>2022-07-16T13:18:05+0200</time>
      </trkpt>
      <trkpt lat="45.07739" lon="6.47717">
        <ele>2558</ele>
        <time>2022-07-16T13:18:06+0200</time>
      </trkpt>
      <trkpt lat="45.0773" lon="6.47722">
        <ele>2555.9</ele>
        <time>2022-07-16T13:18:07+0200</time>
      </trkpt>
      <trkpt lat="45.07721" lon="6.47726">
        <ele>2555.2</ele>
        <time>2022-07-16T13:18:08+0200</time>
      </trkpt>
      <trkpt lat="45.07714" lon="6.47729">
        <ele>2555.5</ele>
        <time>2022-07-16T13:18:09+0200</time>
      </trkpt>
      <trkpt lat="45.07706" lon="6.47731">
        <ele>2555.5</ele>
        <time>2022-07-16T13:18:10+0200</time>
      </trkpt>
      <trkpt lat="45.077" lon="6.47734">
        <ele>2555.3</ele>
        <time>2022-07-16T13:18:11+0200</time>
      </trkpt>
      <trkpt lat="45.07694" lon="6.47737">
        <ele>2554.9</ele>
        <time>2022-07-16T13:18:12+0200</time>
      </trkpt>
      <trkpt lat="45.0769" lon="6.47742">
        <ele>2554</ele>
        <time>2022-07-16T13:18:13+0200</time>
      </trkpt>
      <trkpt lat="45.07685" lon="6.47745">
        <ele>2553</ele>
        <time>2022-07-16T13:18:14+0200</time>
      </trkpt>
      <trkpt lat="45.07679" lon="6.47748">
        <ele>2551.9</ele>
        <time>2022-07-16T13:18:15+0200</time>
      </trkpt>
      <trkpt lat="45.07674" lon="6.4775">
        <ele>2550.9</ele>
        <time>2022-07-16T13:18:16+0200</time>
      </trkpt>
      <trkpt lat="45.07668" lon="6.47754">
        <ele>2550.8</ele>
        <time>2022-07-16T13:18:18+0200</time>
      </trkpt>
      <trkpt lat="45.07662" lon="6.47756">
        <ele>2549.8</ele>
        <time>2022-07-16T13:18:20+0200</time>
      </trkpt>
      <trkpt lat="45.07657" lon="6.47759">
        <ele>2548.9</ele>
        <time>2022-07-16T13:18:23+0200</time>
      </trkpt>
      <trkpt lat="45.07652" lon="6.47762">
        <ele>2548</ele>
        <time>2022-07-16T13:18:26+0200</time>
      </trkpt>
      <trkpt lat="45.07647" lon="6.47759">
        <ele>2546.3</ele>
        <time>2022-07-16T13:18:30+0200</time>
      </trkpt>
      <trkpt lat="45.07642" lon="6.47754">
        <ele>2544.8</ele>
        <time>2022-07-16T13:18:33+0200</time>
      </trkpt>
      <trkpt lat="45.07637" lon="6.47753">
        <ele>2543</ele>
        <time>2022-07-16T13:18:35+0200</time>
      </trkpt>
      <trkpt lat="45.07632" lon="6.47752">
        <ele>2540.9</ele>
        <time>2022-07-16T13:18:37+0200</time>
      </trkpt>
      <trkpt lat="45.07625" lon="6.47749">
        <ele>2538</ele>
        <time>2022-07-16T13:18:39+0200</time>
      </trkpt>
      <trkpt lat="45.0762" lon="6.47748">
        <ele>2535.6</ele>
        <time>2022-07-16T13:18:41+0200</time>
      </trkpt>
      <trkpt lat="45.07615" lon="6.47747">
        <ele>2533.3</ele>
        <time>2022-07-16T13:18:43+0200</time>
      </trkpt>
      <trkpt lat="45.07609" lon="6.47742">
        <ele>2531.8</ele>
        <time>2022-07-16T13:18:45+0200</time>
      </trkpt>
      <trkpt lat="45.07604" lon="6.4774">
        <ele>2530</ele>
        <time>2022-07-16T13:18:47+0200</time>
      </trkpt>
      <trkpt lat="45.07598" lon="6.47736">
        <ele>2528.5</ele>
        <time>2022-07-16T13:18:49+0200</time>
      </trkpt>
      <trkpt lat="45.07593" lon="6.47734">
        <ele>2526.6</ele>
        <time>2022-07-16T13:18:53+0200</time>
      </trkpt>
      <trkpt lat="45.07588" lon="6.47734">
        <ele>2524.3</ele>
        <time>2022-07-16T13:18:56+0200</time>
      </trkpt>
      <trkpt lat="45.0758" lon="6.47732">
        <ele>2522</ele>
        <time>2022-07-16T13:18:59+0200</time>
      </trkpt>
      <trkpt lat="45.0757" lon="6.47733">
        <ele>2518.7</ele>
        <time>2022-07-16T13:19:01+0200</time>
      </trkpt>
      <trkpt lat="45.07563" lon="6.4774">
        <ele>2515.7</ele>
        <time>2022-07-16T13:19:03+0200</time>
      </trkpt>
      <trkpt lat="45.07558" lon="6.47737">
        <ele>2514.6</ele>
        <time>2022-07-16T13:19:05+0200</time>
      </trkpt>
      <trkpt lat="45.07552" lon="6.47739">
        <ele>2513</ele>
        <time>2022-07-16T13:19:07+0200</time>
      </trkpt>
      <trkpt lat="45.07542" lon="6.47742">
        <ele>2510.9</ele>
        <time>2022-07-16T13:19:09+0200</time>
      </trkpt>
      <trkpt lat="45.07538" lon="6.47742">
        <ele>2510</ele>
        <time>2022-07-16T13:19:10+0200</time>
      </trkpt>
      <trkpt lat="45.07531" lon="6.47739">
        <ele>2508.8</ele>
        <time>2022-07-16T13:19:12+0200</time>
      </trkpt>
      <trkpt lat="45.07526" lon="6.47734">
        <ele>2507.3</ele>
        <time>2022-07-16T13:19:14+0200</time>
      </trkpt>
      <trkpt lat="45.07523" lon="6.47727">
        <ele>2506.2</ele>
        <time>2022-07-16T13:19:16+0200</time>
      </trkpt>
      <trkpt lat="45.0752" lon="6.47722">
        <ele>2505</ele>
        <time>2022-07-16T13:19:18+0200</time>
      </trkpt>
      <trkpt lat="45.07526" lon="6.47715">
        <ele>2507.2</ele>
        <time>2022-07-16T13:19:21+0200</time>
      </trkpt>
      <trkpt lat="45.07529" lon="6.47707">
        <ele>2508</ele>
        <time>2022-07-16T13:19:23+0200</time>
      </trkpt>
      <trkpt lat="45.07525" lon="6.47702">
        <ele>2506</ele>
        <time>2022-07-16T13:19:25+0200</time>
      </trkpt>
      <trkpt lat="45.0752" lon="6.47698">
        <ele>2503.7</ele>
        <time>2022-07-16T13:19:26+0200</time>
      </trkpt>
      <trkpt lat="45.07515" lon="6.47692">
        <ele>2501.8</ele>
        <time>2022-07-16T13:19:27+0200</time>
      </trkpt>
      <trkpt lat="45.07511" lon="6.47687">
        <ele>2500.8</ele>
        <time>2022-07-16T13:19:28+0200</time>
      </trkpt>
      <trkpt lat="45.07505" lon="6.47681">
        <ele>2499.8</ele>
        <time>2022-07-16T13:19:29+0200</time>
      </trkpt>
      <trkpt lat="45.07501" lon="6.47676">
        <ele>2498.6</ele>
        <time>2022-07-16T13:19:30+0200</time>
      </trkpt>
      <trkpt lat="45.07497" lon="6.4767">
        <ele>2497.2</ele>
        <time>2022-07-16T13:19:31+0200</time>
      </trkpt>
      <trkpt lat="45.0749" lon="6.47663">
        <ele>2494.9</ele>
        <time>2022-07-16T13:19:33+0200</time>
      </trkpt>
      <trkpt lat="45.07484" lon="6.47657">
        <ele>2492.9</ele>
        <time>2022-07-16T13:19:35+0200</time>
      </trkpt>
      <trkpt lat="45.07479" lon="6.47653">
        <ele>2491.8</ele>
        <time>2022-07-16T13:19:36+0200</time>
      </trkpt>
      <trkpt lat="45.07476" lon="6.47648">
        <ele>2491.5</ele>
        <time>2022-07-16T13:19:38+0200</time>
      </trkpt>
      <trkpt lat="45.07474" lon="6.47638">
        <ele>2492.6</ele>
        <time>2022-07-16T13:19:41+0200</time>
      </trkpt>
      <trkpt lat="45.07472" lon="6.4763">
        <ele>2490.2</ele>
        <time>2022-07-16T13:19:43+0200</time>
      </trkpt>
      <trkpt lat="45.07472" lon="6.47623">
        <ele>2488.7</ele>
        <time>2022-07-16T13:19:45+0200</time>
      </trkpt>
      <trkpt lat="45.07474" lon="6.47617">
        <ele>2488.7</ele>
        <time>2022-07-16T13:19:49+0200</time>
      </trkpt>
      <trkpt lat="45.07473" lon="6.47609">
        <ele>2486.3</ele>
        <time>2022-07-16T13:19:55+0200</time>
      </trkpt>
      <trkpt lat="45.07475" lon="6.47603">
        <ele>2485</ele>
        <time>2022-07-16T13:19:57+0200</time>
      </trkpt>
      <trkpt lat="45.07477" lon="6.47596">
        <ele>2483.6</ele>
        <time>2022-07-16T13:19:59+0200</time>
      </trkpt>
      <trkpt lat="45.07479" lon="6.47589">
        <ele>2481.9</ele>
        <time>2022-07-16T13:20:00+0200</time>
      </trkpt>
      <trkpt lat="45.07483" lon="6.47581">
        <ele>2481.8</ele>
        <time>2022-07-16T13:20:01+0200</time>
      </trkpt>
      <trkpt lat="45.07486" lon="6.47576">
        <ele>2482.2</ele>
        <time>2022-07-16T13:20:02+0200</time>
      </trkpt>
      <trkpt lat="45.07486" lon="6.47565">
        <ele>2480.2</ele>
        <time>2022-07-16T13:20:04+0200</time>
      </trkpt>
      <trkpt lat="45.07479" lon="6.47557">
        <ele>2475.9</ele>
        <time>2022-07-16T13:20:06+0200</time>
      </trkpt>
      <trkpt lat="45.07476" lon="6.47547">
        <ele>2476.1</ele>
        <time>2022-07-16T13:20:08+0200</time>
      </trkpt>
      <trkpt lat="45.0747" lon="6.47544">
        <ele>2474.8</ele>
        <time>2022-07-16T13:20:12+0200</time>
      </trkpt>
      <trkpt lat="45.07466" lon="6.47539">
        <ele>2474.2</ele>
        <time>2022-07-16T13:20:14+0200</time>
      </trkpt>
      <trkpt lat="45.07461" lon="6.47533">
        <ele>2474</ele>
        <time>2022-07-16T13:20:17+0200</time>
      </trkpt>
      <trkpt lat="45.07459" lon="6.47526">
        <ele>2474.2</ele>
        <time>2022-07-16T13:20:20+0200</time>
      </trkpt>
      <trkpt lat="45.07457" lon="6.47517">
        <ele>2473.7</ele>
        <time>2022-07-16T13:20:22+0200</time>
      </trkpt>
      <trkpt lat="45.07459" lon="6.47508">
        <ele>2474.7</ele>
        <time>2022-07-16T13:20:24+0200</time>
      </trkpt>
      <trkpt lat="45.0746" lon="6.47501">
        <ele>2475.7</ele>
        <time>2022-07-16T13:20:26+0200</time>
      </trkpt>
      <trkpt lat="45.0746" lon="6.47493">
        <ele>2472</ele>
        <time>2022-07-16T13:20:29+0200</time>
      </trkpt>
      <trkpt lat="45.07459" lon="6.47487">
        <ele>2468.1</ele>
        <time>2022-07-16T13:20:32+0200</time>
      </trkpt>
      <trkpt lat="45.07461" lon="6.47478">
        <ele>2465.2</ele>
        <time>2022-07-16T13:20:36+0200</time>
      </trkpt>
      <trkpt lat="45.07462" lon="6.4747">
        <ele>2462.5</ele>
        <time>2022-07-16T13:20:39+0200</time>
      </trkpt>
      <trkpt lat="45.07464" lon="6.47463">
        <ele>2461.4</ele>
        <time>2022-07-16T13:20:41+0200</time>
      </trkpt>
      <trkpt lat="45.07464" lon="6.47456">
        <ele>2459.4</ele>
        <time>2022-07-16T13:20:43+0200</time>
      </trkpt>
      <trkpt lat="45.07466" lon="6.47448">
        <ele>2458</ele>
        <time>2022-07-16T13:20:45+0200</time>
      </trkpt>
      <trkpt lat="45.07467" lon="6.47438">
        <ele>2455.8</ele>
        <time>2022-07-16T13:20:47+0200</time>
      </trkpt>
      <trkpt lat="45.07467" lon="6.47427">
        <ele>2453.8</ele>
        <time>2022-07-16T13:20:49+0200</time>
      </trkpt>
      <trkpt lat="45.07468" lon="6.47416">
        <ele>2451.8</ele>
        <time>2022-07-16T13:20:51+0200</time>
      </trkpt>
      <trkpt lat="45.07467" lon="6.47407">
        <ele>2450.4</ele>
        <time>2022-07-16T13:20:53+0200</time>
      </trkpt>
      <trkpt lat="45.07466" lon="6.47396">
        <ele>2448.8</ele>
        <time>2022-07-16T13:20:55+0200</time>
      </trkpt>
      <trkpt lat="45.07464" lon="6.47388">
        <ele>2447.2</ele>
        <time>2022-07-16T13:20:58+0200</time>
      </trkpt>
      <trkpt lat="45.07459" lon="6.47383">
        <ele>2445.3</ele>
        <time>2022-07-16T13:21:01+0200</time>
      </trkpt>
      <trkpt lat="45.07451" lon="6.47376">
        <ele>2442.8</ele>
        <time>2022-07-16T13:21:03+0200</time>
      </trkpt>
      <trkpt lat="45.07448" lon="6.4737">
        <ele>2442.2</ele>
        <time>2022-07-16T13:21:04+0200</time>
      </trkpt>
      <trkpt lat="45.07442" lon="6.47365">
        <ele>2441.3</ele>
        <time>2022-07-16T13:21:05+0200</time>
      </trkpt>
      <trkpt lat="45.07436" lon="6.4736">
        <ele>2440.6</ele>
        <time>2022-07-16T13:21:06+0200</time>
      </trkpt>
      <trkpt lat="45.0743" lon="6.47354">
        <ele>2439.7</ele>
        <time>2022-07-16T13:21:07+0200</time>
      </trkpt>
      <trkpt lat="45.07425" lon="6.47349">
        <ele>2438.7</ele>
        <time>2022-07-16T13:21:08+0200</time>
      </trkpt>
      <trkpt lat="45.07419" lon="6.47343">
        <ele>2437.6</ele>
        <time>2022-07-16T13:21:09+0200</time>
      </trkpt>
      <trkpt lat="45.07413" lon="6.47336">
        <ele>2436.3</ele>
        <time>2022-07-16T13:21:10+0200</time>
      </trkpt>
      <trkpt lat="45.07409" lon="6.47329">
        <ele>2435.4</ele>
        <time>2022-07-16T13:21:11+0200</time>
      </trkpt>
      <trkpt lat="45.07404" lon="6.47322">
        <ele>2434.5</ele>
        <time>2022-07-16T13:21:12+0200</time>
      </trkpt>
      <trkpt lat="45.074" lon="6.47316">
        <ele>2433.5</ele>
        <time>2022-07-16T13:21:13+0200</time>
      </trkpt>
      <trkpt lat="45.07396" lon="6.47308">
        <ele>2432.6</ele>
        <time>2022-07-16T13:21:14+0200</time>
      </trkpt>
      <trkpt lat="45.0739" lon="6.47301">
        <ele>2431.2</ele>
        <time>2022-07-16T13:21:15+0200</time>
      </trkpt>
      <trkpt lat="45.07383" lon="6.47292">
        <ele>2429.8</ele>
        <time>2022-07-16T13:21:16+0200</time>
      </trkpt>
      <trkpt lat="45.07375" lon="6.47283">
        <ele>2428.4</ele>
        <time>2022-07-16T13:21:17+0200</time>
      </trkpt>
      <trkpt lat="45.07368" lon="6.47276">
        <ele>2427.2</ele>
        <time>2022-07-16T13:21:18+0200</time>
      </trkpt>
      <trkpt lat="45.07362" lon="6.47269">
        <ele>2425.9</ele>
        <time>2022-07-16T13:21:19+0200</time>
      </trkpt>
      <trkpt lat="45.07355" lon="6.47264">
        <ele>2424.3</ele>
        <time>2022-07-16T13:21:20+0200</time>
      </trkpt>
      <trkpt lat="45.07346" lon="6.47261">
        <ele>2422.5</ele>
        <time>2022-07-16T13:21:21+0200</time>
      </trkpt>
      <trkpt lat="45.07338" lon="6.47256">
        <ele>2420.9</ele>
        <time>2022-07-16T13:21:22+0200</time>
      </trkpt>
      <trkpt lat="45.0733" lon="6.47251">
        <ele>2419.5</ele>
        <time>2022-07-16T13:21:23+0200</time>
      </trkpt>
      <trkpt lat="45.07322" lon="6.47247">
        <ele>2418.3</ele>
        <time>2022-07-16T13:21:24+0200</time>
      </trkpt>
      <trkpt lat="45.07314" lon="6.47244">
        <ele>2417.2</ele>
        <time>2022-07-16T13:21:25+0200</time>
      </trkpt>
      <trkpt lat="45.07306" lon="6.47244">
        <ele>2416.1</ele>
        <time>2022-07-16T13:21:26+0200</time>
      </trkpt>
      <trkpt lat="45.07297" lon="6.47241">
        <ele>2414.9</ele>
        <time>2022-07-16T13:21:27+0200</time>
      </trkpt>
      <trkpt lat="45.07288" lon="6.47238">
        <ele>2414</ele>
        <time>2022-07-16T13:21:28+0200</time>
      </trkpt>
      <trkpt lat="45.07281" lon="6.47237">
        <ele>2413.3</ele>
        <time>2022-07-16T13:21:29+0200</time>
      </trkpt>
      <trkpt lat="45.07274" lon="6.47238">
        <ele>2412.7</ele>
        <time>2022-07-16T13:21:30+0200</time>
      </trkpt>
      <trkpt lat="45.07267" lon="6.47243">
        <ele>2412.1</ele>
        <time>2022-07-16T13:21:31+0200</time>
      </trkpt>
      <trkpt lat="45.0726" lon="6.47249">
        <ele>2411.5</ele>
        <time>2022-07-16T13:21:32+0200</time>
      </trkpt>
      <trkpt lat="45.07254" lon="6.47256">
        <ele>2410.8</ele>
        <time>2022-07-16T13:21:33+0200</time>
      </trkpt>
      <trkpt lat="45.07248" lon="6.47263">
        <ele>2410.2</ele>
        <time>2022-07-16T13:21:34+0200</time>
      </trkpt>
      <trkpt lat="45.0724" lon="6.47268">
        <ele>2410.1</ele>
        <time>2022-07-16T13:21:35+0200</time>
      </trkpt>
      <trkpt lat="45.07234" lon="6.47271">
        <ele>2410</ele>
        <time>2022-07-16T13:21:36+0200</time>
      </trkpt>
      <trkpt lat="45.07227" lon="6.4727">
        <ele>2410.3</ele>
        <time>2022-07-16T13:21:37+0200</time>
      </trkpt>
      <trkpt lat="45.0722" lon="6.47269">
        <ele>2410.6</ele>
        <time>2022-07-16T13:21:38+0200</time>
      </trkpt>
      <trkpt lat="45.07215" lon="6.4727">
        <ele>2410.6</ele>
        <time>2022-07-16T13:21:39+0200</time>
      </trkpt>
      <trkpt lat="45.07209" lon="6.47271">
        <ele>2410.7</ele>
        <time>2022-07-16T13:21:40+0200</time>
      </trkpt>
      <trkpt lat="45.07204" lon="6.47271">
        <ele>2410.7</ele>
        <time>2022-07-16T13:21:41+0200</time>
      </trkpt>
      <trkpt lat="45.072" lon="6.47271">
        <ele>2410.8</ele>
        <time>2022-07-16T13:21:42+0200</time>
      </trkpt>
      <trkpt lat="45.07195" lon="6.47271">
        <ele>2411</ele>
        <time>2022-07-16T13:21:43+0200</time>
      </trkpt>
      <trkpt lat="45.07187" lon="6.4727">
        <ele>2411.6</ele>
        <time>2022-07-16T13:21:45+0200</time>
      </trkpt>
      <trkpt lat="45.07181" lon="6.47272">
        <ele>2411.3</ele>
        <time>2022-07-16T13:21:47+0200</time>
      </trkpt>
      <trkpt lat="45.07174" lon="6.47277">
        <ele>2410.6</ele>
        <time>2022-07-16T13:21:49+0200</time>
      </trkpt>
      <trkpt lat="45.07169" lon="6.47279">
        <ele>2410.7</ele>
        <time>2022-07-16T13:21:52+0200</time>
      </trkpt>
      <trkpt lat="45.07164" lon="6.4728">
        <ele>2410.8</ele>
        <time>2022-07-16T13:21:57+0200</time>
      </trkpt>
      <trkpt lat="45.0716" lon="6.47282">
        <ele>2410.9</ele>
        <time>2022-07-16T13:22:31+0200</time>
      </trkpt>
      <trkpt lat="45.07155" lon="6.47283">
        <ele>2410.9</ele>
        <time>2022-07-16T13:23:14+0200</time>
      </trkpt>
      <trkpt lat="45.0715" lon="6.47285">
        <ele>2411</ele>
        <time>2022-07-16T13:23:18+0200</time>
      </trkpt>
      <trkpt lat="45.07145" lon="6.47286">
        <ele>2411.1</ele>
        <time>2022-07-16T13:23:23+0200</time>
      </trkpt>
      <trkpt lat="45.07141" lon="6.47289">
        <ele>2411.1</ele>
        <time>2022-07-16T13:23:38+0200</time>
      </trkpt>
      <trkpt lat="45.07145" lon="6.47285">
        <ele>2411.2</ele>
        <time>2022-07-16T13:23:45+0200</time>
      </trkpt>
      <trkpt lat="45.07151" lon="6.47279">
        <ele>2411.5</ele>
        <time>2022-07-16T13:23:50+0200</time>
      </trkpt>
      <trkpt lat="45.07157" lon="6.47283">
        <ele>2410.8</ele>
        <time>2022-07-16T13:23:52+0200</time>
      </trkpt>
      <trkpt lat="45.07164" lon="6.47282">
        <ele>2410.7</ele>
        <time>2022-07-16T13:23:54+0200</time>
      </trkpt>
      <trkpt lat="45.07173" lon="6.47279">
        <ele>2410.4</ele>
        <time>2022-07-16T13:23:55+0200</time>
      </trkpt>
      <trkpt lat="45.07183" lon="6.47271">
        <ele>2411.5</ele>
        <time>2022-07-16T13:24:00+0200</time>
      </trkpt>
      <trkpt lat="45.07176" lon="6.47273">
        <ele>2411.3</ele>
        <time>2022-07-16T13:24:03+0200</time>
      </trkpt>
      <trkpt lat="45.07168" lon="6.47267">
        <ele>2412.9</ele>
        <time>2022-07-16T13:24:05+0200</time>
      </trkpt>
      <trkpt lat="45.07163" lon="6.4727">
        <ele>2412.4</ele>
        <time>2022-07-16T13:24:06+0200</time>
      </trkpt>
      <trkpt lat="45.07156" lon="6.47273">
        <ele>2412</ele>
        <time>2022-07-16T13:24:11+0200</time>
      </trkpt>
      <trkpt lat="45.07142" lon="6.47283">
        <ele>2411.5</ele>
        <time>2022-07-16T13:24:13+0200</time>
      </trkpt>
      <trkpt lat="45.07149" lon="6.47282">
        <ele>2411.3</ele>
        <time>2022-07-16T13:24:17+0200</time>
      </trkpt>
      <trkpt lat="45.0714" lon="6.47287">
        <ele>2411.3</ele>
        <time>2022-07-16T13:24:19+0200</time>
      </trkpt>
      <trkpt lat="45.0714" lon="6.47278">
        <ele>2411.9</ele>
        <time>2022-07-16T13:24:20+0200</time>
      </trkpt>
      <trkpt lat="45.07149" lon="6.47276">
        <ele>2411.8</ele>
        <time>2022-07-16T13:24:22+0200</time>
      </trkpt>
      <trkpt lat="45.07156" lon="6.47275">
        <ele>2411.7</ele>
        <time>2022-07-16T13:24:23+0200</time>
      </trkpt>
      <trkpt lat="45.07163" lon="6.47275">
        <ele>2411.6</ele>
        <time>2022-07-16T13:24:25+0200</time>
      </trkpt>
      <trkpt lat="45.07167" lon="6.47271">
        <ele>2412.1</ele>
        <time>2022-07-16T13:24:31+0200</time>
      </trkpt>
      <trkpt lat="45.07164" lon="6.47277">
        <ele>2411.2</ele>
        <time>2022-07-16T13:24:36+0200</time>
      </trkpt>
      <trkpt lat="45.07159" lon="6.47281">
        <ele>2410.9</ele>
        <time>2022-07-16T13:24:40+0200</time>
      </trkpt>
      <trkpt lat="45.07163" lon="6.47276">
        <ele>2411.5</ele>
        <time>2022-07-16T13:24:45+0200</time>
      </trkpt>
      <trkpt lat="45.07168" lon="6.4728">
        <ele>2410.6</ele>
        <time>2022-07-16T13:24:46+0200</time>
      </trkpt>
      <trkpt lat="45.07164" lon="6.47277">
        <ele>2411.2</ele>
        <time>2022-07-16T13:24:51+0200</time>
      </trkpt>
      <trkpt lat="45.07168" lon="6.47273">
        <ele>2411.9</ele>
        <time>2022-07-16T13:24:54+0200</time>
      </trkpt>
      <trkpt lat="45.07151" lon="6.47279">
        <ele>2411.4</ele>
        <time>2022-07-16T13:24:59+0200</time>
      </trkpt>
      <trkpt lat="45.07146" lon="6.47283">
        <ele>2411.3</ele>
        <time>2022-07-16T13:25:00+0200</time>
      </trkpt>
      <trkpt lat="45.0715" lon="6.47287">
        <ele>2410.8</ele>
        <time>2022-07-16T13:25:02+0200</time>
      </trkpt>
      <trkpt lat="45.07139" lon="6.47284">
        <ele>2411.6</ele>
        <time>2022-07-16T13:25:03+0200</time>
      </trkpt>
      <trkpt lat="45.07134" lon="6.47282">
        <ele>2411.7</ele>
        <time>2022-07-16T13:25:04+0200</time>
      </trkpt>
      <trkpt lat="45.07133" lon="6.47289">
        <ele>2411.3</ele>
        <time>2022-07-16T13:25:09+0200</time>
      </trkpt>
      <trkpt lat="45.0714" lon="6.47287">
        <ele>2411.3</ele>
        <time>2022-07-16T13:25:11+0200</time>
      </trkpt>
      <trkpt lat="45.07151" lon="6.47282">
        <ele>2411.2</ele>
        <time>2022-07-16T13:25:13+0200</time>
      </trkpt>
      <trkpt lat="45.07159" lon="6.47276">
        <ele>2411.5</ele>
        <time>2022-07-16T13:25:14+0200</time>
      </trkpt>
      <trkpt lat="45.07164" lon="6.47275">
        <ele>2411.6</ele>
        <time>2022-07-16T13:25:16+0200</time>
      </trkpt>
      <trkpt lat="45.07172" lon="6.47271">
        <ele>2412.1</ele>
        <time>2022-07-16T13:25:17+0200</time>
      </trkpt>
      <trkpt lat="45.07177" lon="6.47268">
        <ele>2412.5</ele>
        <time>2022-07-16T13:25:18+0200</time>
      </trkpt>
      <trkpt lat="45.07189" lon="6.47263">
        <ele>2413.4</ele>
        <time>2022-07-16T13:25:20+0200</time>
      </trkpt>
      <trkpt lat="45.07195" lon="6.4726">
        <ele>2414.1</ele>
        <time>2022-07-16T13:25:24+0200</time>
      </trkpt>
      <trkpt lat="45.07199" lon="6.47256">
        <ele>2414.9</ele>
        <time>2022-07-16T13:25:25+0200</time>
      </trkpt>
      <trkpt lat="45.07204" lon="6.47254">
        <ele>2415</ele>
        <time>2022-07-16T13:25:27+0200</time>
      </trkpt>
      <trkpt lat="45.07196" lon="6.4726">
        <ele>2414.1</ele>
        <time>2022-07-16T13:25:30+0200</time>
      </trkpt>
      <trkpt lat="45.07191" lon="6.47264">
        <ele>2413.1</ele>
        <time>2022-07-16T13:25:32+0200</time>
      </trkpt>
      <trkpt lat="45.07182" lon="6.4727">
        <ele>2411.7</ele>
        <time>2022-07-16T13:25:36+0200</time>
      </trkpt>
      <trkpt lat="45.07178" lon="6.47272">
        <ele>2411.5</ele>
        <time>2022-07-16T13:25:37+0200</time>
      </trkpt>
      <trkpt lat="45.0717" lon="6.47275">
        <ele>2411.3</ele>
        <time>2022-07-16T13:25:44+0200</time>
      </trkpt>
      <trkpt lat="45.07165" lon="6.47277">
        <ele>2411.2</ele>
        <time>2022-07-16T13:25:45+0200</time>
      </trkpt>
      <trkpt lat="45.07158" lon="6.47283">
        <ele>2410.8</ele>
        <time>2022-07-16T13:25:47+0200</time>
      </trkpt>
      <trkpt lat="45.07151" lon="6.47284">
        <ele>2411</ele>
        <time>2022-07-16T13:25:52+0200</time>
      </trkpt>
      <trkpt lat="45.07154" lon="6.47277">
        <ele>2411.6</ele>
        <time>2022-07-16T13:26:01+0200</time>
      </trkpt>
      <trkpt lat="45.07148" lon="6.47277">
        <ele>2411.7</ele>
        <time>2022-07-16T13:26:07+0200</time>
      </trkpt>
      <trkpt lat="45.07155" lon="6.47275">
        <ele>2411.8</ele>
        <time>2022-07-16T13:26:12+0200</time>
      </trkpt>
      <trkpt lat="45.07161" lon="6.47273">
        <ele>2411.9</ele>
        <time>2022-07-16T13:26:13+0200</time>
      </trkpt>
      <trkpt lat="45.07155" lon="6.47277">
        <ele>2411.5</ele>
        <time>2022-07-16T13:26:15+0200</time>
      </trkpt>
      <trkpt lat="45.07151" lon="6.4728">
        <ele>2411.3</ele>
        <time>2022-07-16T13:26:23+0200</time>
      </trkpt>
      <trkpt lat="45.07156" lon="6.47277">
        <ele>2411.5</ele>
        <time>2022-07-16T13:26:25+0200</time>
      </trkpt>
      <trkpt lat="45.07168" lon="6.47272">
        <ele>2411.9</ele>
        <time>2022-07-16T13:26:26+0200</time>
      </trkpt>
      <trkpt lat="45.07177" lon="6.47266">
        <ele>2412.8</ele>
        <time>2022-07-16T13:26:27+0200</time>
      </trkpt>
      <trkpt lat="45.07158" lon="6.47269">
        <ele>2412.5</ele>
        <time>2022-07-16T13:26:28+0200</time>
      </trkpt>
      <trkpt lat="45.07144" lon="6.47271">
        <ele>2412.3</ele>
        <time>2022-07-16T13:26:29+0200</time>
      </trkpt>
      <trkpt lat="45.07132" lon="6.47275">
        <ele>2412.1</ele>
        <time>2022-07-16T13:26:30+0200</time>
      </trkpt>
      <trkpt lat="45.07136" lon="6.4728">
        <ele>2411.8</ele>
        <time>2022-07-16T13:26:39+0200</time>
      </trkpt>
      <trkpt lat="45.0714" lon="6.47283">
        <ele>2411.6</ele>
        <time>2022-07-16T13:26:44+0200</time>
      </trkpt>
      <trkpt lat="45.07146" lon="6.47283">
        <ele>2411.4</ele>
        <time>2022-07-16T13:26:47+0200</time>
      </trkpt>
      <trkpt lat="45.07151" lon="6.47281">
        <ele>2411.3</ele>
        <time>2022-07-16T13:26:51+0200</time>
      </trkpt>
      <trkpt lat="45.07157" lon="6.47277">
        <ele>2411.5</ele>
        <time>2022-07-16T13:26:56+0200</time>
      </trkpt>
      <trkpt lat="45.0716" lon="6.47271">
        <ele>2412.2</ele>
        <time>2022-07-16T13:26:59+0200</time>
      </trkpt>
      <trkpt lat="45.07166" lon="6.47267">
        <ele>2412.9</ele>
        <time>2022-07-16T13:27:01+0200</time>
      </trkpt>
      <trkpt lat="45.07185" lon="6.47279">
        <ele>2409.6</ele>
        <time>2022-07-16T13:27:19+0200</time>
      </trkpt>
      <trkpt lat="45.07138" lon="6.47293">
        <ele>2410.9</ele>
        <time>2022-07-16T13:29:04+0200</time>
      </trkpt>
      <trkpt lat="45.07131" lon="6.47279">
        <ele>2411.9</ele>
        <time>2022-07-16T13:29:05+0200</time>
      </trkpt>
      <trkpt lat="45.07139" lon="6.47282">
        <ele>2411.7</ele>
        <time>2022-07-16T13:29:08+0200</time>
      </trkpt>
      <trkpt lat="45.07144" lon="6.47282">
        <ele>2411.5</ele>
        <time>2022-07-16T13:29:13+0200</time>
      </trkpt>
      <trkpt lat="45.07142" lon="6.47276">
        <ele>2412</ele>
        <time>2022-07-16T13:29:33+0200</time>
      </trkpt>
      <trkpt lat="45.07144" lon="6.47282">
        <ele>2411.5</ele>
        <time>2022-07-16T13:29:53+0200</time>
      </trkpt>
      <trkpt lat="45.07139" lon="6.47282">
        <ele>2411.7</ele>
        <time>2022-07-16T13:30:16+0200</time>
      </trkpt>
      <trkpt lat="45.07144" lon="6.47285">
        <ele>2411.3</ele>
        <time>2022-07-16T13:30:50+0200</time>
      </trkpt>
      <trkpt lat="45.07139" lon="6.47283">
        <ele>2411.6</ele>
        <time>2022-07-16T13:33:55+0200</time>
      </trkpt>
      <trkpt lat="45.07144" lon="6.47287">
        <ele>2411.2</ele>
        <time>2022-07-16T13:34:04+0200</time>
      </trkpt>
      <trkpt lat="45.07139" lon="6.47287">
        <ele>2411.4</ele>
        <time>2022-07-16T13:35:03+0200</time>
      </trkpt>
      <trkpt lat="45.07134" lon="6.47287">
        <ele>2411.4</ele>
        <time>2022-07-16T13:35:40+0200</time>
      </trkpt>
      <trkpt lat="45.0713" lon="6.4729">
        <ele>2411.3</ele>
        <time>2022-07-16T13:35:52+0200</time>
      </trkpt>
      <trkpt lat="45.07124" lon="6.47292">
        <ele>2411.3</ele>
        <time>2022-07-16T13:35:58+0200</time>
      </trkpt>
      <trkpt lat="45.07117" lon="6.47291">
        <ele>2411.4</ele>
        <time>2022-07-16T13:36:04+0200</time>
      </trkpt>
      <trkpt lat="45.07112" lon="6.47292">
        <ele>2411.5</ele>
        <time>2022-07-16T13:36:05+0200</time>
      </trkpt>
      <trkpt lat="45.07103" lon="6.4729">
        <ele>2411</ele>
        <time>2022-07-16T13:36:07+0200</time>
      </trkpt>
      <trkpt lat="45.07099" lon="6.47289">
        <ele>2410.7</ele>
        <time>2022-07-16T13:36:08+0200</time>
      </trkpt>
      <trkpt lat="45.07094" lon="6.4729">
        <ele>2410.3</ele>
        <time>2022-07-16T13:36:09+0200</time>
      </trkpt>
      <trkpt lat="45.07089" lon="6.4729">
        <ele>2409.9</ele>
        <time>2022-07-16T13:36:10+0200</time>
      </trkpt>
      <trkpt lat="45.07083" lon="6.47283">
        <ele>2409.8</ele>
        <time>2022-07-16T13:36:12+0200</time>
      </trkpt>
      <trkpt lat="45.07077" lon="6.47286">
        <ele>2410.1</ele>
        <time>2022-07-16T13:36:15+0200</time>
      </trkpt>
      <trkpt lat="45.07072" lon="6.47288">
        <ele>2410.4</ele>
        <time>2022-07-16T13:36:21+0200</time>
      </trkpt>
      <trkpt lat="45.07068" lon="6.47291">
        <ele>2410.6</ele>
        <time>2022-07-16T13:36:47+0200</time>
      </trkpt>
      <trkpt lat="45.07063" lon="6.47292">
        <ele>2410.9</ele>
        <time>2022-07-16T13:36:51+0200</time>
      </trkpt>
      <trkpt lat="45.07059" lon="6.47292">
        <ele>2411.3</ele>
        <time>2022-07-16T13:36:55+0200</time>
      </trkpt>
      <trkpt lat="45.07053" lon="6.47292">
        <ele>2411.7</ele>
        <time>2022-07-16T13:37:00+0200</time>
      </trkpt>
      <trkpt lat="45.07048" lon="6.47293">
        <ele>2412</ele>
        <time>2022-07-16T13:37:04+0200</time>
      </trkpt>
      <trkpt lat="45.07043" lon="6.47293">
        <ele>2412.3</ele>
        <time>2022-07-16T13:37:08+0200</time>
      </trkpt>
      <trkpt lat="45.07039" lon="6.47294">
        <ele>2412.6</ele>
        <time>2022-07-16T13:37:12+0200</time>
      </trkpt>
      <trkpt lat="45.07034" lon="6.47293">
        <ele>2413</ele>
        <time>2022-07-16T13:37:16+0200</time>
      </trkpt>
      <trkpt lat="45.07029" lon="6.47289">
        <ele>2413.5</ele>
        <time>2022-07-16T13:37:20+0200</time>
      </trkpt>
      <trkpt lat="45.07025" lon="6.47285">
        <ele>2413.9</ele>
        <time>2022-07-16T13:37:26+0200</time>
      </trkpt>
      <trkpt lat="45.07021" lon="6.47289">
        <ele>2414.2</ele>
        <time>2022-07-16T13:37:31+0200</time>
      </trkpt>
      <trkpt lat="45.07016" lon="6.47292">
        <ele>2414.5</ele>
        <time>2022-07-16T13:37:36+0200</time>
      </trkpt>
      <trkpt lat="45.07012" lon="6.47297">
        <ele>2414.9</ele>
        <time>2022-07-16T13:37:41+0200</time>
      </trkpt>
      <trkpt lat="45.07007" lon="6.47297">
        <ele>2415.3</ele>
        <time>2022-07-16T13:37:47+0200</time>
      </trkpt>
      <trkpt lat="45.07003" lon="6.473">
        <ele>2415.7</ele>
        <time>2022-07-16T13:37:52+0200</time>
      </trkpt>
      <trkpt lat="45.07005" lon="6.47295">
        <ele>2415.5</ele>
        <time>2022-07-16T13:38:08+0200</time>
      </trkpt>
      <trkpt lat="45.0701" lon="6.47294">
        <ele>2415.1</ele>
        <time>2022-07-16T13:38:13+0200</time>
      </trkpt>
      <trkpt lat="45.07014" lon="6.47291">
        <ele>2414.7</ele>
        <time>2022-07-16T13:38:17+0200</time>
      </trkpt>
      <trkpt lat="45.07019" lon="6.47288">
        <ele>2414.3</ele>
        <time>2022-07-16T13:38:21+0200</time>
      </trkpt>
      <trkpt lat="45.07024" lon="6.47287">
        <ele>2414</ele>
        <time>2022-07-16T13:38:25+0200</time>
      </trkpt>
      <trkpt lat="45.07021" lon="6.47281">
        <ele>2414.4</ele>
        <time>2022-07-16T13:38:29+0200</time>
      </trkpt>
      <trkpt lat="45.07018" lon="6.47276">
        <ele>2414.6</ele>
        <time>2022-07-16T13:38:32+0200</time>
      </trkpt>
      <trkpt lat="45.07017" lon="6.47269">
        <ele>2414.3</ele>
        <time>2022-07-16T13:38:36+0200</time>
      </trkpt>
      <trkpt lat="45.07016" lon="6.47262">
        <ele>2414.1</ele>
        <time>2022-07-16T13:38:40+0200</time>
      </trkpt>
      <trkpt lat="45.07015" lon="6.47256">
        <ele>2414</ele>
        <time>2022-07-16T13:38:47+0200</time>
      </trkpt>
      <trkpt lat="45.07016" lon="6.4725">
        <ele>2413.6</ele>
        <time>2022-07-16T13:38:51+0200</time>
      </trkpt>
      <trkpt lat="45.07014" lon="6.47244">
        <ele>2414</ele>
        <time>2022-07-16T13:38:55+0200</time>
      </trkpt>
      <trkpt lat="45.07013" lon="6.47236">
        <ele>2414.4</ele>
        <time>2022-07-16T13:38:59+0200</time>
      </trkpt>
      <trkpt lat="45.07012" lon="6.47228">
        <ele>2414.8</ele>
        <time>2022-07-16T13:39:03+0200</time>
      </trkpt>
      <trkpt lat="45.0701" lon="6.47222">
        <ele>2415.9</ele>
        <time>2022-07-16T13:39:08+0200</time>
      </trkpt>
      <trkpt lat="45.0701" lon="6.47214">
        <ele>2416.7</ele>
        <time>2022-07-16T13:39:13+0200</time>
      </trkpt>
      <trkpt lat="45.07012" lon="6.47208">
        <ele>2416.8</ele>
        <time>2022-07-16T13:39:17+0200</time>
      </trkpt>
      <trkpt lat="45.07014" lon="6.472">
        <ele>2417.2</ele>
        <time>2022-07-16T13:39:23+0200</time>
      </trkpt>
      <trkpt lat="45.07014" lon="6.47194">
        <ele>2418</ele>
        <time>2022-07-16T13:39:26+0200</time>
      </trkpt>
      <trkpt lat="45.07014" lon="6.47187">
        <ele>2418</ele>
        <time>2022-07-16T13:39:29+0200</time>
      </trkpt>
      <trkpt lat="45.07014" lon="6.47179">
        <ele>2418.2</ele>
        <time>2022-07-16T13:39:33+0200</time>
      </trkpt>
      <trkpt lat="45.07013" lon="6.47173">
        <ele>2418.6</ele>
        <time>2022-07-16T13:39:36+0200</time>
      </trkpt>
      <trkpt lat="45.07013" lon="6.47165">
        <ele>2418.9</ele>
        <time>2022-07-16T13:39:41+0200</time>
      </trkpt>
      <trkpt lat="45.07012" lon="6.47158">
        <ele>2419.8</ele>
        <time>2022-07-16T13:39:45+0200</time>
      </trkpt>
      <trkpt lat="45.07012" lon="6.4715">
        <ele>2420.7</ele>
        <time>2022-07-16T13:39:50+0200</time>
      </trkpt>
      <trkpt lat="45.07011" lon="6.47143">
        <ele>2421.4</ele>
        <time>2022-07-16T13:39:54+0200</time>
      </trkpt>
      <trkpt lat="45.07011" lon="6.47136">
        <ele>2421.9</ele>
        <time>2022-07-16T13:39:58+0200</time>
      </trkpt>
      <trkpt lat="45.07012" lon="6.47127">
        <ele>2422</ele>
        <time>2022-07-16T13:40:03+0200</time>
      </trkpt>
      <trkpt lat="45.07013" lon="6.47121">
        <ele>2422.2</ele>
        <time>2022-07-16T13:40:07+0200</time>
      </trkpt>
      <trkpt lat="45.0701" lon="6.47115">
        <ele>2423</ele>
        <time>2022-07-16T13:40:11+0200</time>
      </trkpt>
      <trkpt lat="45.07007" lon="6.47109">
        <ele>2423.5</ele>
        <time>2022-07-16T13:40:14+0200</time>
      </trkpt>
      <trkpt lat="45.07004" lon="6.47104">
        <ele>2423.5</ele>
        <time>2022-07-16T13:40:19+0200</time>
      </trkpt>
      <trkpt lat="45.07" lon="6.47098">
        <ele>2423.6</ele>
        <time>2022-07-16T13:40:22+0200</time>
      </trkpt>
      <trkpt lat="45.06994" lon="6.47093">
        <ele>2424</ele>
        <time>2022-07-16T13:40:24+0200</time>
      </trkpt>
      <trkpt lat="45.0699" lon="6.47088">
        <ele>2424.3</ele>
        <time>2022-07-16T13:40:25+0200</time>
      </trkpt>
      <trkpt lat="45.06985" lon="6.47085">
        <ele>2424.8</ele>
        <time>2022-07-16T13:40:26+0200</time>
      </trkpt>
      <trkpt lat="45.06981" lon="6.47077">
        <ele>2424.9</ele>
        <time>2022-07-16T13:40:28+0200</time>
      </trkpt>
      <trkpt lat="45.06978" lon="6.47072">
        <ele>2425</ele>
        <time>2022-07-16T13:40:33+0200</time>
      </trkpt>
      <trkpt lat="45.06976" lon="6.47065">
        <ele>2425</ele>
        <time>2022-07-16T13:40:38+0200</time>
      </trkpt>
      <trkpt lat="45.06973" lon="6.4706">
        <ele>2425.1</ele>
        <time>2022-07-16T13:40:41+0200</time>
      </trkpt>
      <trkpt lat="45.0697" lon="6.47055">
        <ele>2424.8</ele>
        <time>2022-07-16T13:40:45+0200</time>
      </trkpt>
      <trkpt lat="45.06965" lon="6.47055">
        <ele>2424.4</ele>
        <time>2022-07-16T13:40:49+0200</time>
      </trkpt>
      <trkpt lat="45.0696" lon="6.47056">
        <ele>2424.2</ele>
        <time>2022-07-16T13:40:52+0200</time>
      </trkpt>
      <trkpt lat="45.06955" lon="6.47058">
        <ele>2424.1</ele>
        <time>2022-07-16T13:40:54+0200</time>
      </trkpt>
      <trkpt lat="45.0695" lon="6.4706">
        <ele>2424.1</ele>
        <time>2022-07-16T13:40:56+0200</time>
      </trkpt>
      <trkpt lat="45.06944" lon="6.47065">
        <ele>2424.6</ele>
        <time>2022-07-16T13:40:58+0200</time>
      </trkpt>
      <trkpt lat="45.06939" lon="6.47068">
        <ele>2424.6</ele>
        <time>2022-07-16T13:40:59+0200</time>
      </trkpt>
      <trkpt lat="45.06935" lon="6.4707">
        <ele>2424.6</ele>
        <time>2022-07-16T13:41:00+0200</time>
      </trkpt>
      <trkpt lat="45.06931" lon="6.47074">
        <ele>2424.5</ele>
        <time>2022-07-16T13:41:01+0200</time>
      </trkpt>
      <trkpt lat="45.06924" lon="6.4708">
        <ele>2424.1</ele>
        <time>2022-07-16T13:41:03+0200</time>
      </trkpt>
      <trkpt lat="45.0692" lon="6.47082">
        <ele>2423.5</ele>
        <time>2022-07-16T13:41:08+0200</time>
      </trkpt>
      <trkpt lat="45.06915" lon="6.47086">
        <ele>2422.5</ele>
        <time>2022-07-16T13:41:14+0200</time>
      </trkpt>
      <trkpt lat="45.06912" lon="6.47094">
        <ele>2422.1</ele>
        <time>2022-07-16T13:41:18+0200</time>
      </trkpt>
      <trkpt lat="45.0691" lon="6.47103">
        <ele>2422.4</ele>
        <time>2022-07-16T13:41:21+0200</time>
      </trkpt>
      <trkpt lat="45.06908" lon="6.47111">
        <ele>2422.4</ele>
        <time>2022-07-16T13:41:25+0200</time>
      </trkpt>
      <trkpt lat="45.06906" lon="6.4712">
        <ele>2422.9</ele>
        <time>2022-07-16T13:41:28+0200</time>
      </trkpt>
      <trkpt lat="45.069" lon="6.47127">
        <ele>2421.8</ele>
        <time>2022-07-16T13:41:30+0200</time>
      </trkpt>
      <trkpt lat="45.06896" lon="6.47136">
        <ele>2421.5</ele>
        <time>2022-07-16T13:41:32+0200</time>
      </trkpt>
      <trkpt lat="45.06894" lon="6.47143">
        <ele>2421.9</ele>
        <time>2022-07-16T13:41:34+0200</time>
      </trkpt>
      <trkpt lat="45.06891" lon="6.4715">
        <ele>2422.1</ele>
        <time>2022-07-16T13:41:36+0200</time>
      </trkpt>
      <trkpt lat="45.06888" lon="6.47157">
        <ele>2422.9</ele>
        <time>2022-07-16T13:41:38+0200</time>
      </trkpt>
      <trkpt lat="45.06884" lon="6.47162">
        <ele>2424.1</ele>
        <time>2022-07-16T13:41:41+0200</time>
      </trkpt>
      <trkpt lat="45.06881" lon="6.47167">
        <ele>2424.9</ele>
        <time>2022-07-16T13:41:43+0200</time>
      </trkpt>
      <trkpt lat="45.06876" lon="6.47172">
        <ele>2425.7</ele>
        <time>2022-07-16T13:41:46+0200</time>
      </trkpt>
      <trkpt lat="45.06871" lon="6.47176">
        <ele>2426.2</ele>
        <time>2022-07-16T13:41:49+0200</time>
      </trkpt>
      <trkpt lat="45.06867" lon="6.47174">
        <ele>2424.8</ele>
        <time>2022-07-16T13:41:58+0200</time>
      </trkpt>
      <trkpt lat="45.06863" lon="6.47165">
        <ele>2422.1</ele>
        <time>2022-07-16T13:42:01+0200</time>
      </trkpt>
      <trkpt lat="45.06861" lon="6.47159">
        <ele>2420.7</ele>
        <time>2022-07-16T13:42:03+0200</time>
      </trkpt>
      <trkpt lat="45.06859" lon="6.47153">
        <ele>2419.8</ele>
        <time>2022-07-16T13:42:07+0200</time>
      </trkpt>
      <trkpt lat="45.06856" lon="6.47149">
        <ele>2419.7</ele>
        <time>2022-07-16T13:42:10+0200</time>
      </trkpt>
      <trkpt lat="45.0685" lon="6.47149">
        <ele>2420.6</ele>
        <time>2022-07-16T13:42:15+0200</time>
      </trkpt>
      <trkpt lat="45.06845" lon="6.47147">
        <ele>2421.2</ele>
        <time>2022-07-16T13:42:19+0200</time>
      </trkpt>
      <trkpt lat="45.0684" lon="6.47146">
        <ele>2421.8</ele>
        <time>2022-07-16T13:42:23+0200</time>
      </trkpt>
      <trkpt lat="45.06835" lon="6.4715">
        <ele>2423.4</ele>
        <time>2022-07-16T13:42:29+0200</time>
      </trkpt>
      <trkpt lat="45.06832" lon="6.47156">
        <ele>2425.3</ele>
        <time>2022-07-16T13:42:34+0200</time>
      </trkpt>
      <trkpt lat="45.06829" lon="6.47162">
        <ele>2426.8</ele>
        <time>2022-07-16T13:42:38+0200</time>
      </trkpt>
      <trkpt lat="45.06826" lon="6.47166">
        <ele>2427.6</ele>
        <time>2022-07-16T13:42:43+0200</time>
      </trkpt>
      <trkpt lat="45.0682" lon="6.4717">
        <ele>2428.1</ele>
        <time>2022-07-16T13:42:48+0200</time>
      </trkpt>
      <trkpt lat="45.06815" lon="6.47172">
        <ele>2428.1</ele>
        <time>2022-07-16T13:42:53+0200</time>
      </trkpt>
      <trkpt lat="45.06809" lon="6.47174">
        <ele>2428.2</ele>
        <time>2022-07-16T13:42:56+0200</time>
      </trkpt>
      <trkpt lat="45.06804" lon="6.47172">
        <ele>2428.2</ele>
        <time>2022-07-16T13:43:02+0200</time>
      </trkpt>
      <trkpt lat="45.06799" lon="6.47172">
        <ele>2429.5</ele>
        <time>2022-07-16T13:43:07+0200</time>
      </trkpt>
      <trkpt lat="45.06794" lon="6.47172">
        <ele>2430.8</ele>
        <time>2022-07-16T13:43:16+0200</time>
      </trkpt>
      <trkpt lat="45.06789" lon="6.47168">
        <ele>2431.4</ele>
        <time>2022-07-16T13:43:24+0200</time>
      </trkpt>
      <trkpt lat="45.06784" lon="6.47169">
        <ele>2432.8</ele>
        <time>2022-07-16T13:43:30+0200</time>
      </trkpt>
      <trkpt lat="45.06779" lon="6.47167">
        <ele>2433.7</ele>
        <time>2022-07-16T13:43:38+0200</time>
      </trkpt>
      <trkpt lat="45.06775" lon="6.47162">
        <ele>2434.5</ele>
        <time>2022-07-16T13:43:44+0200</time>
      </trkpt>
      <trkpt lat="45.06773" lon="6.47155">
        <ele>2434.9</ele>
        <time>2022-07-16T13:43:48+0200</time>
      </trkpt>
      <trkpt lat="45.06773" lon="6.47148">
        <ele>2434.4</ele>
        <time>2022-07-16T13:43:53+0200</time>
      </trkpt>
      <trkpt lat="45.06767" lon="6.47147">
        <ele>2436.5</ele>
        <time>2022-07-16T13:44:02+0200</time>
      </trkpt>
      <trkpt lat="45.06764" lon="6.47141">
        <ele>2437.5</ele>
        <time>2022-07-16T13:44:07+0200</time>
      </trkpt>
      <trkpt lat="45.06764" lon="6.47134">
        <ele>2437.1</ele>
        <time>2022-07-16T13:44:12+0200</time>
      </trkpt>
      <trkpt lat="45.06762" lon="6.47128">
        <ele>2437.5</ele>
        <time>2022-07-16T13:44:16+0200</time>
      </trkpt>
      <trkpt lat="45.06757" lon="6.47123">
        <ele>2438.4</ele>
        <time>2022-07-16T13:44:21+0200</time>
      </trkpt>
      <trkpt lat="45.06752" lon="6.47125">
        <ele>2440.3</ele>
        <time>2022-07-16T13:44:27+0200</time>
      </trkpt>
      <trkpt lat="45.06747" lon="6.47122">
        <ele>2441.5</ele>
        <time>2022-07-16T13:44:35+0200</time>
      </trkpt>
      <trkpt lat="45.06743" lon="6.47119">
        <ele>2442.8</ele>
        <time>2022-07-16T13:44:42+0200</time>
      </trkpt>
      <trkpt lat="45.0674" lon="6.47113">
        <ele>2443.1</ele>
        <time>2022-07-16T13:44:48+0200</time>
      </trkpt>
      <trkpt lat="45.06739" lon="6.47106">
        <ele>2443.7</ele>
        <time>2022-07-16T13:44:57+0200</time>
      </trkpt>
      <trkpt lat="45.06736" lon="6.47099">
        <ele>2444.8</ele>
        <time>2022-07-16T13:45:03+0200</time>
      </trkpt>
      <trkpt lat="45.06736" lon="6.47091">
        <ele>2444.8</ele>
        <time>2022-07-16T13:45:09+0200</time>
      </trkpt>
      <trkpt lat="45.06731" lon="6.47089">
        <ele>2446.1</ele>
        <time>2022-07-16T13:45:16+0200</time>
      </trkpt>
      <trkpt lat="45.06727" lon="6.47088">
        <ele>2447.3</ele>
        <time>2022-07-16T13:45:21+0200</time>
      </trkpt>
      <trkpt lat="45.06721" lon="6.47088">
        <ele>2448.5</ele>
        <time>2022-07-16T13:45:26+0200</time>
      </trkpt>
      <trkpt lat="45.06714" lon="6.47088">
        <ele>2449.5</ele>
        <time>2022-07-16T13:45:30+0200</time>
      </trkpt>
      <trkpt lat="45.06708" lon="6.47087">
        <ele>2450.4</ele>
        <time>2022-07-16T13:45:35+0200</time>
      </trkpt>
      <trkpt lat="45.06703" lon="6.47087">
        <ele>2451.2</ele>
        <time>2022-07-16T13:45:39+0200</time>
      </trkpt>
      <trkpt lat="45.06697" lon="6.47087">
        <ele>2452</ele>
        <time>2022-07-16T13:45:45+0200</time>
      </trkpt>
      <trkpt lat="45.06692" lon="6.47086">
        <ele>2452.8</ele>
        <time>2022-07-16T13:45:51+0200</time>
      </trkpt>
      <trkpt lat="45.06687" lon="6.47084">
        <ele>2453.3</ele>
        <time>2022-07-16T13:45:55+0200</time>
      </trkpt>
      <trkpt lat="45.06682" lon="6.47085">
        <ele>2454.8</ele>
        <time>2022-07-16T13:46:00+0200</time>
      </trkpt>
      <trkpt lat="45.06677" lon="6.47083">
        <ele>2455.4</ele>
        <time>2022-07-16T13:46:06+0200</time>
      </trkpt>
      <trkpt lat="45.06672" lon="6.47082">
        <ele>2456</ele>
        <time>2022-07-16T13:46:13+0200</time>
      </trkpt>
      <trkpt lat="45.06667" lon="6.47082">
        <ele>2457.2</ele>
        <time>2022-07-16T13:46:18+0200</time>
      </trkpt>
      <trkpt lat="45.06662" lon="6.47081">
        <ele>2458.3</ele>
        <time>2022-07-16T13:46:23+0200</time>
      </trkpt>
      <trkpt lat="45.06657" lon="6.47079">
        <ele>2459.2</ele>
        <time>2022-07-16T13:46:29+0200</time>
      </trkpt>
      <trkpt lat="45.06652" lon="6.47079">
        <ele>2460.9</ele>
        <time>2022-07-16T13:46:33+0200</time>
      </trkpt>
      <trkpt lat="45.06647" lon="6.47078">
        <ele>2461.8</ele>
        <time>2022-07-16T13:46:40+0200</time>
      </trkpt>
      <trkpt lat="45.06642" lon="6.47077">
        <ele>2463</ele>
        <time>2022-07-16T13:46:45+0200</time>
      </trkpt>
      <trkpt lat="45.06637" lon="6.47075">
        <ele>2463.5</ele>
        <time>2022-07-16T13:46:50+0200</time>
      </trkpt>
      <trkpt lat="45.06632" lon="6.47074">
        <ele>2464.4</ele>
        <time>2022-07-16T13:46:56+0200</time>
      </trkpt>
      <trkpt lat="45.06627" lon="6.47073">
        <ele>2464.7</ele>
        <time>2022-07-16T13:47:00+0200</time>
      </trkpt>
      <trkpt lat="45.06623" lon="6.47071">
        <ele>2465.2</ele>
        <time>2022-07-16T13:47:04+0200</time>
      </trkpt>
      <trkpt lat="45.06617" lon="6.4707">
        <ele>2466.1</ele>
        <time>2022-07-16T13:47:08+0200</time>
      </trkpt>
      <trkpt lat="45.06613" lon="6.47067">
        <ele>2466</ele>
        <time>2022-07-16T13:47:12+0200</time>
      </trkpt>
      <trkpt lat="45.06608" lon="6.47066">
        <ele>2466.7</ele>
        <time>2022-07-16T13:47:19+0200</time>
      </trkpt>
      <trkpt lat="45.06604" lon="6.47062">
        <ele>2466.2</ele>
        <time>2022-07-16T13:47:23+0200</time>
      </trkpt>
      <trkpt lat="45.06601" lon="6.47058">
        <ele>2465.6</ele>
        <time>2022-07-16T13:47:26+0200</time>
      </trkpt>
      <trkpt lat="45.06597" lon="6.47053">
        <ele>2465.3</ele>
        <time>2022-07-16T13:47:31+0200</time>
      </trkpt>
      <trkpt lat="45.06592" lon="6.47051">
        <ele>2466.1</ele>
        <time>2022-07-16T13:47:36+0200</time>
      </trkpt>
      <trkpt lat="45.06587" lon="6.47049">
        <ele>2467.3</ele>
        <time>2022-07-16T13:47:44+0200</time>
      </trkpt>
      <trkpt lat="45.06582" lon="6.47048">
        <ele>2468.4</ele>
        <time>2022-07-16T13:47:49+0200</time>
      </trkpt>
      <trkpt lat="45.06577" lon="6.47047">
        <ele>2469.3</ele>
        <time>2022-07-16T13:47:54+0200</time>
      </trkpt>
      <trkpt lat="45.06573" lon="6.47048">
        <ele>2470.5</ele>
        <time>2022-07-16T13:47:58+0200</time>
      </trkpt>
      <trkpt lat="45.06567" lon="6.47046">
        <ele>2470.9</ele>
        <time>2022-07-16T13:48:04+0200</time>
      </trkpt>
      <trkpt lat="45.06563" lon="6.47043">
        <ele>2470.9</ele>
        <time>2022-07-16T13:48:09+0200</time>
      </trkpt>
      <trkpt lat="45.06557" lon="6.47042">
        <ele>2471.9</ele>
        <time>2022-07-16T13:48:15+0200</time>
      </trkpt>
      <trkpt lat="45.06551" lon="6.4704">
        <ele>2472.5</ele>
        <time>2022-07-16T13:48:21+0200</time>
      </trkpt>
      <trkpt lat="45.06547" lon="6.47037">
        <ele>2472.8</ele>
        <time>2022-07-16T13:48:25+0200</time>
      </trkpt>
      <trkpt lat="45.06541" lon="6.47035">
        <ele>2473.1</ele>
        <time>2022-07-16T13:48:29+0200</time>
      </trkpt>
      <trkpt lat="45.06539" lon="6.4703">
        <ele>2471.6</ele>
        <time>2022-07-16T13:48:40+0200</time>
      </trkpt>
      <trkpt lat="45.06533" lon="6.47025">
        <ele>2471.6</ele>
        <time>2022-07-16T13:48:46+0200</time>
      </trkpt>
      <trkpt lat="45.06528" lon="6.47023">
        <ele>2472.3</ele>
        <time>2022-07-16T13:48:53+0200</time>
      </trkpt>
      <trkpt lat="45.06524" lon="6.47019">
        <ele>2473</ele>
        <time>2022-07-16T13:48:58+0200</time>
      </trkpt>
      <trkpt lat="45.06519" lon="6.47016">
        <ele>2473.7</ele>
        <time>2022-07-16T13:49:03+0200</time>
      </trkpt>
      <trkpt lat="45.06515" lon="6.47014">
        <ele>2474.5</ele>
        <time>2022-07-16T13:49:06+0200</time>
      </trkpt>
      <trkpt lat="45.0651" lon="6.47011">
        <ele>2475.4</ele>
        <time>2022-07-16T13:49:10+0200</time>
      </trkpt>
      <trkpt lat="45.06505" lon="6.47008">
        <ele>2476.1</ele>
        <time>2022-07-16T13:49:14+0200</time>
      </trkpt>
      <trkpt lat="45.065" lon="6.47005">
        <ele>2476.7</ele>
        <time>2022-07-16T13:49:18+0200</time>
      </trkpt>
      <trkpt lat="45.06496" lon="6.47">
        <ele>2477.3</ele>
        <time>2022-07-16T13:49:22+0200</time>
      </trkpt>
      <trkpt lat="45.06492" lon="6.46996">
        <ele>2478.2</ele>
        <time>2022-07-16T13:49:27+0200</time>
      </trkpt>
      <trkpt lat="45.06489" lon="6.4699">
        <ele>2477.8</ele>
        <time>2022-07-16T13:49:31+0200</time>
      </trkpt>
      <trkpt lat="45.06486" lon="6.46985">
        <ele>2477.5</ele>
        <time>2022-07-16T13:49:35+0200</time>
      </trkpt>
      <trkpt lat="45.06482" lon="6.46981">
        <ele>2478.2</ele>
        <time>2022-07-16T13:49:39+0200</time>
      </trkpt>
      <trkpt lat="45.06477" lon="6.46976">
        <ele>2479.4</ele>
        <time>2022-07-16T13:49:43+0200</time>
      </trkpt>
      <trkpt lat="45.06471" lon="6.46973">
        <ele>2480.7</ele>
        <time>2022-07-16T13:49:47+0200</time>
      </trkpt>
      <trkpt lat="45.06467" lon="6.4697">
        <ele>2481.3</ele>
        <time>2022-07-16T13:49:51+0200</time>
      </trkpt>
      <trkpt lat="45.06463" lon="6.46967">
        <ele>2482.5</ele>
        <time>2022-07-16T13:49:56+0200</time>
      </trkpt>
      <trkpt lat="45.06459" lon="6.46963">
        <ele>2483</ele>
        <time>2022-07-16T13:49:59+0200</time>
      </trkpt>
      <trkpt lat="45.06454" lon="6.46959">
        <ele>2484</ele>
        <time>2022-07-16T13:50:03+0200</time>
      </trkpt>
      <trkpt lat="45.0645" lon="6.46955">
        <ele>2484.6</ele>
        <time>2022-07-16T13:50:08+0200</time>
      </trkpt>
      <trkpt lat="45.06445" lon="6.46952">
        <ele>2485.5</ele>
        <time>2022-07-16T13:50:12+0200</time>
      </trkpt>
      <trkpt lat="45.06441" lon="6.46951">
        <ele>2485.7</ele>
        <time>2022-07-16T13:50:17+0200</time>
      </trkpt>
      <trkpt lat="45.06436" lon="6.46955">
        <ele>2486.7</ele>
        <time>2022-07-16T13:50:22+0200</time>
      </trkpt>
      <trkpt lat="45.06432" lon="6.46957">
        <ele>2487.1</ele>
        <time>2022-07-16T13:50:28+0200</time>
      </trkpt>
      <trkpt lat="45.06427" lon="6.46956">
        <ele>2487</ele>
        <time>2022-07-16T13:50:30+0200</time>
      </trkpt>
      <trkpt lat="45.06422" lon="6.46952">
        <ele>2486</ele>
        <time>2022-07-16T13:50:33+0200</time>
      </trkpt>
      <trkpt lat="45.06416" lon="6.46953">
        <ele>2486.1</ele>
        <time>2022-07-16T13:50:37+0200</time>
      </trkpt>
      <trkpt lat="45.06413" lon="6.4696">
        <ele>2487.9</ele>
        <time>2022-07-16T13:50:39+0200</time>
      </trkpt>
      <trkpt lat="45.06408" lon="6.4696">
        <ele>2487.8</ele>
        <time>2022-07-16T13:50:41+0200</time>
      </trkpt>
      <trkpt lat="45.06404" lon="6.46955">
        <ele>2486.8</ele>
        <time>2022-07-16T13:50:46+0200</time>
      </trkpt>
      <trkpt lat="45.06399" lon="6.46951">
        <ele>2485.9</ele>
        <time>2022-07-16T13:50:51+0200</time>
      </trkpt>
      <trkpt lat="45.06395" lon="6.46947">
        <ele>2485.4</ele>
        <time>2022-07-16T13:50:53+0200</time>
      </trkpt>
      <trkpt lat="45.06389" lon="6.46943">
        <ele>2484.7</ele>
        <time>2022-07-16T13:50:56+0200</time>
      </trkpt>
      <trkpt lat="45.06382" lon="6.46943">
        <ele>2485</ele>
        <time>2022-07-16T13:50:58+0200</time>
      </trkpt>
      <trkpt lat="45.06376" lon="6.46942">
        <ele>2485.2</ele>
        <time>2022-07-16T13:51:00+0200</time>
      </trkpt>
      <trkpt lat="45.06371" lon="6.46942">
        <ele>2485.8</ele>
        <time>2022-07-16T13:51:02+0200</time>
      </trkpt>
      <trkpt lat="45.06364" lon="6.46939">
        <ele>2485.3</ele>
        <time>2022-07-16T13:51:05+0200</time>
      </trkpt>
      <trkpt lat="45.06361" lon="6.46934">
        <ele>2484.5</ele>
        <time>2022-07-16T13:51:07+0200</time>
      </trkpt>
      <trkpt lat="45.06357" lon="6.4693">
        <ele>2483.6</ele>
        <time>2022-07-16T13:51:09+0200</time>
      </trkpt>
      <trkpt lat="45.06352" lon="6.46924">
        <ele>2482.6</ele>
        <time>2022-07-16T13:51:11+0200</time>
      </trkpt>
      <trkpt lat="45.06348" lon="6.46919">
        <ele>2482.2</ele>
        <time>2022-07-16T13:51:13+0200</time>
      </trkpt>
      <trkpt lat="45.06345" lon="6.46914">
        <ele>2482.2</ele>
        <time>2022-07-16T13:51:15+0200</time>
      </trkpt>
      <trkpt lat="45.0634" lon="6.4691">
        <ele>2482.6</ele>
        <time>2022-07-16T13:51:17+0200</time>
      </trkpt>
      <trkpt lat="45.06333" lon="6.46907">
        <ele>2483.3</ele>
        <time>2022-07-16T13:51:19+0200</time>
      </trkpt>
      <trkpt lat="45.06325" lon="6.46904">
        <ele>2482.9</ele>
        <time>2022-07-16T13:51:21+0200</time>
      </trkpt>
      <trkpt lat="45.06317" lon="6.46903">
        <ele>2482.7</ele>
        <time>2022-07-16T13:51:23+0200</time>
      </trkpt>
      <trkpt lat="45.06312" lon="6.46901">
        <ele>2482.5</ele>
        <time>2022-07-16T13:51:24+0200</time>
      </trkpt>
      <trkpt lat="45.06307" lon="6.46899">
        <ele>2482.4</ele>
        <time>2022-07-16T13:51:27+0200</time>
      </trkpt>
      <trkpt lat="45.06301" lon="6.46898">
        <ele>2482.3</ele>
        <time>2022-07-16T13:51:32+0200</time>
      </trkpt>
      <trkpt lat="45.06295" lon="6.46899">
        <ele>2482.4</ele>
        <time>2022-07-16T13:51:37+0200</time>
      </trkpt>
      <trkpt lat="45.0629" lon="6.46899">
        <ele>2482.4</ele>
        <time>2022-07-16T13:51:40+0200</time>
      </trkpt>
      <trkpt lat="45.06284" lon="6.46899">
        <ele>2482.4</ele>
        <time>2022-07-16T13:51:44+0200</time>
      </trkpt>
      <trkpt lat="45.06279" lon="6.469">
        <ele>2482.4</ele>
        <time>2022-07-16T13:51:47+0200</time>
      </trkpt>
      <trkpt lat="45.06274" lon="6.46901">
        <ele>2482.7</ele>
        <time>2022-07-16T13:51:52+0200</time>
      </trkpt>
      <trkpt lat="45.0627" lon="6.46902">
        <ele>2483.2</ele>
        <time>2022-07-16T13:51:56+0200</time>
      </trkpt>
      <trkpt lat="45.06264" lon="6.46902">
        <ele>2483.7</ele>
        <time>2022-07-16T13:52:01+0200</time>
      </trkpt>
      <trkpt lat="45.0626" lon="6.46905">
        <ele>2484.2</ele>
        <time>2022-07-16T13:52:05+0200</time>
      </trkpt>
      <trkpt lat="45.06255" lon="6.46907">
        <ele>2484.8</ele>
        <time>2022-07-16T13:52:09+0200</time>
      </trkpt>
      <trkpt lat="45.0625" lon="6.46907">
        <ele>2485.3</ele>
        <time>2022-07-16T13:52:12+0200</time>
      </trkpt>
      <trkpt lat="45.06245" lon="6.4691">
        <ele>2486.6</ele>
        <time>2022-07-16T13:52:17+0200</time>
      </trkpt>
      <trkpt lat="45.0624" lon="6.46912">
        <ele>2487.8</ele>
        <time>2022-07-16T13:52:21+0200</time>
      </trkpt>
      <trkpt lat="45.06237" lon="6.46917">
        <ele>2488.8</ele>
        <time>2022-07-16T13:52:26+0200</time>
      </trkpt>
      <trkpt lat="45.06235" lon="6.46924">
        <ele>2489.8</ele>
        <time>2022-07-16T13:52:33+0200</time>
      </trkpt>
      <trkpt lat="45.06232" lon="6.46929">
        <ele>2490.9</ele>
        <time>2022-07-16T13:52:40+0200</time>
      </trkpt>
      <trkpt lat="45.0623" lon="6.46935">
        <ele>2491.9</ele>
        <time>2022-07-16T13:52:47+0200</time>
      </trkpt>
      <trkpt lat="45.06225" lon="6.46939">
        <ele>2493</ele>
        <time>2022-07-16T13:52:53+0200</time>
      </trkpt>
      <trkpt lat="45.06224" lon="6.46945">
        <ele>2493.9</ele>
        <time>2022-07-16T13:53:24+0200</time>
      </trkpt>
      <trkpt lat="45.06222" lon="6.46953">
        <ele>2495.4</ele>
        <time>2022-07-16T13:53:28+0200</time>
      </trkpt>
      <trkpt lat="45.0622" lon="6.46959">
        <ele>2496.3</ele>
        <time>2022-07-16T13:53:32+0200</time>
      </trkpt>
      <trkpt lat="45.06217" lon="6.46964">
        <ele>2496.8</ele>
        <time>2022-07-16T13:53:35+0200</time>
      </trkpt>
      <trkpt lat="45.06211" lon="6.46966">
        <ele>2496.3</ele>
        <time>2022-07-16T13:53:39+0200</time>
      </trkpt>
      <trkpt lat="45.06208" lon="6.46971">
        <ele>2496.6</ele>
        <time>2022-07-16T13:53:42+0200</time>
      </trkpt>
      <trkpt lat="45.06202" lon="6.46974">
        <ele>2496.3</ele>
        <time>2022-07-16T13:53:46+0200</time>
      </trkpt>
      <trkpt lat="45.06197" lon="6.46972">
        <ele>2495.4</ele>
        <time>2022-07-16T13:53:49+0200</time>
      </trkpt>
      <trkpt lat="45.06193" lon="6.4697">
        <ele>2494.7</ele>
        <time>2022-07-16T13:53:54+0200</time>
      </trkpt>
      <trkpt lat="45.06187" lon="6.4697">
        <ele>2495.1</ele>
        <time>2022-07-16T13:53:57+0200</time>
      </trkpt>
      <trkpt lat="45.06183" lon="6.4697">
        <ele>2495.4</ele>
        <time>2022-07-16T13:54:00+0200</time>
      </trkpt>
      <trkpt lat="45.06179" lon="6.46966">
        <ele>2495</ele>
        <time>2022-07-16T13:54:04+0200</time>
      </trkpt>
      <trkpt lat="45.06176" lon="6.46962">
        <ele>2494.7</ele>
        <time>2022-07-16T13:54:07+0200</time>
      </trkpt>
      <trkpt lat="45.06172" lon="6.46958">
        <ele>2494.6</ele>
        <time>2022-07-16T13:54:10+0200</time>
      </trkpt>
      <trkpt lat="45.06167" lon="6.46955">
        <ele>2494.5</ele>
        <time>2022-07-16T13:54:13+0200</time>
      </trkpt>
      <trkpt lat="45.06162" lon="6.46954">
        <ele>2495.6</ele>
        <time>2022-07-16T13:54:20+0200</time>
      </trkpt>
      <trkpt lat="45.06159" lon="6.46949">
        <ele>2496.2</ele>
        <time>2022-07-16T13:54:25+0200</time>
      </trkpt>
      <trkpt lat="45.06155" lon="6.46944">
        <ele>2496.8</ele>
        <time>2022-07-16T13:54:29+0200</time>
      </trkpt>
      <trkpt lat="45.06152" lon="6.46937">
        <ele>2497.1</ele>
        <time>2022-07-16T13:54:33+0200</time>
      </trkpt>
      <trkpt lat="45.06151" lon="6.46931">
        <ele>2496.8</ele>
        <time>2022-07-16T13:54:37+0200</time>
      </trkpt>
      <trkpt lat="45.0615" lon="6.46925">
        <ele>2496.9</ele>
        <time>2022-07-16T13:54:41+0200</time>
      </trkpt>
      <trkpt lat="45.06148" lon="6.46918">
        <ele>2497.2</ele>
        <time>2022-07-16T13:54:43+0200</time>
      </trkpt>
      <trkpt lat="45.06147" lon="6.4691">
        <ele>2497.2</ele>
        <time>2022-07-16T13:54:46+0200</time>
      </trkpt>
      <trkpt lat="45.06145" lon="6.46903">
        <ele>2497.5</ele>
        <time>2022-07-16T13:54:49+0200</time>
      </trkpt>
      <trkpt lat="45.06142" lon="6.46898">
        <ele>2498</ele>
        <time>2022-07-16T13:54:53+0200</time>
      </trkpt>
      <trkpt lat="45.0614" lon="6.46891">
        <ele>2498</ele>
        <time>2022-07-16T13:54:57+0200</time>
      </trkpt>
      <trkpt lat="45.06139" lon="6.46884">
        <ele>2497.9</ele>
        <time>2022-07-16T13:55:02+0200</time>
      </trkpt>
      <trkpt lat="45.06133" lon="6.46881">
        <ele>2499.1</ele>
        <time>2022-07-16T13:55:07+0200</time>
      </trkpt>
      <trkpt lat="45.06128" lon="6.46879">
        <ele>2500.1</ele>
        <time>2022-07-16T13:55:11+0200</time>
      </trkpt>
      <trkpt lat="45.06122" lon="6.46879">
        <ele>2501.3</ele>
        <time>2022-07-16T13:55:15+0200</time>
      </trkpt>
      <trkpt lat="45.06117" lon="6.46878">
        <ele>2502.4</ele>
        <time>2022-07-16T13:55:22+0200</time>
      </trkpt>
      <trkpt lat="45.06112" lon="6.46876">
        <ele>2502.6</ele>
        <time>2022-07-16T13:55:27+0200</time>
      </trkpt>
      <trkpt lat="45.06108" lon="6.46875">
        <ele>2503.3</ele>
        <time>2022-07-16T13:55:30+0200</time>
      </trkpt>
      <trkpt lat="45.06102" lon="6.46874">
        <ele>2504.5</ele>
        <time>2022-07-16T13:55:36+0200</time>
      </trkpt>
      <trkpt lat="45.06098" lon="6.4687">
        <ele>2504.6</ele>
        <time>2022-07-16T13:55:40+0200</time>
      </trkpt>
      <trkpt lat="45.06095" lon="6.46863">
        <ele>2503.3</ele>
        <time>2022-07-16T13:55:44+0200</time>
      </trkpt>
      <trkpt lat="45.06093" lon="6.46858">
        <ele>2502.8</ele>
        <time>2022-07-16T13:55:48+0200</time>
      </trkpt>
      <trkpt lat="45.06088" lon="6.46855">
        <ele>2503.8</ele>
        <time>2022-07-16T13:55:52+0200</time>
      </trkpt>
      <trkpt lat="45.06083" lon="6.46854">
        <ele>2505</ele>
        <time>2022-07-16T13:55:56+0200</time>
      </trkpt>
      <trkpt lat="45.06077" lon="6.46853">
        <ele>2505.6</ele>
        <time>2022-07-16T13:56:00+0200</time>
      </trkpt>
      <trkpt lat="45.06072" lon="6.46853">
        <ele>2506.1</ele>
        <time>2022-07-16T13:56:03+0200</time>
      </trkpt>
      <trkpt lat="45.06067" lon="6.4685">
        <ele>2506.1</ele>
        <time>2022-07-16T13:56:06+0200</time>
      </trkpt>
      <trkpt lat="45.06064" lon="6.46846">
        <ele>2505.4</ele>
        <time>2022-07-16T13:56:10+0200</time>
      </trkpt>
      <trkpt lat="45.06059" lon="6.46844">
        <ele>2505.4</ele>
        <time>2022-07-16T13:56:14+0200</time>
      </trkpt>
      <trkpt lat="45.06053" lon="6.46845">
        <ele>2506.6</ele>
        <time>2022-07-16T13:56:17+0200</time>
      </trkpt>
      <trkpt lat="45.06048" lon="6.46845">
        <ele>2508.3</ele>
        <time>2022-07-16T13:56:21+0200</time>
      </trkpt>
      <trkpt lat="45.06044" lon="6.46842">
        <ele>2508.5</ele>
        <time>2022-07-16T13:56:25+0200</time>
      </trkpt>
      <trkpt lat="45.06039" lon="6.46837">
        <ele>2508.7</ele>
        <time>2022-07-16T13:56:30+0200</time>
      </trkpt>
      <trkpt lat="45.06035" lon="6.46833">
        <ele>2508.9</ele>
        <time>2022-07-16T13:56:34+0200</time>
      </trkpt>
      <trkpt lat="45.06031" lon="6.46827">
        <ele>2508.4</ele>
        <time>2022-07-16T13:56:39+0200</time>
      </trkpt>
      <trkpt lat="45.06027" lon="6.46821">
        <ele>2507.8</ele>
        <time>2022-07-16T13:56:44+0200</time>
      </trkpt>
      <trkpt lat="45.06022" lon="6.46817">
        <ele>2507.8</ele>
        <time>2022-07-16T13:56:48+0200</time>
      </trkpt>
      <trkpt lat="45.06018" lon="6.46813">
        <ele>2507.7</ele>
        <time>2022-07-16T13:56:51+0200</time>
      </trkpt>
      <trkpt lat="45.06013" lon="6.46812">
        <ele>2508.4</ele>
        <time>2022-07-16T13:56:54+0200</time>
      </trkpt>
      <trkpt lat="45.06009" lon="6.46809">
        <ele>2508.4</ele>
        <time>2022-07-16T13:56:58+0200</time>
      </trkpt>
      <trkpt lat="45.06004" lon="6.46806">
        <ele>2508.5</ele>
        <time>2022-07-16T13:57:02+0200</time>
      </trkpt>
      <trkpt lat="45.05998" lon="6.46805">
        <ele>2509.1</ele>
        <time>2022-07-16T13:57:06+0200</time>
      </trkpt>
      <trkpt lat="45.05993" lon="6.46805">
        <ele>2510.2</ele>
        <time>2022-07-16T13:57:10+0200</time>
      </trkpt>
      <trkpt lat="45.05989" lon="6.46802">
        <ele>2510.1</ele>
        <time>2022-07-16T13:57:14+0200</time>
      </trkpt>
      <trkpt lat="45.05985" lon="6.46797">
        <ele>2509.7</ele>
        <time>2022-07-16T13:57:17+0200</time>
      </trkpt>
      <trkpt lat="45.05983" lon="6.4679">
        <ele>2509.3</ele>
        <time>2022-07-16T13:57:21+0200</time>
      </trkpt>
      <trkpt lat="45.0598" lon="6.46784">
        <ele>2509.2</ele>
        <time>2022-07-16T13:57:24+0200</time>
      </trkpt>
      <trkpt lat="45.05978" lon="6.46777">
        <ele>2508.9</ele>
        <time>2022-07-16T13:57:28+0200</time>
      </trkpt>
      <trkpt lat="45.05974" lon="6.46772">
        <ele>2509.9</ele>
        <time>2022-07-16T13:57:32+0200</time>
      </trkpt>
      <trkpt lat="45.0597" lon="6.46767">
        <ele>2510.7</ele>
        <time>2022-07-16T13:57:40+0200</time>
      </trkpt>
      <trkpt lat="45.05968" lon="6.4676">
        <ele>2510.7</ele>
        <time>2022-07-16T13:57:44+0200</time>
      </trkpt>
      <trkpt lat="45.05966" lon="6.46754">
        <ele>2510.7</ele>
        <time>2022-07-16T13:57:47+0200</time>
      </trkpt>
      <trkpt lat="45.05961" lon="6.46749">
        <ele>2510.9</ele>
        <time>2022-07-16T13:57:52+0200</time>
      </trkpt>
      <trkpt lat="45.05957" lon="6.46747">
        <ele>2511.1</ele>
        <time>2022-07-16T13:57:56+0200</time>
      </trkpt>
      <trkpt lat="45.05952" lon="6.46743">
        <ele>2510.8</ele>
        <time>2022-07-16T13:58:00+0200</time>
      </trkpt>
      <trkpt lat="45.05948" lon="6.46739">
        <ele>2510.6</ele>
        <time>2022-07-16T13:58:03+0200</time>
      </trkpt>
      <trkpt lat="45.05945" lon="6.46733">
        <ele>2509.8</ele>
        <time>2022-07-16T13:58:06+0200</time>
      </trkpt>
      <trkpt lat="45.05941" lon="6.46728">
        <ele>2510.1</ele>
        <time>2022-07-16T13:58:10+0200</time>
      </trkpt>
      <trkpt lat="45.05937" lon="6.46724">
        <ele>2511.1</ele>
        <time>2022-07-16T13:58:16+0200</time>
      </trkpt>
      <trkpt lat="45.05931" lon="6.46723">
        <ele>2512.7</ele>
        <time>2022-07-16T13:58:23+0200</time>
      </trkpt>
      <trkpt lat="45.05927" lon="6.4672">
        <ele>2513.7</ele>
        <time>2022-07-16T13:58:30+0200</time>
      </trkpt>
      <trkpt lat="45.05923" lon="6.46721">
        <ele>2515.5</ele>
        <time>2022-07-16T13:58:35+0200</time>
      </trkpt>
      <trkpt lat="45.05917" lon="6.46719">
        <ele>2517</ele>
        <time>2022-07-16T13:58:41+0200</time>
      </trkpt>
      <trkpt lat="45.05914" lon="6.46715">
        <ele>2517.3</ele>
        <time>2022-07-16T13:58:46+0200</time>
      </trkpt>
      <trkpt lat="45.05909" lon="6.46711">
        <ele>2518.9</ele>
        <time>2022-07-16T13:58:51+0200</time>
      </trkpt>
      <trkpt lat="45.05906" lon="6.46706">
        <ele>2519.6</ele>
        <time>2022-07-16T13:58:55+0200</time>
      </trkpt>
      <trkpt lat="45.05902" lon="6.46702">
        <ele>2520.2</ele>
        <time>2022-07-16T13:59:00+0200</time>
      </trkpt>
      <trkpt lat="45.05899" lon="6.46695">
        <ele>2520.2</ele>
        <time>2022-07-16T13:59:06+0200</time>
      </trkpt>
      <trkpt lat="45.05895" lon="6.46691">
        <ele>2520.9</ele>
        <time>2022-07-16T13:59:11+0200</time>
      </trkpt>
      <trkpt lat="45.0589" lon="6.46687">
        <ele>2522</ele>
        <time>2022-07-16T13:59:16+0200</time>
      </trkpt>
      <trkpt lat="45.05886" lon="6.46684">
        <ele>2523.3</ele>
        <time>2022-07-16T13:59:20+0200</time>
      </trkpt>
      <trkpt lat="45.0588" lon="6.4668">
        <ele>2524.3</ele>
        <time>2022-07-16T13:59:25+0200</time>
      </trkpt>
      <trkpt lat="45.05877" lon="6.46676">
        <ele>2524.3</ele>
        <time>2022-07-16T13:59:29+0200</time>
      </trkpt>
      <trkpt lat="45.05872" lon="6.46674">
        <ele>2525.7</ele>
        <time>2022-07-16T13:59:34+0200</time>
      </trkpt>
      <trkpt lat="45.05868" lon="6.46673">
        <ele>2527.1</ele>
        <time>2022-07-16T13:59:40+0200</time>
      </trkpt>
      <trkpt lat="45.05863" lon="6.4667">
        <ele>2527.6</ele>
        <time>2022-07-16T13:59:45+0200</time>
      </trkpt>
      <trkpt lat="45.05858" lon="6.46669">
        <ele>2528.5</ele>
        <time>2022-07-16T13:59:52+0200</time>
      </trkpt>
      <trkpt lat="45.05852" lon="6.46669">
        <ele>2529.6</ele>
        <time>2022-07-16T13:59:58+0200</time>
      </trkpt>
      <trkpt lat="45.05848" lon="6.46667">
        <ele>2529.4</ele>
        <time>2022-07-16T14:00:03+0200</time>
      </trkpt>
      <trkpt lat="45.05843" lon="6.46668">
        <ele>2530.8</ele>
        <time>2022-07-16T14:00:07+0200</time>
      </trkpt>
      <trkpt lat="45.05838" lon="6.4667">
        <ele>2532.8</ele>
        <time>2022-07-16T14:00:11+0200</time>
      </trkpt>
      <trkpt lat="45.05835" lon="6.46674">
        <ele>2536.4</ele>
        <time>2022-07-16T14:00:16+0200</time>
      </trkpt>
      <trkpt lat="45.0583" lon="6.46673">
        <ele>2536.7</ele>
        <time>2022-07-16T14:00:20+0200</time>
      </trkpt>
      <trkpt lat="45.05825" lon="6.4667">
        <ele>2536</ele>
        <time>2022-07-16T14:00:25+0200</time>
      </trkpt>
      <trkpt lat="45.0582" lon="6.46669">
        <ele>2536.8</ele>
        <time>2022-07-16T14:00:33+0200</time>
      </trkpt>
      <trkpt lat="45.05814" lon="6.4667">
        <ele>2539</ele>
        <time>2022-07-16T14:00:40+0200</time>
      </trkpt>
      <trkpt lat="45.05808" lon="6.46669">
        <ele>2539.9</ele>
        <time>2022-07-16T14:00:44+0200</time>
      </trkpt>
      <trkpt lat="45.05803" lon="6.46669">
        <ele>2540.3</ele>
        <time>2022-07-16T14:00:48+0200</time>
      </trkpt>
      <trkpt lat="45.05798" lon="6.46668">
        <ele>2540.3</ele>
        <time>2022-07-16T14:00:53+0200</time>
      </trkpt>
      <trkpt lat="45.05794" lon="6.46669">
        <ele>2541</ele>
        <time>2022-07-16T14:00:56+0200</time>
      </trkpt>
      <trkpt lat="45.05789" lon="6.46669">
        <ele>2541.6</ele>
        <time>2022-07-16T14:01:03+0200</time>
      </trkpt>
      <trkpt lat="45.05783" lon="6.4667">
        <ele>2542.7</ele>
        <time>2022-07-16T14:01:07+0200</time>
      </trkpt>
      <trkpt lat="45.05779" lon="6.4667">
        <ele>2542.8</ele>
        <time>2022-07-16T14:01:11+0200</time>
      </trkpt>
      <trkpt lat="45.05774" lon="6.46672">
        <ele>2542.7</ele>
        <time>2022-07-16T14:01:15+0200</time>
      </trkpt>
      <trkpt lat="45.05768" lon="6.46675">
        <ele>2543</ele>
        <time>2022-07-16T14:01:24+0200</time>
      </trkpt>
      <trkpt lat="45.05764" lon="6.46678">
        <ele>2543.4</ele>
        <time>2022-07-16T14:01:29+0200</time>
      </trkpt>
      <trkpt lat="45.05759" lon="6.46682">
        <ele>2544.1</ele>
        <time>2022-07-16T14:01:33+0200</time>
      </trkpt>
      <trkpt lat="45.05754" lon="6.46686">
        <ele>2545.4</ele>
        <time>2022-07-16T14:01:38+0200</time>
      </trkpt>
      <trkpt lat="45.05749" lon="6.46691">
        <ele>2547.4</ele>
        <time>2022-07-16T14:01:43+0200</time>
      </trkpt>
      <trkpt lat="45.05744" lon="6.46693">
        <ele>2550.5</ele>
        <time>2022-07-16T14:01:49+0200</time>
      </trkpt>
      <trkpt lat="45.05739" lon="6.46691">
        <ele>2551.2</ele>
        <time>2022-07-16T14:01:55+0200</time>
      </trkpt>
      <trkpt lat="45.05733" lon="6.46688">
        <ele>2551.9</ele>
        <time>2022-07-16T14:01:59+0200</time>
      </trkpt>
      <trkpt lat="45.05729" lon="6.46684">
        <ele>2551.1</ele>
        <time>2022-07-16T14:02:03+0200</time>
      </trkpt>
      <trkpt lat="45.05725" lon="6.46679">
        <ele>2550.5</ele>
        <time>2022-07-16T14:02:09+0200</time>
      </trkpt>
      <trkpt lat="45.0572" lon="6.46676">
        <ele>2551</ele>
        <time>2022-07-16T14:02:15+0200</time>
      </trkpt>
      <trkpt lat="45.05715" lon="6.46674">
        <ele>2551.2</ele>
        <time>2022-07-16T14:02:23+0200</time>
      </trkpt>
      <trkpt lat="45.0571" lon="6.46675">
        <ele>2553</ele>
        <time>2022-07-16T14:02:29+0200</time>
      </trkpt>
      <trkpt lat="45.05705" lon="6.46675">
        <ele>2553.8</ele>
        <time>2022-07-16T14:02:37+0200</time>
      </trkpt>
      <trkpt lat="45.057" lon="6.46675">
        <ele>2555.2</ele>
        <time>2022-07-16T14:02:43+0200</time>
      </trkpt>
      <trkpt lat="45.05696" lon="6.46677">
        <ele>2557.3</ele>
        <time>2022-07-16T14:02:48+0200</time>
      </trkpt>
      <trkpt lat="45.05691" lon="6.46676">
        <ele>2557.7</ele>
        <time>2022-07-16T14:02:53+0200</time>
      </trkpt>
      <trkpt lat="45.05687" lon="6.46676">
        <ele>2558.7</ele>
        <time>2022-07-16T14:02:59+0200</time>
      </trkpt>
      <trkpt lat="45.05682" lon="6.46678">
        <ele>2560.2</ele>
        <time>2022-07-16T14:03:06+0200</time>
      </trkpt>
      <trkpt lat="45.05677" lon="6.46677">
        <ele>2560.7</ele>
        <time>2022-07-16T14:03:14+0200</time>
      </trkpt>
      <trkpt lat="45.05672" lon="6.46678">
        <ele>2562.3</ele>
        <time>2022-07-16T14:03:20+0200</time>
      </trkpt>
      <trkpt lat="45.05668" lon="6.4668">
        <ele>2564</ele>
        <time>2022-07-16T14:03:26+0200</time>
      </trkpt>
      <trkpt lat="45.05663" lon="6.46681">
        <ele>2565.5</ele>
        <time>2022-07-16T14:03:29+0200</time>
      </trkpt>
      <trkpt lat="45.05659" lon="6.46682">
        <ele>2567.3</ele>
        <time>2022-07-16T14:03:33+0200</time>
      </trkpt>
      <trkpt lat="45.05653" lon="6.46681">
        <ele>2568.5</ele>
        <time>2022-07-16T14:03:40+0200</time>
      </trkpt>
      <trkpt lat="45.05649" lon="6.46678">
        <ele>2567.8</ele>
        <time>2022-07-16T14:03:47+0200</time>
      </trkpt>
      <trkpt lat="45.05644" lon="6.46676">
        <ele>2568.1</ele>
        <time>2022-07-16T14:03:52+0200</time>
      </trkpt>
      <trkpt lat="45.05639" lon="6.46676">
        <ele>2569.3</ele>
        <time>2022-07-16T14:03:56+0200</time>
      </trkpt>
      <trkpt lat="45.05634" lon="6.46674">
        <ele>2569.9</ele>
        <time>2022-07-16T14:04:01+0200</time>
      </trkpt>
      <trkpt lat="45.05629" lon="6.46673">
        <ele>2570.9</ele>
        <time>2022-07-16T14:04:06+0200</time>
      </trkpt>
      <trkpt lat="45.05624" lon="6.46674">
        <ele>2573.1</ele>
        <time>2022-07-16T14:04:14+0200</time>
      </trkpt>
      <trkpt lat="45.05619" lon="6.46674">
        <ele>2574.7</ele>
        <time>2022-07-16T14:04:18+0200</time>
      </trkpt>
      <trkpt lat="45.05615" lon="6.4667">
        <ele>2573.5</ele>
        <time>2022-07-16T14:04:23+0200</time>
      </trkpt>
      <trkpt lat="45.05611" lon="6.46667">
        <ele>2573.1</ele>
        <time>2022-07-16T14:04:28+0200</time>
      </trkpt>
      <trkpt lat="45.05606" lon="6.46666">
        <ele>2574.4</ele>
        <time>2022-07-16T14:04:33+0200</time>
      </trkpt>
      <trkpt lat="45.05601" lon="6.46666">
        <ele>2576.3</ele>
        <time>2022-07-16T14:04:38+0200</time>
      </trkpt>
      <trkpt lat="45.05596" lon="6.46667">
        <ele>2579.1</ele>
        <time>2022-07-16T14:04:44+0200</time>
      </trkpt>
      <trkpt lat="45.05591" lon="6.46664">
        <ele>2579.6</ele>
        <time>2022-07-16T14:04:49+0200</time>
      </trkpt>
      <trkpt lat="45.05586" lon="6.46663">
        <ele>2581.1</ele>
        <time>2022-07-16T14:04:53+0200</time>
      </trkpt>
      <trkpt lat="45.05581" lon="6.4666">
        <ele>2580.9</ele>
        <time>2022-07-16T14:05:01+0200</time>
      </trkpt>
      <trkpt lat="45.05577" lon="6.46657">
        <ele>2580.6</ele>
        <time>2022-07-16T14:05:06+0200</time>
      </trkpt>
      <trkpt lat="45.05572" lon="6.46655">
        <ele>2581.4</ele>
        <time>2022-07-16T14:05:15+0200</time>
      </trkpt>
      <trkpt lat="45.05565" lon="6.46655">
        <ele>2583.5</ele>
        <time>2022-07-16T14:05:22+0200</time>
      </trkpt>
      <trkpt lat="45.05559" lon="6.46653">
        <ele>2584.5</ele>
        <time>2022-07-16T14:05:31+0200</time>
      </trkpt>
      <trkpt lat="45.05554" lon="6.46652">
        <ele>2585.8</ele>
        <time>2022-07-16T14:05:36+0200</time>
      </trkpt>
      <trkpt lat="45.0555" lon="6.46652">
        <ele>2588.7</ele>
        <time>2022-07-16T14:05:42+0200</time>
      </trkpt>
      <trkpt lat="45.05547" lon="6.46646">
        <ele>2586.9</ele>
        <time>2022-07-16T14:05:47+0200</time>
      </trkpt>
      <trkpt lat="45.05544" lon="6.46642">
        <ele>2586.4</ele>
        <time>2022-07-16T14:05:57+0200</time>
      </trkpt>
      <trkpt lat="45.05542" lon="6.46635">
        <ele>2585.4</ele>
        <time>2022-07-16T14:06:06+0200</time>
      </trkpt>
      <trkpt lat="45.05538" lon="6.46632">
        <ele>2587.2</ele>
        <time>2022-07-16T14:06:16+0200</time>
      </trkpt>
      <trkpt lat="45.05534" lon="6.46627">
        <ele>2588.5</ele>
        <time>2022-07-16T14:06:25+0200</time>
      </trkpt>
      <trkpt lat="45.05529" lon="6.46624">
        <ele>2591.3</ele>
        <time>2022-07-16T14:06:34+0200</time>
      </trkpt>
      <trkpt lat="45.05525" lon="6.46621">
        <ele>2592.7</ele>
        <time>2022-07-16T14:06:43+0200</time>
      </trkpt>
      <trkpt lat="45.0552" lon="6.4662">
        <ele>2594.4</ele>
        <time>2022-07-16T14:06:52+0200</time>
      </trkpt>
      <trkpt lat="45.05514" lon="6.46623">
        <ele>2598.4</ele>
        <time>2022-07-16T14:07:03+0200</time>
      </trkpt>
      <trkpt lat="45.05508" lon="6.46621">
        <ele>2600</ele>
        <time>2022-07-16T14:07:10+0200</time>
      </trkpt>
      <trkpt lat="45.05502" lon="6.46621">
        <ele>2603</ele>
        <time>2022-07-16T14:07:17+0200</time>
      </trkpt>
      <trkpt lat="45.05497" lon="6.46618">
        <ele>2603.4</ele>
        <time>2022-07-16T14:07:23+0200</time>
      </trkpt>
      <trkpt lat="45.05493" lon="6.46614">
        <ele>2602.6</ele>
        <time>2022-07-16T14:07:26+0200</time>
      </trkpt>
      <trkpt lat="45.05488" lon="6.46612">
        <ele>2603</ele>
        <time>2022-07-16T14:07:28+0200</time>
      </trkpt>
      <trkpt lat="45.05483" lon="6.46611">
        <ele>2604.6</ele>
        <time>2022-07-16T14:07:34+0200</time>
      </trkpt>
      <trkpt lat="45.05479" lon="6.46613">
        <ele>2607.4</ele>
        <time>2022-07-16T14:07:42+0200</time>
      </trkpt>
      <trkpt lat="45.05474" lon="6.46611">
        <ele>2608.4</ele>
        <time>2022-07-16T14:07:47+0200</time>
      </trkpt>
      <trkpt lat="45.0547" lon="6.46607">
        <ele>2608.4</ele>
        <time>2022-07-16T14:07:54+0200</time>
      </trkpt>
      <trkpt lat="45.05466" lon="6.46602">
        <ele>2608.1</ele>
        <time>2022-07-16T14:07:59+0200</time>
      </trkpt>
      <trkpt lat="45.05462" lon="6.466">
        <ele>2608.9</ele>
        <time>2022-07-16T14:08:02+0200</time>
      </trkpt>
      <trkpt lat="45.05457" lon="6.46597">
        <ele>2609.6</ele>
        <time>2022-07-16T14:08:06+0200</time>
      </trkpt>
      <trkpt lat="45.05452" lon="6.46592">
        <ele>2610.4</ele>
        <time>2022-07-16T14:08:12+0200</time>
      </trkpt>
      <trkpt lat="45.05448" lon="6.46592">
        <ele>2611.9</ele>
        <time>2022-07-16T14:08:36+0200</time>
      </trkpt>
      <trkpt lat="45.05443" lon="6.46595">
        <ele>2612.4</ele>
        <time>2022-07-16T14:08:51+0200</time>
      </trkpt>
      <trkpt lat="45.05437" lon="6.46597">
        <ele>2609.7</ele>
        <time>2022-07-16T14:08:56+0200</time>
      </trkpt>
      <trkpt lat="45.05432" lon="6.46601">
        <ele>2607.7</ele>
        <time>2022-07-16T14:08:59+0200</time>
      </trkpt>
      <trkpt lat="45.05431" lon="6.4661">
        <ele>2607.9</ele>
        <time>2022-07-16T14:09:01+0200</time>
      </trkpt>
      <trkpt lat="45.0543" lon="6.46619">
        <ele>2609.6</ele>
        <time>2022-07-16T14:09:03+0200</time>
      </trkpt>
      <trkpt lat="45.05427" lon="6.46626">
        <ele>2610.7</ele>
        <time>2022-07-16T14:09:07+0200</time>
      </trkpt>
      <trkpt lat="45.05425" lon="6.46632">
        <ele>2611.2</ele>
        <time>2022-07-16T14:09:09+0200</time>
      </trkpt>
      <trkpt lat="45.0542" lon="6.46635">
        <ele>2609.6</ele>
        <time>2022-07-16T14:09:21+0200</time>
      </trkpt>
      <trkpt lat="45.05416" lon="6.46638">
        <ele>2608.1</ele>
        <time>2022-07-16T14:09:26+0200</time>
      </trkpt>
      <trkpt lat="45.05413" lon="6.46647">
        <ele>2608.1</ele>
        <time>2022-07-16T14:09:33+0200</time>
      </trkpt>
      <trkpt lat="45.05412" lon="6.46655">
        <ele>2610.7</ele>
        <time>2022-07-16T14:09:35+0200</time>
      </trkpt>
      <trkpt lat="45.05408" lon="6.4666">
        <ele>2608.7</ele>
        <time>2022-07-16T14:09:47+0200</time>
      </trkpt>
      <trkpt lat="45.05403" lon="6.46671">
        <ele>2608.8</ele>
        <time>2022-07-16T14:09:51+0200</time>
      </trkpt>
      <trkpt lat="45.05402" lon="6.46679">
        <ele>2610</ele>
        <time>2022-07-16T14:09:53+0200</time>
      </trkpt>
      <trkpt lat="45.05403" lon="6.46686">
        <ele>2611.6</ele>
        <time>2022-07-16T14:09:57+0200</time>
      </trkpt>
      <trkpt lat="45.05401" lon="6.46692">
        <ele>2612.2</ele>
        <time>2022-07-16T14:09:59+0200</time>
      </trkpt>
      <trkpt lat="45.05397" lon="6.467">
        <ele>2611</ele>
        <time>2022-07-16T14:10:01+0200</time>
      </trkpt>
      <trkpt lat="45.0539" lon="6.46709">
        <ele>2607.5</ele>
        <time>2022-07-16T14:10:03+0200</time>
      </trkpt>
      <trkpt lat="45.05388" lon="6.46716">
        <ele>2606.1</ele>
        <time>2022-07-16T14:10:04+0200</time>
      </trkpt>
      <trkpt lat="45.05386" lon="6.46723">
        <ele>2605.1</ele>
        <time>2022-07-16T14:10:05+0200</time>
      </trkpt>
      <trkpt lat="45.05384" lon="6.46729">
        <ele>2604.2</ele>
        <time>2022-07-16T14:10:06+0200</time>
      </trkpt>
      <trkpt lat="45.05382" lon="6.46735">
        <ele>2603.3</ele>
        <time>2022-07-16T14:10:07+0200</time>
      </trkpt>
      <trkpt lat="45.05378" lon="6.46745">
        <ele>2602.1</ele>
        <time>2022-07-16T14:10:09+0200</time>
      </trkpt>
      <trkpt lat="45.05375" lon="6.46752">
        <ele>2601</ele>
        <time>2022-07-16T14:10:10+0200</time>
      </trkpt>
      <trkpt lat="45.05369" lon="6.46758">
        <ele>2598.8</ele>
        <time>2022-07-16T14:10:11+0200</time>
      </trkpt>
      <trkpt lat="45.05363" lon="6.46767">
        <ele>2596.3</ele>
        <time>2022-07-16T14:10:12+0200</time>
      </trkpt>
      <trkpt lat="45.05357" lon="6.46776">
        <ele>2594.9</ele>
        <time>2022-07-16T14:10:13+0200</time>
      </trkpt>
      <trkpt lat="45.05353" lon="6.46784">
        <ele>2593.9</ele>
        <time>2022-07-16T14:10:14+0200</time>
      </trkpt>
      <trkpt lat="45.05348" lon="6.46793">
        <ele>2592.7</ele>
        <time>2022-07-16T14:10:15+0200</time>
      </trkpt>
      <trkpt lat="45.05345" lon="6.46799">
        <ele>2591.7</ele>
        <time>2022-07-16T14:10:16+0200</time>
      </trkpt>
      <trkpt lat="45.05341" lon="6.46808">
        <ele>2590</ele>
        <time>2022-07-16T14:10:18+0200</time>
      </trkpt>
      <trkpt lat="45.05336" lon="6.46806">
        <ele>2590.1</ele>
        <time>2022-07-16T14:10:20+0200</time>
      </trkpt>
      <trkpt lat="45.05328" lon="6.46803">
        <ele>2588.9</ele>
        <time>2022-07-16T14:10:22+0200</time>
      </trkpt>
      <trkpt lat="45.05322" lon="6.46807">
        <ele>2587</ele>
        <time>2022-07-16T14:10:25+0200</time>
      </trkpt>
      <trkpt lat="45.0532" lon="6.46814">
        <ele>2584.6</ele>
        <time>2022-07-16T14:10:27+0200</time>
      </trkpt>
      <trkpt lat="45.05319" lon="6.46821">
        <ele>2583.1</ele>
        <time>2022-07-16T14:10:30+0200</time>
      </trkpt>
      <trkpt lat="45.05324" lon="6.46823">
        <ele>2583.4</ele>
        <time>2022-07-16T14:10:34+0200</time>
      </trkpt>
      <trkpt lat="45.05325" lon="6.46831">
        <ele>2581.7</ele>
        <time>2022-07-16T14:10:36+0200</time>
      </trkpt>
      <trkpt lat="45.0532" lon="6.46834">
        <ele>2580.4</ele>
        <time>2022-07-16T14:10:38+0200</time>
      </trkpt>
      <trkpt lat="45.05315" lon="6.46836">
        <ele>2579.7</ele>
        <time>2022-07-16T14:10:39+0200</time>
      </trkpt>
      <trkpt lat="45.05311" lon="6.46841">
        <ele>2578.7</ele>
        <time>2022-07-16T14:10:40+0200</time>
      </trkpt>
      <trkpt lat="45.05307" lon="6.46848">
        <ele>2577.6</ele>
        <time>2022-07-16T14:10:41+0200</time>
      </trkpt>
      <trkpt lat="45.05305" lon="6.46856">
        <ele>2576.5</ele>
        <time>2022-07-16T14:10:42+0200</time>
      </trkpt>
      <trkpt lat="45.05304" lon="6.46866">
        <ele>2575.6</ele>
        <time>2022-07-16T14:10:43+0200</time>
      </trkpt>
      <trkpt lat="45.05305" lon="6.46875">
        <ele>2575.4</ele>
        <time>2022-07-16T14:10:44+0200</time>
      </trkpt>
      <trkpt lat="45.05304" lon="6.46883">
        <ele>2575.2</ele>
        <time>2022-07-16T14:10:45+0200</time>
      </trkpt>
      <trkpt lat="45.05304" lon="6.46892">
        <ele>2574.6</ele>
        <time>2022-07-16T14:10:46+0200</time>
      </trkpt>
      <trkpt lat="45.05304" lon="6.46901">
        <ele>2573.4</ele>
        <time>2022-07-16T14:10:47+0200</time>
      </trkpt>
      <trkpt lat="45.05304" lon="6.46909">
        <ele>2572.3</ele>
        <time>2022-07-16T14:10:48+0200</time>
      </trkpt>
      <trkpt lat="45.05301" lon="6.46915">
        <ele>2571.5</ele>
        <time>2022-07-16T14:10:49+0200</time>
      </trkpt>
      <trkpt lat="45.05297" lon="6.46921">
        <ele>2571</ele>
        <time>2022-07-16T14:10:50+0200</time>
      </trkpt>
      <trkpt lat="45.05293" lon="6.46927">
        <ele>2570.3</ele>
        <time>2022-07-16T14:10:51+0200</time>
      </trkpt>
      <trkpt lat="45.05291" lon="6.46934">
        <ele>2569.6</ele>
        <time>2022-07-16T14:10:52+0200</time>
      </trkpt>
      <trkpt lat="45.05295" lon="6.46942">
        <ele>2568.2</ele>
        <time>2022-07-16T14:10:53+0200</time>
      </trkpt>
      <trkpt lat="45.05296" lon="6.46949">
        <ele>2567.7</ele>
        <time>2022-07-16T14:10:54+0200</time>
      </trkpt>
      <trkpt lat="45.05292" lon="6.46959">
        <ele>2567.5</ele>
        <time>2022-07-16T14:10:56+0200</time>
      </trkpt>
      <trkpt lat="45.05291" lon="6.4697">
        <ele>2567</ele>
        <time>2022-07-16T14:10:58+0200</time>
      </trkpt>
      <trkpt lat="45.05289" lon="6.46984">
        <ele>2566.4</ele>
        <time>2022-07-16T14:11:00+0200</time>
      </trkpt>
      <trkpt lat="45.05286" lon="6.46991">
        <ele>2565.2</ele>
        <time>2022-07-16T14:11:01+0200</time>
      </trkpt>
      <trkpt lat="45.05283" lon="6.46999">
        <ele>2562.8</ele>
        <time>2022-07-16T14:11:03+0200</time>
      </trkpt>
      <trkpt lat="45.0528" lon="6.47006">
        <ele>2561</ele>
        <time>2022-07-16T14:11:05+0200</time>
      </trkpt>
      <trkpt lat="45.0528" lon="6.47016">
        <ele>2560.4</ele>
        <time>2022-07-16T14:11:07+0200</time>
      </trkpt>
      <trkpt lat="45.05281" lon="6.47026">
        <ele>2559.7</ele>
        <time>2022-07-16T14:11:09+0200</time>
      </trkpt>
      <trkpt lat="45.05283" lon="6.47039">
        <ele>2558.9</ele>
        <time>2022-07-16T14:11:11+0200</time>
      </trkpt>
      <trkpt lat="45.05286" lon="6.47045">
        <ele>2558.9</ele>
        <time>2022-07-16T14:11:12+0200</time>
      </trkpt>
      <trkpt lat="45.05289" lon="6.47052">
        <ele>2558.8</ele>
        <time>2022-07-16T14:11:13+0200</time>
      </trkpt>
      <trkpt lat="45.05292" lon="6.47057">
        <ele>2558.8</ele>
        <time>2022-07-16T14:11:14+0200</time>
      </trkpt>
      <trkpt lat="45.05295" lon="6.47063">
        <ele>2558.8</ele>
        <time>2022-07-16T14:11:15+0200</time>
      </trkpt>
      <trkpt lat="45.05298" lon="6.47067">
        <ele>2558.9</ele>
        <time>2022-07-16T14:11:16+0200</time>
      </trkpt>
      <trkpt lat="45.05303" lon="6.47078">
        <ele>2557.7</ele>
        <time>2022-07-16T14:11:18+0200</time>
      </trkpt>
      <trkpt lat="45.05306" lon="6.47085">
        <ele>2557</ele>
        <time>2022-07-16T14:11:19+0200</time>
      </trkpt>
      <trkpt lat="45.05306" lon="6.47094">
        <ele>2557.2</ele>
        <time>2022-07-16T14:11:20+0200</time>
      </trkpt>
      <trkpt lat="45.05307" lon="6.47101">
        <ele>2557.5</ele>
        <time>2022-07-16T14:11:21+0200</time>
      </trkpt>
      <trkpt lat="45.05304" lon="6.4711">
        <ele>2556.8</ele>
        <time>2022-07-16T14:11:23+0200</time>
      </trkpt>
      <trkpt lat="45.05303" lon="6.47118">
        <ele>2558.2</ele>
        <time>2022-07-16T14:11:25+0200</time>
      </trkpt>
      <trkpt lat="45.05305" lon="6.47124">
        <ele>2559.8</ele>
        <time>2022-07-16T14:11:33+0200</time>
      </trkpt>
      <trkpt lat="45.05302" lon="6.47128">
        <ele>2560.4</ele>
        <time>2022-07-16T14:11:41+0200</time>
      </trkpt>
      <trkpt lat="45.053" lon="6.47135">
        <ele>2561.6</ele>
        <time>2022-07-16T14:11:49+0200</time>
      </trkpt>
      <trkpt lat="45.053" lon="6.47142">
        <ele>2563.1</ele>
        <time>2022-07-16T14:11:54+0200</time>
      </trkpt>
      <trkpt lat="45.05297" lon="6.47147">
        <ele>2563.9</ele>
        <time>2022-07-16T14:11:59+0200</time>
      </trkpt>
      <trkpt lat="45.05294" lon="6.47152">
        <ele>2564.6</ele>
        <time>2022-07-16T14:12:05+0200</time>
      </trkpt>
      <trkpt lat="45.0529" lon="6.47156">
        <ele>2565</ele>
        <time>2022-07-16T14:12:11+0200</time>
      </trkpt>
      <trkpt lat="45.05286" lon="6.47158">
        <ele>2565.1</ele>
        <time>2022-07-16T14:12:19+0200</time>
      </trkpt>
      <trkpt lat="45.05283" lon="6.47164">
        <ele>2565.8</ele>
        <time>2022-07-16T14:12:25+0200</time>
      </trkpt>
      <trkpt lat="45.05287" lon="6.47167">
        <ele>2566.6</ele>
        <time>2022-07-16T14:12:37+0200</time>
      </trkpt>
      <trkpt lat="45.05291" lon="6.47169">
        <ele>2566.9</ele>
        <time>2022-07-16T14:13:15+0200</time>
      </trkpt>
      <trkpt lat="45.05287" lon="6.47172">
        <ele>2566.6</ele>
        <time>2022-07-16T14:15:06+0200</time>
      </trkpt>
      <trkpt lat="45.05285" lon="6.47165">
        <ele>2566.2</ele>
        <time>2022-07-16T14:15:54+0200</time>
      </trkpt>
      <trkpt lat="45.05283" lon="6.47171">
        <ele>2566.3</ele>
        <time>2022-07-16T14:16:01+0200</time>
      </trkpt>
      <trkpt lat="45.05282" lon="6.47178">
        <ele>2566.2</ele>
        <time>2022-07-16T14:16:06+0200</time>
      </trkpt>
      <trkpt lat="45.05278" lon="6.47183">
        <ele>2566</ele>
        <time>2022-07-16T14:16:10+0200</time>
      </trkpt>
      <trkpt lat="45.05274" lon="6.47188">
        <ele>2566.4</ele>
        <time>2022-07-16T14:16:14+0200</time>
      </trkpt>
      <trkpt lat="45.05272" lon="6.47194">
        <ele>2566.9</ele>
        <time>2022-07-16T14:16:18+0200</time>
      </trkpt>
      <trkpt lat="45.05269" lon="6.472">
        <ele>2567.2</ele>
        <time>2022-07-16T14:16:22+0200</time>
      </trkpt>
      <trkpt lat="45.05266" lon="6.47206">
        <ele>2567.4</ele>
        <time>2022-07-16T14:16:26+0200</time>
      </trkpt>
      <trkpt lat="45.05263" lon="6.47212">
        <ele>2567.4</ele>
        <time>2022-07-16T14:16:31+0200</time>
      </trkpt>
      <trkpt lat="45.05259" lon="6.47214">
        <ele>2567.5</ele>
        <time>2022-07-16T14:16:35+0200</time>
      </trkpt>
      <trkpt lat="45.05254" lon="6.47215">
        <ele>2567.6</ele>
        <time>2022-07-16T14:16:38+0200</time>
      </trkpt>
      <trkpt lat="45.05249" lon="6.47216">
        <ele>2567.7</ele>
        <time>2022-07-16T14:16:41+0200</time>
      </trkpt>
      <trkpt lat="45.05244" lon="6.47217">
        <ele>2568</ele>
        <time>2022-07-16T14:16:46+0200</time>
      </trkpt>
      <trkpt lat="45.05239" lon="6.47218">
        <ele>2568.2</ele>
        <time>2022-07-16T14:16:49+0200</time>
      </trkpt>
      <trkpt lat="45.05233" lon="6.47221">
        <ele>2568.4</ele>
        <time>2022-07-16T14:16:53+0200</time>
      </trkpt>
      <trkpt lat="45.05229" lon="6.47223">
        <ele>2568.5</ele>
        <time>2022-07-16T14:16:56+0200</time>
      </trkpt>
      <trkpt lat="45.05225" lon="6.47228">
        <ele>2568.2</ele>
        <time>2022-07-16T14:17:00+0200</time>
      </trkpt>
      <trkpt lat="45.05221" lon="6.47233">
        <ele>2568</ele>
        <time>2022-07-16T14:17:03+0200</time>
      </trkpt>
      <trkpt lat="45.05219" lon="6.47238">
        <ele>2567.8</ele>
        <time>2022-07-16T14:17:07+0200</time>
      </trkpt>
      <trkpt lat="45.05213" lon="6.47241">
        <ele>2568.2</ele>
        <time>2022-07-16T14:17:11+0200</time>
      </trkpt>
      <trkpt lat="45.05208" lon="6.47243">
        <ele>2568.5</ele>
        <time>2022-07-16T14:17:14+0200</time>
      </trkpt>
      <trkpt lat="45.05204" lon="6.47247">
        <ele>2568.4</ele>
        <time>2022-07-16T14:17:18+0200</time>
      </trkpt>
      <trkpt lat="45.052" lon="6.47251">
        <ele>2568.4</ele>
        <time>2022-07-16T14:17:21+0200</time>
      </trkpt>
      <trkpt lat="45.05195" lon="6.47255">
        <ele>2568.8</ele>
        <time>2022-07-16T14:17:25+0200</time>
      </trkpt>
      <trkpt lat="45.05191" lon="6.47258">
        <ele>2569</ele>
        <time>2022-07-16T14:17:28+0200</time>
      </trkpt>
      <trkpt lat="45.05187" lon="6.47262">
        <ele>2569.1</ele>
        <time>2022-07-16T14:17:32+0200</time>
      </trkpt>
      <trkpt lat="45.05184" lon="6.47267">
        <ele>2568.9</ele>
        <time>2022-07-16T14:17:37+0200</time>
      </trkpt>
      <trkpt lat="45.0518" lon="6.47271">
        <ele>2568.6</ele>
        <time>2022-07-16T14:17:41+0200</time>
      </trkpt>
      <trkpt lat="45.05175" lon="6.47274">
        <ele>2568.4</ele>
        <time>2022-07-16T14:17:45+0200</time>
      </trkpt>
      <trkpt lat="45.05171" lon="6.47278">
        <ele>2568</ele>
        <time>2022-07-16T14:17:49+0200</time>
      </trkpt>
      <trkpt lat="45.05164" lon="6.47282">
        <ele>2567.1</ele>
        <time>2022-07-16T14:17:52+0200</time>
      </trkpt>
      <trkpt lat="45.05161" lon="6.47293">
        <ele>2566.2</ele>
        <time>2022-07-16T14:17:54+0200</time>
      </trkpt>
      <trkpt lat="45.05158" lon="6.47305">
        <ele>2565.3</ele>
        <time>2022-07-16T14:17:56+0200</time>
      </trkpt>
      <trkpt lat="45.05158" lon="6.47312">
        <ele>2565.2</ele>
        <time>2022-07-16T14:17:57+0200</time>
      </trkpt>
      <trkpt lat="45.05159" lon="6.47321">
        <ele>2565.7</ele>
        <time>2022-07-16T14:17:58+0200</time>
      </trkpt>
      <trkpt lat="45.05158" lon="6.47327">
        <ele>2565.6</ele>
        <time>2022-07-16T14:17:59+0200</time>
      </trkpt>
      <trkpt lat="45.05154" lon="6.47332">
        <ele>2565.2</ele>
        <time>2022-07-16T14:18:00+0200</time>
      </trkpt>
      <trkpt lat="45.05149" lon="6.47342">
        <ele>2564</ele>
        <time>2022-07-16T14:18:02+0200</time>
      </trkpt>
      <trkpt lat="45.05145" lon="6.4735">
        <ele>2562.8</ele>
        <time>2022-07-16T14:18:03+0200</time>
      </trkpt>
      <trkpt lat="45.05145" lon="6.47358">
        <ele>2562.3</ele>
        <time>2022-07-16T14:18:04+0200</time>
      </trkpt>
      <trkpt lat="45.05143" lon="6.47365">
        <ele>2562.1</ele>
        <time>2022-07-16T14:18:05+0200</time>
      </trkpt>
      <trkpt lat="45.0514" lon="6.47372">
        <ele>2562.2</ele>
        <time>2022-07-16T14:18:06+0200</time>
      </trkpt>
      <trkpt lat="45.05137" lon="6.47377">
        <ele>2562</ele>
        <time>2022-07-16T14:18:07+0200</time>
      </trkpt>
      <trkpt lat="45.05133" lon="6.47382">
        <ele>2562.1</ele>
        <time>2022-07-16T14:18:08+0200</time>
      </trkpt>
      <trkpt lat="45.05129" lon="6.47387">
        <ele>2562.3</ele>
        <time>2022-07-16T14:18:09+0200</time>
      </trkpt>
      <trkpt lat="45.05125" lon="6.47391">
        <ele>2562.6</ele>
        <time>2022-07-16T14:18:10+0200</time>
      </trkpt>
      <trkpt lat="45.05116" lon="6.4739">
        <ele>2560.8</ele>
        <time>2022-07-16T14:18:12+0200</time>
      </trkpt>
      <trkpt lat="45.05111" lon="6.47389">
        <ele>2560.1</ele>
        <time>2022-07-16T14:18:13+0200</time>
      </trkpt>
      <trkpt lat="45.05104" lon="6.47391">
        <ele>2560</ele>
        <time>2022-07-16T14:18:15+0200</time>
      </trkpt>
      <trkpt lat="45.05101" lon="6.47395">
        <ele>2560.3</ele>
        <time>2022-07-16T14:18:18+0200</time>
      </trkpt>
      <trkpt lat="45.05096" lon="6.474">
        <ele>2560.4</ele>
        <time>2022-07-16T14:18:21+0200</time>
      </trkpt>
      <trkpt lat="45.05088" lon="6.47401">
        <ele>2559.8</ele>
        <time>2022-07-16T14:18:23+0200</time>
      </trkpt>
      <trkpt lat="45.05084" lon="6.47405">
        <ele>2559.7</ele>
        <time>2022-07-16T14:18:24+0200</time>
      </trkpt>
      <trkpt lat="45.05077" lon="6.47412">
        <ele>2558.6</ele>
        <time>2022-07-16T14:18:26+0200</time>
      </trkpt>
      <trkpt lat="45.05073" lon="6.47416">
        <ele>2558.4</ele>
        <time>2022-07-16T14:18:27+0200</time>
      </trkpt>
      <trkpt lat="45.05069" lon="6.47422">
        <ele>2558.3</ele>
        <time>2022-07-16T14:18:28+0200</time>
      </trkpt>
      <trkpt lat="45.05064" lon="6.47427">
        <ele>2558.3</ele>
        <time>2022-07-16T14:18:29+0200</time>
      </trkpt>
      <trkpt lat="45.0506" lon="6.47431">
        <ele>2558.4</ele>
        <time>2022-07-16T14:18:30+0200</time>
      </trkpt>
      <trkpt lat="45.05055" lon="6.47438">
        <ele>2559</ele>
        <time>2022-07-16T14:18:32+0200</time>
      </trkpt>
      <trkpt lat="45.05052" lon="6.47446">
        <ele>2559.2</ele>
        <time>2022-07-16T14:18:36+0200</time>
      </trkpt>
      <trkpt lat="45.05049" lon="6.47453">
        <ele>2559.4</ele>
        <time>2022-07-16T14:18:42+0200</time>
      </trkpt>
      <trkpt lat="45.05045" lon="6.47458">
        <ele>2559.3</ele>
        <time>2022-07-16T14:18:47+0200</time>
      </trkpt>
      <trkpt lat="45.0504" lon="6.47464">
        <ele>2559</ele>
        <time>2022-07-16T14:18:50+0200</time>
      </trkpt>
      <trkpt lat="45.05038" lon="6.47469">
        <ele>2559.4</ele>
        <time>2022-07-16T14:18:52+0200</time>
      </trkpt>
      <trkpt lat="45.05036" lon="6.47475">
        <ele>2559.7</ele>
        <time>2022-07-16T14:18:54+0200</time>
      </trkpt>
      <trkpt lat="45.05034" lon="6.47481">
        <ele>2559.8</ele>
        <time>2022-07-16T14:18:57+0200</time>
      </trkpt>
      <trkpt lat="45.05032" lon="6.4749">
        <ele>2559.9</ele>
        <time>2022-07-16T14:19:00+0200</time>
      </trkpt>
      <trkpt lat="45.0503" lon="6.47495">
        <ele>2560</ele>
        <time>2022-07-16T14:19:01+0200</time>
      </trkpt>
      <trkpt lat="45.05024" lon="6.47504">
        <ele>2559.2</ele>
        <time>2022-07-16T14:19:03+0200</time>
      </trkpt>
      <trkpt lat="45.05021" lon="6.47511">
        <ele>2559.2</ele>
        <time>2022-07-16T14:19:04+0200</time>
      </trkpt>
      <trkpt lat="45.05019" lon="6.47518">
        <ele>2559.6</ele>
        <time>2022-07-16T14:19:05+0200</time>
      </trkpt>
      <trkpt lat="45.05011" lon="6.47526">
        <ele>2558.2</ele>
        <time>2022-07-16T14:19:07+0200</time>
      </trkpt>
      <trkpt lat="45.05006" lon="6.47531">
        <ele>2557.2</ele>
        <time>2022-07-16T14:19:08+0200</time>
      </trkpt>
      <trkpt lat="45.05001" lon="6.47535">
        <ele>2556.3</ele>
        <time>2022-07-16T14:19:09+0200</time>
      </trkpt>
      <trkpt lat="45.04996" lon="6.47538">
        <ele>2555.7</ele>
        <time>2022-07-16T14:19:10+0200</time>
      </trkpt>
      <trkpt lat="45.0499" lon="6.47539">
        <ele>2554.8</ele>
        <time>2022-07-16T14:19:11+0200</time>
      </trkpt>
      <trkpt lat="45.04986" lon="6.47541">
        <ele>2554.1</ele>
        <time>2022-07-16T14:19:12+0200</time>
      </trkpt>
      <trkpt lat="45.0498" lon="6.47546">
        <ele>2553.1</ele>
        <time>2022-07-16T14:19:14+0200</time>
      </trkpt>
      <trkpt lat="45.04975" lon="6.47552">
        <ele>2552</ele>
        <time>2022-07-16T14:19:17+0200</time>
      </trkpt>
      <trkpt lat="45.04969" lon="6.47553">
        <ele>2550.1</ele>
        <time>2022-07-16T14:19:20+0200</time>
      </trkpt>
      <trkpt lat="45.04961" lon="6.47559">
        <ele>2548.2</ele>
        <time>2022-07-16T14:19:22+0200</time>
      </trkpt>
      <trkpt lat="45.04957" lon="6.47561">
        <ele>2546.9</ele>
        <time>2022-07-16T14:19:23+0200</time>
      </trkpt>
      <trkpt lat="45.04952" lon="6.47562">
        <ele>2545.6</ele>
        <time>2022-07-16T14:19:24+0200</time>
      </trkpt>
      <trkpt lat="45.04946" lon="6.47567">
        <ele>2544</ele>
        <time>2022-07-16T14:19:26+0200</time>
      </trkpt>
      <trkpt lat="45.0494" lon="6.47573">
        <ele>2542</ele>
        <time>2022-07-16T14:19:28+0200</time>
      </trkpt>
      <trkpt lat="45.04935" lon="6.47576">
        <ele>2540.4</ele>
        <time>2022-07-16T14:19:30+0200</time>
      </trkpt>
      <trkpt lat="45.04928" lon="6.4758">
        <ele>2538.6</ele>
        <time>2022-07-16T14:19:32+0200</time>
      </trkpt>
      <trkpt lat="45.04925" lon="6.47585">
        <ele>2538.2</ele>
        <time>2022-07-16T14:19:33+0200</time>
      </trkpt>
      <trkpt lat="45.04923" lon="6.47591">
        <ele>2538.1</ele>
        <time>2022-07-16T14:19:34+0200</time>
      </trkpt>
      <trkpt lat="45.04916" lon="6.47591">
        <ele>2536.7</ele>
        <time>2022-07-16T14:19:36+0200</time>
      </trkpt>
      <trkpt lat="45.0491" lon="6.47594">
        <ele>2535.1</ele>
        <time>2022-07-16T14:19:39+0200</time>
      </trkpt>
      <trkpt lat="45.04905" lon="6.47597">
        <ele>2534.2</ele>
        <time>2022-07-16T14:19:41+0200</time>
      </trkpt>
      <trkpt lat="45.04899" lon="6.47601">
        <ele>2533.4</ele>
        <time>2022-07-16T14:19:42+0200</time>
      </trkpt>
      <trkpt lat="45.04893" lon="6.47604">
        <ele>2532.4</ele>
        <time>2022-07-16T14:19:44+0200</time>
      </trkpt>
      <trkpt lat="45.04887" lon="6.4761">
        <ele>2532.2</ele>
        <time>2022-07-16T14:19:47+0200</time>
      </trkpt>
      <trkpt lat="45.04881" lon="6.47614">
        <ele>2531.4</ele>
        <time>2022-07-16T14:19:49+0200</time>
      </trkpt>
      <trkpt lat="45.04874" lon="6.47616">
        <ele>2530.3</ele>
        <time>2022-07-16T14:19:51+0200</time>
      </trkpt>
      <trkpt lat="45.04867" lon="6.47618">
        <ele>2529.2</ele>
        <time>2022-07-16T14:19:55+0200</time>
      </trkpt>
      <trkpt lat="45.04858" lon="6.47617">
        <ele>2527.7</ele>
        <time>2022-07-16T14:19:57+0200</time>
      </trkpt>
      <trkpt lat="45.04851" lon="6.47618">
        <ele>2527.8</ele>
        <time>2022-07-16T14:19:58+0200</time>
      </trkpt>
      <trkpt lat="45.04846" lon="6.47616">
        <ele>2527.1</ele>
        <time>2022-07-16T14:19:59+0200</time>
      </trkpt>
      <trkpt lat="45.0484" lon="6.47614">
        <ele>2526</ele>
        <time>2022-07-16T14:20:00+0200</time>
      </trkpt>
      <trkpt lat="45.04834" lon="6.47613">
        <ele>2525.5</ele>
        <time>2022-07-16T14:20:01+0200</time>
      </trkpt>
      <trkpt lat="45.04827" lon="6.47613">
        <ele>2525.5</ele>
        <time>2022-07-16T14:20:02+0200</time>
      </trkpt>
      <trkpt lat="45.04822" lon="6.47612">
        <ele>2525.2</ele>
        <time>2022-07-16T14:20:03+0200</time>
      </trkpt>
      <trkpt lat="45.04816" lon="6.47612">
        <ele>2525.2</ele>
        <time>2022-07-16T14:20:05+0200</time>
      </trkpt>
      <trkpt lat="45.0481" lon="6.47614">
        <ele>2525.5</ele>
        <time>2022-07-16T14:20:07+0200</time>
      </trkpt>
      <trkpt lat="45.04805" lon="6.47619">
        <ele>2526.3</ele>
        <time>2022-07-16T14:20:10+0200</time>
      </trkpt>
      <trkpt lat="45.04801" lon="6.47622">
        <ele>2526.7</ele>
        <time>2022-07-16T14:20:12+0200</time>
      </trkpt>
      <trkpt lat="45.04795" lon="6.47628">
        <ele>2527.1</ele>
        <time>2022-07-16T14:20:14+0200</time>
      </trkpt>
      <trkpt lat="45.04791" lon="6.4763">
        <ele>2526.9</ele>
        <time>2022-07-16T14:20:15+0200</time>
      </trkpt>
      <trkpt lat="45.04782" lon="6.47629">
        <ele>2526</ele>
        <time>2022-07-16T14:20:17+0200</time>
      </trkpt>
      <trkpt lat="45.04777" lon="6.47629">
        <ele>2525.6</ele>
        <time>2022-07-16T14:20:18+0200</time>
      </trkpt>
      <trkpt lat="45.04769" lon="6.47631">
        <ele>2524.9</ele>
        <time>2022-07-16T14:20:20+0200</time>
      </trkpt>
      <trkpt lat="45.04764" lon="6.47632">
        <ele>2524.4</ele>
        <time>2022-07-16T14:20:21+0200</time>
      </trkpt>
      <trkpt lat="45.04758" lon="6.47633">
        <ele>2523.8</ele>
        <time>2022-07-16T14:20:22+0200</time>
      </trkpt>
      <trkpt lat="45.04752" lon="6.47636">
        <ele>2523.2</ele>
        <time>2022-07-16T14:20:23+0200</time>
      </trkpt>
      <trkpt lat="45.04747" lon="6.47638">
        <ele>2522.6</ele>
        <time>2022-07-16T14:20:24+0200</time>
      </trkpt>
      <trkpt lat="45.04742" lon="6.47642">
        <ele>2522.5</ele>
        <time>2022-07-16T14:20:25+0200</time>
      </trkpt>
      <trkpt lat="45.04737" lon="6.47644">
        <ele>2522.1</ele>
        <time>2022-07-16T14:20:26+0200</time>
      </trkpt>
      <trkpt lat="45.04732" lon="6.47645">
        <ele>2521.4</ele>
        <time>2022-07-16T14:20:27+0200</time>
      </trkpt>
      <trkpt lat="45.04726" lon="6.47648">
        <ele>2520.8</ele>
        <time>2022-07-16T14:20:28+0200</time>
      </trkpt>
      <trkpt lat="45.04721" lon="6.4765">
        <ele>2519.9</ele>
        <time>2022-07-16T14:20:29+0200</time>
      </trkpt>
      <trkpt lat="45.04712" lon="6.47651">
        <ele>2517.4</ele>
        <time>2022-07-16T14:20:31+0200</time>
      </trkpt>
      <trkpt lat="45.04706" lon="6.47657">
        <ele>2516.4</ele>
        <time>2022-07-16T14:20:33+0200</time>
      </trkpt>
      <trkpt lat="45.04701" lon="6.47662">
        <ele>2515.7</ele>
        <time>2022-07-16T14:20:35+0200</time>
      </trkpt>
      <trkpt lat="45.04696" lon="6.47664">
        <ele>2514.9</ele>
        <time>2022-07-16T14:20:38+0200</time>
      </trkpt>
      <trkpt lat="45.0469" lon="6.47669">
        <ele>2513.5</ele>
        <time>2022-07-16T14:20:41+0200</time>
      </trkpt>
      <trkpt lat="45.04687" lon="6.47675">
        <ele>2513.6</ele>
        <time>2022-07-16T14:20:43+0200</time>
      </trkpt>
      <trkpt lat="45.04683" lon="6.47682">
        <ele>2513.8</ele>
        <time>2022-07-16T14:20:45+0200</time>
      </trkpt>
      <trkpt lat="45.04677" lon="6.47689">
        <ele>2513.7</ele>
        <time>2022-07-16T14:20:47+0200</time>
      </trkpt>
      <trkpt lat="45.04672" lon="6.4769">
        <ele>2512</ele>
        <time>2022-07-16T14:20:49+0200</time>
      </trkpt>
      <trkpt lat="45.04667" lon="6.47689">
        <ele>2510.1</ele>
        <time>2022-07-16T14:20:51+0200</time>
      </trkpt>
      <trkpt lat="45.04662" lon="6.47692">
        <ele>2509.3</ele>
        <time>2022-07-16T14:20:53+0200</time>
      </trkpt>
      <trkpt lat="45.04657" lon="6.47693">
        <ele>2507.6</ele>
        <time>2022-07-16T14:20:55+0200</time>
      </trkpt>
      <trkpt lat="45.04651" lon="6.47694">
        <ele>2506</ele>
        <time>2022-07-16T14:21:01+0200</time>
      </trkpt>
      <trkpt lat="45.04646" lon="6.47697">
        <ele>2505.4</ele>
        <time>2022-07-16T14:21:20+0200</time>
      </trkpt>
      <trkpt lat="45.04641" lon="6.477">
        <ele>2504.4</ele>
        <time>2022-07-16T14:21:23+0200</time>
      </trkpt>
      <trkpt lat="45.04636" lon="6.47701">
        <ele>2503.3</ele>
        <time>2022-07-16T14:21:26+0200</time>
      </trkpt>
      <trkpt lat="45.0463" lon="6.47704">
        <ele>2502.4</ele>
        <time>2022-07-16T14:21:29+0200</time>
      </trkpt>
      <trkpt lat="45.04625" lon="6.47705">
        <ele>2501.7</ele>
        <time>2022-07-16T14:21:30+0200</time>
      </trkpt>
      <trkpt lat="45.04618" lon="6.47709">
        <ele>2501.2</ele>
        <time>2022-07-16T14:21:32+0200</time>
      </trkpt>
      <trkpt lat="45.04615" lon="6.47712">
        <ele>2501.6</ele>
        <time>2022-07-16T14:21:33+0200</time>
      </trkpt>
      <trkpt lat="45.04609" lon="6.47713">
        <ele>2500.8</ele>
        <time>2022-07-16T14:21:35+0200</time>
      </trkpt>
      <trkpt lat="45.04604" lon="6.47717">
        <ele>2501.5</ele>
        <time>2022-07-16T14:21:45+0200</time>
      </trkpt>
      <trkpt lat="45.04598" lon="6.47718">
        <ele>2501.2</ele>
        <time>2022-07-16T14:21:49+0200</time>
      </trkpt>
      <trkpt lat="45.04592" lon="6.47718">
        <ele>2500.3</ele>
        <time>2022-07-16T14:21:51+0200</time>
      </trkpt>
      <trkpt lat="45.04587" lon="6.47718">
        <ele>2499.3</ele>
        <time>2022-07-16T14:21:54+0200</time>
      </trkpt>
      <trkpt lat="45.04582" lon="6.4772">
        <ele>2499.7</ele>
        <time>2022-07-16T14:21:56+0200</time>
      </trkpt>
      <trkpt lat="45.04576" lon="6.47725">
        <ele>2499.8</ele>
        <time>2022-07-16T14:21:58+0200</time>
      </trkpt>
      <trkpt lat="45.04567" lon="6.47731">
        <ele>2499.2</ele>
        <time>2022-07-16T14:22:00+0200</time>
      </trkpt>
      <trkpt lat="45.04563" lon="6.47734">
        <ele>2499.1</ele>
        <time>2022-07-16T14:22:01+0200</time>
      </trkpt>
      <trkpt lat="45.04558" lon="6.47736">
        <ele>2499</ele>
        <time>2022-07-16T14:22:02+0200</time>
      </trkpt>
      <trkpt lat="45.04553" lon="6.47743">
        <ele>2500.1</ele>
        <time>2022-07-16T14:22:04+0200</time>
      </trkpt>
      <trkpt lat="45.04548" lon="6.47745">
        <ele>2499.9</ele>
        <time>2022-07-16T14:22:07+0200</time>
      </trkpt>
      <trkpt lat="45.04544" lon="6.47745">
        <ele>2499.1</ele>
        <time>2022-07-16T14:22:12+0200</time>
      </trkpt>
      <trkpt lat="45.04539" lon="6.47751">
        <ele>2500.1</ele>
        <time>2022-07-16T14:22:15+0200</time>
      </trkpt>
      <trkpt lat="45.04533" lon="6.4775">
        <ele>2498.8</ele>
        <time>2022-07-16T14:22:25+0200</time>
      </trkpt>
      <trkpt lat="45.04528" lon="6.4775">
        <ele>2497.9</ele>
        <time>2022-07-16T14:22:31+0200</time>
      </trkpt>
      <trkpt lat="45.04523" lon="6.47751">
        <ele>2496.3</ele>
        <time>2022-07-16T14:22:34+0200</time>
      </trkpt>
      <trkpt lat="45.04516" lon="6.47753">
        <ele>2494.2</ele>
        <time>2022-07-16T14:22:37+0200</time>
      </trkpt>
      <trkpt lat="45.04511" lon="6.47755">
        <ele>2493.1</ele>
        <time>2022-07-16T14:22:39+0200</time>
      </trkpt>
      <trkpt lat="45.04504" lon="6.47759">
        <ele>2491.5</ele>
        <time>2022-07-16T14:22:42+0200</time>
      </trkpt>
      <trkpt lat="45.04499" lon="6.47761">
        <ele>2490.6</ele>
        <time>2022-07-16T14:22:44+0200</time>
      </trkpt>
      <trkpt lat="45.04492" lon="6.47762">
        <ele>2488.5</ele>
        <time>2022-07-16T14:22:46+0200</time>
      </trkpt>
      <trkpt lat="45.04487" lon="6.47767">
        <ele>2488.3</ele>
        <time>2022-07-16T14:22:48+0200</time>
      </trkpt>
      <trkpt lat="45.04482" lon="6.4777">
        <ele>2487.1</ele>
        <time>2022-07-16T14:22:53+0200</time>
      </trkpt>
      <trkpt lat="45.04477" lon="6.47768">
        <ele>2485</ele>
        <time>2022-07-16T14:22:55+0200</time>
      </trkpt>
      <trkpt lat="45.04469" lon="6.47771">
        <ele>2483.3</ele>
        <time>2022-07-16T14:22:58+0200</time>
      </trkpt>
      <trkpt lat="45.04465" lon="6.47775">
        <ele>2483</ele>
        <time>2022-07-16T14:22:59+0200</time>
      </trkpt>
      <trkpt lat="45.04457" lon="6.4778">
        <ele>2482</ele>
        <time>2022-07-16T14:23:01+0200</time>
      </trkpt>
      <trkpt lat="45.04453" lon="6.47783">
        <ele>2481.4</ele>
        <time>2022-07-16T14:23:03+0200</time>
      </trkpt>
      <trkpt lat="45.04447" lon="6.47785">
        <ele>2479.8</ele>
        <time>2022-07-16T14:23:06+0200</time>
      </trkpt>
      <trkpt lat="45.0444" lon="6.47791">
        <ele>2478.9</ele>
        <time>2022-07-16T14:23:08+0200</time>
      </trkpt>
      <trkpt lat="45.04435" lon="6.47799">
        <ele>2478.8</ele>
        <time>2022-07-16T14:23:10+0200</time>
      </trkpt>
      <trkpt lat="45.04431" lon="6.47804">
        <ele>2478.3</ele>
        <time>2022-07-16T14:23:12+0200</time>
      </trkpt>
      <trkpt lat="45.04423" lon="6.4781">
        <ele>2477.3</ele>
        <time>2022-07-16T14:23:14+0200</time>
      </trkpt>
      <trkpt lat="45.04416" lon="6.47807">
        <ele>2475.2</ele>
        <time>2022-07-16T14:23:16+0200</time>
      </trkpt>
      <trkpt lat="45.04406" lon="6.47807">
        <ele>2473.6</ele>
        <time>2022-07-16T14:23:18+0200</time>
      </trkpt>
      <trkpt lat="45.04401" lon="6.4781">
        <ele>2473.2</ele>
        <time>2022-07-16T14:23:19+0200</time>
      </trkpt>
      <trkpt lat="45.04396" lon="6.47814">
        <ele>2472.9</ele>
        <time>2022-07-16T14:23:20+0200</time>
      </trkpt>
      <trkpt lat="45.0439" lon="6.47817">
        <ele>2472.4</ele>
        <time>2022-07-16T14:23:21+0200</time>
      </trkpt>
      <trkpt lat="45.04384" lon="6.47821">
        <ele>2472</ele>
        <time>2022-07-16T14:23:22+0200</time>
      </trkpt>
      <trkpt lat="45.04379" lon="6.47827">
        <ele>2471.9</ele>
        <time>2022-07-16T14:23:23+0200</time>
      </trkpt>
      <trkpt lat="45.04373" lon="6.47834">
        <ele>2471.8</ele>
        <time>2022-07-16T14:23:24+0200</time>
      </trkpt>
      <trkpt lat="45.04367" lon="6.47839">
        <ele>2471.1</ele>
        <time>2022-07-16T14:23:25+0200</time>
      </trkpt>
      <trkpt lat="45.04361" lon="6.47843">
        <ele>2470.3</ele>
        <time>2022-07-16T14:23:26+0200</time>
      </trkpt>
      <trkpt lat="45.04354" lon="6.47848">
        <ele>2469.9</ele>
        <time>2022-07-16T14:23:27+0200</time>
      </trkpt>
      <trkpt lat="45.04346" lon="6.4785">
        <ele>2469.3</ele>
        <time>2022-07-16T14:23:28+0200</time>
      </trkpt>
      <trkpt lat="45.04336" lon="6.47853">
        <ele>2468.7</ele>
        <time>2022-07-16T14:23:29+0200</time>
      </trkpt>
      <trkpt lat="45.0433" lon="6.47861">
        <ele>2468.4</ele>
        <time>2022-07-16T14:23:30+0200</time>
      </trkpt>
      <trkpt lat="45.04322" lon="6.47865">
        <ele>2467.3</ele>
        <time>2022-07-16T14:23:31+0200</time>
      </trkpt>
      <trkpt lat="45.04314" lon="6.47869">
        <ele>2466.5</ele>
        <time>2022-07-16T14:23:32+0200</time>
      </trkpt>
      <trkpt lat="45.04308" lon="6.47874">
        <ele>2466.1</ele>
        <time>2022-07-16T14:23:33+0200</time>
      </trkpt>
      <trkpt lat="45.04305" lon="6.47879">
        <ele>2466.3</ele>
        <time>2022-07-16T14:23:34+0200</time>
      </trkpt>
      <trkpt lat="45.04301" lon="6.47883">
        <ele>2466.3</ele>
        <time>2022-07-16T14:23:35+0200</time>
      </trkpt>
      <trkpt lat="45.04297" lon="6.47885">
        <ele>2466.2</ele>
        <time>2022-07-16T14:23:36+0200</time>
      </trkpt>
      <trkpt lat="45.0429" lon="6.47882">
        <ele>2465.5</ele>
        <time>2022-07-16T14:23:37+0200</time>
      </trkpt>
      <trkpt lat="45.04283" lon="6.47883">
        <ele>2465.2</ele>
        <time>2022-07-16T14:23:38+0200</time>
      </trkpt>
      <trkpt lat="45.04278" lon="6.47885">
        <ele>2465.4</ele>
        <time>2022-07-16T14:23:39+0200</time>
      </trkpt>
      <trkpt lat="45.04272" lon="6.47885">
        <ele>2464.6</ele>
        <time>2022-07-16T14:23:41+0200</time>
      </trkpt>
      <trkpt lat="45.04268" lon="6.47885">
        <ele>2464</ele>
        <time>2022-07-16T14:23:42+0200</time>
      </trkpt>
      <trkpt lat="45.04261" lon="6.47887">
        <ele>2463.3</ele>
        <time>2022-07-16T14:23:43+0200</time>
      </trkpt>
      <trkpt lat="45.04253" lon="6.47887">
        <ele>2462.2</ele>
        <time>2022-07-16T14:23:44+0200</time>
      </trkpt>
      <trkpt lat="45.04242" lon="6.47882">
        <ele>2460.8</ele>
        <time>2022-07-16T14:23:45+0200</time>
      </trkpt>
      <trkpt lat="45.04234" lon="6.47873">
        <ele>2459.8</ele>
        <time>2022-07-16T14:23:46+0200</time>
      </trkpt>
      <trkpt lat="45.04225" lon="6.47867">
        <ele>2459.2</ele>
        <time>2022-07-16T14:23:47+0200</time>
      </trkpt>
      <trkpt lat="45.04216" lon="6.47865">
        <ele>2458.5</ele>
        <time>2022-07-16T14:23:48+0200</time>
      </trkpt>
      <trkpt lat="45.04206" lon="6.47866">
        <ele>2457.8</ele>
        <time>2022-07-16T14:23:49+0200</time>
      </trkpt>
      <trkpt lat="45.04198" lon="6.47866">
        <ele>2457.1</ele>
        <time>2022-07-16T14:23:50+0200</time>
      </trkpt>
      <trkpt lat="45.0419" lon="6.47864">
        <ele>2456.7</ele>
        <time>2022-07-16T14:23:51+0200</time>
      </trkpt>
      <trkpt lat="45.04181" lon="6.47863">
        <ele>2456.5</ele>
        <time>2022-07-16T14:23:52+0200</time>
      </trkpt>
      <trkpt lat="45.04173" lon="6.47861">
        <ele>2456.2</ele>
        <time>2022-07-16T14:23:53+0200</time>
      </trkpt>
      <trkpt lat="45.04165" lon="6.4786">
        <ele>2455.8</ele>
        <time>2022-07-16T14:23:53+0200</time>
      </trkpt>
      <trkpt lat="45.04155" lon="6.47857">
        <ele>2455.7</ele>
        <time>2022-07-16T14:23:54+0200</time>
      </trkpt>
      <trkpt lat="45.04146" lon="6.47855">
        <ele>2455.6</ele>
        <time>2022-07-16T14:23:55+0200</time>
      </trkpt>
      <trkpt lat="45.04138" lon="6.47854">
        <ele>2455.8</ele>
        <time>2022-07-16T14:23:56+0200</time>
      </trkpt>
      <trkpt lat="45.0413" lon="6.47854">
        <ele>2456.5</ele>
        <time>2022-07-16T14:23:57+0200</time>
      </trkpt>
      <trkpt lat="45.04123" lon="6.4785">
        <ele>2457.2</ele>
        <time>2022-07-16T14:23:58+0200</time>
      </trkpt>
      <trkpt lat="45.04118" lon="6.4785">
        <ele>2457.7</ele>
        <time>2022-07-16T14:23:59+0200</time>
      </trkpt>
      <trkpt lat="45.04114" lon="6.4785">
        <ele>2458.1</ele>
        <time>2022-07-16T14:24:00+0200</time>
      </trkpt>
      <trkpt lat="45.04107" lon="6.47853">
        <ele>2458.9</ele>
        <time>2022-07-16T14:24:02+0200</time>
      </trkpt>
      <trkpt lat="45.0411" lon="6.47858">
        <ele>2458.3</ele>
        <time>2022-07-16T14:24:08+0200</time>
      </trkpt>
      <trkpt lat="45.04116" lon="6.47856">
        <ele>2457.8</ele>
        <time>2022-07-16T14:24:13+0200</time>
      </trkpt>
      <trkpt lat="45.04122" lon="6.47857">
        <ele>2457.3</ele>
        <time>2022-07-16T14:24:32+0200</time>
      </trkpt>
      <trkpt lat="45.04127" lon="6.47857">
        <ele>2456.9</ele>
        <time>2022-07-16T14:24:59+0200</time>
      </trkpt>
      <trkpt lat="45.04121" lon="6.47857">
        <ele>2457.3</ele>
        <time>2022-07-16T14:25:32+0200</time>
      </trkpt>
      <trkpt lat="45.04117" lon="6.47855">
        <ele>2457.7</ele>
        <time>2022-07-16T14:25:45+0200</time>
      </trkpt>
      <trkpt lat="45.04112" lon="6.47856">
        <ele>2458.1</ele>
        <time>2022-07-16T14:25:51+0200</time>
      </trkpt>
      <trkpt lat="45.04107" lon="6.47856">
        <ele>2458.7</ele>
        <time>2022-07-16T14:26:42+0200</time>
      </trkpt>
      <trkpt lat="45.04103" lon="6.47859">
        <ele>2459.2</ele>
        <time>2022-07-16T14:26:47+0200</time>
      </trkpt>
      <trkpt lat="45.041" lon="6.47863">
        <ele>2459.5</ele>
        <time>2022-07-16T14:26:50+0200</time>
      </trkpt>
      <trkpt lat="45.04094" lon="6.47865">
        <ele>2460.2</ele>
        <time>2022-07-16T14:26:54+0200</time>
      </trkpt>
      <trkpt lat="45.04089" lon="6.47867">
        <ele>2460.6</ele>
        <time>2022-07-16T14:26:58+0200</time>
      </trkpt>
      <trkpt lat="45.04084" lon="6.47869">
        <ele>2461</ele>
        <time>2022-07-16T14:27:02+0200</time>
      </trkpt>
      <trkpt lat="45.0408" lon="6.47873">
        <ele>2460.9</ele>
        <time>2022-07-16T14:27:07+0200</time>
      </trkpt>
      <trkpt lat="45.04075" lon="6.47874">
        <ele>2460.9</ele>
        <time>2022-07-16T14:27:12+0200</time>
      </trkpt>
      <trkpt lat="45.04071" lon="6.47872">
        <ele>2461.2</ele>
        <time>2022-07-16T14:27:16+0200</time>
      </trkpt>
      <trkpt lat="45.04066" lon="6.47868">
        <ele>2461.6</ele>
        <time>2022-07-16T14:27:22+0200</time>
      </trkpt>
      <trkpt lat="45.04061" lon="6.47863">
        <ele>2461.9</ele>
        <time>2022-07-16T14:27:40+0200</time>
      </trkpt>
      <trkpt lat="45.04056" lon="6.47863">
        <ele>2461.9</ele>
        <time>2022-07-16T14:27:44+0200</time>
      </trkpt>
      <trkpt lat="45.04052" lon="6.47867">
        <ele>2460.2</ele>
        <time>2022-07-16T14:27:49+0200</time>
      </trkpt>
      <trkpt lat="45.04049" lon="6.47862">
        <ele>2459</ele>
        <time>2022-07-16T14:27:55+0200</time>
      </trkpt>
      <trkpt lat="45.04046" lon="6.47855">
        <ele>2457.8</ele>
        <time>2022-07-16T14:27:58+0200</time>
      </trkpt>
      <trkpt lat="45.04042" lon="6.47851">
        <ele>2455.5</ele>
        <time>2022-07-16T14:28:01+0200</time>
      </trkpt>
      <trkpt lat="45.04038" lon="6.47856">
        <ele>2454.3</ele>
        <time>2022-07-16T14:28:03+0200</time>
      </trkpt>
      <trkpt lat="45.04034" lon="6.4786">
        <ele>2452.6</ele>
        <time>2022-07-16T14:28:05+0200</time>
      </trkpt>
      <trkpt lat="45.04029" lon="6.4785">
        <ele>2450.2</ele>
        <time>2022-07-16T14:28:07+0200</time>
      </trkpt>
      <trkpt lat="45.04028" lon="6.47842">
        <ele>2449.5</ele>
        <time>2022-07-16T14:28:08+0200</time>
      </trkpt>
      <trkpt lat="45.04028" lon="6.47833">
        <ele>2449.1</ele>
        <time>2022-07-16T14:28:09+0200</time>
      </trkpt>
      <trkpt lat="45.04025" lon="6.47824">
        <ele>2448.5</ele>
        <time>2022-07-16T14:28:10+0200</time>
      </trkpt>
      <trkpt lat="45.0402" lon="6.47817">
        <ele>2448</ele>
        <time>2022-07-16T14:28:11+0200</time>
      </trkpt>
      <trkpt lat="45.04015" lon="6.47813">
        <ele>2447.3</ele>
        <time>2022-07-16T14:28:12+0200</time>
      </trkpt>
      <trkpt lat="45.04011" lon="6.47808">
        <ele>2447</ele>
        <time>2022-07-16T14:28:13+0200</time>
      </trkpt>
      <trkpt lat="45.04002" lon="6.47804">
        <ele>2446.2</ele>
        <time>2022-07-16T14:28:15+0200</time>
      </trkpt>
      <trkpt lat="45.03998" lon="6.47803">
        <ele>2445.7</ele>
        <time>2022-07-16T14:28:16+0200</time>
      </trkpt>
      <trkpt lat="45.03991" lon="6.47797">
        <ele>2445</ele>
        <time>2022-07-16T14:28:18+0200</time>
      </trkpt>
      <trkpt lat="45.03986" lon="6.47795">
        <ele>2444.4</ele>
        <time>2022-07-16T14:28:20+0200</time>
      </trkpt>
      <trkpt lat="45.0398" lon="6.47789">
        <ele>2443.5</ele>
        <time>2022-07-16T14:28:22+0200</time>
      </trkpt>
      <trkpt lat="45.03978" lon="6.47781">
        <ele>2442.8</ele>
        <time>2022-07-16T14:28:24+0200</time>
      </trkpt>
      <trkpt lat="45.03973" lon="6.47773">
        <ele>2440.5</ele>
        <time>2022-07-16T14:28:27+0200</time>
      </trkpt>
      <trkpt lat="45.03965" lon="6.47773">
        <ele>2439.4</ele>
        <time>2022-07-16T14:28:29+0200</time>
      </trkpt>
      <trkpt lat="45.03959" lon="6.47774">
        <ele>2438.6</ele>
        <time>2022-07-16T14:28:31+0200</time>
      </trkpt>
      <trkpt lat="45.03954" lon="6.4777">
        <ele>2437.1</ele>
        <time>2022-07-16T14:28:32+0200</time>
      </trkpt>
      <trkpt lat="45.03949" lon="6.47768">
        <ele>2436.1</ele>
        <time>2022-07-16T14:28:33+0200</time>
      </trkpt>
      <trkpt lat="45.03943" lon="6.47766">
        <ele>2435.2</ele>
        <time>2022-07-16T14:28:35+0200</time>
      </trkpt>
      <trkpt lat="45.03937" lon="6.47773">
        <ele>2435.7</ele>
        <time>2022-07-16T14:28:37+0200</time>
      </trkpt>
      <trkpt lat="45.03933" lon="6.47781">
        <ele>2435.3</ele>
        <time>2022-07-16T14:28:39+0200</time>
      </trkpt>
      <trkpt lat="45.03932" lon="6.4779">
        <ele>2434.7</ele>
        <time>2022-07-16T14:28:42+0200</time>
      </trkpt>
      <trkpt lat="45.03931" lon="6.47798">
        <ele>2434.1</ele>
        <time>2022-07-16T14:28:44+0200</time>
      </trkpt>
      <trkpt lat="45.0393" lon="6.47806">
        <ele>2433.2</ele>
        <time>2022-07-16T14:28:46+0200</time>
      </trkpt>
      <trkpt lat="45.0393" lon="6.47816">
        <ele>2431.6</ele>
        <time>2022-07-16T14:28:49+0200</time>
      </trkpt>
      <trkpt lat="45.03931" lon="6.47825">
        <ele>2430.5</ele>
        <time>2022-07-16T14:28:51+0200</time>
      </trkpt>
      <trkpt lat="45.03934" lon="6.47832">
        <ele>2430.3</ele>
        <time>2022-07-16T14:28:52+0200</time>
      </trkpt>
      <trkpt lat="45.03935" lon="6.47838">
        <ele>2429.3</ele>
        <time>2022-07-16T14:28:53+0200</time>
      </trkpt>
      <trkpt lat="45.03936" lon="6.47847">
        <ele>2427.4</ele>
        <time>2022-07-16T14:28:56+0200</time>
      </trkpt>
      <trkpt lat="45.03937" lon="6.47856">
        <ele>2425.5</ele>
        <time>2022-07-16T14:28:58+0200</time>
      </trkpt>
      <trkpt lat="45.03938" lon="6.47866">
        <ele>2423.3</ele>
        <time>2022-07-16T14:29:00+0200</time>
      </trkpt>
      <trkpt lat="45.03937" lon="6.47872">
        <ele>2422</ele>
        <time>2022-07-16T14:29:01+0200</time>
      </trkpt>
      <trkpt lat="45.03936" lon="6.47882">
        <ele>2420</ele>
        <time>2022-07-16T14:29:03+0200</time>
      </trkpt>
      <trkpt lat="45.03936" lon="6.47891">
        <ele>2418.5</ele>
        <time>2022-07-16T14:29:05+0200</time>
      </trkpt>
      <trkpt lat="45.03936" lon="6.47897">
        <ele>2417.3</ele>
        <time>2022-07-16T14:29:06+0200</time>
      </trkpt>
      <trkpt lat="45.03936" lon="6.47908">
        <ele>2415.5</ele>
        <time>2022-07-16T14:29:08+0200</time>
      </trkpt>
      <trkpt lat="45.03936" lon="6.47914">
        <ele>2414.4</ele>
        <time>2022-07-16T14:29:09+0200</time>
      </trkpt>
      <trkpt lat="45.03933" lon="6.47925">
        <ele>2412</ele>
        <time>2022-07-16T14:29:11+0200</time>
      </trkpt>
      <trkpt lat="45.03931" lon="6.47932">
        <ele>2410.6</ele>
        <time>2022-07-16T14:29:12+0200</time>
      </trkpt>
      <trkpt lat="45.03931" lon="6.47939">
        <ele>2409.9</ele>
        <time>2022-07-16T14:29:14+0200</time>
      </trkpt>
      <trkpt lat="45.03933" lon="6.47945">
        <ele>2409.5</ele>
        <time>2022-07-16T14:29:15+0200</time>
      </trkpt>
      <trkpt lat="45.03934" lon="6.47952">
        <ele>2408.6</ele>
        <time>2022-07-16T14:29:16+0200</time>
      </trkpt>
      <trkpt lat="45.03936" lon="6.47959">
        <ele>2407.9</ele>
        <time>2022-07-16T14:29:17+0200</time>
      </trkpt>
      <trkpt lat="45.03938" lon="6.47967">
        <ele>2407.1</ele>
        <time>2022-07-16T14:29:18+0200</time>
      </trkpt>
      <trkpt lat="45.03941" lon="6.47975">
        <ele>2406.7</ele>
        <time>2022-07-16T14:29:19+0200</time>
      </trkpt>
      <trkpt lat="45.03942" lon="6.47981">
        <ele>2405.6</ele>
        <time>2022-07-16T14:29:20+0200</time>
      </trkpt>
      <trkpt lat="45.03943" lon="6.47993">
        <ele>2403.2</ele>
        <time>2022-07-16T14:29:22+0200</time>
      </trkpt>
      <trkpt lat="45.03944" lon="6.48002">
        <ele>2401.4</ele>
        <time>2022-07-16T14:29:24+0200</time>
      </trkpt>
      <trkpt lat="45.03947" lon="6.48007">
        <ele>2400.9</ele>
        <time>2022-07-16T14:29:27+0200</time>
      </trkpt>
      <trkpt lat="45.03952" lon="6.48016">
        <ele>2400.7</ele>
        <time>2022-07-16T14:29:30+0200</time>
      </trkpt>
      <trkpt lat="45.03955" lon="6.4803">
        <ele>2398.7</ele>
        <time>2022-07-16T14:29:32+0200</time>
      </trkpt>
      <trkpt lat="45.03958" lon="6.48036">
        <ele>2398.7</ele>
        <time>2022-07-16T14:29:33+0200</time>
      </trkpt>
      <trkpt lat="45.03958" lon="6.48043">
        <ele>2396.7</ele>
        <time>2022-07-16T14:29:34+0200</time>
      </trkpt>
      <trkpt lat="45.03954" lon="6.4805">
        <ele>2393.4</ele>
        <time>2022-07-16T14:29:36+0200</time>
      </trkpt>
      <trkpt lat="45.03956" lon="6.48059">
        <ele>2392.1</ele>
        <time>2022-07-16T14:29:38+0200</time>
      </trkpt>
      <trkpt lat="45.03961" lon="6.48068">
        <ele>2391.8</ele>
        <time>2022-07-16T14:29:40+0200</time>
      </trkpt>
      <trkpt lat="45.03964" lon="6.48078">
        <ele>2390.6</ele>
        <time>2022-07-16T14:29:42+0200</time>
      </trkpt>
      <trkpt lat="45.03968" lon="6.4809">
        <ele>2389.2</ele>
        <time>2022-07-16T14:29:44+0200</time>
      </trkpt>
      <trkpt lat="45.03971" lon="6.48095">
        <ele>2389.1</ele>
        <time>2022-07-16T14:29:45+0200</time>
      </trkpt>
      <trkpt lat="45.03973" lon="6.48106">
        <ele>2387.4</ele>
        <time>2022-07-16T14:29:47+0200</time>
      </trkpt>
      <trkpt lat="45.03971" lon="6.48113">
        <ele>2385.5</ele>
        <time>2022-07-16T14:29:48+0200</time>
      </trkpt>
      <trkpt lat="45.03971" lon="6.48121">
        <ele>2384.9</ele>
        <time>2022-07-16T14:29:49+0200</time>
      </trkpt>
      <trkpt lat="45.03967" lon="6.48129">
        <ele>2382.6</ele>
        <time>2022-07-16T14:29:53+0200</time>
      </trkpt>
      <trkpt lat="45.03968" lon="6.4814">
        <ele>2382.4</ele>
        <time>2022-07-16T14:29:55+0200</time>
      </trkpt>
      <trkpt lat="45.03968" lon="6.48147">
        <ele>2381.8</ele>
        <time>2022-07-16T14:29:57+0200</time>
      </trkpt>
      <trkpt lat="45.03965" lon="6.48152">
        <ele>2379.4</ele>
        <time>2022-07-16T14:29:59+0200</time>
      </trkpt>
      <trkpt lat="45.03964" lon="6.4816">
        <ele>2378.2</ele>
        <time>2022-07-16T14:30:01+0200</time>
      </trkpt>
      <trkpt lat="45.03963" lon="6.48166">
        <ele>2376.7</ele>
        <time>2022-07-16T14:30:03+0200</time>
      </trkpt>
      <trkpt lat="45.03961" lon="6.48172">
        <ele>2375.1</ele>
        <time>2022-07-16T14:30:05+0200</time>
      </trkpt>
      <trkpt lat="45.03959" lon="6.48179">
        <ele>2373.4</ele>
        <time>2022-07-16T14:30:07+0200</time>
      </trkpt>
      <trkpt lat="45.03957" lon="6.48189">
        <ele>2371.2</ele>
        <time>2022-07-16T14:30:10+0200</time>
      </trkpt>
      <trkpt lat="45.03958" lon="6.48196">
        <ele>2370.9</ele>
        <time>2022-07-16T14:30:11+0200</time>
      </trkpt>
      <trkpt lat="45.03956" lon="6.48203">
        <ele>2369.7</ele>
        <time>2022-07-16T14:30:14+0200</time>
      </trkpt>
      <trkpt lat="45.03954" lon="6.48209">
        <ele>2368</ele>
        <time>2022-07-16T14:30:17+0200</time>
      </trkpt>
      <trkpt lat="45.03949" lon="6.48214">
        <ele>2365.8</ele>
        <time>2022-07-16T14:30:19+0200</time>
      </trkpt>
      <trkpt lat="45.03947" lon="6.4822">
        <ele>2364.8</ele>
        <time>2022-07-16T14:30:21+0200</time>
      </trkpt>
      <trkpt lat="45.03939" lon="6.48224">
        <ele>2361.5</ele>
        <time>2022-07-16T14:30:24+0200</time>
      </trkpt>
      <trkpt lat="45.03936" lon="6.48229">
        <ele>2359.5</ele>
        <time>2022-07-16T14:30:25+0200</time>
      </trkpt>
      <trkpt lat="45.03933" lon="6.48236">
        <ele>2357.4</ele>
        <time>2022-07-16T14:30:28+0200</time>
      </trkpt>
      <trkpt lat="45.03931" lon="6.48247">
        <ele>2355.6</ele>
        <time>2022-07-16T14:30:32+0200</time>
      </trkpt>
      <trkpt lat="45.03925" lon="6.48246">
        <ele>2354</ele>
        <time>2022-07-16T14:30:36+0200</time>
      </trkpt>
      <trkpt lat="45.0392" lon="6.48248">
        <ele>2352.7</ele>
        <time>2022-07-16T14:30:39+0200</time>
      </trkpt>
      <trkpt lat="45.03922" lon="6.48253">
        <ele>2352.3</ele>
        <time>2022-07-16T14:30:42+0200</time>
      </trkpt>
      <trkpt lat="45.03918" lon="6.48258">
        <ele>2350.3</ele>
        <time>2022-07-16T14:30:45+0200</time>
      </trkpt>
      <trkpt lat="45.03913" lon="6.4826">
        <ele>2348.7</ele>
        <time>2022-07-16T14:30:47+0200</time>
      </trkpt>
      <trkpt lat="45.03909" lon="6.48262">
        <ele>2347.2</ele>
        <time>2022-07-16T14:30:49+0200</time>
      </trkpt>
      <trkpt lat="45.03903" lon="6.4826">
        <ele>2346.1</ele>
        <time>2022-07-16T14:30:51+0200</time>
      </trkpt>
      <trkpt lat="45.03895" lon="6.48259">
        <ele>2344.4</ele>
        <time>2022-07-16T14:30:53+0200</time>
      </trkpt>
      <trkpt lat="45.03889" lon="6.4826">
        <ele>2342.5</ele>
        <time>2022-07-16T14:30:55+0200</time>
      </trkpt>
      <trkpt lat="45.03882" lon="6.48259">
        <ele>2341.2</ele>
        <time>2022-07-16T14:30:57+0200</time>
      </trkpt>
      <trkpt lat="45.03876" lon="6.48258">
        <ele>2340.1</ele>
        <time>2022-07-16T14:30:59+0200</time>
      </trkpt>
      <trkpt lat="45.0387" lon="6.48263">
        <ele>2338.3</ele>
        <time>2022-07-16T14:31:01+0200</time>
      </trkpt>
      <trkpt lat="45.03862" lon="6.48265">
        <ele>2336.7</ele>
        <time>2022-07-16T14:31:03+0200</time>
      </trkpt>
      <trkpt lat="45.03855" lon="6.48268">
        <ele>2336.3</ele>
        <time>2022-07-16T14:31:05+0200</time>
      </trkpt>
      <trkpt lat="45.0385" lon="6.48273">
        <ele>2335.7</ele>
        <time>2022-07-16T14:31:06+0200</time>
      </trkpt>
      <trkpt lat="45.03844" lon="6.48278">
        <ele>2334.8</ele>
        <time>2022-07-16T14:31:07+0200</time>
      </trkpt>
      <trkpt lat="45.0384" lon="6.48284">
        <ele>2334</ele>
        <time>2022-07-16T14:31:08+0200</time>
      </trkpt>
      <trkpt lat="45.03836" lon="6.48289">
        <ele>2333.4</ele>
        <time>2022-07-16T14:31:09+0200</time>
      </trkpt>
      <trkpt lat="45.03826" lon="6.48293">
        <ele>2332.9</ele>
        <time>2022-07-16T14:31:11+0200</time>
      </trkpt>
      <trkpt lat="45.03821" lon="6.48296">
        <ele>2332.5</ele>
        <time>2022-07-16T14:31:12+0200</time>
      </trkpt>
      <trkpt lat="45.03815" lon="6.48299">
        <ele>2331.8</ele>
        <time>2022-07-16T14:31:13+0200</time>
      </trkpt>
      <trkpt lat="45.03811" lon="6.48302">
        <ele>2331</ele>
        <time>2022-07-16T14:31:15+0200</time>
      </trkpt>
      <trkpt lat="45.03804" lon="6.48303">
        <ele>2330.3</ele>
        <time>2022-07-16T14:31:17+0200</time>
      </trkpt>
      <trkpt lat="45.038" lon="6.48307">
        <ele>2329.4</ele>
        <time>2022-07-16T14:31:19+0200</time>
      </trkpt>
      <trkpt lat="45.03795" lon="6.4831">
        <ele>2328.8</ele>
        <time>2022-07-16T14:31:21+0200</time>
      </trkpt>
      <trkpt lat="45.03787" lon="6.48311">
        <ele>2327.9</ele>
        <time>2022-07-16T14:31:23+0200</time>
      </trkpt>
      <trkpt lat="45.03781" lon="6.48312">
        <ele>2327.3</ele>
        <time>2022-07-16T14:31:25+0200</time>
      </trkpt>
      <trkpt lat="45.03773" lon="6.48318">
        <ele>2326.4</ele>
        <time>2022-07-16T14:31:27+0200</time>
      </trkpt>
      <trkpt lat="45.03768" lon="6.48322">
        <ele>2325.9</ele>
        <time>2022-07-16T14:31:28+0200</time>
      </trkpt>
      <trkpt lat="45.03764" lon="6.48326">
        <ele>2325.5</ele>
        <time>2022-07-16T14:31:29+0200</time>
      </trkpt>
      <trkpt lat="45.03761" lon="6.48332">
        <ele>2325.2</ele>
        <time>2022-07-16T14:31:30+0200</time>
      </trkpt>
      <trkpt lat="45.03756" lon="6.48334">
        <ele>2324.7</ele>
        <time>2022-07-16T14:31:32+0200</time>
      </trkpt>
      <trkpt lat="45.03752" lon="6.48337">
        <ele>2324.4</ele>
        <time>2022-07-16T14:31:34+0200</time>
      </trkpt>
      <trkpt lat="45.03744" lon="6.48342">
        <ele>2323.9</ele>
        <time>2022-07-16T14:31:36+0200</time>
      </trkpt>
      <trkpt lat="45.0374" lon="6.48346">
        <ele>2323.7</ele>
        <time>2022-07-16T14:31:39+0200</time>
      </trkpt>
      <trkpt lat="45.03734" lon="6.48348">
        <ele>2323.1</ele>
        <time>2022-07-16T14:31:46+0200</time>
      </trkpt>
      <trkpt lat="45.03729" lon="6.48351">
        <ele>2322.5</ele>
        <time>2022-07-16T14:31:48+0200</time>
      </trkpt>
      <trkpt lat="45.03722" lon="6.48354">
        <ele>2321.7</ele>
        <time>2022-07-16T14:31:50+0200</time>
      </trkpt>
      <trkpt lat="45.03715" lon="6.48358">
        <ele>2320.6</ele>
        <time>2022-07-16T14:31:52+0200</time>
      </trkpt>
      <trkpt lat="45.03709" lon="6.48359">
        <ele>2319.5</ele>
        <time>2022-07-16T14:31:53+0200</time>
      </trkpt>
      <trkpt lat="45.03703" lon="6.4836">
        <ele>2318.5</ele>
        <time>2022-07-16T14:31:54+0200</time>
      </trkpt>
      <trkpt lat="45.03697" lon="6.4836">
        <ele>2317.5</ele>
        <time>2022-07-16T14:31:55+0200</time>
      </trkpt>
      <trkpt lat="45.0369" lon="6.48368">
        <ele>2316.3</ele>
        <time>2022-07-16T14:31:57+0200</time>
      </trkpt>
      <trkpt lat="45.03686" lon="6.48375">
        <ele>2315.4</ele>
        <time>2022-07-16T14:31:58+0200</time>
      </trkpt>
      <trkpt lat="45.03683" lon="6.48383">
        <ele>2314.7</ele>
        <time>2022-07-16T14:32:00+0200</time>
      </trkpt>
      <trkpt lat="45.0368" lon="6.48388">
        <ele>2313.8</ele>
        <time>2022-07-16T14:32:02+0200</time>
      </trkpt>
      <trkpt lat="45.03675" lon="6.4839">
        <ele>2312.9</ele>
        <time>2022-07-16T14:32:03+0200</time>
      </trkpt>
      <trkpt lat="45.0367" lon="6.48394">
        <ele>2312</ele>
        <time>2022-07-16T14:32:04+0200</time>
      </trkpt>
      <trkpt lat="45.03667" lon="6.484">
        <ele>2311.5</ele>
        <time>2022-07-16T14:32:05+0200</time>
      </trkpt>
      <trkpt lat="45.03664" lon="6.48405">
        <ele>2311</ele>
        <time>2022-07-16T14:32:06+0200</time>
      </trkpt>
      <trkpt lat="45.03659" lon="6.48412">
        <ele>2310.5</ele>
        <time>2022-07-16T14:32:07+0200</time>
      </trkpt>
      <trkpt lat="45.03655" lon="6.48419">
        <ele>2309.9</ele>
        <time>2022-07-16T14:32:08+0200</time>
      </trkpt>
      <trkpt lat="45.0365" lon="6.48425">
        <ele>2309</ele>
        <time>2022-07-16T14:32:09+0200</time>
      </trkpt>
      <trkpt lat="45.03648" lon="6.48432">
        <ele>2308.6</ele>
        <time>2022-07-16T14:32:10+0200</time>
      </trkpt>
      <trkpt lat="45.03643" lon="6.48439">
        <ele>2307.7</ele>
        <time>2022-07-16T14:32:12+0200</time>
      </trkpt>
      <trkpt lat="45.03638" lon="6.48441">
        <ele>2306.9</ele>
        <time>2022-07-16T14:32:14+0200</time>
      </trkpt>
      <trkpt lat="45.03633" lon="6.48446">
        <ele>2305.5</ele>
        <time>2022-07-16T14:32:16+0200</time>
      </trkpt>
      <trkpt lat="45.03627" lon="6.48446">
        <ele>2303.8</ele>
        <time>2022-07-16T14:32:19+0200</time>
      </trkpt>
      <trkpt lat="45.03622" lon="6.48448">
        <ele>2302.6</ele>
        <time>2022-07-16T14:32:20+0200</time>
      </trkpt>
      <trkpt lat="45.03615" lon="6.4845">
        <ele>2300.7</ele>
        <time>2022-07-16T14:32:22+0200</time>
      </trkpt>
      <trkpt lat="45.03611" lon="6.48451">
        <ele>2299.5</ele>
        <time>2022-07-16T14:32:23+0200</time>
      </trkpt>
      <trkpt lat="45.03605" lon="6.48456">
        <ele>2298</ele>
        <time>2022-07-16T14:32:24+0200</time>
      </trkpt>
      <trkpt lat="45.03599" lon="6.48457">
        <ele>2297</ele>
        <time>2022-07-16T14:32:25+0200</time>
      </trkpt>
      <trkpt lat="45.03594" lon="6.4846">
        <ele>2295.7</ele>
        <time>2022-07-16T14:32:26+0200</time>
      </trkpt>
      <trkpt lat="45.03589" lon="6.48462">
        <ele>2294.8</ele>
        <time>2022-07-16T14:32:27+0200</time>
      </trkpt>
      <trkpt lat="45.03582" lon="6.48468">
        <ele>2293.1</ele>
        <time>2022-07-16T14:32:29+0200</time>
      </trkpt>
      <trkpt lat="45.03577" lon="6.4847">
        <ele>2292.2</ele>
        <time>2022-07-16T14:32:31+0200</time>
      </trkpt>
      <trkpt lat="45.0357" lon="6.48474">
        <ele>2291</ele>
        <time>2022-07-16T14:32:33+0200</time>
      </trkpt>
      <trkpt lat="45.03568" lon="6.48479">
        <ele>2289.8</ele>
        <time>2022-07-16T14:32:35+0200</time>
      </trkpt>
      <trkpt lat="45.03564" lon="6.48484">
        <ele>2288.7</ele>
        <time>2022-07-16T14:32:40+0200</time>
      </trkpt>
      <trkpt lat="45.03558" lon="6.48486">
        <ele>2287.5</ele>
        <time>2022-07-16T14:32:44+0200</time>
      </trkpt>
      <trkpt lat="45.03554" lon="6.48487">
        <ele>2286.9</ele>
        <time>2022-07-16T14:32:52+0200</time>
      </trkpt>
      <trkpt lat="45.0355" lon="6.4849">
        <ele>2286.5</ele>
        <time>2022-07-16T14:32:56+0200</time>
      </trkpt>
      <trkpt lat="45.03544" lon="6.48494">
        <ele>2286</ele>
        <time>2022-07-16T14:32:59+0200</time>
      </trkpt>
      <trkpt lat="45.0354" lon="6.48498">
        <ele>2285.3</ele>
        <time>2022-07-16T14:33:04+0200</time>
      </trkpt>
      <trkpt lat="45.03539" lon="6.48507">
        <ele>2284.1</ele>
        <time>2022-07-16T14:33:10+0200</time>
      </trkpt>
      <trkpt lat="45.03539" lon="6.48513">
        <ele>2283.2</ele>
        <time>2022-07-16T14:33:12+0200</time>
      </trkpt>
      <trkpt lat="45.03535" lon="6.48517">
        <ele>2282.4</ele>
        <time>2022-07-16T14:33:14+0200</time>
      </trkpt>
      <trkpt lat="45.03528" lon="6.48518">
        <ele>2281.9</ele>
        <time>2022-07-16T14:33:16+0200</time>
      </trkpt>
      <trkpt lat="45.03523" lon="6.48521">
        <ele>2281</ele>
        <time>2022-07-16T14:33:18+0200</time>
      </trkpt>
      <trkpt lat="45.03513" lon="6.48524">
        <ele>2280.2</ele>
        <time>2022-07-16T14:33:20+0200</time>
      </trkpt>
      <trkpt lat="45.03508" lon="6.48523">
        <ele>2280.2</ele>
        <time>2022-07-16T14:33:21+0200</time>
      </trkpt>
      <trkpt lat="45.03503" lon="6.48523">
        <ele>2280</ele>
        <time>2022-07-16T14:33:22+0200</time>
      </trkpt>
      <trkpt lat="45.03497" lon="6.48524">
        <ele>2279.6</ele>
        <time>2022-07-16T14:33:23+0200</time>
      </trkpt>
      <trkpt lat="45.03492" lon="6.48527">
        <ele>2279</ele>
        <time>2022-07-16T14:33:24+0200</time>
      </trkpt>
      <trkpt lat="45.03488" lon="6.48531">
        <ele>2278.1</ele>
        <time>2022-07-16T14:33:25+0200</time>
      </trkpt>
      <trkpt lat="45.03484" lon="6.48537">
        <ele>2277.2</ele>
        <time>2022-07-16T14:33:26+0200</time>
      </trkpt>
      <trkpt lat="45.0348" lon="6.48542">
        <ele>2276.2</ele>
        <time>2022-07-16T14:33:27+0200</time>
      </trkpt>
      <trkpt lat="45.03476" lon="6.48547">
        <ele>2275.4</ele>
        <time>2022-07-16T14:33:28+0200</time>
      </trkpt>
      <trkpt lat="45.0347" lon="6.48549">
        <ele>2274.8</ele>
        <time>2022-07-16T14:33:29+0200</time>
      </trkpt>
      <trkpt lat="45.03465" lon="6.48556">
        <ele>2273.5</ele>
        <time>2022-07-16T14:33:30+0200</time>
      </trkpt>
      <trkpt lat="45.0346" lon="6.48562">
        <ele>2272.2</ele>
        <time>2022-07-16T14:33:31+0200</time>
      </trkpt>
      <trkpt lat="45.03457" lon="6.48567">
        <ele>2271.2</ele>
        <time>2022-07-16T14:33:32+0200</time>
      </trkpt>
      <trkpt lat="45.03449" lon="6.48572">
        <ele>2270</ele>
        <time>2022-07-16T14:33:34+0200</time>
      </trkpt>
      <trkpt lat="45.03444" lon="6.48572">
        <ele>2269.6</ele>
        <time>2022-07-16T14:33:35+0200</time>
      </trkpt>
      <trkpt lat="45.03439" lon="6.48574">
        <ele>2268.9</ele>
        <time>2022-07-16T14:33:36+0200</time>
      </trkpt>
      <trkpt lat="45.03433" lon="6.48576">
        <ele>2268.3</ele>
        <time>2022-07-16T14:33:37+0200</time>
      </trkpt>
      <trkpt lat="45.03428" lon="6.48577">
        <ele>2267.7</ele>
        <time>2022-07-16T14:33:38+0200</time>
      </trkpt>
      <trkpt lat="45.03424" lon="6.4858">
        <ele>2267</ele>
        <time>2022-07-16T14:33:39+0200</time>
      </trkpt>
      <trkpt lat="45.03419" lon="6.48582">
        <ele>2266.4</ele>
        <time>2022-07-16T14:33:40+0200</time>
      </trkpt>
      <trkpt lat="45.03414" lon="6.48583">
        <ele>2265.8</ele>
        <time>2022-07-16T14:33:41+0200</time>
      </trkpt>
      <trkpt lat="45.0341" lon="6.48588">
        <ele>2264.5</ele>
        <time>2022-07-16T14:33:44+0200</time>
      </trkpt>
      <trkpt lat="45.03405" lon="6.4859">
        <ele>2263.7</ele>
        <time>2022-07-16T14:33:47+0200</time>
      </trkpt>
      <trkpt lat="45.03399" lon="6.48595">
        <ele>2262.4</ele>
        <time>2022-07-16T14:33:49+0200</time>
      </trkpt>
      <trkpt lat="45.03393" lon="6.48597">
        <ele>2261.4</ele>
        <time>2022-07-16T14:33:51+0200</time>
      </trkpt>
      <trkpt lat="45.03387" lon="6.486">
        <ele>2260.4</ele>
        <time>2022-07-16T14:33:53+0200</time>
      </trkpt>
      <trkpt lat="45.03382" lon="6.48602">
        <ele>2259.9</ele>
        <time>2022-07-16T14:33:55+0200</time>
      </trkpt>
      <trkpt lat="45.03377" lon="6.48605">
        <ele>2259.1</ele>
        <time>2022-07-16T14:33:57+0200</time>
      </trkpt>
      <trkpt lat="45.03371" lon="6.48606">
        <ele>2258.6</ele>
        <time>2022-07-16T14:33:59+0200</time>
      </trkpt>
      <trkpt lat="45.03365" lon="6.48609">
        <ele>2257.8</ele>
        <time>2022-07-16T14:34:01+0200</time>
      </trkpt>
      <trkpt lat="45.03362" lon="6.48614">
        <ele>2256.5</ele>
        <time>2022-07-16T14:34:03+0200</time>
      </trkpt>
      <trkpt lat="45.03357" lon="6.48617">
        <ele>2255.3</ele>
        <time>2022-07-16T14:34:06+0200</time>
      </trkpt>
      <trkpt lat="45.03352" lon="6.4862">
        <ele>2254.1</ele>
        <time>2022-07-16T14:34:11+0200</time>
      </trkpt>
      <trkpt lat="45.03348" lon="6.48622">
        <ele>2253</ele>
        <time>2022-07-16T14:34:23+0200</time>
      </trkpt>
      <trkpt lat="45.03343" lon="6.48624">
        <ele>2252</ele>
        <time>2022-07-16T14:34:32+0200</time>
      </trkpt>
      <trkpt lat="45.03339" lon="6.48626">
        <ele>2250.9</ele>
        <time>2022-07-16T14:34:36+0200</time>
      </trkpt>
      <trkpt lat="45.03343" lon="6.48627">
        <ele>2251.3</ele>
        <time>2022-07-16T14:34:57+0200</time>
      </trkpt>
      <trkpt lat="45.03338" lon="6.48628">
        <ele>2250.4</ele>
        <time>2022-07-16T14:35:06+0200</time>
      </trkpt>
      <trkpt lat="45.03333" lon="6.48631">
        <ele>2249</ele>
        <time>2022-07-16T14:35:10+0200</time>
      </trkpt>
      <trkpt lat="45.03329" lon="6.48636">
        <ele>2246.8</ele>
        <time>2022-07-16T14:35:18+0200</time>
      </trkpt>
      <trkpt lat="45.03324" lon="6.48638">
        <ele>2245.4</ele>
        <time>2022-07-16T14:35:27+0200</time>
      </trkpt>
      <trkpt lat="45.03321" lon="6.48642">
        <ele>2244.5</ele>
        <time>2022-07-16T14:35:38+0200</time>
      </trkpt>
      <trkpt lat="45.03316" lon="6.48646">
        <ele>2243.9</ele>
        <time>2022-07-16T14:35:43+0200</time>
      </trkpt>
      <trkpt lat="45.03312" lon="6.48646">
        <ele>2242.9</ele>
        <time>2022-07-16T14:35:48+0200</time>
      </trkpt>
      <trkpt lat="45.03311" lon="6.48638">
        <ele>2242.3</ele>
        <time>2022-07-16T14:35:52+0200</time>
      </trkpt>
      <trkpt lat="45.03305" lon="6.48641">
        <ele>2241.2</ele>
        <time>2022-07-16T14:35:55+0200</time>
      </trkpt>
      <trkpt lat="45.033" lon="6.48643">
        <ele>2240.7</ele>
        <time>2022-07-16T14:35:57+0200</time>
      </trkpt>
      <trkpt lat="45.03295" lon="6.48644">
        <ele>2240.1</ele>
        <time>2022-07-16T14:36:00+0200</time>
      </trkpt>
      <trkpt lat="45.03289" lon="6.48646">
        <ele>2239.6</ele>
        <time>2022-07-16T14:36:03+0200</time>
      </trkpt>
      <trkpt lat="45.03284" lon="6.48647">
        <ele>2239.1</ele>
        <time>2022-07-16T14:36:13+0200</time>
      </trkpt>
      <trkpt lat="45.0328" lon="6.48648">
        <ele>2238.6</ele>
        <time>2022-07-16T14:36:16+0200</time>
      </trkpt>
      <trkpt lat="45.03275" lon="6.4865">
        <ele>2238.6</ele>
        <time>2022-07-16T14:36:21+0200</time>
      </trkpt>
      <trkpt lat="45.03272" lon="6.48646">
        <ele>2237.8</ele>
        <time>2022-07-16T14:36:26+0200</time>
      </trkpt>
      <trkpt lat="45.03268" lon="6.48642">
        <ele>2237.2</ele>
        <time>2022-07-16T14:36:32+0200</time>
      </trkpt>
      <trkpt lat="45.03264" lon="6.4864">
        <ele>2236.6</ele>
        <time>2022-07-16T14:36:35+0200</time>
      </trkpt>
      <trkpt lat="45.03258" lon="6.48639">
        <ele>2236.3</ele>
        <time>2022-07-16T14:36:40+0200</time>
      </trkpt>
      <trkpt lat="45.03254" lon="6.48636">
        <ele>2236</ele>
        <time>2022-07-16T14:36:46+0200</time>
      </trkpt>
      <trkpt lat="45.03249" lon="6.48634">
        <ele>2235.7</ele>
        <time>2022-07-16T14:36:49+0200</time>
      </trkpt>
      <trkpt lat="45.03244" lon="6.48632">
        <ele>2235.6</ele>
        <time>2022-07-16T14:36:58+0200</time>
      </trkpt>
      <trkpt lat="45.03239" lon="6.48632">
        <ele>2235.6</ele>
        <time>2022-07-16T14:37:02+0200</time>
      </trkpt>
      <trkpt lat="45.03234" lon="6.48629">
        <ele>2235.2</ele>
        <time>2022-07-16T14:37:08+0200</time>
      </trkpt>
      <trkpt lat="45.03231" lon="6.48624">
        <ele>2234.5</ele>
        <time>2022-07-16T14:37:11+0200</time>
      </trkpt>
      <trkpt lat="45.03225" lon="6.48625">
        <ele>2234.5</ele>
        <time>2022-07-16T14:37:20+0200</time>
      </trkpt>
      <trkpt lat="45.03218" lon="6.48623">
        <ele>2234.1</ele>
        <time>2022-07-16T14:37:26+0200</time>
      </trkpt>
      <trkpt lat="45.03213" lon="6.48624">
        <ele>2234.2</ele>
        <time>2022-07-16T14:37:33+0200</time>
      </trkpt>
      <trkpt lat="45.03208" lon="6.48622">
        <ele>2233.8</ele>
        <time>2022-07-16T14:37:36+0200</time>
      </trkpt>
      <trkpt lat="45.03202" lon="6.48618">
        <ele>2233.1</ele>
        <time>2022-07-16T14:37:38+0200</time>
      </trkpt>
      <trkpt lat="45.03196" lon="6.48613">
        <ele>2232.2</ele>
        <time>2022-07-16T14:37:40+0200</time>
      </trkpt>
      <trkpt lat="45.03191" lon="6.48612">
        <ele>2232.3</ele>
        <time>2022-07-16T14:37:41+0200</time>
      </trkpt>
      <trkpt lat="45.03184" lon="6.48609">
        <ele>2232.1</ele>
        <time>2022-07-16T14:37:43+0200</time>
      </trkpt>
      <trkpt lat="45.03178" lon="6.48609">
        <ele>2232.3</ele>
        <time>2022-07-16T14:37:45+0200</time>
      </trkpt>
      <trkpt lat="45.03173" lon="6.48607">
        <ele>2232.2</ele>
        <time>2022-07-16T14:37:47+0200</time>
      </trkpt>
      <trkpt lat="45.03167" lon="6.48604">
        <ele>2232</ele>
        <time>2022-07-16T14:37:51+0200</time>
      </trkpt>
      <trkpt lat="45.03162" lon="6.48603">
        <ele>2232.7</ele>
        <time>2022-07-16T14:37:53+0200</time>
      </trkpt>
      <trkpt lat="45.03157" lon="6.48603">
        <ele>2233.6</ele>
        <time>2022-07-16T14:37:55+0200</time>
      </trkpt>
      <trkpt lat="45.03151" lon="6.48601">
        <ele>2234</ele>
        <time>2022-07-16T14:37:58+0200</time>
      </trkpt>
      <trkpt lat="45.03146" lon="6.48597">
        <ele>2233.4</ele>
        <time>2022-07-16T14:38:01+0200</time>
      </trkpt>
      <trkpt lat="45.03142" lon="6.48591">
        <ele>2232.1</ele>
        <time>2022-07-16T14:38:04+0200</time>
      </trkpt>
      <trkpt lat="45.03137" lon="6.48587">
        <ele>2231.8</ele>
        <time>2022-07-16T14:38:06+0200</time>
      </trkpt>
      <trkpt lat="45.03133" lon="6.48585">
        <ele>2232.3</ele>
        <time>2022-07-16T14:38:08+0200</time>
      </trkpt>
      <trkpt lat="45.03128" lon="6.48581">
        <ele>2233</ele>
        <time>2022-07-16T14:38:11+0200</time>
      </trkpt>
      <trkpt lat="45.03124" lon="6.48576">
        <ele>2232.8</ele>
        <time>2022-07-16T14:38:14+0200</time>
      </trkpt>
      <trkpt lat="45.0312" lon="6.4857">
        <ele>2232.3</ele>
        <time>2022-07-16T14:38:17+0200</time>
      </trkpt>
      <trkpt lat="45.03116" lon="6.48565">
        <ele>2232</ele>
        <time>2022-07-16T14:38:20+0200</time>
      </trkpt>
      <trkpt lat="45.0311" lon="6.48561">
        <ele>2231.8</ele>
        <time>2022-07-16T14:38:23+0200</time>
      </trkpt>
      <trkpt lat="45.03107" lon="6.48555">
        <ele>2230.7</ele>
        <time>2022-07-16T14:38:25+0200</time>
      </trkpt>
      <trkpt lat="45.03099" lon="6.4855">
        <ele>2231.3</ele>
        <time>2022-07-16T14:38:28+0200</time>
      </trkpt>
      <trkpt lat="45.03096" lon="6.48544">
        <ele>2230.6</ele>
        <time>2022-07-16T14:38:31+0200</time>
      </trkpt>
      <trkpt lat="45.03092" lon="6.48539">
        <ele>2230.2</ele>
        <time>2022-07-16T14:38:33+0200</time>
      </trkpt>
      <trkpt lat="45.03087" lon="6.48535">
        <ele>2230</ele>
        <time>2022-07-16T14:38:36+0200</time>
      </trkpt>
      <trkpt lat="45.03083" lon="6.4853">
        <ele>2229.5</ele>
        <time>2022-07-16T14:38:39+0200</time>
      </trkpt>
      <trkpt lat="45.03078" lon="6.48528">
        <ele>2228</ele>
        <time>2022-07-16T14:38:41+0200</time>
      </trkpt>
      <trkpt lat="45.03071" lon="6.48528">
        <ele>2226.8</ele>
        <time>2022-07-16T14:38:45+0200</time>
      </trkpt>
      <trkpt lat="45.03066" lon="6.48528">
        <ele>2226</ele>
        <time>2022-07-16T14:38:53+0200</time>
      </trkpt>
      <trkpt lat="45.03062" lon="6.48533">
        <ele>2225.8</ele>
        <time>2022-07-16T14:38:58+0200</time>
      </trkpt>
      <trkpt lat="45.0306" lon="6.48538">
        <ele>2225.7</ele>
        <time>2022-07-16T14:39:08+0200</time>
      </trkpt>
      <trkpt lat="45.03056" lon="6.48543">
        <ele>2225.3</ele>
        <time>2022-07-16T14:39:17+0200</time>
      </trkpt>
      <trkpt lat="45.03053" lon="6.4855">
        <ele>2224.8</ele>
        <time>2022-07-16T14:39:20+0200</time>
      </trkpt>
      <trkpt lat="45.03052" lon="6.48557">
        <ele>2224.6</ele>
        <time>2022-07-16T14:39:22+0200</time>
      </trkpt>
      <trkpt lat="45.03047" lon="6.4856">
        <ele>2223</ele>
        <time>2022-07-16T14:39:26+0200</time>
      </trkpt>
      <trkpt lat="45.0304" lon="6.48563">
        <ele>2221</ele>
        <time>2022-07-16T14:39:29+0200</time>
      </trkpt>
      <trkpt lat="45.03036" lon="6.48559">
        <ele>2219.1</ele>
        <time>2022-07-16T14:39:31+0200</time>
      </trkpt>
      <trkpt lat="45.03028" lon="6.48558">
        <ele>2216.5</ele>
        <time>2022-07-16T14:39:33+0200</time>
      </trkpt>
      <trkpt lat="45.03023" lon="6.48557">
        <ele>2215.5</ele>
        <time>2022-07-16T14:39:35+0200</time>
      </trkpt>
      <trkpt lat="45.03017" lon="6.48554">
        <ele>2214.2</ele>
        <time>2022-07-16T14:39:37+0200</time>
      </trkpt>
      <trkpt lat="45.03012" lon="6.48553">
        <ele>2213.4</ele>
        <time>2022-07-16T14:39:38+0200</time>
      </trkpt>
      <trkpt lat="45.03006" lon="6.48555">
        <ele>2212.8</ele>
        <time>2022-07-16T14:39:40+0200</time>
      </trkpt>
      <trkpt lat="45.03001" lon="6.48555">
        <ele>2212.1</ele>
        <time>2022-07-16T14:39:42+0200</time>
      </trkpt>
      <trkpt lat="45.02996" lon="6.4855">
        <ele>2210.6</ele>
        <time>2022-07-16T14:39:44+0200</time>
      </trkpt>
      <trkpt lat="45.02989" lon="6.48548">
        <ele>2209.3</ele>
        <time>2022-07-16T14:39:46+0200</time>
      </trkpt>
      <trkpt lat="45.02983" lon="6.48545">
        <ele>2208</ele>
        <time>2022-07-16T14:39:47+0200</time>
      </trkpt>
      <trkpt lat="45.02977" lon="6.48546">
        <ele>2207.2</ele>
        <time>2022-07-16T14:39:48+0200</time>
      </trkpt>
      <trkpt lat="45.02971" lon="6.48544">
        <ele>2206.3</ele>
        <time>2022-07-16T14:39:49+0200</time>
      </trkpt>
      <trkpt lat="45.02965" lon="6.48541">
        <ele>2205.6</ele>
        <time>2022-07-16T14:39:50+0200</time>
      </trkpt>
      <trkpt lat="45.02961" lon="6.48536">
        <ele>2204.8</ele>
        <time>2022-07-16T14:39:51+0200</time>
      </trkpt>
      <trkpt lat="45.02956" lon="6.48534">
        <ele>2204.3</ele>
        <time>2022-07-16T14:39:52+0200</time>
      </trkpt>
      <trkpt lat="45.0295" lon="6.48531">
        <ele>2203.6</ele>
        <time>2022-07-16T14:39:54+0200</time>
      </trkpt>
      <trkpt lat="45.02943" lon="6.48525">
        <ele>2202.8</ele>
        <time>2022-07-16T14:39:56+0200</time>
      </trkpt>
      <trkpt lat="45.02938" lon="6.48521">
        <ele>2202.3</ele>
        <time>2022-07-16T14:39:58+0200</time>
      </trkpt>
      <trkpt lat="45.02932" lon="6.48511">
        <ele>2201.1</ele>
        <time>2022-07-16T14:40:00+0200</time>
      </trkpt>
      <trkpt lat="45.02928" lon="6.48507">
        <ele>2200.3</ele>
        <time>2022-07-16T14:40:01+0200</time>
      </trkpt>
      <trkpt lat="45.02924" lon="6.48503">
        <ele>2199.5</ele>
        <time>2022-07-16T14:40:02+0200</time>
      </trkpt>
      <trkpt lat="45.02918" lon="6.48496">
        <ele>2198.4</ele>
        <time>2022-07-16T14:40:04+0200</time>
      </trkpt>
      <trkpt lat="45.02913" lon="6.48491">
        <ele>2199.6</ele>
        <time>2022-07-16T14:40:06+0200</time>
      </trkpt>
      <trkpt lat="45.02907" lon="6.48487">
        <ele>2201.1</ele>
        <time>2022-07-16T14:40:10+0200</time>
      </trkpt>
      <trkpt lat="45.02907" lon="6.48479">
        <ele>2200.7</ele>
        <time>2022-07-16T14:40:12+0200</time>
      </trkpt>
      <trkpt lat="45.02904" lon="6.48469">
        <ele>2200.7</ele>
        <time>2022-07-16T14:40:14+0200</time>
      </trkpt>
      <trkpt lat="45.02903" lon="6.48461">
        <ele>2200.4</ele>
        <time>2022-07-16T14:40:16+0200</time>
      </trkpt>
      <trkpt lat="45.02903" lon="6.48453">
        <ele>2199.9</ele>
        <time>2022-07-16T14:40:21+0200</time>
      </trkpt>
      <trkpt lat="45.02904" lon="6.48446">
        <ele>2199.7</ele>
        <time>2022-07-16T14:40:24+0200</time>
      </trkpt>
      <trkpt lat="45.02903" lon="6.48438">
        <ele>2198.6</ele>
        <time>2022-07-16T14:40:26+0200</time>
      </trkpt>
      <trkpt lat="45.02902" lon="6.48432">
        <ele>2197.6</ele>
        <time>2022-07-16T14:40:28+0200</time>
      </trkpt>
      <trkpt lat="45.02904" lon="6.48424">
        <ele>2196.7</ele>
        <time>2022-07-16T14:40:30+0200</time>
      </trkpt>
      <trkpt lat="45.02904" lon="6.48417">
        <ele>2195.7</ele>
        <time>2022-07-16T14:40:31+0200</time>
      </trkpt>
      <trkpt lat="45.02904" lon="6.48409">
        <ele>2194.4</ele>
        <time>2022-07-16T14:40:32+0200</time>
      </trkpt>
      <trkpt lat="45.02905" lon="6.484">
        <ele>2192.9</ele>
        <time>2022-07-16T14:40:33+0200</time>
      </trkpt>
      <trkpt lat="45.02903" lon="6.48391">
        <ele>2191.4</ele>
        <time>2022-07-16T14:40:34+0200</time>
      </trkpt>
      <trkpt lat="45.02904" lon="6.48384">
        <ele>2190.1</ele>
        <time>2022-07-16T14:40:36+0200</time>
      </trkpt>
      <trkpt lat="45.02905" lon="6.48377">
        <ele>2188.6</ele>
        <time>2022-07-16T14:40:38+0200</time>
      </trkpt>
      <trkpt lat="45.02905" lon="6.48368">
        <ele>2186.6</ele>
        <time>2022-07-16T14:40:40+0200</time>
      </trkpt>
      <trkpt lat="45.02906" lon="6.48362">
        <ele>2185.1</ele>
        <time>2022-07-16T14:40:41+0200</time>
      </trkpt>
      <trkpt lat="45.02904" lon="6.48352">
        <ele>2183.4</ele>
        <time>2022-07-16T14:40:45+0200</time>
      </trkpt>
      <trkpt lat="45.02902" lon="6.48344">
        <ele>2182.8</ele>
        <time>2022-07-16T14:40:48+0200</time>
      </trkpt>
      <trkpt lat="45.02902" lon="6.48337">
        <ele>2181.4</ele>
        <time>2022-07-16T14:40:50+0200</time>
      </trkpt>
      <trkpt lat="45.02903" lon="6.4833">
        <ele>2179.7</ele>
        <time>2022-07-16T14:40:53+0200</time>
      </trkpt>
      <trkpt lat="45.02901" lon="6.48323">
        <ele>2179.5</ele>
        <time>2022-07-16T14:41:01+0200</time>
      </trkpt>
      <trkpt lat="45.02899" lon="6.48315">
        <ele>2179</ele>
        <time>2022-07-16T14:41:04+0200</time>
      </trkpt>
      <trkpt lat="45.02895" lon="6.4831">
        <ele>2179.4</ele>
        <time>2022-07-16T14:41:06+0200</time>
      </trkpt>
      <trkpt lat="45.02892" lon="6.48304">
        <ele>2179.6</ele>
        <time>2022-07-16T14:41:08+0200</time>
      </trkpt>
      <trkpt lat="45.02888" lon="6.48299">
        <ele>2180.1</ele>
        <time>2022-07-16T14:41:12+0200</time>
      </trkpt>
      <trkpt lat="45.02885" lon="6.48293">
        <ele>2179.5</ele>
        <time>2022-07-16T14:41:14+0200</time>
      </trkpt>
      <trkpt lat="45.0288" lon="6.48288">
        <ele>2179.1</ele>
        <time>2022-07-16T14:41:17+0200</time>
      </trkpt>
      <trkpt lat="45.02877" lon="6.48281">
        <ele>2178</ele>
        <time>2022-07-16T14:41:19+0200</time>
      </trkpt>
      <trkpt lat="45.02871" lon="6.48273">
        <ele>2176.6</ele>
        <time>2022-07-16T14:41:21+0200</time>
      </trkpt>
      <trkpt lat="45.02868" lon="6.48264">
        <ele>2175</ele>
        <time>2022-07-16T14:41:23+0200</time>
      </trkpt>
      <trkpt lat="45.02866" lon="6.48259">
        <ele>2174.1</ele>
        <time>2022-07-16T14:41:24+0200</time>
      </trkpt>
      <trkpt lat="45.02862" lon="6.48251">
        <ele>2173.1</ele>
        <time>2022-07-16T14:41:26+0200</time>
      </trkpt>
      <trkpt lat="45.02859" lon="6.4824">
        <ele>2169.3</ele>
        <time>2022-07-16T14:41:28+0200</time>
      </trkpt>
      <trkpt lat="45.02858" lon="6.48233">
        <ele>2167.1</ele>
        <time>2022-07-16T14:41:29+0200</time>
      </trkpt>
      <trkpt lat="45.0286" lon="6.48224">
        <ele>2164.6</ele>
        <time>2022-07-16T14:41:31+0200</time>
      </trkpt>
      <trkpt lat="45.02864" lon="6.48219">
        <ele>2162.5</ele>
        <time>2022-07-16T14:41:32+0200</time>
      </trkpt>
      <trkpt lat="45.02866" lon="6.48207">
        <ele>2158.2</ele>
        <time>2022-07-16T14:41:34+0200</time>
      </trkpt>
      <trkpt lat="45.02862" lon="6.48199">
        <ele>2155.7</ele>
        <time>2022-07-16T14:41:35+0200</time>
      </trkpt>
      <trkpt lat="45.02859" lon="6.48194">
        <ele>2153.6</ele>
        <time>2022-07-16T14:41:36+0200</time>
      </trkpt>
      <trkpt lat="45.02853" lon="6.48183">
        <ele>2149.3</ele>
        <time>2022-07-16T14:41:38+0200</time>
      </trkpt>
      <trkpt lat="45.02851" lon="6.48177">
        <ele>2147</ele>
        <time>2022-07-16T14:41:39+0200</time>
      </trkpt>
      <trkpt lat="45.02847" lon="6.48174">
        <ele>2145.6</ele>
        <time>2022-07-16T14:41:41+0200</time>
      </trkpt>
      <trkpt lat="45.0284" lon="6.4817">
        <ele>2144.2</ele>
        <time>2022-07-16T14:41:43+0200</time>
      </trkpt>
      <trkpt lat="45.02834" lon="6.48171">
        <ele>2144.5</ele>
        <time>2022-07-16T14:41:45+0200</time>
      </trkpt>
      <trkpt lat="45.02829" lon="6.48167">
        <ele>2142.5</ele>
        <time>2022-07-16T14:41:47+0200</time>
      </trkpt>
      <trkpt lat="45.02823" lon="6.48163">
        <ele>2139.9</ele>
        <time>2022-07-16T14:41:49+0200</time>
      </trkpt>
      <trkpt lat="45.02818" lon="6.48159">
        <ele>2137.7</ele>
        <time>2022-07-16T14:41:51+0200</time>
      </trkpt>
      <trkpt lat="45.02813" lon="6.48153">
        <ele>2134.8</ele>
        <time>2022-07-16T14:41:53+0200</time>
      </trkpt>
      <trkpt lat="45.02809" lon="6.48148">
        <ele>2133</ele>
        <time>2022-07-16T14:41:54+0200</time>
      </trkpt>
      <trkpt lat="45.02803" lon="6.48141">
        <ele>2130.6</ele>
        <time>2022-07-16T14:41:56+0200</time>
      </trkpt>
      <trkpt lat="45.02798" lon="6.48136">
        <ele>2128.9</ele>
        <time>2022-07-16T14:41:58+0200</time>
      </trkpt>
      <trkpt lat="45.02794" lon="6.48133">
        <ele>2127.6</ele>
        <time>2022-07-16T14:42:00+0200</time>
      </trkpt>
      <trkpt lat="45.02793" lon="6.48126">
        <ele>2125.4</ele>
        <time>2022-07-16T14:42:03+0200</time>
      </trkpt>
      <trkpt lat="45.02789" lon="6.4812">
        <ele>2123.8</ele>
        <time>2022-07-16T14:42:06+0200</time>
      </trkpt>
      <trkpt lat="45.02784" lon="6.48118">
        <ele>2123.2</ele>
        <time>2022-07-16T14:42:09+0200</time>
      </trkpt>
      <trkpt lat="45.0278" lon="6.48113">
        <ele>2121.5</ele>
        <time>2022-07-16T14:42:12+0200</time>
      </trkpt>
      <trkpt lat="45.02776" lon="6.48112">
        <ele>2120.8</ele>
        <time>2022-07-16T14:42:15+0200</time>
      </trkpt>
      <trkpt lat="45.0277" lon="6.48113">
        <ele>2120.2</ele>
        <time>2022-07-16T14:42:18+0200</time>
      </trkpt>
      <trkpt lat="45.02768" lon="6.48106">
        <ele>2117.6</ele>
        <time>2022-07-16T14:42:23+0200</time>
      </trkpt>
      <trkpt lat="45.02766" lon="6.481">
        <ele>2115.4</ele>
        <time>2022-07-16T14:42:25+0200</time>
      </trkpt>
      <trkpt lat="45.02767" lon="6.48092">
        <ele>2113</ele>
        <time>2022-07-16T14:42:28+0200</time>
      </trkpt>
      <trkpt lat="45.02771" lon="6.48088">
        <ele>2112.3</ele>
        <time>2022-07-16T14:42:30+0200</time>
      </trkpt>
      <trkpt lat="45.02774" lon="6.48083">
        <ele>2111.2</ele>
        <time>2022-07-16T14:42:32+0200</time>
      </trkpt>
      <trkpt lat="45.02779" lon="6.48076">
        <ele>2109.7</ele>
        <time>2022-07-16T14:42:35+0200</time>
      </trkpt>
      <trkpt lat="45.02784" lon="6.48071">
        <ele>2106.8</ele>
        <time>2022-07-16T14:42:38+0200</time>
      </trkpt>
      <trkpt lat="45.0279" lon="6.48066">
        <ele>2103.8</ele>
        <time>2022-07-16T14:42:41+0200</time>
      </trkpt>
      <trkpt lat="45.02792" lon="6.48058">
        <ele>2100.1</ele>
        <time>2022-07-16T14:42:47+0200</time>
      </trkpt>
      <trkpt lat="45.02791" lon="6.48051">
        <ele>2097.8</ele>
        <time>2022-07-16T14:42:49+0200</time>
      </trkpt>
      <trkpt lat="45.02787" lon="6.48047">
        <ele>2097.3</ele>
        <time>2022-07-16T14:42:51+0200</time>
      </trkpt>
      <trkpt lat="45.02782" lon="6.48039">
        <ele>2095.8</ele>
        <time>2022-07-16T14:42:53+0200</time>
      </trkpt>
      <trkpt lat="45.0278" lon="6.48033">
        <ele>2094.4</ele>
        <time>2022-07-16T14:42:55+0200</time>
      </trkpt>
      <trkpt lat="45.02779" lon="6.48026">
        <ele>2091.6</ele>
        <time>2022-07-16T14:42:59+0200</time>
      </trkpt>
      <trkpt lat="45.02775" lon="6.48022">
        <ele>2089.6</ele>
        <time>2022-07-16T14:43:04+0200</time>
      </trkpt>
      <trkpt lat="45.0277" lon="6.48018">
        <ele>2087.4</ele>
        <time>2022-07-16T14:43:08+0200</time>
      </trkpt>
      <trkpt lat="45.02766" lon="6.48015">
        <ele>2086.4</ele>
        <time>2022-07-16T14:43:11+0200</time>
      </trkpt>
      <trkpt lat="45.0276" lon="6.48012">
        <ele>2085.5</ele>
        <time>2022-07-16T14:43:14+0200</time>
      </trkpt>
      <trkpt lat="45.02755" lon="6.48012">
        <ele>2086.3</ele>
        <time>2022-07-16T14:43:19+0200</time>
      </trkpt>
      <trkpt lat="45.02751" lon="6.48014">
        <ele>2087.5</ele>
        <time>2022-07-16T14:43:24+0200</time>
      </trkpt>
      <trkpt lat="45.02746" lon="6.48016">
        <ele>2088</ele>
        <time>2022-07-16T14:43:31+0200</time>
      </trkpt>
      <trkpt lat="45.02742" lon="6.48014">
        <ele>2087.7</ele>
        <time>2022-07-16T14:43:40+0200</time>
      </trkpt>
      <trkpt lat="45.0274" lon="6.48007">
        <ele>2085.7</ele>
        <time>2022-07-16T14:44:15+0200</time>
      </trkpt>
      <trkpt lat="45.02736" lon="6.47999">
        <ele>2083.7</ele>
        <time>2022-07-16T14:44:19+0200</time>
      </trkpt>
      <trkpt lat="45.02732" lon="6.47993">
        <ele>2081.9</ele>
        <time>2022-07-16T14:44:23+0200</time>
      </trkpt>
      <trkpt lat="45.0273" lon="6.47986">
        <ele>2080.1</ele>
        <time>2022-07-16T14:44:26+0200</time>
      </trkpt>
      <trkpt lat="45.02726" lon="6.4798">
        <ele>2078.1</ele>
        <time>2022-07-16T14:44:30+0200</time>
      </trkpt>
      <trkpt lat="45.02723" lon="6.47975">
        <ele>2076.7</ele>
        <time>2022-07-16T14:44:32+0200</time>
      </trkpt>
      <trkpt lat="45.02719" lon="6.4797">
        <ele>2075</ele>
        <time>2022-07-16T14:44:34+0200</time>
      </trkpt>
      <trkpt lat="45.02714" lon="6.47964">
        <ele>2072.3</ele>
        <time>2022-07-16T14:44:36+0200</time>
      </trkpt>
      <trkpt lat="45.0271" lon="6.47962">
        <ele>2071.1</ele>
        <time>2022-07-16T14:44:38+0200</time>
      </trkpt>
      <trkpt lat="45.02705" lon="6.4796">
        <ele>2069.8</ele>
        <time>2022-07-16T14:44:41+0200</time>
      </trkpt>
      <trkpt lat="45.02699" lon="6.47961">
        <ele>2069</ele>
        <time>2022-07-16T14:44:48+0200</time>
      </trkpt>
      <trkpt lat="45.02693" lon="6.47961">
        <ele>2068.2</ele>
        <time>2022-07-16T14:44:54+0200</time>
      </trkpt>
      <trkpt lat="45.02688" lon="6.4796">
        <ele>2066.8</ele>
        <time>2022-07-16T14:44:59+0200</time>
      </trkpt>
      <trkpt lat="45.02683" lon="6.47958">
        <ele>2065.1</ele>
        <time>2022-07-16T14:45:07+0200</time>
      </trkpt>
      <trkpt lat="45.02679" lon="6.47952">
        <ele>2062.3</ele>
        <time>2022-07-16T14:45:12+0200</time>
      </trkpt>
      <trkpt lat="45.02672" lon="6.47952">
        <ele>2061.1</ele>
        <time>2022-07-16T14:45:14+0200</time>
      </trkpt>
      <trkpt lat="45.02668" lon="6.47956">
        <ele>2061.3</ele>
        <time>2022-07-16T14:45:16+0200</time>
      </trkpt>
      <trkpt lat="45.02665" lon="6.47962">
        <ele>2062</ele>
        <time>2022-07-16T14:45:19+0200</time>
      </trkpt>
      <trkpt lat="45.02658" lon="6.47961">
        <ele>2060.8</ele>
        <time>2022-07-16T14:45:22+0200</time>
      </trkpt>
      <trkpt lat="45.02654" lon="6.47955">
        <ele>2058.3</ele>
        <time>2022-07-16T14:45:38+0200</time>
      </trkpt>
      <trkpt lat="45.0265" lon="6.47953">
        <ele>2056.7</ele>
        <time>2022-07-16T14:45:43+0200</time>
      </trkpt>
      <trkpt lat="45.02647" lon="6.47947">
        <ele>2054.6</ele>
        <time>2022-07-16T14:45:52+0200</time>
      </trkpt>
      <trkpt lat="45.02652" lon="6.47943">
        <ele>2054.4</ele>
        <time>2022-07-16T14:45:56+0200</time>
      </trkpt>
      <trkpt lat="45.0265" lon="6.47936">
        <ele>2052</ele>
        <time>2022-07-16T14:45:59+0200</time>
      </trkpt>
      <trkpt lat="45.02646" lon="6.47932">
        <ele>2050</ele>
        <time>2022-07-16T14:46:02+0200</time>
      </trkpt>
      <trkpt lat="45.02641" lon="6.47929">
        <ele>2048.1</ele>
        <time>2022-07-16T14:46:05+0200</time>
      </trkpt>
      <trkpt lat="45.02638" lon="6.47924">
        <ele>2046</ele>
        <time>2022-07-16T14:46:08+0200</time>
      </trkpt>
      <trkpt lat="45.02635" lon="6.47917">
        <ele>2044.1</ele>
        <time>2022-07-16T14:46:11+0200</time>
      </trkpt>
      <trkpt lat="45.02633" lon="6.47911">
        <ele>2042.8</ele>
        <time>2022-07-16T14:46:13+0200</time>
      </trkpt>
      <trkpt lat="45.02631" lon="6.47904">
        <ele>2041.2</ele>
        <time>2022-07-16T14:46:15+0200</time>
      </trkpt>
      <trkpt lat="45.02626" lon="6.47899">
        <ele>2039.7</ele>
        <time>2022-07-16T14:46:18+0200</time>
      </trkpt>
      <trkpt lat="45.02624" lon="6.47893">
        <ele>2037.9</ele>
        <time>2022-07-16T14:46:20+0200</time>
      </trkpt>
      <trkpt lat="45.02623" lon="6.47884">
        <ele>2035.6</ele>
        <time>2022-07-16T14:46:23+0200</time>
      </trkpt>
      <trkpt lat="45.02619" lon="6.47876">
        <ele>2033.3</ele>
        <time>2022-07-16T14:46:26+0200</time>
      </trkpt>
      <trkpt lat="45.02614" lon="6.47877">
        <ele>2033.1</ele>
        <time>2022-07-16T14:46:28+0200</time>
      </trkpt>
      <trkpt lat="45.02611" lon="6.47868">
        <ele>2030.8</ele>
        <time>2022-07-16T14:46:31+0200</time>
      </trkpt>
      <trkpt lat="45.02606" lon="6.47862">
        <ele>2029.8</ele>
        <time>2022-07-16T14:46:33+0200</time>
      </trkpt>
      <trkpt lat="45.02602" lon="6.47853">
        <ele>2028</ele>
        <time>2022-07-16T14:46:35+0200</time>
      </trkpt>
      <trkpt lat="45.02599" lon="6.47847">
        <ele>2026.8</ele>
        <time>2022-07-16T14:46:37+0200</time>
      </trkpt>
      <trkpt lat="45.02595" lon="6.47837">
        <ele>2024.7</ele>
        <time>2022-07-16T14:46:39+0200</time>
      </trkpt>
      <trkpt lat="45.02592" lon="6.47826">
        <ele>2022.3</ele>
        <time>2022-07-16T14:46:42+0200</time>
      </trkpt>
      <trkpt lat="45.02588" lon="6.47818">
        <ele>2020.8</ele>
        <time>2022-07-16T14:46:44+0200</time>
      </trkpt>
      <trkpt lat="45.02583" lon="6.4781">
        <ele>2019.1</ele>
        <time>2022-07-16T14:46:46+0200</time>
      </trkpt>
      <trkpt lat="45.02582" lon="6.47804">
        <ele>2017.5</ele>
        <time>2022-07-16T14:46:47+0200</time>
      </trkpt>
      <trkpt lat="45.02579" lon="6.47798">
        <ele>2016</ele>
        <time>2022-07-16T14:46:48+0200</time>
      </trkpt>
      <trkpt lat="45.02576" lon="6.47791">
        <ele>2014</ele>
        <time>2022-07-16T14:46:50+0200</time>
      </trkpt>
      <trkpt lat="45.02572" lon="6.47782">
        <ele>2011.6</ele>
        <time>2022-07-16T14:46:52+0200</time>
      </trkpt>
      <trkpt lat="45.02572" lon="6.47773">
        <ele>2009.3</ele>
        <time>2022-07-16T14:46:54+0200</time>
      </trkpt>
      <trkpt lat="45.02576" lon="6.47764">
        <ele>2007.3</ele>
        <time>2022-07-16T14:46:56+0200</time>
      </trkpt>
      <trkpt lat="45.02575" lon="6.47758">
        <ele>2005.9</ele>
        <time>2022-07-16T14:46:58+0200</time>
      </trkpt>
      <trkpt lat="45.02575" lon="6.47751">
        <ele>2004.4</ele>
        <time>2022-07-16T14:47:00+0200</time>
      </trkpt>
      <trkpt lat="45.02576" lon="6.47742">
        <ele>2002.4</ele>
        <time>2022-07-16T14:47:01+0200</time>
      </trkpt>
      <trkpt lat="45.02577" lon="6.4773">
        <ele>1999.7</ele>
        <time>2022-07-16T14:47:03+0200</time>
      </trkpt>
      <trkpt lat="45.02579" lon="6.47719">
        <ele>1997.2</ele>
        <time>2022-07-16T14:47:05+0200</time>
      </trkpt>
      <trkpt lat="45.02581" lon="6.47706">
        <ele>1993.9</ele>
        <time>2022-07-16T14:47:07+0200</time>
      </trkpt>
      <trkpt lat="45.02581" lon="6.47696">
        <ele>1991.4</ele>
        <time>2022-07-16T14:47:08+0200</time>
      </trkpt>
      <trkpt lat="45.02581" lon="6.47686">
        <ele>1989.5</ele>
        <time>2022-07-16T14:47:09+0200</time>
      </trkpt>
      <trkpt lat="45.0258" lon="6.47676">
        <ele>1987.6</ele>
        <time>2022-07-16T14:47:10+0200</time>
      </trkpt>
      <trkpt lat="45.02579" lon="6.47666">
        <ele>1985.9</ele>
        <time>2022-07-16T14:47:11+0200</time>
      </trkpt>
      <trkpt lat="45.02577" lon="6.47659">
        <ele>1984.3</ele>
        <time>2022-07-16T14:47:12+0200</time>
      </trkpt>
      <trkpt lat="45.02574" lon="6.4765">
        <ele>1982.7</ele>
        <time>2022-07-16T14:47:13+0200</time>
      </trkpt>
      <trkpt lat="45.02571" lon="6.47643">
        <ele>1981.3</ele>
        <time>2022-07-16T14:47:14+0200</time>
      </trkpt>
      <trkpt lat="45.02568" lon="6.47638">
        <ele>1980.4</ele>
        <time>2022-07-16T14:47:15+0200</time>
      </trkpt>
      <trkpt lat="45.02565" lon="6.47631">
        <ele>1978.9</ele>
        <time>2022-07-16T14:47:16+0200</time>
      </trkpt>
      <trkpt lat="45.02561" lon="6.47623">
        <ele>1977.4</ele>
        <time>2022-07-16T14:47:17+0200</time>
      </trkpt>
      <trkpt lat="45.02559" lon="6.47616">
        <ele>1975.8</ele>
        <time>2022-07-16T14:47:18+0200</time>
      </trkpt>
      <trkpt lat="45.02559" lon="6.47604">
        <ele>1973.4</ele>
        <time>2022-07-16T14:47:19+0200</time>
      </trkpt>
      <trkpt lat="45.02559" lon="6.47597">
        <ele>1971.9</ele>
        <time>2022-07-16T14:47:21+0200</time>
      </trkpt>
      <trkpt lat="45.02558" lon="6.47583">
        <ele>1968.8</ele>
        <time>2022-07-16T14:47:23+0200</time>
      </trkpt>
      <trkpt lat="45.02556" lon="6.47575">
        <ele>1967.4</ele>
        <time>2022-07-16T14:47:24+0200</time>
      </trkpt>
      <trkpt lat="45.02554" lon="6.47567">
        <ele>1966.2</ele>
        <time>2022-07-16T14:47:25+0200</time>
      </trkpt>
      <trkpt lat="45.02551" lon="6.47557">
        <ele>1964.8</ele>
        <time>2022-07-16T14:47:26+0200</time>
      </trkpt>
      <trkpt lat="45.02547" lon="6.47548">
        <ele>1963.2</ele>
        <time>2022-07-16T14:47:27+0200</time>
      </trkpt>
      <trkpt lat="45.02544" lon="6.47541">
        <ele>1961.8</ele>
        <time>2022-07-16T14:47:28+0200</time>
      </trkpt>
      <trkpt lat="45.02542" lon="6.47534">
        <ele>1960.5</ele>
        <time>2022-07-16T14:47:29+0200</time>
      </trkpt>
      <trkpt lat="45.02541" lon="6.47523">
        <ele>1958.2</ele>
        <time>2022-07-16T14:47:31+0200</time>
      </trkpt>
      <trkpt lat="45.02537" lon="6.47511">
        <ele>1956.4</ele>
        <time>2022-07-16T14:47:33+0200</time>
      </trkpt>
      <trkpt lat="45.02535" lon="6.47505">
        <ele>1955.4</ele>
        <time>2022-07-16T14:47:34+0200</time>
      </trkpt>
      <trkpt lat="45.02534" lon="6.47494">
        <ele>1953.4</ele>
        <time>2022-07-16T14:47:36+0200</time>
      </trkpt>
      <trkpt lat="45.02533" lon="6.47487">
        <ele>1951.9</ele>
        <time>2022-07-16T14:47:38+0200</time>
      </trkpt>
      <trkpt lat="45.02537" lon="6.47477">
        <ele>1949.6</ele>
        <time>2022-07-16T14:47:40+0200</time>
      </trkpt>
      <trkpt lat="45.02543" lon="6.47471">
        <ele>1948.3</ele>
        <time>2022-07-16T14:47:41+0200</time>
      </trkpt>
      <trkpt lat="45.02547" lon="6.47464">
        <ele>1946.8</ele>
        <time>2022-07-16T14:47:42+0200</time>
      </trkpt>
      <trkpt lat="45.02551" lon="6.47458">
        <ele>1945.6</ele>
        <time>2022-07-16T14:47:44+0200</time>
      </trkpt>
      <trkpt lat="45.02556" lon="6.47457">
        <ele>1945.3</ele>
        <time>2022-07-16T14:48:10+0200</time>
      </trkpt>
      <trkpt lat="45.02563" lon="6.47456">
        <ele>1945</ele>
        <time>2022-07-16T14:48:12+0200</time>
      </trkpt>
      <trkpt lat="45.02569" lon="6.47455">
        <ele>1944.7</ele>
        <time>2022-07-16T14:48:14+0200</time>
      </trkpt>
      <trkpt lat="45.02578" lon="6.47449">
        <ele>1943.6</ele>
        <time>2022-07-16T14:48:16+0200</time>
      </trkpt>
      <trkpt lat="45.02583" lon="6.47443">
        <ele>1942.8</ele>
        <time>2022-07-16T14:48:17+0200</time>
      </trkpt>
      <trkpt lat="45.02587" lon="6.47438">
        <ele>1941.8</ele>
        <time>2022-07-16T14:48:18+0200</time>
      </trkpt>
      <trkpt lat="45.02586" lon="6.47428">
        <ele>1940.1</ele>
        <time>2022-07-16T14:48:20+0200</time>
      </trkpt>
      <trkpt lat="45.02587" lon="6.47416">
        <ele>1937.9</ele>
        <time>2022-07-16T14:48:22+0200</time>
      </trkpt>
      <trkpt lat="45.02585" lon="6.47404">
        <ele>1935.8</ele>
        <time>2022-07-16T14:48:24+0200</time>
      </trkpt>
      <trkpt lat="45.02579" lon="6.47394">
        <ele>1934.1</ele>
        <time>2022-07-16T14:48:26+0200</time>
      </trkpt>
      <trkpt lat="45.02575" lon="6.47389">
        <ele>1933.3</ele>
        <time>2022-07-16T14:48:27+0200</time>
      </trkpt>
      <trkpt lat="45.02568" lon="6.47383">
        <ele>1932.7</ele>
        <time>2022-07-16T14:48:28+0200</time>
      </trkpt>
      <trkpt lat="45.02563" lon="6.47376">
        <ele>1931.9</ele>
        <time>2022-07-16T14:48:29+0200</time>
      </trkpt>
      <trkpt lat="45.0256" lon="6.47368">
        <ele>1930.8</ele>
        <time>2022-07-16T14:48:30+0200</time>
      </trkpt>
      <trkpt lat="45.02555" lon="6.47359">
        <ele>1929.7</ele>
        <time>2022-07-16T14:48:31+0200</time>
      </trkpt>
      <trkpt lat="45.02549" lon="6.47352">
        <ele>1928.5</ele>
        <time>2022-07-16T14:48:32+0200</time>
      </trkpt>
      <trkpt lat="45.02544" lon="6.47343">
        <ele>1927</ele>
        <time>2022-07-16T14:48:33+0200</time>
      </trkpt>
      <trkpt lat="45.02539" lon="6.47333">
        <ele>1925.6</ele>
        <time>2022-07-16T14:48:34+0200</time>
      </trkpt>
      <trkpt lat="45.02534" lon="6.47324">
        <ele>1924.4</ele>
        <time>2022-07-16T14:48:35+0200</time>
      </trkpt>
      <trkpt lat="45.02527" lon="6.47317">
        <ele>1923.7</ele>
        <time>2022-07-16T14:48:36+0200</time>
      </trkpt>
      <trkpt lat="45.02521" lon="6.47307">
        <ele>1921.9</ele>
        <time>2022-07-16T14:48:37+0200</time>
      </trkpt>
      <trkpt lat="45.02515" lon="6.47296">
        <ele>1920</ele>
        <time>2022-07-16T14:48:38+0200</time>
      </trkpt>
      <trkpt lat="45.02509" lon="6.47284">
        <ele>1918</ele>
        <time>2022-07-16T14:48:39+0200</time>
      </trkpt>
      <trkpt lat="45.02503" lon="6.47274">
        <ele>1916.5</ele>
        <time>2022-07-16T14:48:40+0200</time>
      </trkpt>
      <trkpt lat="45.02498" lon="6.47266">
        <ele>1915.2</ele>
        <time>2022-07-16T14:48:41+0200</time>
      </trkpt>
      <trkpt lat="45.02493" lon="6.47258">
        <ele>1914</ele>
        <time>2022-07-16T14:48:42+0200</time>
      </trkpt>
      <trkpt lat="45.02488" lon="6.47248">
        <ele>1912.8</ele>
        <time>2022-07-16T14:48:43+0200</time>
      </trkpt>
      <trkpt lat="45.02484" lon="6.47238">
        <ele>1911.7</ele>
        <time>2022-07-16T14:48:44+0200</time>
      </trkpt>
      <trkpt lat="45.0248" lon="6.4723">
        <ele>1910.9</ele>
        <time>2022-07-16T14:48:45+0200</time>
      </trkpt>
      <trkpt lat="45.02476" lon="6.47223">
        <ele>1910.1</ele>
        <time>2022-07-16T14:48:46+0200</time>
      </trkpt>
      <trkpt lat="45.02472" lon="6.47217">
        <ele>1909.4</ele>
        <time>2022-07-16T14:48:47+0200</time>
      </trkpt>
      <trkpt lat="45.02466" lon="6.47206">
        <ele>1907.8</ele>
        <time>2022-07-16T14:48:49+0200</time>
      </trkpt>
      <trkpt lat="45.02462" lon="6.47201">
        <ele>1907</ele>
        <time>2022-07-16T14:48:50+0200</time>
      </trkpt>
      <trkpt lat="45.02457" lon="6.47195">
        <ele>1906</ele>
        <time>2022-07-16T14:48:51+0200</time>
      </trkpt>
      <trkpt lat="45.02453" lon="6.47186">
        <ele>1904.9</ele>
        <time>2022-07-16T14:48:52+0200</time>
      </trkpt>
      <trkpt lat="45.02447" lon="6.47177">
        <ele>1903.8</ele>
        <time>2022-07-16T14:48:53+0200</time>
      </trkpt>
      <trkpt lat="45.0244" lon="6.47167">
        <ele>1902.9</ele>
        <time>2022-07-16T14:48:54+0200</time>
      </trkpt>
      <trkpt lat="45.02434" lon="6.47157">
        <ele>1901.4</ele>
        <time>2022-07-16T14:48:55+0200</time>
      </trkpt>
      <trkpt lat="45.02428" lon="6.47148">
        <ele>1900</ele>
        <time>2022-07-16T14:48:56+0200</time>
      </trkpt>
      <trkpt lat="45.02424" lon="6.47139">
        <ele>1898.5</ele>
        <time>2022-07-16T14:48:57+0200</time>
      </trkpt>
      <trkpt lat="45.02419" lon="6.47129">
        <ele>1897.4</ele>
        <time>2022-07-16T14:48:58+0200</time>
      </trkpt>
      <trkpt lat="45.02413" lon="6.47118">
        <ele>1896.7</ele>
        <time>2022-07-16T14:48:59+0200</time>
      </trkpt>
      <trkpt lat="45.02407" lon="6.47108">
        <ele>1895.9</ele>
        <time>2022-07-16T14:49:00+0200</time>
      </trkpt>
      <trkpt lat="45.02402" lon="6.471">
        <ele>1894.8</ele>
        <time>2022-07-16T14:49:01+0200</time>
      </trkpt>
      <trkpt lat="45.02398" lon="6.47091">
        <ele>1893.6</ele>
        <time>2022-07-16T14:49:02+0200</time>
      </trkpt>
      <trkpt lat="45.02394" lon="6.47083">
        <ele>1892.2</ele>
        <time>2022-07-16T14:49:03+0200</time>
      </trkpt>
      <trkpt lat="45.02389" lon="6.47075">
        <ele>1890.8</ele>
        <time>2022-07-16T14:49:04+0200</time>
      </trkpt>
      <trkpt lat="45.02385" lon="6.47068">
        <ele>1890.2</ele>
        <time>2022-07-16T14:49:05+0200</time>
      </trkpt>
      <trkpt lat="45.02381" lon="6.47061">
        <ele>1889.4</ele>
        <time>2022-07-16T14:49:06+0200</time>
      </trkpt>
      <trkpt lat="45.02376" lon="6.47055">
        <ele>1888.9</ele>
        <time>2022-07-16T14:49:07+0200</time>
      </trkpt>
      <trkpt lat="45.02372" lon="6.47048">
        <ele>1888.2</ele>
        <time>2022-07-16T14:49:07+0200</time>
      </trkpt>
      <trkpt lat="45.02367" lon="6.4704">
        <ele>1887.2</ele>
        <time>2022-07-16T14:49:08+0200</time>
      </trkpt>
      <trkpt lat="45.02362" lon="6.47033">
        <ele>1885.9</ele>
        <time>2022-07-16T14:49:09+0200</time>
      </trkpt>
      <trkpt lat="45.02356" lon="6.47026">
        <ele>1884.9</ele>
        <time>2022-07-16T14:49:10+0200</time>
      </trkpt>
      <trkpt lat="45.0235" lon="6.47021">
        <ele>1884.4</ele>
        <time>2022-07-16T14:49:11+0200</time>
      </trkpt>
      <trkpt lat="45.02344" lon="6.47019">
        <ele>1884.2</ele>
        <time>2022-07-16T14:49:12+0200</time>
      </trkpt>
      <trkpt lat="45.02339" lon="6.47015">
        <ele>1883.6</ele>
        <time>2022-07-16T14:49:13+0200</time>
      </trkpt>
      <trkpt lat="45.02335" lon="6.47008">
        <ele>1882.4</ele>
        <time>2022-07-16T14:49:14+0200</time>
      </trkpt>
      <trkpt lat="45.0233" lon="6.47003">
        <ele>1881.4</ele>
        <time>2022-07-16T14:49:15+0200</time>
      </trkpt>
      <trkpt lat="45.02326" lon="6.46999">
        <ele>1880.6</ele>
        <time>2022-07-16T14:49:16+0200</time>
      </trkpt>
      <trkpt lat="45.02322" lon="6.46994">
        <ele>1880</ele>
        <time>2022-07-16T14:49:17+0200</time>
      </trkpt>
      <trkpt lat="45.02314" lon="6.46991">
        <ele>1879.4</ele>
        <time>2022-07-16T14:49:19+0200</time>
      </trkpt>
      <trkpt lat="45.02306" lon="6.46994">
        <ele>1879.3</ele>
        <time>2022-07-16T14:49:22+0200</time>
      </trkpt>
      <trkpt lat="45.023" lon="6.46994">
        <ele>1878.5</ele>
        <time>2022-07-16T14:49:23+0200</time>
      </trkpt>
      <trkpt lat="45.02296" lon="6.46996">
        <ele>1878</ele>
        <time>2022-07-16T14:49:24+0200</time>
      </trkpt>
      <trkpt lat="45.02285" lon="6.47002">
        <ele>1876.5</ele>
        <time>2022-07-16T14:49:25+0200</time>
      </trkpt>
      <trkpt lat="45.02275" lon="6.47006">
        <ele>1875.5</ele>
        <time>2022-07-16T14:49:26+0200</time>
      </trkpt>
      <trkpt lat="45.02266" lon="6.4701">
        <ele>1875.2</ele>
        <time>2022-07-16T14:49:27+0200</time>
      </trkpt>
      <trkpt lat="45.02258" lon="6.4701">
        <ele>1874.2</ele>
        <time>2022-07-16T14:49:28+0200</time>
      </trkpt>
      <trkpt lat="45.02249" lon="6.47006">
        <ele>1872.9</ele>
        <time>2022-07-16T14:49:29+0200</time>
      </trkpt>
      <trkpt lat="45.02241" lon="6.47003">
        <ele>1872.1</ele>
        <time>2022-07-16T14:49:30+0200</time>
      </trkpt>
      <trkpt lat="45.02233" lon="6.47001">
        <ele>1871.6</ele>
        <time>2022-07-16T14:49:31+0200</time>
      </trkpt>
      <trkpt lat="45.02227" lon="6.46998">
        <ele>1871</ele>
        <time>2022-07-16T14:49:32+0200</time>
      </trkpt>
      <trkpt lat="45.0222" lon="6.46992">
        <ele>1870</ele>
        <time>2022-07-16T14:49:33+0200</time>
      </trkpt>
      <trkpt lat="45.02214" lon="6.46986">
        <ele>1869.1</ele>
        <time>2022-07-16T14:49:34+0200</time>
      </trkpt>
      <trkpt lat="45.02206" lon="6.46982">
        <ele>1868.5</ele>
        <time>2022-07-16T14:49:35+0200</time>
      </trkpt>
      <trkpt lat="45.02199" lon="6.46983">
        <ele>1868.3</ele>
        <time>2022-07-16T14:49:36+0200</time>
      </trkpt>
      <trkpt lat="45.02192" lon="6.46983">
        <ele>1868</ele>
        <time>2022-07-16T14:49:37+0200</time>
      </trkpt>
      <trkpt lat="45.02186" lon="6.46984">
        <ele>1867.6</ele>
        <time>2022-07-16T14:49:38+0200</time>
      </trkpt>
      <trkpt lat="45.0218" lon="6.46984">
        <ele>1867.2</ele>
        <time>2022-07-16T14:49:39+0200</time>
      </trkpt>
      <trkpt lat="45.02174" lon="6.46984">
        <ele>1866.7</ele>
        <time>2022-07-16T14:49:40+0200</time>
      </trkpt>
      <trkpt lat="45.02168" lon="6.46984">
        <ele>1866.2</ele>
        <time>2022-07-16T14:49:41+0200</time>
      </trkpt>
      <trkpt lat="45.02161" lon="6.46985">
        <ele>1865.1</ele>
        <time>2022-07-16T14:49:42+0200</time>
      </trkpt>
      <trkpt lat="45.02155" lon="6.46987">
        <ele>1864.1</ele>
        <time>2022-07-16T14:49:43+0200</time>
      </trkpt>
      <trkpt lat="45.02148" lon="6.46989">
        <ele>1863.2</ele>
        <time>2022-07-16T14:49:44+0200</time>
      </trkpt>
      <trkpt lat="45.0214" lon="6.46993">
        <ele>1862.3</ele>
        <time>2022-07-16T14:49:45+0200</time>
      </trkpt>
      <trkpt lat="45.02132" lon="6.46995">
        <ele>1861.3</ele>
        <time>2022-07-16T14:49:46+0200</time>
      </trkpt>
      <trkpt lat="45.02124" lon="6.46998">
        <ele>1860.7</ele>
        <time>2022-07-16T14:49:47+0200</time>
      </trkpt>
      <trkpt lat="45.02117" lon="6.47002">
        <ele>1860.4</ele>
        <time>2022-07-16T14:49:48+0200</time>
      </trkpt>
      <trkpt lat="45.02111" lon="6.47003">
        <ele>1859.6</ele>
        <time>2022-07-16T14:49:49+0200</time>
      </trkpt>
      <trkpt lat="45.02105" lon="6.47003">
        <ele>1859.2</ele>
        <time>2022-07-16T14:49:50+0200</time>
      </trkpt>
      <trkpt lat="45.021" lon="6.47004">
        <ele>1859</ele>
        <time>2022-07-16T14:49:51+0200</time>
      </trkpt>
      <trkpt lat="45.02092" lon="6.46997">
        <ele>1856.7</ele>
        <time>2022-07-16T14:49:53+0200</time>
      </trkpt>
      <trkpt lat="45.02086" lon="6.46992">
        <ele>1854.5</ele>
        <time>2022-07-16T14:49:55+0200</time>
      </trkpt>
      <trkpt lat="45.0208" lon="6.46991">
        <ele>1853.6</ele>
        <time>2022-07-16T14:49:57+0200</time>
      </trkpt>
      <trkpt lat="45.02074" lon="6.46991">
        <ele>1853.7</ele>
        <time>2022-07-16T14:49:59+0200</time>
      </trkpt>
      <trkpt lat="45.0207" lon="6.46988">
        <ele>1852.5</ele>
        <time>2022-07-16T14:50:00+0200</time>
      </trkpt>
      <trkpt lat="45.02066" lon="6.46982">
        <ele>1850.6</ele>
        <time>2022-07-16T14:50:02+0200</time>
      </trkpt>
      <trkpt lat="45.02063" lon="6.46975">
        <ele>1848.7</ele>
        <time>2022-07-16T14:50:05+0200</time>
      </trkpt>
      <trkpt lat="45.02058" lon="6.46975">
        <ele>1848.7</ele>
        <time>2022-07-16T14:50:07+0200</time>
      </trkpt>
      <trkpt lat="45.02052" lon="6.46973">
        <ele>1847.6</ele>
        <time>2022-07-16T14:50:10+0200</time>
      </trkpt>
      <trkpt lat="45.02045" lon="6.46972">
        <ele>1846.4</ele>
        <time>2022-07-16T14:50:12+0200</time>
      </trkpt>
      <trkpt lat="45.02039" lon="6.46971">
        <ele>1845.1</ele>
        <time>2022-07-16T14:50:14+0200</time>
      </trkpt>
      <trkpt lat="45.02031" lon="6.46969">
        <ele>1843.5</ele>
        <time>2022-07-16T14:50:16+0200</time>
      </trkpt>
      <trkpt lat="45.02027" lon="6.46971">
        <ele>1843.4</ele>
        <time>2022-07-16T14:50:17+0200</time>
      </trkpt>
      <trkpt lat="45.02018" lon="6.46972">
        <ele>1841.8</ele>
        <time>2022-07-16T14:50:19+0200</time>
      </trkpt>
      <trkpt lat="45.02012" lon="6.46971">
        <ele>1840.3</ele>
        <time>2022-07-16T14:50:20+0200</time>
      </trkpt>
      <trkpt lat="45.02007" lon="6.46971">
        <ele>1838.9</ele>
        <time>2022-07-16T14:50:21+0200</time>
      </trkpt>
      <trkpt lat="45.02002" lon="6.46972">
        <ele>1838.3</ele>
        <time>2022-07-16T14:50:22+0200</time>
      </trkpt>
      <trkpt lat="45.01993" lon="6.46976">
        <ele>1837.4</ele>
        <time>2022-07-16T14:50:24+0200</time>
      </trkpt>
      <trkpt lat="45.0199" lon="6.46981">
        <ele>1837.7</ele>
        <time>2022-07-16T14:50:25+0200</time>
      </trkpt>
      <trkpt lat="45.01987" lon="6.46988">
        <ele>1838.7</ele>
        <time>2022-07-16T14:50:26+0200</time>
      </trkpt>
      <trkpt lat="45.01983" lon="6.46994">
        <ele>1839.1</ele>
        <time>2022-07-16T14:50:27+0200</time>
      </trkpt>
      <trkpt lat="45.0198" lon="6.46999">
        <ele>1839</ele>
        <time>2022-07-16T14:50:28+0200</time>
      </trkpt>
      <trkpt lat="45.01974" lon="6.47001">
        <ele>1836.8</ele>
        <time>2022-07-16T14:50:30+0200</time>
      </trkpt>
      <trkpt lat="45.01968" lon="6.47">
        <ele>1835.4</ele>
        <time>2022-07-16T14:50:33+0200</time>
      </trkpt>
      <trkpt lat="45.01966" lon="6.47006">
        <ele>1836.7</ele>
        <time>2022-07-16T14:50:41+0200</time>
      </trkpt>
      <trkpt lat="45.01962" lon="6.47">
        <ele>1833.9</ele>
        <time>2022-07-16T14:50:52+0200</time>
      </trkpt>
      <trkpt lat="45.01963" lon="6.4699">
        <ele>1831.9</ele>
        <time>2022-07-16T14:50:55+0200</time>
      </trkpt>
      <trkpt lat="45.01958" lon="6.46987">
        <ele>1830.1</ele>
        <time>2022-07-16T14:50:57+0200</time>
      </trkpt>
      <trkpt lat="45.01952" lon="6.46985">
        <ele>1828.2</ele>
        <time>2022-07-16T14:50:58+0200</time>
      </trkpt>
      <trkpt lat="45.01946" lon="6.46983">
        <ele>1826.4</ele>
        <time>2022-07-16T14:50:59+0200</time>
      </trkpt>
      <trkpt lat="45.01937" lon="6.4698">
        <ele>1823.5</ele>
        <time>2022-07-16T14:51:01+0200</time>
      </trkpt>
      <trkpt lat="45.01928" lon="6.46978">
        <ele>1821.4</ele>
        <time>2022-07-16T14:51:03+0200</time>
      </trkpt>
      <trkpt lat="45.01924" lon="6.4698">
        <ele>1820.9</ele>
        <time>2022-07-16T14:51:04+0200</time>
      </trkpt>
      <trkpt lat="45.01917" lon="6.46978">
        <ele>1818.9</ele>
        <time>2022-07-16T14:51:05+0200</time>
      </trkpt>
      <trkpt lat="45.01911" lon="6.46976">
        <ele>1816.8</ele>
        <time>2022-07-16T14:51:07+0200</time>
      </trkpt>
      <trkpt lat="45.01906" lon="6.46976">
        <ele>1815.6</ele>
        <time>2022-07-16T14:51:09+0200</time>
      </trkpt>
      <trkpt lat="45.019" lon="6.46983">
        <ele>1816.2</ele>
        <time>2022-07-16T14:51:11+0200</time>
      </trkpt>
      <trkpt lat="45.01895" lon="6.46991">
        <ele>1817.6</ele>
        <time>2022-07-16T14:51:13+0200</time>
      </trkpt>
      <trkpt lat="45.01889" lon="6.46995">
        <ele>1817.2</ele>
        <time>2022-07-16T14:51:14+0200</time>
      </trkpt>
      <trkpt lat="45.01882" lon="6.46993">
        <ele>1813.9</ele>
        <time>2022-07-16T14:51:22+0200</time>
      </trkpt>
      <trkpt lat="45.01877" lon="6.46991">
        <ele>1811.2</ele>
        <time>2022-07-16T14:51:25+0200</time>
      </trkpt>
      <trkpt lat="45.0187" lon="6.46992">
        <ele>1808.3</ele>
        <time>2022-07-16T14:51:29+0200</time>
      </trkpt>
      <trkpt lat="45.01867" lon="6.47003">
        <ele>1811</ele>
        <time>2022-07-16T14:51:31+0200</time>
      </trkpt>
      <trkpt lat="45.01861" lon="6.47007">
        <ele>1809.9</ele>
        <time>2022-07-16T14:51:34+0200</time>
      </trkpt>
      <trkpt lat="45.01855" lon="6.47005">
        <ele>1807.8</ele>
        <time>2022-07-16T14:51:36+0200</time>
      </trkpt>
      <trkpt lat="45.01851" lon="6.47003">
        <ele>1805.7</ele>
        <time>2022-07-16T14:51:38+0200</time>
      </trkpt>
      <trkpt lat="45.01845" lon="6.47001">
        <ele>1803.4</ele>
        <time>2022-07-16T14:51:39+0200</time>
      </trkpt>
      <trkpt lat="45.01839" lon="6.46999">
        <ele>1801.1</ele>
        <time>2022-07-16T14:51:40+0200</time>
      </trkpt>
      <trkpt lat="45.01843" lon="6.46993">
        <ele>1799.8</ele>
        <time>2022-07-16T14:51:47+0200</time>
      </trkpt>
      <trkpt lat="45.01843" lon="6.46987">
        <ele>1797.5</ele>
        <time>2022-07-16T14:51:49+0200</time>
      </trkpt>
      <trkpt lat="45.01844" lon="6.4698">
        <ele>1795.3</ele>
        <time>2022-07-16T14:51:51+0200</time>
      </trkpt>
      <trkpt lat="45.01849" lon="6.4697">
        <ele>1792.3</ele>
        <time>2022-07-16T14:51:53+0200</time>
      </trkpt>
      <trkpt lat="45.01851" lon="6.46963">
        <ele>1788.5</ele>
        <time>2022-07-16T14:51:54+0200</time>
      </trkpt>
      <trkpt lat="45.0185" lon="6.46956">
        <ele>1784.1</ele>
        <time>2022-07-16T14:51:55+0200</time>
      </trkpt>
      <trkpt lat="45.01847" lon="6.46948">
        <ele>1778.9</ele>
        <time>2022-07-16T14:51:57+0200</time>
      </trkpt>
      <trkpt lat="45.01838" lon="6.46939">
        <ele>1777.2</ele>
        <time>2022-07-16T14:51:59+0200</time>
      </trkpt>
      <trkpt lat="45.01834" lon="6.46934">
        <ele>1776.3</ele>
        <time>2022-07-16T14:52:00+0200</time>
      </trkpt>
      <trkpt lat="45.0183" lon="6.4693">
        <ele>1776.9</ele>
        <time>2022-07-16T14:52:01+0200</time>
      </trkpt>
      <trkpt lat="45.01826" lon="6.46926">
        <ele>1777.6</ele>
        <time>2022-07-16T14:52:02+0200</time>
      </trkpt>
      <trkpt lat="45.01823" lon="6.46921">
        <ele>1777.9</ele>
        <time>2022-07-16T14:52:03+0200</time>
      </trkpt>
      <trkpt lat="45.01818" lon="6.46914">
        <ele>1777.7</ele>
        <time>2022-07-16T14:52:04+0200</time>
      </trkpt>
      <trkpt lat="45.01812" lon="6.46903">
        <ele>1776.7</ele>
        <time>2022-07-16T14:52:06+0200</time>
      </trkpt>
      <trkpt lat="45.01807" lon="6.469">
        <ele>1777.1</ele>
        <time>2022-07-16T14:52:07+0200</time>
      </trkpt>
      <trkpt lat="45.018" lon="6.46892">
        <ele>1776.3</ele>
        <time>2022-07-16T14:52:08+0200</time>
      </trkpt>
      <trkpt lat="45.01794" lon="6.46887">
        <ele>1775.9</ele>
        <time>2022-07-16T14:52:09+0200</time>
      </trkpt>
      <trkpt lat="45.01787" lon="6.46881">
        <ele>1775.5</ele>
        <time>2022-07-16T14:52:10+0200</time>
      </trkpt>
      <trkpt lat="45.01782" lon="6.46873">
        <ele>1773.7</ele>
        <time>2022-07-16T14:52:11+0200</time>
      </trkpt>
      <trkpt lat="45.01777" lon="6.46866">
        <ele>1773</ele>
        <time>2022-07-16T14:52:12+0200</time>
      </trkpt>
      <trkpt lat="45.0177" lon="6.46859">
        <ele>1772.6</ele>
        <time>2022-07-16T14:52:14+0200</time>
      </trkpt>
      <trkpt lat="45.01765" lon="6.4685">
        <ele>1771.5</ele>
        <time>2022-07-16T14:52:15+0200</time>
      </trkpt>
      <trkpt lat="45.0176" lon="6.46843">
        <ele>1770.7</ele>
        <time>2022-07-16T14:52:16+0200</time>
      </trkpt>
      <trkpt lat="45.01756" lon="6.46837">
        <ele>1770.5</ele>
        <time>2022-07-16T14:52:17+0200</time>
      </trkpt>
      <trkpt lat="45.01752" lon="6.4683">
        <ele>1769.8</ele>
        <time>2022-07-16T14:52:18+0200</time>
      </trkpt>
      <trkpt lat="45.01746" lon="6.46821">
        <ele>1769.5</ele>
        <time>2022-07-16T14:52:19+0200</time>
      </trkpt>
      <trkpt lat="45.01741" lon="6.46813">
        <ele>1769.1</ele>
        <time>2022-07-16T14:52:20+0200</time>
      </trkpt>
      <trkpt lat="45.01736" lon="6.46803">
        <ele>1768.2</ele>
        <time>2022-07-16T14:52:21+0200</time>
      </trkpt>
      <trkpt lat="45.01732" lon="6.46792">
        <ele>1766.8</ele>
        <time>2022-07-16T14:52:22+0200</time>
      </trkpt>
      <trkpt lat="45.01727" lon="6.46784">
        <ele>1766.2</ele>
        <time>2022-07-16T14:52:23+0200</time>
      </trkpt>
      <trkpt lat="45.01722" lon="6.46778">
        <ele>1766.1</ele>
        <time>2022-07-16T14:52:24+0200</time>
      </trkpt>
      <trkpt lat="45.01715" lon="6.46775">
        <ele>1766.2</ele>
        <time>2022-07-16T14:52:25+0200</time>
      </trkpt>
      <trkpt lat="45.01709" lon="6.46773">
        <ele>1766.1</ele>
        <time>2022-07-16T14:52:26+0200</time>
      </trkpt>
      <trkpt lat="45.01704" lon="6.46771">
        <ele>1766.2</ele>
        <time>2022-07-16T14:52:27+0200</time>
      </trkpt>
      <trkpt lat="45.01695" lon="6.46765">
        <ele>1765.2</ele>
        <time>2022-07-16T14:52:29+0200</time>
      </trkpt>
      <trkpt lat="45.01688" lon="6.4676">
        <ele>1764.4</ele>
        <time>2022-07-16T14:52:30+0200</time>
      </trkpt>
      <trkpt lat="45.01683" lon="6.46756">
        <ele>1763.7</ele>
        <time>2022-07-16T14:52:31+0200</time>
      </trkpt>
      <trkpt lat="45.01678" lon="6.46752">
        <ele>1762.8</ele>
        <time>2022-07-16T14:52:32+0200</time>
      </trkpt>
      <trkpt lat="45.01671" lon="6.46747">
        <ele>1761.7</ele>
        <time>2022-07-16T14:52:33+0200</time>
      </trkpt>
      <trkpt lat="45.01666" lon="6.46741">
        <ele>1759.9</ele>
        <time>2022-07-16T14:52:34+0200</time>
      </trkpt>
      <trkpt lat="45.0166" lon="6.46736">
        <ele>1757.9</ele>
        <time>2022-07-16T14:52:35+0200</time>
      </trkpt>
      <trkpt lat="45.01656" lon="6.46733">
        <ele>1756.7</ele>
        <time>2022-07-16T14:52:36+0200</time>
      </trkpt>
      <trkpt lat="45.01647" lon="6.46736">
        <ele>1756.6</ele>
        <time>2022-07-16T14:52:38+0200</time>
      </trkpt>
      <trkpt lat="45.01642" lon="6.46741">
        <ele>1757</ele>
        <time>2022-07-16T14:52:39+0200</time>
      </trkpt>
      <trkpt lat="45.0164" lon="6.46747">
        <ele>1757.7</ele>
        <time>2022-07-16T14:52:40+0200</time>
      </trkpt>
      <trkpt lat="45.01639" lon="6.46754">
        <ele>1758.2</ele>
        <time>2022-07-16T14:52:41+0200</time>
      </trkpt>
      <trkpt lat="45.01637" lon="6.46762">
        <ele>1758.1</ele>
        <time>2022-07-16T14:52:42+0200</time>
      </trkpt>
      <trkpt lat="45.01634" lon="6.4677">
        <ele>1757.5</ele>
        <time>2022-07-16T14:52:43+0200</time>
      </trkpt>
      <trkpt lat="45.01632" lon="6.46778">
        <ele>1757.3</ele>
        <time>2022-07-16T14:52:44+0200</time>
      </trkpt>
      <trkpt lat="45.0163" lon="6.46788">
        <ele>1757.7</ele>
        <time>2022-07-16T14:52:45+0200</time>
      </trkpt>
      <trkpt lat="45.01627" lon="6.46798">
        <ele>1758</ele>
        <time>2022-07-16T14:52:46+0200</time>
      </trkpt>
      <trkpt lat="45.01622" lon="6.46804">
        <ele>1757.5</ele>
        <time>2022-07-16T14:52:47+0200</time>
      </trkpt>
      <trkpt lat="45.01616" lon="6.46808">
        <ele>1756.9</ele>
        <time>2022-07-16T14:52:48+0200</time>
      </trkpt>
      <trkpt lat="45.01609" lon="6.46809">
        <ele>1755.5</ele>
        <time>2022-07-16T14:52:49+0200</time>
      </trkpt>
      <trkpt lat="45.01602" lon="6.46808">
        <ele>1754.4</ele>
        <time>2022-07-16T14:52:50+0200</time>
      </trkpt>
      <trkpt lat="45.01595" lon="6.46804">
        <ele>1752.3</ele>
        <time>2022-07-16T14:52:51+0200</time>
      </trkpt>
      <trkpt lat="45.0159" lon="6.46804">
        <ele>1751.5</ele>
        <time>2022-07-16T14:52:52+0200</time>
      </trkpt>
      <trkpt lat="45.01585" lon="6.46807">
        <ele>1751.7</ele>
        <time>2022-07-16T14:52:53+0200</time>
      </trkpt>
      <trkpt lat="45.01579" lon="6.46814">
        <ele>1752.2</ele>
        <time>2022-07-16T14:52:55+0200</time>
      </trkpt>
      <trkpt lat="45.0157" lon="6.46815">
        <ele>1750.5</ele>
        <time>2022-07-16T14:52:57+0200</time>
      </trkpt>
      <trkpt lat="45.01565" lon="6.46817">
        <ele>1749.9</ele>
        <time>2022-07-16T14:52:58+0200</time>
      </trkpt>
      <trkpt lat="45.0156" lon="6.46819">
        <ele>1749.4</ele>
        <time>2022-07-16T14:52:59+0200</time>
      </trkpt>
      <trkpt lat="45.01555" lon="6.46823">
        <ele>1749.2</ele>
        <time>2022-07-16T14:53:00+0200</time>
      </trkpt>
      <trkpt lat="45.0155" lon="6.46825">
        <ele>1748.6</ele>
        <time>2022-07-16T14:53:01+0200</time>
      </trkpt>
      <trkpt lat="45.01545" lon="6.46828">
        <ele>1748.1</ele>
        <time>2022-07-16T14:53:02+0200</time>
      </trkpt>
      <trkpt lat="45.01541" lon="6.46832">
        <ele>1748.5</ele>
        <time>2022-07-16T14:53:03+0200</time>
      </trkpt>
      <trkpt lat="45.01536" lon="6.46827">
        <ele>1746</ele>
        <time>2022-07-16T14:53:05+0200</time>
      </trkpt>
      <trkpt lat="45.01538" lon="6.4682">
        <ele>1744.5</ele>
        <time>2022-07-16T14:53:07+0200</time>
      </trkpt>
      <trkpt lat="45.01545" lon="6.46816">
        <ele>1745.1</ele>
        <time>2022-07-16T14:53:09+0200</time>
      </trkpt>
      <trkpt lat="45.01552" lon="6.46808">
        <ele>1744.7</ele>
        <time>2022-07-16T14:53:11+0200</time>
      </trkpt>
      <trkpt lat="45.01556" lon="6.46804">
        <ele>1744.6</ele>
        <time>2022-07-16T14:53:12+0200</time>
      </trkpt>
      <trkpt lat="45.0156" lon="6.468">
        <ele>1744.6</ele>
        <time>2022-07-16T14:53:13+0200</time>
      </trkpt>
      <trkpt lat="45.01564" lon="6.46798">
        <ele>1744.9</ele>
        <time>2022-07-16T14:53:14+0200</time>
      </trkpt>
      <trkpt lat="45.01569" lon="6.46794">
        <ele>1745</ele>
        <time>2022-07-16T14:53:15+0200</time>
      </trkpt>
      <trkpt lat="45.01573" lon="6.46789">
        <ele>1744.7</ele>
        <time>2022-07-16T14:53:16+0200</time>
      </trkpt>
      <trkpt lat="45.01578" lon="6.46786">
        <ele>1744.7</ele>
        <time>2022-07-16T14:53:17+0200</time>
      </trkpt>
      <trkpt lat="45.01582" lon="6.46782">
        <ele>1744.9</ele>
        <time>2022-07-16T14:53:18+0200</time>
      </trkpt>
      <trkpt lat="45.01586" lon="6.46777">
        <ele>1744.3</ele>
        <time>2022-07-16T14:53:19+0200</time>
      </trkpt>
      <trkpt lat="45.0159" lon="6.46774">
        <ele>1743.9</ele>
        <time>2022-07-16T14:53:19+0200</time>
      </trkpt>
      <trkpt lat="45.01595" lon="6.4677">
        <ele>1744.1</ele>
        <time>2022-07-16T14:53:20+0200</time>
      </trkpt>
      <trkpt lat="45.016" lon="6.46767">
        <ele>1744.5</ele>
        <time>2022-07-16T14:53:21+0200</time>
      </trkpt>
      <trkpt lat="45.01605" lon="6.46763">
        <ele>1745.2</ele>
        <time>2022-07-16T14:53:22+0200</time>
      </trkpt>
      <trkpt lat="45.0161" lon="6.46754">
        <ele>1745.2</ele>
        <time>2022-07-16T14:53:24+0200</time>
      </trkpt>
      <trkpt lat="45.01611" lon="6.46747">
        <ele>1744.5</ele>
        <time>2022-07-16T14:53:25+0200</time>
      </trkpt>
      <trkpt lat="45.01611" lon="6.46739">
        <ele>1743.9</ele>
        <time>2022-07-16T14:53:26+0200</time>
      </trkpt>
      <trkpt lat="45.01612" lon="6.46729">
        <ele>1743.1</ele>
        <time>2022-07-16T14:53:27+0200</time>
      </trkpt>
      <trkpt lat="45.01613" lon="6.4672">
        <ele>1742.4</ele>
        <time>2022-07-16T14:53:28+0200</time>
      </trkpt>
      <trkpt lat="45.01614" lon="6.46711">
        <ele>1741.3</ele>
        <time>2022-07-16T14:53:29+0200</time>
      </trkpt>
      <trkpt lat="45.01614" lon="6.46703">
        <ele>1740.4</ele>
        <time>2022-07-16T14:53:30+0200</time>
      </trkpt>
      <trkpt lat="45.01616" lon="6.46695">
        <ele>1739.5</ele>
        <time>2022-07-16T14:53:31+0200</time>
      </trkpt>
      <trkpt lat="45.01618" lon="6.46686">
        <ele>1738.5</ele>
        <time>2022-07-16T14:53:32+0200</time>
      </trkpt>
      <trkpt lat="45.0162" lon="6.46677">
        <ele>1737.1</ele>
        <time>2022-07-16T14:53:33+0200</time>
      </trkpt>
      <trkpt lat="45.01621" lon="6.46669">
        <ele>1735.7</ele>
        <time>2022-07-16T14:53:34+0200</time>
      </trkpt>
      <trkpt lat="45.01623" lon="6.46663">
        <ele>1734.4</ele>
        <time>2022-07-16T14:53:36+0200</time>
      </trkpt>
      <trkpt lat="45.01629" lon="6.46656">
        <ele>1732.8</ele>
        <time>2022-07-16T14:53:38+0200</time>
      </trkpt>
      <trkpt lat="45.01634" lon="6.46656">
        <ele>1733.2</ele>
        <time>2022-07-16T14:53:39+0200</time>
      </trkpt>
      <trkpt lat="45.01638" lon="6.46658">
        <ele>1734</ele>
        <time>2022-07-16T14:53:40+0200</time>
      </trkpt>
      <trkpt lat="45.01643" lon="6.46659">
        <ele>1733.8</ele>
        <time>2022-07-16T14:53:41+0200</time>
      </trkpt>
      <trkpt lat="45.01649" lon="6.4666">
        <ele>1733.2</ele>
        <time>2022-07-16T14:53:42+0200</time>
      </trkpt>
      <trkpt lat="45.01653" lon="6.46661">
        <ele>1733</ele>
        <time>2022-07-16T14:53:43+0200</time>
      </trkpt>
      <trkpt lat="45.01658" lon="6.46662">
        <ele>1732.7</ele>
        <time>2022-07-16T14:53:44+0200</time>
      </trkpt>
      <trkpt lat="45.01664" lon="6.46661">
        <ele>1731.5</ele>
        <time>2022-07-16T14:53:45+0200</time>
      </trkpt>
      <trkpt lat="45.01669" lon="6.46662">
        <ele>1731.3</ele>
        <time>2022-07-16T14:53:46+0200</time>
      </trkpt>
      <trkpt lat="45.01675" lon="6.46662">
        <ele>1731.9</ele>
        <time>2022-07-16T14:53:47+0200</time>
      </trkpt>
      <trkpt lat="45.01681" lon="6.4666">
        <ele>1731.7</ele>
        <time>2022-07-16T14:53:48+0200</time>
      </trkpt>
      <trkpt lat="45.01687" lon="6.46657">
        <ele>1730.9</ele>
        <time>2022-07-16T14:53:49+0200</time>
      </trkpt>
      <trkpt lat="45.01692" lon="6.46655">
        <ele>1730.2</ele>
        <time>2022-07-16T14:53:50+0200</time>
      </trkpt>
      <trkpt lat="45.01697" lon="6.46654">
        <ele>1729.7</ele>
        <time>2022-07-16T14:53:51+0200</time>
      </trkpt>
      <trkpt lat="45.01702" lon="6.46652">
        <ele>1728.8</ele>
        <time>2022-07-16T14:53:52+0200</time>
      </trkpt>
      <trkpt lat="45.01708" lon="6.46651">
        <ele>1728.4</ele>
        <time>2022-07-16T14:53:53+0200</time>
      </trkpt>
      <trkpt lat="45.01715" lon="6.46649">
        <ele>1727.7</ele>
        <time>2022-07-16T14:53:54+0200</time>
      </trkpt>
      <trkpt lat="45.01722" lon="6.46649">
        <ele>1727.2</ele>
        <time>2022-07-16T14:53:55+0200</time>
      </trkpt>
      <trkpt lat="45.01728" lon="6.46646">
        <ele>1725.3</ele>
        <time>2022-07-16T14:53:56+0200</time>
      </trkpt>
      <trkpt lat="45.01732" lon="6.46644">
        <ele>1723.9</ele>
        <time>2022-07-16T14:53:57+0200</time>
      </trkpt>
      <trkpt lat="45.0174" lon="6.46645">
        <ele>1723.3</ele>
        <time>2022-07-16T14:53:59+0200</time>
      </trkpt>
      <trkpt lat="45.01744" lon="6.46649">
        <ele>1724.1</ele>
        <time>2022-07-16T14:54:01+0200</time>
      </trkpt>
      <trkpt lat="45.01749" lon="6.46654">
        <ele>1725</ele>
        <time>2022-07-16T14:54:04+0200</time>
      </trkpt>
      <trkpt lat="45.01757" lon="6.46659">
        <ele>1724.7</ele>
        <time>2022-07-16T14:54:06+0200</time>
      </trkpt>
      <trkpt lat="45.01762" lon="6.46662">
        <ele>1724.1</ele>
        <time>2022-07-16T14:54:07+0200</time>
      </trkpt>
      <trkpt lat="45.01768" lon="6.46666">
        <ele>1723.5</ele>
        <time>2022-07-16T14:54:08+0200</time>
      </trkpt>
      <trkpt lat="45.01773" lon="6.46671">
        <ele>1723.7</ele>
        <time>2022-07-16T14:54:09+0200</time>
      </trkpt>
      <trkpt lat="45.01777" lon="6.46677">
        <ele>1723.9</ele>
        <time>2022-07-16T14:54:10+0200</time>
      </trkpt>
      <trkpt lat="45.01781" lon="6.46683">
        <ele>1724</ele>
        <time>2022-07-16T14:54:11+0200</time>
      </trkpt>
      <trkpt lat="45.01787" lon="6.46689">
        <ele>1723.8</ele>
        <time>2022-07-16T14:54:12+0200</time>
      </trkpt>
      <trkpt lat="45.01792" lon="6.46694">
        <ele>1723.4</ele>
        <time>2022-07-16T14:54:13+0200</time>
      </trkpt>
      <trkpt lat="45.01795" lon="6.46699">
        <ele>1723.3</ele>
        <time>2022-07-16T14:54:14+0200</time>
      </trkpt>
      <trkpt lat="45.01799" lon="6.46705">
        <ele>1723.4</ele>
        <time>2022-07-16T14:54:18+0200</time>
      </trkpt>
      <trkpt lat="45.01804" lon="6.46712">
        <ele>1723.2</ele>
        <time>2022-07-16T14:54:21+0200</time>
      </trkpt>
      <trkpt lat="45.01812" lon="6.46717">
        <ele>1723.3</ele>
        <time>2022-07-16T14:54:23+0200</time>
      </trkpt>
      <trkpt lat="45.01819" lon="6.4671">
        <ele>1721.7</ele>
        <time>2022-07-16T14:54:25+0200</time>
      </trkpt>
      <trkpt lat="45.01821" lon="6.46704">
        <ele>1720.8</ele>
        <time>2022-07-16T14:54:26+0200</time>
      </trkpt>
      <trkpt lat="45.01821" lon="6.46697">
        <ele>1719.8</ele>
        <time>2022-07-16T14:54:29+0200</time>
      </trkpt>
      <trkpt lat="45.01821" lon="6.46688">
        <ele>1718.6</ele>
        <time>2022-07-16T14:54:32+0200</time>
      </trkpt>
      <trkpt lat="45.01819" lon="6.46681">
        <ele>1717.5</ele>
        <time>2022-07-16T14:54:34+0200</time>
      </trkpt>
      <trkpt lat="45.01818" lon="6.46671">
        <ele>1716.1</ele>
        <time>2022-07-16T14:54:36+0200</time>
      </trkpt>
      <trkpt lat="45.01819" lon="6.46663">
        <ele>1714.9</ele>
        <time>2022-07-16T14:54:38+0200</time>
      </trkpt>
      <trkpt lat="45.01819" lon="6.46656">
        <ele>1714</ele>
        <time>2022-07-16T14:54:41+0200</time>
      </trkpt>
      <trkpt lat="45.01816" lon="6.4665">
        <ele>1712.6</ele>
        <time>2022-07-16T14:54:44+0200</time>
      </trkpt>
      <trkpt lat="45.01811" lon="6.46647">
        <ele>1711.7</ele>
        <time>2022-07-16T14:54:46+0200</time>
      </trkpt>
      <trkpt lat="45.01809" lon="6.46637">
        <ele>1710</ele>
        <time>2022-07-16T14:54:49+0200</time>
      </trkpt>
      <trkpt lat="45.01807" lon="6.4663">
        <ele>1708.9</ele>
        <time>2022-07-16T14:54:50+0200</time>
      </trkpt>
      <trkpt lat="45.01801" lon="6.46624">
        <ele>1708.2</ele>
        <time>2022-07-16T14:54:52+0200</time>
      </trkpt>
      <trkpt lat="45.01794" lon="6.4662">
        <ele>1708</ele>
        <time>2022-07-16T14:54:54+0200</time>
      </trkpt>
      <trkpt lat="45.01789" lon="6.46617">
        <ele>1707.7</ele>
        <time>2022-07-16T14:54:55+0200</time>
      </trkpt>
      <trkpt lat="45.01784" lon="6.46614">
        <ele>1707.3</ele>
        <time>2022-07-16T14:54:56+0200</time>
      </trkpt>
      <trkpt lat="45.01777" lon="6.4661">
        <ele>1706.8</ele>
        <time>2022-07-16T14:54:57+0200</time>
      </trkpt>
      <trkpt lat="45.01773" lon="6.46605">
        <ele>1706.2</ele>
        <time>2022-07-16T14:54:58+0200</time>
      </trkpt>
      <trkpt lat="45.01767" lon="6.46598">
        <ele>1705.3</ele>
        <time>2022-07-16T14:54:59+0200</time>
      </trkpt>
      <trkpt lat="45.01759" lon="6.46591">
        <ele>1704.5</ele>
        <time>2022-07-16T14:55:00+0200</time>
      </trkpt>
      <trkpt lat="45.01751" lon="6.46585">
        <ele>1703.3</ele>
        <time>2022-07-16T14:55:01+0200</time>
      </trkpt>
      <trkpt lat="45.01742" lon="6.4658">
        <ele>1702.9</ele>
        <time>2022-07-16T14:55:02+0200</time>
      </trkpt>
      <trkpt lat="45.01734" lon="6.46575">
        <ele>1702.2</ele>
        <time>2022-07-16T14:55:03+0200</time>
      </trkpt>
      <trkpt lat="45.01725" lon="6.4657">
        <ele>1701.6</ele>
        <time>2022-07-16T14:55:04+0200</time>
      </trkpt>
      <trkpt lat="45.01715" lon="6.46567">
        <ele>1701</ele>
        <time>2022-07-16T14:55:05+0200</time>
      </trkpt>
      <trkpt lat="45.01706" lon="6.46564">
        <ele>1700.5</ele>
        <time>2022-07-16T14:55:06+0200</time>
      </trkpt>
      <trkpt lat="45.01697" lon="6.4656">
        <ele>1699.9</ele>
        <time>2022-07-16T14:55:07+0200</time>
      </trkpt>
      <trkpt lat="45.01687" lon="6.46555">
        <ele>1699.7</ele>
        <time>2022-07-16T14:55:08+0200</time>
      </trkpt>
      <trkpt lat="45.01679" lon="6.46548">
        <ele>1699.2</ele>
        <time>2022-07-16T14:55:09+0200</time>
      </trkpt>
      <trkpt lat="45.0167" lon="6.46543">
        <ele>1698.9</ele>
        <time>2022-07-16T14:55:10+0200</time>
      </trkpt>
      <trkpt lat="45.0166" lon="6.46538">
        <ele>1698.9</ele>
        <time>2022-07-16T14:55:11+0200</time>
      </trkpt>
      <trkpt lat="45.01651" lon="6.46534">
        <ele>1698.9</ele>
        <time>2022-07-16T14:55:12+0200</time>
      </trkpt>
      <trkpt lat="45.01641" lon="6.46531">
        <ele>1698.8</ele>
        <time>2022-07-16T14:55:13+0200</time>
      </trkpt>
      <trkpt lat="45.01631" lon="6.46528">
        <ele>1698.1</ele>
        <time>2022-07-16T14:55:14+0200</time>
      </trkpt>
      <trkpt lat="45.01621" lon="6.46526">
        <ele>1697.7</ele>
        <time>2022-07-16T14:55:15+0200</time>
      </trkpt>
      <trkpt lat="45.01611" lon="6.46527">
        <ele>1697.8</ele>
        <time>2022-07-16T14:55:16+0200</time>
      </trkpt>
      <trkpt lat="45.01601" lon="6.4653">
        <ele>1696.6</ele>
        <time>2022-07-16T14:55:17+0200</time>
      </trkpt>
      <trkpt lat="45.0159" lon="6.46532">
        <ele>1695.3</ele>
        <time>2022-07-16T14:55:18+0200</time>
      </trkpt>
      <trkpt lat="45.0158" lon="6.46538">
        <ele>1694.6</ele>
        <time>2022-07-16T14:55:19+0200</time>
      </trkpt>
      <trkpt lat="45.01571" lon="6.46545">
        <ele>1693.9</ele>
        <time>2022-07-16T14:55:20+0200</time>
      </trkpt>
      <trkpt lat="45.01561" lon="6.46554">
        <ele>1693.2</ele>
        <time>2022-07-16T14:55:21+0200</time>
      </trkpt>
      <trkpt lat="45.01552" lon="6.46564">
        <ele>1691.9</ele>
        <time>2022-07-16T14:55:22+0200</time>
      </trkpt>
      <trkpt lat="45.01544" lon="6.46575">
        <ele>1690.9</ele>
        <time>2022-07-16T14:55:23+0200</time>
      </trkpt>
      <trkpt lat="45.01535" lon="6.46588">
        <ele>1690.1</ele>
        <time>2022-07-16T14:55:23+0200</time>
      </trkpt>
      <trkpt lat="45.01526" lon="6.46598">
        <ele>1688.8</ele>
        <time>2022-07-16T14:55:24+0200</time>
      </trkpt>
      <trkpt lat="45.01517" lon="6.46608">
        <ele>1688.5</ele>
        <time>2022-07-16T14:55:25+0200</time>
      </trkpt>
      <trkpt lat="45.01507" lon="6.46618">
        <ele>1687.6</ele>
        <time>2022-07-16T14:55:26+0200</time>
      </trkpt>
      <trkpt lat="45.01498" lon="6.46631">
        <ele>1686.3</ele>
        <time>2022-07-16T14:55:27+0200</time>
      </trkpt>
      <trkpt lat="45.01491" lon="6.46645">
        <ele>1685.3</ele>
        <time>2022-07-16T14:55:28+0200</time>
      </trkpt>
      <trkpt lat="45.01484" lon="6.4666">
        <ele>1684.5</ele>
        <time>2022-07-16T14:55:29+0200</time>
      </trkpt>
      <trkpt lat="45.01476" lon="6.46676">
        <ele>1684.3</ele>
        <time>2022-07-16T14:55:30+0200</time>
      </trkpt>
      <trkpt lat="45.01466" lon="6.46688">
        <ele>1683.8</ele>
        <time>2022-07-16T14:55:31+0200</time>
      </trkpt>
      <trkpt lat="45.01454" lon="6.46699">
        <ele>1683.1</ele>
        <time>2022-07-16T14:55:32+0200</time>
      </trkpt>
      <trkpt lat="45.01443" lon="6.46709">
        <ele>1682.4</ele>
        <time>2022-07-16T14:55:33+0200</time>
      </trkpt>
      <trkpt lat="45.01432" lon="6.46718">
        <ele>1682.3</ele>
        <time>2022-07-16T14:55:34+0200</time>
      </trkpt>
      <trkpt lat="45.01419" lon="6.46727">
        <ele>1682.5</ele>
        <time>2022-07-16T14:55:35+0200</time>
      </trkpt>
      <trkpt lat="45.01407" lon="6.46736">
        <ele>1682.6</ele>
        <time>2022-07-16T14:55:36+0200</time>
      </trkpt>
      <trkpt lat="45.01396" lon="6.46742">
        <ele>1682.2</ele>
        <time>2022-07-16T14:55:37+0200</time>
      </trkpt>
      <trkpt lat="45.01384" lon="6.46747">
        <ele>1682</ele>
        <time>2022-07-16T14:55:38+0200</time>
      </trkpt>
      <trkpt lat="45.01371" lon="6.46749">
        <ele>1681.4</ele>
        <time>2022-07-16T14:55:39+0200</time>
      </trkpt>
      <trkpt lat="45.01361" lon="6.4675">
        <ele>1681</ele>
        <time>2022-07-16T14:55:40+0200</time>
      </trkpt>
      <trkpt lat="45.01349" lon="6.46751">
        <ele>1679.9</ele>
        <time>2022-07-16T14:55:41+0200</time>
      </trkpt>
      <trkpt lat="45.01337" lon="6.46753">
        <ele>1679.1</ele>
        <time>2022-07-16T14:55:42+0200</time>
      </trkpt>
      <trkpt lat="45.01326" lon="6.46756">
        <ele>1678.3</ele>
        <time>2022-07-16T14:55:43+0200</time>
      </trkpt>
      <trkpt lat="45.01315" lon="6.46759">
        <ele>1677.7</ele>
        <time>2022-07-16T14:55:45+0200</time>
      </trkpt>
      <trkpt lat="45.01304" lon="6.46767">
        <ele>1677</ele>
        <time>2022-07-16T14:55:46+0200</time>
      </trkpt>
      <trkpt lat="45.01293" lon="6.46776">
        <ele>1676</ele>
        <time>2022-07-16T14:55:47+0200</time>
      </trkpt>
      <trkpt lat="45.01284" lon="6.46786">
        <ele>1675.5</ele>
        <time>2022-07-16T14:55:48+0200</time>
      </trkpt>
      <trkpt lat="45.01274" lon="6.46797">
        <ele>1674.5</ele>
        <time>2022-07-16T14:55:49+0200</time>
      </trkpt>
      <trkpt lat="45.01263" lon="6.46806">
        <ele>1672.8</ele>
        <time>2022-07-16T14:55:50+0200</time>
      </trkpt>
      <trkpt lat="45.01255" lon="6.4682">
        <ele>1671.8</ele>
        <time>2022-07-16T14:55:51+0200</time>
      </trkpt>
      <trkpt lat="45.01249" lon="6.46833">
        <ele>1670.7</ele>
        <time>2022-07-16T14:55:52+0200</time>
      </trkpt>
      <trkpt lat="45.01242" lon="6.46843">
        <ele>1670.3</ele>
        <time>2022-07-16T14:55:53+0200</time>
      </trkpt>
      <trkpt lat="45.01234" lon="6.46853">
        <ele>1669.6</ele>
        <time>2022-07-16T14:55:54+0200</time>
      </trkpt>
      <trkpt lat="45.01224" lon="6.46864">
        <ele>1668.9</ele>
        <time>2022-07-16T14:55:55+0200</time>
      </trkpt>
      <trkpt lat="45.01214" lon="6.46876">
        <ele>1668.8</ele>
        <time>2022-07-16T14:55:56+0200</time>
      </trkpt>
      <trkpt lat="45.01204" lon="6.46887">
        <ele>1668.1</ele>
        <time>2022-07-16T14:55:57+0200</time>
      </trkpt>
      <trkpt lat="45.01195" lon="6.46898">
        <ele>1667.9</ele>
        <time>2022-07-16T14:55:58+0200</time>
      </trkpt>
      <trkpt lat="45.01183" lon="6.46908">
        <ele>1666.9</ele>
        <time>2022-07-16T14:55:59+0200</time>
      </trkpt>
      <trkpt lat="45.01172" lon="6.46918">
        <ele>1666</ele>
        <time>2022-07-16T14:56:00+0200</time>
      </trkpt>
      <trkpt lat="45.01162" lon="6.46929">
        <ele>1665.2</ele>
        <time>2022-07-16T14:56:01+0200</time>
      </trkpt>
      <trkpt lat="45.01153" lon="6.46938">
        <ele>1664.7</ele>
        <time>2022-07-16T14:56:02+0200</time>
      </trkpt>
      <trkpt lat="45.01143" lon="6.4695">
        <ele>1664</ele>
        <time>2022-07-16T14:56:03+0200</time>
      </trkpt>
      <trkpt lat="45.01131" lon="6.46961">
        <ele>1662.7</ele>
        <time>2022-07-16T14:56:04+0200</time>
      </trkpt>
      <trkpt lat="45.0112" lon="6.46971">
        <ele>1662.3</ele>
        <time>2022-07-16T14:56:05+0200</time>
      </trkpt>
      <trkpt lat="45.0111" lon="6.4698">
        <ele>1662.4</ele>
        <time>2022-07-16T14:56:06+0200</time>
      </trkpt>
      <trkpt lat="45.01097" lon="6.46988">
        <ele>1661.5</ele>
        <time>2022-07-16T14:56:07+0200</time>
      </trkpt>
      <trkpt lat="45.01086" lon="6.46992">
        <ele>1659.7</ele>
        <time>2022-07-16T14:56:08+0200</time>
      </trkpt>
      <trkpt lat="45.01076" lon="6.46997">
        <ele>1658.8</ele>
        <time>2022-07-16T14:56:09+0200</time>
      </trkpt>
      <trkpt lat="45.01068" lon="6.47006">
        <ele>1659</ele>
        <time>2022-07-16T14:56:10+0200</time>
      </trkpt>
      <trkpt lat="45.01054" lon="6.47014">
        <ele>1657.2</ele>
        <time>2022-07-16T14:56:11+0200</time>
      </trkpt>
      <trkpt lat="45.01043" lon="6.4702">
        <ele>1656.2</ele>
        <time>2022-07-16T14:56:12+0200</time>
      </trkpt>
      <trkpt lat="45.01032" lon="6.47028">
        <ele>1655.7</ele>
        <time>2022-07-16T14:56:13+0200</time>
      </trkpt>
      <trkpt lat="45.0102" lon="6.47036">
        <ele>1655.6</ele>
        <time>2022-07-16T14:56:14+0200</time>
      </trkpt>
      <trkpt lat="45.01007" lon="6.47042">
        <ele>1655.1</ele>
        <time>2022-07-16T14:56:15+0200</time>
      </trkpt>
      <trkpt lat="45.00993" lon="6.47047">
        <ele>1653.8</ele>
        <time>2022-07-16T14:56:16+0200</time>
      </trkpt>
      <trkpt lat="45.00981" lon="6.47053">
        <ele>1652.5</ele>
        <time>2022-07-16T14:56:17+0200</time>
      </trkpt>
      <trkpt lat="45.0097" lon="6.4706">
        <ele>1651.4</ele>
        <time>2022-07-16T14:56:18+0200</time>
      </trkpt>
      <trkpt lat="45.00959" lon="6.47067">
        <ele>1650.3</ele>
        <time>2022-07-16T14:56:19+0200</time>
      </trkpt>
      <trkpt lat="45.00949" lon="6.47077">
        <ele>1649.9</ele>
        <time>2022-07-16T14:56:20+0200</time>
      </trkpt>
      <trkpt lat="45.00938" lon="6.47088">
        <ele>1650.1</ele>
        <time>2022-07-16T14:56:21+0200</time>
      </trkpt>
      <trkpt lat="45.00926" lon="6.47095">
        <ele>1650.1</ele>
        <time>2022-07-16T14:56:22+0200</time>
      </trkpt>
      <trkpt lat="45.00914" lon="6.471">
        <ele>1649.3</ele>
        <time>2022-07-16T14:56:23+0200</time>
      </trkpt>
      <trkpt lat="45.00902" lon="6.47105">
        <ele>1648.7</ele>
        <time>2022-07-16T14:56:24+0200</time>
      </trkpt>
      <trkpt lat="45.00891" lon="6.4711">
        <ele>1648.1</ele>
        <time>2022-07-16T14:56:25+0200</time>
      </trkpt>
      <trkpt lat="45.00879" lon="6.47116">
        <ele>1646.2</ele>
        <time>2022-07-16T14:56:26+0200</time>
      </trkpt>
      <trkpt lat="45.00868" lon="6.47126">
        <ele>1645.1</ele>
        <time>2022-07-16T14:56:27+0200</time>
      </trkpt>
      <trkpt lat="45.00859" lon="6.4714">
        <ele>1644.5</ele>
        <time>2022-07-16T14:56:28+0200</time>
      </trkpt>
      <trkpt lat="45.00849" lon="6.47153">
        <ele>1644.5</ele>
        <time>2022-07-16T14:56:29+0200</time>
      </trkpt>
      <trkpt lat="45.00841" lon="6.47166">
        <ele>1644.7</ele>
        <time>2022-07-16T14:56:30+0200</time>
      </trkpt>
      <trkpt lat="45.00831" lon="6.47179">
        <ele>1644.6</ele>
        <time>2022-07-16T14:56:31+0200</time>
      </trkpt>
      <trkpt lat="45.00823" lon="6.47191">
        <ele>1644.6</ele>
        <time>2022-07-16T14:56:32+0200</time>
      </trkpt>
      <trkpt lat="45.00812" lon="6.47202">
        <ele>1645.2</ele>
        <time>2022-07-16T14:56:33+0200</time>
      </trkpt>
      <trkpt lat="45.008" lon="6.47209">
        <ele>1644.9</ele>
        <time>2022-07-16T14:56:34+0200</time>
      </trkpt>
      <trkpt lat="45.00787" lon="6.47214">
        <ele>1644.6</ele>
        <time>2022-07-16T14:56:35+0200</time>
      </trkpt>
      <trkpt lat="45.00774" lon="6.47216">
        <ele>1643.4</ele>
        <time>2022-07-16T14:56:36+0200</time>
      </trkpt>
      <trkpt lat="45.00762" lon="6.47217">
        <ele>1641.8</ele>
        <time>2022-07-16T14:56:37+0200</time>
      </trkpt>
      <trkpt lat="45.0075" lon="6.47221">
        <ele>1640.6</ele>
        <time>2022-07-16T14:56:38+0200</time>
      </trkpt>
      <trkpt lat="45.00738" lon="6.47226">
        <ele>1639.6</ele>
        <time>2022-07-16T14:56:39+0200</time>
      </trkpt>
      <trkpt lat="45.00726" lon="6.47233">
        <ele>1638.6</ele>
        <time>2022-07-16T14:56:40+0200</time>
      </trkpt>
      <trkpt lat="45.00714" lon="6.47242">
        <ele>1638.1</ele>
        <time>2022-07-16T14:56:41+0200</time>
      </trkpt>
      <trkpt lat="45.00701" lon="6.47249">
        <ele>1637.8</ele>
        <time>2022-07-16T14:56:42+0200</time>
      </trkpt>
      <trkpt lat="45.00689" lon="6.47254">
        <ele>1637.3</ele>
        <time>2022-07-16T14:56:43+0200</time>
      </trkpt>
      <trkpt lat="45.00676" lon="6.47258">
        <ele>1636.9</ele>
        <time>2022-07-16T14:56:44+0200</time>
      </trkpt>
      <trkpt lat="45.00663" lon="6.47263">
        <ele>1636.6</ele>
        <time>2022-07-16T14:56:45+0200</time>
      </trkpt>
      <trkpt lat="45.00649" lon="6.47267">
        <ele>1635.3</ele>
        <time>2022-07-16T14:56:46+0200</time>
      </trkpt>
      <trkpt lat="45.00637" lon="6.47271">
        <ele>1634.2</ele>
        <time>2022-07-16T14:56:47+0200</time>
      </trkpt>
      <trkpt lat="45.00624" lon="6.47272">
        <ele>1633.2</ele>
        <time>2022-07-16T14:56:48+0200</time>
      </trkpt>
      <trkpt lat="45.0061" lon="6.47274">
        <ele>1632.2</ele>
        <time>2022-07-16T14:56:49+0200</time>
      </trkpt>
      <trkpt lat="45.00595" lon="6.4727">
        <ele>1630.7</ele>
        <time>2022-07-16T14:56:50+0200</time>
      </trkpt>
      <trkpt lat="45.00582" lon="6.47266">
        <ele>1629.2</ele>
        <time>2022-07-16T14:56:51+0200</time>
      </trkpt>
      <trkpt lat="45.00568" lon="6.47263">
        <ele>1627.5</ele>
        <time>2022-07-16T14:56:52+0200</time>
      </trkpt>
      <trkpt lat="45.00555" lon="6.47259">
        <ele>1625.9</ele>
        <time>2022-07-16T14:56:53+0200</time>
      </trkpt>
      <trkpt lat="45.00541" lon="6.47258">
        <ele>1624.6</ele>
        <time>2022-07-16T14:56:54+0200</time>
      </trkpt>
      <trkpt lat="45.00527" lon="6.47259">
        <ele>1623.6</ele>
        <time>2022-07-16T14:56:55+0200</time>
      </trkpt>
      <trkpt lat="45.00514" lon="6.47266">
        <ele>1622.6</ele>
        <time>2022-07-16T14:56:56+0200</time>
      </trkpt>
      <trkpt lat="45.00502" lon="6.47277">
        <ele>1622.2</ele>
        <time>2022-07-16T14:56:57+0200</time>
      </trkpt>
      <trkpt lat="45.00494" lon="6.47292">
        <ele>1621.7</ele>
        <time>2022-07-16T14:56:58+0200</time>
      </trkpt>
      <trkpt lat="45.00485" lon="6.47307">
        <ele>1621.5</ele>
        <time>2022-07-16T14:56:59+0200</time>
      </trkpt>
      <trkpt lat="45.00476" lon="6.47322">
        <ele>1621.7</ele>
        <time>2022-07-16T14:57:00+0200</time>
      </trkpt>
      <trkpt lat="45.00466" lon="6.47336">
        <ele>1621.5</ele>
        <time>2022-07-16T14:57:01+0200</time>
      </trkpt>
      <trkpt lat="45.00454" lon="6.47348">
        <ele>1621.2</ele>
        <time>2022-07-16T14:57:02+0200</time>
      </trkpt>
      <trkpt lat="45.00443" lon="6.4736">
        <ele>1620.5</ele>
        <time>2022-07-16T14:57:03+0200</time>
      </trkpt>
      <trkpt lat="45.0043" lon="6.4737">
        <ele>1620.4</ele>
        <time>2022-07-16T14:57:04+0200</time>
      </trkpt>
      <trkpt lat="45.00416" lon="6.47375">
        <ele>1618.8</ele>
        <time>2022-07-16T14:57:05+0200</time>
      </trkpt>
      <trkpt lat="45.00402" lon="6.47382">
        <ele>1617.5</ele>
        <time>2022-07-16T14:57:06+0200</time>
      </trkpt>
      <trkpt lat="45.00389" lon="6.47393">
        <ele>1617.3</ele>
        <time>2022-07-16T14:57:07+0200</time>
      </trkpt>
      <trkpt lat="45.00377" lon="6.47407">
        <ele>1617.3</ele>
        <time>2022-07-16T14:57:08+0200</time>
      </trkpt>
      <trkpt lat="45.00366" lon="6.4742">
        <ele>1616.8</ele>
        <time>2022-07-16T14:57:09+0200</time>
      </trkpt>
      <trkpt lat="45.00355" lon="6.47434">
        <ele>1617.7</ele>
        <time>2022-07-16T14:57:10+0200</time>
      </trkpt>
      <trkpt lat="45.00343" lon="6.47447">
        <ele>1616.9</ele>
        <time>2022-07-16T14:57:11+0200</time>
      </trkpt>
      <trkpt lat="45.00332" lon="6.47459">
        <ele>1615</ele>
        <time>2022-07-16T14:57:12+0200</time>
      </trkpt>
      <trkpt lat="45.0032" lon="6.47472">
        <ele>1613.6</ele>
        <time>2022-07-16T14:57:13+0200</time>
      </trkpt>
      <trkpt lat="45.00308" lon="6.47484">
        <ele>1611.8</ele>
        <time>2022-07-16T14:57:14+0200</time>
      </trkpt>
      <trkpt lat="45.00298" lon="6.47498">
        <ele>1610.8</ele>
        <time>2022-07-16T14:57:15+0200</time>
      </trkpt>
      <trkpt lat="45.00288" lon="6.47513">
        <ele>1609.5</ele>
        <time>2022-07-16T14:57:16+0200</time>
      </trkpt>
      <trkpt lat="45.00278" lon="6.47528">
        <ele>1608.3</ele>
        <time>2022-07-16T14:57:17+0200</time>
      </trkpt>
      <trkpt lat="45.00267" lon="6.47541">
        <ele>1608.5</ele>
        <time>2022-07-16T14:57:18+0200</time>
      </trkpt>
      <trkpt lat="45.00254" lon="6.47553">
        <ele>1608.4</ele>
        <time>2022-07-16T14:57:19+0200</time>
      </trkpt>
      <trkpt lat="45.00241" lon="6.47564">
        <ele>1609.2</ele>
        <time>2022-07-16T14:57:20+0200</time>
      </trkpt>
      <trkpt lat="45.00227" lon="6.47572">
        <ele>1607.7</ele>
        <time>2022-07-16T14:57:21+0200</time>
      </trkpt>
      <trkpt lat="45.00212" lon="6.47579">
        <ele>1604.9</ele>
        <time>2022-07-16T14:57:22+0200</time>
      </trkpt>
      <trkpt lat="45.00198" lon="6.47587">
        <ele>1603.8</ele>
        <time>2022-07-16T14:57:23+0200</time>
      </trkpt>
      <trkpt lat="45.00185" lon="6.47596">
        <ele>1602.6</ele>
        <time>2022-07-16T14:57:24+0200</time>
      </trkpt>
      <trkpt lat="45.00172" lon="6.47606">
        <ele>1602.1</ele>
        <time>2022-07-16T14:57:25+0200</time>
      </trkpt>
      <trkpt lat="45.00159" lon="6.47616">
        <ele>1601.6</ele>
        <time>2022-07-16T14:57:26+0200</time>
      </trkpt>
      <trkpt lat="45.00147" lon="6.47625">
        <ele>1600.6</ele>
        <time>2022-07-16T14:57:27+0200</time>
      </trkpt>
      <trkpt lat="45.00136" lon="6.47637">
        <ele>1600</ele>
        <time>2022-07-16T14:57:28+0200</time>
      </trkpt>
      <trkpt lat="45.00126" lon="6.4765">
        <ele>1601.1</ele>
        <time>2022-07-16T14:57:29+0200</time>
      </trkpt>
      <trkpt lat="45.00115" lon="6.47663">
        <ele>1600.4</ele>
        <time>2022-07-16T14:57:29+0200</time>
      </trkpt>
      <trkpt lat="45.00105" lon="6.47675">
        <ele>1602.3</ele>
        <time>2022-07-16T14:57:30+0200</time>
      </trkpt>
      <trkpt lat="45.00094" lon="6.47687">
        <ele>1603</ele>
        <time>2022-07-16T14:57:31+0200</time>
      </trkpt>
      <trkpt lat="45.00084" lon="6.47698">
        <ele>1605.2</ele>
        <time>2022-07-16T14:57:32+0200</time>
      </trkpt>
      <trkpt lat="45.0007" lon="6.47702">
        <ele>1604.7</ele>
        <time>2022-07-16T14:57:33+0200</time>
      </trkpt>
      <trkpt lat="45.00056" lon="6.47703">
        <ele>1601</ele>
        <time>2022-07-16T14:57:34+0200</time>
      </trkpt>
      <trkpt lat="45.0004" lon="6.477">
        <ele>1598.8</ele>
        <time>2022-07-16T14:57:35+0200</time>
      </trkpt>
      <trkpt lat="45.00025" lon="6.47695">
        <ele>1596.9</ele>
        <time>2022-07-16T14:57:36+0200</time>
      </trkpt>
      <trkpt lat="45.00009" lon="6.47693">
        <ele>1595.3</ele>
        <time>2022-07-16T14:57:37+0200</time>
      </trkpt>
      <trkpt lat="44.99994" lon="6.47691">
        <ele>1593.2</ele>
        <time>2022-07-16T14:57:38+0200</time>
      </trkpt>
      <trkpt lat="44.99981" lon="6.47691">
        <ele>1590.6</ele>
        <time>2022-07-16T14:57:39+0200</time>
      </trkpt>
      <trkpt lat="44.99966" lon="6.47693">
        <ele>1588.8</ele>
        <time>2022-07-16T14:57:40+0200</time>
      </trkpt>
      <trkpt lat="44.99952" lon="6.477">
        <ele>1588.2</ele>
        <time>2022-07-16T14:57:41+0200</time>
      </trkpt>
      <trkpt lat="44.99938" lon="6.47707">
        <ele>1587.4</ele>
        <time>2022-07-16T14:57:42+0200</time>
      </trkpt>
      <trkpt lat="44.99925" lon="6.47715">
        <ele>1586.9</ele>
        <time>2022-07-16T14:57:43+0200</time>
      </trkpt>
      <trkpt lat="44.99913" lon="6.47724">
        <ele>1586.6</ele>
        <time>2022-07-16T14:57:44+0200</time>
      </trkpt>
      <trkpt lat="44.999" lon="6.47733">
        <ele>1585.3</ele>
        <time>2022-07-16T14:57:45+0200</time>
      </trkpt>
      <trkpt lat="44.99888" lon="6.47743">
        <ele>1585.1</ele>
        <time>2022-07-16T14:57:46+0200</time>
      </trkpt>
      <trkpt lat="44.99877" lon="6.47754">
        <ele>1584.8</ele>
        <time>2022-07-16T14:57:47+0200</time>
      </trkpt>
      <trkpt lat="44.99865" lon="6.47763">
        <ele>1583.8</ele>
        <time>2022-07-16T14:57:49+0200</time>
      </trkpt>
      <trkpt lat="44.99852" lon="6.47771">
        <ele>1582.4</ele>
        <time>2022-07-16T14:57:50+0200</time>
      </trkpt>
      <trkpt lat="44.99839" lon="6.47778">
        <ele>1581.4</ele>
        <time>2022-07-16T14:57:51+0200</time>
      </trkpt>
      <trkpt lat="44.99827" lon="6.47782">
        <ele>1580.9</ele>
        <time>2022-07-16T14:57:52+0200</time>
      </trkpt>
      <trkpt lat="44.99814" lon="6.47785">
        <ele>1580.9</ele>
        <time>2022-07-16T14:57:53+0200</time>
      </trkpt>
      <trkpt lat="44.99802" lon="6.47784">
        <ele>1579.4</ele>
        <time>2022-07-16T14:57:54+0200</time>
      </trkpt>
      <trkpt lat="44.99789" lon="6.47783">
        <ele>1577.3</ele>
        <time>2022-07-16T14:57:55+0200</time>
      </trkpt>
      <trkpt lat="44.99776" lon="6.47784">
        <ele>1575.8</ele>
        <time>2022-07-16T14:57:56+0200</time>
      </trkpt>
      <trkpt lat="44.99765" lon="6.47796">
        <ele>1575.6</ele>
        <time>2022-07-16T14:57:57+0200</time>
      </trkpt>
      <trkpt lat="44.99756" lon="6.47809">
        <ele>1576.2</ele>
        <time>2022-07-16T14:57:58+0200</time>
      </trkpt>
      <trkpt lat="44.99747" lon="6.47819">
        <ele>1575.7</ele>
        <time>2022-07-16T14:57:59+0200</time>
      </trkpt>
      <trkpt lat="44.99739" lon="6.47831">
        <ele>1576.1</ele>
        <time>2022-07-16T14:58:00+0200</time>
      </trkpt>
      <trkpt lat="44.9973" lon="6.47842">
        <ele>1576.2</ele>
        <time>2022-07-16T14:58:01+0200</time>
      </trkpt>
      <trkpt lat="44.9972" lon="6.47852">
        <ele>1576.2</ele>
        <time>2022-07-16T14:58:02+0200</time>
      </trkpt>
      <trkpt lat="44.99708" lon="6.47857">
        <ele>1575.5</ele>
        <time>2022-07-16T14:58:03+0200</time>
      </trkpt>
      <trkpt lat="44.99698" lon="6.4786">
        <ele>1575.1</ele>
        <time>2022-07-16T14:58:04+0200</time>
      </trkpt>
      <trkpt lat="44.99687" lon="6.47862">
        <ele>1574.5</ele>
        <time>2022-07-16T14:58:05+0200</time>
      </trkpt>
      <trkpt lat="44.99676" lon="6.47862">
        <ele>1573.7</ele>
        <time>2022-07-16T14:58:06+0200</time>
      </trkpt>
      <trkpt lat="44.99666" lon="6.47863">
        <ele>1573.1</ele>
        <time>2022-07-16T14:58:07+0200</time>
      </trkpt>
      <trkpt lat="44.99655" lon="6.47864">
        <ele>1572.6</ele>
        <time>2022-07-16T14:58:08+0200</time>
      </trkpt>
      <trkpt lat="44.99645" lon="6.47867">
        <ele>1572.3</ele>
        <time>2022-07-16T14:58:09+0200</time>
      </trkpt>
      <trkpt lat="44.99635" lon="6.4787">
        <ele>1571.6</ele>
        <time>2022-07-16T14:58:10+0200</time>
      </trkpt>
      <trkpt lat="44.99627" lon="6.47874">
        <ele>1570.9</ele>
        <time>2022-07-16T14:58:11+0200</time>
      </trkpt>
      <trkpt lat="44.99617" lon="6.4788">
        <ele>1570.3</ele>
        <time>2022-07-16T14:58:12+0200</time>
      </trkpt>
      <trkpt lat="44.99609" lon="6.4789">
        <ele>1570.5</ele>
        <time>2022-07-16T14:58:13+0200</time>
      </trkpt>
      <trkpt lat="44.99602" lon="6.47902">
        <ele>1570.5</ele>
        <time>2022-07-16T14:58:14+0200</time>
      </trkpt>
      <trkpt lat="44.99595" lon="6.47913">
        <ele>1570.3</ele>
        <time>2022-07-16T14:58:15+0200</time>
      </trkpt>
      <trkpt lat="44.99588" lon="6.47923">
        <ele>1570.4</ele>
        <time>2022-07-16T14:58:16+0200</time>
      </trkpt>
      <trkpt lat="44.9958" lon="6.47933">
        <ele>1570.5</ele>
        <time>2022-07-16T14:58:17+0200</time>
      </trkpt>
      <trkpt lat="44.99572" lon="6.47942">
        <ele>1570</ele>
        <time>2022-07-16T14:58:18+0200</time>
      </trkpt>
      <trkpt lat="44.99565" lon="6.47952">
        <ele>1569.7</ele>
        <time>2022-07-16T14:58:19+0200</time>
      </trkpt>
      <trkpt lat="44.99557" lon="6.4796">
        <ele>1568.9</ele>
        <time>2022-07-16T14:58:20+0200</time>
      </trkpt>
      <trkpt lat="44.99548" lon="6.47969">
        <ele>1568.4</ele>
        <time>2022-07-16T14:58:21+0200</time>
      </trkpt>
      <trkpt lat="44.99539" lon="6.47976">
        <ele>1568</ele>
        <time>2022-07-16T14:58:22+0200</time>
      </trkpt>
      <trkpt lat="44.9953" lon="6.47983">
        <ele>1567.7</ele>
        <time>2022-07-16T14:58:23+0200</time>
      </trkpt>
      <trkpt lat="44.99521" lon="6.47991">
        <ele>1568.4</ele>
        <time>2022-07-16T14:58:24+0200</time>
      </trkpt>
      <trkpt lat="44.99511" lon="6.47997">
        <ele>1569.1</ele>
        <time>2022-07-16T14:58:25+0200</time>
      </trkpt>
      <trkpt lat="44.99502" lon="6.48002">
        <ele>1569.8</ele>
        <time>2022-07-16T14:58:26+0200</time>
      </trkpt>
      <trkpt lat="44.99492" lon="6.48008">
        <ele>1569.9</ele>
        <time>2022-07-16T14:58:27+0200</time>
      </trkpt>
      <trkpt lat="44.99484" lon="6.48013">
        <ele>1569.3</ele>
        <time>2022-07-16T14:58:28+0200</time>
      </trkpt>
      <trkpt lat="44.99475" lon="6.48019">
        <ele>1568.5</ele>
        <time>2022-07-16T14:58:29+0200</time>
      </trkpt>
      <trkpt lat="44.99466" lon="6.48024">
        <ele>1567.4</ele>
        <time>2022-07-16T14:58:30+0200</time>
      </trkpt>
      <trkpt lat="44.99457" lon="6.48031">
        <ele>1566.9</ele>
        <time>2022-07-16T14:58:31+0200</time>
      </trkpt>
      <trkpt lat="44.99449" lon="6.48035">
        <ele>1566.3</ele>
        <time>2022-07-16T14:58:32+0200</time>
      </trkpt>
      <trkpt lat="44.9944" lon="6.4804">
        <ele>1565.2</ele>
        <time>2022-07-16T14:58:33+0200</time>
      </trkpt>
      <trkpt lat="44.9943" lon="6.48046">
        <ele>1564.5</ele>
        <time>2022-07-16T14:58:34+0200</time>
      </trkpt>
      <trkpt lat="44.99422" lon="6.48051">
        <ele>1564.1</ele>
        <time>2022-07-16T14:58:35+0200</time>
      </trkpt>
      <trkpt lat="44.99414" lon="6.4806">
        <ele>1564.5</ele>
        <time>2022-07-16T14:58:36+0200</time>
      </trkpt>
      <trkpt lat="44.99405" lon="6.48067">
        <ele>1564.3</ele>
        <time>2022-07-16T14:58:37+0200</time>
      </trkpt>
      <trkpt lat="44.99397" lon="6.48073">
        <ele>1563.5</ele>
        <time>2022-07-16T14:58:38+0200</time>
      </trkpt>
      <trkpt lat="44.99388" lon="6.48079">
        <ele>1562.7</ele>
        <time>2022-07-16T14:58:39+0200</time>
      </trkpt>
      <trkpt lat="44.99379" lon="6.48085">
        <ele>1562</ele>
        <time>2022-07-16T14:58:40+0200</time>
      </trkpt>
      <trkpt lat="44.9937" lon="6.48093">
        <ele>1562.2</ele>
        <time>2022-07-16T14:58:41+0200</time>
      </trkpt>
      <trkpt lat="44.99362" lon="6.48102">
        <ele>1562.7</ele>
        <time>2022-07-16T14:58:42+0200</time>
      </trkpt>
      <trkpt lat="44.99354" lon="6.4811">
        <ele>1562.6</ele>
        <time>2022-07-16T14:58:43+0200</time>
      </trkpt>
      <trkpt lat="44.99345" lon="6.48116">
        <ele>1562.2</ele>
        <time>2022-07-16T14:58:44+0200</time>
      </trkpt>
      <trkpt lat="44.99337" lon="6.48123">
        <ele>1561.9</ele>
        <time>2022-07-16T14:58:45+0200</time>
      </trkpt>
      <trkpt lat="44.9933" lon="6.4813">
        <ele>1561.7</ele>
        <time>2022-07-16T14:58:46+0200</time>
      </trkpt>
      <trkpt lat="44.99322" lon="6.48141">
        <ele>1562.1</ele>
        <time>2022-07-16T14:58:47+0200</time>
      </trkpt>
      <trkpt lat="44.99315" lon="6.4815">
        <ele>1562.5</ele>
        <time>2022-07-16T14:58:48+0200</time>
      </trkpt>
      <trkpt lat="44.9931" lon="6.48158">
        <ele>1562.9</ele>
        <time>2022-07-16T14:58:49+0200</time>
      </trkpt>
      <trkpt lat="44.99303" lon="6.48168">
        <ele>1563.7</ele>
        <time>2022-07-16T14:58:50+0200</time>
      </trkpt>
      <trkpt lat="44.99297" lon="6.48177">
        <ele>1563.7</ele>
        <time>2022-07-16T14:58:51+0200</time>
      </trkpt>
      <trkpt lat="44.9929" lon="6.48186">
        <ele>1563.6</ele>
        <time>2022-07-16T14:58:52+0200</time>
      </trkpt>
      <trkpt lat="44.99282" lon="6.48192">
        <ele>1562.6</ele>
        <time>2022-07-16T14:58:53+0200</time>
      </trkpt>
      <trkpt lat="44.99274" lon="6.48197">
        <ele>1561.3</ele>
        <time>2022-07-16T14:58:54+0200</time>
      </trkpt>
      <trkpt lat="44.99268" lon="6.48205">
        <ele>1560.7</ele>
        <time>2022-07-16T14:58:55+0200</time>
      </trkpt>
      <trkpt lat="44.99261" lon="6.48211">
        <ele>1559.6</ele>
        <time>2022-07-16T14:58:56+0200</time>
      </trkpt>
      <trkpt lat="44.99254" lon="6.48219">
        <ele>1559.3</ele>
        <time>2022-07-16T14:58:57+0200</time>
      </trkpt>
      <trkpt lat="44.99248" lon="6.48228">
        <ele>1559.9</ele>
        <time>2022-07-16T14:58:58+0200</time>
      </trkpt>
      <trkpt lat="44.99243" lon="6.48238">
        <ele>1560.4</ele>
        <time>2022-07-16T14:58:59+0200</time>
      </trkpt>
      <trkpt lat="44.99238" lon="6.48247">
        <ele>1560.9</ele>
        <time>2022-07-16T14:59:00+0200</time>
      </trkpt>
      <trkpt lat="44.99233" lon="6.48257">
        <ele>1561</ele>
        <time>2022-07-16T14:59:01+0200</time>
      </trkpt>
      <trkpt lat="44.99229" lon="6.48268">
        <ele>1560.9</ele>
        <time>2022-07-16T14:59:02+0200</time>
      </trkpt>
      <trkpt lat="44.99225" lon="6.4828">
        <ele>1560.6</ele>
        <time>2022-07-16T14:59:03+0200</time>
      </trkpt>
      <trkpt lat="44.99222" lon="6.48291">
        <ele>1560.7</ele>
        <time>2022-07-16T14:59:04+0200</time>
      </trkpt>
      <trkpt lat="44.99218" lon="6.48302">
        <ele>1560.7</ele>
        <time>2022-07-16T14:59:05+0200</time>
      </trkpt>
      <trkpt lat="44.99214" lon="6.48312">
        <ele>1560.5</ele>
        <time>2022-07-16T14:59:06+0200</time>
      </trkpt>
      <trkpt lat="44.99209" lon="6.48322">
        <ele>1560</ele>
        <time>2022-07-16T14:59:07+0200</time>
      </trkpt>
      <trkpt lat="44.99205" lon="6.48331">
        <ele>1559.7</ele>
        <time>2022-07-16T14:59:08+0200</time>
      </trkpt>
      <trkpt lat="44.99201" lon="6.48341">
        <ele>1559.8</ele>
        <time>2022-07-16T14:59:09+0200</time>
      </trkpt>
      <trkpt lat="44.99197" lon="6.4835">
        <ele>1559.5</ele>
        <time>2022-07-16T14:59:10+0200</time>
      </trkpt>
      <trkpt lat="44.99192" lon="6.4836">
        <ele>1558.9</ele>
        <time>2022-07-16T14:59:11+0200</time>
      </trkpt>
      <trkpt lat="44.99187" lon="6.48367">
        <ele>1559.2</ele>
        <time>2022-07-16T14:59:12+0200</time>
      </trkpt>
      <trkpt lat="44.99183" lon="6.48377">
        <ele>1559.6</ele>
        <time>2022-07-16T14:59:13+0200</time>
      </trkpt>
      <trkpt lat="44.99179" lon="6.48384">
        <ele>1559.6</ele>
        <time>2022-07-16T14:59:14+0200</time>
      </trkpt>
      <trkpt lat="44.99174" lon="6.48391">
        <ele>1559</ele>
        <time>2022-07-16T14:59:15+0200</time>
      </trkpt>
      <trkpt lat="44.9917" lon="6.48402">
        <ele>1558.4</ele>
        <time>2022-07-16T14:59:16+0200</time>
      </trkpt>
      <trkpt lat="44.99166" lon="6.4841">
        <ele>1557.7</ele>
        <time>2022-07-16T14:59:17+0200</time>
      </trkpt>
      <trkpt lat="44.99162" lon="6.48419">
        <ele>1557.6</ele>
        <time>2022-07-16T14:59:18+0200</time>
      </trkpt>
      <trkpt lat="44.99159" lon="6.4843">
        <ele>1558.2</ele>
        <time>2022-07-16T14:59:19+0200</time>
      </trkpt>
      <trkpt lat="44.99155" lon="6.4844">
        <ele>1558.6</ele>
        <time>2022-07-16T14:59:20+0200</time>
      </trkpt>
      <trkpt lat="44.9915" lon="6.48447">
        <ele>1557.9</ele>
        <time>2022-07-16T14:59:21+0200</time>
      </trkpt>
      <trkpt lat="44.99143" lon="6.48451">
        <ele>1556.6</ele>
        <time>2022-07-16T14:59:22+0200</time>
      </trkpt>
      <trkpt lat="44.99137" lon="6.48458">
        <ele>1555.9</ele>
        <time>2022-07-16T14:59:23+0200</time>
      </trkpt>
      <trkpt lat="44.99131" lon="6.48466">
        <ele>1555.3</ele>
        <time>2022-07-16T14:59:24+0200</time>
      </trkpt>
      <trkpt lat="44.99125" lon="6.48473">
        <ele>1554.6</ele>
        <time>2022-07-16T14:59:25+0200</time>
      </trkpt>
      <trkpt lat="44.99119" lon="6.4848">
        <ele>1553.5</ele>
        <time>2022-07-16T14:59:26+0200</time>
      </trkpt>
      <trkpt lat="44.99113" lon="6.48487">
        <ele>1552.9</ele>
        <time>2022-07-16T14:59:27+0200</time>
      </trkpt>
      <trkpt lat="44.99107" lon="6.48496">
        <ele>1552.6</ele>
        <time>2022-07-16T14:59:28+0200</time>
      </trkpt>
      <trkpt lat="44.99102" lon="6.48503">
        <ele>1552.3</ele>
        <time>2022-07-16T14:59:29+0200</time>
      </trkpt>
      <trkpt lat="44.99097" lon="6.48511">
        <ele>1552.5</ele>
        <time>2022-07-16T14:59:30+0200</time>
      </trkpt>
      <trkpt lat="44.99092" lon="6.48521">
        <ele>1552.6</ele>
        <time>2022-07-16T14:59:31+0200</time>
      </trkpt>
      <trkpt lat="44.99088" lon="6.4853">
        <ele>1553</ele>
        <time>2022-07-16T14:59:32+0200</time>
      </trkpt>
      <trkpt lat="44.99082" lon="6.48535">
        <ele>1552.1</ele>
        <time>2022-07-16T14:59:33+0200</time>
      </trkpt>
      <trkpt lat="44.99077" lon="6.48542">
        <ele>1551.9</ele>
        <time>2022-07-16T14:59:34+0200</time>
      </trkpt>
      <trkpt lat="44.99071" lon="6.4855">
        <ele>1551.6</ele>
        <time>2022-07-16T14:59:35+0200</time>
      </trkpt>
      <trkpt lat="44.99065" lon="6.48555">
        <ele>1550.9</ele>
        <time>2022-07-16T14:59:35+0200</time>
      </trkpt>
      <trkpt lat="44.99058" lon="6.48561">
        <ele>1549.8</ele>
        <time>2022-07-16T14:59:36+0200</time>
      </trkpt>
      <trkpt lat="44.99051" lon="6.48566">
        <ele>1548.5</ele>
        <time>2022-07-16T14:59:37+0200</time>
      </trkpt>
      <trkpt lat="44.99046" lon="6.48574">
        <ele>1548.2</ele>
        <time>2022-07-16T14:59:38+0200</time>
      </trkpt>
      <trkpt lat="44.9904" lon="6.48582">
        <ele>1548.3</ele>
        <time>2022-07-16T14:59:39+0200</time>
      </trkpt>
      <trkpt lat="44.99035" lon="6.48594">
        <ele>1548.8</ele>
        <time>2022-07-16T14:59:40+0200</time>
      </trkpt>
      <trkpt lat="44.99032" lon="6.48607">
        <ele>1549.7</ele>
        <time>2022-07-16T14:59:41+0200</time>
      </trkpt>
      <trkpt lat="44.99027" lon="6.48618">
        <ele>1549.9</ele>
        <time>2022-07-16T14:59:42+0200</time>
      </trkpt>
      <trkpt lat="44.99022" lon="6.48628">
        <ele>1549.7</ele>
        <time>2022-07-16T14:59:43+0200</time>
      </trkpt>
      <trkpt lat="44.99017" lon="6.48638">
        <ele>1549.7</ele>
        <time>2022-07-16T14:59:44+0200</time>
      </trkpt>
      <trkpt lat="44.99012" lon="6.48646">
        <ele>1549.7</ele>
        <time>2022-07-16T14:59:45+0200</time>
      </trkpt>
      <trkpt lat="44.99008" lon="6.48657">
        <ele>1550</ele>
        <time>2022-07-16T14:59:46+0200</time>
      </trkpt>
      <trkpt lat="44.99004" lon="6.48667">
        <ele>1550.3</ele>
        <time>2022-07-16T14:59:47+0200</time>
      </trkpt>
      <trkpt lat="44.98999" lon="6.48677">
        <ele>1550.7</ele>
        <time>2022-07-16T14:59:48+0200</time>
      </trkpt>
      <trkpt lat="44.98994" lon="6.48686">
        <ele>1550.3</ele>
        <time>2022-07-16T14:59:49+0200</time>
      </trkpt>
      <trkpt lat="44.98989" lon="6.48694">
        <ele>1549.6</ele>
        <time>2022-07-16T14:59:50+0200</time>
      </trkpt>
      <trkpt lat="44.98984" lon="6.48702">
        <ele>1549.3</ele>
        <time>2022-07-16T14:59:51+0200</time>
      </trkpt>
      <trkpt lat="44.98979" lon="6.48711">
        <ele>1549.2</ele>
        <time>2022-07-16T14:59:52+0200</time>
      </trkpt>
      <trkpt lat="44.98975" lon="6.4872">
        <ele>1549.6</ele>
        <time>2022-07-16T14:59:53+0200</time>
      </trkpt>
      <trkpt lat="44.98971" lon="6.4873">
        <ele>1549.9</ele>
        <time>2022-07-16T14:59:54+0200</time>
      </trkpt>
      <trkpt lat="44.98966" lon="6.48739">
        <ele>1550.1</ele>
        <time>2022-07-16T14:59:56+0200</time>
      </trkpt>
      <trkpt lat="44.98961" lon="6.48746">
        <ele>1549.5</ele>
        <time>2022-07-16T14:59:57+0200</time>
      </trkpt>
      <trkpt lat="44.98956" lon="6.48755">
        <ele>1548.9</ele>
        <time>2022-07-16T14:59:58+0200</time>
      </trkpt>
      <trkpt lat="44.98952" lon="6.48764">
        <ele>1548.8</ele>
        <time>2022-07-16T14:59:59+0200</time>
      </trkpt>
      <trkpt lat="44.98948" lon="6.48773">
        <ele>1548.6</ele>
        <time>2022-07-16T15:00:00+0200</time>
      </trkpt>
      <trkpt lat="44.98943" lon="6.48784">
        <ele>1549</ele>
        <time>2022-07-16T15:00:01+0200</time>
      </trkpt>
      <trkpt lat="44.98939" lon="6.48793">
        <ele>1549.3</ele>
        <time>2022-07-16T15:00:02+0200</time>
      </trkpt>
      <trkpt lat="44.98934" lon="6.48801">
        <ele>1548.8</ele>
        <time>2022-07-16T15:00:03+0200</time>
      </trkpt>
      <trkpt lat="44.98929" lon="6.48808">
        <ele>1548</ele>
        <time>2022-07-16T15:00:04+0200</time>
      </trkpt>
      <trkpt lat="44.98924" lon="6.48815">
        <ele>1546.7</ele>
        <time>2022-07-16T15:00:05+0200</time>
      </trkpt>
      <trkpt lat="44.98919" lon="6.48825">
        <ele>1546</ele>
        <time>2022-07-16T15:00:06+0200</time>
      </trkpt>
      <trkpt lat="44.98914" lon="6.48834">
        <ele>1545.7</ele>
        <time>2022-07-16T15:00:07+0200</time>
      </trkpt>
      <trkpt lat="44.9891" lon="6.48844">
        <ele>1545.6</ele>
        <time>2022-07-16T15:00:08+0200</time>
      </trkpt>
      <trkpt lat="44.98905" lon="6.48851">
        <ele>1545.3</ele>
        <time>2022-07-16T15:00:09+0200</time>
      </trkpt>
      <trkpt lat="44.98902" lon="6.48861">
        <ele>1545.3</ele>
        <time>2022-07-16T15:00:10+0200</time>
      </trkpt>
      <trkpt lat="44.98898" lon="6.48871">
        <ele>1545</ele>
        <time>2022-07-16T15:00:11+0200</time>
      </trkpt>
      <trkpt lat="44.98895" lon="6.48883">
        <ele>1544.9</ele>
        <time>2022-07-16T15:00:12+0200</time>
      </trkpt>
      <trkpt lat="44.9889" lon="6.48893">
        <ele>1544.3</ele>
        <time>2022-07-16T15:00:13+0200</time>
      </trkpt>
      <trkpt lat="44.98885" lon="6.48903">
        <ele>1543.4</ele>
        <time>2022-07-16T15:00:14+0200</time>
      </trkpt>
      <trkpt lat="44.98881" lon="6.48913">
        <ele>1542.9</ele>
        <time>2022-07-16T15:00:15+0200</time>
      </trkpt>
      <trkpt lat="44.98878" lon="6.48923">
        <ele>1542.8</ele>
        <time>2022-07-16T15:00:16+0200</time>
      </trkpt>
      <trkpt lat="44.98876" lon="6.48933">
        <ele>1543</ele>
        <time>2022-07-16T15:00:17+0200</time>
      </trkpt>
      <trkpt lat="44.98872" lon="6.48944">
        <ele>1542.9</ele>
        <time>2022-07-16T15:00:18+0200</time>
      </trkpt>
      <trkpt lat="44.98869" lon="6.48955">
        <ele>1543.2</ele>
        <time>2022-07-16T15:00:19+0200</time>
      </trkpt>
      <trkpt lat="44.98866" lon="6.48966">
        <ele>1543.6</ele>
        <time>2022-07-16T15:00:20+0200</time>
      </trkpt>
      <trkpt lat="44.98864" lon="6.48977">
        <ele>1543.7</ele>
        <time>2022-07-16T15:00:21+0200</time>
      </trkpt>
      <trkpt lat="44.98861" lon="6.48988">
        <ele>1543.4</ele>
        <time>2022-07-16T15:00:22+0200</time>
      </trkpt>
      <trkpt lat="44.98858" lon="6.48999">
        <ele>1543.1</ele>
        <time>2022-07-16T15:00:23+0200</time>
      </trkpt>
      <trkpt lat="44.98854" lon="6.49009">
        <ele>1542.9</ele>
        <time>2022-07-16T15:00:24+0200</time>
      </trkpt>
      <trkpt lat="44.9885" lon="6.49021">
        <ele>1542.9</ele>
        <time>2022-07-16T15:00:25+0200</time>
      </trkpt>
      <trkpt lat="44.98845" lon="6.4903">
        <ele>1542.9</ele>
        <time>2022-07-16T15:00:26+0200</time>
      </trkpt>
      <trkpt lat="44.98839" lon="6.49038">
        <ele>1543.1</ele>
        <time>2022-07-16T15:00:27+0200</time>
      </trkpt>
      <trkpt lat="44.98831" lon="6.49045">
        <ele>1542.4</ele>
        <time>2022-07-16T15:00:28+0200</time>
      </trkpt>
      <trkpt lat="44.98823" lon="6.49051">
        <ele>1541.7</ele>
        <time>2022-07-16T15:00:29+0200</time>
      </trkpt>
      <trkpt lat="44.98816" lon="6.49058">
        <ele>1541.2</ele>
        <time>2022-07-16T15:00:30+0200</time>
      </trkpt>
      <trkpt lat="44.98808" lon="6.49066">
        <ele>1541.1</ele>
        <time>2022-07-16T15:00:31+0200</time>
      </trkpt>
      <trkpt lat="44.98801" lon="6.49073">
        <ele>1540.3</ele>
        <time>2022-07-16T15:00:32+0200</time>
      </trkpt>
      <trkpt lat="44.98793" lon="6.49079">
        <ele>1539</ele>
        <time>2022-07-16T15:00:33+0200</time>
      </trkpt>
      <trkpt lat="44.98784" lon="6.49087">
        <ele>1538.1</ele>
        <time>2022-07-16T15:00:34+0200</time>
      </trkpt>
      <trkpt lat="44.98777" lon="6.49097">
        <ele>1537.7</ele>
        <time>2022-07-16T15:00:35+0200</time>
      </trkpt>
      <trkpt lat="44.9877" lon="6.49107">
        <ele>1537.9</ele>
        <time>2022-07-16T15:00:36+0200</time>
      </trkpt>
      <trkpt lat="44.98764" lon="6.49117">
        <ele>1538.2</ele>
        <time>2022-07-16T15:00:37+0200</time>
      </trkpt>
      <trkpt lat="44.98758" lon="6.49128">
        <ele>1538.6</ele>
        <time>2022-07-16T15:00:38+0200</time>
      </trkpt>
      <trkpt lat="44.98751" lon="6.49139">
        <ele>1538.5</ele>
        <time>2022-07-16T15:00:39+0200</time>
      </trkpt>
      <trkpt lat="44.98744" lon="6.49148">
        <ele>1538.5</ele>
        <time>2022-07-16T15:00:40+0200</time>
      </trkpt>
      <trkpt lat="44.98737" lon="6.49158">
        <ele>1538.6</ele>
        <time>2022-07-16T15:00:41+0200</time>
      </trkpt>
      <trkpt lat="44.9873" lon="6.49166">
        <ele>1538.7</ele>
        <time>2022-07-16T15:00:42+0200</time>
      </trkpt>
      <trkpt lat="44.98723" lon="6.49176">
        <ele>1538.6</ele>
        <time>2022-07-16T15:00:43+0200</time>
      </trkpt>
      <trkpt lat="44.98716" lon="6.49186">
        <ele>1538.3</ele>
        <time>2022-07-16T15:00:44+0200</time>
      </trkpt>
      <trkpt lat="44.9871" lon="6.49196">
        <ele>1538.2</ele>
        <time>2022-07-16T15:00:45+0200</time>
      </trkpt>
      <trkpt lat="44.98704" lon="6.49207">
        <ele>1537.8</ele>
        <time>2022-07-16T15:00:46+0200</time>
      </trkpt>
      <trkpt lat="44.98698" lon="6.49218">
        <ele>1537</ele>
        <time>2022-07-16T15:00:47+0200</time>
      </trkpt>
      <trkpt lat="44.98694" lon="6.4923">
        <ele>1536.3</ele>
        <time>2022-07-16T15:00:48+0200</time>
      </trkpt>
      <trkpt lat="44.9869" lon="6.49241">
        <ele>1536</ele>
        <time>2022-07-16T15:00:49+0200</time>
      </trkpt>
      <trkpt lat="44.98686" lon="6.49255">
        <ele>1535.6</ele>
        <time>2022-07-16T15:00:50+0200</time>
      </trkpt>
      <trkpt lat="44.98683" lon="6.49269">
        <ele>1535.5</ele>
        <time>2022-07-16T15:00:51+0200</time>
      </trkpt>
      <trkpt lat="44.9868" lon="6.49283">
        <ele>1535.8</ele>
        <time>2022-07-16T15:00:52+0200</time>
      </trkpt>
      <trkpt lat="44.98676" lon="6.49296">
        <ele>1535.6</ele>
        <time>2022-07-16T15:00:53+0200</time>
      </trkpt>
      <trkpt lat="44.98672" lon="6.4931">
        <ele>1535.3</ele>
        <time>2022-07-16T15:00:54+0200</time>
      </trkpt>
      <trkpt lat="44.98668" lon="6.49323">
        <ele>1534.7</ele>
        <time>2022-07-16T15:00:55+0200</time>
      </trkpt>
      <trkpt lat="44.98663" lon="6.49336">
        <ele>1534</ele>
        <time>2022-07-16T15:00:56+0200</time>
      </trkpt>
      <trkpt lat="44.98658" lon="6.49347">
        <ele>1533.6</ele>
        <time>2022-07-16T15:00:57+0200</time>
      </trkpt>
      <trkpt lat="44.98652" lon="6.49359">
        <ele>1532.8</ele>
        <time>2022-07-16T15:00:58+0200</time>
      </trkpt>
      <trkpt lat="44.98645" lon="6.4937">
        <ele>1532.2</ele>
        <time>2022-07-16T15:00:59+0200</time>
      </trkpt>
      <trkpt lat="44.98639" lon="6.49382">
        <ele>1531.8</ele>
        <time>2022-07-16T15:01:00+0200</time>
      </trkpt>
      <trkpt lat="44.98633" lon="6.49394">
        <ele>1532.2</ele>
        <time>2022-07-16T15:01:01+0200</time>
      </trkpt>
      <trkpt lat="44.98626" lon="6.49405">
        <ele>1532.6</ele>
        <time>2022-07-16T15:01:02+0200</time>
      </trkpt>
      <trkpt lat="44.98619" lon="6.49415">
        <ele>1531.8</ele>
        <time>2022-07-16T15:01:03+0200</time>
      </trkpt>
      <trkpt lat="44.98612" lon="6.49424">
        <ele>1531</ele>
        <time>2022-07-16T15:01:04+0200</time>
      </trkpt>
      <trkpt lat="44.98605" lon="6.49433">
        <ele>1530.2</ele>
        <time>2022-07-16T15:01:05+0200</time>
      </trkpt>
      <trkpt lat="44.98598" lon="6.49442">
        <ele>1529.6</ele>
        <time>2022-07-16T15:01:06+0200</time>
      </trkpt>
      <trkpt lat="44.98591" lon="6.49452">
        <ele>1529.8</ele>
        <time>2022-07-16T15:01:07+0200</time>
      </trkpt>
      <trkpt lat="44.98584" lon="6.49462">
        <ele>1529.8</ele>
        <time>2022-07-16T15:01:08+0200</time>
      </trkpt>
      <trkpt lat="44.98577" lon="6.49472">
        <ele>1529.6</ele>
        <time>2022-07-16T15:01:09+0200</time>
      </trkpt>
      <trkpt lat="44.9857" lon="6.49482">
        <ele>1530.4</ele>
        <time>2022-07-16T15:01:10+0200</time>
      </trkpt>
      <trkpt lat="44.98562" lon="6.49491">
        <ele>1530.7</ele>
        <time>2022-07-16T15:01:11+0200</time>
      </trkpt>
      <trkpt lat="44.98553" lon="6.49496">
        <ele>1528.9</ele>
        <time>2022-07-16T15:01:12+0200</time>
      </trkpt>
      <trkpt lat="44.98544" lon="6.49499">
        <ele>1527.3</ele>
        <time>2022-07-16T15:01:13+0200</time>
      </trkpt>
      <trkpt lat="44.98535" lon="6.49504">
        <ele>1526.4</ele>
        <time>2022-07-16T15:01:14+0200</time>
      </trkpt>
      <trkpt lat="44.98526" lon="6.49512">
        <ele>1525.4</ele>
        <time>2022-07-16T15:01:15+0200</time>
      </trkpt>
      <trkpt lat="44.98519" lon="6.49521">
        <ele>1525</ele>
        <time>2022-07-16T15:01:16+0200</time>
      </trkpt>
      <trkpt lat="44.98512" lon="6.49532">
        <ele>1525.2</ele>
        <time>2022-07-16T15:01:17+0200</time>
      </trkpt>
      <trkpt lat="44.98505" lon="6.49541">
        <ele>1525.1</ele>
        <time>2022-07-16T15:01:18+0200</time>
      </trkpt>
      <trkpt lat="44.98498" lon="6.49551">
        <ele>1524.7</ele>
        <time>2022-07-16T15:01:19+0200</time>
      </trkpt>
      <trkpt lat="44.98491" lon="6.4956">
        <ele>1523.4</ele>
        <time>2022-07-16T15:01:20+0200</time>
      </trkpt>
      <trkpt lat="44.98484" lon="6.4957">
        <ele>1522.6</ele>
        <time>2022-07-16T15:01:21+0200</time>
      </trkpt>
      <trkpt lat="44.98478" lon="6.49581">
        <ele>1522.3</ele>
        <time>2022-07-16T15:01:22+0200</time>
      </trkpt>
      <trkpt lat="44.98472" lon="6.49592">
        <ele>1522.5</ele>
        <time>2022-07-16T15:01:23+0200</time>
      </trkpt>
      <trkpt lat="44.98466" lon="6.49603">
        <ele>1522.5</ele>
        <time>2022-07-16T15:01:24+0200</time>
      </trkpt>
      <trkpt lat="44.9846" lon="6.49614">
        <ele>1522.4</ele>
        <time>2022-07-16T15:01:25+0200</time>
      </trkpt>
      <trkpt lat="44.98453" lon="6.49626">
        <ele>1521.9</ele>
        <time>2022-07-16T15:01:26+0200</time>
      </trkpt>
      <trkpt lat="44.98448" lon="6.49638">
        <ele>1522.2</ele>
        <time>2022-07-16T15:01:27+0200</time>
      </trkpt>
      <trkpt lat="44.98442" lon="6.49649">
        <ele>1522.4</ele>
        <time>2022-07-16T15:01:28+0200</time>
      </trkpt>
      <trkpt lat="44.98435" lon="6.49659">
        <ele>1521.8</ele>
        <time>2022-07-16T15:01:29+0200</time>
      </trkpt>
      <trkpt lat="44.98429" lon="6.49669">
        <ele>1521.1</ele>
        <time>2022-07-16T15:01:30+0200</time>
      </trkpt>
      <trkpt lat="44.98423" lon="6.4968">
        <ele>1520.5</ele>
        <time>2022-07-16T15:01:31+0200</time>
      </trkpt>
      <trkpt lat="44.98417" lon="6.49691">
        <ele>1520.1</ele>
        <time>2022-07-16T15:01:32+0200</time>
      </trkpt>
      <trkpt lat="44.98411" lon="6.49702">
        <ele>1519.6</ele>
        <time>2022-07-16T15:01:33+0200</time>
      </trkpt>
      <trkpt lat="44.98405" lon="6.49712">
        <ele>1519.1</ele>
        <time>2022-07-16T15:01:34+0200</time>
      </trkpt>
      <trkpt lat="44.98398" lon="6.49723">
        <ele>1518.5</ele>
        <time>2022-07-16T15:01:35+0200</time>
      </trkpt>
      <trkpt lat="44.98393" lon="6.49735">
        <ele>1518.4</ele>
        <time>2022-07-16T15:01:36+0200</time>
      </trkpt>
      <trkpt lat="44.98387" lon="6.49746">
        <ele>1518.5</ele>
        <time>2022-07-16T15:01:37+0200</time>
      </trkpt>
      <trkpt lat="44.98381" lon="6.49758">
        <ele>1519.1</ele>
        <time>2022-07-16T15:01:38+0200</time>
      </trkpt>
      <trkpt lat="44.98377" lon="6.49769">
        <ele>1519.8</ele>
        <time>2022-07-16T15:01:39+0200</time>
      </trkpt>
      <trkpt lat="44.98371" lon="6.4978">
        <ele>1519.9</ele>
        <time>2022-07-16T15:01:40+0200</time>
      </trkpt>
      <trkpt lat="44.98365" lon="6.49793">
        <ele>1519.6</ele>
        <time>2022-07-16T15:01:41+0200</time>
      </trkpt>
      <trkpt lat="44.98358" lon="6.49804">
        <ele>1518.9</ele>
        <time>2022-07-16T15:01:41+0200</time>
      </trkpt>
      <trkpt lat="44.98351" lon="6.49813">
        <ele>1518.1</ele>
        <time>2022-07-16T15:01:42+0200</time>
      </trkpt>
      <trkpt lat="44.98344" lon="6.49822">
        <ele>1517.9</ele>
        <time>2022-07-16T15:01:43+0200</time>
      </trkpt>
      <trkpt lat="44.98336" lon="6.49832">
        <ele>1517.6</ele>
        <time>2022-07-16T15:01:44+0200</time>
      </trkpt>
      <trkpt lat="44.98329" lon="6.49843">
        <ele>1517.5</ele>
        <time>2022-07-16T15:01:45+0200</time>
      </trkpt>
      <trkpt lat="44.98321" lon="6.49852">
        <ele>1517.6</ele>
        <time>2022-07-16T15:01:46+0200</time>
      </trkpt>
      <trkpt lat="44.98314" lon="6.49859">
        <ele>1517.8</ele>
        <time>2022-07-16T15:01:47+0200</time>
      </trkpt>
      <trkpt lat="44.98305" lon="6.49867">
        <ele>1517.6</ele>
        <time>2022-07-16T15:01:48+0200</time>
      </trkpt>
      <trkpt lat="44.98298" lon="6.49873">
        <ele>1517.2</ele>
        <time>2022-07-16T15:01:49+0200</time>
      </trkpt>
      <trkpt lat="44.98289" lon="6.49878">
        <ele>1516.8</ele>
        <time>2022-07-16T15:01:50+0200</time>
      </trkpt>
      <trkpt lat="44.98282" lon="6.49886">
        <ele>1517</ele>
        <time>2022-07-16T15:01:51+0200</time>
      </trkpt>
      <trkpt lat="44.98274" lon="6.49891">
        <ele>1516.8</ele>
        <time>2022-07-16T15:01:52+0200</time>
      </trkpt>
      <trkpt lat="44.98266" lon="6.49896">
        <ele>1516.4</ele>
        <time>2022-07-16T15:01:53+0200</time>
      </trkpt>
      <trkpt lat="44.98258" lon="6.49902">
        <ele>1516.2</ele>
        <time>2022-07-16T15:01:54+0200</time>
      </trkpt>
      <trkpt lat="44.98251" lon="6.49909">
        <ele>1516.2</ele>
        <time>2022-07-16T15:01:55+0200</time>
      </trkpt>
      <trkpt lat="44.98243" lon="6.49914">
        <ele>1516.4</ele>
        <time>2022-07-16T15:01:56+0200</time>
      </trkpt>
      <trkpt lat="44.98235" lon="6.4992">
        <ele>1516.8</ele>
        <time>2022-07-16T15:01:57+0200</time>
      </trkpt>
      <trkpt lat="44.98227" lon="6.49926">
        <ele>1517.2</ele>
        <time>2022-07-16T15:01:58+0200</time>
      </trkpt>
      <trkpt lat="44.98219" lon="6.49931">
        <ele>1517.4</ele>
        <time>2022-07-16T15:01:59+0200</time>
      </trkpt>
      <trkpt lat="44.98211" lon="6.49935">
        <ele>1517.1</ele>
        <time>2022-07-16T15:02:00+0200</time>
      </trkpt>
      <trkpt lat="44.98202" lon="6.49938">
        <ele>1516.8</ele>
        <time>2022-07-16T15:02:01+0200</time>
      </trkpt>
      <trkpt lat="44.98193" lon="6.4994">
        <ele>1516.4</ele>
        <time>2022-07-16T15:02:02+0200</time>
      </trkpt>
      <trkpt lat="44.98185" lon="6.49941">
        <ele>1515.9</ele>
        <time>2022-07-16T15:02:03+0200</time>
      </trkpt>
      <trkpt lat="44.98176" lon="6.49941">
        <ele>1515.4</ele>
        <time>2022-07-16T15:02:05+0200</time>
      </trkpt>
      <trkpt lat="44.98167" lon="6.49942">
        <ele>1514.8</ele>
        <time>2022-07-16T15:02:06+0200</time>
      </trkpt>
      <trkpt lat="44.98158" lon="6.49942">
        <ele>1514.8</ele>
        <time>2022-07-16T15:02:07+0200</time>
      </trkpt>
      <trkpt lat="44.98149" lon="6.4994">
        <ele>1514.7</ele>
        <time>2022-07-16T15:02:08+0200</time>
      </trkpt>
      <trkpt lat="44.9814" lon="6.49937">
        <ele>1514.5</ele>
        <time>2022-07-16T15:02:09+0200</time>
      </trkpt>
      <trkpt lat="44.98131" lon="6.49934">
        <ele>1514.2</ele>
        <time>2022-07-16T15:02:10+0200</time>
      </trkpt>
      <trkpt lat="44.98123" lon="6.49931">
        <ele>1514</ele>
        <time>2022-07-16T15:02:11+0200</time>
      </trkpt>
      <trkpt lat="44.98114" lon="6.49928">
        <ele>1513.8</ele>
        <time>2022-07-16T15:02:12+0200</time>
      </trkpt>
      <trkpt lat="44.98106" lon="6.49924">
        <ele>1513.5</ele>
        <time>2022-07-16T15:02:13+0200</time>
      </trkpt>
      <trkpt lat="44.98099" lon="6.49921">
        <ele>1513.2</ele>
        <time>2022-07-16T15:02:14+0200</time>
      </trkpt>
      <trkpt lat="44.98091" lon="6.49918">
        <ele>1513.1</ele>
        <time>2022-07-16T15:02:15+0200</time>
      </trkpt>
      <trkpt lat="44.98084" lon="6.49916">
        <ele>1512.9</ele>
        <time>2022-07-16T15:02:16+0200</time>
      </trkpt>
      <trkpt lat="44.98077" lon="6.49914">
        <ele>1512.1</ele>
        <time>2022-07-16T15:02:17+0200</time>
      </trkpt>
      <trkpt lat="44.98069" lon="6.49911">
        <ele>1511.3</ele>
        <time>2022-07-16T15:02:18+0200</time>
      </trkpt>
      <trkpt lat="44.98062" lon="6.49911">
        <ele>1510.8</ele>
        <time>2022-07-16T15:02:19+0200</time>
      </trkpt>
      <trkpt lat="44.98055" lon="6.49909">
        <ele>1510.2</ele>
        <time>2022-07-16T15:02:20+0200</time>
      </trkpt>
      <trkpt lat="44.98047" lon="6.49908">
        <ele>1509.8</ele>
        <time>2022-07-16T15:02:21+0200</time>
      </trkpt>
      <trkpt lat="44.98039" lon="6.49907">
        <ele>1509.3</ele>
        <time>2022-07-16T15:02:22+0200</time>
      </trkpt>
      <trkpt lat="44.98032" lon="6.49908">
        <ele>1509.2</ele>
        <time>2022-07-16T15:02:23+0200</time>
      </trkpt>
      <trkpt lat="44.98023" lon="6.49909">
        <ele>1508.9</ele>
        <time>2022-07-16T15:02:24+0200</time>
      </trkpt>
      <trkpt lat="44.98016" lon="6.49911">
        <ele>1508.5</ele>
        <time>2022-07-16T15:02:25+0200</time>
      </trkpt>
      <trkpt lat="44.98008" lon="6.49915">
        <ele>1508.5</ele>
        <time>2022-07-16T15:02:26+0200</time>
      </trkpt>
      <trkpt lat="44.98002" lon="6.4992">
        <ele>1508.4</ele>
        <time>2022-07-16T15:02:27+0200</time>
      </trkpt>
      <trkpt lat="44.97995" lon="6.49924">
        <ele>1508.3</ele>
        <time>2022-07-16T15:02:28+0200</time>
      </trkpt>
      <trkpt lat="44.97988" lon="6.49929">
        <ele>1508.2</ele>
        <time>2022-07-16T15:02:29+0200</time>
      </trkpt>
      <trkpt lat="44.97982" lon="6.49934">
        <ele>1508.2</ele>
        <time>2022-07-16T15:02:30+0200</time>
      </trkpt>
      <trkpt lat="44.97976" lon="6.4994">
        <ele>1508.1</ele>
        <time>2022-07-16T15:02:31+0200</time>
      </trkpt>
      <trkpt lat="44.97972" lon="6.49946">
        <ele>1508</ele>
        <time>2022-07-16T15:02:32+0200</time>
      </trkpt>
      <trkpt lat="44.97966" lon="6.49952">
        <ele>1507.8</ele>
        <time>2022-07-16T15:02:33+0200</time>
      </trkpt>
      <trkpt lat="44.97961" lon="6.49959">
        <ele>1507.7</ele>
        <time>2022-07-16T15:02:34+0200</time>
      </trkpt>
      <trkpt lat="44.97956" lon="6.49964">
        <ele>1507.5</ele>
        <time>2022-07-16T15:02:35+0200</time>
      </trkpt>
      <trkpt lat="44.9795" lon="6.4997">
        <ele>1507.4</ele>
        <time>2022-07-16T15:02:36+0200</time>
      </trkpt>
      <trkpt lat="44.97945" lon="6.49976">
        <ele>1507.2</ele>
        <time>2022-07-16T15:02:37+0200</time>
      </trkpt>
      <trkpt lat="44.97941" lon="6.49983">
        <ele>1507.1</ele>
        <time>2022-07-16T15:02:38+0200</time>
      </trkpt>
      <trkpt lat="44.97936" lon="6.49989">
        <ele>1507</ele>
        <time>2022-07-16T15:02:39+0200</time>
      </trkpt>
      <trkpt lat="44.97931" lon="6.49996">
        <ele>1506.9</ele>
        <time>2022-07-16T15:02:40+0200</time>
      </trkpt>
      <trkpt lat="44.97925" lon="6.50003">
        <ele>1506.7</ele>
        <time>2022-07-16T15:02:41+0200</time>
      </trkpt>
      <trkpt lat="44.9792" lon="6.5001">
        <ele>1506.6</ele>
        <time>2022-07-16T15:02:42+0200</time>
      </trkpt>
      <trkpt lat="44.97914" lon="6.50018">
        <ele>1506.4</ele>
        <time>2022-07-16T15:02:43+0200</time>
      </trkpt>
      <trkpt lat="44.97907" lon="6.50024">
        <ele>1505.9</ele>
        <time>2022-07-16T15:02:44+0200</time>
      </trkpt>
      <trkpt lat="44.97901" lon="6.50031">
        <ele>1505.4</ele>
        <time>2022-07-16T15:02:45+0200</time>
      </trkpt>
      <trkpt lat="44.97895" lon="6.5004">
        <ele>1505</ele>
        <time>2022-07-16T15:02:46+0200</time>
      </trkpt>
      <trkpt lat="44.97891" lon="6.5005">
        <ele>1505</ele>
        <time>2022-07-16T15:02:47+0200</time>
      </trkpt>
      <trkpt lat="44.97887" lon="6.50061">
        <ele>1504.8</ele>
        <time>2022-07-16T15:02:48+0200</time>
      </trkpt>
      <trkpt lat="44.97883" lon="6.5007">
        <ele>1504.3</ele>
        <time>2022-07-16T15:02:49+0200</time>
      </trkpt>
      <trkpt lat="44.97879" lon="6.5008">
        <ele>1503.9</ele>
        <time>2022-07-16T15:02:50+0200</time>
      </trkpt>
      <trkpt lat="44.97875" lon="6.50089">
        <ele>1503.5</ele>
        <time>2022-07-16T15:02:51+0200</time>
      </trkpt>
      <trkpt lat="44.97871" lon="6.50099">
        <ele>1503.1</ele>
        <time>2022-07-16T15:02:52+0200</time>
      </trkpt>
      <trkpt lat="44.97869" lon="6.5011">
        <ele>1502.8</ele>
        <time>2022-07-16T15:02:53+0200</time>
      </trkpt>
      <trkpt lat="44.97866" lon="6.50122">
        <ele>1502.9</ele>
        <time>2022-07-16T15:02:54+0200</time>
      </trkpt>
      <trkpt lat="44.97863" lon="6.50132">
        <ele>1503</ele>
        <time>2022-07-16T15:02:55+0200</time>
      </trkpt>
      <trkpt lat="44.9786" lon="6.50143">
        <ele>1502.8</ele>
        <time>2022-07-16T15:02:56+0200</time>
      </trkpt>
      <trkpt lat="44.97856" lon="6.50153">
        <ele>1502.4</ele>
        <time>2022-07-16T15:02:57+0200</time>
      </trkpt>
      <trkpt lat="44.97853" lon="6.50164">
        <ele>1502.1</ele>
        <time>2022-07-16T15:02:58+0200</time>
      </trkpt>
      <trkpt lat="44.9785" lon="6.50174">
        <ele>1502.1</ele>
        <time>2022-07-16T15:02:59+0200</time>
      </trkpt>
      <trkpt lat="44.97847" lon="6.50185">
        <ele>1502.1</ele>
        <time>2022-07-16T15:03:00+0200</time>
      </trkpt>
      <trkpt lat="44.97844" lon="6.50196">
        <ele>1502.1</ele>
        <time>2022-07-16T15:03:01+0200</time>
      </trkpt>
      <trkpt lat="44.97841" lon="6.50206">
        <ele>1501.9</ele>
        <time>2022-07-16T15:03:02+0200</time>
      </trkpt>
      <trkpt lat="44.97838" lon="6.50217">
        <ele>1501.5</ele>
        <time>2022-07-16T15:03:03+0200</time>
      </trkpt>
      <trkpt lat="44.97835" lon="6.50228">
        <ele>1501.2</ele>
        <time>2022-07-16T15:03:04+0200</time>
      </trkpt>
      <trkpt lat="44.97833" lon="6.50238">
        <ele>1500.9</ele>
        <time>2022-07-16T15:03:05+0200</time>
      </trkpt>
      <trkpt lat="44.97829" lon="6.50248">
        <ele>1500.6</ele>
        <time>2022-07-16T15:03:06+0200</time>
      </trkpt>
      <trkpt lat="44.97826" lon="6.50259">
        <ele>1500.5</ele>
        <time>2022-07-16T15:03:07+0200</time>
      </trkpt>
      <trkpt lat="44.97823" lon="6.50271">
        <ele>1500.4</ele>
        <time>2022-07-16T15:03:08+0200</time>
      </trkpt>
      <trkpt lat="44.9782" lon="6.50282">
        <ele>1500.2</ele>
        <time>2022-07-16T15:03:09+0200</time>
      </trkpt>
      <trkpt lat="44.97818" lon="6.50292">
        <ele>1500</ele>
        <time>2022-07-16T15:03:10+0200</time>
      </trkpt>
      <trkpt lat="44.97816" lon="6.50303">
        <ele>1500</ele>
        <time>2022-07-16T15:03:11+0200</time>
      </trkpt>
      <trkpt lat="44.97812" lon="6.50312">
        <ele>1499.7</ele>
        <time>2022-07-16T15:03:12+0200</time>
      </trkpt>
      <trkpt lat="44.97809" lon="6.50324">
        <ele>1499.5</ele>
        <time>2022-07-16T15:03:13+0200</time>
      </trkpt>
      <trkpt lat="44.97806" lon="6.50335">
        <ele>1499.1</ele>
        <time>2022-07-16T15:03:14+0200</time>
      </trkpt>
      <trkpt lat="44.97802" lon="6.50345">
        <ele>1499</ele>
        <time>2022-07-16T15:03:15+0200</time>
      </trkpt>
      <trkpt lat="44.97798" lon="6.50355">
        <ele>1498.9</ele>
        <time>2022-07-16T15:03:16+0200</time>
      </trkpt>
      <trkpt lat="44.97793" lon="6.50364">
        <ele>1498.7</ele>
        <time>2022-07-16T15:03:17+0200</time>
      </trkpt>
      <trkpt lat="44.97789" lon="6.50373">
        <ele>1498.4</ele>
        <time>2022-07-16T15:03:18+0200</time>
      </trkpt>
      <trkpt lat="44.97785" lon="6.50382">
        <ele>1498</ele>
        <time>2022-07-16T15:03:19+0200</time>
      </trkpt>
      <trkpt lat="44.97781" lon="6.50394">
        <ele>1497.5</ele>
        <time>2022-07-16T15:03:20+0200</time>
      </trkpt>
      <trkpt lat="44.97776" lon="6.50403">
        <ele>1497.4</ele>
        <time>2022-07-16T15:03:21+0200</time>
      </trkpt>
      <trkpt lat="44.97772" lon="6.50413">
        <ele>1497.2</ele>
        <time>2022-07-16T15:03:22+0200</time>
      </trkpt>
      <trkpt lat="44.97767" lon="6.50423">
        <ele>1496.8</ele>
        <time>2022-07-16T15:03:23+0200</time>
      </trkpt>
      <trkpt lat="44.97762" lon="6.50434">
        <ele>1496.3</ele>
        <time>2022-07-16T15:03:24+0200</time>
      </trkpt>
      <trkpt lat="44.97757" lon="6.50444">
        <ele>1495.8</ele>
        <time>2022-07-16T15:03:25+0200</time>
      </trkpt>
      <trkpt lat="44.97752" lon="6.50454">
        <ele>1495.6</ele>
        <time>2022-07-16T15:03:26+0200</time>
      </trkpt>
      <trkpt lat="44.97748" lon="6.50466">
        <ele>1495.5</ele>
        <time>2022-07-16T15:03:27+0200</time>
      </trkpt>
      <trkpt lat="44.97743" lon="6.50477">
        <ele>1495.2</ele>
        <time>2022-07-16T15:03:28+0200</time>
      </trkpt>
      <trkpt lat="44.97739" lon="6.5049">
        <ele>1494.8</ele>
        <time>2022-07-16T15:03:29+0200</time>
      </trkpt>
      <trkpt lat="44.97733" lon="6.505">
        <ele>1494.2</ele>
        <time>2022-07-16T15:03:30+0200</time>
      </trkpt>
      <trkpt lat="44.97728" lon="6.50511">
        <ele>1493.6</ele>
        <time>2022-07-16T15:03:31+0200</time>
      </trkpt>
      <trkpt lat="44.97724" lon="6.5052">
        <ele>1493.2</ele>
        <time>2022-07-16T15:03:32+0200</time>
      </trkpt>
      <trkpt lat="44.97719" lon="6.5053">
        <ele>1492.7</ele>
        <time>2022-07-16T15:03:33+0200</time>
      </trkpt>
      <trkpt lat="44.97715" lon="6.50538">
        <ele>1492.3</ele>
        <time>2022-07-16T15:03:34+0200</time>
      </trkpt>
      <trkpt lat="44.9771" lon="6.5055">
        <ele>1492</ele>
        <time>2022-07-16T15:03:35+0200</time>
      </trkpt>
      <trkpt lat="44.97704" lon="6.50563">
        <ele>1491.7</ele>
        <time>2022-07-16T15:03:36+0200</time>
      </trkpt>
      <trkpt lat="44.97699" lon="6.50572">
        <ele>1491.4</ele>
        <time>2022-07-16T15:03:37+0200</time>
      </trkpt>
      <trkpt lat="44.97696" lon="6.5058">
        <ele>1491.1</ele>
        <time>2022-07-16T15:03:38+0200</time>
      </trkpt>
      <trkpt lat="44.97691" lon="6.50589">
        <ele>1490.8</ele>
        <time>2022-07-16T15:03:39+0200</time>
      </trkpt>
      <trkpt lat="44.97686" lon="6.506">
        <ele>1490.4</ele>
        <time>2022-07-16T15:03:40+0200</time>
      </trkpt>
      <trkpt lat="44.97683" lon="6.50608">
        <ele>1490.2</ele>
        <time>2022-07-16T15:03:41+0200</time>
      </trkpt>
      <trkpt lat="44.97677" lon="6.5062">
        <ele>1490.1</ele>
        <time>2022-07-16T15:03:42+0200</time>
      </trkpt>
      <trkpt lat="44.97672" lon="6.50631">
        <ele>1490.1</ele>
        <time>2022-07-16T15:03:43+0200</time>
      </trkpt>
      <trkpt lat="44.97667" lon="6.50643">
        <ele>1490.1</ele>
        <time>2022-07-16T15:03:44+0200</time>
      </trkpt>
      <trkpt lat="44.97662" lon="6.50653">
        <ele>1490.2</ele>
        <time>2022-07-16T15:03:45+0200</time>
      </trkpt>
      <trkpt lat="44.97657" lon="6.50663">
        <ele>1490.2</ele>
        <time>2022-07-16T15:03:46+0200</time>
      </trkpt>
      <trkpt lat="44.97653" lon="6.50673">
        <ele>1490.1</ele>
        <time>2022-07-16T15:03:47+0200</time>
      </trkpt>
      <trkpt lat="44.97649" lon="6.50681">
        <ele>1490</ele>
        <time>2022-07-16T15:03:48+0200</time>
      </trkpt>
      <trkpt lat="44.97646" lon="6.50687">
        <ele>1490</ele>
        <time>2022-07-16T15:03:49+0200</time>
      </trkpt>
      <trkpt lat="44.97643" lon="6.50691">
        <ele>1490</ele>
        <time>2022-07-16T15:03:50+0200</time>
      </trkpt>
      <trkpt lat="44.97637" lon="6.50703">
        <ele>1489.9</ele>
        <time>2022-07-16T15:03:51+0200</time>
      </trkpt>
      <trkpt lat="44.97634" lon="6.5071">
        <ele>1489.7</ele>
        <time>2022-07-16T15:03:52+0200</time>
      </trkpt>
      <trkpt lat="44.97631" lon="6.50717">
        <ele>1489.7</ele>
        <time>2022-07-16T15:03:53+0200</time>
      </trkpt>
      <trkpt lat="44.97629" lon="6.50723">
        <ele>1489.6</ele>
        <time>2022-07-16T15:03:54+0200</time>
      </trkpt>
      <trkpt lat="44.97626" lon="6.50729">
        <ele>1489.5</ele>
        <time>2022-07-16T15:03:55+0200</time>
      </trkpt>
      <trkpt lat="44.97625" lon="6.5074">
        <ele>1489.5</ele>
        <time>2022-07-16T15:03:56+0200</time>
      </trkpt>
      <trkpt lat="44.9762" lon="6.50746">
        <ele>1489.3</ele>
        <time>2022-07-16T15:03:57+0200</time>
      </trkpt>
      <trkpt lat="44.97614" lon="6.5075">
        <ele>1489.1</ele>
        <time>2022-07-16T15:03:58+0200</time>
      </trkpt>
      <trkpt lat="44.97609" lon="6.50752">
        <ele>1488.8</ele>
        <time>2022-07-16T15:03:59+0200</time>
      </trkpt>
      <trkpt lat="44.97607" lon="6.50759">
        <ele>1488.4</ele>
        <time>2022-07-16T15:04:00+0200</time>
      </trkpt>
      <trkpt lat="44.97605" lon="6.50765">
        <ele>1488.1</ele>
        <time>2022-07-16T15:04:02+0200</time>
      </trkpt>
      <trkpt lat="44.97601" lon="6.50774">
        <ele>1487.7</ele>
        <time>2022-07-16T15:04:03+0200</time>
      </trkpt>
      <trkpt lat="44.97597" lon="6.50786">
        <ele>1487.3</ele>
        <time>2022-07-16T15:04:04+0200</time>
      </trkpt>
      <trkpt lat="44.97593" lon="6.50798">
        <ele>1486.8</ele>
        <time>2022-07-16T15:04:05+0200</time>
      </trkpt>
      <trkpt lat="44.97591" lon="6.50808">
        <ele>1486.6</ele>
        <time>2022-07-16T15:04:06+0200</time>
      </trkpt>
      <trkpt lat="44.97592" lon="6.50819">
        <ele>1486.5</ele>
        <time>2022-07-16T15:04:07+0200</time>
      </trkpt>
      <trkpt lat="44.97591" lon="6.5083">
        <ele>1486.3</ele>
        <time>2022-07-16T15:04:08+0200</time>
      </trkpt>
      <trkpt lat="44.97589" lon="6.50842">
        <ele>1485.9</ele>
        <time>2022-07-16T15:04:09+0200</time>
      </trkpt>
      <trkpt lat="44.97588" lon="6.5085">
        <ele>1485.6</ele>
        <time>2022-07-16T15:04:11+0200</time>
      </trkpt>
      <trkpt lat="44.97588" lon="6.50857">
        <ele>1485.3</ele>
        <time>2022-07-16T15:04:12+0200</time>
      </trkpt>
      <trkpt lat="44.97588" lon="6.50865">
        <ele>1485</ele>
        <time>2022-07-16T15:04:13+0200</time>
      </trkpt>
      <trkpt lat="44.97594" lon="6.50873">
        <ele>1484.9</ele>
        <time>2022-07-16T15:04:14+0200</time>
      </trkpt>
      <trkpt lat="44.97595" lon="6.50881">
        <ele>1484.7</ele>
        <time>2022-07-16T15:04:15+0200</time>
      </trkpt>
      <trkpt lat="44.97595" lon="6.50892">
        <ele>1484.4</ele>
        <time>2022-07-16T15:04:17+0200</time>
      </trkpt>
      <trkpt lat="44.97597" lon="6.509">
        <ele>1484.5</ele>
        <time>2022-07-16T15:04:18+0200</time>
      </trkpt>
      <trkpt lat="44.97598" lon="6.50908">
        <ele>1484.5</ele>
        <time>2022-07-16T15:04:19+0200</time>
      </trkpt>
      <trkpt lat="44.97598" lon="6.50915">
        <ele>1484.5</ele>
        <time>2022-07-16T15:04:20+0200</time>
      </trkpt>
      <trkpt lat="44.97594" lon="6.50919">
        <ele>1484.3</ele>
        <time>2022-07-16T15:04:21+0200</time>
      </trkpt>
      <trkpt lat="44.97592" lon="6.50925">
        <ele>1484</ele>
        <time>2022-07-16T15:04:24+0200</time>
      </trkpt>
      <trkpt lat="44.97591" lon="6.50933">
        <ele>1483.7</ele>
        <time>2022-07-16T15:04:25+0200</time>
      </trkpt>
      <trkpt lat="44.97591" lon="6.50941">
        <ele>1483.4</ele>
        <time>2022-07-16T15:04:26+0200</time>
      </trkpt>
      <trkpt lat="44.97591" lon="6.50952">
        <ele>1483.2</ele>
        <time>2022-07-16T15:04:28+0200</time>
      </trkpt>
      <trkpt lat="44.9759" lon="6.5096">
        <ele>1483.1</ele>
        <time>2022-07-16T15:04:29+0200</time>
      </trkpt>
      <trkpt lat="44.9759" lon="6.5097">
        <ele>1483</ele>
        <time>2022-07-16T15:04:30+0200</time>
      </trkpt>
      <trkpt lat="44.9759" lon="6.50978">
        <ele>1482.8</ele>
        <time>2022-07-16T15:04:31+0200</time>
      </trkpt>
      <trkpt lat="44.97586" lon="6.5099">
        <ele>1482.4</ele>
        <time>2022-07-16T15:04:33+0200</time>
      </trkpt>
      <trkpt lat="44.97585" lon="6.50996">
        <ele>1482.2</ele>
        <time>2022-07-16T15:04:34+0200</time>
      </trkpt>
      <trkpt lat="44.97585" lon="6.51003">
        <ele>1482</ele>
        <time>2022-07-16T15:04:35+0200</time>
      </trkpt>
      <trkpt lat="44.97585" lon="6.51012">
        <ele>1482</ele>
        <time>2022-07-16T15:04:36+0200</time>
      </trkpt>
      <trkpt lat="44.97584" lon="6.5102">
        <ele>1482</ele>
        <time>2022-07-16T15:04:37+0200</time>
      </trkpt>
      <trkpt lat="44.97583" lon="6.51028">
        <ele>1482</ele>
        <time>2022-07-16T15:04:38+0200</time>
      </trkpt>
      <trkpt lat="44.97582" lon="6.51035">
        <ele>1482</ele>
        <time>2022-07-16T15:04:39+0200</time>
      </trkpt>
      <trkpt lat="44.97579" lon="6.5104">
        <ele>1482</ele>
        <time>2022-07-16T15:04:41+0200</time>
      </trkpt>
      <trkpt lat="44.97574" lon="6.51041">
        <ele>1482</ele>
        <time>2022-07-16T15:04:42+0200</time>
      </trkpt>
      <trkpt lat="44.97568" lon="6.5104">
        <ele>1482</ele>
        <time>2022-07-16T15:04:44+0200</time>
      </trkpt>
      <trkpt lat="44.97562" lon="6.51035">
        <ele>1482</ele>
        <time>2022-07-16T15:04:46+0200</time>
      </trkpt>
      <trkpt lat="44.97559" lon="6.5103">
        <ele>1482</ele>
        <time>2022-07-16T15:04:48+0200</time>
      </trkpt>
      <trkpt lat="44.97558" lon="6.51021">
        <ele>1482</ele>
        <time>2022-07-16T15:04:50+0200</time>
      </trkpt>
      <trkpt lat="44.97553" lon="6.51015">
        <ele>1482</ele>
        <time>2022-07-16T15:04:52+0200</time>
      </trkpt>
      <trkpt lat="44.97547" lon="6.51012">
        <ele>1481.9</ele>
        <time>2022-07-16T15:04:54+0200</time>
      </trkpt>
      <trkpt lat="44.97541" lon="6.5101">
        <ele>1481.8</ele>
        <time>2022-07-16T15:04:56+0200</time>
      </trkpt>
      <trkpt lat="44.97537" lon="6.51009">
        <ele>1481.8</ele>
        <time>2022-07-16T15:04:58+0200</time>
      </trkpt>
      <trkpt lat="44.97533" lon="6.51001">
        <ele>1482</ele>
        <time>2022-07-16T15:05:01+0200</time>
      </trkpt>
      <trkpt lat="44.97528" lon="6.50995">
        <ele>1482</ele>
        <time>2022-07-16T15:05:03+0200</time>
      </trkpt>
      <trkpt lat="44.97524" lon="6.50991">
        <ele>1481.9</ele>
        <time>2022-07-16T15:05:05+0200</time>
      </trkpt>
      <trkpt lat="44.9752" lon="6.50991">
        <ele>1481.7</ele>
        <time>2022-07-16T15:05:06+0200</time>
      </trkpt>
      <trkpt lat="44.97514" lon="6.50989">
        <ele>1481.5</ele>
        <time>2022-07-16T15:05:07+0200</time>
      </trkpt>
      <trkpt lat="44.97516" lon="6.50982">
        <ele>1481.6</ele>
        <time>2022-07-16T15:05:08+0200</time>
      </trkpt>
      <trkpt lat="44.97513" lon="6.50976">
        <ele>1481.4</ele>
        <time>2022-07-16T15:05:10+0200</time>
      </trkpt>
      <trkpt lat="44.97505" lon="6.50974">
        <ele>1481.2</ele>
        <time>2022-07-16T15:05:12+0200</time>
      </trkpt>
      <trkpt lat="44.975" lon="6.50972">
        <ele>1481</ele>
        <time>2022-07-16T15:05:13+0200</time>
      </trkpt>
      <trkpt lat="44.97496" lon="6.50968">
        <ele>1480.9</ele>
        <time>2022-07-16T15:05:15+0200</time>
      </trkpt>
      <trkpt lat="44.97493" lon="6.50958">
        <ele>1480.7</ele>
        <time>2022-07-16T15:05:17+0200</time>
      </trkpt>
      <trkpt lat="44.97487" lon="6.50948">
        <ele>1480.5</ele>
        <time>2022-07-16T15:05:19+0200</time>
      </trkpt>
      <trkpt lat="44.97482" lon="6.50944">
        <ele>1480.3</ele>
        <time>2022-07-16T15:05:21+0200</time>
      </trkpt>
      <trkpt lat="44.97473" lon="6.50934">
        <ele>1479.7</ele>
        <time>2022-07-16T15:05:23+0200</time>
      </trkpt>
      <trkpt lat="44.9747" lon="6.50926">
        <ele>1479</ele>
        <time>2022-07-16T15:05:24+0200</time>
      </trkpt>
      <trkpt lat="44.97467" lon="6.50918">
        <ele>1478.5</ele>
        <time>2022-07-16T15:05:25+0200</time>
      </trkpt>
      <trkpt lat="44.97462" lon="6.50913">
        <ele>1477.9</ele>
        <time>2022-07-16T15:05:26+0200</time>
      </trkpt>
      <trkpt lat="44.97458" lon="6.50903">
        <ele>1477.5</ele>
        <time>2022-07-16T15:05:27+0200</time>
      </trkpt>
      <trkpt lat="44.97453" lon="6.50896">
        <ele>1476.9</ele>
        <time>2022-07-16T15:05:28+0200</time>
      </trkpt>
      <trkpt lat="44.97447" lon="6.50888">
        <ele>1476.3</ele>
        <time>2022-07-16T15:05:29+0200</time>
      </trkpt>
      <trkpt lat="44.97443" lon="6.50881">
        <ele>1475.5</ele>
        <time>2022-07-16T15:05:30+0200</time>
      </trkpt>
      <trkpt lat="44.97438" lon="6.50871">
        <ele>1474.4</ele>
        <time>2022-07-16T15:05:34+0200</time>
      </trkpt>
      <trkpt lat="44.97427" lon="6.50856">
        <ele>1472.4</ele>
        <time>2022-07-16T15:05:35+0200</time>
      </trkpt>
      <trkpt lat="44.97417" lon="6.50851">
        <ele>1471</ele>
        <time>2022-07-16T15:05:36+0200</time>
      </trkpt>
      <trkpt lat="44.9741" lon="6.50841">
        <ele>1470.3</ele>
        <time>2022-07-16T15:05:37+0200</time>
      </trkpt>
      <trkpt lat="44.97397" lon="6.50825">
        <ele>1468.6</ele>
        <time>2022-07-16T15:05:38+0200</time>
      </trkpt>
      <trkpt lat="44.97385" lon="6.5081">
        <ele>1466.9</ele>
        <time>2022-07-16T15:05:39+0200</time>
      </trkpt>
      <trkpt lat="44.97375" lon="6.50802">
        <ele>1465.9</ele>
        <time>2022-07-16T15:05:40+0200</time>
      </trkpt>
      <trkpt lat="44.97366" lon="6.50794">
        <ele>1465</ele>
        <time>2022-07-16T15:05:41+0200</time>
      </trkpt>
      <trkpt lat="44.97357" lon="6.50787">
        <ele>1464.1</ele>
        <time>2022-07-16T15:05:42+0200</time>
      </trkpt>
      <trkpt lat="44.9735" lon="6.50781">
        <ele>1463.6</ele>
        <time>2022-07-16T15:05:43+0200</time>
      </trkpt>
      <trkpt lat="44.97343" lon="6.50778">
        <ele>1463.4</ele>
        <time>2022-07-16T15:05:45+0200</time>
      </trkpt>
      <trkpt lat="44.9734" lon="6.50772">
        <ele>1463.3</ele>
        <time>2022-07-16T15:05:46+0200</time>
      </trkpt>
      <trkpt lat="44.97323" lon="6.50783">
        <ele>1463.5</ele>
        <time>2022-07-16T15:05:48+0200</time>
      </trkpt>
      <trkpt lat="44.97319" lon="6.50791">
        <ele>1463.6</ele>
        <time>2022-07-16T15:05:50+0200</time>
      </trkpt>
      <trkpt lat="44.97313" lon="6.50795">
        <ele>1463.9</ele>
        <time>2022-07-16T15:05:52+0200</time>
      </trkpt>
      <trkpt lat="44.97306" lon="6.50797">
        <ele>1464.3</ele>
        <time>2022-07-16T15:05:54+0200</time>
      </trkpt>
      <trkpt lat="44.97301" lon="6.50804">
        <ele>1464.1</ele>
        <time>2022-07-16T15:05:56+0200</time>
      </trkpt>
      <trkpt lat="44.97296" lon="6.50806">
        <ele>1464</ele>
        <time>2022-07-16T15:05:57+0200</time>
      </trkpt>
      <trkpt lat="44.97291" lon="6.50807">
        <ele>1463.9</ele>
        <time>2022-07-16T15:05:58+0200</time>
      </trkpt>
      <trkpt lat="44.97285" lon="6.5081">
        <ele>1463.8</ele>
        <time>2022-07-16T15:05:59+0200</time>
      </trkpt>
      <trkpt lat="44.97279" lon="6.50812">
        <ele>1463.8</ele>
        <time>2022-07-16T15:06:00+0200</time>
      </trkpt>
      <trkpt lat="44.97274" lon="6.50812">
        <ele>1463.8</ele>
        <time>2022-07-16T15:06:01+0200</time>
      </trkpt>
      <trkpt lat="44.9727" lon="6.50815">
        <ele>1463.7</ele>
        <time>2022-07-16T15:06:02+0200</time>
      </trkpt>
      <trkpt lat="44.97264" lon="6.50819">
        <ele>1463.5</ele>
        <time>2022-07-16T15:06:04+0200</time>
      </trkpt>
      <trkpt lat="44.97256" lon="6.50822">
        <ele>1463.4</ele>
        <time>2022-07-16T15:06:06+0200</time>
      </trkpt>
      <trkpt lat="44.97251" lon="6.50826">
        <ele>1463.3</ele>
        <time>2022-07-16T15:06:08+0200</time>
      </trkpt>
      <trkpt lat="44.97245" lon="6.50832">
        <ele>1463.2</ele>
        <time>2022-07-16T15:06:10+0200</time>
      </trkpt>
      <trkpt lat="44.9724" lon="6.50839">
        <ele>1463.3</ele>
        <time>2022-07-16T15:06:12+0200</time>
      </trkpt>
      <trkpt lat="44.97234" lon="6.50846">
        <ele>1463.3</ele>
        <time>2022-07-16T15:06:15+0200</time>
      </trkpt>
      <trkpt lat="44.97229" lon="6.50852">
        <ele>1463.3</ele>
        <time>2022-07-16T15:06:18+0200</time>
      </trkpt>
      <trkpt lat="44.97226" lon="6.50858">
        <ele>1463.1</ele>
        <time>2022-07-16T15:06:21+0200</time>
      </trkpt>
      <trkpt lat="44.97224" lon="6.50865">
        <ele>1463</ele>
        <time>2022-07-16T15:06:26+0200</time>
      </trkpt>
      <trkpt lat="44.97221" lon="6.5087">
        <ele>1463.1</ele>
        <time>2022-07-16T15:06:31+0200</time>
      </trkpt>
      <trkpt lat="44.97218" lon="6.50876">
        <ele>1463.2</ele>
        <time>2022-07-16T15:06:35+0200</time>
      </trkpt>
      <trkpt lat="44.97213" lon="6.50881">
        <ele>1463.3</ele>
        <time>2022-07-16T15:06:39+0200</time>
      </trkpt>
      <trkpt lat="44.97209" lon="6.50886">
        <ele>1463.5</ele>
        <time>2022-07-16T15:06:45+0200</time>
      </trkpt>
      <trkpt lat="44.97206" lon="6.50892">
        <ele>1463.6</ele>
        <time>2022-07-16T15:06:50+0200</time>
      </trkpt>
      <trkpt lat="44.97203" lon="6.50898">
        <ele>1463.7</ele>
        <time>2022-07-16T15:06:53+0200</time>
      </trkpt>
      <trkpt lat="44.97198" lon="6.509">
        <ele>1463.9</ele>
        <time>2022-07-16T15:06:56+0200</time>
      </trkpt>
      <trkpt lat="44.97194" lon="6.50904">
        <ele>1464</ele>
        <time>2022-07-16T15:07:01+0200</time>
      </trkpt>
      <trkpt lat="44.9719" lon="6.50909">
        <ele>1464.3</ele>
        <time>2022-07-16T15:07:07+0200</time>
      </trkpt>
      <trkpt lat="44.97186" lon="6.50916">
        <ele>1464.6</ele>
        <time>2022-07-16T15:07:10+0200</time>
      </trkpt>
      <trkpt lat="44.97184" lon="6.50925">
        <ele>1464.6</ele>
        <time>2022-07-16T15:07:12+0200</time>
      </trkpt>
      <trkpt lat="44.97181" lon="6.50932">
        <ele>1464.7</ele>
        <time>2022-07-16T15:07:14+0200</time>
      </trkpt>
      <trkpt lat="44.97176" lon="6.50938">
        <ele>1464.8</ele>
        <time>2022-07-16T15:07:16+0200</time>
      </trkpt>
      <trkpt lat="44.97173" lon="6.50943">
        <ele>1464.8</ele>
        <time>2022-07-16T15:07:17+0200</time>
      </trkpt>
      <trkpt lat="44.9717" lon="6.50949">
        <ele>1464.6</ele>
        <time>2022-07-16T15:07:18+0200</time>
      </trkpt>
      <trkpt lat="44.97167" lon="6.50955">
        <ele>1464.2</ele>
        <time>2022-07-16T15:07:19+0200</time>
      </trkpt>
      <trkpt lat="44.97164" lon="6.50961">
        <ele>1463.7</ele>
        <time>2022-07-16T15:07:20+0200</time>
      </trkpt>
      <trkpt lat="44.97161" lon="6.50969">
        <ele>1463.2</ele>
        <time>2022-07-16T15:07:21+0200</time>
      </trkpt>
      <trkpt lat="44.97158" lon="6.50976">
        <ele>1462.8</ele>
        <time>2022-07-16T15:07:22+0200</time>
      </trkpt>
      <trkpt lat="44.97155" lon="6.50984">
        <ele>1462.3</ele>
        <time>2022-07-16T15:07:23+0200</time>
      </trkpt>
      <trkpt lat="44.97153" lon="6.50992">
        <ele>1461.9</ele>
        <time>2022-07-16T15:07:24+0200</time>
      </trkpt>
      <trkpt lat="44.9715" lon="6.51">
        <ele>1461.6</ele>
        <time>2022-07-16T15:07:25+0200</time>
      </trkpt>
      <trkpt lat="44.97147" lon="6.51007">
        <ele>1461.6</ele>
        <time>2022-07-16T15:07:26+0200</time>
      </trkpt>
      <trkpt lat="44.97144" lon="6.51015">
        <ele>1461.7</ele>
        <time>2022-07-16T15:07:27+0200</time>
      </trkpt>
      <trkpt lat="44.97141" lon="6.51023">
        <ele>1461.9</ele>
        <time>2022-07-16T15:07:28+0200</time>
      </trkpt>
      <trkpt lat="44.97138" lon="6.51032">
        <ele>1461.8</ele>
        <time>2022-07-16T15:07:29+0200</time>
      </trkpt>
      <trkpt lat="44.97134" lon="6.51039">
        <ele>1461.5</ele>
        <time>2022-07-16T15:07:30+0200</time>
      </trkpt>
      <trkpt lat="44.97131" lon="6.51048">
        <ele>1461.2</ele>
        <time>2022-07-16T15:07:31+0200</time>
      </trkpt>
      <trkpt lat="44.97129" lon="6.51056">
        <ele>1461.1</ele>
        <time>2022-07-16T15:07:32+0200</time>
      </trkpt>
      <trkpt lat="44.97125" lon="6.51065">
        <ele>1461.3</ele>
        <time>2022-07-16T15:07:33+0200</time>
      </trkpt>
      <trkpt lat="44.97123" lon="6.51072">
        <ele>1461.4</ele>
        <time>2022-07-16T15:07:34+0200</time>
      </trkpt>
      <trkpt lat="44.97121" lon="6.5108">
        <ele>1461.4</ele>
        <time>2022-07-16T15:07:35+0200</time>
      </trkpt>
      <trkpt lat="44.9712" lon="6.51088">
        <ele>1461.4</ele>
        <time>2022-07-16T15:07:36+0200</time>
      </trkpt>
      <trkpt lat="44.97117" lon="6.51096">
        <ele>1461.6</ele>
        <time>2022-07-16T15:07:37+0200</time>
      </trkpt>
      <trkpt lat="44.97117" lon="6.51103">
        <ele>1461.6</ele>
        <time>2022-07-16T15:07:38+0200</time>
      </trkpt>
      <trkpt lat="44.97116" lon="6.5111">
        <ele>1461.7</ele>
        <time>2022-07-16T15:07:39+0200</time>
      </trkpt>
      <trkpt lat="44.97114" lon="6.51118">
        <ele>1461.5</ele>
        <time>2022-07-16T15:07:40+0200</time>
      </trkpt>
      <trkpt lat="44.97113" lon="6.51125">
        <ele>1461.3</ele>
        <time>2022-07-16T15:07:41+0200</time>
      </trkpt>
      <trkpt lat="44.97111" lon="6.51135">
        <ele>1461.2</ele>
        <time>2022-07-16T15:07:43+0200</time>
      </trkpt>
      <trkpt lat="44.97119" lon="6.51138">
        <ele>1460.4</ele>
        <time>2022-07-16T15:07:52+0200</time>
      </trkpt>
    </trkseg>
  </trk>
</gpx>